<?xml version="1.0" encoding="UTF-8" standalone="no" ?>
<gpx xmlns="http://www.topografix.com/GPX/1/1" xmlns:xsi="http://www.w3.org/2001/XMLSchema-instance" xsi:schemaLocation="http://www.topografix.com/GPX/1/1 http://www.topografix.com/GPX/1/1/gpx.xsd" version="1.1" creator="VisuGPX - https://www.visugpx.com">
  <metadata>
    <name>lundi 2015 04</name>
    <desc><![CDATA[cumul pour avril 2015]]></desc>
  </metadata>
  <trk>
    <name><![CDATA[06/04/2015 20:20]]></name>
    <extensions>
      <line xmlns="http://www.topografix.com/GPX/gpx_style/0/2">
        <color>000000</color>
      </line>
    </extensions>
    <trkseg>
      <trkpt lat="48.85659" lon="2.3465">
        <ele>97.9</ele>
        <time>2015-04-06T18:20:56.358Z</time>
      </trkpt>
      <trkpt lat="48.85659" lon="2.3465">
        <ele>97.9</ele>
        <time>2015-04-06T18:20:57.121Z</time>
      </trkpt>
      <trkpt lat="48.85637" lon="2.3464">
        <ele>74.6</ele>
        <time>2015-04-06T18:20:59.889Z</time>
      </trkpt>
      <trkpt lat="48.85631" lon="2.34639">
        <ele>79.1</ele>
        <time>2015-04-06T18:21:02.151Z</time>
      </trkpt>
      <trkpt lat="48.85626" lon="2.34638">
        <ele>77.6</ele>
        <time>2015-04-06T18:21:02.895Z</time>
      </trkpt>
      <trkpt lat="48.85619" lon="2.34636">
        <ele>76.3</ele>
        <time>2015-04-06T18:21:04.845Z</time>
      </trkpt>
      <trkpt lat="48.85616" lon="2.34636">
        <ele>75.4</ele>
        <time>2015-04-06T18:21:05.859Z</time>
      </trkpt>
      <trkpt lat="48.8561" lon="2.34635">
        <ele>76.8</ele>
        <time>2015-04-06T18:21:07.954Z</time>
      </trkpt>
      <trkpt lat="48.85606" lon="2.34633">
        <ele>77.4</ele>
        <time>2015-04-06T18:21:08.843Z</time>
      </trkpt>
      <trkpt lat="48.85601" lon="2.34627">
        <ele>78.6</ele>
        <time>2015-04-06T18:21:10.885Z</time>
      </trkpt>
      <trkpt lat="48.85599" lon="2.34624">
        <ele>79.3</ele>
        <time>2015-04-06T18:21:11.971Z</time>
      </trkpt>
      <trkpt lat="48.85592" lon="2.34615">
        <ele>79.8</ele>
        <time>2015-04-06T18:21:14.895Z</time>
      </trkpt>
      <trkpt lat="48.8559" lon="2.34611">
        <ele>79.9</ele>
        <time>2015-04-06T18:21:15.863Z</time>
      </trkpt>
      <trkpt lat="48.85585" lon="2.34606">
        <ele>76.4</ele>
        <time>2015-04-06T18:21:16.899Z</time>
      </trkpt>
      <trkpt lat="48.85582" lon="2.34602">
        <ele>74.9</ele>
        <time>2015-04-06T18:21:17.929Z</time>
      </trkpt>
      <trkpt lat="48.85576" lon="2.346">
        <ele>74.2</ele>
        <time>2015-04-06T18:21:19.903Z</time>
      </trkpt>
      <trkpt lat="48.85573" lon="2.346">
        <ele>73.6</ele>
        <time>2015-04-06T18:21:20.842Z</time>
      </trkpt>
      <trkpt lat="48.85566" lon="2.34596">
        <ele>72.8</ele>
        <time>2015-04-06T18:21:22.932Z</time>
      </trkpt>
      <trkpt lat="48.85563" lon="2.34595">
        <ele>71.2</ele>
        <time>2015-04-06T18:21:23.960Z</time>
      </trkpt>
      <trkpt lat="48.85557" lon="2.34588">
        <ele>76.1</ele>
        <time>2015-04-06T18:21:25.930Z</time>
      </trkpt>
      <trkpt lat="48.85554" lon="2.34585">
        <ele>77.5</ele>
        <time>2015-04-06T18:21:26.879Z</time>
      </trkpt>
      <trkpt lat="48.85549" lon="2.34582">
        <ele>79.3</ele>
        <time>2015-04-06T18:21:27.874Z</time>
      </trkpt>
      <trkpt lat="48.85545" lon="2.34578">
        <ele>80.2</ele>
        <time>2015-04-06T18:21:28.898Z</time>
      </trkpt>
      <trkpt lat="48.85541" lon="2.34574">
        <ele>80.9</ele>
        <time>2015-04-06T18:21:29.961Z</time>
      </trkpt>
      <trkpt lat="48.85537" lon="2.3457">
        <ele>81.3</ele>
        <time>2015-04-06T18:21:30.863Z</time>
      </trkpt>
      <trkpt lat="48.85529" lon="2.34565">
        <ele>82.2</ele>
        <time>2015-04-06T18:21:32.896Z</time>
      </trkpt>
      <trkpt lat="48.85525" lon="2.34562">
        <ele>82.3</ele>
        <time>2015-04-06T18:21:33.969Z</time>
      </trkpt>
      <trkpt lat="48.85519" lon="2.34557">
        <ele>82.9</ele>
        <time>2015-04-06T18:21:35.899Z</time>
      </trkpt>
      <trkpt lat="48.85516" lon="2.34554">
        <ele>83.3</ele>
        <time>2015-04-06T18:21:36.890Z</time>
      </trkpt>
      <trkpt lat="48.85509" lon="2.34548">
        <ele>83.9</ele>
        <time>2015-04-06T18:21:38.922Z</time>
      </trkpt>
      <trkpt lat="48.85505" lon="2.34545">
        <ele>84.5</ele>
        <time>2015-04-06T18:21:39.930Z</time>
      </trkpt>
      <trkpt lat="48.855" lon="2.34543">
        <ele>84.5</ele>
        <time>2015-04-06T18:21:40.949Z</time>
      </trkpt>
      <trkpt lat="48.85495" lon="2.3454">
        <ele>83.6</ele>
        <time>2015-04-06T18:21:41.953Z</time>
      </trkpt>
      <trkpt lat="48.85489" lon="2.34536">
        <ele>82.3</ele>
        <time>2015-04-06T18:21:42.876Z</time>
      </trkpt>
      <trkpt lat="48.85484" lon="2.34531">
        <ele>80.9</ele>
        <time>2015-04-06T18:21:43.906Z</time>
      </trkpt>
      <trkpt lat="48.8548" lon="2.34527">
        <ele>81.1</ele>
        <time>2015-04-06T18:21:44.864Z</time>
      </trkpt>
      <trkpt lat="48.85475" lon="2.34524">
        <ele>81.4</ele>
        <time>2015-04-06T18:21:45.872Z</time>
      </trkpt>
      <trkpt lat="48.8547" lon="2.3452">
        <ele>80.3</ele>
        <time>2015-04-06T18:21:46.892Z</time>
      </trkpt>
      <trkpt lat="48.8546" lon="2.34516">
        <ele>77.1</ele>
        <time>2015-04-06T18:21:47.903Z</time>
      </trkpt>
      <trkpt lat="48.85453" lon="2.34511">
        <ele>75.2</ele>
        <time>2015-04-06T18:21:48.920Z</time>
      </trkpt>
      <trkpt lat="48.85447" lon="2.34507">
        <ele>73.6</ele>
        <time>2015-04-06T18:21:49.924Z</time>
      </trkpt>
      <trkpt lat="48.85441" lon="2.34504">
        <ele>73.1</ele>
        <time>2015-04-06T18:21:51.064Z</time>
      </trkpt>
      <trkpt lat="48.85437" lon="2.345">
        <ele>72.4</ele>
        <time>2015-04-06T18:21:51.876Z</time>
      </trkpt>
      <trkpt lat="48.85429" lon="2.34494">
        <ele>73</ele>
        <time>2015-04-06T18:21:53.885Z</time>
      </trkpt>
      <trkpt lat="48.85425" lon="2.3449">
        <ele>73.1</ele>
        <time>2015-04-06T18:21:54.892Z</time>
      </trkpt>
      <trkpt lat="48.85422" lon="2.34486">
        <ele>73.5</ele>
        <time>2015-04-06T18:21:55.911Z</time>
      </trkpt>
      <trkpt lat="48.85419" lon="2.34481">
        <ele>73.8</ele>
        <time>2015-04-06T18:21:56.936Z</time>
      </trkpt>
      <trkpt lat="48.85414" lon="2.34475">
        <ele>75.6</ele>
        <time>2015-04-06T18:21:57.951Z</time>
      </trkpt>
      <trkpt lat="48.8541" lon="2.34471">
        <ele>76.9</ele>
        <time>2015-04-06T18:21:58.870Z</time>
      </trkpt>
      <trkpt lat="48.85405" lon="2.34468">
        <ele>77.4</ele>
        <time>2015-04-06T18:21:59.871Z</time>
      </trkpt>
      <trkpt lat="48.85401" lon="2.34464">
        <ele>77.8</ele>
        <time>2015-04-06T18:22:00.872Z</time>
      </trkpt>
      <trkpt lat="48.85396" lon="2.34456">
        <ele>78.3</ele>
        <time>2015-04-06T18:22:03.594Z</time>
      </trkpt>
      <trkpt lat="48.85394" lon="2.34452">
        <ele>78.4</ele>
        <time>2015-04-06T18:22:03.862Z</time>
      </trkpt>
      <trkpt lat="48.85388" lon="2.34446">
        <ele>78.8</ele>
        <time>2015-04-06T18:22:05.878Z</time>
      </trkpt>
      <trkpt lat="48.85386" lon="2.34442">
        <ele>78.7</ele>
        <time>2015-04-06T18:22:06.890Z</time>
      </trkpt>
      <trkpt lat="48.8538" lon="2.34437">
        <ele>78.9</ele>
        <time>2015-04-06T18:22:08.906Z</time>
      </trkpt>
      <trkpt lat="48.85376" lon="2.34433">
        <ele>78.7</ele>
        <time>2015-04-06T18:22:09.926Z</time>
      </trkpt>
      <trkpt lat="48.85368" lon="2.34428">
        <ele>78.5</ele>
        <time>2015-04-06T18:22:11.865Z</time>
      </trkpt>
      <trkpt lat="48.85364" lon="2.34425">
        <ele>78.3</ele>
        <time>2015-04-06T18:22:12.872Z</time>
      </trkpt>
      <trkpt lat="48.85359" lon="2.34422">
        <ele>78.1</ele>
        <time>2015-04-06T18:22:13.892Z</time>
      </trkpt>
      <trkpt lat="48.85355" lon="2.3442">
        <ele>78.2</ele>
        <time>2015-04-06T18:22:14.908Z</time>
      </trkpt>
      <trkpt lat="48.85347" lon="2.34418">
        <ele>78.3</ele>
        <time>2015-04-06T18:22:16.938Z</time>
      </trkpt>
      <trkpt lat="48.85343" lon="2.34417">
        <ele>78.4</ele>
        <time>2015-04-06T18:22:17.940Z</time>
      </trkpt>
      <trkpt lat="48.85335" lon="2.34412">
        <ele>78.6</ele>
        <time>2015-04-06T18:22:20.880Z</time>
      </trkpt>
      <trkpt lat="48.85332" lon="2.34409">
        <ele>78.8</ele>
        <time>2015-04-06T18:22:21.913Z</time>
      </trkpt>
      <trkpt lat="48.85325" lon="2.34405">
        <ele>79.3</ele>
        <time>2015-04-06T18:22:23.935Z</time>
      </trkpt>
      <trkpt lat="48.8532" lon="2.34403">
        <ele>79.2</ele>
        <time>2015-04-06T18:22:24.839Z</time>
      </trkpt>
      <trkpt lat="48.85313" lon="2.34397">
        <ele>79.2</ele>
        <time>2015-04-06T18:22:26.921Z</time>
      </trkpt>
      <trkpt lat="48.85309" lon="2.34395">
        <ele>79.4</ele>
        <time>2015-04-06T18:22:27.934Z</time>
      </trkpt>
      <trkpt lat="48.85303" lon="2.3439">
        <ele>79.9</ele>
        <time>2015-04-06T18:22:29.894Z</time>
      </trkpt>
      <trkpt lat="48.85299" lon="2.34388">
        <ele>80.1</ele>
        <time>2015-04-06T18:22:30.868Z</time>
      </trkpt>
      <trkpt lat="48.85295" lon="2.34387">
        <ele>80.5</ele>
        <time>2015-04-06T18:22:31.936Z</time>
      </trkpt>
      <trkpt lat="48.8529" lon="2.34385">
        <ele>81</ele>
        <time>2015-04-06T18:22:32.861Z</time>
      </trkpt>
      <trkpt lat="48.85283" lon="2.3438">
        <ele>81.8</ele>
        <time>2015-04-06T18:22:34.910Z</time>
      </trkpt>
      <trkpt lat="48.85281" lon="2.34379">
        <ele>82</ele>
        <time>2015-04-06T18:22:35.893Z</time>
      </trkpt>
      <trkpt lat="48.85274" lon="2.34376">
        <ele>82.3</ele>
        <time>2015-04-06T18:22:37.887Z</time>
      </trkpt>
      <trkpt lat="48.85271" lon="2.34374">
        <ele>82.6</ele>
        <time>2015-04-06T18:22:38.870Z</time>
      </trkpt>
      <trkpt lat="48.85265" lon="2.34365">
        <ele>83.3</ele>
        <time>2015-04-06T18:22:41.870Z</time>
      </trkpt>
      <trkpt lat="48.85261" lon="2.34363">
        <ele>83.6</ele>
        <time>2015-04-06T18:22:42.873Z</time>
      </trkpt>
      <trkpt lat="48.85257" lon="2.3436">
        <ele>83.7</ele>
        <time>2015-04-06T18:22:44.076Z</time>
      </trkpt>
      <trkpt lat="48.85253" lon="2.34356">
        <ele>83.8</ele>
        <time>2015-04-06T18:22:44.927Z</time>
      </trkpt>
      <trkpt lat="48.85246" lon="2.34348">
        <ele>84.5</ele>
        <time>2015-04-06T18:22:46.872Z</time>
      </trkpt>
      <trkpt lat="48.85242" lon="2.34345">
        <ele>84.8</ele>
        <time>2015-04-06T18:22:47.894Z</time>
      </trkpt>
      <trkpt lat="48.85236" lon="2.34341">
        <ele>85.5</ele>
        <time>2015-04-06T18:22:49.919Z</time>
      </trkpt>
      <trkpt lat="48.85232" lon="2.34339">
        <ele>85.8</ele>
        <time>2015-04-06T18:22:50.923Z</time>
      </trkpt>
      <trkpt lat="48.85225" lon="2.34335">
        <ele>86.5</ele>
        <time>2015-04-06T18:22:52.933Z</time>
      </trkpt>
      <trkpt lat="48.85222" lon="2.34333">
        <ele>86.8</ele>
        <time>2015-04-06T18:22:53.947Z</time>
      </trkpt>
      <trkpt lat="48.85214" lon="2.34332">
        <ele>87.4</ele>
        <time>2015-04-06T18:22:56.103Z</time>
      </trkpt>
      <trkpt lat="48.8521" lon="2.3433">
        <ele>87.7</ele>
        <time>2015-04-06T18:22:56.920Z</time>
      </trkpt>
      <trkpt lat="48.85203" lon="2.34327">
        <ele>88.3</ele>
        <time>2015-04-06T18:22:58.941Z</time>
      </trkpt>
      <trkpt lat="48.85199" lon="2.34325">
        <ele>88.5</ele>
        <time>2015-04-06T18:22:59.955Z</time>
      </trkpt>
      <trkpt lat="48.85191" lon="2.34324">
        <ele>89.4</ele>
        <time>2015-04-06T18:23:01.931Z</time>
      </trkpt>
      <trkpt lat="48.85189" lon="2.34324">
        <ele>89.6</ele>
        <time>2015-04-06T18:23:02.943Z</time>
      </trkpt>
      <trkpt lat="48.85182" lon="2.34321">
        <ele>90.1</ele>
        <time>2015-04-06T18:23:04.947Z</time>
      </trkpt>
      <trkpt lat="48.85179" lon="2.34319">
        <ele>90.2</ele>
        <time>2015-04-06T18:23:05.867Z</time>
      </trkpt>
      <trkpt lat="48.85174" lon="2.34317">
        <ele>90.2</ele>
        <time>2015-04-06T18:23:06.987Z</time>
      </trkpt>
      <trkpt lat="48.8517" lon="2.34314">
        <ele>90.7</ele>
        <time>2015-04-06T18:23:07.905Z</time>
      </trkpt>
      <trkpt lat="48.85165" lon="2.34312">
        <ele>91.3</ele>
        <time>2015-04-06T18:23:08.910Z</time>
      </trkpt>
      <trkpt lat="48.8516" lon="2.3431">
        <ele>91.9</ele>
        <time>2015-04-06T18:23:09.915Z</time>
      </trkpt>
      <trkpt lat="48.85155" lon="2.34307">
        <ele>92.5</ele>
        <time>2015-04-06T18:23:11.397Z</time>
      </trkpt>
      <trkpt lat="48.8515" lon="2.34305">
        <ele>92.9</ele>
        <time>2015-04-06T18:23:11.951Z</time>
      </trkpt>
      <trkpt lat="48.85144" lon="2.343">
        <ele>93.5</ele>
        <time>2015-04-06T18:23:13.872Z</time>
      </trkpt>
      <trkpt lat="48.85141" lon="2.34297">
        <ele>93.8</ele>
        <time>2015-04-06T18:23:14.867Z</time>
      </trkpt>
      <trkpt lat="48.85134" lon="2.34292">
        <ele>94.2</ele>
        <time>2015-04-06T18:23:16.556Z</time>
      </trkpt>
      <trkpt lat="48.8513" lon="2.34289">
        <ele>94.7</ele>
        <time>2015-04-06T18:23:17.893Z</time>
      </trkpt>
      <trkpt lat="48.85121" lon="2.34285">
        <ele>95.1</ele>
        <time>2015-04-06T18:23:19.939Z</time>
      </trkpt>
      <trkpt lat="48.85117" lon="2.34282">
        <ele>94.5</ele>
        <time>2015-04-06T18:23:20.955Z</time>
      </trkpt>
      <trkpt lat="48.8511" lon="2.34278">
        <ele>94.4</ele>
        <time>2015-04-06T18:23:22.860Z</time>
      </trkpt>
      <trkpt lat="48.85106" lon="2.34276">
        <ele>94.5</ele>
        <time>2015-04-06T18:23:23.883Z</time>
      </trkpt>
      <trkpt lat="48.85102" lon="2.34271">
        <ele>95</ele>
        <time>2015-04-06T18:23:25.904Z</time>
      </trkpt>
      <trkpt lat="48.85098" lon="2.34269">
        <ele>95.1</ele>
        <time>2015-04-06T18:23:26.923Z</time>
      </trkpt>
      <trkpt lat="48.85094" lon="2.34266">
        <ele>94.9</ele>
        <time>2015-04-06T18:23:28.351Z</time>
      </trkpt>
      <trkpt lat="48.85089" lon="2.34263">
        <ele>94.6</ele>
        <time>2015-04-06T18:23:28.976Z</time>
      </trkpt>
      <trkpt lat="48.85084" lon="2.3426">
        <ele>94.4</ele>
        <time>2015-04-06T18:23:29.837Z</time>
      </trkpt>
      <trkpt lat="48.85079" lon="2.34257">
        <ele>94.5</ele>
        <time>2015-04-06T18:23:30.864Z</time>
      </trkpt>
      <trkpt lat="48.85074" lon="2.34255">
        <ele>94.8</ele>
        <time>2015-04-06T18:23:31.863Z</time>
      </trkpt>
      <trkpt lat="48.8507" lon="2.34252">
        <ele>95.3</ele>
        <time>2015-04-06T18:23:32.934Z</time>
      </trkpt>
      <trkpt lat="48.85066" lon="2.3425">
        <ele>95.6</ele>
        <time>2015-04-06T18:23:33.945Z</time>
      </trkpt>
      <trkpt lat="48.85061" lon="2.34248">
        <ele>95.8</ele>
        <time>2015-04-06T18:23:34.869Z</time>
      </trkpt>
      <trkpt lat="48.85057" lon="2.34246">
        <ele>96</ele>
        <time>2015-04-06T18:23:35.866Z</time>
      </trkpt>
      <trkpt lat="48.85047" lon="2.34244">
        <ele>96.8</ele>
        <time>2015-04-06T18:23:36.925Z</time>
      </trkpt>
      <trkpt lat="48.85042" lon="2.34241">
        <ele>97</ele>
        <time>2015-04-06T18:23:37.938Z</time>
      </trkpt>
      <trkpt lat="48.85037" lon="2.34238">
        <ele>97.3</ele>
        <time>2015-04-06T18:23:38.950Z</time>
      </trkpt>
      <trkpt lat="48.85032" lon="2.34234">
        <ele>97.5</ele>
        <time>2015-04-06T18:23:39.866Z</time>
      </trkpt>
      <trkpt lat="48.85028" lon="2.34231">
        <ele>97.7</ele>
        <time>2015-04-06T18:23:40.871Z</time>
      </trkpt>
      <trkpt lat="48.8502" lon="2.34226">
        <ele>98.1</ele>
        <time>2015-04-06T18:23:42.914Z</time>
      </trkpt>
      <trkpt lat="48.85016" lon="2.34224">
        <ele>98.2</ele>
        <time>2015-04-06T18:23:43.927Z</time>
      </trkpt>
      <trkpt lat="48.85009" lon="2.3422">
        <ele>98.2</ele>
        <time>2015-04-06T18:23:45.987Z</time>
      </trkpt>
      <trkpt lat="48.85006" lon="2.34218">
        <ele>98.3</ele>
        <time>2015-04-06T18:23:46.869Z</time>
      </trkpt>
      <trkpt lat="48.85001" lon="2.34214">
        <ele>98.5</ele>
        <time>2015-04-06T18:23:48.878Z</time>
      </trkpt>
      <trkpt lat="48.84997" lon="2.34212">
        <ele>98.5</ele>
        <time>2015-04-06T18:23:49.906Z</time>
      </trkpt>
      <trkpt lat="48.84989" lon="2.34206">
        <ele>98.6</ele>
        <time>2015-04-06T18:23:51.910Z</time>
      </trkpt>
      <trkpt lat="48.84985" lon="2.34203">
        <ele>98.7</ele>
        <time>2015-04-06T18:23:52.931Z</time>
      </trkpt>
      <trkpt lat="48.8498" lon="2.34197">
        <ele>98.6</ele>
        <time>2015-04-06T18:23:54.934Z</time>
      </trkpt>
      <trkpt lat="48.84976" lon="2.34194">
        <ele>98.8</ele>
        <time>2015-04-06T18:23:55.943Z</time>
      </trkpt>
      <trkpt lat="48.84969" lon="2.34189">
        <ele>99.1</ele>
        <time>2015-04-06T18:23:57.973Z</time>
      </trkpt>
      <trkpt lat="48.84965" lon="2.34188">
        <ele>99.3</ele>
        <time>2015-04-06T18:23:58.873Z</time>
      </trkpt>
      <trkpt lat="48.84957" lon="2.34184">
        <ele>99.9</ele>
        <time>2015-04-06T18:24:01.169Z</time>
      </trkpt>
      <trkpt lat="48.84954" lon="2.34182">
        <ele>100.1</ele>
        <time>2015-04-06T18:24:01.934Z</time>
      </trkpt>
      <trkpt lat="48.84949" lon="2.3418">
        <ele>100.6</ele>
        <time>2015-04-06T18:24:02.944Z</time>
      </trkpt>
      <trkpt lat="48.84943" lon="2.3418">
        <ele>100.8</ele>
        <time>2015-04-06T18:24:03.960Z</time>
      </trkpt>
      <trkpt lat="48.84938" lon="2.34179">
        <ele>100.9</ele>
        <time>2015-04-06T18:24:04.859Z</time>
      </trkpt>
      <trkpt lat="48.84932" lon="2.34178">
        <ele>101.1</ele>
        <time>2015-04-06T18:24:05.862Z</time>
      </trkpt>
      <trkpt lat="48.84927" lon="2.34177">
        <ele>101.4</ele>
        <time>2015-04-06T18:24:06.885Z</time>
      </trkpt>
      <trkpt lat="48.8492" lon="2.34174">
        <ele>102.3</ele>
        <time>2015-04-06T18:24:07.903Z</time>
      </trkpt>
      <trkpt lat="48.84915" lon="2.34175">
        <ele>102.3</ele>
        <time>2015-04-06T18:24:08.917Z</time>
      </trkpt>
      <trkpt lat="48.8491" lon="2.34174">
        <ele>102.7</ele>
        <time>2015-04-06T18:24:09.925Z</time>
      </trkpt>
      <trkpt lat="48.84904" lon="2.34172">
        <ele>103.1</ele>
        <time>2015-04-06T18:24:11.324Z</time>
      </trkpt>
      <trkpt lat="48.84901" lon="2.34171">
        <ele>103.2</ele>
        <time>2015-04-06T18:24:11.855Z</time>
      </trkpt>
      <trkpt lat="48.84892" lon="2.34168">
        <ele>102.9</ele>
        <time>2015-04-06T18:24:13.913Z</time>
      </trkpt>
      <trkpt lat="48.84889" lon="2.34166">
        <ele>103</ele>
        <time>2015-04-06T18:24:14.915Z</time>
      </trkpt>
      <trkpt lat="48.84881" lon="2.34162">
        <ele>103.6</ele>
        <time>2015-04-06T18:24:16.856Z</time>
      </trkpt>
      <trkpt lat="48.84877" lon="2.34159">
        <ele>104</ele>
        <time>2015-04-06T18:24:17.860Z</time>
      </trkpt>
      <trkpt lat="48.8487" lon="2.34153">
        <ele>104.7</ele>
        <time>2015-04-06T18:24:19.959Z</time>
      </trkpt>
      <trkpt lat="48.84867" lon="2.3415">
        <ele>104.9</ele>
        <time>2015-04-06T18:24:20.869Z</time>
      </trkpt>
      <trkpt lat="48.84862" lon="2.34141">
        <ele>105.3</ele>
        <time>2015-04-06T18:24:23.211Z</time>
      </trkpt>
      <trkpt lat="48.84861" lon="2.34138">
        <ele>105.4</ele>
        <time>2015-04-06T18:24:24.991Z</time>
      </trkpt>
      <trkpt lat="48.84855" lon="2.34131">
        <ele>105.5</ele>
        <time>2015-04-06T18:24:27.841Z</time>
      </trkpt>
      <trkpt lat="48.84852" lon="2.34129">
        <ele>105.5</ele>
        <time>2015-04-06T18:24:28.890Z</time>
      </trkpt>
      <trkpt lat="48.84847" lon="2.34124">
        <ele>105.9</ele>
        <time>2015-04-06T18:24:31.508Z</time>
      </trkpt>
      <trkpt lat="48.84844" lon="2.34122">
        <ele>106.1</ele>
        <time>2015-04-06T18:24:31.948Z</time>
      </trkpt>
      <trkpt lat="48.84838" lon="2.34115">
        <ele>105.9</ele>
        <time>2015-04-06T18:24:33.862Z</time>
      </trkpt>
      <trkpt lat="48.84834" lon="2.34113">
        <ele>106</ele>
        <time>2015-04-06T18:24:34.872Z</time>
      </trkpt>
      <trkpt lat="48.84829" lon="2.34111">
        <ele>106.2</ele>
        <time>2015-04-06T18:24:36.584Z</time>
      </trkpt>
      <trkpt lat="48.84824" lon="2.34111">
        <ele>106.3</ele>
        <time>2015-04-06T18:24:36.895Z</time>
      </trkpt>
      <trkpt lat="48.84816" lon="2.3411">
        <ele>107.1</ele>
        <time>2015-04-06T18:24:38.932Z</time>
      </trkpt>
      <trkpt lat="48.84812" lon="2.3411">
        <ele>107.2</ele>
        <time>2015-04-06T18:24:39.949Z</time>
      </trkpt>
      <trkpt lat="48.84804" lon="2.34109">
        <ele>106.1</ele>
        <time>2015-04-06T18:24:41.679Z</time>
      </trkpt>
      <trkpt lat="48.84792" lon="2.34104">
        <ele>102.1</ele>
        <time>2015-04-06T18:24:41.855Z</time>
      </trkpt>
      <trkpt lat="48.84785" lon="2.34103">
        <ele>101.4</ele>
        <time>2015-04-06T18:24:42.871Z</time>
      </trkpt>
      <trkpt lat="48.84781" lon="2.34103">
        <ele>101.6</ele>
        <time>2015-04-06T18:24:43.903Z</time>
      </trkpt>
      <trkpt lat="48.84778" lon="2.34101">
        <ele>101.3</ele>
        <time>2015-04-06T18:24:44.913Z</time>
      </trkpt>
      <trkpt lat="48.84772" lon="2.34097">
        <ele>99.9</ele>
        <time>2015-04-06T18:24:45.958Z</time>
      </trkpt>
      <trkpt lat="48.84764" lon="2.34093">
        <ele>99.9</ele>
        <time>2015-04-06T18:24:48.966Z</time>
      </trkpt>
      <trkpt lat="48.84762" lon="2.34092">
        <ele>100.3</ele>
        <time>2015-04-06T18:24:49.902Z</time>
      </trkpt>
      <trkpt lat="48.84753" lon="2.34091">
        <ele>99.9</ele>
        <time>2015-04-06T18:24:53.872Z</time>
      </trkpt>
      <trkpt lat="48.84754" lon="2.3409">
        <ele>100.3</ele>
        <time>2015-04-06T18:24:54.882Z</time>
      </trkpt>
      <trkpt lat="48.84754" lon="2.3409">
        <ele>100.3</ele>
        <time>2015-04-06T18:25:11.631Z</time>
      </trkpt>
      <trkpt lat="48.84752" lon="2.34086">
        <ele>103.5</ele>
        <time>2015-04-06T18:25:11.838Z</time>
      </trkpt>
      <trkpt lat="48.84745" lon="2.34084">
        <ele>104.3</ele>
        <time>2015-04-06T18:25:16.854Z</time>
      </trkpt>
      <trkpt lat="48.84743" lon="2.34083">
        <ele>104.5</ele>
        <time>2015-04-06T18:25:17.892Z</time>
      </trkpt>
      <trkpt lat="48.84737" lon="2.34078">
        <ele>103.7</ele>
        <time>2015-04-06T18:25:20.875Z</time>
      </trkpt>
      <trkpt lat="48.84734" lon="2.34075">
        <ele>103.2</ele>
        <time>2015-04-06T18:25:21.897Z</time>
      </trkpt>
      <trkpt lat="48.84727" lon="2.3407">
        <ele>102.5</ele>
        <time>2015-04-06T18:25:24.876Z</time>
      </trkpt>
      <trkpt lat="48.84725" lon="2.34069">
        <ele>102.4</ele>
        <time>2015-04-06T18:25:25.993Z</time>
      </trkpt>
      <trkpt lat="48.84719" lon="2.34062">
        <ele>102.6</ele>
        <time>2015-04-06T18:25:29.904Z</time>
      </trkpt>
      <trkpt lat="48.84717" lon="2.3406">
        <ele>102.5</ele>
        <time>2015-04-06T18:25:30.910Z</time>
      </trkpt>
      <trkpt lat="48.84712" lon="2.34056">
        <ele>102.4</ele>
        <time>2015-04-06T18:25:33.887Z</time>
      </trkpt>
      <trkpt lat="48.84709" lon="2.34053">
        <ele>102.4</ele>
        <time>2015-04-06T18:25:34.927Z</time>
      </trkpt>
      <trkpt lat="48.84704" lon="2.34048">
        <ele>102</ele>
        <time>2015-04-06T18:25:37.728Z</time>
      </trkpt>
      <trkpt lat="48.84701" lon="2.34046">
        <ele>101.8</ele>
        <time>2015-04-06T18:25:37.932Z</time>
      </trkpt>
      <trkpt lat="48.84694" lon="2.34039">
        <ele>101.5</ele>
        <time>2015-04-06T18:25:41.134Z</time>
      </trkpt>
      <trkpt lat="48.84691" lon="2.34037">
        <ele>101.5</ele>
        <time>2015-04-06T18:25:41.896Z</time>
      </trkpt>
      <trkpt lat="48.84683" lon="2.34033">
        <ele>101.4</ele>
        <time>2015-04-06T18:25:44.930Z</time>
      </trkpt>
      <trkpt lat="48.84681" lon="2.34032">
        <ele>101.3</ele>
        <time>2015-04-06T18:25:45.952Z</time>
      </trkpt>
      <trkpt lat="48.84675" lon="2.3403">
        <ele>101.3</ele>
        <time>2015-04-06T18:25:47.890Z</time>
      </trkpt>
      <trkpt lat="48.84672" lon="2.34027">
        <ele>101.3</ele>
        <time>2015-04-06T18:25:48.936Z</time>
      </trkpt>
      <trkpt lat="48.84665" lon="2.34023">
        <ele>101.5</ele>
        <time>2015-04-06T18:25:50.982Z</time>
      </trkpt>
      <trkpt lat="48.84661" lon="2.34019">
        <ele>101</ele>
        <time>2015-04-06T18:25:51.911Z</time>
      </trkpt>
      <trkpt lat="48.84654" lon="2.34014">
        <ele>101</ele>
        <time>2015-04-06T18:25:53.840Z</time>
      </trkpt>
      <trkpt lat="48.84651" lon="2.3401">
        <ele>101</ele>
        <time>2015-04-06T18:25:54.876Z</time>
      </trkpt>
      <trkpt lat="48.84646" lon="2.34003">
        <ele>101.3</ele>
        <time>2015-04-06T18:25:56.905Z</time>
      </trkpt>
      <trkpt lat="48.84642" lon="2.33999">
        <ele>101.4</ele>
        <time>2015-04-06T18:25:57.916Z</time>
      </trkpt>
      <trkpt lat="48.84638" lon="2.33995">
        <ele>101.5</ele>
        <time>2015-04-06T18:25:58.841Z</time>
      </trkpt>
      <trkpt lat="48.84634" lon="2.33991">
        <ele>101.6</ele>
        <time>2015-04-06T18:25:59.839Z</time>
      </trkpt>
      <trkpt lat="48.84626" lon="2.3399">
        <ele>102.4</ele>
        <time>2015-04-06T18:26:01.015Z</time>
      </trkpt>
      <trkpt lat="48.84617" lon="2.33988">
        <ele>103.2</ele>
        <time>2015-04-06T18:26:01.929Z</time>
      </trkpt>
      <trkpt lat="48.84611" lon="2.33985">
        <ele>103.4</ele>
        <time>2015-04-06T18:26:02.934Z</time>
      </trkpt>
      <trkpt lat="48.84605" lon="2.33981">
        <ele>103.6</ele>
        <time>2015-04-06T18:26:03.861Z</time>
      </trkpt>
      <trkpt lat="48.84599" lon="2.33977">
        <ele>103.8</ele>
        <time>2015-04-06T18:26:04.864Z</time>
      </trkpt>
      <trkpt lat="48.84594" lon="2.33972">
        <ele>104</ele>
        <time>2015-04-06T18:26:05.872Z</time>
      </trkpt>
      <trkpt lat="48.84588" lon="2.33969">
        <ele>104</ele>
        <time>2015-04-06T18:26:06.900Z</time>
      </trkpt>
      <trkpt lat="48.84579" lon="2.33969">
        <ele>104.2</ele>
        <time>2015-04-06T18:26:07.920Z</time>
      </trkpt>
      <trkpt lat="48.8457" lon="2.33967">
        <ele>104.2</ele>
        <time>2015-04-06T18:26:08.844Z</time>
      </trkpt>
      <trkpt lat="48.84561" lon="2.33964">
        <ele>104.4</ele>
        <time>2015-04-06T18:26:09.845Z</time>
      </trkpt>
      <trkpt lat="48.84552" lon="2.33961">
        <ele>104.5</ele>
        <time>2015-04-06T18:26:10.860Z</time>
      </trkpt>
      <trkpt lat="48.8454" lon="2.33958">
        <ele>104.3</ele>
        <time>2015-04-06T18:26:11.902Z</time>
      </trkpt>
      <trkpt lat="48.84523" lon="2.33952">
        <ele>104.7</ele>
        <time>2015-04-06T18:26:13.929Z</time>
      </trkpt>
      <trkpt lat="48.84514" lon="2.33949">
        <ele>105</ele>
        <time>2015-04-06T18:26:14.839Z</time>
      </trkpt>
      <trkpt lat="48.84506" lon="2.33946">
        <ele>105.2</ele>
        <time>2015-04-06T18:26:15.858Z</time>
      </trkpt>
      <trkpt lat="48.84492" lon="2.33944">
        <ele>106.2</ele>
        <time>2015-04-06T18:26:16.869Z</time>
      </trkpt>
      <trkpt lat="48.84482" lon="2.33942">
        <ele>106.8</ele>
        <time>2015-04-06T18:26:17.904Z</time>
      </trkpt>
      <trkpt lat="48.84472" lon="2.33939">
        <ele>107.4</ele>
        <time>2015-04-06T18:26:18.918Z</time>
      </trkpt>
      <trkpt lat="48.84462" lon="2.33938">
        <ele>108</ele>
        <time>2015-04-06T18:26:19.934Z</time>
      </trkpt>
      <trkpt lat="48.84453" lon="2.33937">
        <ele>107.9</ele>
        <time>2015-04-06T18:26:20.852Z</time>
      </trkpt>
      <trkpt lat="48.84442" lon="2.33935">
        <ele>107</ele>
        <time>2015-04-06T18:26:21.867Z</time>
      </trkpt>
      <trkpt lat="48.84433" lon="2.3393">
        <ele>107.1</ele>
        <time>2015-04-06T18:26:22.887Z</time>
      </trkpt>
      <trkpt lat="48.84424" lon="2.33928">
        <ele>107.5</ele>
        <time>2015-04-06T18:26:23.919Z</time>
      </trkpt>
      <trkpt lat="48.84418" lon="2.33925">
        <ele>107.9</ele>
        <time>2015-04-06T18:26:24.945Z</time>
      </trkpt>
      <trkpt lat="48.8441" lon="2.3392">
        <ele>108.9</ele>
        <time>2015-04-06T18:26:26.876Z</time>
      </trkpt>
      <trkpt lat="48.84405" lon="2.33918">
        <ele>109.3</ele>
        <time>2015-04-06T18:26:27.892Z</time>
      </trkpt>
      <trkpt lat="48.84402" lon="2.33917">
        <ele>109.2</ele>
        <time>2015-04-06T18:26:28.922Z</time>
      </trkpt>
      <trkpt lat="48.84396" lon="2.33913">
        <ele>109.8</ele>
        <time>2015-04-06T18:26:29.928Z</time>
      </trkpt>
      <trkpt lat="48.84391" lon="2.33909">
        <ele>110.6</ele>
        <time>2015-04-06T18:26:30.939Z</time>
      </trkpt>
      <trkpt lat="48.84388" lon="2.33905">
        <ele>111.1</ele>
        <time>2015-04-06T18:26:31.951Z</time>
      </trkpt>
      <trkpt lat="48.84383" lon="2.33899">
        <ele>111.1</ele>
        <time>2015-04-06T18:26:33.864Z</time>
      </trkpt>
      <trkpt lat="48.84379" lon="2.33897">
        <ele>111.1</ele>
        <time>2015-04-06T18:26:34.886Z</time>
      </trkpt>
      <trkpt lat="48.84373" lon="2.3389">
        <ele>110.7</ele>
        <time>2015-04-06T18:26:36.916Z</time>
      </trkpt>
      <trkpt lat="48.84369" lon="2.33888">
        <ele>111.4</ele>
        <time>2015-04-06T18:26:37.935Z</time>
      </trkpt>
      <trkpt lat="48.84363" lon="2.3388">
        <ele>112.6</ele>
        <time>2015-04-06T18:26:39.870Z</time>
      </trkpt>
      <trkpt lat="48.84361" lon="2.33875">
        <ele>113.2</ele>
        <time>2015-04-06T18:26:40.893Z</time>
      </trkpt>
      <trkpt lat="48.84356" lon="2.33867">
        <ele>114.1</ele>
        <time>2015-04-06T18:26:42.936Z</time>
      </trkpt>
      <trkpt lat="48.84354" lon="2.33863">
        <ele>114.3</ele>
        <time>2015-04-06T18:26:43.953Z</time>
      </trkpt>
      <trkpt lat="48.84347" lon="2.33857">
        <ele>114.9</ele>
        <time>2015-04-06T18:26:45.900Z</time>
      </trkpt>
      <trkpt lat="48.84342" lon="2.33855">
        <ele>115.4</ele>
        <time>2015-04-06T18:26:46.916Z</time>
      </trkpt>
      <trkpt lat="48.84338" lon="2.33853">
        <ele>115.7</ele>
        <time>2015-04-06T18:26:47.868Z</time>
      </trkpt>
      <trkpt lat="48.84333" lon="2.3385">
        <ele>116.4</ele>
        <time>2015-04-06T18:26:48.873Z</time>
      </trkpt>
      <trkpt lat="48.84328" lon="2.33846">
        <ele>117.1</ele>
        <time>2015-04-06T18:26:49.905Z</time>
      </trkpt>
      <trkpt lat="48.84323" lon="2.33842">
        <ele>117.7</ele>
        <time>2015-04-06T18:26:50.908Z</time>
      </trkpt>
      <trkpt lat="48.84318" lon="2.3384">
        <ele>117.8</ele>
        <time>2015-04-06T18:26:51.940Z</time>
      </trkpt>
      <trkpt lat="48.84312" lon="2.33837">
        <ele>118.3</ele>
        <time>2015-04-06T18:26:52.968Z</time>
      </trkpt>
      <trkpt lat="48.84308" lon="2.33833">
        <ele>118.9</ele>
        <time>2015-04-06T18:26:53.863Z</time>
      </trkpt>
      <trkpt lat="48.84304" lon="2.33831">
        <ele>119.2</ele>
        <time>2015-04-06T18:26:54.867Z</time>
      </trkpt>
      <trkpt lat="48.843" lon="2.33826">
        <ele>119.4</ele>
        <time>2015-04-06T18:26:55.928Z</time>
      </trkpt>
      <trkpt lat="48.84296" lon="2.33822">
        <ele>119.8</ele>
        <time>2015-04-06T18:26:56.954Z</time>
      </trkpt>
      <trkpt lat="48.84289" lon="2.33814">
        <ele>119.9</ele>
        <time>2015-04-06T18:26:58.862Z</time>
      </trkpt>
      <trkpt lat="48.84286" lon="2.3381">
        <ele>120.3</ele>
        <time>2015-04-06T18:26:59.884Z</time>
      </trkpt>
      <trkpt lat="48.84279" lon="2.33803">
        <ele>120.7</ele>
        <time>2015-04-06T18:27:01.925Z</time>
      </trkpt>
      <trkpt lat="48.84273" lon="2.33802">
        <ele>121.1</ele>
        <time>2015-04-06T18:27:02.926Z</time>
      </trkpt>
      <trkpt lat="48.84266" lon="2.33804">
        <ele>120.9</ele>
        <time>2015-04-06T18:27:26.886Z</time>
      </trkpt>
      <trkpt lat="48.84256" lon="2.33811">
        <ele>119.1</ele>
        <time>2015-04-06T18:27:27.906Z</time>
      </trkpt>
      <trkpt lat="48.84249" lon="2.33809">
        <ele>119.3</ele>
        <time>2015-04-06T18:27:29.859Z</time>
      </trkpt>
      <trkpt lat="48.84245" lon="2.33807">
        <ele>119.3</ele>
        <time>2015-04-06T18:27:30.884Z</time>
      </trkpt>
      <trkpt lat="48.84241" lon="2.33804">
        <ele>119.4</ele>
        <time>2015-04-06T18:27:31.962Z</time>
      </trkpt>
      <trkpt lat="48.84236" lon="2.338">
        <ele>119.6</ele>
        <time>2015-04-06T18:27:32.853Z</time>
      </trkpt>
      <trkpt lat="48.8423" lon="2.33796">
        <ele>119.9</ele>
        <time>2015-04-06T18:27:33.858Z</time>
      </trkpt>
      <trkpt lat="48.84226" lon="2.33794">
        <ele>120</ele>
        <time>2015-04-06T18:27:34.867Z</time>
      </trkpt>
      <trkpt lat="48.84218" lon="2.33791">
        <ele>119.9</ele>
        <time>2015-04-06T18:27:36.878Z</time>
      </trkpt>
      <trkpt lat="48.84213" lon="2.33789">
        <ele>119.6</ele>
        <time>2015-04-06T18:27:37.916Z</time>
      </trkpt>
      <trkpt lat="48.84207" lon="2.33785">
        <ele>118.4</ele>
        <time>2015-04-06T18:27:38.948Z</time>
      </trkpt>
      <trkpt lat="48.84198" lon="2.33781">
        <ele>116.9</ele>
        <time>2015-04-06T18:27:39.851Z</time>
      </trkpt>
      <trkpt lat="48.84192" lon="2.33775">
        <ele>116.2</ele>
        <time>2015-04-06T18:27:40.863Z</time>
      </trkpt>
      <trkpt lat="48.84187" lon="2.33771">
        <ele>115.9</ele>
        <time>2015-04-06T18:27:41.868Z</time>
      </trkpt>
      <trkpt lat="48.84181" lon="2.33768">
        <ele>115.3</ele>
        <time>2015-04-06T18:27:42.879Z</time>
      </trkpt>
      <trkpt lat="48.84176" lon="2.33765">
        <ele>115.2</ele>
        <time>2015-04-06T18:27:43.888Z</time>
      </trkpt>
      <trkpt lat="48.84171" lon="2.33761">
        <ele>115.9</ele>
        <time>2015-04-06T18:27:44.895Z</time>
      </trkpt>
      <trkpt lat="48.84167" lon="2.33761">
        <ele>115.9</ele>
        <time>2015-04-06T18:27:45.906Z</time>
      </trkpt>
      <trkpt lat="48.84162" lon="2.33756">
        <ele>116</ele>
        <time>2015-04-06T18:27:47.921Z</time>
      </trkpt>
      <trkpt lat="48.84159" lon="2.33754">
        <ele>115.9</ele>
        <time>2015-04-06T18:27:48.949Z</time>
      </trkpt>
      <trkpt lat="48.84154" lon="2.33751">
        <ele>115.1</ele>
        <time>2015-04-06T18:27:49.979Z</time>
      </trkpt>
      <trkpt lat="48.8415" lon="2.33748">
        <ele>114.5</ele>
        <time>2015-04-06T18:27:50.855Z</time>
      </trkpt>
      <trkpt lat="48.84144" lon="2.33746">
        <ele>113.9</ele>
        <time>2015-04-06T18:27:51.859Z</time>
      </trkpt>
      <trkpt lat="48.84137" lon="2.33746">
        <ele>113.5</ele>
        <time>2015-04-06T18:27:52.862Z</time>
      </trkpt>
      <trkpt lat="48.8413" lon="2.33741">
        <ele>113.1</ele>
        <time>2015-04-06T18:27:54.892Z</time>
      </trkpt>
      <trkpt lat="48.84127" lon="2.33739">
        <ele>113</ele>
        <time>2015-04-06T18:27:55.922Z</time>
      </trkpt>
      <trkpt lat="48.8412" lon="2.33736">
        <ele>113.1</ele>
        <time>2015-04-06T18:27:57.854Z</time>
      </trkpt>
      <trkpt lat="48.84116" lon="2.33734">
        <ele>113.5</ele>
        <time>2015-04-06T18:27:58.876Z</time>
      </trkpt>
      <trkpt lat="48.8411" lon="2.33733">
        <ele>113.8</ele>
        <time>2015-04-06T18:27:59.918Z</time>
      </trkpt>
      <trkpt lat="48.84103" lon="2.3373">
        <ele>113.7</ele>
        <time>2015-04-06T18:28:00.956Z</time>
      </trkpt>
      <trkpt lat="48.84098" lon="2.33727">
        <ele>113.9</ele>
        <time>2015-04-06T18:28:01.958Z</time>
      </trkpt>
      <trkpt lat="48.84092" lon="2.33725">
        <ele>114.2</ele>
        <time>2015-04-06T18:28:02.856Z</time>
      </trkpt>
      <trkpt lat="48.84085" lon="2.3372">
        <ele>114.1</ele>
        <time>2015-04-06T18:28:04.905Z</time>
      </trkpt>
      <trkpt lat="48.84081" lon="2.33716">
        <ele>113.9</ele>
        <time>2015-04-06T18:28:05.924Z</time>
      </trkpt>
      <trkpt lat="48.84077" lon="2.33712">
        <ele>113.5</ele>
        <time>2015-04-06T18:28:06.964Z</time>
      </trkpt>
      <trkpt lat="48.84074" lon="2.33708">
        <ele>113.8</ele>
        <time>2015-04-06T18:28:07.969Z</time>
      </trkpt>
      <trkpt lat="48.84067" lon="2.337">
        <ele>114.4</ele>
        <time>2015-04-06T18:28:09.860Z</time>
      </trkpt>
      <trkpt lat="48.84065" lon="2.33696">
        <ele>114</ele>
        <time>2015-04-06T18:28:10.891Z</time>
      </trkpt>
      <trkpt lat="48.84061" lon="2.33689">
        <ele>116.3</ele>
        <time>2015-04-06T18:28:15.894Z</time>
      </trkpt>
      <trkpt lat="48.84061" lon="2.33683">
        <ele>116.9</ele>
        <time>2015-04-06T18:28:16.913Z</time>
      </trkpt>
      <trkpt lat="48.84053" lon="2.33678">
        <ele>117.7</ele>
        <time>2015-04-06T18:28:18.954Z</time>
      </trkpt>
      <trkpt lat="48.84048" lon="2.33675">
        <ele>117.8</ele>
        <time>2015-04-06T18:28:19.962Z</time>
      </trkpt>
      <trkpt lat="48.84044" lon="2.33673">
        <ele>117.6</ele>
        <time>2015-04-06T18:28:20.844Z</time>
      </trkpt>
      <trkpt lat="48.84038" lon="2.33673">
        <ele>117.3</ele>
        <time>2015-04-06T18:28:21.884Z</time>
      </trkpt>
      <trkpt lat="48.84033" lon="2.33672">
        <ele>117.6</ele>
        <time>2015-04-06T18:28:22.874Z</time>
      </trkpt>
      <trkpt lat="48.84028" lon="2.33672">
        <ele>118</ele>
        <time>2015-04-06T18:28:23.894Z</time>
      </trkpt>
      <trkpt lat="48.84023" lon="2.33672">
        <ele>118.1</ele>
        <time>2015-04-06T18:28:24.434Z</time>
      </trkpt>
      <trkpt lat="48.84017" lon="2.33673">
        <ele>118</ele>
        <time>2015-04-06T18:28:25.912Z</time>
      </trkpt>
      <trkpt lat="48.84011" lon="2.33674">
        <ele>118.3</ele>
        <time>2015-04-06T18:28:27.359Z</time>
      </trkpt>
      <trkpt lat="48.84007" lon="2.33674">
        <ele>118.5</ele>
        <time>2015-04-06T18:28:27.864Z</time>
      </trkpt>
      <trkpt lat="48.84" lon="2.33672">
        <ele>118.3</ele>
        <time>2015-04-06T18:28:30.878Z</time>
      </trkpt>
      <trkpt lat="48.83998" lon="2.33673">
        <ele>118.3</ele>
        <time>2015-04-06T18:28:32.006Z</time>
      </trkpt>
      <trkpt lat="48.8399" lon="2.33668">
        <ele>118.7</ele>
        <time>2015-04-06T18:28:35.894Z</time>
      </trkpt>
      <trkpt lat="48.83988" lon="2.33667">
        <ele>119.2</ele>
        <time>2015-04-06T18:28:36.933Z</time>
      </trkpt>
      <trkpt lat="48.8398" lon="2.33667">
        <ele>119.9</ele>
        <time>2015-04-06T18:28:39.833Z</time>
      </trkpt>
      <trkpt lat="48.83978" lon="2.33667">
        <ele>120</ele>
        <time>2015-04-06T18:28:40.860Z</time>
      </trkpt>
      <trkpt lat="48.83971" lon="2.33672">
        <ele>121.8</ele>
        <time>2015-04-06T18:28:43.968Z</time>
      </trkpt>
      <trkpt lat="48.83969" lon="2.33674">
        <ele>122.1</ele>
        <time>2015-04-06T18:28:44.868Z</time>
      </trkpt>
      <trkpt lat="48.83963" lon="2.33677">
        <ele>122.6</ele>
        <time>2015-04-06T18:28:46.871Z</time>
      </trkpt>
      <trkpt lat="48.8396" lon="2.33678">
        <ele>122.7</ele>
        <time>2015-04-06T18:28:47.884Z</time>
      </trkpt>
      <trkpt lat="48.83954" lon="2.33679">
        <ele>123.3</ele>
        <time>2015-04-06T18:28:49.905Z</time>
      </trkpt>
      <trkpt lat="48.83949" lon="2.3368">
        <ele>123.7</ele>
        <time>2015-04-06T18:28:50.907Z</time>
      </trkpt>
      <trkpt lat="48.83942" lon="2.33679">
        <ele>124.3</ele>
        <time>2015-04-06T18:28:53.063Z</time>
      </trkpt>
      <trkpt lat="48.83939" lon="2.33677">
        <ele>124.7</ele>
        <time>2015-04-06T18:28:53.835Z</time>
      </trkpt>
      <trkpt lat="48.83933" lon="2.33674">
        <ele>125.2</ele>
        <time>2015-04-06T18:28:56.007Z</time>
      </trkpt>
      <trkpt lat="48.8393" lon="2.33673">
        <ele>125.4</ele>
        <time>2015-04-06T18:28:56.895Z</time>
      </trkpt>
      <trkpt lat="48.83924" lon="2.33671">
        <ele>126.5</ele>
        <time>2015-04-06T18:28:58.916Z</time>
      </trkpt>
      <trkpt lat="48.83921" lon="2.3367">
        <ele>127</ele>
        <time>2015-04-06T18:28:59.926Z</time>
      </trkpt>
      <trkpt lat="48.83913" lon="2.33671">
        <ele>127.1</ele>
        <time>2015-04-06T18:29:01.467Z</time>
      </trkpt>
      <trkpt lat="48.83908" lon="2.33672">
        <ele>127.4</ele>
        <time>2015-04-06T18:29:02.929Z</time>
      </trkpt>
      <trkpt lat="48.83899" lon="2.33671">
        <ele>127.4</ele>
        <time>2015-04-06T18:29:04.856Z</time>
      </trkpt>
      <trkpt lat="48.83894" lon="2.33672">
        <ele>127.5</ele>
        <time>2015-04-06T18:29:05.861Z</time>
      </trkpt>
      <trkpt lat="48.83889" lon="2.33674">
        <ele>127.8</ele>
        <time>2015-04-06T18:29:06.891Z</time>
      </trkpt>
      <trkpt lat="48.83882" lon="2.33674">
        <ele>127.5</ele>
        <time>2015-04-06T18:29:07.914Z</time>
      </trkpt>
      <trkpt lat="48.83876" lon="2.33673">
        <ele>127.2</ele>
        <time>2015-04-06T18:29:08.907Z</time>
      </trkpt>
      <trkpt lat="48.83869" lon="2.33672">
        <ele>126.8</ele>
        <time>2015-04-06T18:29:09.919Z</time>
      </trkpt>
      <trkpt lat="48.83862" lon="2.33666">
        <ele>127</ele>
        <time>2015-04-06T18:29:11.836Z</time>
      </trkpt>
      <trkpt lat="48.83859" lon="2.33662">
        <ele>127</ele>
        <time>2015-04-06T18:29:12.886Z</time>
      </trkpt>
      <trkpt lat="48.83857" lon="2.33658">
        <ele>127.1</ele>
        <time>2015-04-06T18:29:13.919Z</time>
      </trkpt>
      <trkpt lat="48.83851" lon="2.33651">
        <ele>125.7</ele>
        <time>2015-04-06T18:29:14.929Z</time>
      </trkpt>
      <trkpt lat="48.83846" lon="2.33644">
        <ele>124.9</ele>
        <time>2015-04-06T18:29:16.561Z</time>
      </trkpt>
      <trkpt lat="48.8384" lon="2.33639">
        <ele>124.8</ele>
        <time>2015-04-06T18:29:16.961Z</time>
      </trkpt>
      <trkpt lat="48.83834" lon="2.33631">
        <ele>124.9</ele>
        <time>2015-04-06T18:29:18.964Z</time>
      </trkpt>
      <trkpt lat="48.83832" lon="2.33625">
        <ele>124.9</ele>
        <time>2015-04-06T18:29:19.909Z</time>
      </trkpt>
      <trkpt lat="48.83827" lon="2.33615">
        <ele>124.7</ele>
        <time>2015-04-06T18:29:21.837Z</time>
      </trkpt>
      <trkpt lat="48.83822" lon="2.3361">
        <ele>124.4</ele>
        <time>2015-04-06T18:29:22.838Z</time>
      </trkpt>
      <trkpt lat="48.83817" lon="2.33607">
        <ele>124.6</ele>
        <time>2015-04-06T18:29:23.877Z</time>
      </trkpt>
      <trkpt lat="48.83811" lon="2.33602">
        <ele>124.3</ele>
        <time>2015-04-06T18:29:24.882Z</time>
      </trkpt>
      <trkpt lat="48.83806" lon="2.33598">
        <ele>124.1</ele>
        <time>2015-04-06T18:29:26.747Z</time>
      </trkpt>
      <trkpt lat="48.83803" lon="2.33594">
        <ele>123.9</ele>
        <time>2015-04-06T18:29:26.899Z</time>
      </trkpt>
      <trkpt lat="48.83799" lon="2.3359">
        <ele>123.7</ele>
        <time>2015-04-06T18:29:27.917Z</time>
      </trkpt>
      <trkpt lat="48.83796" lon="2.33585">
        <ele>123.4</ele>
        <time>2015-04-06T18:29:28.949Z</time>
      </trkpt>
      <trkpt lat="48.8379" lon="2.3358">
        <ele>123</ele>
        <time>2015-04-06T18:29:29.874Z</time>
      </trkpt>
      <trkpt lat="48.83785" lon="2.33576">
        <ele>123</ele>
        <time>2015-04-06T18:29:30.890Z</time>
      </trkpt>
      <trkpt lat="48.83779" lon="2.33571">
        <ele>123</ele>
        <time>2015-04-06T18:29:31.901Z</time>
      </trkpt>
      <trkpt lat="48.83775" lon="2.33566">
        <ele>123.1</ele>
        <time>2015-04-06T18:29:32.909Z</time>
      </trkpt>
      <trkpt lat="48.83772" lon="2.3356">
        <ele>123</ele>
        <time>2015-04-06T18:29:33.920Z</time>
      </trkpt>
      <trkpt lat="48.83768" lon="2.33555">
        <ele>122.6</ele>
        <time>2015-04-06T18:29:34.933Z</time>
      </trkpt>
      <trkpt lat="48.83764" lon="2.3355">
        <ele>122.3</ele>
        <time>2015-04-06T18:29:35.868Z</time>
      </trkpt>
      <trkpt lat="48.83759" lon="2.33545">
        <ele>122</ele>
        <time>2015-04-06T18:29:36.898Z</time>
      </trkpt>
      <trkpt lat="48.83754" lon="2.3354">
        <ele>121.3</ele>
        <time>2015-04-06T18:29:37.907Z</time>
      </trkpt>
      <trkpt lat="48.83745" lon="2.33534">
        <ele>119.6</ele>
        <time>2015-04-06T18:29:38.923Z</time>
      </trkpt>
      <trkpt lat="48.83741" lon="2.3353">
        <ele>119.3</ele>
        <time>2015-04-06T18:29:39.931Z</time>
      </trkpt>
      <trkpt lat="48.83737" lon="2.33525">
        <ele>119.2</ele>
        <time>2015-04-06T18:29:40.931Z</time>
      </trkpt>
      <trkpt lat="48.83734" lon="2.3352">
        <ele>119</ele>
        <time>2015-04-06T18:29:42.075Z</time>
      </trkpt>
      <trkpt lat="48.83729" lon="2.33515">
        <ele>118.4</ele>
        <time>2015-04-06T18:29:42.869Z</time>
      </trkpt>
      <trkpt lat="48.83724" lon="2.33509">
        <ele>117.9</ele>
        <time>2015-04-06T18:29:43.973Z</time>
      </trkpt>
      <trkpt lat="48.83718" lon="2.33503">
        <ele>117.7</ele>
        <time>2015-04-06T18:29:44.861Z</time>
      </trkpt>
      <trkpt lat="48.83711" lon="2.33499">
        <ele>117.2</ele>
        <time>2015-04-06T18:29:45.885Z</time>
      </trkpt>
      <trkpt lat="48.83706" lon="2.33493">
        <ele>116.6</ele>
        <time>2015-04-06T18:29:46.896Z</time>
      </trkpt>
      <trkpt lat="48.837" lon="2.33487">
        <ele>116.2</ele>
        <time>2015-04-06T18:29:47.912Z</time>
      </trkpt>
      <trkpt lat="48.83695" lon="2.33479">
        <ele>115.7</ele>
        <time>2015-04-06T18:29:48.917Z</time>
      </trkpt>
      <trkpt lat="48.83689" lon="2.33472">
        <ele>115.2</ele>
        <time>2015-04-06T18:29:49.927Z</time>
      </trkpt>
      <trkpt lat="48.83682" lon="2.33465">
        <ele>114.3</ele>
        <time>2015-04-06T18:29:50.932Z</time>
      </trkpt>
      <trkpt lat="48.83676" lon="2.33458">
        <ele>113.9</ele>
        <time>2015-04-06T18:29:51.940Z</time>
      </trkpt>
      <trkpt lat="48.8367" lon="2.33452">
        <ele>113.7</ele>
        <time>2015-04-06T18:29:52.836Z</time>
      </trkpt>
      <trkpt lat="48.83664" lon="2.33447">
        <ele>113.8</ele>
        <time>2015-04-06T18:29:53.863Z</time>
      </trkpt>
      <trkpt lat="48.83657" lon="2.33441">
        <ele>113.4</ele>
        <time>2015-04-06T18:29:54.865Z</time>
      </trkpt>
      <trkpt lat="48.83651" lon="2.33436">
        <ele>113.1</ele>
        <time>2015-04-06T18:29:55.910Z</time>
      </trkpt>
      <trkpt lat="48.83645" lon="2.33431">
        <ele>113.3</ele>
        <time>2015-04-06T18:29:56.922Z</time>
      </trkpt>
      <trkpt lat="48.8364" lon="2.33425">
        <ele>113.6</ele>
        <time>2015-04-06T18:29:57.850Z</time>
      </trkpt>
      <trkpt lat="48.83634" lon="2.33418">
        <ele>113.5</ele>
        <time>2015-04-06T18:29:58.846Z</time>
      </trkpt>
      <trkpt lat="48.83629" lon="2.33412">
        <ele>113.2</ele>
        <time>2015-04-06T18:29:59.866Z</time>
      </trkpt>
      <trkpt lat="48.83621" lon="2.33408">
        <ele>113.3</ele>
        <time>2015-04-06T18:30:00.877Z</time>
      </trkpt>
      <trkpt lat="48.83614" lon="2.33405">
        <ele>113.9</ele>
        <time>2015-04-06T18:30:01.914Z</time>
      </trkpt>
      <trkpt lat="48.83606" lon="2.33401">
        <ele>114.3</ele>
        <time>2015-04-06T18:30:02.908Z</time>
      </trkpt>
      <trkpt lat="48.83598" lon="2.33396">
        <ele>114.2</ele>
        <time>2015-04-06T18:30:03.911Z</time>
      </trkpt>
      <trkpt lat="48.8359" lon="2.3339">
        <ele>114.4</ele>
        <time>2015-04-06T18:30:04.954Z</time>
      </trkpt>
      <trkpt lat="48.83584" lon="2.33384">
        <ele>113.7</ele>
        <time>2015-04-06T18:30:05.835Z</time>
      </trkpt>
      <trkpt lat="48.83577" lon="2.33379">
        <ele>113.2</ele>
        <time>2015-04-06T18:30:06.849Z</time>
      </trkpt>
      <trkpt lat="48.83572" lon="2.33376">
        <ele>112.9</ele>
        <time>2015-04-06T18:30:07.904Z</time>
      </trkpt>
      <trkpt lat="48.83567" lon="2.33371">
        <ele>112.7</ele>
        <time>2015-04-06T18:30:08.921Z</time>
      </trkpt>
      <trkpt lat="48.83562" lon="2.33365">
        <ele>112.6</ele>
        <time>2015-04-06T18:30:09.860Z</time>
      </trkpt>
      <trkpt lat="48.83556" lon="2.33359">
        <ele>112.7</ele>
        <time>2015-04-06T18:30:10.871Z</time>
      </trkpt>
      <trkpt lat="48.83551" lon="2.33353">
        <ele>112.8</ele>
        <time>2015-04-06T18:30:11.894Z</time>
      </trkpt>
      <trkpt lat="48.83547" lon="2.33347">
        <ele>113</ele>
        <time>2015-04-06T18:30:12.918Z</time>
      </trkpt>
      <trkpt lat="48.83545" lon="2.33342">
        <ele>113.1</ele>
        <time>2015-04-06T18:30:13.933Z</time>
      </trkpt>
      <trkpt lat="48.83541" lon="2.33337">
        <ele>113.6</ele>
        <time>2015-04-06T18:30:14.951Z</time>
      </trkpt>
      <trkpt lat="48.83537" lon="2.33332">
        <ele>114.1</ele>
        <time>2015-04-06T18:30:15.850Z</time>
      </trkpt>
      <trkpt lat="48.83534" lon="2.33327">
        <ele>114.5</ele>
        <time>2015-04-06T18:30:16.848Z</time>
      </trkpt>
      <trkpt lat="48.83529" lon="2.33325">
        <ele>114.9</ele>
        <time>2015-04-06T18:30:17.852Z</time>
      </trkpt>
      <trkpt lat="48.83526" lon="2.33322">
        <ele>115.2</ele>
        <time>2015-04-06T18:30:18.859Z</time>
      </trkpt>
      <trkpt lat="48.83518" lon="2.33316">
        <ele>115.7</ele>
        <time>2015-04-06T18:30:20.930Z</time>
      </trkpt>
      <trkpt lat="48.83514" lon="2.33313">
        <ele>115.6</ele>
        <time>2015-04-06T18:30:21.975Z</time>
      </trkpt>
      <trkpt lat="48.8351" lon="2.3331">
        <ele>115.7</ele>
        <time>2015-04-06T18:30:22.864Z</time>
      </trkpt>
      <trkpt lat="48.83503" lon="2.33306">
        <ele>115.7</ele>
        <time>2015-04-06T18:30:23.868Z</time>
      </trkpt>
      <trkpt lat="48.83492" lon="2.333">
        <ele>114.3</ele>
        <time>2015-04-06T18:30:24.886Z</time>
      </trkpt>
      <trkpt lat="48.83485" lon="2.33296">
        <ele>113.8</ele>
        <time>2015-04-06T18:30:25.921Z</time>
      </trkpt>
      <trkpt lat="48.83479" lon="2.33291">
        <ele>113.7</ele>
        <time>2015-04-06T18:30:26.943Z</time>
      </trkpt>
      <trkpt lat="48.83475" lon="2.33287">
        <ele>114</ele>
        <time>2015-04-06T18:30:27.870Z</time>
      </trkpt>
      <trkpt lat="48.83471" lon="2.33283">
        <ele>114.2</ele>
        <time>2015-04-06T18:30:28.872Z</time>
      </trkpt>
      <trkpt lat="48.83466" lon="2.33287">
        <ele>114.7</ele>
        <time>2015-04-06T18:31:40.854Z</time>
      </trkpt>
      <trkpt lat="48.83456" lon="2.33292">
        <ele>120</ele>
        <time>2015-04-06T18:31:41.875Z</time>
      </trkpt>
      <trkpt lat="48.8345" lon="2.33301">
        <ele>118.2</ele>
        <time>2015-04-06T18:31:46.919Z</time>
      </trkpt>
      <trkpt lat="48.83448" lon="2.33304">
        <ele>118</ele>
        <time>2015-04-06T18:31:47.998Z</time>
      </trkpt>
      <trkpt lat="48.83442" lon="2.33311">
        <ele>116.9</ele>
        <time>2015-04-06T18:31:51.952Z</time>
      </trkpt>
      <trkpt lat="48.8344" lon="2.33314">
        <ele>116.6</ele>
        <time>2015-04-06T18:31:52.881Z</time>
      </trkpt>
      <trkpt lat="48.83436" lon="2.33323">
        <ele>115.8</ele>
        <time>2015-04-06T18:31:56.928Z</time>
      </trkpt>
      <trkpt lat="48.83434" lon="2.33325">
        <ele>115.8</ele>
        <time>2015-04-06T18:31:57.880Z</time>
      </trkpt>
      <trkpt lat="48.83434" lon="2.33325">
        <ele>115.8</ele>
        <time>2015-04-06T18:32:05.884Z</time>
      </trkpt>
      <trkpt lat="48.83422" lon="2.33339">
        <ele>117.4</ele>
        <time>2015-04-06T18:32:06.921Z</time>
      </trkpt>
      <trkpt lat="48.83417" lon="2.33345">
        <ele>116.9</ele>
        <time>2015-04-06T18:32:08.860Z</time>
      </trkpt>
      <trkpt lat="48.83414" lon="2.33348">
        <ele>117</ele>
        <time>2015-04-06T18:32:09.887Z</time>
      </trkpt>
      <trkpt lat="48.83408" lon="2.33353">
        <ele>117.4</ele>
        <time>2015-04-06T18:32:11.928Z</time>
      </trkpt>
      <trkpt lat="48.83405" lon="2.33356">
        <ele>117.3</ele>
        <time>2015-04-06T18:32:12.943Z</time>
      </trkpt>
      <trkpt lat="48.83399" lon="2.33359">
        <ele>117.3</ele>
        <time>2015-04-06T18:32:14.908Z</time>
      </trkpt>
      <trkpt lat="48.83396" lon="2.33361">
        <ele>116.9</ele>
        <time>2015-04-06T18:32:15.917Z</time>
      </trkpt>
      <trkpt lat="48.83389" lon="2.33364">
        <ele>117.4</ele>
        <time>2015-04-06T18:32:24.977Z</time>
      </trkpt>
      <trkpt lat="48.83367" lon="2.33367">
        <ele>114.1</ele>
        <time>2015-04-06T18:32:25.934Z</time>
      </trkpt>
      <trkpt lat="48.8336" lon="2.33362">
        <ele>112.8</ele>
        <time>2015-04-06T18:32:27.891Z</time>
      </trkpt>
      <trkpt lat="48.83359" lon="2.33358">
        <ele>112.5</ele>
        <time>2015-04-06T18:32:28.889Z</time>
      </trkpt>
      <trkpt lat="48.83353" lon="2.33352">
        <ele>110.7</ele>
        <time>2015-04-06T18:32:31.946Z</time>
      </trkpt>
      <trkpt lat="48.83352" lon="2.33349">
        <ele>110.2</ele>
        <time>2015-04-06T18:32:32.858Z</time>
      </trkpt>
      <trkpt lat="48.83344" lon="2.33344">
        <ele>110.1</ele>
        <time>2015-04-06T18:32:35.920Z</time>
      </trkpt>
      <trkpt lat="48.83342" lon="2.33344">
        <ele>110.4</ele>
        <time>2015-04-06T18:32:36.932Z</time>
      </trkpt>
      <trkpt lat="48.83347" lon="2.33343">
        <ele>111.8</ele>
        <time>2015-04-06T18:33:28.080Z</time>
      </trkpt>
      <trkpt lat="48.8335" lon="2.33334">
        <ele>116.1</ele>
        <time>2015-04-06T18:33:28.897Z</time>
      </trkpt>
      <trkpt lat="48.83351" lon="2.33333">
        <ele>116.6</ele>
        <time>2015-04-06T18:33:29.866Z</time>
      </trkpt>
      <trkpt lat="48.83351" lon="2.33331">
        <ele>117.7</ele>
        <time>2015-04-06T18:33:30.889Z</time>
      </trkpt>
      <trkpt lat="48.83351" lon="2.3333">
        <ele>118.6</ele>
        <time>2015-04-06T18:34:18.869Z</time>
      </trkpt>
      <trkpt lat="48.83336" lon="2.33322">
        <ele>123.2</ele>
        <time>2015-04-06T18:35:24.944Z</time>
      </trkpt>
      <trkpt lat="48.83336" lon="2.33322">
        <ele>123.2</ele>
        <time>2015-04-06T18:36:13.900Z</time>
      </trkpt>
      <trkpt lat="48.83341" lon="2.3334">
        <ele>116.6</ele>
        <time>2015-04-06T18:36:14.907Z</time>
      </trkpt>
      <trkpt lat="48.83337" lon="2.33341">
        <ele>116.3</ele>
        <time>2015-04-06T18:36:18.854Z</time>
      </trkpt>
      <trkpt lat="48.8333" lon="2.3334">
        <ele>116.1</ele>
        <time>2015-04-06T18:36:19.851Z</time>
      </trkpt>
      <trkpt lat="48.83325" lon="2.3334">
        <ele>115.8</ele>
        <time>2015-04-06T18:36:20.852Z</time>
      </trkpt>
      <trkpt lat="48.83321" lon="2.33338">
        <ele>115.7</ele>
        <time>2015-04-06T18:36:21.868Z</time>
      </trkpt>
      <trkpt lat="48.83321" lon="2.33337">
        <ele>115.2</ele>
        <time>2015-04-06T18:37:01.936Z</time>
      </trkpt>
      <trkpt lat="48.83341" lon="2.33343">
        <ele>118.3</ele>
        <time>2015-04-06T18:37:02.943Z</time>
      </trkpt>
      <trkpt lat="48.83345" lon="2.33346">
        <ele>118.2</ele>
        <time>2015-04-06T18:37:03.859Z</time>
      </trkpt>
      <trkpt lat="48.83351" lon="2.3335">
        <ele>117.6</ele>
        <time>2015-04-06T18:37:04.860Z</time>
      </trkpt>
      <trkpt lat="48.83359" lon="2.33356">
        <ele>117.3</ele>
        <time>2015-04-06T18:37:06.900Z</time>
      </trkpt>
      <trkpt lat="48.83363" lon="2.33359">
        <ele>116.9</ele>
        <time>2015-04-06T18:37:07.932Z</time>
      </trkpt>
      <trkpt lat="48.8337" lon="2.33362">
        <ele>116.9</ele>
        <time>2015-04-06T18:37:09.880Z</time>
      </trkpt>
      <trkpt lat="48.83373" lon="2.33359">
        <ele>115.2</ele>
        <time>2015-04-06T18:37:10.903Z</time>
      </trkpt>
      <trkpt lat="48.83382" lon="2.33356">
        <ele>114.1</ele>
        <time>2015-04-06T18:37:14.936Z</time>
      </trkpt>
      <trkpt lat="48.83385" lon="2.33355">
        <ele>114.1</ele>
        <time>2015-04-06T18:37:15.865Z</time>
      </trkpt>
      <trkpt lat="48.83391" lon="2.33352">
        <ele>114.4</ele>
        <time>2015-04-06T18:37:17.970Z</time>
      </trkpt>
      <trkpt lat="48.83394" lon="2.33352">
        <ele>114.5</ele>
        <time>2015-04-06T18:37:18.879Z</time>
      </trkpt>
      <trkpt lat="48.83402" lon="2.33349">
        <ele>114.8</ele>
        <time>2015-04-06T18:37:20.899Z</time>
      </trkpt>
      <trkpt lat="48.83404" lon="2.33347">
        <ele>115.2</ele>
        <time>2015-04-06T18:37:21.907Z</time>
      </trkpt>
      <trkpt lat="48.8341" lon="2.33344">
        <ele>115.2</ele>
        <time>2015-04-06T18:37:23.832Z</time>
      </trkpt>
      <trkpt lat="48.83414" lon="2.33343">
        <ele>115.4</ele>
        <time>2015-04-06T18:37:24.885Z</time>
      </trkpt>
      <trkpt lat="48.8342" lon="2.3334">
        <ele>115.8</ele>
        <time>2015-04-06T18:37:50.854Z</time>
      </trkpt>
      <trkpt lat="48.83429" lon="2.3333">
        <ele>112</ele>
        <time>2015-04-06T18:37:51.850Z</time>
      </trkpt>
      <trkpt lat="48.83434" lon="2.33318">
        <ele>112.2</ele>
        <time>2015-04-06T18:37:56.919Z</time>
      </trkpt>
      <trkpt lat="48.83434" lon="2.33316">
        <ele>112.4</ele>
        <time>2015-04-06T18:37:57.936Z</time>
      </trkpt>
      <trkpt lat="48.83434" lon="2.33314">
        <ele>112.6</ele>
        <time>2015-04-06T18:38:16.881Z</time>
      </trkpt>
      <trkpt lat="48.83447" lon="2.33296">
        <ele>115.3</ele>
        <time>2015-04-06T18:38:17.905Z</time>
      </trkpt>
      <trkpt lat="48.83453" lon="2.33294">
        <ele>115.3</ele>
        <time>2015-04-06T18:38:25.274Z</time>
      </trkpt>
      <trkpt lat="48.83454" lon="2.33288">
        <ele>116.1</ele>
        <time>2015-04-06T18:38:25.914Z</time>
      </trkpt>
      <trkpt lat="48.83461" lon="2.33281">
        <ele>120</ele>
        <time>2015-04-06T18:38:44.880Z</time>
      </trkpt>
      <trkpt lat="48.83464" lon="2.33281">
        <ele>120</ele>
        <time>2015-04-06T18:38:45.956Z</time>
      </trkpt>
      <trkpt lat="48.83472" lon="2.33285">
        <ele>120.6</ele>
        <time>2015-04-06T18:38:48.916Z</time>
      </trkpt>
      <trkpt lat="48.83475" lon="2.33286">
        <ele>121</ele>
        <time>2015-04-06T18:38:49.989Z</time>
      </trkpt>
      <trkpt lat="48.83482" lon="2.3329">
        <ele>121</ele>
        <time>2015-04-06T18:38:51.855Z</time>
      </trkpt>
      <trkpt lat="48.83487" lon="2.33294">
        <ele>120.7</ele>
        <time>2015-04-06T18:38:52.882Z</time>
      </trkpt>
      <trkpt lat="48.83494" lon="2.333">
        <ele>121</ele>
        <time>2015-04-06T18:38:54.934Z</time>
      </trkpt>
      <trkpt lat="48.83498" lon="2.33303">
        <ele>120.6</ele>
        <time>2015-04-06T18:38:55.947Z</time>
      </trkpt>
      <trkpt lat="48.83504" lon="2.33311">
        <ele>121.1</ele>
        <time>2015-04-06T18:38:57.826Z</time>
      </trkpt>
      <trkpt lat="48.83511" lon="2.33317">
        <ele>119.6</ele>
        <time>2015-04-06T18:38:58.891Z</time>
      </trkpt>
      <trkpt lat="48.83518" lon="2.33322">
        <ele>118.5</ele>
        <time>2015-04-06T18:38:59.869Z</time>
      </trkpt>
      <trkpt lat="48.83525" lon="2.33326">
        <ele>117.6</ele>
        <time>2015-04-06T18:39:00.871Z</time>
      </trkpt>
      <trkpt lat="48.83531" lon="2.33331">
        <ele>117.1</ele>
        <time>2015-04-06T18:39:01.948Z</time>
      </trkpt>
      <trkpt lat="48.83536" lon="2.33335">
        <ele>117</ele>
        <time>2015-04-06T18:39:02.862Z</time>
      </trkpt>
      <trkpt lat="48.83542" lon="2.33338">
        <ele>116.7</ele>
        <time>2015-04-06T18:39:03.890Z</time>
      </trkpt>
      <trkpt lat="48.83548" lon="2.33341">
        <ele>116.7</ele>
        <time>2015-04-06T18:39:04.900Z</time>
      </trkpt>
      <trkpt lat="48.83552" lon="2.33345">
        <ele>116.5</ele>
        <time>2015-04-06T18:39:05.870Z</time>
      </trkpt>
      <trkpt lat="48.83556" lon="2.3335">
        <ele>116.5</ele>
        <time>2015-04-06T18:39:06.882Z</time>
      </trkpt>
      <trkpt lat="48.8356" lon="2.33354">
        <ele>116.5</ele>
        <time>2015-04-06T18:39:07.934Z</time>
      </trkpt>
      <trkpt lat="48.83564" lon="2.33359">
        <ele>116.3</ele>
        <time>2015-04-06T18:39:08.973Z</time>
      </trkpt>
      <trkpt lat="48.83568" lon="2.33363">
        <ele>116</ele>
        <time>2015-04-06T18:39:09.862Z</time>
      </trkpt>
      <trkpt lat="48.83573" lon="2.33368">
        <ele>115.9</ele>
        <time>2015-04-06T18:39:10.881Z</time>
      </trkpt>
      <trkpt lat="48.83577" lon="2.33373">
        <ele>115.9</ele>
        <time>2015-04-06T18:39:11.898Z</time>
      </trkpt>
      <trkpt lat="48.83581" lon="2.33378">
        <ele>116.1</ele>
        <time>2015-04-06T18:39:12.918Z</time>
      </trkpt>
      <trkpt lat="48.83585" lon="2.33382">
        <ele>116</ele>
        <time>2015-04-06T18:39:13.949Z</time>
      </trkpt>
      <trkpt lat="48.83589" lon="2.33386">
        <ele>116.4</ele>
        <time>2015-04-06T18:39:14.864Z</time>
      </trkpt>
      <trkpt lat="48.83592" lon="2.33392">
        <ele>116.7</ele>
        <time>2015-04-06T18:39:15.866Z</time>
      </trkpt>
      <trkpt lat="48.83598" lon="2.33399">
        <ele>117.1</ele>
        <time>2015-04-06T18:39:16.864Z</time>
      </trkpt>
      <trkpt lat="48.83604" lon="2.33405">
        <ele>117.1</ele>
        <time>2015-04-06T18:39:18.037Z</time>
      </trkpt>
      <trkpt lat="48.83609" lon="2.3341">
        <ele>117.3</ele>
        <time>2015-04-06T18:39:18.866Z</time>
      </trkpt>
      <trkpt lat="48.83614" lon="2.33416">
        <ele>117</ele>
        <time>2015-04-06T18:39:19.908Z</time>
      </trkpt>
      <trkpt lat="48.83618" lon="2.33421">
        <ele>117.1</ele>
        <time>2015-04-06T18:39:21.003Z</time>
      </trkpt>
      <trkpt lat="48.83623" lon="2.33427">
        <ele>116.9</ele>
        <time>2015-04-06T18:39:21.867Z</time>
      </trkpt>
      <trkpt lat="48.83627" lon="2.33431">
        <ele>116.6</ele>
        <time>2015-04-06T18:39:22.881Z</time>
      </trkpt>
      <trkpt lat="48.83633" lon="2.33434">
        <ele>116.3</ele>
        <time>2015-04-06T18:39:23.888Z</time>
      </trkpt>
      <trkpt lat="48.83638" lon="2.33439">
        <ele>116.6</ele>
        <time>2015-04-06T18:39:24.893Z</time>
      </trkpt>
      <trkpt lat="48.83643" lon="2.33444">
        <ele>116.5</ele>
        <time>2015-04-06T18:39:25.907Z</time>
      </trkpt>
      <trkpt lat="48.8365" lon="2.33448">
        <ele>116.6</ele>
        <time>2015-04-06T18:39:26.908Z</time>
      </trkpt>
      <trkpt lat="48.83657" lon="2.33452">
        <ele>116.4</ele>
        <time>2015-04-06T18:39:27.933Z</time>
      </trkpt>
      <trkpt lat="48.83663" lon="2.33457">
        <ele>116.4</ele>
        <time>2015-04-06T18:39:28.851Z</time>
      </trkpt>
      <trkpt lat="48.83668" lon="2.33461">
        <ele>116.2</ele>
        <time>2015-04-06T18:39:29.866Z</time>
      </trkpt>
      <trkpt lat="48.83672" lon="2.33466">
        <ele>116.1</ele>
        <time>2015-04-06T18:39:30.875Z</time>
      </trkpt>
      <trkpt lat="48.83676" lon="2.33471">
        <ele>115.9</ele>
        <time>2015-04-06T18:39:31.920Z</time>
      </trkpt>
      <trkpt lat="48.83681" lon="2.33475">
        <ele>115.5</ele>
        <time>2015-04-06T18:39:32.918Z</time>
      </trkpt>
      <trkpt lat="48.83686" lon="2.33479">
        <ele>115.3</ele>
        <time>2015-04-06T18:39:33.954Z</time>
      </trkpt>
      <trkpt lat="48.83692" lon="2.33482">
        <ele>115.3</ele>
        <time>2015-04-06T18:39:34.849Z</time>
      </trkpt>
      <trkpt lat="48.83697" lon="2.33488">
        <ele>115.5</ele>
        <time>2015-04-06T18:39:35.880Z</time>
      </trkpt>
      <trkpt lat="48.83702" lon="2.33493">
        <ele>115.7</ele>
        <time>2015-04-06T18:39:36.887Z</time>
      </trkpt>
      <trkpt lat="48.83708" lon="2.33499">
        <ele>116</ele>
        <time>2015-04-06T18:39:37.947Z</time>
      </trkpt>
      <trkpt lat="48.83715" lon="2.33505">
        <ele>116.4</ele>
        <time>2015-04-06T18:39:39.084Z</time>
      </trkpt>
      <trkpt lat="48.83721" lon="2.33513">
        <ele>116.7</ele>
        <time>2015-04-06T18:39:39.903Z</time>
      </trkpt>
      <trkpt lat="48.83728" lon="2.33519">
        <ele>116.9</ele>
        <time>2015-04-06T18:39:40.914Z</time>
      </trkpt>
      <trkpt lat="48.83735" lon="2.33525">
        <ele>116.9</ele>
        <time>2015-04-06T18:39:41.927Z</time>
      </trkpt>
      <trkpt lat="48.8374" lon="2.33531">
        <ele>117</ele>
        <time>2015-04-06T18:39:42.932Z</time>
      </trkpt>
      <trkpt lat="48.83746" lon="2.33538">
        <ele>116.7</ele>
        <time>2015-04-06T18:39:43.951Z</time>
      </trkpt>
      <trkpt lat="48.83751" lon="2.33543">
        <ele>116.2</ele>
        <time>2015-04-06T18:39:44.872Z</time>
      </trkpt>
      <trkpt lat="48.83755" lon="2.3355">
        <ele>115.5</ele>
        <time>2015-04-06T18:39:45.929Z</time>
      </trkpt>
      <trkpt lat="48.83759" lon="2.33555">
        <ele>115.1</ele>
        <time>2015-04-06T18:39:46.943Z</time>
      </trkpt>
      <trkpt lat="48.83763" lon="2.3356">
        <ele>115</ele>
        <time>2015-04-06T18:39:47.870Z</time>
      </trkpt>
      <trkpt lat="48.83767" lon="2.33566">
        <ele>114.4</ele>
        <time>2015-04-06T18:39:48.874Z</time>
      </trkpt>
      <trkpt lat="48.83769" lon="2.33573">
        <ele>113.9</ele>
        <time>2015-04-06T18:39:49.940Z</time>
      </trkpt>
      <trkpt lat="48.83771" lon="2.3358">
        <ele>113.4</ele>
        <time>2015-04-06T18:39:50.943Z</time>
      </trkpt>
      <trkpt lat="48.83775" lon="2.33586">
        <ele>112.6</ele>
        <time>2015-04-06T18:39:51.956Z</time>
      </trkpt>
      <trkpt lat="48.83779" lon="2.33592">
        <ele>112.2</ele>
        <time>2015-04-06T18:39:52.868Z</time>
      </trkpt>
      <trkpt lat="48.83784" lon="2.33597">
        <ele>111.8</ele>
        <time>2015-04-06T18:39:53.872Z</time>
      </trkpt>
      <trkpt lat="48.83789" lon="2.33602">
        <ele>111.3</ele>
        <time>2015-04-06T18:39:54.876Z</time>
      </trkpt>
      <trkpt lat="48.83793" lon="2.33608">
        <ele>110.7</ele>
        <time>2015-04-06T18:39:55.908Z</time>
      </trkpt>
      <trkpt lat="48.83798" lon="2.33613">
        <ele>110.5</ele>
        <time>2015-04-06T18:39:56.914Z</time>
      </trkpt>
      <trkpt lat="48.83803" lon="2.33617">
        <ele>110.1</ele>
        <time>2015-04-06T18:39:57.924Z</time>
      </trkpt>
      <trkpt lat="48.83812" lon="2.33619">
        <ele>110</ele>
        <time>2015-04-06T18:39:58.929Z</time>
      </trkpt>
      <trkpt lat="48.83821" lon="2.33624">
        <ele>109.3</ele>
        <time>2015-04-06T18:39:59.934Z</time>
      </trkpt>
      <trkpt lat="48.83831" lon="2.33631">
        <ele>108.5</ele>
        <time>2015-04-06T18:40:00.955Z</time>
      </trkpt>
      <trkpt lat="48.83838" lon="2.33638">
        <ele>108.5</ele>
        <time>2015-04-06T18:40:01.973Z</time>
      </trkpt>
      <trkpt lat="48.83843" lon="2.33644">
        <ele>108.3</ele>
        <time>2015-04-06T18:40:02.844Z</time>
      </trkpt>
      <trkpt lat="48.83849" lon="2.33651">
        <ele>108.3</ele>
        <time>2015-04-06T18:40:03.855Z</time>
      </trkpt>
      <trkpt lat="48.83854" lon="2.33657">
        <ele>108</ele>
        <time>2015-04-06T18:40:04.873Z</time>
      </trkpt>
      <trkpt lat="48.83859" lon="2.33663">
        <ele>107.9</ele>
        <time>2015-04-06T18:40:05.890Z</time>
      </trkpt>
      <trkpt lat="48.83864" lon="2.33667">
        <ele>107.6</ele>
        <time>2015-04-06T18:40:06.898Z</time>
      </trkpt>
      <trkpt lat="48.8387" lon="2.33672">
        <ele>107.6</ele>
        <time>2015-04-06T18:40:07.905Z</time>
      </trkpt>
      <trkpt lat="48.83876" lon="2.33674">
        <ele>107.2</ele>
        <time>2015-04-06T18:40:08.915Z</time>
      </trkpt>
      <trkpt lat="48.83882" lon="2.33676">
        <ele>107.1</ele>
        <time>2015-04-06T18:40:09.846Z</time>
      </trkpt>
      <trkpt lat="48.8389" lon="2.33676">
        <ele>107.6</ele>
        <time>2015-04-06T18:40:10.851Z</time>
      </trkpt>
      <trkpt lat="48.83897" lon="2.33675">
        <ele>108.3</ele>
        <time>2015-04-06T18:40:11.852Z</time>
      </trkpt>
      <trkpt lat="48.83902" lon="2.33674">
        <ele>108.3</ele>
        <time>2015-04-06T18:40:12.865Z</time>
      </trkpt>
      <trkpt lat="48.8391" lon="2.33675">
        <ele>109.1</ele>
        <time>2015-04-06T18:40:16.921Z</time>
      </trkpt>
      <trkpt lat="48.83912" lon="2.33674">
        <ele>109.2</ele>
        <time>2015-04-06T18:40:17.976Z</time>
      </trkpt>
      <trkpt lat="48.83919" lon="2.33675">
        <ele>108.8</ele>
        <time>2015-04-06T18:40:19.889Z</time>
      </trkpt>
      <trkpt lat="48.83924" lon="2.33676">
        <ele>108.5</ele>
        <time>2015-04-06T18:40:20.902Z</time>
      </trkpt>
      <trkpt lat="48.83929" lon="2.33676">
        <ele>108.2</ele>
        <time>2015-04-06T18:40:21.856Z</time>
      </trkpt>
      <trkpt lat="48.83933" lon="2.33676">
        <ele>108</ele>
        <time>2015-04-06T18:40:22.864Z</time>
      </trkpt>
      <trkpt lat="48.83939" lon="2.33678">
        <ele>108</ele>
        <time>2015-04-06T18:40:24.911Z</time>
      </trkpt>
      <trkpt lat="48.83942" lon="2.33679">
        <ele>108.2</ele>
        <time>2015-04-06T18:40:25.926Z</time>
      </trkpt>
      <trkpt lat="48.8395" lon="2.3368">
        <ele>109.2</ele>
        <time>2015-04-06T18:40:27.948Z</time>
      </trkpt>
      <trkpt lat="48.83953" lon="2.3368">
        <ele>109.7</ele>
        <time>2015-04-06T18:40:28.879Z</time>
      </trkpt>
      <trkpt lat="48.83953" lon="2.3368">
        <ele>109.7</ele>
        <time>2015-04-06T18:41:45.843Z</time>
      </trkpt>
      <trkpt lat="48.83962" lon="2.33679">
        <ele>109.3</ele>
        <time>2015-04-06T18:41:46.857Z</time>
      </trkpt>
      <trkpt lat="48.83968" lon="2.33683">
        <ele>109.6</ele>
        <time>2015-04-06T18:41:49.886Z</time>
      </trkpt>
      <trkpt lat="48.8397" lon="2.33684">
        <ele>109.5</ele>
        <time>2015-04-06T18:41:50.909Z</time>
      </trkpt>
      <trkpt lat="48.83979" lon="2.33683">
        <ele>110.5</ele>
        <time>2015-04-06T18:41:54.903Z</time>
      </trkpt>
      <trkpt lat="48.83981" lon="2.33683">
        <ele>110.8</ele>
        <time>2015-04-06T18:41:55.945Z</time>
      </trkpt>
      <trkpt lat="48.8399" lon="2.33684">
        <ele>111.5</ele>
        <time>2015-04-06T18:41:58.884Z</time>
      </trkpt>
      <trkpt lat="48.83994" lon="2.33684">
        <ele>111.8</ele>
        <time>2015-04-06T18:41:59.972Z</time>
      </trkpt>
      <trkpt lat="48.84003" lon="2.33686">
        <ele>112.9</ele>
        <time>2015-04-06T18:42:01.913Z</time>
      </trkpt>
      <trkpt lat="48.84007" lon="2.33687">
        <ele>112.9</ele>
        <time>2015-04-06T18:42:02.917Z</time>
      </trkpt>
      <trkpt lat="48.84015" lon="2.3369">
        <ele>112.9</ele>
        <time>2015-04-06T18:42:04.850Z</time>
      </trkpt>
      <trkpt lat="48.84018" lon="2.33692">
        <ele>113.3</ele>
        <time>2015-04-06T18:42:05.872Z</time>
      </trkpt>
      <trkpt lat="48.84025" lon="2.33695">
        <ele>113.7</ele>
        <time>2015-04-06T18:42:07.899Z</time>
      </trkpt>
      <trkpt lat="48.84028" lon="2.33698">
        <ele>114.1</ele>
        <time>2015-04-06T18:42:08.914Z</time>
      </trkpt>
      <trkpt lat="48.84035" lon="2.33705">
        <ele>115.5</ele>
        <time>2015-04-06T18:42:11.875Z</time>
      </trkpt>
      <trkpt lat="48.84038" lon="2.33708">
        <ele>115.9</ele>
        <time>2015-04-06T18:42:12.906Z</time>
      </trkpt>
      <trkpt lat="48.84046" lon="2.33714">
        <ele>116.7</ele>
        <time>2015-04-06T18:42:15.876Z</time>
      </trkpt>
      <trkpt lat="48.8405" lon="2.33715">
        <ele>116.9</ele>
        <time>2015-04-06T18:42:16.901Z</time>
      </trkpt>
      <trkpt lat="48.84057" lon="2.33718">
        <ele>117.4</ele>
        <time>2015-04-06T18:42:18.898Z</time>
      </trkpt>
      <trkpt lat="48.84061" lon="2.33719">
        <ele>117.3</ele>
        <time>2015-04-06T18:42:19.921Z</time>
      </trkpt>
      <trkpt lat="48.84069" lon="2.33722">
        <ele>117.7</ele>
        <time>2015-04-06T18:42:21.835Z</time>
      </trkpt>
      <trkpt lat="48.84073" lon="2.33725">
        <ele>117.8</ele>
        <time>2015-04-06T18:42:22.877Z</time>
      </trkpt>
      <trkpt lat="48.8408" lon="2.3373">
        <ele>118</ele>
        <time>2015-04-06T18:42:24.928Z</time>
      </trkpt>
      <trkpt lat="48.84084" lon="2.33733">
        <ele>118.2</ele>
        <time>2015-04-06T18:42:25.937Z</time>
      </trkpt>
      <trkpt lat="48.8409" lon="2.33738">
        <ele>118.1</ele>
        <time>2015-04-06T18:42:27.857Z</time>
      </trkpt>
      <trkpt lat="48.84095" lon="2.3374">
        <ele>118.4</ele>
        <time>2015-04-06T18:42:28.872Z</time>
      </trkpt>
      <trkpt lat="48.84103" lon="2.33742">
        <ele>118.2</ele>
        <time>2015-04-06T18:42:30.893Z</time>
      </trkpt>
      <trkpt lat="48.84108" lon="2.33745">
        <ele>118.2</ele>
        <time>2015-04-06T18:42:31.940Z</time>
      </trkpt>
      <trkpt lat="48.84113" lon="2.33748">
        <ele>118.3</ele>
        <time>2015-04-06T18:42:32.854Z</time>
      </trkpt>
      <trkpt lat="48.84117" lon="2.3375">
        <ele>118.3</ele>
        <time>2015-04-06T18:42:33.844Z</time>
      </trkpt>
      <trkpt lat="48.84124" lon="2.33754">
        <ele>118.1</ele>
        <time>2015-04-06T18:42:35.858Z</time>
      </trkpt>
      <trkpt lat="48.84127" lon="2.33757">
        <ele>118</ele>
        <time>2015-04-06T18:42:36.879Z</time>
      </trkpt>
      <trkpt lat="48.84133" lon="2.33762">
        <ele>117.7</ele>
        <time>2015-04-06T18:42:38.899Z</time>
      </trkpt>
      <trkpt lat="48.84135" lon="2.33765">
        <ele>117.7</ele>
        <time>2015-04-06T18:42:39.922Z</time>
      </trkpt>
      <trkpt lat="48.84139" lon="2.33768">
        <ele>117.4</ele>
        <time>2015-04-06T18:42:40.826Z</time>
      </trkpt>
      <trkpt lat="48.84144" lon="2.3377">
        <ele>117.2</ele>
        <time>2015-04-06T18:42:41.821Z</time>
      </trkpt>
      <trkpt lat="48.84149" lon="2.33773">
        <ele>117.1</ele>
        <time>2015-04-06T18:42:42.848Z</time>
      </trkpt>
      <trkpt lat="48.84153" lon="2.33775">
        <ele>116.9</ele>
        <time>2015-04-06T18:42:43.871Z</time>
      </trkpt>
      <trkpt lat="48.84162" lon="2.33779">
        <ele>116.9</ele>
        <time>2015-04-06T18:42:45.904Z</time>
      </trkpt>
      <trkpt lat="48.84167" lon="2.33781">
        <ele>116.5</ele>
        <time>2015-04-06T18:42:46.916Z</time>
      </trkpt>
      <trkpt lat="48.84172" lon="2.33784">
        <ele>116.1</ele>
        <time>2015-04-06T18:42:47.937Z</time>
      </trkpt>
      <trkpt lat="48.84177" lon="2.33787">
        <ele>116.1</ele>
        <time>2015-04-06T18:42:48.848Z</time>
      </trkpt>
      <trkpt lat="48.84183" lon="2.3379">
        <ele>116.2</ele>
        <time>2015-04-06T18:42:49.894Z</time>
      </trkpt>
      <trkpt lat="48.84189" lon="2.33793">
        <ele>116.5</ele>
        <time>2015-04-06T18:42:50.908Z</time>
      </trkpt>
      <trkpt lat="48.84196" lon="2.33795">
        <ele>116.9</ele>
        <time>2015-04-06T18:42:51.931Z</time>
      </trkpt>
      <trkpt lat="48.84203" lon="2.33797">
        <ele>117.3</ele>
        <time>2015-04-06T18:42:52.848Z</time>
      </trkpt>
      <trkpt lat="48.84209" lon="2.33799">
        <ele>117.8</ele>
        <time>2015-04-06T18:42:53.849Z</time>
      </trkpt>
      <trkpt lat="48.84216" lon="2.33803">
        <ele>118.3</ele>
        <time>2015-04-06T18:42:54.851Z</time>
      </trkpt>
      <trkpt lat="48.84225" lon="2.33808">
        <ele>118.8</ele>
        <time>2015-04-06T18:42:55.891Z</time>
      </trkpt>
      <trkpt lat="48.84231" lon="2.33812">
        <ele>118.7</ele>
        <time>2015-04-06T18:42:56.897Z</time>
      </trkpt>
      <trkpt lat="48.84235" lon="2.33815">
        <ele>118.5</ele>
        <time>2015-04-06T18:42:57.906Z</time>
      </trkpt>
      <trkpt lat="48.84241" lon="2.3382">
        <ele>118.6</ele>
        <time>2015-04-06T18:42:58.910Z</time>
      </trkpt>
      <trkpt lat="48.84246" lon="2.33824">
        <ele>118.7</ele>
        <time>2015-04-06T18:42:59.894Z</time>
      </trkpt>
      <trkpt lat="48.84252" lon="2.33825">
        <ele>118.5</ele>
        <time>2015-04-06T18:43:00.855Z</time>
      </trkpt>
      <trkpt lat="48.84257" lon="2.33827">
        <ele>118.4</ele>
        <time>2015-04-06T18:43:01.953Z</time>
      </trkpt>
      <trkpt lat="48.84262" lon="2.33828">
        <ele>118.7</ele>
        <time>2015-04-06T18:43:02.872Z</time>
      </trkpt>
      <trkpt lat="48.84266" lon="2.3383">
        <ele>118.2</ele>
        <time>2015-04-06T18:43:03.852Z</time>
      </trkpt>
      <trkpt lat="48.8427" lon="2.33833">
        <ele>118</ele>
        <time>2015-04-06T18:43:04.853Z</time>
      </trkpt>
      <trkpt lat="48.84279" lon="2.33837">
        <ele>118.2</ele>
        <time>2015-04-06T18:43:06.863Z</time>
      </trkpt>
      <trkpt lat="48.84282" lon="2.33838">
        <ele>117.9</ele>
        <time>2015-04-06T18:43:07.877Z</time>
      </trkpt>
      <trkpt lat="48.8429" lon="2.33845">
        <ele>118.3</ele>
        <time>2015-04-06T18:43:11.868Z</time>
      </trkpt>
      <trkpt lat="48.84293" lon="2.33846">
        <ele>118.2</ele>
        <time>2015-04-06T18:43:12.891Z</time>
      </trkpt>
      <trkpt lat="48.843" lon="2.33848">
        <ele>117.9</ele>
        <time>2015-04-06T18:43:14.854Z</time>
      </trkpt>
      <trkpt lat="48.84305" lon="2.33851">
        <ele>117.7</ele>
        <time>2015-04-06T18:43:15.869Z</time>
      </trkpt>
      <trkpt lat="48.84312" lon="2.33857">
        <ele>116.9</ele>
        <time>2015-04-06T18:43:17.900Z</time>
      </trkpt>
      <trkpt lat="48.84316" lon="2.3386">
        <ele>116.8</ele>
        <time>2015-04-06T18:43:18.927Z</time>
      </trkpt>
      <trkpt lat="48.84323" lon="2.33866">
        <ele>116.9</ele>
        <time>2015-04-06T18:43:20.887Z</time>
      </trkpt>
      <trkpt lat="48.84326" lon="2.33869">
        <ele>116.7</ele>
        <time>2015-04-06T18:43:21.899Z</time>
      </trkpt>
      <trkpt lat="48.84331" lon="2.33872">
        <ele>116.2</ele>
        <time>2015-04-06T18:43:22.928Z</time>
      </trkpt>
      <trkpt lat="48.84335" lon="2.33875">
        <ele>116.1</ele>
        <time>2015-04-06T18:43:23.934Z</time>
      </trkpt>
      <trkpt lat="48.84342" lon="2.33879">
        <ele>115.8</ele>
        <time>2015-04-06T18:43:25.897Z</time>
      </trkpt>
      <trkpt lat="48.84346" lon="2.33882">
        <ele>115.7</ele>
        <time>2015-04-06T18:43:26.900Z</time>
      </trkpt>
      <trkpt lat="48.84353" lon="2.33885">
        <ele>115.3</ele>
        <time>2015-04-06T18:43:27.928Z</time>
      </trkpt>
      <trkpt lat="48.84358" lon="2.33888">
        <ele>114.8</ele>
        <time>2015-04-06T18:43:28.845Z</time>
      </trkpt>
      <trkpt lat="48.84364" lon="2.33891">
        <ele>114.3</ele>
        <time>2015-04-06T18:43:29.842Z</time>
      </trkpt>
      <trkpt lat="48.84368" lon="2.33894">
        <ele>113.9</ele>
        <time>2015-04-06T18:43:30.845Z</time>
      </trkpt>
      <trkpt lat="48.84374" lon="2.33897">
        <ele>113.7</ele>
        <time>2015-04-06T18:43:31.998Z</time>
      </trkpt>
      <trkpt lat="48.84378" lon="2.33901">
        <ele>113.7</ele>
        <time>2015-04-06T18:43:32.937Z</time>
      </trkpt>
      <trkpt lat="48.84383" lon="2.33904">
        <ele>113.7</ele>
        <time>2015-04-06T18:43:33.847Z</time>
      </trkpt>
      <trkpt lat="48.84389" lon="2.33908">
        <ele>113.5</ele>
        <time>2015-04-06T18:43:34.847Z</time>
      </trkpt>
      <trkpt lat="48.84395" lon="2.33912">
        <ele>113.7</ele>
        <time>2015-04-06T18:43:35.958Z</time>
      </trkpt>
      <trkpt lat="48.844" lon="2.33916">
        <ele>113.8</ele>
        <time>2015-04-06T18:43:36.871Z</time>
      </trkpt>
      <trkpt lat="48.84407" lon="2.33918">
        <ele>113.5</ele>
        <time>2015-04-06T18:43:37.897Z</time>
      </trkpt>
      <trkpt lat="48.84414" lon="2.3392">
        <ele>113.4</ele>
        <time>2015-04-06T18:43:38.896Z</time>
      </trkpt>
      <trkpt lat="48.8442" lon="2.33922">
        <ele>113.3</ele>
        <time>2015-04-06T18:43:39.940Z</time>
      </trkpt>
      <trkpt lat="48.84428" lon="2.33925">
        <ele>113.9</ele>
        <time>2015-04-06T18:43:40.858Z</time>
      </trkpt>
      <trkpt lat="48.84433" lon="2.33928">
        <ele>114.1</ele>
        <time>2015-04-06T18:43:41.845Z</time>
      </trkpt>
      <trkpt lat="48.84438" lon="2.3393">
        <ele>114.4</ele>
        <time>2015-04-06T18:43:42.846Z</time>
      </trkpt>
      <trkpt lat="48.84442" lon="2.33933">
        <ele>114.5</ele>
        <time>2015-04-06T18:43:43.874Z</time>
      </trkpt>
      <trkpt lat="48.84446" lon="2.33935">
        <ele>114.4</ele>
        <time>2015-04-06T18:43:44.881Z</time>
      </trkpt>
      <trkpt lat="48.84451" lon="2.33938">
        <ele>114.3</ele>
        <time>2015-04-06T18:43:45.897Z</time>
      </trkpt>
      <trkpt lat="48.84454" lon="2.33942">
        <ele>114.3</ele>
        <time>2015-04-06T18:43:46.903Z</time>
      </trkpt>
      <trkpt lat="48.8446" lon="2.33944">
        <ele>114.6</ele>
        <time>2015-04-06T18:43:47.919Z</time>
      </trkpt>
      <trkpt lat="48.84468" lon="2.33947">
        <ele>114.9</ele>
        <time>2015-04-06T18:43:48.933Z</time>
      </trkpt>
      <trkpt lat="48.84475" lon="2.33951">
        <ele>115.6</ele>
        <time>2015-04-06T18:43:49.949Z</time>
      </trkpt>
      <trkpt lat="48.84481" lon="2.33955">
        <ele>116.2</ele>
        <time>2015-04-06T18:43:50.847Z</time>
      </trkpt>
      <trkpt lat="48.84488" lon="2.33959">
        <ele>116.6</ele>
        <time>2015-04-06T18:43:51.848Z</time>
      </trkpt>
      <trkpt lat="48.84495" lon="2.33961">
        <ele>117.1</ele>
        <time>2015-04-06T18:43:52.852Z</time>
      </trkpt>
      <trkpt lat="48.845" lon="2.33964">
        <ele>117.3</ele>
        <time>2015-04-06T18:43:53.865Z</time>
      </trkpt>
      <trkpt lat="48.84506" lon="2.33967">
        <ele>117.2</ele>
        <time>2015-04-06T18:43:54.876Z</time>
      </trkpt>
      <trkpt lat="48.84511" lon="2.33971">
        <ele>117.4</ele>
        <time>2015-04-06T18:43:55.894Z</time>
      </trkpt>
      <trkpt lat="48.84516" lon="2.33975">
        <ele>117.8</ele>
        <time>2015-04-06T18:43:56.963Z</time>
      </trkpt>
      <trkpt lat="48.8452" lon="2.33977">
        <ele>117.8</ele>
        <time>2015-04-06T18:43:57.832Z</time>
      </trkpt>
      <trkpt lat="48.84524" lon="2.3398">
        <ele>117.8</ele>
        <time>2015-04-06T18:43:58.847Z</time>
      </trkpt>
      <trkpt lat="48.8453" lon="2.33988">
        <ele>117.8</ele>
        <time>2015-04-06T18:44:00.867Z</time>
      </trkpt>
      <trkpt lat="48.84535" lon="2.33993">
        <ele>118.1</ele>
        <time>2015-04-06T18:44:01.938Z</time>
      </trkpt>
      <trkpt lat="48.8454" lon="2.33997">
        <ele>117.9</ele>
        <time>2015-04-06T18:44:02.849Z</time>
      </trkpt>
      <trkpt lat="48.84546" lon="2.34002">
        <ele>118.3</ele>
        <time>2015-04-06T18:44:03.839Z</time>
      </trkpt>
      <trkpt lat="48.84551" lon="2.34006">
        <ele>118.3</ele>
        <time>2015-04-06T18:44:04.869Z</time>
      </trkpt>
      <trkpt lat="48.84557" lon="2.34009">
        <ele>118.4</ele>
        <time>2015-04-06T18:44:05.878Z</time>
      </trkpt>
      <trkpt lat="48.84562" lon="2.34011">
        <ele>118.6</ele>
        <time>2015-04-06T18:44:06.893Z</time>
      </trkpt>
      <trkpt lat="48.84567" lon="2.34013">
        <ele>118.6</ele>
        <time>2015-04-06T18:44:07.909Z</time>
      </trkpt>
      <trkpt lat="48.84573" lon="2.34014">
        <ele>118.4</ele>
        <time>2015-04-06T18:44:08.926Z</time>
      </trkpt>
      <trkpt lat="48.84579" lon="2.34017">
        <ele>118.4</ele>
        <time>2015-04-06T18:44:09.845Z</time>
      </trkpt>
      <trkpt lat="48.84586" lon="2.34018">
        <ele>118</ele>
        <time>2015-04-06T18:44:10.844Z</time>
      </trkpt>
      <trkpt lat="48.84591" lon="2.3402">
        <ele>117.9</ele>
        <time>2015-04-06T18:44:11.850Z</time>
      </trkpt>
      <trkpt lat="48.84596" lon="2.34022">
        <ele>117.8</ele>
        <time>2015-04-06T18:44:12.890Z</time>
      </trkpt>
      <trkpt lat="48.84607" lon="2.34027">
        <ele>117.4</ele>
        <time>2015-04-06T18:44:13.916Z</time>
      </trkpt>
      <trkpt lat="48.84618" lon="2.34031">
        <ele>117.1</ele>
        <time>2015-04-06T18:44:14.851Z</time>
      </trkpt>
      <trkpt lat="48.84624" lon="2.34034">
        <ele>117.5</ele>
        <time>2015-04-06T18:44:15.869Z</time>
      </trkpt>
      <trkpt lat="48.84629" lon="2.34036">
        <ele>117.7</ele>
        <time>2015-04-06T18:44:16.883Z</time>
      </trkpt>
      <trkpt lat="48.84634" lon="2.34039">
        <ele>118.3</ele>
        <time>2015-04-06T18:44:17.899Z</time>
      </trkpt>
      <trkpt lat="48.84639" lon="2.34042">
        <ele>118.5</ele>
        <time>2015-04-06T18:44:18.925Z</time>
      </trkpt>
      <trkpt lat="48.84644" lon="2.34045">
        <ele>118.6</ele>
        <time>2015-04-06T18:44:19.937Z</time>
      </trkpt>
      <trkpt lat="48.84649" lon="2.34048">
        <ele>119.1</ele>
        <time>2015-04-06T18:44:20.835Z</time>
      </trkpt>
      <trkpt lat="48.84654" lon="2.34049">
        <ele>119.1</ele>
        <time>2015-04-06T18:44:21.845Z</time>
      </trkpt>
      <trkpt lat="48.84659" lon="2.34051">
        <ele>119.1</ele>
        <time>2015-04-06T18:44:22.858Z</time>
      </trkpt>
      <trkpt lat="48.84664" lon="2.34053">
        <ele>119</ele>
        <time>2015-04-06T18:44:23.879Z</time>
      </trkpt>
      <trkpt lat="48.8467" lon="2.34057">
        <ele>119</ele>
        <time>2015-04-06T18:44:24.890Z</time>
      </trkpt>
      <trkpt lat="48.84679" lon="2.34062">
        <ele>119.2</ele>
        <time>2015-04-06T18:44:25.895Z</time>
      </trkpt>
      <trkpt lat="48.8469" lon="2.34069">
        <ele>119.2</ele>
        <time>2015-04-06T18:44:26.914Z</time>
      </trkpt>
      <trkpt lat="48.84702" lon="2.34076">
        <ele>119</ele>
        <time>2015-04-06T18:44:27.966Z</time>
      </trkpt>
      <trkpt lat="48.84712" lon="2.34079">
        <ele>119.3</ele>
        <time>2015-04-06T18:44:28.863Z</time>
      </trkpt>
      <trkpt lat="48.84722" lon="2.34084">
        <ele>119.4</ele>
        <time>2015-04-06T18:44:29.874Z</time>
      </trkpt>
      <trkpt lat="48.8473" lon="2.34087">
        <ele>119.5</ele>
        <time>2015-04-06T18:44:30.879Z</time>
      </trkpt>
      <trkpt lat="48.84737" lon="2.3409">
        <ele>120.4</ele>
        <time>2015-04-06T18:44:31.911Z</time>
      </trkpt>
      <trkpt lat="48.84744" lon="2.34095">
        <ele>120.7</ele>
        <time>2015-04-06T18:44:33.851Z</time>
      </trkpt>
      <trkpt lat="48.84745" lon="2.34098">
        <ele>119.8</ele>
        <time>2015-04-06T18:44:34.843Z</time>
      </trkpt>
      <trkpt lat="48.84744" lon="2.34104">
        <ele>118.8</ele>
        <time>2015-04-06T18:44:36.857Z</time>
      </trkpt>
      <trkpt lat="48.84741" lon="2.34104">
        <ele>118.8</ele>
        <time>2015-04-06T18:44:37.918Z</time>
      </trkpt>
      <trkpt lat="48.84741" lon="2.34102">
        <ele>118.5</ele>
        <time>2015-04-06T18:44:56.870Z</time>
      </trkpt>
      <trkpt lat="48.84726" lon="2.34106">
        <ele>118.4</ele>
        <time>2015-04-06T18:44:57.898Z</time>
      </trkpt>
      <trkpt lat="48.84732" lon="2.34114">
        <ele>117.8</ele>
        <time>2015-04-06T18:45:02.915Z</time>
      </trkpt>
      <trkpt lat="48.84737" lon="2.34117">
        <ele>117.7</ele>
        <time>2015-04-06T18:45:03.923Z</time>
      </trkpt>
      <trkpt lat="48.84742" lon="2.34119">
        <ele>117.7</ele>
        <time>2015-04-06T18:45:04.929Z</time>
      </trkpt>
      <trkpt lat="48.84746" lon="2.34122">
        <ele>117.7</ele>
        <time>2015-04-06T18:45:05.838Z</time>
      </trkpt>
      <trkpt lat="48.84752" lon="2.34124">
        <ele>117.6</ele>
        <time>2015-04-06T18:45:06.848Z</time>
      </trkpt>
      <trkpt lat="48.84757" lon="2.34129">
        <ele>117.5</ele>
        <time>2015-04-06T18:45:07.894Z</time>
      </trkpt>
      <trkpt lat="48.84764" lon="2.34132">
        <ele>117.5</ele>
        <time>2015-04-06T18:45:08.879Z</time>
      </trkpt>
      <trkpt lat="48.8477" lon="2.34135">
        <ele>117.2</ele>
        <time>2015-04-06T18:45:09.886Z</time>
      </trkpt>
      <trkpt lat="48.84775" lon="2.34139">
        <ele>117</ele>
        <time>2015-04-06T18:45:10.894Z</time>
      </trkpt>
      <trkpt lat="48.84779" lon="2.34142">
        <ele>116.7</ele>
        <time>2015-04-06T18:45:11.904Z</time>
      </trkpt>
      <trkpt lat="48.84782" lon="2.34146">
        <ele>116.5</ele>
        <time>2015-04-06T18:45:12.917Z</time>
      </trkpt>
      <trkpt lat="48.84788" lon="2.34149">
        <ele>116.1</ele>
        <time>2015-04-06T18:45:13.925Z</time>
      </trkpt>
      <trkpt lat="48.84794" lon="2.34151">
        <ele>116</ele>
        <time>2015-04-06T18:45:14.839Z</time>
      </trkpt>
      <trkpt lat="48.848" lon="2.34155">
        <ele>116</ele>
        <time>2015-04-06T18:45:15.832Z</time>
      </trkpt>
      <trkpt lat="48.84805" lon="2.34158">
        <ele>115.8</ele>
        <time>2015-04-06T18:45:16.849Z</time>
      </trkpt>
      <trkpt lat="48.84815" lon="2.34164">
        <ele>114.8</ele>
        <time>2015-04-06T18:45:17.856Z</time>
      </trkpt>
      <trkpt lat="48.84825" lon="2.34169">
        <ele>114.2</ele>
        <time>2015-04-06T18:45:18.890Z</time>
      </trkpt>
      <trkpt lat="48.84829" lon="2.34172">
        <ele>114.1</ele>
        <time>2015-04-06T18:45:19.909Z</time>
      </trkpt>
      <trkpt lat="48.84835" lon="2.34176">
        <ele>113.7</ele>
        <time>2015-04-06T18:45:20.927Z</time>
      </trkpt>
      <trkpt lat="48.84839" lon="2.34178">
        <ele>113.4</ele>
        <time>2015-04-06T18:45:21.844Z</time>
      </trkpt>
      <trkpt lat="48.84844" lon="2.34181">
        <ele>113.4</ele>
        <time>2015-04-06T18:45:22.855Z</time>
      </trkpt>
      <trkpt lat="48.84849" lon="2.34184">
        <ele>113.1</ele>
        <time>2015-04-06T18:45:23.901Z</time>
      </trkpt>
      <trkpt lat="48.84854" lon="2.34188">
        <ele>112.9</ele>
        <time>2015-04-06T18:45:24.912Z</time>
      </trkpt>
      <trkpt lat="48.8486" lon="2.34193">
        <ele>112.4</ele>
        <time>2015-04-06T18:45:25.918Z</time>
      </trkpt>
      <trkpt lat="48.84868" lon="2.34199">
        <ele>111.9</ele>
        <time>2015-04-06T18:45:26.930Z</time>
      </trkpt>
      <trkpt lat="48.84876" lon="2.34205">
        <ele>111.5</ele>
        <time>2015-04-06T18:45:27.832Z</time>
      </trkpt>
      <trkpt lat="48.84884" lon="2.34212">
        <ele>110.8</ele>
        <time>2015-04-06T18:45:28.852Z</time>
      </trkpt>
      <trkpt lat="48.84893" lon="2.34219">
        <ele>110</ele>
        <time>2015-04-06T18:45:29.877Z</time>
      </trkpt>
      <trkpt lat="48.84899" lon="2.34225">
        <ele>109.2</ele>
        <time>2015-04-06T18:45:30.910Z</time>
      </trkpt>
      <trkpt lat="48.84903" lon="2.34231">
        <ele>108.3</ele>
        <time>2015-04-06T18:45:31.973Z</time>
      </trkpt>
      <trkpt lat="48.84908" lon="2.3424">
        <ele>107.1</ele>
        <time>2015-04-06T18:45:33.829Z</time>
      </trkpt>
      <trkpt lat="48.84911" lon="2.34245">
        <ele>106.5</ele>
        <time>2015-04-06T18:45:34.855Z</time>
      </trkpt>
      <trkpt lat="48.84918" lon="2.34254">
        <ele>105.7</ele>
        <time>2015-04-06T18:45:36.927Z</time>
      </trkpt>
      <trkpt lat="48.84921" lon="2.34257">
        <ele>104.6</ele>
        <time>2015-04-06T18:45:37.940Z</time>
      </trkpt>
      <trkpt lat="48.84926" lon="2.3426">
        <ele>103.8</ele>
        <time>2015-04-06T18:45:38.844Z</time>
      </trkpt>
      <trkpt lat="48.84931" lon="2.34262">
        <ele>102.9</ele>
        <time>2015-04-06T18:45:39.853Z</time>
      </trkpt>
      <trkpt lat="48.84938" lon="2.34264">
        <ele>102.1</ele>
        <time>2015-04-06T18:45:40.876Z</time>
      </trkpt>
      <trkpt lat="48.84945" lon="2.34266">
        <ele>101.2</ele>
        <time>2015-04-06T18:45:41.903Z</time>
      </trkpt>
      <trkpt lat="48.84958" lon="2.34272">
        <ele>99.7</ele>
        <time>2015-04-06T18:45:42.850Z</time>
      </trkpt>
      <trkpt lat="48.84968" lon="2.34273">
        <ele>98.7</ele>
        <time>2015-04-06T18:45:43.956Z</time>
      </trkpt>
      <trkpt lat="48.84974" lon="2.34273">
        <ele>98.1</ele>
        <time>2015-04-06T18:45:44.841Z</time>
      </trkpt>
      <trkpt lat="48.8498" lon="2.34273">
        <ele>97.6</ele>
        <time>2015-04-06T18:45:45.852Z</time>
      </trkpt>
      <trkpt lat="48.84989" lon="2.34273">
        <ele>97.1</ele>
        <time>2015-04-06T18:45:47.878Z</time>
      </trkpt>
      <trkpt lat="48.84994" lon="2.34273">
        <ele>96.7</ele>
        <time>2015-04-06T18:45:48.900Z</time>
      </trkpt>
      <trkpt lat="48.84999" lon="2.34275">
        <ele>96.4</ele>
        <time>2015-04-06T18:45:49.860Z</time>
      </trkpt>
      <trkpt lat="48.85007" lon="2.34277">
        <ele>95.9</ele>
        <time>2015-04-06T18:45:50.856Z</time>
      </trkpt>
      <trkpt lat="48.85018" lon="2.34282">
        <ele>95.2</ele>
        <time>2015-04-06T18:45:51.862Z</time>
      </trkpt>
      <trkpt lat="48.85027" lon="2.34288">
        <ele>94.8</ele>
        <time>2015-04-06T18:45:52.909Z</time>
      </trkpt>
      <trkpt lat="48.85039" lon="2.34291">
        <ele>95.6</ele>
        <time>2015-04-06T18:45:53.914Z</time>
      </trkpt>
      <trkpt lat="48.85048" lon="2.34293">
        <ele>96.2</ele>
        <time>2015-04-06T18:45:54.832Z</time>
      </trkpt>
      <trkpt lat="48.85056" lon="2.34296">
        <ele>96.2</ele>
        <time>2015-04-06T18:45:55.873Z</time>
      </trkpt>
      <trkpt lat="48.85062" lon="2.34298">
        <ele>96.9</ele>
        <time>2015-04-06T18:45:56.870Z</time>
      </trkpt>
      <trkpt lat="48.85069" lon="2.343">
        <ele>97.2</ele>
        <time>2015-04-06T18:45:57.911Z</time>
      </trkpt>
      <trkpt lat="48.85075" lon="2.34303">
        <ele>97.7</ele>
        <time>2015-04-06T18:45:58.917Z</time>
      </trkpt>
      <trkpt lat="48.85081" lon="2.34306">
        <ele>98.8</ele>
        <time>2015-04-06T18:45:59.963Z</time>
      </trkpt>
      <trkpt lat="48.85087" lon="2.34309">
        <ele>99</ele>
        <time>2015-04-06T18:46:00.904Z</time>
      </trkpt>
      <trkpt lat="48.85094" lon="2.3431">
        <ele>99.1</ele>
        <time>2015-04-06T18:46:01.911Z</time>
      </trkpt>
      <trkpt lat="48.85101" lon="2.3431">
        <ele>99.3</ele>
        <time>2015-04-06T18:46:02.921Z</time>
      </trkpt>
      <trkpt lat="48.85107" lon="2.34311">
        <ele>99.9</ele>
        <time>2015-04-06T18:46:03.840Z</time>
      </trkpt>
      <trkpt lat="48.85112" lon="2.34313">
        <ele>100.4</ele>
        <time>2015-04-06T18:46:04.857Z</time>
      </trkpt>
      <trkpt lat="48.8512" lon="2.34315">
        <ele>100.7</ele>
        <time>2015-04-06T18:46:06.876Z</time>
      </trkpt>
      <trkpt lat="48.85126" lon="2.34317">
        <ele>100.7</ele>
        <time>2015-04-06T18:46:07.890Z</time>
      </trkpt>
      <trkpt lat="48.85134" lon="2.34322">
        <ele>100.7</ele>
        <time>2015-04-06T18:46:09.918Z</time>
      </trkpt>
      <trkpt lat="48.85137" lon="2.34324">
        <ele>100.9</ele>
        <time>2015-04-06T18:46:10.966Z</time>
      </trkpt>
      <trkpt lat="48.85145" lon="2.34326">
        <ele>101.6</ele>
        <time>2015-04-06T18:46:14.903Z</time>
      </trkpt>
      <trkpt lat="48.85147" lon="2.34326">
        <ele>101.7</ele>
        <time>2015-04-06T18:46:15.917Z</time>
      </trkpt>
      <trkpt lat="48.85153" lon="2.34329">
        <ele>102</ele>
        <time>2015-04-06T18:46:17.835Z</time>
      </trkpt>
      <trkpt lat="48.85156" lon="2.34332">
        <ele>101.9</ele>
        <time>2015-04-06T18:46:18.861Z</time>
      </trkpt>
      <trkpt lat="48.85163" lon="2.34336">
        <ele>102.5</ele>
        <time>2015-04-06T18:46:20.829Z</time>
      </trkpt>
      <trkpt lat="48.85166" lon="2.34339">
        <ele>102.9</ele>
        <time>2015-04-06T18:46:21.827Z</time>
      </trkpt>
      <trkpt lat="48.85172" lon="2.34344">
        <ele>102.7</ele>
        <time>2015-04-06T18:46:23.858Z</time>
      </trkpt>
      <trkpt lat="48.85176" lon="2.34346">
        <ele>102.7</ele>
        <time>2015-04-06T18:46:24.880Z</time>
      </trkpt>
      <trkpt lat="48.8518" lon="2.34349">
        <ele>102.8</ele>
        <time>2015-04-06T18:46:25.918Z</time>
      </trkpt>
      <trkpt lat="48.85184" lon="2.34352">
        <ele>102.9</ele>
        <time>2015-04-06T18:46:26.907Z</time>
      </trkpt>
      <trkpt lat="48.85189" lon="2.34355">
        <ele>103.5</ele>
        <time>2015-04-06T18:46:27.830Z</time>
      </trkpt>
      <trkpt lat="48.85194" lon="2.34356">
        <ele>103.4</ele>
        <time>2015-04-06T18:46:28.831Z</time>
      </trkpt>
      <trkpt lat="48.852" lon="2.34358">
        <ele>103.8</ele>
        <time>2015-04-06T18:46:29.843Z</time>
      </trkpt>
      <trkpt lat="48.85207" lon="2.3436">
        <ele>103.9</ele>
        <time>2015-04-06T18:46:30.955Z</time>
      </trkpt>
      <trkpt lat="48.85213" lon="2.34362">
        <ele>104.3</ele>
        <time>2015-04-06T18:46:31.886Z</time>
      </trkpt>
      <trkpt lat="48.8522" lon="2.34365">
        <ele>104.8</ele>
        <time>2015-04-06T18:46:32.881Z</time>
      </trkpt>
      <trkpt lat="48.85226" lon="2.34367">
        <ele>105.3</ele>
        <time>2015-04-06T18:46:33.894Z</time>
      </trkpt>
      <trkpt lat="48.85234" lon="2.34368">
        <ele>105.5</ele>
        <time>2015-04-06T18:46:34.895Z</time>
      </trkpt>
      <trkpt lat="48.8524" lon="2.34371">
        <ele>106.3</ele>
        <time>2015-04-06T18:46:35.907Z</time>
      </trkpt>
      <trkpt lat="48.85246" lon="2.34373">
        <ele>106.7</ele>
        <time>2015-04-06T18:46:36.955Z</time>
      </trkpt>
      <trkpt lat="48.85253" lon="2.34374">
        <ele>106.9</ele>
        <time>2015-04-06T18:46:37.960Z</time>
      </trkpt>
      <trkpt lat="48.85258" lon="2.34377">
        <ele>107.3</ele>
        <time>2015-04-06T18:46:38.864Z</time>
      </trkpt>
      <trkpt lat="48.85264" lon="2.3438">
        <ele>107.8</ele>
        <time>2015-04-06T18:46:39.861Z</time>
      </trkpt>
      <trkpt lat="48.8527" lon="2.34383">
        <ele>107.9</ele>
        <time>2015-04-06T18:46:40.876Z</time>
      </trkpt>
      <trkpt lat="48.85275" lon="2.34386">
        <ele>108</ele>
        <time>2015-04-06T18:46:41.877Z</time>
      </trkpt>
      <trkpt lat="48.8528" lon="2.34388">
        <ele>107.9</ele>
        <time>2015-04-06T18:46:42.886Z</time>
      </trkpt>
      <trkpt lat="48.85285" lon="2.34391">
        <ele>107.6</ele>
        <time>2015-04-06T18:46:43.905Z</time>
      </trkpt>
      <trkpt lat="48.85289" lon="2.34394">
        <ele>107.1</ele>
        <time>2015-04-06T18:46:44.932Z</time>
      </trkpt>
      <trkpt lat="48.85295" lon="2.344">
        <ele>105.9</ele>
        <time>2015-04-06T18:46:46.863Z</time>
      </trkpt>
      <trkpt lat="48.85302" lon="2.34405">
        <ele>104.5</ele>
        <time>2015-04-06T18:46:47.879Z</time>
      </trkpt>
      <trkpt lat="48.8531" lon="2.34412">
        <ele>103</ele>
        <time>2015-04-06T18:46:48.933Z</time>
      </trkpt>
      <trkpt lat="48.85317" lon="2.34418">
        <ele>101.7</ele>
        <time>2015-04-06T18:46:49.945Z</time>
      </trkpt>
      <trkpt lat="48.85324" lon="2.34423">
        <ele>100.4</ele>
        <time>2015-04-06T18:46:50.873Z</time>
      </trkpt>
      <trkpt lat="48.8533" lon="2.34429">
        <ele>99.8</ele>
        <time>2015-04-06T18:46:51.885Z</time>
      </trkpt>
      <trkpt lat="48.85335" lon="2.34434">
        <ele>99.6</ele>
        <time>2015-04-06T18:46:52.895Z</time>
      </trkpt>
      <trkpt lat="48.85342" lon="2.34438">
        <ele>99.1</ele>
        <time>2015-04-06T18:46:53.901Z</time>
      </trkpt>
      <trkpt lat="48.85346" lon="2.34443">
        <ele>98.8</ele>
        <time>2015-04-06T18:46:54.909Z</time>
      </trkpt>
      <trkpt lat="48.8535" lon="2.34446">
        <ele>98.5</ele>
        <time>2015-04-06T18:46:56.350Z</time>
      </trkpt>
      <trkpt lat="48.85356" lon="2.34447">
        <ele>97.7</ele>
        <time>2015-04-06T18:46:56.931Z</time>
      </trkpt>
      <trkpt lat="48.85361" lon="2.34449">
        <ele>97.6</ele>
        <time>2015-04-06T18:46:57.841Z</time>
      </trkpt>
      <trkpt lat="48.85365" lon="2.3445">
        <ele>97.6</ele>
        <time>2015-04-06T18:46:58.865Z</time>
      </trkpt>
      <trkpt lat="48.85372" lon="2.34455">
        <ele>98</ele>
        <time>2015-04-06T18:47:01.910Z</time>
      </trkpt>
      <trkpt lat="48.85374" lon="2.34457">
        <ele>97.9</ele>
        <time>2015-04-06T18:47:02.810Z</time>
      </trkpt>
      <trkpt lat="48.8538" lon="2.34459">
        <ele>96.9</ele>
        <time>2015-04-06T18:47:06.575Z</time>
      </trkpt>
      <trkpt lat="48.85383" lon="2.3446">
        <ele>97.2</ele>
        <time>2015-04-06T18:47:06.861Z</time>
      </trkpt>
      <trkpt lat="48.85384" lon="2.34461">
        <ele>97.3</ele>
        <time>2015-04-06T18:47:07.886Z</time>
      </trkpt>
      <trkpt lat="48.85384" lon="2.34461">
        <ele>96.8</ele>
        <time>2015-04-06T18:47:08.886Z</time>
      </trkpt>
      <trkpt lat="48.85384" lon="2.34461">
        <ele>96.1</ele>
        <time>2015-04-06T18:47:23.892Z</time>
      </trkpt>
      <trkpt lat="48.85375" lon="2.34459">
        <ele>90.8</ele>
        <time>2015-04-06T18:47:24.899Z</time>
      </trkpt>
      <trkpt lat="48.85383" lon="2.34459">
        <ele>90.2</ele>
        <time>2015-04-06T18:47:27.084Z</time>
      </trkpt>
      <trkpt lat="48.85386" lon="2.3446">
        <ele>90.4</ele>
        <time>2015-04-06T18:47:27.923Z</time>
      </trkpt>
      <trkpt lat="48.85393" lon="2.34462">
        <ele>90.1</ele>
        <time>2015-04-06T18:47:29.853Z</time>
      </trkpt>
      <trkpt lat="48.85396" lon="2.34463">
        <ele>90.3</ele>
        <time>2015-04-06T18:47:30.861Z</time>
      </trkpt>
      <trkpt lat="48.85403" lon="2.34468">
        <ele>90.2</ele>
        <time>2015-04-06T18:47:33.875Z</time>
      </trkpt>
      <trkpt lat="48.85406" lon="2.3447">
        <ele>90.2</ele>
        <time>2015-04-06T18:47:34.868Z</time>
      </trkpt>
      <trkpt lat="48.8541" lon="2.34479">
        <ele>89.8</ele>
        <time>2015-04-06T18:47:37.939Z</time>
      </trkpt>
      <trkpt lat="48.85412" lon="2.34482">
        <ele>89.5</ele>
        <time>2015-04-06T18:47:38.850Z</time>
      </trkpt>
      <trkpt lat="48.85417" lon="2.34487">
        <ele>89.6</ele>
        <time>2015-04-06T18:47:40.864Z</time>
      </trkpt>
      <trkpt lat="48.8542" lon="2.3449">
        <ele>90</ele>
        <time>2015-04-06T18:47:41.867Z</time>
      </trkpt>
      <trkpt lat="48.85428" lon="2.34494">
        <ele>91.1</ele>
        <time>2015-04-06T18:47:43.894Z</time>
      </trkpt>
      <trkpt lat="48.85432" lon="2.34496">
        <ele>91.2</ele>
        <time>2015-04-06T18:47:44.903Z</time>
      </trkpt>
      <trkpt lat="48.85437" lon="2.34501">
        <ele>91.3</ele>
        <time>2015-04-06T18:47:46.860Z</time>
      </trkpt>
      <trkpt lat="48.85441" lon="2.34505">
        <ele>90.5</ele>
        <time>2015-04-06T18:47:47.863Z</time>
      </trkpt>
      <trkpt lat="48.85448" lon="2.34514">
        <ele>89.4</ele>
        <time>2015-04-06T18:47:51.023Z</time>
      </trkpt>
      <trkpt lat="48.8545" lon="2.34516">
        <ele>89.4</ele>
        <time>2015-04-06T18:47:51.929Z</time>
      </trkpt>
      <trkpt lat="48.85457" lon="2.34524">
        <ele>88.8</ele>
        <time>2015-04-06T18:47:54.894Z</time>
      </trkpt>
      <trkpt lat="48.85459" lon="2.34527">
        <ele>88.8</ele>
        <time>2015-04-06T18:47:55.912Z</time>
      </trkpt>
      <trkpt lat="48.85465" lon="2.34533">
        <ele>88.8</ele>
        <time>2015-04-06T18:47:57.853Z</time>
      </trkpt>
      <trkpt lat="48.85468" lon="2.34536">
        <ele>88.7</ele>
        <time>2015-04-06T18:47:58.874Z</time>
      </trkpt>
      <trkpt lat="48.85473" lon="2.34542">
        <ele>89.2</ele>
        <time>2015-04-06T18:48:01.155Z</time>
      </trkpt>
      <trkpt lat="48.85476" lon="2.34545">
        <ele>89.3</ele>
        <time>2015-04-06T18:48:01.925Z</time>
      </trkpt>
      <trkpt lat="48.85483" lon="2.34551">
        <ele>89.3</ele>
        <time>2015-04-06T18:48:03.916Z</time>
      </trkpt>
      <trkpt lat="48.85488" lon="2.34555">
        <ele>88.9</ele>
        <time>2015-04-06T18:48:04.928Z</time>
      </trkpt>
      <trkpt lat="48.85493" lon="2.34561">
        <ele>88.6</ele>
        <time>2015-04-06T18:48:06.213Z</time>
      </trkpt>
      <trkpt lat="48.85498" lon="2.34566">
        <ele>88.4</ele>
        <time>2015-04-06T18:48:06.826Z</time>
      </trkpt>
      <trkpt lat="48.85503" lon="2.34573">
        <ele>87.8</ele>
        <time>2015-04-06T18:48:07.891Z</time>
      </trkpt>
      <trkpt lat="48.85508" lon="2.34579">
        <ele>87.1</ele>
        <time>2015-04-06T18:48:08.890Z</time>
      </trkpt>
      <trkpt lat="48.85512" lon="2.34583">
        <ele>86.8</ele>
        <time>2015-04-06T18:48:09.905Z</time>
      </trkpt>
      <trkpt lat="48.85517" lon="2.34586">
        <ele>86.9</ele>
        <time>2015-04-06T18:48:10.920Z</time>
      </trkpt>
      <trkpt lat="48.85522" lon="2.34594">
        <ele>86.7</ele>
        <time>2015-04-06T18:48:12.924Z</time>
      </trkpt>
      <trkpt lat="48.85526" lon="2.34599">
        <ele>86.7</ele>
        <time>2015-04-06T18:48:13.936Z</time>
      </trkpt>
      <trkpt lat="48.8553" lon="2.34603">
        <ele>86.7</ele>
        <time>2015-04-06T18:48:14.852Z</time>
      </trkpt>
      <trkpt lat="48.85534" lon="2.34605">
        <ele>86.8</ele>
        <time>2015-04-06T18:48:15.860Z</time>
      </trkpt>
      <trkpt lat="48.85541" lon="2.34611">
        <ele>87.2</ele>
        <time>2015-04-06T18:48:17.878Z</time>
      </trkpt>
      <trkpt lat="48.85543" lon="2.34614">
        <ele>87.4</ele>
        <time>2015-04-06T18:48:18.886Z</time>
      </trkpt>
      <trkpt lat="48.8555" lon="2.34621">
        <ele>87.9</ele>
        <time>2015-04-06T18:48:21.475Z</time>
      </trkpt>
      <trkpt lat="48.85552" lon="2.34624">
        <ele>87.8</ele>
        <time>2015-04-06T18:48:21.829Z</time>
      </trkpt>
      <trkpt lat="48.85557" lon="2.34632">
        <ele>87.9</ele>
        <time>2015-04-06T18:48:23.870Z</time>
      </trkpt>
      <trkpt lat="48.85562" lon="2.34637">
        <ele>87.6</ele>
        <time>2015-04-06T18:48:24.888Z</time>
      </trkpt>
      <trkpt lat="48.85568" lon="2.34642">
        <ele>87</ele>
        <time>2015-04-06T18:48:26.584Z</time>
      </trkpt>
      <trkpt lat="48.85572" lon="2.34646">
        <ele>86.7</ele>
        <time>2015-04-06T18:48:26.817Z</time>
      </trkpt>
      <trkpt lat="48.85576" lon="2.3465">
        <ele>86.4</ele>
        <time>2015-04-06T18:48:27.849Z</time>
      </trkpt>
      <trkpt lat="48.85581" lon="2.34653">
        <ele>85.9</ele>
        <time>2015-04-06T18:48:28.930Z</time>
      </trkpt>
      <trkpt lat="48.85587" lon="2.34656">
        <ele>85</ele>
        <time>2015-04-06T18:48:29.862Z</time>
      </trkpt>
      <trkpt lat="48.85593" lon="2.34659">
        <ele>84.2</ele>
        <time>2015-04-06T18:48:30.868Z</time>
      </trkpt>
      <trkpt lat="48.85597" lon="2.34662">
        <ele>83.6</ele>
        <time>2015-04-06T18:48:31.921Z</time>
      </trkpt>
      <trkpt lat="48.85602" lon="2.34662">
        <ele>82.9</ele>
        <time>2015-04-06T18:48:32.928Z</time>
      </trkpt>
      <trkpt lat="48.85609" lon="2.34664">
        <ele>82</ele>
        <time>2015-04-06T18:48:34.864Z</time>
      </trkpt>
      <trkpt lat="48.85612" lon="2.34664">
        <ele>81.4</ele>
        <time>2015-04-06T18:48:35.877Z</time>
      </trkpt>
      <trkpt lat="48.85619" lon="2.3467">
        <ele>80.3</ele>
        <time>2015-04-06T18:48:38.923Z</time>
      </trkpt>
      <trkpt lat="48.85622" lon="2.34671">
        <ele>79.9</ele>
        <time>2015-04-06T18:48:39.874Z</time>
      </trkpt>
      <trkpt lat="48.85629" lon="2.34673">
        <ele>79.5</ele>
        <time>2015-04-06T18:48:41.888Z</time>
      </trkpt>
      <trkpt lat="48.85632" lon="2.34674">
        <ele>79.3</ele>
        <time>2015-04-06T18:48:42.902Z</time>
      </trkpt>
      <trkpt lat="48.85639" lon="2.34678">
        <ele>78.9</ele>
        <time>2015-04-06T18:48:44.839Z</time>
      </trkpt>
      <trkpt lat="48.85641" lon="2.3468">
        <ele>78.8</ele>
        <time>2015-04-06T18:48:45.843Z</time>
      </trkpt>
      <trkpt lat="48.85648" lon="2.34685">
        <ele>79.1</ele>
        <time>2015-04-06T18:48:47.919Z</time>
      </trkpt>
      <trkpt lat="48.85651" lon="2.34688">
        <ele>79.2</ele>
        <time>2015-04-06T18:48:48.911Z</time>
      </trkpt>
      <trkpt lat="48.85657" lon="2.34692">
        <ele>79.6</ele>
        <time>2015-04-06T18:48:51.142Z</time>
      </trkpt>
      <trkpt lat="48.8566" lon="2.34693">
        <ele>79.7</ele>
        <time>2015-04-06T18:48:51.863Z</time>
      </trkpt>
      <trkpt lat="48.85666" lon="2.34697">
        <ele>79.6</ele>
        <time>2015-04-06T18:48:53.897Z</time>
      </trkpt>
      <trkpt lat="48.85669" lon="2.34699">
        <ele>79.6</ele>
        <time>2015-04-06T18:48:54.903Z</time>
      </trkpt>
      <trkpt lat="48.85675" lon="2.34703">
        <ele>79.5</ele>
        <time>2015-04-06T18:48:56.836Z</time>
      </trkpt>
      <trkpt lat="48.85678" lon="2.34706">
        <ele>79.5</ele>
        <time>2015-04-06T18:48:57.839Z</time>
      </trkpt>
      <trkpt lat="48.85685" lon="2.34711">
        <ele>80.2</ele>
        <time>2015-04-06T18:48:59.455Z</time>
      </trkpt>
      <trkpt lat="48.85688" lon="2.34714">
        <ele>80.3</ele>
        <time>2015-04-06T18:49:00.879Z</time>
      </trkpt>
      <trkpt lat="48.85693" lon="2.34719">
        <ele>80.2</ele>
        <time>2015-04-06T18:49:02.842Z</time>
      </trkpt>
      <trkpt lat="48.85696" lon="2.34721">
        <ele>80.4</ele>
        <time>2015-04-06T18:49:03.871Z</time>
      </trkpt>
      <trkpt lat="48.85702" lon="2.34726">
        <ele>80.9</ele>
        <time>2015-04-06T18:49:05.915Z</time>
      </trkpt>
      <trkpt lat="48.85706" lon="2.34729">
        <ele>81.1</ele>
        <time>2015-04-06T18:49:06.923Z</time>
      </trkpt>
      <trkpt lat="48.8571" lon="2.34739">
        <ele>82.3</ele>
        <time>2015-04-06T18:49:09.621Z</time>
      </trkpt>
      <trkpt lat="48.85712" lon="2.34741">
        <ele>82.7</ele>
        <time>2015-04-06T18:49:10.840Z</time>
      </trkpt>
      <trkpt lat="48.85713" lon="2.34744">
        <ele>82.7</ele>
        <time>2015-04-06T18:49:12.897Z</time>
      </trkpt>
      <trkpt lat="48.85713" lon="2.34744">
        <ele>82.6</ele>
        <time>2015-04-06T18:49:13.917Z</time>
      </trkpt>
      <trkpt lat="48.85713" lon="2.34743">
        <ele>82.6</ele>
        <time>2015-04-06T18:50:18.892Z</time>
      </trkpt>
      <trkpt lat="48.85719" lon="2.3473">
        <ele>80.4</ele>
        <time>2015-04-06T18:50:19.964Z</time>
      </trkpt>
      <trkpt lat="48.85724" lon="2.34739">
        <ele>81.8</ele>
        <time>2015-04-06T18:50:22.864Z</time>
      </trkpt>
      <trkpt lat="48.85725" lon="2.34743">
        <ele>82.6</ele>
        <time>2015-04-06T18:50:23.870Z</time>
      </trkpt>
      <trkpt lat="48.8573" lon="2.34749">
        <ele>83.6</ele>
        <time>2015-04-06T18:50:25.898Z</time>
      </trkpt>
      <trkpt lat="48.85733" lon="2.3475">
        <ele>83.8</ele>
        <time>2015-04-06T18:50:26.916Z</time>
      </trkpt>
      <trkpt lat="48.8574" lon="2.34752">
        <ele>83</ele>
        <time>2015-04-06T18:50:28.947Z</time>
      </trkpt>
      <trkpt lat="48.85745" lon="2.34754">
        <ele>82.2</ele>
        <time>2015-04-06T18:50:29.854Z</time>
      </trkpt>
      <trkpt lat="48.8575" lon="2.34757">
        <ele>81.4</ele>
        <time>2015-04-06T18:50:30.860Z</time>
      </trkpt>
      <trkpt lat="48.85755" lon="2.3476">
        <ele>80.5</ele>
        <time>2015-04-06T18:50:31.896Z</time>
      </trkpt>
      <trkpt lat="48.8576" lon="2.34763">
        <ele>80.3</ele>
        <time>2015-04-06T18:50:32.919Z</time>
      </trkpt>
      <trkpt lat="48.85765" lon="2.34766">
        <ele>80</ele>
        <time>2015-04-06T18:50:33.941Z</time>
      </trkpt>
      <trkpt lat="48.85772" lon="2.34772">
        <ele>80.7</ele>
        <time>2015-04-06T18:50:35.847Z</time>
      </trkpt>
      <trkpt lat="48.85774" lon="2.34776">
        <ele>81.2</ele>
        <time>2015-04-06T18:50:36.870Z</time>
      </trkpt>
      <trkpt lat="48.8578" lon="2.34782">
        <ele>82.2</ele>
        <time>2015-04-06T18:50:38.904Z</time>
      </trkpt>
      <trkpt lat="48.85784" lon="2.34783">
        <ele>82.5</ele>
        <time>2015-04-06T18:50:39.920Z</time>
      </trkpt>
      <trkpt lat="48.8579" lon="2.34789">
        <ele>83.6</ele>
        <time>2015-04-06T18:50:42.871Z</time>
      </trkpt>
      <trkpt lat="48.85793" lon="2.3479">
        <ele>83.4</ele>
        <time>2015-04-06T18:50:43.900Z</time>
      </trkpt>
      <trkpt lat="48.85799" lon="2.34795">
        <ele>83.4</ele>
        <time>2015-04-06T18:50:45.985Z</time>
      </trkpt>
      <trkpt lat="48.85802" lon="2.34798">
        <ele>83.2</ele>
        <time>2015-04-06T18:50:46.856Z</time>
      </trkpt>
      <trkpt lat="48.85809" lon="2.34804">
        <ele>82.8</ele>
        <time>2015-04-06T18:50:48.872Z</time>
      </trkpt>
      <trkpt lat="48.85814" lon="2.34806">
        <ele>82.2</ele>
        <time>2015-04-06T18:50:49.905Z</time>
      </trkpt>
      <trkpt lat="48.85822" lon="2.34811">
        <ele>82.7</ele>
        <time>2015-04-06T18:50:51.902Z</time>
      </trkpt>
      <trkpt lat="48.85826" lon="2.34814">
        <ele>83.1</ele>
        <time>2015-04-06T18:50:52.913Z</time>
      </trkpt>
      <trkpt lat="48.85834" lon="2.34819">
        <ele>83.7</ele>
        <time>2015-04-06T18:50:54.848Z</time>
      </trkpt>
      <trkpt lat="48.85837" lon="2.34822">
        <ele>84</ele>
        <time>2015-04-06T18:50:55.858Z</time>
      </trkpt>
      <trkpt lat="48.85843" lon="2.3483">
        <ele>84.8</ele>
        <time>2015-04-06T18:50:58.939Z</time>
      </trkpt>
      <trkpt lat="48.85846" lon="2.34831">
        <ele>85.1</ele>
        <time>2015-04-06T18:50:59.813Z</time>
      </trkpt>
      <trkpt lat="48.85853" lon="2.34824">
        <ele>87.1</ele>
        <time>2015-04-06T18:51:06.873Z</time>
      </trkpt>
      <trkpt lat="48.85855" lon="2.34824">
        <ele>87.4</ele>
        <time>2015-04-06T18:51:07.886Z</time>
      </trkpt>
      <trkpt lat="48.85862" lon="2.3483">
        <ele>87.3</ele>
        <time>2015-04-06T18:51:09.841Z</time>
      </trkpt>
      <trkpt lat="48.85865" lon="2.34832">
        <ele>87.4</ele>
        <time>2015-04-06T18:51:10.877Z</time>
      </trkpt>
      <trkpt lat="48.85874" lon="2.34836">
        <ele>87.9</ele>
        <time>2015-04-06T18:51:12.865Z</time>
      </trkpt>
      <trkpt lat="48.85877" lon="2.34839">
        <ele>88.3</ele>
        <time>2015-04-06T18:51:13.936Z</time>
      </trkpt>
      <trkpt lat="48.85884" lon="2.34843">
        <ele>88.3</ele>
        <time>2015-04-06T18:51:16.420Z</time>
      </trkpt>
      <trkpt lat="48.85886" lon="2.34845">
        <ele>88.3</ele>
        <time>2015-04-06T18:51:16.872Z</time>
      </trkpt>
      <trkpt lat="48.85893" lon="2.3485">
        <ele>88.5</ele>
        <time>2015-04-06T18:51:18.918Z</time>
      </trkpt>
      <trkpt lat="48.85897" lon="2.34854">
        <ele>88.7</ele>
        <time>2015-04-06T18:51:19.939Z</time>
      </trkpt>
      <trkpt lat="48.85903" lon="2.34861">
        <ele>88.5</ele>
        <time>2015-04-06T18:51:21.819Z</time>
      </trkpt>
      <trkpt lat="48.85906" lon="2.34863">
        <ele>88.7</ele>
        <time>2015-04-06T18:51:22.849Z</time>
      </trkpt>
      <trkpt lat="48.85912" lon="2.34868">
        <ele>88.8</ele>
        <time>2015-04-06T18:51:24.855Z</time>
      </trkpt>
      <trkpt lat="48.85914" lon="2.34871">
        <ele>88.9</ele>
        <time>2015-04-06T18:51:25.880Z</time>
      </trkpt>
      <trkpt lat="48.85921" lon="2.34877">
        <ele>88.7</ele>
        <time>2015-04-06T18:51:28.811Z</time>
      </trkpt>
      <trkpt lat="48.85926" lon="2.3488">
        <ele>88.7</ele>
        <time>2015-04-06T18:51:29.929Z</time>
      </trkpt>
      <trkpt lat="48.85931" lon="2.34882">
        <ele>89.1</ele>
        <time>2015-04-06T18:51:31.784Z</time>
      </trkpt>
      <trkpt lat="48.85936" lon="2.34884">
        <ele>89.5</ele>
        <time>2015-04-06T18:51:31.878Z</time>
      </trkpt>
      <trkpt lat="48.85944" lon="2.34887">
        <ele>89.3</ele>
        <time>2015-04-06T18:51:33.834Z</time>
      </trkpt>
      <trkpt lat="48.85948" lon="2.3489">
        <ele>89.1</ele>
        <time>2015-04-06T18:51:34.848Z</time>
      </trkpt>
      <trkpt lat="48.85956" lon="2.34894">
        <ele>88.8</ele>
        <time>2015-04-06T18:51:36.856Z</time>
      </trkpt>
      <trkpt lat="48.8596" lon="2.34896">
        <ele>88.8</ele>
        <time>2015-04-06T18:51:37.879Z</time>
      </trkpt>
      <trkpt lat="48.85963" lon="2.34899">
        <ele>88.9</ele>
        <time>2015-04-06T18:51:38.877Z</time>
      </trkpt>
      <trkpt lat="48.85968" lon="2.34902">
        <ele>88.9</ele>
        <time>2015-04-06T18:51:39.889Z</time>
      </trkpt>
      <trkpt lat="48.85973" lon="2.34906">
        <ele>88.8</ele>
        <time>2015-04-06T18:51:40.834Z</time>
      </trkpt>
      <trkpt lat="48.85978" lon="2.34909">
        <ele>89</ele>
        <time>2015-04-06T18:51:41.852Z</time>
      </trkpt>
      <trkpt lat="48.85985" lon="2.34915">
        <ele>88.9</ele>
        <time>2015-04-06T18:51:43.870Z</time>
      </trkpt>
      <trkpt lat="48.85987" lon="2.34917">
        <ele>88.9</ele>
        <time>2015-04-06T18:51:44.880Z</time>
      </trkpt>
      <trkpt lat="48.85992" lon="2.34926">
        <ele>88.9</ele>
        <time>2015-04-06T18:51:47.903Z</time>
      </trkpt>
      <trkpt lat="48.85996" lon="2.3493">
        <ele>88.8</ele>
        <time>2015-04-06T18:51:48.924Z</time>
      </trkpt>
      <trkpt lat="48.85999" lon="2.34933">
        <ele>88.7</ele>
        <time>2015-04-06T18:51:49.881Z</time>
      </trkpt>
      <trkpt lat="48.86005" lon="2.34935">
        <ele>88.6</ele>
        <time>2015-04-06T18:51:50.836Z</time>
      </trkpt>
      <trkpt lat="48.86008" lon="2.34935">
        <ele>88.5</ele>
        <time>2015-04-06T18:51:51.858Z</time>
      </trkpt>
      <trkpt lat="48.86014" lon="2.34936">
        <ele>88.7</ele>
        <time>2015-04-06T18:51:52.870Z</time>
      </trkpt>
      <trkpt lat="48.86022" lon="2.34939">
        <ele>89.1</ele>
        <time>2015-04-06T18:51:54.893Z</time>
      </trkpt>
      <trkpt lat="48.86026" lon="2.34941">
        <ele>89.3</ele>
        <time>2015-04-06T18:51:55.902Z</time>
      </trkpt>
      <trkpt lat="48.86033" lon="2.34943">
        <ele>89.4</ele>
        <time>2015-04-06T18:51:56.839Z</time>
      </trkpt>
      <trkpt lat="48.86039" lon="2.34947">
        <ele>89.6</ele>
        <time>2015-04-06T18:51:57.836Z</time>
      </trkpt>
      <trkpt lat="48.86046" lon="2.34949">
        <ele>89.8</ele>
        <time>2015-04-06T18:51:58.856Z</time>
      </trkpt>
      <trkpt lat="48.86051" lon="2.34952">
        <ele>89.9</ele>
        <time>2015-04-06T18:51:59.865Z</time>
      </trkpt>
      <trkpt lat="48.86058" lon="2.34956">
        <ele>90.1</ele>
        <time>2015-04-06T18:52:01.173Z</time>
      </trkpt>
      <trkpt lat="48.86062" lon="2.34959">
        <ele>90.1</ele>
        <time>2015-04-06T18:52:01.923Z</time>
      </trkpt>
      <trkpt lat="48.86067" lon="2.34963">
        <ele>90.4</ele>
        <time>2015-04-06T18:52:02.836Z</time>
      </trkpt>
      <trkpt lat="48.86071" lon="2.34967">
        <ele>90.5</ele>
        <time>2015-04-06T18:52:03.808Z</time>
      </trkpt>
      <trkpt lat="48.86075" lon="2.3497">
        <ele>90.7</ele>
        <time>2015-04-06T18:52:04.810Z</time>
      </trkpt>
      <trkpt lat="48.8608" lon="2.34974">
        <ele>90.7</ele>
        <time>2015-04-06T18:52:05.829Z</time>
      </trkpt>
      <trkpt lat="48.86087" lon="2.34979">
        <ele>90.5</ele>
        <time>2015-04-06T18:52:07.925Z</time>
      </trkpt>
      <trkpt lat="48.86093" lon="2.34981">
        <ele>90.8</ele>
        <time>2015-04-06T18:52:08.826Z</time>
      </trkpt>
      <trkpt lat="48.86098" lon="2.34983">
        <ele>91.1</ele>
        <time>2015-04-06T18:52:09.834Z</time>
      </trkpt>
      <trkpt lat="48.86106" lon="2.34986">
        <ele>91</ele>
        <time>2015-04-06T18:52:10.854Z</time>
      </trkpt>
      <trkpt lat="48.86113" lon="2.34988">
        <ele>90.7</ele>
        <time>2015-04-06T18:52:11.881Z</time>
      </trkpt>
      <trkpt lat="48.86119" lon="2.3499">
        <ele>90.8</ele>
        <time>2015-04-06T18:52:12.888Z</time>
      </trkpt>
      <trkpt lat="48.86124" lon="2.34992">
        <ele>90.9</ele>
        <time>2015-04-06T18:52:13.899Z</time>
      </trkpt>
      <trkpt lat="48.86129" lon="2.34996">
        <ele>91.2</ele>
        <time>2015-04-06T18:52:14.912Z</time>
      </trkpt>
      <trkpt lat="48.86134" lon="2.34998">
        <ele>91.4</ele>
        <time>2015-04-06T18:52:15.823Z</time>
      </trkpt>
      <trkpt lat="48.86138" lon="2.35001">
        <ele>91.6</ele>
        <time>2015-04-06T18:52:16.832Z</time>
      </trkpt>
      <trkpt lat="48.86143" lon="2.35006">
        <ele>91.8</ele>
        <time>2015-04-06T18:52:17.847Z</time>
      </trkpt>
      <trkpt lat="48.86149" lon="2.3501">
        <ele>91.8</ele>
        <time>2015-04-06T18:52:18.852Z</time>
      </trkpt>
      <trkpt lat="48.86155" lon="2.35013">
        <ele>91.6</ele>
        <time>2015-04-06T18:52:19.873Z</time>
      </trkpt>
      <trkpt lat="48.86161" lon="2.35015">
        <ele>91.1</ele>
        <time>2015-04-06T18:52:20.860Z</time>
      </trkpt>
      <trkpt lat="48.86165" lon="2.35018">
        <ele>91</ele>
        <time>2015-04-06T18:52:21.883Z</time>
      </trkpt>
      <trkpt lat="48.8617" lon="2.3502">
        <ele>90.5</ele>
        <time>2015-04-06T18:52:22.895Z</time>
      </trkpt>
      <trkpt lat="48.86178" lon="2.35026">
        <ele>90.4</ele>
        <time>2015-04-06T18:52:24.827Z</time>
      </trkpt>
      <trkpt lat="48.86183" lon="2.35029">
        <ele>90</ele>
        <time>2015-04-06T18:52:25.844Z</time>
      </trkpt>
      <trkpt lat="48.86189" lon="2.35031">
        <ele>89.8</ele>
        <time>2015-04-06T18:52:26.898Z</time>
      </trkpt>
      <trkpt lat="48.86195" lon="2.35036">
        <ele>89.6</ele>
        <time>2015-04-06T18:52:27.910Z</time>
      </trkpt>
      <trkpt lat="48.86201" lon="2.35041">
        <ele>89.6</ele>
        <time>2015-04-06T18:52:28.831Z</time>
      </trkpt>
      <trkpt lat="48.86207" lon="2.35047">
        <ele>89.6</ele>
        <time>2015-04-06T18:52:29.824Z</time>
      </trkpt>
      <trkpt lat="48.86213" lon="2.35052">
        <ele>89.6</ele>
        <time>2015-04-06T18:52:30.840Z</time>
      </trkpt>
      <trkpt lat="48.86215" lon="2.35056">
        <ele>89.6</ele>
        <time>2015-04-06T18:52:31.901Z</time>
      </trkpt>
      <trkpt lat="48.86218" lon="2.3506">
        <ele>89.6</ele>
        <time>2015-04-06T18:52:32.901Z</time>
      </trkpt>
      <trkpt lat="48.86224" lon="2.35065">
        <ele>89.6</ele>
        <time>2015-04-06T18:52:33.825Z</time>
      </trkpt>
      <trkpt lat="48.86227" lon="2.35069">
        <ele>89.4</ele>
        <time>2015-04-06T18:52:34.828Z</time>
      </trkpt>
      <trkpt lat="48.86243" lon="2.35077">
        <ele>88.6</ele>
        <time>2015-04-06T18:52:35.863Z</time>
      </trkpt>
      <trkpt lat="48.86252" lon="2.3508">
        <ele>88.3</ele>
        <time>2015-04-06T18:52:36.946Z</time>
      </trkpt>
      <trkpt lat="48.86257" lon="2.35083">
        <ele>88.3</ele>
        <time>2015-04-06T18:52:37.875Z</time>
      </trkpt>
      <trkpt lat="48.86265" lon="2.35088">
        <ele>88.7</ele>
        <time>2015-04-06T18:52:39.823Z</time>
      </trkpt>
      <trkpt lat="48.8627" lon="2.3509">
        <ele>88.6</ele>
        <time>2015-04-06T18:52:40.845Z</time>
      </trkpt>
      <trkpt lat="48.86275" lon="2.35093">
        <ele>88.6</ele>
        <time>2015-04-06T18:52:41.883Z</time>
      </trkpt>
      <trkpt lat="48.86281" lon="2.35094">
        <ele>88.5</ele>
        <time>2015-04-06T18:52:42.887Z</time>
      </trkpt>
      <trkpt lat="48.86288" lon="2.35098">
        <ele>89.2</ele>
        <time>2015-04-06T18:52:44.914Z</time>
      </trkpt>
      <trkpt lat="48.86292" lon="2.35101">
        <ele>89.7</ele>
        <time>2015-04-06T18:52:45.960Z</time>
      </trkpt>
      <trkpt lat="48.86299" lon="2.35104">
        <ele>90.3</ele>
        <time>2015-04-06T18:52:47.841Z</time>
      </trkpt>
      <trkpt lat="48.86306" lon="2.35104">
        <ele>91.2</ele>
        <time>2015-04-06T18:52:48.860Z</time>
      </trkpt>
      <trkpt lat="48.86312" lon="2.35104">
        <ele>91.6</ele>
        <time>2015-04-06T18:52:49.903Z</time>
      </trkpt>
      <trkpt lat="48.8632" lon="2.35104">
        <ele>92.3</ele>
        <time>2015-04-06T18:52:50.914Z</time>
      </trkpt>
      <trkpt lat="48.8633" lon="2.35106">
        <ele>93.5</ele>
        <time>2015-04-06T18:52:51.920Z</time>
      </trkpt>
      <trkpt lat="48.86336" lon="2.35108">
        <ele>94.1</ele>
        <time>2015-04-06T18:52:52.828Z</time>
      </trkpt>
      <trkpt lat="48.86342" lon="2.35111">
        <ele>94.5</ele>
        <time>2015-04-06T18:52:53.868Z</time>
      </trkpt>
      <trkpt lat="48.8635" lon="2.35114">
        <ele>94.8</ele>
        <time>2015-04-06T18:52:54.901Z</time>
      </trkpt>
      <trkpt lat="48.86357" lon="2.35116">
        <ele>95.3</ele>
        <time>2015-04-06T18:52:55.916Z</time>
      </trkpt>
      <trkpt lat="48.86366" lon="2.35119">
        <ele>95.8</ele>
        <time>2015-04-06T18:52:56.916Z</time>
      </trkpt>
      <trkpt lat="48.86373" lon="2.35122">
        <ele>96.4</ele>
        <time>2015-04-06T18:52:57.919Z</time>
      </trkpt>
      <trkpt lat="48.8638" lon="2.35124">
        <ele>96.6</ele>
        <time>2015-04-06T18:52:58.942Z</time>
      </trkpt>
      <trkpt lat="48.86384" lon="2.35126">
        <ele>96.7</ele>
        <time>2015-04-06T18:52:59.855Z</time>
      </trkpt>
      <trkpt lat="48.8639" lon="2.35128">
        <ele>96.8</ele>
        <time>2015-04-06T18:53:00.852Z</time>
      </trkpt>
      <trkpt lat="48.86396" lon="2.3513">
        <ele>97</ele>
        <time>2015-04-06T18:53:01.908Z</time>
      </trkpt>
      <trkpt lat="48.86405" lon="2.35134">
        <ele>97.1</ele>
        <time>2015-04-06T18:53:02.839Z</time>
      </trkpt>
      <trkpt lat="48.86415" lon="2.35138">
        <ele>96.2</ele>
        <time>2015-04-06T18:53:03.838Z</time>
      </trkpt>
      <trkpt lat="48.86424" lon="2.35141">
        <ele>95.5</ele>
        <time>2015-04-06T18:53:04.846Z</time>
      </trkpt>
      <trkpt lat="48.86433" lon="2.35145">
        <ele>94.8</ele>
        <time>2015-04-06T18:53:05.886Z</time>
      </trkpt>
      <trkpt lat="48.86441" lon="2.35149">
        <ele>94.3</ele>
        <time>2015-04-06T18:53:06.901Z</time>
      </trkpt>
      <trkpt lat="48.86446" lon="2.35152">
        <ele>94.4</ele>
        <time>2015-04-06T18:53:07.961Z</time>
      </trkpt>
      <trkpt lat="48.8645" lon="2.35154">
        <ele>95.1</ele>
        <time>2015-04-06T18:53:08.842Z</time>
      </trkpt>
      <trkpt lat="48.86457" lon="2.35158">
        <ele>95.9</ele>
        <time>2015-04-06T18:53:10.829Z</time>
      </trkpt>
      <trkpt lat="48.86461" lon="2.35159">
        <ele>96.3</ele>
        <time>2015-04-06T18:53:11.833Z</time>
      </trkpt>
      <trkpt lat="48.86469" lon="2.3516">
        <ele>96.8</ele>
        <time>2015-04-06T18:53:13.900Z</time>
      </trkpt>
      <trkpt lat="48.86473" lon="2.35162">
        <ele>96.9</ele>
        <time>2015-04-06T18:53:14.936Z</time>
      </trkpt>
      <trkpt lat="48.8648" lon="2.35166">
        <ele>97.4</ele>
        <time>2015-04-06T18:53:16.847Z</time>
      </trkpt>
      <trkpt lat="48.86485" lon="2.35167">
        <ele>97.3</ele>
        <time>2015-04-06T18:53:17.916Z</time>
      </trkpt>
      <trkpt lat="48.86492" lon="2.35174">
        <ele>98</ele>
        <time>2015-04-06T18:53:19.959Z</time>
      </trkpt>
      <trkpt lat="48.86494" lon="2.35177">
        <ele>97.9</ele>
        <time>2015-04-06T18:53:20.977Z</time>
      </trkpt>
      <trkpt lat="48.86499" lon="2.3518">
        <ele>97.7</ele>
        <time>2015-04-06T18:53:21.910Z</time>
      </trkpt>
      <trkpt lat="48.86506" lon="2.35184">
        <ele>96.8</ele>
        <time>2015-04-06T18:53:22.911Z</time>
      </trkpt>
      <trkpt lat="48.86514" lon="2.35188">
        <ele>95.8</ele>
        <time>2015-04-06T18:53:23.926Z</time>
      </trkpt>
      <trkpt lat="48.86518" lon="2.3519">
        <ele>96.4</ele>
        <time>2015-04-06T18:53:24.876Z</time>
      </trkpt>
      <trkpt lat="48.86523" lon="2.35194">
        <ele>96.7</ele>
        <time>2015-04-06T18:53:25.918Z</time>
      </trkpt>
      <trkpt lat="48.86527" lon="2.35198">
        <ele>96.8</ele>
        <time>2015-04-06T18:53:26.926Z</time>
      </trkpt>
      <trkpt lat="48.86535" lon="2.35202">
        <ele>98.1</ele>
        <time>2015-04-06T18:53:28.864Z</time>
      </trkpt>
      <trkpt lat="48.8654" lon="2.35204">
        <ele>98.4</ele>
        <time>2015-04-06T18:53:29.891Z</time>
      </trkpt>
      <trkpt lat="48.86547" lon="2.35212">
        <ele>99.4</ele>
        <time>2015-04-06T18:53:31.928Z</time>
      </trkpt>
      <trkpt lat="48.8655" lon="2.35215">
        <ele>99.3</ele>
        <time>2015-04-06T18:53:32.935Z</time>
      </trkpt>
      <trkpt lat="48.86556" lon="2.35218">
        <ele>99.6</ele>
        <time>2015-04-06T18:53:33.846Z</time>
      </trkpt>
      <trkpt lat="48.86561" lon="2.35222">
        <ele>99.7</ele>
        <time>2015-04-06T18:53:34.847Z</time>
      </trkpt>
      <trkpt lat="48.86566" lon="2.35224">
        <ele>99.4</ele>
        <time>2015-04-06T18:53:35.872Z</time>
      </trkpt>
      <trkpt lat="48.86571" lon="2.35226">
        <ele>99.2</ele>
        <time>2015-04-06T18:53:36.879Z</time>
      </trkpt>
      <trkpt lat="48.86579" lon="2.35232">
        <ele>99.3</ele>
        <time>2015-04-06T18:53:38.917Z</time>
      </trkpt>
      <trkpt lat="48.86585" lon="2.35236">
        <ele>99.7</ele>
        <time>2015-04-06T18:53:39.821Z</time>
      </trkpt>
      <trkpt lat="48.8659" lon="2.35239">
        <ele>99.9</ele>
        <time>2015-04-06T18:53:40.845Z</time>
      </trkpt>
      <trkpt lat="48.86595" lon="2.35243">
        <ele>100.2</ele>
        <time>2015-04-06T18:53:41.880Z</time>
      </trkpt>
      <trkpt lat="48.86603" lon="2.3525">
        <ele>100.3</ele>
        <time>2015-04-06T18:53:43.910Z</time>
      </trkpt>
      <trkpt lat="48.86605" lon="2.35254">
        <ele>100.2</ele>
        <time>2015-04-06T18:53:44.808Z</time>
      </trkpt>
      <trkpt lat="48.86613" lon="2.35261">
        <ele>100.2</ele>
        <time>2015-04-06T18:53:45.972Z</time>
      </trkpt>
      <trkpt lat="48.86619" lon="2.35263">
        <ele>100.5</ele>
        <time>2015-04-06T18:53:47.868Z</time>
      </trkpt>
      <trkpt lat="48.86625" lon="2.35266">
        <ele>100.9</ele>
        <time>2015-04-06T18:53:48.892Z</time>
      </trkpt>
      <trkpt lat="48.8663" lon="2.35269">
        <ele>101.3</ele>
        <time>2015-04-06T18:53:49.898Z</time>
      </trkpt>
      <trkpt lat="48.86636" lon="2.35272">
        <ele>101.5</ele>
        <time>2015-04-06T18:53:51.076Z</time>
      </trkpt>
      <trkpt lat="48.86643" lon="2.35274">
        <ele>101.4</ele>
        <time>2015-04-06T18:53:51.833Z</time>
      </trkpt>
      <trkpt lat="48.86649" lon="2.35276">
        <ele>100.9</ele>
        <time>2015-04-06T18:53:52.843Z</time>
      </trkpt>
      <trkpt lat="48.86655" lon="2.35279">
        <ele>100.2</ele>
        <time>2015-04-06T18:53:53.864Z</time>
      </trkpt>
      <trkpt lat="48.86661" lon="2.35281">
        <ele>99.4</ele>
        <time>2015-04-06T18:53:54.876Z</time>
      </trkpt>
      <trkpt lat="48.86667" lon="2.35283">
        <ele>98.8</ele>
        <time>2015-04-06T18:53:55.887Z</time>
      </trkpt>
      <trkpt lat="48.86667" lon="2.35283">
        <ele>98.8</ele>
        <time>2015-04-06T18:53:56.188Z</time>
      </trkpt>
      <trkpt lat="48.86677" lon="2.35287">
        <ele>98.3</ele>
        <time>2015-04-06T18:53:56.893Z</time>
      </trkpt>
      <trkpt lat="48.86686" lon="2.35293">
        <ele>97.2</ele>
        <time>2015-04-06T18:53:57.911Z</time>
      </trkpt>
      <trkpt lat="48.86695" lon="2.35297">
        <ele>96.2</ele>
        <time>2015-04-06T18:53:58.830Z</time>
      </trkpt>
      <trkpt lat="48.86702" lon="2.35301">
        <ele>95.2</ele>
        <time>2015-04-06T18:53:59.835Z</time>
      </trkpt>
      <trkpt lat="48.86708" lon="2.35305">
        <ele>95</ele>
        <time>2015-04-06T18:54:00.844Z</time>
      </trkpt>
      <trkpt lat="48.86714" lon="2.35308">
        <ele>95.1</ele>
        <time>2015-04-06T18:54:01.899Z</time>
      </trkpt>
      <trkpt lat="48.86721" lon="2.35312">
        <ele>95.4</ele>
        <time>2015-04-06T18:54:02.898Z</time>
      </trkpt>
      <trkpt lat="48.86727" lon="2.35315">
        <ele>95.7</ele>
        <time>2015-04-06T18:54:03.821Z</time>
      </trkpt>
      <trkpt lat="48.86733" lon="2.35317">
        <ele>95.8</ele>
        <time>2015-04-06T18:54:04.875Z</time>
      </trkpt>
      <trkpt lat="48.8674" lon="2.35319">
        <ele>96.2</ele>
        <time>2015-04-06T18:54:06.343Z</time>
      </trkpt>
      <trkpt lat="48.86746" lon="2.35321">
        <ele>96.9</ele>
        <time>2015-04-06T18:54:06.892Z</time>
      </trkpt>
      <trkpt lat="48.86752" lon="2.35324">
        <ele>97.7</ele>
        <time>2015-04-06T18:54:07.898Z</time>
      </trkpt>
      <trkpt lat="48.86756" lon="2.35326">
        <ele>97.9</ele>
        <time>2015-04-06T18:54:08.909Z</time>
      </trkpt>
      <trkpt lat="48.86761" lon="2.35329">
        <ele>98.8</ele>
        <time>2015-04-06T18:54:09.826Z</time>
      </trkpt>
      <trkpt lat="48.86765" lon="2.35331">
        <ele>99.2</ele>
        <time>2015-04-06T18:54:10.822Z</time>
      </trkpt>
      <trkpt lat="48.86772" lon="2.35335">
        <ele>100.1</ele>
        <time>2015-04-06T18:54:12.835Z</time>
      </trkpt>
      <trkpt lat="48.86776" lon="2.35337">
        <ele>99.8</ele>
        <time>2015-04-06T18:54:13.860Z</time>
      </trkpt>
      <trkpt lat="48.86785" lon="2.35341">
        <ele>99.6</ele>
        <time>2015-04-06T18:54:15.889Z</time>
      </trkpt>
      <trkpt lat="48.86789" lon="2.35343">
        <ele>99.6</ele>
        <time>2015-04-06T18:54:16.843Z</time>
      </trkpt>
      <trkpt lat="48.86796" lon="2.35347">
        <ele>99.2</ele>
        <time>2015-04-06T18:54:18.836Z</time>
      </trkpt>
      <trkpt lat="48.868" lon="2.35349">
        <ele>99.1</ele>
        <time>2015-04-06T18:54:19.863Z</time>
      </trkpt>
      <trkpt lat="48.86807" lon="2.35354">
        <ele>99.4</ele>
        <time>2015-04-06T18:54:21.879Z</time>
      </trkpt>
      <trkpt lat="48.86812" lon="2.35355">
        <ele>99.1</ele>
        <time>2015-04-06T18:54:22.897Z</time>
      </trkpt>
      <trkpt lat="48.86816" lon="2.35356">
        <ele>99.1</ele>
        <time>2015-04-06T18:54:23.828Z</time>
      </trkpt>
      <trkpt lat="48.86821" lon="2.35358">
        <ele>98.9</ele>
        <time>2015-04-06T18:54:24.836Z</time>
      </trkpt>
      <trkpt lat="48.86826" lon="2.35359">
        <ele>98.7</ele>
        <time>2015-04-06T18:54:25.884Z</time>
      </trkpt>
      <trkpt lat="48.8683" lon="2.35362">
        <ele>98.8</ele>
        <time>2015-04-06T18:54:26.986Z</time>
      </trkpt>
      <trkpt lat="48.86834" lon="2.35364">
        <ele>98.9</ele>
        <time>2015-04-06T18:54:27.827Z</time>
      </trkpt>
      <trkpt lat="48.86839" lon="2.35367">
        <ele>99</ele>
        <time>2015-04-06T18:54:28.863Z</time>
      </trkpt>
      <trkpt lat="48.86844" lon="2.3537">
        <ele>99</ele>
        <time>2015-04-06T18:54:29.844Z</time>
      </trkpt>
      <trkpt lat="48.86849" lon="2.35373">
        <ele>99.2</ele>
        <time>2015-04-06T18:54:30.852Z</time>
      </trkpt>
      <trkpt lat="48.86855" lon="2.35376">
        <ele>99</ele>
        <time>2015-04-06T18:54:31.889Z</time>
      </trkpt>
      <trkpt lat="48.86861" lon="2.35377">
        <ele>98.8</ele>
        <time>2015-04-06T18:54:32.893Z</time>
      </trkpt>
      <trkpt lat="48.8687" lon="2.35378">
        <ele>98.3</ele>
        <time>2015-04-06T18:54:34.820Z</time>
      </trkpt>
      <trkpt lat="48.86872" lon="2.35377">
        <ele>98.3</ele>
        <time>2015-04-06T18:54:35.844Z</time>
      </trkpt>
      <trkpt lat="48.86877" lon="2.3537">
        <ele>97.4</ele>
        <time>2015-04-06T18:54:38.892Z</time>
      </trkpt>
      <trkpt lat="48.86878" lon="2.35366">
        <ele>97.4</ele>
        <time>2015-04-06T18:54:39.957Z</time>
      </trkpt>
      <trkpt lat="48.86881" lon="2.35356">
        <ele>97.1</ele>
        <time>2015-04-06T18:54:41.831Z</time>
      </trkpt>
      <trkpt lat="48.86881" lon="2.35351">
        <ele>97</ele>
        <time>2015-04-06T18:54:42.876Z</time>
      </trkpt>
      <trkpt lat="48.8688" lon="2.35342">
        <ele>96.9</ele>
        <time>2015-04-06T18:54:44.901Z</time>
      </trkpt>
      <trkpt lat="48.8688" lon="2.35337">
        <ele>96.8</ele>
        <time>2015-04-06T18:54:46.087Z</time>
      </trkpt>
      <trkpt lat="48.86878" lon="2.35327">
        <ele>96.6</ele>
        <time>2015-04-06T18:54:47.825Z</time>
      </trkpt>
      <trkpt lat="48.86878" lon="2.35322">
        <ele>96.6</ele>
        <time>2015-04-06T18:54:48.850Z</time>
      </trkpt>
      <trkpt lat="48.86878" lon="2.35311">
        <ele>96.4</ele>
        <time>2015-04-06T18:54:50.871Z</time>
      </trkpt>
      <trkpt lat="48.86878" lon="2.35305">
        <ele>96.4</ele>
        <time>2015-04-06T18:54:51.888Z</time>
      </trkpt>
      <trkpt lat="48.86879" lon="2.35293">
        <ele>96.2</ele>
        <time>2015-04-06T18:54:53.922Z</time>
      </trkpt>
      <trkpt lat="48.86881" lon="2.35286">
        <ele>96</ele>
        <time>2015-04-06T18:54:54.852Z</time>
      </trkpt>
      <trkpt lat="48.86882" lon="2.35279">
        <ele>96.1</ele>
        <time>2015-04-06T18:54:55.855Z</time>
      </trkpt>
      <trkpt lat="48.86884" lon="2.35271">
        <ele>96.1</ele>
        <time>2015-04-06T18:54:56.862Z</time>
      </trkpt>
      <trkpt lat="48.86884" lon="2.35259">
        <ele>96.2</ele>
        <time>2015-04-06T18:54:58.872Z</time>
      </trkpt>
      <trkpt lat="48.86889" lon="2.35252">
        <ele>96.4</ele>
        <time>2015-04-06T18:54:59.887Z</time>
      </trkpt>
      <trkpt lat="48.86891" lon="2.35247">
        <ele>96.6</ele>
        <time>2015-04-06T18:55:00.937Z</time>
      </trkpt>
      <trkpt lat="48.86895" lon="2.35242">
        <ele>96.6</ele>
        <time>2015-04-06T18:55:01.955Z</time>
      </trkpt>
      <trkpt lat="48.86894" lon="2.35231">
        <ele>96.9</ele>
        <time>2015-04-06T18:55:03.836Z</time>
      </trkpt>
      <trkpt lat="48.86892" lon="2.35227">
        <ele>96.9</ele>
        <time>2015-04-06T18:55:04.939Z</time>
      </trkpt>
      <trkpt lat="48.86888" lon="2.35215">
        <ele>96.8</ele>
        <time>2015-04-06T18:55:07.932Z</time>
      </trkpt>
      <trkpt lat="48.86889" lon="2.3521">
        <ele>96.6</ele>
        <time>2015-04-06T18:55:08.791Z</time>
      </trkpt>
      <trkpt lat="48.8689" lon="2.35186">
        <ele>96.1</ele>
        <time>2015-04-06T18:55:13.864Z</time>
      </trkpt>
      <trkpt lat="48.86895" lon="2.35182">
        <ele>95.9</ele>
        <time>2015-04-06T18:55:14.884Z</time>
      </trkpt>
      <trkpt lat="48.86898" lon="2.3518">
        <ele>95.8</ele>
        <time>2015-04-06T18:55:15.801Z</time>
      </trkpt>
      <trkpt lat="48.86895" lon="2.35169">
        <ele>95.8</ele>
        <time>2015-04-06T18:55:19.912Z</time>
      </trkpt>
      <trkpt lat="48.86895" lon="2.35165">
        <ele>95.8</ele>
        <time>2015-04-06T18:55:20.832Z</time>
      </trkpt>
      <trkpt lat="48.86893" lon="2.35153">
        <ele>95.9</ele>
        <time>2015-04-06T18:55:24.861Z</time>
      </trkpt>
      <trkpt lat="48.86893" lon="2.35151">
        <ele>95.9</ele>
        <time>2015-04-06T18:55:25.879Z</time>
      </trkpt>
      <trkpt lat="48.86892" lon="2.35144">
        <ele>96.4</ele>
        <time>2015-04-06T18:55:27.830Z</time>
      </trkpt>
      <trkpt lat="48.86901" lon="2.3514">
        <ele>97.4</ele>
        <time>2015-04-06T18:55:28.860Z</time>
      </trkpt>
      <trkpt lat="48.86903" lon="2.35129">
        <ele>98.1</ele>
        <time>2015-04-06T18:55:31.566Z</time>
      </trkpt>
      <trkpt lat="48.86905" lon="2.35125">
        <ele>97.9</ele>
        <time>2015-04-06T18:55:33.869Z</time>
      </trkpt>
      <trkpt lat="48.86907" lon="2.35121">
        <ele>97.7</ele>
        <time>2015-04-06T18:55:34.797Z</time>
      </trkpt>
      <trkpt lat="48.86909" lon="2.3512">
        <ele>97.5</ele>
        <time>2015-04-06T18:55:35.821Z</time>
      </trkpt>
      <trkpt lat="48.86911" lon="2.35118">
        <ele>97.3</ele>
        <time>2015-04-06T18:55:36.822Z</time>
      </trkpt>
      <trkpt lat="48.86913" lon="2.35115">
        <ele>97.3</ele>
        <time>2015-04-06T18:55:37.854Z</time>
      </trkpt>
      <trkpt lat="48.86915" lon="2.35102">
        <ele>97.6</ele>
        <time>2015-04-06T18:55:42.831Z</time>
      </trkpt>
      <trkpt lat="48.86915" lon="2.35098">
        <ele>97.7</ele>
        <time>2015-04-06T18:55:43.834Z</time>
      </trkpt>
      <trkpt lat="48.86916" lon="2.35089">
        <ele>98</ele>
        <time>2015-04-06T18:55:45.943Z</time>
      </trkpt>
      <trkpt lat="48.86922" lon="2.35065">
        <ele>98.2</ele>
        <time>2015-04-06T18:55:51.820Z</time>
      </trkpt>
      <trkpt lat="48.86928" lon="2.35061">
        <ele>98.3</ele>
        <time>2015-04-06T18:55:53.866Z</time>
      </trkpt>
      <trkpt lat="48.8693" lon="2.35058">
        <ele>98.3</ele>
        <time>2015-04-06T18:55:54.893Z</time>
      </trkpt>
      <trkpt lat="48.86934" lon="2.3505">
        <ele>98.3</ele>
        <time>2015-04-06T18:55:56.906Z</time>
      </trkpt>
      <trkpt lat="48.86933" lon="2.35044">
        <ele>98.1</ele>
        <time>2015-04-06T18:55:57.827Z</time>
      </trkpt>
      <trkpt lat="48.86931" lon="2.35038">
        <ele>97.8</ele>
        <time>2015-04-06T18:55:58.834Z</time>
      </trkpt>
      <trkpt lat="48.8692" lon="2.35">
        <ele>97.1</ele>
        <time>2015-04-06T18:56:05.876Z</time>
      </trkpt>
      <trkpt lat="48.86925" lon="2.34997">
        <ele>97.1</ele>
        <time>2015-04-06T18:56:06.907Z</time>
      </trkpt>
      <trkpt lat="48.8693" lon="2.34993">
        <ele>96.9</ele>
        <time>2015-04-06T18:56:07.918Z</time>
      </trkpt>
      <trkpt lat="48.86935" lon="2.34986">
        <ele>96.8</ele>
        <time>2015-04-06T18:56:11.408Z</time>
      </trkpt>
      <trkpt lat="48.86936" lon="2.34982">
        <ele>96.7</ele>
        <time>2015-04-06T18:56:11.837Z</time>
      </trkpt>
      <trkpt lat="48.86941" lon="2.34975">
        <ele>97.6</ele>
        <time>2015-04-06T18:56:22.828Z</time>
      </trkpt>
      <trkpt lat="48.86951" lon="2.34974">
        <ele>98.4</ele>
        <time>2015-04-06T18:56:23.860Z</time>
      </trkpt>
      <trkpt lat="48.86959" lon="2.34974">
        <ele>98.8</ele>
        <time>2015-04-06T18:56:26.879Z</time>
      </trkpt>
      <trkpt lat="48.86963" lon="2.34974">
        <ele>98.7</ele>
        <time>2015-04-06T18:56:27.890Z</time>
      </trkpt>
      <trkpt lat="48.8697" lon="2.34974">
        <ele>99.2</ele>
        <time>2015-04-06T18:56:29.915Z</time>
      </trkpt>
      <trkpt lat="48.86975" lon="2.34973">
        <ele>99.8</ele>
        <time>2015-04-06T18:56:31.013Z</time>
      </trkpt>
      <trkpt lat="48.86983" lon="2.34978">
        <ele>101.5</ele>
        <time>2015-04-06T18:56:33.918Z</time>
      </trkpt>
      <trkpt lat="48.86982" lon="2.34983">
        <ele>100.4</ele>
        <time>2015-04-06T18:56:34.823Z</time>
      </trkpt>
      <trkpt lat="48.86982" lon="2.34983">
        <ele>100.4</ele>
        <time>2015-04-06T18:57:08.918Z</time>
      </trkpt>
      <trkpt lat="48.86966" lon="2.34992">
        <ele>111.4</ele>
        <time>2015-04-06T18:57:09.838Z</time>
      </trkpt>
      <trkpt lat="48.86962" lon="2.3499">
        <ele>111.4</ele>
        <time>2015-04-06T19:01:19.914Z</time>
      </trkpt>
      <trkpt lat="48.86942" lon="2.3498">
        <ele>116.1</ele>
        <time>2015-04-06T19:01:20.910Z</time>
      </trkpt>
      <trkpt lat="48.86942" lon="2.34981">
        <ele>116.3</ele>
        <time>2015-04-06T19:01:22.079Z</time>
      </trkpt>
      <trkpt lat="48.86943" lon="2.34981">
        <ele>116.2</ele>
        <time>2015-04-06T19:01:22.823Z</time>
      </trkpt>
      <trkpt lat="48.86944" lon="2.34982">
        <ele>116.1</ele>
        <time>2015-04-06T19:02:01.899Z</time>
      </trkpt>
      <trkpt lat="48.8698" lon="2.34989">
        <ele>119.8</ele>
        <time>2015-04-06T19:02:02.909Z</time>
      </trkpt>
      <trkpt lat="48.86982" lon="2.34987">
        <ele>120.9</ele>
        <time>2015-04-06T19:06:11.867Z</time>
      </trkpt>
      <trkpt lat="48.86972" lon="2.3497">
        <ele>123.1</ele>
        <time>2015-04-06T19:06:12.895Z</time>
      </trkpt>
      <trkpt lat="48.86977" lon="2.3496">
        <ele>121.8</ele>
        <time>2015-04-06T19:06:16.851Z</time>
      </trkpt>
      <trkpt lat="48.86977" lon="2.34956">
        <ele>121.3</ele>
        <time>2015-04-06T19:06:17.871Z</time>
      </trkpt>
      <trkpt lat="48.86977" lon="2.34953">
        <ele>121.1</ele>
        <time>2015-04-06T19:06:18.912Z</time>
      </trkpt>
      <trkpt lat="48.86975" lon="2.34915">
        <ele>121.3</ele>
        <time>2015-04-06T19:06:27.862Z</time>
      </trkpt>
      <trkpt lat="48.86968" lon="2.34909">
        <ele>121.6</ele>
        <time>2015-04-06T19:06:30.814Z</time>
      </trkpt>
      <trkpt lat="48.86964" lon="2.34907">
        <ele>121.7</ele>
        <time>2015-04-06T19:06:31.893Z</time>
      </trkpt>
      <trkpt lat="48.86956" lon="2.34903">
        <ele>122</ele>
        <time>2015-04-06T19:06:34.841Z</time>
      </trkpt>
      <trkpt lat="48.86953" lon="2.34903">
        <ele>122.1</ele>
        <time>2015-04-06T19:06:35.864Z</time>
      </trkpt>
      <trkpt lat="48.86944" lon="2.34902">
        <ele>122.4</ele>
        <time>2015-04-06T19:06:38.795Z</time>
      </trkpt>
      <trkpt lat="48.86942" lon="2.34901">
        <ele>122.5</ele>
        <time>2015-04-06T19:06:39.820Z</time>
      </trkpt>
      <trkpt lat="48.86934" lon="2.34899">
        <ele>122.7</ele>
        <time>2015-04-06T19:06:42.877Z</time>
      </trkpt>
      <trkpt lat="48.86931" lon="2.34901">
        <ele>122.8</ele>
        <time>2015-04-06T19:06:44.773Z</time>
      </trkpt>
      <trkpt lat="48.86931" lon="2.34912">
        <ele>122.9</ele>
        <time>2015-04-06T19:06:47.852Z</time>
      </trkpt>
      <trkpt lat="48.86931" lon="2.34916">
        <ele>122.9</ele>
        <time>2015-04-06T19:06:48.950Z</time>
      </trkpt>
      <trkpt lat="48.8693" lon="2.34951">
        <ele>122.8</ele>
        <time>2015-04-06T19:06:57.888Z</time>
      </trkpt>
      <trkpt lat="48.86933" lon="2.34961">
        <ele>122.1</ele>
        <time>2015-04-06T19:06:59.796Z</time>
      </trkpt>
      <trkpt lat="48.86933" lon="2.34964">
        <ele>121.9</ele>
        <time>2015-04-06T19:07:00.819Z</time>
      </trkpt>
      <trkpt lat="48.8693" lon="2.34976">
        <ele>121.7</ele>
        <time>2015-04-06T19:07:03.816Z</time>
      </trkpt>
      <trkpt lat="48.8693" lon="2.3498">
        <ele>121.3</ele>
        <time>2015-04-06T19:07:04.845Z</time>
      </trkpt>
      <trkpt lat="48.86932" lon="2.34993">
        <ele>120.7</ele>
        <time>2015-04-06T19:07:06.872Z</time>
      </trkpt>
      <trkpt lat="48.86934" lon="2.34998">
        <ele>120.2</ele>
        <time>2015-04-06T19:07:07.904Z</time>
      </trkpt>
      <trkpt lat="48.86935" lon="2.35012">
        <ele>119.1</ele>
        <time>2015-04-06T19:07:09.480Z</time>
      </trkpt>
      <trkpt lat="48.86937" lon="2.35018">
        <ele>118.6</ele>
        <time>2015-04-06T19:07:10.869Z</time>
      </trkpt>
      <trkpt lat="48.86941" lon="2.35025">
        <ele>116.1</ele>
        <time>2015-04-06T19:07:11.926Z</time>
      </trkpt>
      <trkpt lat="48.86945" lon="2.35032">
        <ele>113.8</ele>
        <time>2015-04-06T19:07:12.811Z</time>
      </trkpt>
      <trkpt lat="48.86949" lon="2.35044">
        <ele>112</ele>
        <time>2015-04-06T19:07:14.851Z</time>
      </trkpt>
      <trkpt lat="48.86949" lon="2.35051">
        <ele>111.7</ele>
        <time>2015-04-06T19:07:15.858Z</time>
      </trkpt>
      <trkpt lat="48.86949" lon="2.35057">
        <ele>111.5</ele>
        <time>2015-04-06T19:07:16.854Z</time>
      </trkpt>
      <trkpt lat="48.86951" lon="2.35068">
        <ele>111.2</ele>
        <time>2015-04-06T19:07:18.880Z</time>
      </trkpt>
      <trkpt lat="48.86947" lon="2.35077">
        <ele>110.4</ele>
        <time>2015-04-06T19:07:21.592Z</time>
      </trkpt>
      <trkpt lat="48.86945" lon="2.35082">
        <ele>110.2</ele>
        <time>2015-04-06T19:07:21.823Z</time>
      </trkpt>
      <trkpt lat="48.86947" lon="2.35094">
        <ele>110.1</ele>
        <time>2015-04-06T19:07:23.848Z</time>
      </trkpt>
      <trkpt lat="48.86947" lon="2.351">
        <ele>110</ele>
        <time>2015-04-06T19:07:24.868Z</time>
      </trkpt>
      <trkpt lat="48.86945" lon="2.35112">
        <ele>109.7</ele>
        <time>2015-04-06T19:07:26.629Z</time>
      </trkpt>
      <trkpt lat="48.86945" lon="2.35116">
        <ele>109.5</ele>
        <time>2015-04-06T19:07:27.832Z</time>
      </trkpt>
      <trkpt lat="48.86945" lon="2.35128">
        <ele>108.7</ele>
        <time>2015-04-06T19:07:31.914Z</time>
      </trkpt>
      <trkpt lat="48.86948" lon="2.35132">
        <ele>108.7</ele>
        <time>2015-04-06T19:07:32.834Z</time>
      </trkpt>
      <trkpt lat="48.8695" lon="2.35136">
        <ele>109</ele>
        <time>2015-04-06T19:07:33.817Z</time>
      </trkpt>
      <trkpt lat="48.86954" lon="2.35142">
        <ele>108.8</ele>
        <time>2015-04-06T19:07:34.830Z</time>
      </trkpt>
      <trkpt lat="48.86956" lon="2.35155">
        <ele>108.2</ele>
        <time>2015-04-06T19:07:37.907Z</time>
      </trkpt>
      <trkpt lat="48.86956" lon="2.35158">
        <ele>107.8</ele>
        <time>2015-04-06T19:07:38.792Z</time>
      </trkpt>
      <trkpt lat="48.86955" lon="2.35172">
        <ele>107.8</ele>
        <time>2015-04-06T19:07:41.880Z</time>
      </trkpt>
      <trkpt lat="48.86956" lon="2.35175">
        <ele>107.6</ele>
        <time>2015-04-06T19:07:42.849Z</time>
      </trkpt>
      <trkpt lat="48.86956" lon="2.35188">
        <ele>105.8</ele>
        <time>2015-04-06T19:07:45.837Z</time>
      </trkpt>
      <trkpt lat="48.86955" lon="2.35192">
        <ele>104.8</ele>
        <time>2015-04-06T19:07:46.860Z</time>
      </trkpt>
      <trkpt lat="48.86955" lon="2.35202">
        <ele>103.1</ele>
        <time>2015-04-06T19:07:48.887Z</time>
      </trkpt>
      <trkpt lat="48.86955" lon="2.35208">
        <ele>102.4</ele>
        <time>2015-04-06T19:07:49.906Z</time>
      </trkpt>
      <trkpt lat="48.86955" lon="2.35219">
        <ele>101.6</ele>
        <time>2015-04-06T19:07:51.824Z</time>
      </trkpt>
      <trkpt lat="48.86955" lon="2.35225">
        <ele>101.4</ele>
        <time>2015-04-06T19:07:52.837Z</time>
      </trkpt>
      <trkpt lat="48.86954" lon="2.35233">
        <ele>99.4</ele>
        <time>2015-04-06T19:07:53.878Z</time>
      </trkpt>
      <trkpt lat="48.86959" lon="2.3524">
        <ele>97.4</ele>
        <time>2015-04-06T19:07:54.811Z</time>
      </trkpt>
      <trkpt lat="48.86957" lon="2.35252">
        <ele>95.6</ele>
        <time>2015-04-06T19:07:56.857Z</time>
      </trkpt>
      <trkpt lat="48.86956" lon="2.35258">
        <ele>95.2</ele>
        <time>2015-04-06T19:07:57.875Z</time>
      </trkpt>
      <trkpt lat="48.86955" lon="2.35265">
        <ele>94.8</ele>
        <time>2015-04-06T19:07:58.810Z</time>
      </trkpt>
      <trkpt lat="48.86954" lon="2.35272">
        <ele>94.7</ele>
        <time>2015-04-06T19:07:59.820Z</time>
      </trkpt>
      <trkpt lat="48.86953" lon="2.35286">
        <ele>94</ele>
        <time>2015-04-06T19:08:01.888Z</time>
      </trkpt>
      <trkpt lat="48.86952" lon="2.35293">
        <ele>94.1</ele>
        <time>2015-04-06T19:08:02.889Z</time>
      </trkpt>
      <trkpt lat="48.8695" lon="2.35299">
        <ele>94.2</ele>
        <time>2015-04-06T19:08:03.822Z</time>
      </trkpt>
      <trkpt lat="48.86947" lon="2.35305">
        <ele>94.5</ele>
        <time>2015-04-06T19:08:04.835Z</time>
      </trkpt>
      <trkpt lat="48.86944" lon="2.35316">
        <ele>94.8</ele>
        <time>2015-04-06T19:08:06.838Z</time>
      </trkpt>
      <trkpt lat="48.8694" lon="2.35321">
        <ele>94.3</ele>
        <time>2015-04-06T19:08:07.911Z</time>
      </trkpt>
      <trkpt lat="48.86935" lon="2.35331">
        <ele>94.2</ele>
        <time>2015-04-06T19:08:09.826Z</time>
      </trkpt>
      <trkpt lat="48.86932" lon="2.35335">
        <ele>94.5</ele>
        <time>2015-04-06T19:08:10.846Z</time>
      </trkpt>
      <trkpt lat="48.86928" lon="2.35346">
        <ele>94.8</ele>
        <time>2015-04-06T19:08:12.910Z</time>
      </trkpt>
      <trkpt lat="48.86927" lon="2.35352">
        <ele>94.9</ele>
        <time>2015-04-06T19:08:13.929Z</time>
      </trkpt>
      <trkpt lat="48.86924" lon="2.35362">
        <ele>94.8</ele>
        <time>2015-04-06T19:08:15.848Z</time>
      </trkpt>
      <trkpt lat="48.86924" lon="2.35367">
        <ele>94.5</ele>
        <time>2015-04-06T19:08:16.873Z</time>
      </trkpt>
      <trkpt lat="48.86923" lon="2.35377">
        <ele>94.3</ele>
        <time>2015-04-06T19:08:18.821Z</time>
      </trkpt>
      <trkpt lat="48.86923" lon="2.35382">
        <ele>93.9</ele>
        <time>2015-04-06T19:08:19.888Z</time>
      </trkpt>
      <trkpt lat="48.86925" lon="2.35394">
        <ele>94</ele>
        <time>2015-04-06T19:08:21.820Z</time>
      </trkpt>
      <trkpt lat="48.86929" lon="2.354">
        <ele>92.8</ele>
        <time>2015-04-06T19:08:22.849Z</time>
      </trkpt>
      <trkpt lat="48.86929" lon="2.35413">
        <ele>92.5</ele>
        <time>2015-04-06T19:08:25.892Z</time>
      </trkpt>
      <trkpt lat="48.86928" lon="2.35417">
        <ele>92.4</ele>
        <time>2015-04-06T19:08:26.904Z</time>
      </trkpt>
      <trkpt lat="48.86925" lon="2.35429">
        <ele>91.9</ele>
        <time>2015-04-06T19:08:29.885Z</time>
      </trkpt>
      <trkpt lat="48.86925" lon="2.35432">
        <ele>91.9</ele>
        <time>2015-04-06T19:08:30.888Z</time>
      </trkpt>
      <trkpt lat="48.86917" lon="2.35434">
        <ele>93.6</ele>
        <time>2015-04-06T19:08:47.029Z</time>
      </trkpt>
      <trkpt lat="48.86916" lon="2.35433">
        <ele>93.6</ele>
        <time>2015-04-06T19:08:47.860Z</time>
      </trkpt>
      <trkpt lat="48.8691" lon="2.35426">
        <ele>94.6</ele>
        <time>2015-04-06T19:08:54.813Z</time>
      </trkpt>
      <trkpt lat="48.86909" lon="2.35423">
        <ele>94.8</ele>
        <time>2015-04-06T19:08:55.881Z</time>
      </trkpt>
      <trkpt lat="48.86903" lon="2.3542">
        <ele>96.2</ele>
        <time>2015-04-06T19:08:59.887Z</time>
      </trkpt>
      <trkpt lat="48.869" lon="2.35426">
        <ele>96.7</ele>
        <time>2015-04-06T19:09:00.810Z</time>
      </trkpt>
      <trkpt lat="48.86895" lon="2.35436">
        <ele>97.1</ele>
        <time>2015-04-06T19:09:02.804Z</time>
      </trkpt>
      <trkpt lat="48.86893" lon="2.35441">
        <ele>97.2</ele>
        <time>2015-04-06T19:09:03.812Z</time>
      </trkpt>
      <trkpt lat="48.8689" lon="2.35449">
        <ele>97.5</ele>
        <time>2015-04-06T19:09:05.879Z</time>
      </trkpt>
      <trkpt lat="48.86889" lon="2.35453">
        <ele>97.7</ele>
        <time>2015-04-06T19:09:06.868Z</time>
      </trkpt>
      <trkpt lat="48.86887" lon="2.35461">
        <ele>97.9</ele>
        <time>2015-04-06T19:09:08.867Z</time>
      </trkpt>
      <trkpt lat="48.86885" lon="2.35467">
        <ele>98.1</ele>
        <time>2015-04-06T19:09:09.809Z</time>
      </trkpt>
      <trkpt lat="48.86883" lon="2.35477">
        <ele>98.2</ele>
        <time>2015-04-06T19:09:11.823Z</time>
      </trkpt>
      <trkpt lat="48.8688" lon="2.35481">
        <ele>98.2</ele>
        <time>2015-04-06T19:09:12.837Z</time>
      </trkpt>
      <trkpt lat="48.86879" lon="2.3549">
        <ele>98.2</ele>
        <time>2015-04-06T19:09:14.860Z</time>
      </trkpt>
      <trkpt lat="48.86877" lon="2.35495">
        <ele>98.2</ele>
        <time>2015-04-06T19:09:15.871Z</time>
      </trkpt>
      <trkpt lat="48.86875" lon="2.35506">
        <ele>98.3</ele>
        <time>2015-04-06T19:09:17.791Z</time>
      </trkpt>
      <trkpt lat="48.86875" lon="2.35513">
        <ele>96.5</ele>
        <time>2015-04-06T19:09:18.822Z</time>
      </trkpt>
      <trkpt lat="48.86869" lon="2.35521">
        <ele>96.1</ele>
        <time>2015-04-06T19:09:20.796Z</time>
      </trkpt>
      <trkpt lat="48.8687" lon="2.35526">
        <ele>96</ele>
        <time>2015-04-06T19:09:21.819Z</time>
      </trkpt>
      <trkpt lat="48.86867" lon="2.35536">
        <ele>95.8</ele>
        <time>2015-04-06T19:09:24.872Z</time>
      </trkpt>
      <trkpt lat="48.86865" lon="2.35538">
        <ele>95.7</ele>
        <time>2015-04-06T19:09:25.974Z</time>
      </trkpt>
      <trkpt lat="48.86856" lon="2.35539">
        <ele>95.7</ele>
        <time>2015-04-06T19:09:29.888Z</time>
      </trkpt>
      <trkpt lat="48.86853" lon="2.35538">
        <ele>96</ele>
        <time>2015-04-06T19:09:30.813Z</time>
      </trkpt>
      <trkpt lat="48.86846" lon="2.35534">
        <ele>96.4</ele>
        <time>2015-04-06T19:09:32.824Z</time>
      </trkpt>
      <trkpt lat="48.86843" lon="2.35533">
        <ele>96.8</ele>
        <time>2015-04-06T19:09:33.835Z</time>
      </trkpt>
      <trkpt lat="48.86835" lon="2.35529">
        <ele>97.3</ele>
        <time>2015-04-06T19:09:36.877Z</time>
      </trkpt>
      <trkpt lat="48.86833" lon="2.35528">
        <ele>97.7</ele>
        <time>2015-04-06T19:09:37.894Z</time>
      </trkpt>
      <trkpt lat="48.86826" lon="2.35523">
        <ele>98.3</ele>
        <time>2015-04-06T19:09:39.811Z</time>
      </trkpt>
      <trkpt lat="48.86822" lon="2.3552">
        <ele>98.8</ele>
        <time>2015-04-06T19:09:40.835Z</time>
      </trkpt>
      <trkpt lat="48.86817" lon="2.35516">
        <ele>99.4</ele>
        <time>2015-04-06T19:09:41.870Z</time>
      </trkpt>
      <trkpt lat="48.86813" lon="2.35512">
        <ele>99.7</ele>
        <time>2015-04-06T19:09:42.891Z</time>
      </trkpt>
      <trkpt lat="48.86806" lon="2.35506">
        <ele>100.2</ele>
        <time>2015-04-06T19:09:44.810Z</time>
      </trkpt>
      <trkpt lat="48.86802" lon="2.35503">
        <ele>100.5</ele>
        <time>2015-04-06T19:09:45.818Z</time>
      </trkpt>
      <trkpt lat="48.86796" lon="2.35499">
        <ele>101</ele>
        <time>2015-04-06T19:09:47.876Z</time>
      </trkpt>
      <trkpt lat="48.86792" lon="2.35498">
        <ele>101.3</ele>
        <time>2015-04-06T19:09:48.892Z</time>
      </trkpt>
      <trkpt lat="48.86784" lon="2.35494">
        <ele>101.4</ele>
        <time>2015-04-06T19:09:50.994Z</time>
      </trkpt>
      <trkpt lat="48.86781" lon="2.35492">
        <ele>101.5</ele>
        <time>2015-04-06T19:09:51.837Z</time>
      </trkpt>
      <trkpt lat="48.86773" lon="2.3549">
        <ele>101.5</ele>
        <time>2015-04-06T19:09:54.843Z</time>
      </trkpt>
      <trkpt lat="48.86771" lon="2.35489">
        <ele>101.4</ele>
        <time>2015-04-06T19:09:55.858Z</time>
      </trkpt>
      <trkpt lat="48.86763" lon="2.35485">
        <ele>101.8</ele>
        <time>2015-04-06T19:09:58.896Z</time>
      </trkpt>
      <trkpt lat="48.86761" lon="2.35481">
        <ele>101.9</ele>
        <time>2015-04-06T19:09:59.793Z</time>
      </trkpt>
      <trkpt lat="48.86756" lon="2.35473">
        <ele>101.5</ele>
        <time>2015-04-06T19:10:01.878Z</time>
      </trkpt>
      <trkpt lat="48.86753" lon="2.35469">
        <ele>101.3</ele>
        <time>2015-04-06T19:10:02.879Z</time>
      </trkpt>
      <trkpt lat="48.8675" lon="2.35465">
        <ele>101.2</ele>
        <time>2015-04-06T19:10:03.829Z</time>
      </trkpt>
      <trkpt lat="48.86742" lon="2.35465">
        <ele>101</ele>
        <time>2015-04-06T19:10:04.819Z</time>
      </trkpt>
      <trkpt lat="48.86735" lon="2.35464">
        <ele>100.9</ele>
        <time>2015-04-06T19:10:05.838Z</time>
      </trkpt>
      <trkpt lat="48.86729" lon="2.35461">
        <ele>100.9</ele>
        <time>2015-04-06T19:10:06.851Z</time>
      </trkpt>
      <trkpt lat="48.86724" lon="2.35459">
        <ele>100.9</ele>
        <time>2015-04-06T19:10:07.851Z</time>
      </trkpt>
      <trkpt lat="48.8672" lon="2.35458">
        <ele>101.3</ele>
        <time>2015-04-06T19:10:08.805Z</time>
      </trkpt>
      <trkpt lat="48.86712" lon="2.35455">
        <ele>101.8</ele>
        <time>2015-04-06T19:10:10.840Z</time>
      </trkpt>
      <trkpt lat="48.86708" lon="2.35452">
        <ele>102</ele>
        <time>2015-04-06T19:10:11.851Z</time>
      </trkpt>
      <trkpt lat="48.867" lon="2.35447">
        <ele>102.4</ele>
        <time>2015-04-06T19:10:13.877Z</time>
      </trkpt>
      <trkpt lat="48.86696" lon="2.35446">
        <ele>102.9</ele>
        <time>2015-04-06T19:10:14.900Z</time>
      </trkpt>
      <trkpt lat="48.86688" lon="2.35442">
        <ele>103.8</ele>
        <time>2015-04-06T19:10:16.805Z</time>
      </trkpt>
      <trkpt lat="48.86685" lon="2.3544">
        <ele>104.4</ele>
        <time>2015-04-06T19:10:17.837Z</time>
      </trkpt>
      <trkpt lat="48.86678" lon="2.35438">
        <ele>106.1</ele>
        <time>2015-04-06T19:10:19.865Z</time>
      </trkpt>
      <trkpt lat="48.86675" lon="2.35437">
        <ele>106.9</ele>
        <time>2015-04-06T19:10:20.891Z</time>
      </trkpt>
      <trkpt lat="48.86668" lon="2.35431">
        <ele>106.8</ele>
        <time>2015-04-06T19:10:23.835Z</time>
      </trkpt>
      <trkpt lat="48.86666" lon="2.3543">
        <ele>106.8</ele>
        <time>2015-04-06T19:10:24.849Z</time>
      </trkpt>
      <trkpt lat="48.86658" lon="2.35425">
        <ele>106.6</ele>
        <time>2015-04-06T19:10:27.887Z</time>
      </trkpt>
      <trkpt lat="48.86655" lon="2.35423">
        <ele>106.3</ele>
        <time>2015-04-06T19:10:28.819Z</time>
      </trkpt>
      <trkpt lat="48.86648" lon="2.3542">
        <ele>105.7</ele>
        <time>2015-04-06T19:10:30.863Z</time>
      </trkpt>
      <trkpt lat="48.86644" lon="2.35418">
        <ele>105.7</ele>
        <time>2015-04-06T19:10:31.871Z</time>
      </trkpt>
      <trkpt lat="48.86639" lon="2.35415">
        <ele>105.8</ele>
        <time>2015-04-06T19:10:32.888Z</time>
      </trkpt>
      <trkpt lat="48.86632" lon="2.35414">
        <ele>105.7</ele>
        <time>2015-04-06T19:10:33.802Z</time>
      </trkpt>
      <trkpt lat="48.86627" lon="2.35412">
        <ele>105.8</ele>
        <time>2015-04-06T19:10:34.796Z</time>
      </trkpt>
      <trkpt lat="48.86622" lon="2.35408">
        <ele>106.1</ele>
        <time>2015-04-06T19:10:35.801Z</time>
      </trkpt>
      <trkpt lat="48.86617" lon="2.35398">
        <ele>106.2</ele>
        <time>2015-04-06T19:10:37.835Z</time>
      </trkpt>
      <trkpt lat="48.86615" lon="2.35396">
        <ele>106.4</ele>
        <time>2015-04-06T19:10:38.841Z</time>
      </trkpt>
      <trkpt lat="48.86611" lon="2.35391">
        <ele>106.9</ele>
        <time>2015-04-06T19:10:40.880Z</time>
      </trkpt>
      <trkpt lat="48.86608" lon="2.35387">
        <ele>107.6</ele>
        <time>2015-04-06T19:10:41.816Z</time>
      </trkpt>
      <trkpt lat="48.866" lon="2.35381">
        <ele>110</ele>
        <time>2015-04-06T19:10:46.885Z</time>
      </trkpt>
      <trkpt lat="48.86598" lon="2.35383">
        <ele>110.5</ele>
        <time>2015-04-06T19:10:47.902Z</time>
      </trkpt>
      <trkpt lat="48.86592" lon="2.35392">
        <ele>110.6</ele>
        <time>2015-04-06T19:10:50.848Z</time>
      </trkpt>
      <trkpt lat="48.86589" lon="2.35397">
        <ele>110.6</ele>
        <time>2015-04-06T19:10:51.853Z</time>
      </trkpt>
      <trkpt lat="48.86585" lon="2.35409">
        <ele>110.4</ele>
        <time>2015-04-06T19:10:53.877Z</time>
      </trkpt>
      <trkpt lat="48.86583" lon="2.35415">
        <ele>110.3</ele>
        <time>2015-04-06T19:10:54.898Z</time>
      </trkpt>
      <trkpt lat="48.86581" lon="2.35421">
        <ele>110.4</ele>
        <time>2015-04-06T19:10:55.862Z</time>
      </trkpt>
      <trkpt lat="48.86579" lon="2.35427">
        <ele>110.4</ele>
        <time>2015-04-06T19:10:56.863Z</time>
      </trkpt>
      <trkpt lat="48.86576" lon="2.35438">
        <ele>110.3</ele>
        <time>2015-04-06T19:10:58.878Z</time>
      </trkpt>
      <trkpt lat="48.86575" lon="2.35445">
        <ele>109.5</ele>
        <time>2015-04-06T19:10:59.905Z</time>
      </trkpt>
      <trkpt lat="48.86574" lon="2.35452">
        <ele>108.9</ele>
        <time>2015-04-06T19:11:00.809Z</time>
      </trkpt>
      <trkpt lat="48.86573" lon="2.35459">
        <ele>107.1</ele>
        <time>2015-04-06T19:11:01.839Z</time>
      </trkpt>
      <trkpt lat="48.86572" lon="2.35466">
        <ele>105.4</ele>
        <time>2015-04-06T19:11:02.861Z</time>
      </trkpt>
      <trkpt lat="48.86571" lon="2.35473">
        <ele>104.1</ele>
        <time>2015-04-06T19:11:03.863Z</time>
      </trkpt>
      <trkpt lat="48.8657" lon="2.35485">
        <ele>102.2</ele>
        <time>2015-04-06T19:11:05.890Z</time>
      </trkpt>
      <trkpt lat="48.86569" lon="2.35491">
        <ele>101.2</ele>
        <time>2015-04-06T19:11:06.895Z</time>
      </trkpt>
      <trkpt lat="48.86565" lon="2.35502">
        <ele>100.6</ele>
        <time>2015-04-06T19:11:08.914Z</time>
      </trkpt>
      <trkpt lat="48.86565" lon="2.35508">
        <ele>100.6</ele>
        <time>2015-04-06T19:11:10.063Z</time>
      </trkpt>
      <trkpt lat="48.86564" lon="2.35517">
        <ele>100.2</ele>
        <time>2015-04-06T19:11:11.245Z</time>
      </trkpt>
      <trkpt lat="48.86564" lon="2.35523">
        <ele>100.2</ele>
        <time>2015-04-06T19:11:12.859Z</time>
      </trkpt>
      <trkpt lat="48.86563" lon="2.35534">
        <ele>100.2</ele>
        <time>2015-04-06T19:11:14.904Z</time>
      </trkpt>
      <trkpt lat="48.86562" lon="2.35539">
        <ele>100.3</ele>
        <time>2015-04-06T19:11:15.812Z</time>
      </trkpt>
      <trkpt lat="48.8656" lon="2.35549">
        <ele>99.6</ele>
        <time>2015-04-06T19:11:17.844Z</time>
      </trkpt>
      <trkpt lat="48.86559" lon="2.35553">
        <ele>99.6</ele>
        <time>2015-04-06T19:11:18.863Z</time>
      </trkpt>
      <trkpt lat="48.86556" lon="2.35566">
        <ele>99.9</ele>
        <time>2015-04-06T19:11:21.829Z</time>
      </trkpt>
      <trkpt lat="48.86555" lon="2.35569">
        <ele>99.5</ele>
        <time>2015-04-06T19:11:22.846Z</time>
      </trkpt>
      <trkpt lat="48.86556" lon="2.3558">
        <ele>99.1</ele>
        <time>2015-04-06T19:11:25.874Z</time>
      </trkpt>
      <trkpt lat="48.86557" lon="2.35583">
        <ele>99.1</ele>
        <time>2015-04-06T19:11:26.884Z</time>
      </trkpt>
      <trkpt lat="48.86562" lon="2.35587">
        <ele>99</ele>
        <time>2015-04-06T19:11:29.913Z</time>
      </trkpt>
      <trkpt lat="48.86565" lon="2.3559">
        <ele>99</ele>
        <time>2015-04-06T19:11:30.822Z</time>
      </trkpt>
      <trkpt lat="48.86572" lon="2.35596">
        <ele>99</ele>
        <time>2015-04-06T19:11:33.830Z</time>
      </trkpt>
      <trkpt lat="48.86574" lon="2.35598">
        <ele>99</ele>
        <time>2015-04-06T19:11:34.830Z</time>
      </trkpt>
      <trkpt lat="48.86581" lon="2.35599">
        <ele>98.6</ele>
        <time>2015-04-06T19:11:36.916Z</time>
      </trkpt>
      <trkpt lat="48.86585" lon="2.35601">
        <ele>98.4</ele>
        <time>2015-04-06T19:11:37.914Z</time>
      </trkpt>
      <trkpt lat="48.86593" lon="2.35603">
        <ele>97.6</ele>
        <time>2015-04-06T19:11:40.835Z</time>
      </trkpt>
      <trkpt lat="48.86596" lon="2.35605">
        <ele>97.3</ele>
        <time>2015-04-06T19:11:41.851Z</time>
      </trkpt>
      <trkpt lat="48.86602" lon="2.35609">
        <ele>96.9</ele>
        <time>2015-04-06T19:11:43.865Z</time>
      </trkpt>
      <trkpt lat="48.86606" lon="2.3561">
        <ele>97</ele>
        <time>2015-04-06T19:11:44.875Z</time>
      </trkpt>
      <trkpt lat="48.86612" lon="2.35614">
        <ele>96.6</ele>
        <time>2015-04-06T19:11:46.907Z</time>
      </trkpt>
      <trkpt lat="48.86615" lon="2.35617">
        <ele>96.4</ele>
        <time>2015-04-06T19:11:47.909Z</time>
      </trkpt>
      <trkpt lat="48.86622" lon="2.35621">
        <ele>96.2</ele>
        <time>2015-04-06T19:11:49.930Z</time>
      </trkpt>
      <trkpt lat="48.86626" lon="2.35624">
        <ele>96.1</ele>
        <time>2015-04-06T19:11:50.861Z</time>
      </trkpt>
      <trkpt lat="48.86633" lon="2.35629">
        <ele>95.6</ele>
        <time>2015-04-06T19:11:52.828Z</time>
      </trkpt>
      <trkpt lat="48.86638" lon="2.35632">
        <ele>95.3</ele>
        <time>2015-04-06T19:11:53.852Z</time>
      </trkpt>
      <trkpt lat="48.86645" lon="2.35636">
        <ele>95.1</ele>
        <time>2015-04-06T19:11:56.265Z</time>
      </trkpt>
      <trkpt lat="48.86648" lon="2.35637">
        <ele>94.4</ele>
        <time>2015-04-06T19:11:56.849Z</time>
      </trkpt>
      <trkpt lat="48.86656" lon="2.35641">
        <ele>94.1</ele>
        <time>2015-04-06T19:11:58.895Z</time>
      </trkpt>
      <trkpt lat="48.86658" lon="2.35644">
        <ele>94</ele>
        <time>2015-04-06T19:11:59.902Z</time>
      </trkpt>
      <trkpt lat="48.86662" lon="2.3565">
        <ele>93.8</ele>
        <time>2015-04-06T19:12:01.844Z</time>
      </trkpt>
      <trkpt lat="48.86665" lon="2.35653">
        <ele>94.1</ele>
        <time>2015-04-06T19:12:02.848Z</time>
      </trkpt>
      <trkpt lat="48.86671" lon="2.35662">
        <ele>93.7</ele>
        <time>2015-04-06T19:12:06.444Z</time>
      </trkpt>
      <trkpt lat="48.86674" lon="2.35666">
        <ele>93.7</ele>
        <time>2015-04-06T19:12:06.804Z</time>
      </trkpt>
      <trkpt lat="48.8668" lon="2.35669">
        <ele>93.8</ele>
        <time>2015-04-06T19:12:07.841Z</time>
      </trkpt>
      <trkpt lat="48.86685" lon="2.3567">
        <ele>93.7</ele>
        <time>2015-04-06T19:12:08.850Z</time>
      </trkpt>
      <trkpt lat="48.86689" lon="2.35672">
        <ele>93.7</ele>
        <time>2015-04-06T19:12:09.876Z</time>
      </trkpt>
      <trkpt lat="48.86697" lon="2.35674">
        <ele>94.1</ele>
        <time>2015-04-06T19:12:10.799Z</time>
      </trkpt>
      <trkpt lat="48.86704" lon="2.35675">
        <ele>94.4</ele>
        <time>2015-04-06T19:12:11.812Z</time>
      </trkpt>
      <trkpt lat="48.86708" lon="2.35678">
        <ele>94.7</ele>
        <time>2015-04-06T19:12:12.818Z</time>
      </trkpt>
      <trkpt lat="48.86716" lon="2.35683">
        <ele>95.1</ele>
        <time>2015-04-06T19:12:14.865Z</time>
      </trkpt>
      <trkpt lat="48.86716" lon="2.35688">
        <ele>93.7</ele>
        <time>2015-04-06T19:12:15.869Z</time>
      </trkpt>
      <trkpt lat="48.86719" lon="2.35699">
        <ele>93.4</ele>
        <time>2015-04-06T19:12:18.854Z</time>
      </trkpt>
      <trkpt lat="48.86718" lon="2.35703">
        <ele>93.3</ele>
        <time>2015-04-06T19:12:19.894Z</time>
      </trkpt>
      <trkpt lat="48.86716" lon="2.35713">
        <ele>93.3</ele>
        <time>2015-04-06T19:12:21.778Z</time>
      </trkpt>
      <trkpt lat="48.86715" lon="2.35717">
        <ele>93.1</ele>
        <time>2015-04-06T19:12:22.810Z</time>
      </trkpt>
      <trkpt lat="48.86714" lon="2.35729">
        <ele>92.8</ele>
        <time>2015-04-06T19:12:26.665Z</time>
      </trkpt>
      <trkpt lat="48.86714" lon="2.35734">
        <ele>92.7</ele>
        <time>2015-04-06T19:12:26.776Z</time>
      </trkpt>
      <trkpt lat="48.86712" lon="2.35744">
        <ele>92.7</ele>
        <time>2015-04-06T19:12:28.848Z</time>
      </trkpt>
      <trkpt lat="48.86712" lon="2.3575">
        <ele>92.6</ele>
        <time>2015-04-06T19:12:29.879Z</time>
      </trkpt>
      <trkpt lat="48.86712" lon="2.35761">
        <ele>92.6</ele>
        <time>2015-04-06T19:12:31.818Z</time>
      </trkpt>
      <trkpt lat="48.86711" lon="2.35766">
        <ele>92.5</ele>
        <time>2015-04-06T19:12:32.852Z</time>
      </trkpt>
      <trkpt lat="48.86709" lon="2.35778">
        <ele>92.3</ele>
        <time>2015-04-06T19:12:34.812Z</time>
      </trkpt>
      <trkpt lat="48.86708" lon="2.35783">
        <ele>92.3</ele>
        <time>2015-04-06T19:12:35.819Z</time>
      </trkpt>
      <trkpt lat="48.86705" lon="2.35794">
        <ele>92.2</ele>
        <time>2015-04-06T19:12:37.850Z</time>
      </trkpt>
      <trkpt lat="48.86703" lon="2.35801">
        <ele>92.2</ele>
        <time>2015-04-06T19:12:38.866Z</time>
      </trkpt>
      <trkpt lat="48.86704" lon="2.35813">
        <ele>92.1</ele>
        <time>2015-04-06T19:12:40.890Z</time>
      </trkpt>
      <trkpt lat="48.86703" lon="2.35818">
        <ele>92</ele>
        <time>2015-04-06T19:12:41.907Z</time>
      </trkpt>
      <trkpt lat="48.86697" lon="2.35827">
        <ele>92</ele>
        <time>2015-04-06T19:12:43.843Z</time>
      </trkpt>
      <trkpt lat="48.86698" lon="2.35832">
        <ele>91.9</ele>
        <time>2015-04-06T19:12:44.852Z</time>
      </trkpt>
      <trkpt lat="48.86695" lon="2.3584">
        <ele>91.6</ele>
        <time>2015-04-06T19:12:46.926Z</time>
      </trkpt>
      <trkpt lat="48.86694" lon="2.35845">
        <ele>91.5</ele>
        <time>2015-04-06T19:12:47.855Z</time>
      </trkpt>
      <trkpt lat="48.86689" lon="2.35851">
        <ele>91.3</ele>
        <time>2015-04-06T19:12:49.917Z</time>
      </trkpt>
      <trkpt lat="48.86687" lon="2.35855">
        <ele>91.1</ele>
        <time>2015-04-06T19:12:50.788Z</time>
      </trkpt>
      <trkpt lat="48.86682" lon="2.35865">
        <ele>90.9</ele>
        <time>2015-04-06T19:12:52.852Z</time>
      </trkpt>
      <trkpt lat="48.86682" lon="2.3587">
        <ele>90.8</ele>
        <time>2015-04-06T19:12:53.890Z</time>
      </trkpt>
      <trkpt lat="48.86681" lon="2.35878">
        <ele>91</ele>
        <time>2015-04-06T19:12:56.145Z</time>
      </trkpt>
      <trkpt lat="48.8668" lon="2.35883">
        <ele>91</ele>
        <time>2015-04-06T19:12:56.844Z</time>
      </trkpt>
      <trkpt lat="48.86676" lon="2.35893">
        <ele>91.1</ele>
        <time>2015-04-06T19:12:59.877Z</time>
      </trkpt>
      <trkpt lat="48.86673" lon="2.35896">
        <ele>91</ele>
        <time>2015-04-06T19:13:00.801Z</time>
      </trkpt>
      <trkpt lat="48.86673" lon="2.35905">
        <ele>91.1</ele>
        <time>2015-04-06T19:13:02.848Z</time>
      </trkpt>
      <trkpt lat="48.86674" lon="2.3591">
        <ele>91.2</ele>
        <time>2015-04-06T19:13:03.926Z</time>
      </trkpt>
      <trkpt lat="48.86671" lon="2.35921">
        <ele>91</ele>
        <time>2015-04-06T19:13:06.223Z</time>
      </trkpt>
      <trkpt lat="48.86669" lon="2.35926">
        <ele>90.9</ele>
        <time>2015-04-06T19:13:06.866Z</time>
      </trkpt>
      <trkpt lat="48.86664" lon="2.3593">
        <ele>90.8</ele>
        <time>2015-04-06T19:13:07.869Z</time>
      </trkpt>
      <trkpt lat="48.86661" lon="2.35935">
        <ele>90.8</ele>
        <time>2015-04-06T19:13:08.877Z</time>
      </trkpt>
      <trkpt lat="48.86658" lon="2.35945">
        <ele>90.6</ele>
        <time>2015-04-06T19:13:11.354Z</time>
      </trkpt>
      <trkpt lat="48.86655" lon="2.3595">
        <ele>90.7</ele>
        <time>2015-04-06T19:13:11.852Z</time>
      </trkpt>
      <trkpt lat="48.8665" lon="2.35954">
        <ele>90.8</ele>
        <time>2015-04-06T19:13:12.866Z</time>
      </trkpt>
      <trkpt lat="48.86646" lon="2.35959">
        <ele>90.8</ele>
        <time>2015-04-06T19:13:13.869Z</time>
      </trkpt>
      <trkpt lat="48.86643" lon="2.35964">
        <ele>90.7</ele>
        <time>2015-04-06T19:13:14.907Z</time>
      </trkpt>
      <trkpt lat="48.86639" lon="2.35969">
        <ele>90.6</ele>
        <time>2015-04-06T19:13:15.782Z</time>
      </trkpt>
      <trkpt lat="48.86636" lon="2.35973">
        <ele>90.4</ele>
        <time>2015-04-06T19:13:16.823Z</time>
      </trkpt>
      <trkpt lat="48.86632" lon="2.35977">
        <ele>90.4</ele>
        <time>2015-04-06T19:13:17.830Z</time>
      </trkpt>
      <trkpt lat="48.8663" lon="2.35987">
        <ele>90.2</ele>
        <time>2015-04-06T19:13:19.842Z</time>
      </trkpt>
      <trkpt lat="48.86633" lon="2.35993">
        <ele>90.1</ele>
        <time>2015-04-06T19:13:20.859Z</time>
      </trkpt>
      <trkpt lat="48.86635" lon="2.35998">
        <ele>90.2</ele>
        <time>2015-04-06T19:13:21.884Z</time>
      </trkpt>
      <trkpt lat="48.86642" lon="2.36005">
        <ele>90.3</ele>
        <time>2015-04-06T19:13:22.899Z</time>
      </trkpt>
      <trkpt lat="48.86645" lon="2.36015">
        <ele>90.8</ele>
        <time>2015-04-06T19:13:24.801Z</time>
      </trkpt>
      <trkpt lat="48.86644" lon="2.36019">
        <ele>90.9</ele>
        <time>2015-04-06T19:13:25.857Z</time>
      </trkpt>
      <trkpt lat="48.86642" lon="2.36029">
        <ele>91</ele>
        <time>2015-04-06T19:13:28.822Z</time>
      </trkpt>
      <trkpt lat="48.8664" lon="2.36033">
        <ele>91.2</ele>
        <time>2015-04-06T19:13:29.830Z</time>
      </trkpt>
      <trkpt lat="48.86639" lon="2.36045">
        <ele>91.4</ele>
        <time>2015-04-06T19:13:36.839Z</time>
      </trkpt>
      <trkpt lat="48.8664" lon="2.36048">
        <ele>91.5</ele>
        <time>2015-04-06T19:13:37.878Z</time>
      </trkpt>
      <trkpt lat="48.8664" lon="2.3606">
        <ele>92</ele>
        <time>2015-04-06T19:13:42.853Z</time>
      </trkpt>
      <trkpt lat="48.86637" lon="2.36061">
        <ele>92.2</ele>
        <time>2015-04-06T19:13:43.867Z</time>
      </trkpt>
      <trkpt lat="48.86635" lon="2.36065">
        <ele>92.3</ele>
        <time>2015-04-06T19:13:44.802Z</time>
      </trkpt>
      <trkpt lat="48.86628" lon="2.36069">
        <ele>92.5</ele>
        <time>2015-04-06T19:13:45.798Z</time>
      </trkpt>
      <trkpt lat="48.8662" lon="2.36072">
        <ele>92.7</ele>
        <time>2015-04-06T19:13:46.829Z</time>
      </trkpt>
      <trkpt lat="48.86616" lon="2.36077">
        <ele>92.8</ele>
        <time>2015-04-06T19:13:47.843Z</time>
      </trkpt>
      <trkpt lat="48.86614" lon="2.36085">
        <ele>92.9</ele>
        <time>2015-04-06T19:13:48.804Z</time>
      </trkpt>
      <trkpt lat="48.86612" lon="2.3609">
        <ele>92.9</ele>
        <time>2015-04-06T19:13:49.833Z</time>
      </trkpt>
      <trkpt lat="48.86607" lon="2.361">
        <ele>92.8</ele>
        <time>2015-04-06T19:13:52.909Z</time>
      </trkpt>
      <trkpt lat="48.86604" lon="2.36098">
        <ele>91.7</ele>
        <time>2015-04-06T19:13:53.852Z</time>
      </trkpt>
      <trkpt lat="48.86596" lon="2.36095">
        <ele>89.6</ele>
        <time>2015-04-06T19:13:57.915Z</time>
      </trkpt>
      <trkpt lat="48.86594" lon="2.36094">
        <ele>89.2</ele>
        <time>2015-04-06T19:13:58.850Z</time>
      </trkpt>
      <trkpt lat="48.86587" lon="2.36095">
        <ele>87.9</ele>
        <time>2015-04-06T19:14:02.874Z</time>
      </trkpt>
      <trkpt lat="48.86584" lon="2.361">
        <ele>88.1</ele>
        <time>2015-04-06T19:14:03.872Z</time>
      </trkpt>
      <trkpt lat="48.8658" lon="2.36107">
        <ele>88.6</ele>
        <time>2015-04-06T19:14:05.816Z</time>
      </trkpt>
      <trkpt lat="48.86578" lon="2.3611">
        <ele>88.8</ele>
        <time>2015-04-06T19:14:06.912Z</time>
      </trkpt>
      <trkpt lat="48.86573" lon="2.36121">
        <ele>89</ele>
        <time>2015-04-06T19:14:08.808Z</time>
      </trkpt>
      <trkpt lat="48.86571" lon="2.36125">
        <ele>89.2</ele>
        <time>2015-04-06T19:14:09.842Z</time>
      </trkpt>
      <trkpt lat="48.86565" lon="2.36134">
        <ele>89.4</ele>
        <time>2015-04-06T19:14:11.800Z</time>
      </trkpt>
      <trkpt lat="48.86562" lon="2.36138">
        <ele>89.4</ele>
        <time>2015-04-06T19:14:12.825Z</time>
      </trkpt>
      <trkpt lat="48.86558" lon="2.36145">
        <ele>89.5</ele>
        <time>2015-04-06T19:14:14.857Z</time>
      </trkpt>
      <trkpt lat="48.86555" lon="2.3615">
        <ele>89.4</ele>
        <time>2015-04-06T19:14:15.883Z</time>
      </trkpt>
      <trkpt lat="48.86551" lon="2.36162">
        <ele>89.5</ele>
        <time>2015-04-06T19:14:18.842Z</time>
      </trkpt>
      <trkpt lat="48.8655" lon="2.36165">
        <ele>89.5</ele>
        <time>2015-04-06T19:14:19.948Z</time>
      </trkpt>
      <trkpt lat="48.86541" lon="2.36166">
        <ele>88.4</ele>
        <time>2015-04-06T19:14:28.820Z</time>
      </trkpt>
      <trkpt lat="48.86539" lon="2.36164">
        <ele>88.6</ele>
        <time>2015-04-06T19:14:29.816Z</time>
      </trkpt>
      <trkpt lat="48.86532" lon="2.3617">
        <ele>90.4</ele>
        <time>2015-04-06T19:14:37.258Z</time>
      </trkpt>
      <trkpt lat="48.8653" lon="2.36173">
        <ele>91.1</ele>
        <time>2015-04-06T19:14:37.849Z</time>
      </trkpt>
      <trkpt lat="48.86528" lon="2.36179">
        <ele>91.6</ele>
        <time>2015-04-06T19:14:38.856Z</time>
      </trkpt>
      <trkpt lat="48.86525" lon="2.36185">
        <ele>92</ele>
        <time>2015-04-06T19:14:39.868Z</time>
      </trkpt>
      <trkpt lat="48.86522" lon="2.36197">
        <ele>92.6</ele>
        <time>2015-04-06T19:14:42.382Z</time>
      </trkpt>
      <trkpt lat="48.8652" lon="2.36202">
        <ele>92.9</ele>
        <time>2015-04-06T19:14:42.884Z</time>
      </trkpt>
      <trkpt lat="48.86517" lon="2.36211">
        <ele>93.6</ele>
        <time>2015-04-06T19:14:44.841Z</time>
      </trkpt>
      <trkpt lat="48.86515" lon="2.36214">
        <ele>93.7</ele>
        <time>2015-04-06T19:14:45.854Z</time>
      </trkpt>
      <trkpt lat="48.86512" lon="2.36225">
        <ele>94.3</ele>
        <time>2015-04-06T19:14:48.794Z</time>
      </trkpt>
      <trkpt lat="48.86511" lon="2.36228">
        <ele>94.4</ele>
        <time>2015-04-06T19:14:49.858Z</time>
      </trkpt>
      <trkpt lat="48.86506" lon="2.36237">
        <ele>94.8</ele>
        <time>2015-04-06T19:14:51.860Z</time>
      </trkpt>
      <trkpt lat="48.86504" lon="2.3624">
        <ele>95</ele>
        <time>2015-04-06T19:14:52.884Z</time>
      </trkpt>
      <trkpt lat="48.86499" lon="2.36248">
        <ele>94.9</ele>
        <time>2015-04-06T19:14:54.812Z</time>
      </trkpt>
      <trkpt lat="48.86498" lon="2.36251">
        <ele>94.8</ele>
        <time>2015-04-06T19:14:55.868Z</time>
      </trkpt>
      <trkpt lat="48.86492" lon="2.36257">
        <ele>95.3</ele>
        <time>2015-04-06T19:14:58.853Z</time>
      </trkpt>
      <trkpt lat="48.8649" lon="2.3626">
        <ele>95.5</ele>
        <time>2015-04-06T19:14:59.879Z</time>
      </trkpt>
      <trkpt lat="48.86486" lon="2.36269">
        <ele>96.4</ele>
        <time>2015-04-06T19:15:04.845Z</time>
      </trkpt>
      <trkpt lat="48.86485" lon="2.36272">
        <ele>96.7</ele>
        <time>2015-04-06T19:15:05.870Z</time>
      </trkpt>
      <trkpt lat="48.86481" lon="2.36284">
        <ele>97.2</ele>
        <time>2015-04-06T19:15:08.856Z</time>
      </trkpt>
      <trkpt lat="48.86479" lon="2.36288">
        <ele>97.4</ele>
        <time>2015-04-06T19:15:09.889Z</time>
      </trkpt>
      <trkpt lat="48.86473" lon="2.36295">
        <ele>98.2</ele>
        <time>2015-04-06T19:15:11.816Z</time>
      </trkpt>
      <trkpt lat="48.8647" lon="2.36299">
        <ele>98.4</ele>
        <time>2015-04-06T19:15:12.871Z</time>
      </trkpt>
      <trkpt lat="48.86465" lon="2.36308">
        <ele>99</ele>
        <time>2015-04-06T19:15:14.791Z</time>
      </trkpt>
      <trkpt lat="48.86462" lon="2.36311">
        <ele>98.7</ele>
        <time>2015-04-06T19:15:15.802Z</time>
      </trkpt>
      <trkpt lat="48.86457" lon="2.36319">
        <ele>98.8</ele>
        <time>2015-04-06T19:15:17.856Z</time>
      </trkpt>
      <trkpt lat="48.86455" lon="2.36324">
        <ele>99.2</ele>
        <time>2015-04-06T19:15:18.872Z</time>
      </trkpt>
      <trkpt lat="48.86453" lon="2.36337">
        <ele>99.9</ele>
        <time>2015-04-06T19:15:21.778Z</time>
      </trkpt>
      <trkpt lat="48.86453" lon="2.3634">
        <ele>100</ele>
        <time>2015-04-06T19:15:22.817Z</time>
      </trkpt>
      <trkpt lat="48.86454" lon="2.3635">
        <ele>100.3</ele>
        <time>2015-04-06T19:15:26.741Z</time>
      </trkpt>
      <trkpt lat="48.86454" lon="2.36355">
        <ele>100.5</ele>
        <time>2015-04-06T19:15:26.781Z</time>
      </trkpt>
      <trkpt lat="48.86459" lon="2.36365">
        <ele>100.9</ele>
        <time>2015-04-06T19:15:28.799Z</time>
      </trkpt>
      <trkpt lat="48.86462" lon="2.36371">
        <ele>101</ele>
        <time>2015-04-06T19:15:29.813Z</time>
      </trkpt>
      <trkpt lat="48.86467" lon="2.36381">
        <ele>101</ele>
        <time>2015-04-06T19:15:31.920Z</time>
      </trkpt>
      <trkpt lat="48.86469" lon="2.36387">
        <ele>100.9</ele>
        <time>2015-04-06T19:15:32.884Z</time>
      </trkpt>
      <trkpt lat="48.86473" lon="2.36397">
        <ele>100.7</ele>
        <time>2015-04-06T19:15:34.819Z</time>
      </trkpt>
      <trkpt lat="48.86472" lon="2.36402">
        <ele>100.7</ele>
        <time>2015-04-06T19:15:35.841Z</time>
      </trkpt>
      <trkpt lat="48.86473" lon="2.36412">
        <ele>101</ele>
        <time>2015-04-06T19:15:37.877Z</time>
      </trkpt>
      <trkpt lat="48.86473" lon="2.36418">
        <ele>101.1</ele>
        <time>2015-04-06T19:15:38.889Z</time>
      </trkpt>
      <trkpt lat="48.86473" lon="2.36427">
        <ele>100.8</ele>
        <time>2015-04-06T19:15:40.825Z</time>
      </trkpt>
      <trkpt lat="48.86474" lon="2.36432">
        <ele>100.6</ele>
        <time>2015-04-06T19:15:41.857Z</time>
      </trkpt>
      <trkpt lat="48.86475" lon="2.36442">
        <ele>100.6</ele>
        <time>2015-04-06T19:15:43.841Z</time>
      </trkpt>
      <trkpt lat="48.86476" lon="2.36446">
        <ele>100.4</ele>
        <time>2015-04-06T19:15:44.803Z</time>
      </trkpt>
      <trkpt lat="48.86475" lon="2.36456">
        <ele>100.1</ele>
        <time>2015-04-06T19:15:46.851Z</time>
      </trkpt>
      <trkpt lat="48.86475" lon="2.36461">
        <ele>100.1</ele>
        <time>2015-04-06T19:15:47.826Z</time>
      </trkpt>
      <trkpt lat="48.86474" lon="2.36472">
        <ele>99.9</ele>
        <time>2015-04-06T19:15:49.844Z</time>
      </trkpt>
      <trkpt lat="48.86469" lon="2.36473">
        <ele>98.9</ele>
        <time>2015-04-06T19:15:50.841Z</time>
      </trkpt>
      <trkpt lat="48.86463" lon="2.36474">
        <ele>97.4</ele>
        <time>2015-04-06T19:15:51.876Z</time>
      </trkpt>
      <trkpt lat="48.86458" lon="2.36476">
        <ele>97</ele>
        <time>2015-04-06T19:15:52.892Z</time>
      </trkpt>
      <trkpt lat="48.8645" lon="2.36477">
        <ele>96.7</ele>
        <time>2015-04-06T19:15:54.877Z</time>
      </trkpt>
      <trkpt lat="48.86446" lon="2.36476">
        <ele>96.7</ele>
        <time>2015-04-06T19:15:55.868Z</time>
      </trkpt>
      <trkpt lat="48.86438" lon="2.36474">
        <ele>96.7</ele>
        <time>2015-04-06T19:15:57.806Z</time>
      </trkpt>
      <trkpt lat="48.86434" lon="2.36472">
        <ele>96.7</ele>
        <time>2015-04-06T19:15:58.818Z</time>
      </trkpt>
      <trkpt lat="48.86426" lon="2.3647">
        <ele>96.8</ele>
        <time>2015-04-06T19:16:01.488Z</time>
      </trkpt>
      <trkpt lat="48.86421" lon="2.36469">
        <ele>96.9</ele>
        <time>2015-04-06T19:16:01.856Z</time>
      </trkpt>
      <trkpt lat="48.86413" lon="2.36467">
        <ele>96.9</ele>
        <time>2015-04-06T19:16:03.872Z</time>
      </trkpt>
      <trkpt lat="48.86408" lon="2.36467">
        <ele>97</ele>
        <time>2015-04-06T19:16:04.787Z</time>
      </trkpt>
      <trkpt lat="48.86404" lon="2.36468">
        <ele>97.1</ele>
        <time>2015-04-06T19:16:06.564Z</time>
      </trkpt>
      <trkpt lat="48.86399" lon="2.36467">
        <ele>97.1</ele>
        <time>2015-04-06T19:16:06.808Z</time>
      </trkpt>
      <trkpt lat="48.8639" lon="2.36464">
        <ele>97.2</ele>
        <time>2015-04-06T19:16:08.853Z</time>
      </trkpt>
      <trkpt lat="48.86381" lon="2.36465">
        <ele>97.4</ele>
        <time>2015-04-06T19:16:10.785Z</time>
      </trkpt>
      <trkpt lat="48.86377" lon="2.36467">
        <ele>97.5</ele>
        <time>2015-04-06T19:16:11.804Z</time>
      </trkpt>
      <trkpt lat="48.86372" lon="2.36467">
        <ele>97.5</ele>
        <time>2015-04-06T19:16:12.836Z</time>
      </trkpt>
      <trkpt lat="48.86367" lon="2.36466">
        <ele>97.5</ele>
        <time>2015-04-06T19:16:13.852Z</time>
      </trkpt>
      <trkpt lat="48.86359" lon="2.36465">
        <ele>97.7</ele>
        <time>2015-04-06T19:16:15.805Z</time>
      </trkpt>
      <trkpt lat="48.86354" lon="2.36464">
        <ele>97.8</ele>
        <time>2015-04-06T19:16:16.848Z</time>
      </trkpt>
      <trkpt lat="48.86345" lon="2.36462">
        <ele>97.9</ele>
        <time>2015-04-06T19:16:18.798Z</time>
      </trkpt>
      <trkpt lat="48.86341" lon="2.36463">
        <ele>98</ele>
        <time>2015-04-06T19:16:19.861Z</time>
      </trkpt>
      <trkpt lat="48.86333" lon="2.36464">
        <ele>97.4</ele>
        <time>2015-04-06T19:16:22.275Z</time>
      </trkpt>
      <trkpt lat="48.86329" lon="2.36464">
        <ele>97.1</ele>
        <time>2015-04-06T19:16:22.856Z</time>
      </trkpt>
      <trkpt lat="48.86321" lon="2.36465">
        <ele>97</ele>
        <time>2015-04-06T19:16:24.813Z</time>
      </trkpt>
      <trkpt lat="48.86317" lon="2.36465">
        <ele>97.1</ele>
        <time>2015-04-06T19:16:25.833Z</time>
      </trkpt>
      <trkpt lat="48.86312" lon="2.36465">
        <ele>97.2</ele>
        <time>2015-04-06T19:16:27.342Z</time>
      </trkpt>
      <trkpt lat="48.86308" lon="2.36466">
        <ele>97.3</ele>
        <time>2015-04-06T19:16:27.797Z</time>
      </trkpt>
      <trkpt lat="48.86303" lon="2.36467">
        <ele>97.3</ele>
        <time>2015-04-06T19:16:28.798Z</time>
      </trkpt>
      <trkpt lat="48.86299" lon="2.36468">
        <ele>97.4</ele>
        <time>2015-04-06T19:16:29.809Z</time>
      </trkpt>
      <trkpt lat="48.8629" lon="2.36468">
        <ele>97.6</ele>
        <time>2015-04-06T19:16:32.450Z</time>
      </trkpt>
      <trkpt lat="48.86286" lon="2.36467">
        <ele>97.7</ele>
        <time>2015-04-06T19:16:32.842Z</time>
      </trkpt>
      <trkpt lat="48.86281" lon="2.36466">
        <ele>97.7</ele>
        <time>2015-04-06T19:16:33.872Z</time>
      </trkpt>
      <trkpt lat="48.86276" lon="2.36465">
        <ele>97.8</ele>
        <time>2015-04-06T19:16:34.797Z</time>
      </trkpt>
      <trkpt lat="48.86268" lon="2.36466">
        <ele>98</ele>
        <time>2015-04-06T19:16:36.789Z</time>
      </trkpt>
      <trkpt lat="48.86264" lon="2.36467">
        <ele>98.1</ele>
        <time>2015-04-06T19:16:37.813Z</time>
      </trkpt>
      <trkpt lat="48.86256" lon="2.36467">
        <ele>98.2</ele>
        <time>2015-04-06T19:16:39.837Z</time>
      </trkpt>
      <trkpt lat="48.86252" lon="2.36467">
        <ele>98.3</ele>
        <time>2015-04-06T19:16:40.879Z</time>
      </trkpt>
      <trkpt lat="48.86243" lon="2.36467">
        <ele>98.4</ele>
        <time>2015-04-06T19:16:42.829Z</time>
      </trkpt>
      <trkpt lat="48.86239" lon="2.36467">
        <ele>98.5</ele>
        <time>2015-04-06T19:16:43.850Z</time>
      </trkpt>
      <trkpt lat="48.86231" lon="2.36466">
        <ele>98.6</ele>
        <time>2015-04-06T19:16:45.796Z</time>
      </trkpt>
      <trkpt lat="48.86227" lon="2.36466">
        <ele>98.7</ele>
        <time>2015-04-06T19:16:46.812Z</time>
      </trkpt>
      <trkpt lat="48.8622" lon="2.36465">
        <ele>98.8</ele>
        <time>2015-04-06T19:16:48.828Z</time>
      </trkpt>
      <trkpt lat="48.86217" lon="2.36466">
        <ele>98.8</ele>
        <time>2015-04-06T19:16:49.841Z</time>
      </trkpt>
      <trkpt lat="48.86208" lon="2.3647">
        <ele>98.9</ele>
        <time>2015-04-06T19:16:52.798Z</time>
      </trkpt>
      <trkpt lat="48.86206" lon="2.36471">
        <ele>98.9</ele>
        <time>2015-04-06T19:16:53.793Z</time>
      </trkpt>
      <trkpt lat="48.86202" lon="2.36481">
        <ele>98.8</ele>
        <time>2015-04-06T19:16:56.847Z</time>
      </trkpt>
      <trkpt lat="48.86203" lon="2.36485">
        <ele>98.6</ele>
        <time>2015-04-06T19:16:57.858Z</time>
      </trkpt>
      <trkpt lat="48.86208" lon="2.36492">
        <ele>97.4</ele>
        <time>2015-04-06T19:16:59.891Z</time>
      </trkpt>
      <trkpt lat="48.86211" lon="2.36495">
        <ele>97</ele>
        <time>2015-04-06T19:17:00.808Z</time>
      </trkpt>
      <trkpt lat="48.86217" lon="2.365">
        <ele>96.4</ele>
        <time>2015-04-06T19:17:02.872Z</time>
      </trkpt>
      <trkpt lat="48.8622" lon="2.36504">
        <ele>96.1</ele>
        <time>2015-04-06T19:17:03.878Z</time>
      </trkpt>
      <trkpt lat="48.86225" lon="2.36511">
        <ele>95.6</ele>
        <time>2015-04-06T19:17:05.820Z</time>
      </trkpt>
      <trkpt lat="48.86226" lon="2.36515">
        <ele>95.4</ele>
        <time>2015-04-06T19:17:06.845Z</time>
      </trkpt>
      <trkpt lat="48.86231" lon="2.36522">
        <ele>94.3</ele>
        <time>2015-04-06T19:17:08.880Z</time>
      </trkpt>
      <trkpt lat="48.86234" lon="2.36526">
        <ele>93.8</ele>
        <time>2015-04-06T19:17:09.821Z</time>
      </trkpt>
      <trkpt lat="48.86238" lon="2.36535">
        <ele>93.3</ele>
        <time>2015-04-06T19:17:11.815Z</time>
      </trkpt>
      <trkpt lat="48.8624" lon="2.36537">
        <ele>93.2</ele>
        <time>2015-04-06T19:17:12.840Z</time>
      </trkpt>
      <trkpt lat="48.86246" lon="2.36545">
        <ele>93.1</ele>
        <time>2015-04-06T19:17:15.857Z</time>
      </trkpt>
      <trkpt lat="48.86247" lon="2.36548">
        <ele>93.1</ele>
        <time>2015-04-06T19:17:16.868Z</time>
      </trkpt>
      <trkpt lat="48.86249" lon="2.3656">
        <ele>93.3</ele>
        <time>2015-04-06T19:17:20.837Z</time>
      </trkpt>
      <trkpt lat="48.86251" lon="2.36563">
        <ele>93.6</ele>
        <time>2015-04-06T19:17:21.824Z</time>
      </trkpt>
      <trkpt lat="48.86256" lon="2.36569">
        <ele>93.7</ele>
        <time>2015-04-06T19:17:23.839Z</time>
      </trkpt>
      <trkpt lat="48.86259" lon="2.36571">
        <ele>93.8</ele>
        <time>2015-04-06T19:17:24.870Z</time>
      </trkpt>
      <trkpt lat="48.86264" lon="2.36577">
        <ele>94.2</ele>
        <time>2015-04-06T19:17:26.810Z</time>
      </trkpt>
      <trkpt lat="48.86268" lon="2.36581">
        <ele>94.3</ele>
        <time>2015-04-06T19:17:27.847Z</time>
      </trkpt>
      <trkpt lat="48.86275" lon="2.36588">
        <ele>94.8</ele>
        <time>2015-04-06T19:17:29.894Z</time>
      </trkpt>
      <trkpt lat="48.86278" lon="2.36591">
        <ele>94.8</ele>
        <time>2015-04-06T19:17:30.808Z</time>
      </trkpt>
      <trkpt lat="48.86283" lon="2.36598">
        <ele>94.9</ele>
        <time>2015-04-06T19:17:32.812Z</time>
      </trkpt>
      <trkpt lat="48.86286" lon="2.36602">
        <ele>95</ele>
        <time>2015-04-06T19:17:33.878Z</time>
      </trkpt>
      <trkpt lat="48.8629" lon="2.36612">
        <ele>94.5</ele>
        <time>2015-04-06T19:17:35.825Z</time>
      </trkpt>
      <trkpt lat="48.86294" lon="2.36615">
        <ele>94.2</ele>
        <time>2015-04-06T19:17:36.867Z</time>
      </trkpt>
      <trkpt lat="48.86298" lon="2.36623">
        <ele>93.7</ele>
        <time>2015-04-06T19:17:39.310Z</time>
      </trkpt>
      <trkpt lat="48.86301" lon="2.36627">
        <ele>93.5</ele>
        <time>2015-04-06T19:17:39.830Z</time>
      </trkpt>
      <trkpt lat="48.86305" lon="2.36637">
        <ele>93</ele>
        <time>2015-04-06T19:17:42.913Z</time>
      </trkpt>
      <trkpt lat="48.86306" lon="2.36641">
        <ele>93.1</ele>
        <time>2015-04-06T19:17:43.912Z</time>
      </trkpt>
      <trkpt lat="48.86307" lon="2.36652">
        <ele>93.3</ele>
        <time>2015-04-06T19:18:26.648Z</time>
      </trkpt>
      <trkpt lat="48.86298" lon="2.36667">
        <ele>91.1</ele>
        <time>2015-04-06T19:18:26.799Z</time>
      </trkpt>
      <trkpt lat="48.86295" lon="2.36677">
        <ele>91.1</ele>
        <time>2015-04-06T19:18:29.859Z</time>
      </trkpt>
      <trkpt lat="48.86292" lon="2.3668">
        <ele>91</ele>
        <time>2015-04-06T19:18:30.891Z</time>
      </trkpt>
      <trkpt lat="48.86285" lon="2.36686">
        <ele>91</ele>
        <time>2015-04-06T19:18:33.819Z</time>
      </trkpt>
      <trkpt lat="48.86283" lon="2.36687">
        <ele>91</ele>
        <time>2015-04-06T19:18:34.853Z</time>
      </trkpt>
      <trkpt lat="48.86276" lon="2.36692">
        <ele>91.1</ele>
        <time>2015-04-06T19:18:37.878Z</time>
      </trkpt>
      <trkpt lat="48.86274" lon="2.36694">
        <ele>91.2</ele>
        <time>2015-04-06T19:18:38.899Z</time>
      </trkpt>
      <trkpt lat="48.86266" lon="2.36701">
        <ele>92.5</ele>
        <time>2015-04-06T19:18:41.803Z</time>
      </trkpt>
      <trkpt lat="48.86263" lon="2.36703">
        <ele>92.8</ele>
        <time>2015-04-06T19:18:42.822Z</time>
      </trkpt>
      <trkpt lat="48.86256" lon="2.36707">
        <ele>93.8</ele>
        <time>2015-04-06T19:18:45.949Z</time>
      </trkpt>
      <trkpt lat="48.86255" lon="2.36708">
        <ele>93.9</ele>
        <time>2015-04-06T19:18:46.904Z</time>
      </trkpt>
      <trkpt lat="48.86255" lon="2.36722">
        <ele>94.9</ele>
        <time>2015-04-06T19:18:51.825Z</time>
      </trkpt>
      <trkpt lat="48.86256" lon="2.36725">
        <ele>94.7</ele>
        <time>2015-04-06T19:18:52.843Z</time>
      </trkpt>
      <trkpt lat="48.86255" lon="2.36737">
        <ele>94.6</ele>
        <time>2015-04-06T19:18:56.086Z</time>
      </trkpt>
      <trkpt lat="48.86254" lon="2.36739">
        <ele>94.5</ele>
        <time>2015-04-06T19:18:56.905Z</time>
      </trkpt>
      <trkpt lat="48.86247" lon="2.36741">
        <ele>94.7</ele>
        <time>2015-04-06T19:18:59.862Z</time>
      </trkpt>
      <trkpt lat="48.86243" lon="2.36741">
        <ele>94.5</ele>
        <time>2015-04-06T19:19:00.881Z</time>
      </trkpt>
      <trkpt lat="48.86235" lon="2.36739">
        <ele>93.9</ele>
        <time>2015-04-06T19:19:02.791Z</time>
      </trkpt>
      <trkpt lat="48.86231" lon="2.36738">
        <ele>93.7</ele>
        <time>2015-04-06T19:19:03.798Z</time>
      </trkpt>
      <trkpt lat="48.86225" lon="2.36737">
        <ele>93.3</ele>
        <time>2015-04-06T19:19:05.833Z</time>
      </trkpt>
      <trkpt lat="48.86215" lon="2.36741">
        <ele>93.3</ele>
        <time>2015-04-06T19:19:08.834Z</time>
      </trkpt>
      <trkpt lat="48.86208" lon="2.36743">
        <ele>93.4</ele>
        <time>2015-04-06T19:19:11.340Z</time>
      </trkpt>
      <trkpt lat="48.86204" lon="2.36743">
        <ele>93.3</ele>
        <time>2015-04-06T19:19:11.819Z</time>
      </trkpt>
      <trkpt lat="48.86201" lon="2.36745">
        <ele>93.3</ele>
        <time>2015-04-06T19:19:12.837Z</time>
      </trkpt>
      <trkpt lat="48.86193" lon="2.36748">
        <ele>93.2</ele>
        <time>2015-04-06T19:19:14.863Z</time>
      </trkpt>
      <trkpt lat="48.86187" lon="2.36748">
        <ele>93.3</ele>
        <time>2015-04-06T19:19:16.792Z</time>
      </trkpt>
      <trkpt lat="48.86183" lon="2.36749">
        <ele>93.3</ele>
        <time>2015-04-06T19:19:17.794Z</time>
      </trkpt>
      <trkpt lat="48.86176" lon="2.36755">
        <ele>93.2</ele>
        <time>2015-04-06T19:19:19.842Z</time>
      </trkpt>
      <trkpt lat="48.86173" lon="2.36758">
        <ele>93.2</ele>
        <time>2015-04-06T19:19:20.855Z</time>
      </trkpt>
      <trkpt lat="48.86167" lon="2.36759">
        <ele>93.3</ele>
        <time>2015-04-06T19:19:22.877Z</time>
      </trkpt>
      <trkpt lat="48.86164" lon="2.3676">
        <ele>93.3</ele>
        <time>2015-04-06T19:19:23.883Z</time>
      </trkpt>
      <trkpt lat="48.86158" lon="2.36763">
        <ele>93.3</ele>
        <time>2015-04-06T19:19:26.563Z</time>
      </trkpt>
      <trkpt lat="48.86155" lon="2.36765">
        <ele>93.3</ele>
        <time>2015-04-06T19:19:26.850Z</time>
      </trkpt>
      <trkpt lat="48.8615" lon="2.36769">
        <ele>93.4</ele>
        <time>2015-04-06T19:19:28.845Z</time>
      </trkpt>
      <trkpt lat="48.86147" lon="2.3677">
        <ele>93.4</ele>
        <time>2015-04-06T19:19:29.860Z</time>
      </trkpt>
      <trkpt lat="48.86139" lon="2.36772">
        <ele>93.5</ele>
        <time>2015-04-06T19:19:32.782Z</time>
      </trkpt>
      <trkpt lat="48.86136" lon="2.36774">
        <ele>93.5</ele>
        <time>2015-04-06T19:19:33.787Z</time>
      </trkpt>
      <trkpt lat="48.86129" lon="2.36778">
        <ele>93.6</ele>
        <time>2015-04-06T19:19:37.815Z</time>
      </trkpt>
      <trkpt lat="48.86127" lon="2.36779">
        <ele>93.6</ele>
        <time>2015-04-06T19:19:38.820Z</time>
      </trkpt>
      <trkpt lat="48.86124" lon="2.36787">
        <ele>93.8</ele>
        <time>2015-04-06T19:19:45.948Z</time>
      </trkpt>
      <trkpt lat="48.86125" lon="2.3681">
        <ele>93.4</ele>
        <time>2015-04-06T19:19:51.806Z</time>
      </trkpt>
      <trkpt lat="48.86126" lon="2.36822">
        <ele>92.6</ele>
        <time>2015-04-06T19:19:53.858Z</time>
      </trkpt>
      <trkpt lat="48.86126" lon="2.36827">
        <ele>92.5</ele>
        <time>2015-04-06T19:19:54.867Z</time>
      </trkpt>
      <trkpt lat="48.86129" lon="2.36838">
        <ele>92.2</ele>
        <time>2015-04-06T19:19:56.800Z</time>
      </trkpt>
      <trkpt lat="48.86132" lon="2.36842">
        <ele>92.1</ele>
        <time>2015-04-06T19:19:57.789Z</time>
      </trkpt>
      <trkpt lat="48.86138" lon="2.36852">
        <ele>91.8</ele>
        <time>2015-04-06T19:19:59.810Z</time>
      </trkpt>
      <trkpt lat="48.8614" lon="2.36856">
        <ele>91.7</ele>
        <time>2015-04-06T19:20:00.832Z</time>
      </trkpt>
      <trkpt lat="48.86145" lon="2.36864">
        <ele>91.6</ele>
        <time>2015-04-06T19:20:02.802Z</time>
      </trkpt>
      <trkpt lat="48.86146" lon="2.36869">
        <ele>91.6</ele>
        <time>2015-04-06T19:20:03.889Z</time>
      </trkpt>
      <trkpt lat="48.8615" lon="2.36878">
        <ele>91.6</ele>
        <time>2015-04-06T19:20:06.528Z</time>
      </trkpt>
      <trkpt lat="48.86153" lon="2.36883">
        <ele>91.6</ele>
        <time>2015-04-06T19:20:06.776Z</time>
      </trkpt>
      <trkpt lat="48.86158" lon="2.36892">
        <ele>91.7</ele>
        <time>2015-04-06T19:20:08.859Z</time>
      </trkpt>
      <trkpt lat="48.86158" lon="2.36897">
        <ele>91.8</ele>
        <time>2015-04-06T19:20:09.760Z</time>
      </trkpt>
      <trkpt lat="48.86162" lon="2.36904">
        <ele>91.7</ele>
        <time>2015-04-06T19:20:11.914Z</time>
      </trkpt>
      <trkpt lat="48.86165" lon="2.36907">
        <ele>91.7</ele>
        <time>2015-04-06T19:20:12.801Z</time>
      </trkpt>
      <trkpt lat="48.86167" lon="2.36918">
        <ele>91.6</ele>
        <time>2015-04-06T19:20:16.693Z</time>
      </trkpt>
      <trkpt lat="48.86168" lon="2.36924">
        <ele>91.6</ele>
        <time>2015-04-06T19:20:16.789Z</time>
      </trkpt>
      <trkpt lat="48.86169" lon="2.36929">
        <ele>91.5</ele>
        <time>2015-04-06T19:20:17.804Z</time>
      </trkpt>
      <trkpt lat="48.86178" lon="2.36962">
        <ele>91.5</ele>
        <time>2015-04-06T19:20:24.808Z</time>
      </trkpt>
      <trkpt lat="48.86181" lon="2.3697">
        <ele>91.5</ele>
        <time>2015-04-06T19:20:26.912Z</time>
      </trkpt>
      <trkpt lat="48.86182" lon="2.36975">
        <ele>91.5</ele>
        <time>2015-04-06T19:20:27.787Z</time>
      </trkpt>
      <trkpt lat="48.86185" lon="2.36984">
        <ele>91.5</ele>
        <time>2015-04-06T19:20:29.788Z</time>
      </trkpt>
      <trkpt lat="48.86186" lon="2.36988">
        <ele>91.6</ele>
        <time>2015-04-06T19:20:30.799Z</time>
      </trkpt>
      <trkpt lat="48.86188" lon="2.37">
        <ele>91.5</ele>
        <time>2015-04-06T19:20:33.871Z</time>
      </trkpt>
      <trkpt lat="48.86187" lon="2.37003">
        <ele>91.4</ele>
        <time>2015-04-06T19:20:34.885Z</time>
      </trkpt>
      <trkpt lat="48.86188" lon="2.37013">
        <ele>91.1</ele>
        <time>2015-04-06T19:20:37.076Z</time>
      </trkpt>
      <trkpt lat="48.8619" lon="2.37018">
        <ele>91</ele>
        <time>2015-04-06T19:20:37.863Z</time>
      </trkpt>
      <trkpt lat="48.86193" lon="2.3703">
        <ele>90.7</ele>
        <time>2015-04-06T19:20:39.847Z</time>
      </trkpt>
      <trkpt lat="48.86194" lon="2.37035">
        <ele>90.6</ele>
        <time>2015-04-06T19:20:40.809Z</time>
      </trkpt>
      <trkpt lat="48.86198" lon="2.37045">
        <ele>90.7</ele>
        <time>2015-04-06T19:20:42.847Z</time>
      </trkpt>
      <trkpt lat="48.86199" lon="2.3705">
        <ele>90.6</ele>
        <time>2015-04-06T19:20:43.857Z</time>
      </trkpt>
      <trkpt lat="48.86203" lon="2.37062">
        <ele>90.2</ele>
        <time>2015-04-06T19:20:46.795Z</time>
      </trkpt>
      <trkpt lat="48.86203" lon="2.37065">
        <ele>90.2</ele>
        <time>2015-04-06T19:20:47.780Z</time>
      </trkpt>
      <trkpt lat="48.86204" lon="2.37077">
        <ele>90.7</ele>
        <time>2015-04-06T19:20:50.960Z</time>
      </trkpt>
      <trkpt lat="48.86206" lon="2.37081">
        <ele>90.9</ele>
        <time>2015-04-06T19:20:51.868Z</time>
      </trkpt>
      <trkpt lat="48.86208" lon="2.37091">
        <ele>91.5</ele>
        <time>2015-04-06T19:20:53.849Z</time>
      </trkpt>
      <trkpt lat="48.86209" lon="2.37097">
        <ele>92</ele>
        <time>2015-04-06T19:20:54.797Z</time>
      </trkpt>
      <trkpt lat="48.8621" lon="2.37108">
        <ele>92</ele>
        <time>2015-04-06T19:20:56.860Z</time>
      </trkpt>
      <trkpt lat="48.8621" lon="2.37112">
        <ele>91.8</ele>
        <time>2015-04-06T19:20:57.790Z</time>
      </trkpt>
      <trkpt lat="48.86211" lon="2.37123">
        <ele>92.1</ele>
        <time>2015-04-06T19:20:59.860Z</time>
      </trkpt>
      <trkpt lat="48.86212" lon="2.37127">
        <ele>92.1</ele>
        <time>2015-04-06T19:21:00.792Z</time>
      </trkpt>
      <trkpt lat="48.86214" lon="2.37137">
        <ele>92.4</ele>
        <time>2015-04-06T19:21:02.853Z</time>
      </trkpt>
      <trkpt lat="48.86215" lon="2.37143">
        <ele>92.6</ele>
        <time>2015-04-06T19:21:03.882Z</time>
      </trkpt>
      <trkpt lat="48.86218" lon="2.37153">
        <ele>92.8</ele>
        <time>2015-04-06T19:21:06.215Z</time>
      </trkpt>
      <trkpt lat="48.86218" lon="2.37158">
        <ele>92.9</ele>
        <time>2015-04-06T19:21:06.813Z</time>
      </trkpt>
      <trkpt lat="48.86222" lon="2.37187">
        <ele>93.4</ele>
        <time>2015-04-06T19:21:13.864Z</time>
      </trkpt>
      <trkpt lat="48.86219" lon="2.37198">
        <ele>93.7</ele>
        <time>2015-04-06T19:21:17.895Z</time>
      </trkpt>
      <trkpt lat="48.86216" lon="2.372">
        <ele>94</ele>
        <time>2015-04-06T19:21:18.812Z</time>
      </trkpt>
      <trkpt lat="48.86208" lon="2.37205">
        <ele>95.5</ele>
        <time>2015-04-06T19:21:21.909Z</time>
      </trkpt>
      <trkpt lat="48.86205" lon="2.37206">
        <ele>95.8</ele>
        <time>2015-04-06T19:21:22.821Z</time>
      </trkpt>
      <trkpt lat="48.86197" lon="2.37212">
        <ele>96.6</ele>
        <time>2015-04-06T19:21:26.512Z</time>
      </trkpt>
      <trkpt lat="48.86195" lon="2.37214">
        <ele>96.9</ele>
        <time>2015-04-06T19:21:26.863Z</time>
      </trkpt>
      <trkpt lat="48.8619" lon="2.37221">
        <ele>97.9</ele>
        <time>2015-04-06T19:21:28.816Z</time>
      </trkpt>
      <trkpt lat="48.86188" lon="2.37224">
        <ele>98.3</ele>
        <time>2015-04-06T19:21:29.854Z</time>
      </trkpt>
      <trkpt lat="48.86187" lon="2.37237">
        <ele>100</ele>
        <time>2015-04-06T19:23:20.893Z</time>
      </trkpt>
      <trkpt lat="48.86218" lon="2.37269">
        <ele>104.1</ele>
        <time>2015-04-06T19:23:22.082Z</time>
      </trkpt>
      <trkpt lat="48.86223" lon="2.37263">
        <ele>104.4</ele>
        <time>2015-04-06T19:23:24.867Z</time>
      </trkpt>
      <trkpt lat="48.86226" lon="2.3726">
        <ele>104.5</ele>
        <time>2015-04-06T19:23:25.817Z</time>
      </trkpt>
      <trkpt lat="48.86233" lon="2.37256">
        <ele>104.7</ele>
        <time>2015-04-06T19:23:27.873Z</time>
      </trkpt>
      <trkpt lat="48.86236" lon="2.37254">
        <ele>104.6</ele>
        <time>2015-04-06T19:23:28.891Z</time>
      </trkpt>
      <trkpt lat="48.86243" lon="2.37249">
        <ele>104.8</ele>
        <time>2015-04-06T19:23:30.844Z</time>
      </trkpt>
      <trkpt lat="48.86247" lon="2.37247">
        <ele>104.9</ele>
        <time>2015-04-06T19:23:31.881Z</time>
      </trkpt>
      <trkpt lat="48.86253" lon="2.37242">
        <ele>105.2</ele>
        <time>2015-04-06T19:23:33.828Z</time>
      </trkpt>
      <trkpt lat="48.86257" lon="2.37239">
        <ele>105.1</ele>
        <time>2015-04-06T19:23:34.870Z</time>
      </trkpt>
      <trkpt lat="48.86263" lon="2.37232">
        <ele>104.5</ele>
        <time>2015-04-06T19:23:37.492Z</time>
      </trkpt>
      <trkpt lat="48.86267" lon="2.37231">
        <ele>104.2</ele>
        <time>2015-04-06T19:23:37.886Z</time>
      </trkpt>
      <trkpt lat="48.86275" lon="2.37226">
        <ele>103.2</ele>
        <time>2015-04-06T19:23:39.860Z</time>
      </trkpt>
      <trkpt lat="48.86279" lon="2.37224">
        <ele>102.9</ele>
        <time>2015-04-06T19:23:40.866Z</time>
      </trkpt>
      <trkpt lat="48.86286" lon="2.3722">
        <ele>102.2</ele>
        <time>2015-04-06T19:23:42.815Z</time>
      </trkpt>
      <trkpt lat="48.86289" lon="2.37218">
        <ele>101.8</ele>
        <time>2015-04-06T19:23:43.867Z</time>
      </trkpt>
      <trkpt lat="48.86297" lon="2.37213">
        <ele>101.8</ele>
        <time>2015-04-06T19:23:45.957Z</time>
      </trkpt>
      <trkpt lat="48.86302" lon="2.37209">
        <ele>101.6</ele>
        <time>2015-04-06T19:23:46.823Z</time>
      </trkpt>
      <trkpt lat="48.86308" lon="2.37205">
        <ele>101.3</ele>
        <time>2015-04-06T19:23:47.828Z</time>
      </trkpt>
      <trkpt lat="48.86314" lon="2.37201">
        <ele>101.2</ele>
        <time>2015-04-06T19:23:48.855Z</time>
      </trkpt>
      <trkpt lat="48.86318" lon="2.37198">
        <ele>101</ele>
        <time>2015-04-06T19:23:49.887Z</time>
      </trkpt>
      <trkpt lat="48.86323" lon="2.37194">
        <ele>100.9</ele>
        <time>2015-04-06T19:23:50.817Z</time>
      </trkpt>
      <trkpt lat="48.86328" lon="2.37192">
        <ele>100.6</ele>
        <time>2015-04-06T19:23:51.818Z</time>
      </trkpt>
      <trkpt lat="48.86333" lon="2.37187">
        <ele>100.4</ele>
        <time>2015-04-06T19:23:52.821Z</time>
      </trkpt>
      <trkpt lat="48.86337" lon="2.37182">
        <ele>100.5</ele>
        <time>2015-04-06T19:23:53.829Z</time>
      </trkpt>
      <trkpt lat="48.86342" lon="2.37178">
        <ele>100.2</ele>
        <time>2015-04-06T19:23:54.844Z</time>
      </trkpt>
      <trkpt lat="48.86346" lon="2.37173">
        <ele>99.9</ele>
        <time>2015-04-06T19:23:56.179Z</time>
      </trkpt>
      <trkpt lat="48.8635" lon="2.3717">
        <ele>99.5</ele>
        <time>2015-04-06T19:23:56.877Z</time>
      </trkpt>
      <trkpt lat="48.86357" lon="2.37163">
        <ele>98.9</ele>
        <time>2015-04-06T19:23:58.899Z</time>
      </trkpt>
      <trkpt lat="48.8636" lon="2.37159">
        <ele>98.8</ele>
        <time>2015-04-06T19:23:59.811Z</time>
      </trkpt>
      <trkpt lat="48.86368" lon="2.37152">
        <ele>98.4</ele>
        <time>2015-04-06T19:24:01.922Z</time>
      </trkpt>
      <trkpt lat="48.86373" lon="2.37149">
        <ele>98.4</ele>
        <time>2015-04-06T19:24:02.826Z</time>
      </trkpt>
      <trkpt lat="48.86377" lon="2.37146">
        <ele>98.5</ele>
        <time>2015-04-06T19:24:03.823Z</time>
      </trkpt>
      <trkpt lat="48.86382" lon="2.37142">
        <ele>98.6</ele>
        <time>2015-04-06T19:24:04.864Z</time>
      </trkpt>
      <trkpt lat="48.8639" lon="2.37136">
        <ele>99</ele>
        <time>2015-04-06T19:24:06.955Z</time>
      </trkpt>
      <trkpt lat="48.86394" lon="2.37132">
        <ele>99.4</ele>
        <time>2015-04-06T19:24:07.881Z</time>
      </trkpt>
      <trkpt lat="48.864" lon="2.37124">
        <ele>99.2</ele>
        <time>2015-04-06T19:24:09.811Z</time>
      </trkpt>
      <trkpt lat="48.86403" lon="2.3712">
        <ele>99</ele>
        <time>2015-04-06T19:24:10.799Z</time>
      </trkpt>
      <trkpt lat="48.8641" lon="2.37113">
        <ele>98.9</ele>
        <time>2015-04-06T19:24:12.856Z</time>
      </trkpt>
      <trkpt lat="48.86414" lon="2.37111">
        <ele>99.2</ele>
        <time>2015-04-06T19:24:13.882Z</time>
      </trkpt>
      <trkpt lat="48.86421" lon="2.37108">
        <ele>99.1</ele>
        <time>2015-04-06T19:24:16.329Z</time>
      </trkpt>
      <trkpt lat="48.86423" lon="2.37106">
        <ele>98.7</ele>
        <time>2015-04-06T19:24:16.824Z</time>
      </trkpt>
      <trkpt lat="48.86429" lon="2.37102">
        <ele>99.1</ele>
        <time>2015-04-06T19:24:18.845Z</time>
      </trkpt>
      <trkpt lat="48.86432" lon="2.371">
        <ele>99.2</ele>
        <time>2015-04-06T19:24:19.858Z</time>
      </trkpt>
      <trkpt lat="48.86438" lon="2.37096">
        <ele>98.9</ele>
        <time>2015-04-06T19:24:21.875Z</time>
      </trkpt>
      <trkpt lat="48.8644" lon="2.37093">
        <ele>98.8</ele>
        <time>2015-04-06T19:24:22.785Z</time>
      </trkpt>
      <trkpt lat="48.86445" lon="2.37091">
        <ele>98.5</ele>
        <time>2015-04-06T19:24:24.868Z</time>
      </trkpt>
      <trkpt lat="48.8645" lon="2.37087">
        <ele>95.5</ele>
        <time>2015-04-06T19:24:25.858Z</time>
      </trkpt>
      <trkpt lat="48.86455" lon="2.37083">
        <ele>95.4</ele>
        <time>2015-04-06T19:24:27.877Z</time>
      </trkpt>
      <trkpt lat="48.86458" lon="2.3708">
        <ele>95.5</ele>
        <time>2015-04-06T19:24:28.884Z</time>
      </trkpt>
      <trkpt lat="48.86464" lon="2.37073">
        <ele>93.5</ele>
        <time>2015-04-06T19:24:29.799Z</time>
      </trkpt>
      <trkpt lat="48.8647" lon="2.37069">
        <ele>92.1</ele>
        <time>2015-04-06T19:24:30.808Z</time>
      </trkpt>
      <trkpt lat="48.86475" lon="2.37065">
        <ele>91.3</ele>
        <time>2015-04-06T19:24:31.831Z</time>
      </trkpt>
      <trkpt lat="48.86479" lon="2.37061">
        <ele>91.1</ele>
        <time>2015-04-06T19:24:32.846Z</time>
      </trkpt>
      <trkpt lat="48.86485" lon="2.37056">
        <ele>91.9</ele>
        <time>2015-04-06T19:24:34.803Z</time>
      </trkpt>
      <trkpt lat="48.86488" lon="2.37053">
        <ele>92.2</ele>
        <time>2015-04-06T19:24:35.802Z</time>
      </trkpt>
      <trkpt lat="48.86495" lon="2.37046">
        <ele>92.6</ele>
        <time>2015-04-06T19:24:37.836Z</time>
      </trkpt>
      <trkpt lat="48.86498" lon="2.37044">
        <ele>92.9</ele>
        <time>2015-04-06T19:24:38.837Z</time>
      </trkpt>
      <trkpt lat="48.86505" lon="2.37038">
        <ele>93.6</ele>
        <time>2015-04-06T19:24:40.861Z</time>
      </trkpt>
      <trkpt lat="48.86509" lon="2.37038">
        <ele>94.1</ele>
        <time>2015-04-06T19:24:41.763Z</time>
      </trkpt>
      <trkpt lat="48.86516" lon="2.37034">
        <ele>94.3</ele>
        <time>2015-04-06T19:24:43.873Z</time>
      </trkpt>
      <trkpt lat="48.86521" lon="2.37031">
        <ele>94.3</ele>
        <time>2015-04-06T19:24:44.792Z</time>
      </trkpt>
      <trkpt lat="48.86529" lon="2.37028">
        <ele>94.7</ele>
        <time>2015-04-06T19:24:46.842Z</time>
      </trkpt>
      <trkpt lat="48.86533" lon="2.37025">
        <ele>94.7</ele>
        <time>2015-04-06T19:24:47.861Z</time>
      </trkpt>
      <trkpt lat="48.86537" lon="2.37022">
        <ele>94.7</ele>
        <time>2015-04-06T19:24:48.873Z</time>
      </trkpt>
      <trkpt lat="48.86541" lon="2.37018">
        <ele>94.8</ele>
        <time>2015-04-06T19:24:49.956Z</time>
      </trkpt>
      <trkpt lat="48.86547" lon="2.37012">
        <ele>94.8</ele>
        <time>2015-04-06T19:24:51.849Z</time>
      </trkpt>
      <trkpt lat="48.8655" lon="2.37009">
        <ele>94.9</ele>
        <time>2015-04-06T19:24:52.851Z</time>
      </trkpt>
      <trkpt lat="48.86556" lon="2.37004">
        <ele>95.5</ele>
        <time>2015-04-06T19:24:55.837Z</time>
      </trkpt>
      <trkpt lat="48.86558" lon="2.37003">
        <ele>95.8</ele>
        <time>2015-04-06T19:24:56.855Z</time>
      </trkpt>
      <trkpt lat="48.8656" lon="2.37003">
        <ele>96</ele>
        <time>2015-04-06T19:25:01.885Z</time>
      </trkpt>
      <trkpt lat="48.86568" lon="2.37007">
        <ele>96.3</ele>
        <time>2015-04-06T19:25:02.862Z</time>
      </trkpt>
      <trkpt lat="48.86571" lon="2.37017">
        <ele>95.7</ele>
        <time>2015-04-06T19:25:06.378Z</time>
      </trkpt>
      <trkpt lat="48.86572" lon="2.37021">
        <ele>95.8</ele>
        <time>2015-04-06T19:25:06.882Z</time>
      </trkpt>
      <trkpt lat="48.86579" lon="2.37029">
        <ele>96.8</ele>
        <time>2015-04-06T19:25:10.873Z</time>
      </trkpt>
      <trkpt lat="48.8658" lon="2.3703">
        <ele>97.2</ele>
        <time>2015-04-06T19:25:11.825Z</time>
      </trkpt>
      <trkpt lat="48.8658" lon="2.37031">
        <ele>97.8</ele>
        <time>2015-04-06T19:25:18.891Z</time>
      </trkpt>
      <trkpt lat="48.86585" lon="2.37044">
        <ele>93.9</ele>
        <time>2015-04-06T19:25:19.897Z</time>
      </trkpt>
      <trkpt lat="48.86586" lon="2.37058">
        <ele>93.7</ele>
        <time>2015-04-06T19:25:22.869Z</time>
      </trkpt>
      <trkpt lat="48.86587" lon="2.37061">
        <ele>93.8</ele>
        <time>2015-04-06T19:25:23.916Z</time>
      </trkpt>
      <trkpt lat="48.8659" lon="2.3707">
        <ele>94.7</ele>
        <time>2015-04-06T19:25:26.928Z</time>
      </trkpt>
      <trkpt lat="48.86591" lon="2.37074">
        <ele>94.8</ele>
        <time>2015-04-06T19:25:27.808Z</time>
      </trkpt>
      <trkpt lat="48.86594" lon="2.37084">
        <ele>94.5</ele>
        <time>2015-04-06T19:25:30.844Z</time>
      </trkpt>
      <trkpt lat="48.86595" lon="2.37088">
        <ele>94.5</ele>
        <time>2015-04-06T19:25:31.854Z</time>
      </trkpt>
      <trkpt lat="48.866" lon="2.37096">
        <ele>94.6</ele>
        <time>2015-04-06T19:25:35.892Z</time>
      </trkpt>
      <trkpt lat="48.86603" lon="2.37098">
        <ele>94.5</ele>
        <time>2015-04-06T19:25:36.818Z</time>
      </trkpt>
      <trkpt lat="48.86607" lon="2.37104">
        <ele>94.5</ele>
        <time>2015-04-06T19:25:38.863Z</time>
      </trkpt>
      <trkpt lat="48.8661" lon="2.37108">
        <ele>94.7</ele>
        <time>2015-04-06T19:25:39.887Z</time>
      </trkpt>
      <trkpt lat="48.86614" lon="2.37119">
        <ele>95.1</ele>
        <time>2015-04-06T19:25:41.987Z</time>
      </trkpt>
      <trkpt lat="48.86616" lon="2.37122">
        <ele>95.1</ele>
        <time>2015-04-06T19:25:43.899Z</time>
      </trkpt>
      <trkpt lat="48.86619" lon="2.37132">
        <ele>95.3</ele>
        <time>2015-04-06T19:25:45.967Z</time>
      </trkpt>
      <trkpt lat="48.86621" lon="2.37136">
        <ele>95.2</ele>
        <time>2015-04-06T19:25:46.903Z</time>
      </trkpt>
      <trkpt lat="48.86623" lon="2.37146">
        <ele>95.2</ele>
        <time>2015-04-06T19:25:48.812Z</time>
      </trkpt>
      <trkpt lat="48.86626" lon="2.37151">
        <ele>95.3</ele>
        <time>2015-04-06T19:25:49.846Z</time>
      </trkpt>
      <trkpt lat="48.86634" lon="2.37157">
        <ele>94.9</ele>
        <time>2015-04-06T19:25:51.847Z</time>
      </trkpt>
      <trkpt lat="48.86637" lon="2.37161">
        <ele>94.7</ele>
        <time>2015-04-06T19:25:52.859Z</time>
      </trkpt>
      <trkpt lat="48.86643" lon="2.37167">
        <ele>94.7</ele>
        <time>2015-04-06T19:25:54.882Z</time>
      </trkpt>
      <trkpt lat="48.86645" lon="2.37171">
        <ele>94.5</ele>
        <time>2015-04-06T19:25:55.924Z</time>
      </trkpt>
      <trkpt lat="48.86644" lon="2.37184">
        <ele>94.8</ele>
        <time>2015-04-06T19:25:58.825Z</time>
      </trkpt>
      <trkpt lat="48.86642" lon="2.3719">
        <ele>94.6</ele>
        <time>2015-04-06T19:25:59.834Z</time>
      </trkpt>
      <trkpt lat="48.86646" lon="2.37201">
        <ele>94.3</ele>
        <time>2015-04-06T19:26:07.863Z</time>
      </trkpt>
      <trkpt lat="48.86647" lon="2.37204">
        <ele>94.5</ele>
        <time>2015-04-06T19:26:08.881Z</time>
      </trkpt>
      <trkpt lat="48.86652" lon="2.37211">
        <ele>95.2</ele>
        <time>2015-04-06T19:26:11.816Z</time>
      </trkpt>
      <trkpt lat="48.86654" lon="2.37213">
        <ele>95.2</ele>
        <time>2015-04-06T19:26:12.831Z</time>
      </trkpt>
      <trkpt lat="48.86659" lon="2.37221">
        <ele>95.5</ele>
        <time>2015-04-06T19:26:14.853Z</time>
      </trkpt>
      <trkpt lat="48.86662" lon="2.37228">
        <ele>95.7</ele>
        <time>2015-04-06T19:26:15.861Z</time>
      </trkpt>
      <trkpt lat="48.86664" lon="2.37234">
        <ele>96.1</ele>
        <time>2015-04-06T19:26:16.764Z</time>
      </trkpt>
      <trkpt lat="48.86665" lon="2.37241">
        <ele>96.5</ele>
        <time>2015-04-06T19:26:17.792Z</time>
      </trkpt>
      <trkpt lat="48.86668" lon="2.37253">
        <ele>97.1</ele>
        <time>2015-04-06T19:26:19.869Z</time>
      </trkpt>
      <trkpt lat="48.86668" lon="2.37261">
        <ele>97.1</ele>
        <time>2015-04-06T19:26:20.830Z</time>
      </trkpt>
      <trkpt lat="48.86668" lon="2.37269">
        <ele>97.2</ele>
        <time>2015-04-06T19:26:21.857Z</time>
      </trkpt>
      <trkpt lat="48.8667" lon="2.37275">
        <ele>97.2</ele>
        <time>2015-04-06T19:26:22.865Z</time>
      </trkpt>
      <trkpt lat="48.86673" lon="2.37285">
        <ele>97.4</ele>
        <time>2015-04-06T19:26:24.782Z</time>
      </trkpt>
      <trkpt lat="48.86675" lon="2.37289">
        <ele>97.6</ele>
        <time>2015-04-06T19:26:25.857Z</time>
      </trkpt>
      <trkpt lat="48.86678" lon="2.37296">
        <ele>97.8</ele>
        <time>2015-04-06T19:26:27.812Z</time>
      </trkpt>
      <trkpt lat="48.86679" lon="2.37302">
        <ele>97.9</ele>
        <time>2015-04-06T19:26:28.823Z</time>
      </trkpt>
      <trkpt lat="48.86685" lon="2.37311">
        <ele>97.9</ele>
        <time>2015-04-06T19:26:31.873Z</time>
      </trkpt>
      <trkpt lat="48.86685" lon="2.37315">
        <ele>98.2</ele>
        <time>2015-04-06T19:26:32.817Z</time>
      </trkpt>
      <trkpt lat="48.86684" lon="2.37328">
        <ele>98.9</ele>
        <time>2015-04-06T19:26:36.850Z</time>
      </trkpt>
      <trkpt lat="48.86684" lon="2.37329">
        <ele>99</ele>
        <time>2015-04-06T19:26:37.881Z</time>
      </trkpt>
      <trkpt lat="48.86684" lon="2.3733">
        <ele>99.2</ele>
        <time>2015-04-06T19:26:52.878Z</time>
      </trkpt>
      <trkpt lat="48.86684" lon="2.37345">
        <ele>102</ele>
        <time>2015-04-06T19:26:53.791Z</time>
      </trkpt>
      <trkpt lat="48.86677" lon="2.37349">
        <ele>102.9</ele>
        <time>2015-04-06T19:26:55.859Z</time>
      </trkpt>
      <trkpt lat="48.86674" lon="2.37351">
        <ele>103.5</ele>
        <time>2015-04-06T19:26:56.860Z</time>
      </trkpt>
      <trkpt lat="48.86669" lon="2.37359">
        <ele>104.3</ele>
        <time>2015-04-06T19:26:58.804Z</time>
      </trkpt>
      <trkpt lat="48.86669" lon="2.37364">
        <ele>104.9</ele>
        <time>2015-04-06T19:26:59.834Z</time>
      </trkpt>
      <trkpt lat="48.86668" lon="2.37374">
        <ele>104.2</ele>
        <time>2015-04-06T19:27:02.828Z</time>
      </trkpt>
      <trkpt lat="48.86668" lon="2.37379">
        <ele>104</ele>
        <time>2015-04-06T19:27:03.886Z</time>
      </trkpt>
      <trkpt lat="48.8667" lon="2.3739">
        <ele>103.7</ele>
        <time>2015-04-06T19:27:06.821Z</time>
      </trkpt>
      <trkpt lat="48.8667" lon="2.37394">
        <ele>103.8</ele>
        <time>2015-04-06T19:27:07.858Z</time>
      </trkpt>
      <trkpt lat="48.86663" lon="2.374">
        <ele>105.4</ele>
        <time>2015-04-06T19:27:13.885Z</time>
      </trkpt>
      <trkpt lat="48.8666" lon="2.37401">
        <ele>105.7</ele>
        <time>2015-04-06T19:27:14.799Z</time>
      </trkpt>
      <trkpt lat="48.86652" lon="2.37407">
        <ele>106.3</ele>
        <time>2015-04-06T19:27:16.839Z</time>
      </trkpt>
      <trkpt lat="48.86649" lon="2.37409">
        <ele>106.6</ele>
        <time>2015-04-06T19:27:17.852Z</time>
      </trkpt>
      <trkpt lat="48.86643" lon="2.37413">
        <ele>107.1</ele>
        <time>2015-04-06T19:27:19.835Z</time>
      </trkpt>
      <trkpt lat="48.8664" lon="2.37416">
        <ele>106.9</ele>
        <time>2015-04-06T19:27:20.847Z</time>
      </trkpt>
      <trkpt lat="48.86633" lon="2.3742">
        <ele>106.2</ele>
        <time>2015-04-06T19:27:22.808Z</time>
      </trkpt>
      <trkpt lat="48.86629" lon="2.37424">
        <ele>106</ele>
        <time>2015-04-06T19:27:23.818Z</time>
      </trkpt>
      <trkpt lat="48.86621" lon="2.37427">
        <ele>105.4</ele>
        <time>2015-04-06T19:27:25.839Z</time>
      </trkpt>
      <trkpt lat="48.86618" lon="2.3743">
        <ele>105.2</ele>
        <time>2015-04-06T19:27:26.845Z</time>
      </trkpt>
      <trkpt lat="48.86612" lon="2.37435">
        <ele>104.8</ele>
        <time>2015-04-06T19:27:28.875Z</time>
      </trkpt>
      <trkpt lat="48.86608" lon="2.37437">
        <ele>104.7</ele>
        <time>2015-04-06T19:27:29.881Z</time>
      </trkpt>
      <trkpt lat="48.86604" lon="2.3744">
        <ele>104.4</ele>
        <time>2015-04-06T19:27:30.815Z</time>
      </trkpt>
      <trkpt lat="48.866" lon="2.37442">
        <ele>104.3</ele>
        <time>2015-04-06T19:27:31.818Z</time>
      </trkpt>
      <trkpt lat="48.86592" lon="2.37444">
        <ele>104</ele>
        <time>2015-04-06T19:27:32.823Z</time>
      </trkpt>
      <trkpt lat="48.86586" lon="2.37446">
        <ele>103.7</ele>
        <time>2015-04-06T19:27:33.829Z</time>
      </trkpt>
      <trkpt lat="48.86581" lon="2.37449">
        <ele>103.5</ele>
        <time>2015-04-06T19:27:34.847Z</time>
      </trkpt>
      <trkpt lat="48.86575" lon="2.37452">
        <ele>103.3</ele>
        <time>2015-04-06T19:27:35.851Z</time>
      </trkpt>
      <trkpt lat="48.86571" lon="2.37456">
        <ele>103.2</ele>
        <time>2015-04-06T19:27:36.859Z</time>
      </trkpt>
      <trkpt lat="48.86565" lon="2.3746">
        <ele>103</ele>
        <time>2015-04-06T19:27:37.867Z</time>
      </trkpt>
      <trkpt lat="48.86562" lon="2.37464">
        <ele>102.8</ele>
        <time>2015-04-06T19:27:38.769Z</time>
      </trkpt>
      <trkpt lat="48.86557" lon="2.37467">
        <ele>102.7</ele>
        <time>2015-04-06T19:27:39.772Z</time>
      </trkpt>
      <trkpt lat="48.8655" lon="2.37471">
        <ele>102.5</ele>
        <time>2015-04-06T19:27:41.796Z</time>
      </trkpt>
      <trkpt lat="48.86547" lon="2.3747">
        <ele>102.4</ele>
        <time>2015-04-06T19:27:42.814Z</time>
      </trkpt>
      <trkpt lat="48.86544" lon="2.3747">
        <ele>102.3</ele>
        <time>2015-04-06T19:27:43.851Z</time>
      </trkpt>
      <trkpt lat="48.8653" lon="2.37475">
        <ele>101.8</ele>
        <time>2015-04-06T19:27:49.841Z</time>
      </trkpt>
      <trkpt lat="48.86526" lon="2.37484">
        <ele>101.9</ele>
        <time>2015-04-06T19:28:16.807Z</time>
      </trkpt>
      <trkpt lat="48.86523" lon="2.37487">
        <ele>102.6</ele>
        <time>2015-04-06T19:28:17.824Z</time>
      </trkpt>
      <trkpt lat="48.86519" lon="2.37496">
        <ele>104.2</ele>
        <time>2015-04-06T19:28:19.856Z</time>
      </trkpt>
      <trkpt lat="48.86517" lon="2.375">
        <ele>104.9</ele>
        <time>2015-04-06T19:28:20.870Z</time>
      </trkpt>
      <trkpt lat="48.86514" lon="2.37509">
        <ele>105.4</ele>
        <time>2015-04-06T19:28:22.816Z</time>
      </trkpt>
      <trkpt lat="48.86514" lon="2.37515">
        <ele>104.3</ele>
        <time>2015-04-06T19:28:23.839Z</time>
      </trkpt>
      <trkpt lat="48.86514" lon="2.37525">
        <ele>104.9</ele>
        <time>2015-04-06T19:28:25.886Z</time>
      </trkpt>
      <trkpt lat="48.86514" lon="2.3753">
        <ele>104.9</ele>
        <time>2015-04-06T19:28:26.959Z</time>
      </trkpt>
      <trkpt lat="48.86515" lon="2.37543">
        <ele>105.8</ele>
        <time>2015-04-06T19:28:29.846Z</time>
      </trkpt>
      <trkpt lat="48.86516" lon="2.37548">
        <ele>105.9</ele>
        <time>2015-04-06T19:28:30.857Z</time>
      </trkpt>
      <trkpt lat="48.86518" lon="2.37558">
        <ele>105.8</ele>
        <time>2015-04-06T19:28:32.873Z</time>
      </trkpt>
      <trkpt lat="48.86519" lon="2.37562">
        <ele>105.7</ele>
        <time>2015-04-06T19:28:33.883Z</time>
      </trkpt>
      <trkpt lat="48.86523" lon="2.37571">
        <ele>105.2</ele>
        <time>2015-04-06T19:28:35.828Z</time>
      </trkpt>
      <trkpt lat="48.86525" lon="2.37575">
        <ele>104.5</ele>
        <time>2015-04-06T19:28:36.832Z</time>
      </trkpt>
      <trkpt lat="48.86528" lon="2.37585">
        <ele>104</ele>
        <time>2015-04-06T19:28:38.857Z</time>
      </trkpt>
      <trkpt lat="48.8653" lon="2.3759">
        <ele>103.8</ele>
        <time>2015-04-06T19:28:39.868Z</time>
      </trkpt>
      <trkpt lat="48.86533" lon="2.376">
        <ele>103.4</ele>
        <time>2015-04-06T19:28:41.887Z</time>
      </trkpt>
      <trkpt lat="48.86536" lon="2.37605">
        <ele>103.4</ele>
        <time>2015-04-06T19:28:42.818Z</time>
      </trkpt>
      <trkpt lat="48.8654" lon="2.37614">
        <ele>102.8</ele>
        <time>2015-04-06T19:28:44.853Z</time>
      </trkpt>
      <trkpt lat="48.86542" lon="2.37618">
        <ele>102.5</ele>
        <time>2015-04-06T19:28:45.868Z</time>
      </trkpt>
      <trkpt lat="48.86545" lon="2.37628">
        <ele>101.8</ele>
        <time>2015-04-06T19:28:47.801Z</time>
      </trkpt>
      <trkpt lat="48.86547" lon="2.37633">
        <ele>101.4</ele>
        <time>2015-04-06T19:28:48.830Z</time>
      </trkpt>
      <trkpt lat="48.8655" lon="2.37642">
        <ele>100.7</ele>
        <time>2015-04-06T19:28:50.867Z</time>
      </trkpt>
      <trkpt lat="48.86552" lon="2.37647">
        <ele>100.4</ele>
        <time>2015-04-06T19:28:51.895Z</time>
      </trkpt>
      <trkpt lat="48.86557" lon="2.37658">
        <ele>99.8</ele>
        <time>2015-04-06T19:28:53.807Z</time>
      </trkpt>
      <trkpt lat="48.86558" lon="2.37663">
        <ele>99.7</ele>
        <time>2015-04-06T19:28:54.822Z</time>
      </trkpt>
      <trkpt lat="48.8656" lon="2.37674">
        <ele>99.4</ele>
        <time>2015-04-06T19:28:56.796Z</time>
      </trkpt>
      <trkpt lat="48.86563" lon="2.37679">
        <ele>99.2</ele>
        <time>2015-04-06T19:28:57.827Z</time>
      </trkpt>
      <trkpt lat="48.86567" lon="2.37689">
        <ele>99</ele>
        <time>2015-04-06T19:28:59.805Z</time>
      </trkpt>
      <trkpt lat="48.86568" lon="2.37695">
        <ele>99</ele>
        <time>2015-04-06T19:29:00.783Z</time>
      </trkpt>
      <trkpt lat="48.86571" lon="2.37704">
        <ele>98.8</ele>
        <time>2015-04-06T19:29:02.819Z</time>
      </trkpt>
      <trkpt lat="48.86573" lon="2.37709">
        <ele>98.7</ele>
        <time>2015-04-06T19:29:03.834Z</time>
      </trkpt>
      <trkpt lat="48.86573" lon="2.3772">
        <ele>98.5</ele>
        <time>2015-04-06T19:29:05.880Z</time>
      </trkpt>
      <trkpt lat="48.86571" lon="2.37727">
        <ele>98.8</ele>
        <time>2015-04-06T19:29:06.814Z</time>
      </trkpt>
      <trkpt lat="48.86574" lon="2.37737">
        <ele>98.3</ele>
        <time>2015-04-06T19:29:08.862Z</time>
      </trkpt>
      <trkpt lat="48.86574" lon="2.37742">
        <ele>98.2</ele>
        <time>2015-04-06T19:29:09.880Z</time>
      </trkpt>
      <trkpt lat="48.86578" lon="2.37753">
        <ele>99</ele>
        <time>2015-04-06T19:29:11.832Z</time>
      </trkpt>
      <trkpt lat="48.86579" lon="2.37759">
        <ele>99.3</ele>
        <time>2015-04-06T19:29:12.835Z</time>
      </trkpt>
      <trkpt lat="48.86582" lon="2.37767">
        <ele>99.2</ele>
        <time>2015-04-06T19:29:14.907Z</time>
      </trkpt>
      <trkpt lat="48.86585" lon="2.37772">
        <ele>99.2</ele>
        <time>2015-04-06T19:29:15.871Z</time>
      </trkpt>
      <trkpt lat="48.86588" lon="2.37777">
        <ele>99.2</ele>
        <time>2015-04-06T19:29:16.824Z</time>
      </trkpt>
      <trkpt lat="48.8659" lon="2.37785">
        <ele>99.3</ele>
        <time>2015-04-06T19:29:17.825Z</time>
      </trkpt>
      <trkpt lat="48.86592" lon="2.37797">
        <ele>99.1</ele>
        <time>2015-04-06T19:29:19.951Z</time>
      </trkpt>
      <trkpt lat="48.86593" lon="2.37802">
        <ele>99.2</ele>
        <time>2015-04-06T19:29:20.818Z</time>
      </trkpt>
      <trkpt lat="48.86599" lon="2.37812">
        <ele>98.8</ele>
        <time>2015-04-06T19:29:22.818Z</time>
      </trkpt>
      <trkpt lat="48.866" lon="2.37817">
        <ele>99.1</ele>
        <time>2015-04-06T19:29:23.816Z</time>
      </trkpt>
      <trkpt lat="48.86601" lon="2.37829">
        <ele>99.6</ele>
        <time>2015-04-06T19:29:25.847Z</time>
      </trkpt>
      <trkpt lat="48.86602" lon="2.37835">
        <ele>99.6</ele>
        <time>2015-04-06T19:29:26.864Z</time>
      </trkpt>
      <trkpt lat="48.86606" lon="2.37848">
        <ele>99.4</ele>
        <time>2015-04-06T19:29:28.800Z</time>
      </trkpt>
      <trkpt lat="48.86608" lon="2.37853">
        <ele>98.9</ele>
        <time>2015-04-06T19:29:29.822Z</time>
      </trkpt>
      <trkpt lat="48.8661" lon="2.37866">
        <ele>99</ele>
        <time>2015-04-06T19:29:31.871Z</time>
      </trkpt>
      <trkpt lat="48.86611" lon="2.37873">
        <ele>98.9</ele>
        <time>2015-04-06T19:29:32.883Z</time>
      </trkpt>
      <trkpt lat="48.86613" lon="2.37879">
        <ele>98.8</ele>
        <time>2015-04-06T19:29:33.781Z</time>
      </trkpt>
      <trkpt lat="48.86615" lon="2.37886">
        <ele>98.6</ele>
        <time>2015-04-06T19:29:34.804Z</time>
      </trkpt>
      <trkpt lat="48.86616" lon="2.37893">
        <ele>98.6</ele>
        <time>2015-04-06T19:29:35.828Z</time>
      </trkpt>
      <trkpt lat="48.86617" lon="2.379">
        <ele>98.7</ele>
        <time>2015-04-06T19:29:36.836Z</time>
      </trkpt>
      <trkpt lat="48.86618" lon="2.37907">
        <ele>99</ele>
        <time>2015-04-06T19:29:37.846Z</time>
      </trkpt>
      <trkpt lat="48.8662" lon="2.37913">
        <ele>98.8</ele>
        <time>2015-04-06T19:29:38.852Z</time>
      </trkpt>
      <trkpt lat="48.86622" lon="2.37924">
        <ele>98.1</ele>
        <time>2015-04-06T19:29:40.773Z</time>
      </trkpt>
      <trkpt lat="48.86623" lon="2.37931">
        <ele>98.2</ele>
        <time>2015-04-06T19:29:41.802Z</time>
      </trkpt>
      <trkpt lat="48.86625" lon="2.37944">
        <ele>98.1</ele>
        <time>2015-04-06T19:29:43.841Z</time>
      </trkpt>
      <trkpt lat="48.86626" lon="2.37951">
        <ele>98.1</ele>
        <time>2015-04-06T19:29:44.872Z</time>
      </trkpt>
      <trkpt lat="48.86628" lon="2.37957">
        <ele>98.1</ele>
        <time>2015-04-06T19:29:45.803Z</time>
      </trkpt>
      <trkpt lat="48.86631" lon="2.37963">
        <ele>97.8</ele>
        <time>2015-04-06T19:29:46.774Z</time>
      </trkpt>
      <trkpt lat="48.86633" lon="2.37969">
        <ele>97.4</ele>
        <time>2015-04-06T19:29:47.794Z</time>
      </trkpt>
      <trkpt lat="48.86635" lon="2.37975">
        <ele>97.2</ele>
        <time>2015-04-06T19:29:48.795Z</time>
      </trkpt>
      <trkpt lat="48.86639" lon="2.37986">
        <ele>96.9</ele>
        <time>2015-04-06T19:29:50.840Z</time>
      </trkpt>
      <trkpt lat="48.86641" lon="2.37992">
        <ele>96.5</ele>
        <time>2015-04-06T19:29:51.794Z</time>
      </trkpt>
      <trkpt lat="48.86645" lon="2.38003">
        <ele>96</ele>
        <time>2015-04-06T19:29:53.826Z</time>
      </trkpt>
      <trkpt lat="48.86647" lon="2.38009">
        <ele>96</ele>
        <time>2015-04-06T19:29:54.854Z</time>
      </trkpt>
      <trkpt lat="48.86647" lon="2.38017">
        <ele>96.3</ele>
        <time>2015-04-06T19:29:55.873Z</time>
      </trkpt>
      <trkpt lat="48.86647" lon="2.38025">
        <ele>96.7</ele>
        <time>2015-04-06T19:29:56.777Z</time>
      </trkpt>
      <trkpt lat="48.86649" lon="2.38032">
        <ele>97</ele>
        <time>2015-04-06T19:29:57.772Z</time>
      </trkpt>
      <trkpt lat="48.86651" lon="2.38038">
        <ele>96.9</ele>
        <time>2015-04-06T19:29:58.781Z</time>
      </trkpt>
      <trkpt lat="48.86654" lon="2.38049">
        <ele>96.2</ele>
        <time>2015-04-06T19:30:00.830Z</time>
      </trkpt>
      <trkpt lat="48.86655" lon="2.38055">
        <ele>96</ele>
        <time>2015-04-06T19:30:01.860Z</time>
      </trkpt>
      <trkpt lat="48.86657" lon="2.38067">
        <ele>95.6</ele>
        <time>2015-04-06T19:30:03.783Z</time>
      </trkpt>
      <trkpt lat="48.8666" lon="2.38073">
        <ele>96</ele>
        <time>2015-04-06T19:30:04.799Z</time>
      </trkpt>
      <trkpt lat="48.86665" lon="2.38083">
        <ele>95.7</ele>
        <time>2015-04-06T19:30:06.786Z</time>
      </trkpt>
      <trkpt lat="48.86668" lon="2.38089">
        <ele>95.7</ele>
        <time>2015-04-06T19:30:07.835Z</time>
      </trkpt>
      <trkpt lat="48.86669" lon="2.38095">
        <ele>96</ele>
        <time>2015-04-06T19:30:08.850Z</time>
      </trkpt>
      <trkpt lat="48.86669" lon="2.38102">
        <ele>96.3</ele>
        <time>2015-04-06T19:30:09.867Z</time>
      </trkpt>
      <trkpt lat="48.86671" lon="2.38109">
        <ele>96.4</ele>
        <time>2015-04-06T19:30:10.778Z</time>
      </trkpt>
      <trkpt lat="48.86673" lon="2.38115">
        <ele>96</ele>
        <time>2015-04-06T19:30:11.795Z</time>
      </trkpt>
      <trkpt lat="48.86675" lon="2.38127">
        <ele>95.8</ele>
        <time>2015-04-06T19:30:13.835Z</time>
      </trkpt>
      <trkpt lat="48.86677" lon="2.38133">
        <ele>96</ele>
        <time>2015-04-06T19:30:14.889Z</time>
      </trkpt>
      <trkpt lat="48.8668" lon="2.38146">
        <ele>96.3</ele>
        <time>2015-04-06T19:30:16.781Z</time>
      </trkpt>
      <trkpt lat="48.8668" lon="2.38153">
        <ele>97.2</ele>
        <time>2015-04-06T19:30:17.798Z</time>
      </trkpt>
      <trkpt lat="48.86682" lon="2.3816">
        <ele>97.7</ele>
        <time>2015-04-06T19:30:18.820Z</time>
      </trkpt>
      <trkpt lat="48.86683" lon="2.38166">
        <ele>98.2</ele>
        <time>2015-04-06T19:30:19.828Z</time>
      </trkpt>
      <trkpt lat="48.86685" lon="2.38177">
        <ele>98.3</ele>
        <time>2015-04-06T19:30:21.845Z</time>
      </trkpt>
      <trkpt lat="48.86686" lon="2.38183">
        <ele>98.3</ele>
        <time>2015-04-06T19:30:22.859Z</time>
      </trkpt>
      <trkpt lat="48.86688" lon="2.38194">
        <ele>98.3</ele>
        <time>2015-04-06T19:30:24.783Z</time>
      </trkpt>
      <trkpt lat="48.86689" lon="2.38199">
        <ele>98.2</ele>
        <time>2015-04-06T19:30:25.878Z</time>
      </trkpt>
      <trkpt lat="48.86692" lon="2.38208">
        <ele>98.1</ele>
        <time>2015-04-06T19:30:27.802Z</time>
      </trkpt>
      <trkpt lat="48.86694" lon="2.38213">
        <ele>98.6</ele>
        <time>2015-04-06T19:30:28.812Z</time>
      </trkpt>
      <trkpt lat="48.86698" lon="2.38223">
        <ele>99.1</ele>
        <time>2015-04-06T19:30:30.852Z</time>
      </trkpt>
      <trkpt lat="48.86699" lon="2.38228">
        <ele>99.3</ele>
        <time>2015-04-06T19:30:31.863Z</time>
      </trkpt>
      <trkpt lat="48.86701" lon="2.38239">
        <ele>100.1</ele>
        <time>2015-04-06T19:30:33.802Z</time>
      </trkpt>
      <trkpt lat="48.86702" lon="2.38244">
        <ele>100.8</ele>
        <time>2015-04-06T19:30:34.807Z</time>
      </trkpt>
      <trkpt lat="48.86706" lon="2.38253">
        <ele>101.6</ele>
        <time>2015-04-06T19:30:36.835Z</time>
      </trkpt>
      <trkpt lat="48.86708" lon="2.38256">
        <ele>101.6</ele>
        <time>2015-04-06T19:30:37.939Z</time>
      </trkpt>
      <trkpt lat="48.8671" lon="2.38268">
        <ele>102.4</ele>
        <time>2015-04-06T19:30:40.826Z</time>
      </trkpt>
      <trkpt lat="48.86711" lon="2.38272">
        <ele>102.7</ele>
        <time>2015-04-06T19:30:41.847Z</time>
      </trkpt>
      <trkpt lat="48.86709" lon="2.38283">
        <ele>103.6</ele>
        <time>2015-04-06T19:31:33.822Z</time>
      </trkpt>
      <trkpt lat="48.86744" lon="2.38286">
        <ele>108.4</ele>
        <time>2015-04-06T19:31:34.839Z</time>
      </trkpt>
      <trkpt lat="48.86749" lon="2.38281">
        <ele>107.4</ele>
        <time>2015-04-06T19:31:36.800Z</time>
      </trkpt>
      <trkpt lat="48.86752" lon="2.38279">
        <ele>107.1</ele>
        <time>2015-04-06T19:31:37.914Z</time>
      </trkpt>
      <trkpt lat="48.86754" lon="2.38269">
        <ele>107.9</ele>
        <time>2015-04-06T19:31:40.814Z</time>
      </trkpt>
      <trkpt lat="48.86755" lon="2.38265">
        <ele>108.4</ele>
        <time>2015-04-06T19:31:41.836Z</time>
      </trkpt>
      <trkpt lat="48.86759" lon="2.38254">
        <ele>109.3</ele>
        <time>2015-04-06T19:31:45.826Z</time>
      </trkpt>
      <trkpt lat="48.86761" lon="2.38253">
        <ele>109.3</ele>
        <time>2015-04-06T19:31:46.830Z</time>
      </trkpt>
      <trkpt lat="48.86766" lon="2.38243">
        <ele>108.8</ele>
        <time>2015-04-06T19:31:51.801Z</time>
      </trkpt>
      <trkpt lat="48.86769" lon="2.38241">
        <ele>108.7</ele>
        <time>2015-04-06T19:31:52.819Z</time>
      </trkpt>
      <trkpt lat="48.86775" lon="2.38236">
        <ele>108.8</ele>
        <time>2015-04-06T19:31:54.862Z</time>
      </trkpt>
      <trkpt lat="48.86778" lon="2.38232">
        <ele>108.9</ele>
        <time>2015-04-06T19:31:55.877Z</time>
      </trkpt>
      <trkpt lat="48.86784" lon="2.38225">
        <ele>109.4</ele>
        <time>2015-04-06T19:31:57.808Z</time>
      </trkpt>
      <trkpt lat="48.86787" lon="2.3822">
        <ele>109.7</ele>
        <time>2015-04-06T19:31:58.847Z</time>
      </trkpt>
      <trkpt lat="48.86791" lon="2.38213">
        <ele>110</ele>
        <time>2015-04-06T19:32:00.800Z</time>
      </trkpt>
      <trkpt lat="48.86795" lon="2.38209">
        <ele>110.1</ele>
        <time>2015-04-06T19:32:01.900Z</time>
      </trkpt>
      <trkpt lat="48.86801" lon="2.382">
        <ele>109.9</ele>
        <time>2015-04-06T19:32:03.821Z</time>
      </trkpt>
      <trkpt lat="48.86804" lon="2.38197">
        <ele>110</ele>
        <time>2015-04-06T19:32:04.848Z</time>
      </trkpt>
      <trkpt lat="48.8681" lon="2.38189">
        <ele>109.6</ele>
        <time>2015-04-06T19:32:06.793Z</time>
      </trkpt>
      <trkpt lat="48.86814" lon="2.38186">
        <ele>109.4</ele>
        <time>2015-04-06T19:32:07.898Z</time>
      </trkpt>
      <trkpt lat="48.86818" lon="2.38182">
        <ele>109.1</ele>
        <time>2015-04-06T19:32:08.789Z</time>
      </trkpt>
      <trkpt lat="48.86822" lon="2.3818">
        <ele>109.2</ele>
        <time>2015-04-06T19:32:09.821Z</time>
      </trkpt>
      <trkpt lat="48.86828" lon="2.38172">
        <ele>109.5</ele>
        <time>2015-04-06T19:32:11.866Z</time>
      </trkpt>
      <trkpt lat="48.86831" lon="2.38168">
        <ele>109.9</ele>
        <time>2015-04-06T19:32:12.876Z</time>
      </trkpt>
      <trkpt lat="48.86833" lon="2.38162">
        <ele>110</ele>
        <time>2015-04-06T19:32:13.898Z</time>
      </trkpt>
      <trkpt lat="48.86839" lon="2.38158">
        <ele>108.5</ele>
        <time>2015-04-06T19:32:14.866Z</time>
      </trkpt>
      <trkpt lat="48.86844" lon="2.38151">
        <ele>107.3</ele>
        <time>2015-04-06T19:32:15.801Z</time>
      </trkpt>
      <trkpt lat="48.86848" lon="2.38147">
        <ele>107.5</ele>
        <time>2015-04-06T19:32:16.795Z</time>
      </trkpt>
      <trkpt lat="48.86854" lon="2.38137">
        <ele>108.1</ele>
        <time>2015-04-06T19:32:18.742Z</time>
      </trkpt>
      <trkpt lat="48.86857" lon="2.38131">
        <ele>108.5</ele>
        <time>2015-04-06T19:32:19.836Z</time>
      </trkpt>
      <trkpt lat="48.8686" lon="2.38124">
        <ele>108.8</ele>
        <time>2015-04-06T19:32:20.849Z</time>
      </trkpt>
      <trkpt lat="48.86866" lon="2.38117">
        <ele>107.7</ele>
        <time>2015-04-06T19:32:21.909Z</time>
      </trkpt>
      <trkpt lat="48.86871" lon="2.3811">
        <ele>107.2</ele>
        <time>2015-04-06T19:32:22.815Z</time>
      </trkpt>
      <trkpt lat="48.86874" lon="2.38105">
        <ele>107.4</ele>
        <time>2015-04-06T19:32:23.834Z</time>
      </trkpt>
      <trkpt lat="48.86879" lon="2.38096">
        <ele>108.1</ele>
        <time>2015-04-06T19:32:25.857Z</time>
      </trkpt>
      <trkpt lat="48.86882" lon="2.38092">
        <ele>108.5</ele>
        <time>2015-04-06T19:32:26.869Z</time>
      </trkpt>
      <trkpt lat="48.86886" lon="2.38084">
        <ele>109.9</ele>
        <time>2015-04-06T19:32:28.901Z</time>
      </trkpt>
      <trkpt lat="48.86891" lon="2.38078">
        <ele>108.9</ele>
        <time>2015-04-06T19:32:29.821Z</time>
      </trkpt>
      <trkpt lat="48.86896" lon="2.38074">
        <ele>107.9</ele>
        <time>2015-04-06T19:32:30.819Z</time>
      </trkpt>
      <trkpt lat="48.86901" lon="2.38068">
        <ele>107.4</ele>
        <time>2015-04-06T19:32:31.906Z</time>
      </trkpt>
      <trkpt lat="48.86908" lon="2.3806">
        <ele>106.6</ele>
        <time>2015-04-06T19:32:33.831Z</time>
      </trkpt>
      <trkpt lat="48.86911" lon="2.38056">
        <ele>106.6</ele>
        <time>2015-04-06T19:32:34.851Z</time>
      </trkpt>
      <trkpt lat="48.86915" lon="2.38052">
        <ele>106.5</ele>
        <time>2015-04-06T19:32:35.760Z</time>
      </trkpt>
      <trkpt lat="48.86919" lon="2.38049">
        <ele>105.9</ele>
        <time>2015-04-06T19:32:36.792Z</time>
      </trkpt>
      <trkpt lat="48.86923" lon="2.38045">
        <ele>105.3</ele>
        <time>2015-04-06T19:32:37.839Z</time>
      </trkpt>
      <trkpt lat="48.86927" lon="2.38041">
        <ele>105.2</ele>
        <time>2015-04-06T19:32:38.827Z</time>
      </trkpt>
      <trkpt lat="48.86932" lon="2.38038">
        <ele>104.8</ele>
        <time>2015-04-06T19:32:39.839Z</time>
      </trkpt>
      <trkpt lat="48.86936" lon="2.38034">
        <ele>104.4</ele>
        <time>2015-04-06T19:32:40.841Z</time>
      </trkpt>
      <trkpt lat="48.86939" lon="2.3803">
        <ele>104.1</ele>
        <time>2015-04-06T19:32:42.389Z</time>
      </trkpt>
      <trkpt lat="48.86944" lon="2.38025">
        <ele>104.1</ele>
        <time>2015-04-06T19:32:42.859Z</time>
      </trkpt>
      <trkpt lat="48.86948" lon="2.38021">
        <ele>104.2</ele>
        <time>2015-04-06T19:32:43.866Z</time>
      </trkpt>
      <trkpt lat="48.86952" lon="2.38016">
        <ele>104.5</ele>
        <time>2015-04-06T19:32:44.874Z</time>
      </trkpt>
      <trkpt lat="48.86956" lon="2.3801">
        <ele>104.2</ele>
        <time>2015-04-06T19:32:45.801Z</time>
      </trkpt>
      <trkpt lat="48.8696" lon="2.38003">
        <ele>104.1</ele>
        <time>2015-04-06T19:32:46.813Z</time>
      </trkpt>
      <trkpt lat="48.86964" lon="2.37997">
        <ele>104.4</ele>
        <time>2015-04-06T19:32:47.836Z</time>
      </trkpt>
      <trkpt lat="48.86968" lon="2.37991">
        <ele>104.5</ele>
        <time>2015-04-06T19:32:48.872Z</time>
      </trkpt>
      <trkpt lat="48.86972" lon="2.37985">
        <ele>104.3</ele>
        <time>2015-04-06T19:32:49.915Z</time>
      </trkpt>
      <trkpt lat="48.86976" lon="2.3798">
        <ele>104.2</ele>
        <time>2015-04-06T19:32:50.822Z</time>
      </trkpt>
      <trkpt lat="48.8698" lon="2.37976">
        <ele>104.3</ele>
        <time>2015-04-06T19:32:51.827Z</time>
      </trkpt>
      <trkpt lat="48.86984" lon="2.3797">
        <ele>104.2</ele>
        <time>2015-04-06T19:32:52.839Z</time>
      </trkpt>
      <trkpt lat="48.86988" lon="2.37965">
        <ele>104.3</ele>
        <time>2015-04-06T19:32:53.848Z</time>
      </trkpt>
      <trkpt lat="48.86992" lon="2.3796">
        <ele>104.2</ele>
        <time>2015-04-06T19:32:54.863Z</time>
      </trkpt>
      <trkpt lat="48.86996" lon="2.37955">
        <ele>104.2</ele>
        <time>2015-04-06T19:32:55.866Z</time>
      </trkpt>
      <trkpt lat="48.87" lon="2.37951">
        <ele>104</ele>
        <time>2015-04-06T19:32:56.876Z</time>
      </trkpt>
      <trkpt lat="48.87006" lon="2.37943">
        <ele>103.8</ele>
        <time>2015-04-06T19:32:58.853Z</time>
      </trkpt>
      <trkpt lat="48.8701" lon="2.37942">
        <ele>104.1</ele>
        <time>2015-04-06T19:32:59.871Z</time>
      </trkpt>
      <trkpt lat="48.87015" lon="2.37949">
        <ele>104.7</ele>
        <time>2015-04-06T19:33:01.875Z</time>
      </trkpt>
      <trkpt lat="48.87016" lon="2.37953">
        <ele>105.2</ele>
        <time>2015-04-06T19:33:02.788Z</time>
      </trkpt>
      <trkpt lat="48.87021" lon="2.37964">
        <ele>106.7</ele>
        <time>2015-04-06T19:33:06.820Z</time>
      </trkpt>
      <trkpt lat="48.87022" lon="2.37964">
        <ele>106.7</ele>
        <time>2015-04-06T19:33:07.863Z</time>
      </trkpt>
      <trkpt lat="48.87022" lon="2.37964">
        <ele>106.7</ele>
        <time>2015-04-06T19:33:26.812Z</time>
      </trkpt>
      <trkpt lat="48.87017" lon="2.37943">
        <ele>114.6</ele>
        <time>2015-04-06T19:33:27.829Z</time>
      </trkpt>
      <trkpt lat="48.87012" lon="2.37934">
        <ele>115.9</ele>
        <time>2015-04-06T19:33:31.856Z</time>
      </trkpt>
      <trkpt lat="48.87012" lon="2.3793">
        <ele>116.4</ele>
        <time>2015-04-06T19:33:32.858Z</time>
      </trkpt>
      <trkpt lat="48.87012" lon="2.37918">
        <ele>117.3</ele>
        <time>2015-04-06T19:33:36.830Z</time>
      </trkpt>
      <trkpt lat="48.87013" lon="2.37915">
        <ele>117.6</ele>
        <time>2015-04-06T19:33:37.854Z</time>
      </trkpt>
      <trkpt lat="48.87017" lon="2.37911">
        <ele>114.8</ele>
        <time>2015-04-06T19:33:38.788Z</time>
      </trkpt>
      <trkpt lat="48.87021" lon="2.37908">
        <ele>112.9</ele>
        <time>2015-04-06T19:33:39.796Z</time>
      </trkpt>
      <trkpt lat="48.87027" lon="2.37901">
        <ele>110.6</ele>
        <time>2015-04-06T19:33:41.842Z</time>
      </trkpt>
      <trkpt lat="48.87031" lon="2.37896">
        <ele>109.6</ele>
        <time>2015-04-06T19:33:42.860Z</time>
      </trkpt>
      <trkpt lat="48.87037" lon="2.3789">
        <ele>108.3</ele>
        <time>2015-04-06T19:33:44.784Z</time>
      </trkpt>
      <trkpt lat="48.8704" lon="2.37887">
        <ele>108.6</ele>
        <time>2015-04-06T19:33:45.811Z</time>
      </trkpt>
      <trkpt lat="48.87047" lon="2.37879">
        <ele>109.5</ele>
        <time>2015-04-06T19:33:48.844Z</time>
      </trkpt>
      <trkpt lat="48.87049" lon="2.37877">
        <ele>109.7</ele>
        <time>2015-04-06T19:33:49.895Z</time>
      </trkpt>
      <trkpt lat="48.87055" lon="2.37871">
        <ele>109.9</ele>
        <time>2015-04-06T19:33:52.821Z</time>
      </trkpt>
      <trkpt lat="48.87057" lon="2.37868">
        <ele>110.1</ele>
        <time>2015-04-06T19:33:53.832Z</time>
      </trkpt>
      <trkpt lat="48.87062" lon="2.37858">
        <ele>109.8</ele>
        <time>2015-04-06T19:33:56.884Z</time>
      </trkpt>
      <trkpt lat="48.87065" lon="2.37855">
        <ele>109.9</ele>
        <time>2015-04-06T19:33:57.807Z</time>
      </trkpt>
      <trkpt lat="48.8707" lon="2.37848">
        <ele>110.4</ele>
        <time>2015-04-06T19:34:00.842Z</time>
      </trkpt>
      <trkpt lat="48.87072" lon="2.37847">
        <ele>110.7</ele>
        <time>2015-04-06T19:34:01.851Z</time>
      </trkpt>
      <trkpt lat="48.87076" lon="2.37852">
        <ele>111.8</ele>
        <time>2015-04-06T19:34:17.834Z</time>
      </trkpt>
      <trkpt lat="48.87088" lon="2.37872">
        <ele>114.2</ele>
        <time>2015-04-06T19:34:18.861Z</time>
      </trkpt>
      <trkpt lat="48.87091" lon="2.37883">
        <ele>112.1</ele>
        <time>2015-04-06T19:34:20.786Z</time>
      </trkpt>
      <trkpt lat="48.87092" lon="2.37887">
        <ele>111.9</ele>
        <time>2015-04-06T19:34:21.822Z</time>
      </trkpt>
      <trkpt lat="48.87098" lon="2.37897">
        <ele>110.5</ele>
        <time>2015-04-06T19:34:25.885Z</time>
      </trkpt>
      <trkpt lat="48.87099" lon="2.37897">
        <ele>110.3</ele>
        <time>2015-04-06T19:34:26.793Z</time>
      </trkpt>
      <trkpt lat="48.87106" lon="2.37891">
        <ele>109.4</ele>
        <time>2015-04-06T19:34:31.847Z</time>
      </trkpt>
      <trkpt lat="48.87109" lon="2.37889">
        <ele>109.4</ele>
        <time>2015-04-06T19:34:32.862Z</time>
      </trkpt>
      <trkpt lat="48.87117" lon="2.37883">
        <ele>109.3</ele>
        <time>2015-04-06T19:34:35.810Z</time>
      </trkpt>
      <trkpt lat="48.87119" lon="2.37881">
        <ele>109.3</ele>
        <time>2015-04-06T19:34:36.830Z</time>
      </trkpt>
      <trkpt lat="48.87126" lon="2.37877">
        <ele>109.2</ele>
        <time>2015-04-06T19:34:40.835Z</time>
      </trkpt>
      <trkpt lat="48.87129" lon="2.37874">
        <ele>109.4</ele>
        <time>2015-04-06T19:34:41.855Z</time>
      </trkpt>
      <trkpt lat="48.87136" lon="2.37868">
        <ele>109.7</ele>
        <time>2015-04-06T19:34:46.848Z</time>
      </trkpt>
      <trkpt lat="48.87138" lon="2.37867">
        <ele>109.7</ele>
        <time>2015-04-06T19:34:47.874Z</time>
      </trkpt>
      <trkpt lat="48.87145" lon="2.37862">
        <ele>110</ele>
        <time>2015-04-06T19:34:51.789Z</time>
      </trkpt>
      <trkpt lat="48.87147" lon="2.3786">
        <ele>110</ele>
        <time>2015-04-06T19:34:52.778Z</time>
      </trkpt>
      <trkpt lat="48.87155" lon="2.37857">
        <ele>110</ele>
        <time>2015-04-06T19:34:55.821Z</time>
      </trkpt>
      <trkpt lat="48.87157" lon="2.37855">
        <ele>110</ele>
        <time>2015-04-06T19:34:56.839Z</time>
      </trkpt>
      <trkpt lat="48.87165" lon="2.37852">
        <ele>110.1</ele>
        <time>2015-04-06T19:35:00.808Z</time>
      </trkpt>
      <trkpt lat="48.87166" lon="2.3785">
        <ele>110</ele>
        <time>2015-04-06T19:35:01.846Z</time>
      </trkpt>
      <trkpt lat="48.87174" lon="2.37854">
        <ele>109.9</ele>
        <time>2015-04-06T19:35:12.806Z</time>
      </trkpt>
      <trkpt lat="48.87176" lon="2.37844">
        <ele>110</ele>
        <time>2015-04-06T19:35:13.828Z</time>
      </trkpt>
      <trkpt lat="48.87178" lon="2.37841">
        <ele>109.9</ele>
        <time>2015-04-06T19:35:37.822Z</time>
      </trkpt>
      <trkpt lat="48.87183" lon="2.37831">
        <ele>110.4</ele>
        <time>2015-04-06T19:35:38.843Z</time>
      </trkpt>
      <trkpt lat="48.87184" lon="2.3783">
        <ele>110.5</ele>
        <time>2015-04-06T19:36:17.768Z</time>
      </trkpt>
      <trkpt lat="48.87204" lon="2.37835">
        <ele>110.4</ele>
        <time>2015-04-06T19:36:18.782Z</time>
      </trkpt>
      <trkpt lat="48.87209" lon="2.37833">
        <ele>110.3</ele>
        <time>2015-04-06T19:36:19.819Z</time>
      </trkpt>
      <trkpt lat="48.87213" lon="2.37831">
        <ele>110.3</ele>
        <time>2015-04-06T19:36:20.828Z</time>
      </trkpt>
      <trkpt lat="48.8722" lon="2.37823">
        <ele>110.3</ele>
        <time>2015-04-06T19:36:24.798Z</time>
      </trkpt>
      <trkpt lat="48.87222" lon="2.37822">
        <ele>110.3</ele>
        <time>2015-04-06T19:36:25.857Z</time>
      </trkpt>
      <trkpt lat="48.87226" lon="2.37823">
        <ele>110.5</ele>
        <time>2015-04-06T19:38:29.868Z</time>
      </trkpt>
      <trkpt lat="48.87247" lon="2.37817">
        <ele>106.1</ele>
        <time>2015-04-06T19:40:36.861Z</time>
      </trkpt>
      <trkpt lat="48.87252" lon="2.37823">
        <ele>105.8</ele>
        <time>2015-04-06T19:40:38.771Z</time>
      </trkpt>
      <trkpt lat="48.87255" lon="2.37826">
        <ele>105.7</ele>
        <time>2015-04-06T19:40:39.791Z</time>
      </trkpt>
      <trkpt lat="48.87258" lon="2.37837">
        <ele>104.7</ele>
        <time>2015-04-06T19:40:41.762Z</time>
      </trkpt>
      <trkpt lat="48.87261" lon="2.37842">
        <ele>104.8</ele>
        <time>2015-04-06T19:40:42.785Z</time>
      </trkpt>
      <trkpt lat="48.87262" lon="2.37851">
        <ele>105.2</ele>
        <time>2015-04-06T19:40:44.755Z</time>
      </trkpt>
      <trkpt lat="48.87262" lon="2.37856">
        <ele>105.3</ele>
        <time>2015-04-06T19:40:45.764Z</time>
      </trkpt>
      <trkpt lat="48.87269" lon="2.37863">
        <ele>104.9</ele>
        <time>2015-04-06T19:40:48.846Z</time>
      </trkpt>
      <trkpt lat="48.87271" lon="2.37866">
        <ele>104.8</ele>
        <time>2015-04-06T19:40:49.875Z</time>
      </trkpt>
      <trkpt lat="48.87275" lon="2.37875">
        <ele>104.7</ele>
        <time>2015-04-06T19:40:52.849Z</time>
      </trkpt>
      <trkpt lat="48.87276" lon="2.37878">
        <ele>104.8</ele>
        <time>2015-04-06T19:40:53.797Z</time>
      </trkpt>
      <trkpt lat="48.8728" lon="2.37887">
        <ele>105</ele>
        <time>2015-04-06T19:40:56.850Z</time>
      </trkpt>
      <trkpt lat="48.87281" lon="2.37891">
        <ele>105.3</ele>
        <time>2015-04-06T19:40:57.850Z</time>
      </trkpt>
      <trkpt lat="48.87282" lon="2.37901">
        <ele>106</ele>
        <time>2015-04-06T19:40:59.771Z</time>
      </trkpt>
      <trkpt lat="48.87284" lon="2.37906">
        <ele>106.2</ele>
        <time>2015-04-06T19:41:00.773Z</time>
      </trkpt>
      <trkpt lat="48.87289" lon="2.37914">
        <ele>106.6</ele>
        <time>2015-04-06T19:41:02.950Z</time>
      </trkpt>
      <trkpt lat="48.87291" lon="2.37919">
        <ele>106.8</ele>
        <time>2015-04-06T19:41:03.851Z</time>
      </trkpt>
      <trkpt lat="48.87293" lon="2.3793">
        <ele>106.9</ele>
        <time>2015-04-06T19:41:05.763Z</time>
      </trkpt>
      <trkpt lat="48.87293" lon="2.37935">
        <ele>107</ele>
        <time>2015-04-06T19:41:06.777Z</time>
      </trkpt>
      <trkpt lat="48.87297" lon="2.37945">
        <ele>107.1</ele>
        <time>2015-04-06T19:41:09.774Z</time>
      </trkpt>
      <trkpt lat="48.87296" lon="2.3795">
        <ele>107.2</ele>
        <time>2015-04-06T19:41:10.789Z</time>
      </trkpt>
      <trkpt lat="48.87295" lon="2.37963">
        <ele>107.4</ele>
        <time>2015-04-06T19:41:13.843Z</time>
      </trkpt>
      <trkpt lat="48.87293" lon="2.37966">
        <ele>107.4</ele>
        <time>2015-04-06T19:41:14.769Z</time>
      </trkpt>
      <trkpt lat="48.87293" lon="2.37966">
        <ele>107.4</ele>
        <time>2015-04-06T19:41:17.865Z</time>
      </trkpt>
      <trkpt lat="48.87296" lon="2.38">
        <ele>111.5</ele>
        <time>2015-04-06T19:41:41.780Z</time>
      </trkpt>
      <trkpt lat="48.87301" lon="2.38007">
        <ele>111.3</ele>
        <time>2015-04-06T19:41:44.857Z</time>
      </trkpt>
      <trkpt lat="48.87302" lon="2.38012">
        <ele>110.9</ele>
        <time>2015-04-06T19:41:45.786Z</time>
      </trkpt>
      <trkpt lat="48.87303" lon="2.38018">
        <ele>110.8</ele>
        <time>2015-04-06T19:41:46.772Z</time>
      </trkpt>
      <trkpt lat="48.87304" lon="2.38026">
        <ele>111</ele>
        <time>2015-04-06T19:41:47.793Z</time>
      </trkpt>
      <trkpt lat="48.87308" lon="2.38038">
        <ele>111.4</ele>
        <time>2015-04-06T19:41:49.812Z</time>
      </trkpt>
      <trkpt lat="48.87309" lon="2.38043">
        <ele>111.5</ele>
        <time>2015-04-06T19:41:50.838Z</time>
      </trkpt>
      <trkpt lat="48.87312" lon="2.38056">
        <ele>111.5</ele>
        <time>2015-04-06T19:41:52.776Z</time>
      </trkpt>
      <trkpt lat="48.87314" lon="2.38061">
        <ele>111.9</ele>
        <time>2015-04-06T19:41:53.841Z</time>
      </trkpt>
      <trkpt lat="48.87316" lon="2.38067">
        <ele>111.9</ele>
        <time>2015-04-06T19:41:54.761Z</time>
      </trkpt>
      <trkpt lat="48.87319" lon="2.38075">
        <ele>111.9</ele>
        <time>2015-04-06T19:41:55.800Z</time>
      </trkpt>
      <trkpt lat="48.87321" lon="2.38081">
        <ele>111.9</ele>
        <time>2015-04-06T19:41:56.795Z</time>
      </trkpt>
      <trkpt lat="48.87322" lon="2.38089">
        <ele>112.3</ele>
        <time>2015-04-06T19:41:57.809Z</time>
      </trkpt>
      <trkpt lat="48.87324" lon="2.38101">
        <ele>112.8</ele>
        <time>2015-04-06T19:41:59.831Z</time>
      </trkpt>
      <trkpt lat="48.87324" lon="2.38109">
        <ele>113.6</ele>
        <time>2015-04-06T19:42:00.846Z</time>
      </trkpt>
      <trkpt lat="48.87326" lon="2.3812">
        <ele>113.5</ele>
        <time>2015-04-06T19:42:02.792Z</time>
      </trkpt>
      <trkpt lat="48.87326" lon="2.38127">
        <ele>113.7</ele>
        <time>2015-04-06T19:42:03.813Z</time>
      </trkpt>
      <trkpt lat="48.87326" lon="2.38134">
        <ele>113.9</ele>
        <time>2015-04-06T19:42:04.855Z</time>
      </trkpt>
      <trkpt lat="48.87328" lon="2.38141">
        <ele>114</ele>
        <time>2015-04-06T19:42:05.744Z</time>
      </trkpt>
      <trkpt lat="48.8733" lon="2.38153">
        <ele>113.9</ele>
        <time>2015-04-06T19:42:07.844Z</time>
      </trkpt>
      <trkpt lat="48.87331" lon="2.3816">
        <ele>114.1</ele>
        <time>2015-04-06T19:42:08.759Z</time>
      </trkpt>
      <trkpt lat="48.87334" lon="2.38171">
        <ele>114</ele>
        <time>2015-04-06T19:42:11.371Z</time>
      </trkpt>
      <trkpt lat="48.87336" lon="2.38176">
        <ele>114.2</ele>
        <time>2015-04-06T19:42:11.810Z</time>
      </trkpt>
      <trkpt lat="48.87342" lon="2.38184">
        <ele>114.6</ele>
        <time>2015-04-06T19:42:13.836Z</time>
      </trkpt>
      <trkpt lat="48.87344" lon="2.38188">
        <ele>114.9</ele>
        <time>2015-04-06T19:42:14.776Z</time>
      </trkpt>
      <trkpt lat="48.87347" lon="2.38198">
        <ele>115.3</ele>
        <time>2015-04-06T19:42:16.774Z</time>
      </trkpt>
      <trkpt lat="48.87348" lon="2.38204">
        <ele>115.5</ele>
        <time>2015-04-06T19:42:17.782Z</time>
      </trkpt>
      <trkpt lat="48.8735" lon="2.38215">
        <ele>116</ele>
        <time>2015-04-06T19:42:19.831Z</time>
      </trkpt>
      <trkpt lat="48.87351" lon="2.38221">
        <ele>116.2</ele>
        <time>2015-04-06T19:42:20.847Z</time>
      </trkpt>
      <trkpt lat="48.87352" lon="2.3823">
        <ele>116.7</ele>
        <time>2015-04-06T19:42:22.762Z</time>
      </trkpt>
      <trkpt lat="48.87352" lon="2.38235">
        <ele>116.9</ele>
        <time>2015-04-06T19:42:23.879Z</time>
      </trkpt>
      <trkpt lat="48.87353" lon="2.38246">
        <ele>117.2</ele>
        <time>2015-04-06T19:42:26.807Z</time>
      </trkpt>
      <trkpt lat="48.87353" lon="2.3825">
        <ele>117.3</ele>
        <time>2015-04-06T19:42:27.817Z</time>
      </trkpt>
      <trkpt lat="48.87354" lon="2.38259">
        <ele>117.8</ele>
        <time>2015-04-06T19:42:29.771Z</time>
      </trkpt>
      <trkpt lat="48.87355" lon="2.38264">
        <ele>118.1</ele>
        <time>2015-04-06T19:42:30.823Z</time>
      </trkpt>
      <trkpt lat="48.87359" lon="2.38274">
        <ele>118.5</ele>
        <time>2015-04-06T19:42:33.816Z</time>
      </trkpt>
      <trkpt lat="48.87358" lon="2.38279">
        <ele>118.3</ele>
        <time>2015-04-06T19:42:34.832Z</time>
      </trkpt>
      <trkpt lat="48.87359" lon="2.38292">
        <ele>118.7</ele>
        <time>2015-04-06T19:42:38.762Z</time>
      </trkpt>
      <trkpt lat="48.87359" lon="2.38294">
        <ele>118.7</ele>
        <time>2015-04-06T19:42:39.828Z</time>
      </trkpt>
      <trkpt lat="48.87359" lon="2.38294">
        <ele>118.7</ele>
        <time>2015-04-06T19:43:25.791Z</time>
      </trkpt>
      <trkpt lat="48.87345" lon="2.38342">
        <ele>133.4</ele>
        <time>2015-04-06T19:44:17.822Z</time>
      </trkpt>
      <trkpt lat="48.87345" lon="2.38342">
        <ele>133.4</ele>
        <time>2015-04-06T19:44:27.851Z</time>
      </trkpt>
      <trkpt lat="48.87341" lon="2.38329">
        <ele>135.7</ele>
        <time>2015-04-06T19:44:28.770Z</time>
      </trkpt>
      <trkpt lat="48.87336" lon="2.38336">
        <ele>135.9</ele>
        <time>2015-04-06T19:44:30.773Z</time>
      </trkpt>
      <trkpt lat="48.87333" lon="2.3834">
        <ele>136.1</ele>
        <time>2015-04-06T19:44:31.847Z</time>
      </trkpt>
      <trkpt lat="48.87328" lon="2.38346">
        <ele>136.3</ele>
        <time>2015-04-06T19:44:33.766Z</time>
      </trkpt>
      <trkpt lat="48.87326" lon="2.38349">
        <ele>136.5</ele>
        <time>2015-04-06T19:44:34.777Z</time>
      </trkpt>
      <trkpt lat="48.87319" lon="2.38357">
        <ele>137.6</ele>
        <time>2015-04-06T19:44:39.828Z</time>
      </trkpt>
      <trkpt lat="48.87317" lon="2.3836">
        <ele>137.7</ele>
        <time>2015-04-06T19:44:40.839Z</time>
      </trkpt>
      <trkpt lat="48.87311" lon="2.38368">
        <ele>137.7</ele>
        <time>2015-04-06T19:44:42.779Z</time>
      </trkpt>
      <trkpt lat="48.87308" lon="2.38374">
        <ele>138.3</ele>
        <time>2015-04-06T19:44:43.801Z</time>
      </trkpt>
      <trkpt lat="48.87301" lon="2.38383">
        <ele>139.1</ele>
        <time>2015-04-06T19:44:46.806Z</time>
      </trkpt>
      <trkpt lat="48.873" lon="2.38385">
        <ele>139.1</ele>
        <time>2015-04-06T19:44:47.815Z</time>
      </trkpt>
      <trkpt lat="48.87292" lon="2.38392">
        <ele>139.2</ele>
        <time>2015-04-06T19:44:50.988Z</time>
      </trkpt>
      <trkpt lat="48.8729" lon="2.38394">
        <ele>138.7</ele>
        <time>2015-04-06T19:44:51.877Z</time>
      </trkpt>
      <trkpt lat="48.87284" lon="2.38401">
        <ele>139</ele>
        <time>2015-04-06T19:44:54.789Z</time>
      </trkpt>
      <trkpt lat="48.87283" lon="2.38403">
        <ele>138.8</ele>
        <time>2015-04-06T19:44:55.813Z</time>
      </trkpt>
      <trkpt lat="48.87278" lon="2.3841">
        <ele>139.1</ele>
        <time>2015-04-06T19:44:58.782Z</time>
      </trkpt>
      <trkpt lat="48.87276" lon="2.38413">
        <ele>139.3</ele>
        <time>2015-04-06T19:44:59.929Z</time>
      </trkpt>
      <trkpt lat="48.87272" lon="2.38423">
        <ele>139.9</ele>
        <time>2015-04-06T19:45:02.768Z</time>
      </trkpt>
      <trkpt lat="48.8727" lon="2.38425">
        <ele>139.8</ele>
        <time>2015-04-06T19:45:03.763Z</time>
      </trkpt>
      <trkpt lat="48.87263" lon="2.38433">
        <ele>139.7</ele>
        <time>2015-04-06T19:45:06.805Z</time>
      </trkpt>
      <trkpt lat="48.87261" lon="2.38435">
        <ele>139.6</ele>
        <time>2015-04-06T19:45:07.856Z</time>
      </trkpt>
      <trkpt lat="48.87255" lon="2.38442">
        <ele>140.1</ele>
        <time>2015-04-06T19:45:11.244Z</time>
      </trkpt>
      <trkpt lat="48.87251" lon="2.38445">
        <ele>140</ele>
        <time>2015-04-06T19:45:11.810Z</time>
      </trkpt>
      <trkpt lat="48.87245" lon="2.3845">
        <ele>140.4</ele>
        <time>2015-04-06T19:45:13.837Z</time>
      </trkpt>
      <trkpt lat="48.87243" lon="2.38453">
        <ele>140.5</ele>
        <time>2015-04-06T19:45:14.850Z</time>
      </trkpt>
      <trkpt lat="48.87238" lon="2.38462">
        <ele>140.5</ele>
        <time>2015-04-06T19:45:17.787Z</time>
      </trkpt>
      <trkpt lat="48.87236" lon="2.38463">
        <ele>141.2</ele>
        <time>2015-04-06T19:45:18.793Z</time>
      </trkpt>
      <trkpt lat="48.87231" lon="2.38466">
        <ele>141.5</ele>
        <time>2015-04-06T19:45:20.843Z</time>
      </trkpt>
      <trkpt lat="48.87225" lon="2.38468">
        <ele>140.9</ele>
        <time>2015-04-06T19:45:21.860Z</time>
      </trkpt>
      <trkpt lat="48.87218" lon="2.38472">
        <ele>140.9</ele>
        <time>2015-04-06T19:45:23.781Z</time>
      </trkpt>
      <trkpt lat="48.87215" lon="2.38474">
        <ele>141.1</ele>
        <time>2015-04-06T19:45:24.844Z</time>
      </trkpt>
      <trkpt lat="48.8721" lon="2.3848">
        <ele>140.4</ele>
        <time>2015-04-06T19:45:26.772Z</time>
      </trkpt>
      <trkpt lat="48.87207" lon="2.38482">
        <ele>140.1</ele>
        <time>2015-04-06T19:45:27.774Z</time>
      </trkpt>
      <trkpt lat="48.87202" lon="2.38487">
        <ele>139.9</ele>
        <time>2015-04-06T19:45:28.749Z</time>
      </trkpt>
      <trkpt lat="48.87199" lon="2.38489">
        <ele>139.7</ele>
        <time>2015-04-06T19:45:30.821Z</time>
      </trkpt>
      <trkpt lat="48.87191" lon="2.38496">
        <ele>139.6</ele>
        <time>2015-04-06T19:45:33.768Z</time>
      </trkpt>
      <trkpt lat="48.87189" lon="2.38497">
        <ele>139.6</ele>
        <time>2015-04-06T19:45:34.776Z</time>
      </trkpt>
      <trkpt lat="48.87183" lon="2.38505">
        <ele>139.9</ele>
        <time>2015-04-06T19:45:38.863Z</time>
      </trkpt>
      <trkpt lat="48.87181" lon="2.38506">
        <ele>140</ele>
        <time>2015-04-06T19:45:39.771Z</time>
      </trkpt>
      <trkpt lat="48.87172" lon="2.38509">
        <ele>139.9</ele>
        <time>2015-04-06T19:45:43.831Z</time>
      </trkpt>
      <trkpt lat="48.8717" lon="2.38511">
        <ele>139.8</ele>
        <time>2015-04-06T19:45:44.836Z</time>
      </trkpt>
      <trkpt lat="48.87163" lon="2.38515">
        <ele>139.7</ele>
        <time>2015-04-06T19:45:48.825Z</time>
      </trkpt>
      <trkpt lat="48.87161" lon="2.38518">
        <ele>139.6</ele>
        <time>2015-04-06T19:45:49.834Z</time>
      </trkpt>
      <trkpt lat="48.87157" lon="2.38511">
        <ele>149.2</ele>
        <time>2015-04-06T19:50:19.879Z</time>
      </trkpt>
      <trkpt lat="48.87159" lon="2.38554">
        <ele>147.1</ele>
        <time>2015-04-06T19:50:20.771Z</time>
      </trkpt>
      <trkpt lat="48.87155" lon="2.38564">
        <ele>147.1</ele>
        <time>2015-04-06T19:50:23.809Z</time>
      </trkpt>
      <trkpt lat="48.87153" lon="2.38567">
        <ele>147.3</ele>
        <time>2015-04-06T19:50:24.825Z</time>
      </trkpt>
      <trkpt lat="48.87151" lon="2.38577">
        <ele>147.7</ele>
        <time>2015-04-06T19:50:26.755Z</time>
      </trkpt>
      <trkpt lat="48.8715" lon="2.38582">
        <ele>147.5</ele>
        <time>2015-04-06T19:50:27.780Z</time>
      </trkpt>
      <trkpt lat="48.87148" lon="2.38594">
        <ele>147.1</ele>
        <time>2015-04-06T19:50:30.830Z</time>
      </trkpt>
      <trkpt lat="48.87148" lon="2.38598">
        <ele>147.1</ele>
        <time>2015-04-06T19:50:31.837Z</time>
      </trkpt>
      <trkpt lat="48.87146" lon="2.38611">
        <ele>146.9</ele>
        <time>2015-04-06T19:50:35.770Z</time>
      </trkpt>
      <trkpt lat="48.87146" lon="2.38615">
        <ele>146.7</ele>
        <time>2015-04-06T19:50:36.779Z</time>
      </trkpt>
      <trkpt lat="48.87149" lon="2.38628">
        <ele>146.9</ele>
        <time>2015-04-06T19:50:40.724Z</time>
      </trkpt>
      <trkpt lat="48.8715" lon="2.3863">
        <ele>147.1</ele>
        <time>2015-04-06T19:50:41.754Z</time>
      </trkpt>
      <trkpt lat="48.87153" lon="2.38641">
        <ele>147.8</ele>
        <time>2015-04-06T19:50:43.788Z</time>
      </trkpt>
      <trkpt lat="48.87154" lon="2.38645">
        <ele>147.8</ele>
        <time>2015-04-06T19:50:44.806Z</time>
      </trkpt>
      <trkpt lat="48.87156" lon="2.38655">
        <ele>148</ele>
        <time>2015-04-06T19:50:46.826Z</time>
      </trkpt>
      <trkpt lat="48.87156" lon="2.38659">
        <ele>147.9</ele>
        <time>2015-04-06T19:50:47.757Z</time>
      </trkpt>
      <trkpt lat="48.87157" lon="2.3867">
        <ele>148</ele>
        <time>2015-04-06T19:50:54.838Z</time>
      </trkpt>
      <trkpt lat="48.87158" lon="2.38681">
        <ele>148.4</ele>
        <time>2015-04-06T19:50:55.843Z</time>
      </trkpt>
      <trkpt lat="48.87158" lon="2.38695">
        <ele>148</ele>
        <time>2015-04-06T19:50:58.338Z</time>
      </trkpt>
      <trkpt lat="48.87159" lon="2.387">
        <ele>148.1</ele>
        <time>2015-04-06T19:50:59.781Z</time>
      </trkpt>
      <trkpt lat="48.8716" lon="2.38711">
        <ele>148.3</ele>
        <time>2015-04-06T19:51:01.865Z</time>
      </trkpt>
      <trkpt lat="48.8716" lon="2.38715">
        <ele>148.4</ele>
        <time>2015-04-06T19:51:02.711Z</time>
      </trkpt>
      <trkpt lat="48.87161" lon="2.38728">
        <ele>148.3</ele>
        <time>2015-04-06T19:51:06.541Z</time>
      </trkpt>
      <trkpt lat="48.87161" lon="2.38733">
        <ele>148.3</ele>
        <time>2015-04-06T19:51:06.804Z</time>
      </trkpt>
      <trkpt lat="48.87162" lon="2.38746">
        <ele>148.1</ele>
        <time>2015-04-06T19:51:09.766Z</time>
      </trkpt>
      <trkpt lat="48.87163" lon="2.38748">
        <ele>147.9</ele>
        <time>2015-04-06T19:51:10.787Z</time>
      </trkpt>
      <trkpt lat="48.87165" lon="2.38758">
        <ele>147.3</ele>
        <time>2015-04-06T19:51:14.916Z</time>
      </trkpt>
      <trkpt lat="48.87165" lon="2.38764">
        <ele>147.8</ele>
        <time>2015-04-06T19:51:15.738Z</time>
      </trkpt>
      <trkpt lat="48.87165" lon="2.38775">
        <ele>148.2</ele>
        <time>2015-04-06T19:51:17.771Z</time>
      </trkpt>
      <trkpt lat="48.87165" lon="2.38781">
        <ele>148.2</ele>
        <time>2015-04-06T19:51:18.823Z</time>
      </trkpt>
      <trkpt lat="48.87165" lon="2.38792">
        <ele>147.9</ele>
        <time>2015-04-06T19:51:20.748Z</time>
      </trkpt>
      <trkpt lat="48.87166" lon="2.38797">
        <ele>147.7</ele>
        <time>2015-04-06T19:51:21.791Z</time>
      </trkpt>
      <trkpt lat="48.87169" lon="2.38805">
        <ele>147.1</ele>
        <time>2015-04-06T19:51:23.841Z</time>
      </trkpt>
      <trkpt lat="48.87171" lon="2.38809">
        <ele>146.6</ele>
        <time>2015-04-06T19:51:24.767Z</time>
      </trkpt>
      <trkpt lat="48.87175" lon="2.38816">
        <ele>145.6</ele>
        <time>2015-04-06T19:51:26.811Z</time>
      </trkpt>
      <trkpt lat="48.87178" lon="2.3882">
        <ele>145.5</ele>
        <time>2015-04-06T19:51:27.837Z</time>
      </trkpt>
      <trkpt lat="48.87183" lon="2.38827">
        <ele>145</ele>
        <time>2015-04-06T19:51:29.755Z</time>
      </trkpt>
      <trkpt lat="48.87185" lon="2.3883">
        <ele>144.8</ele>
        <time>2015-04-06T19:51:30.767Z</time>
      </trkpt>
      <trkpt lat="48.87191" lon="2.3884">
        <ele>143.7</ele>
        <time>2015-04-06T19:51:33.810Z</time>
      </trkpt>
      <trkpt lat="48.87193" lon="2.38844">
        <ele>143.2</ele>
        <time>2015-04-06T19:51:34.835Z</time>
      </trkpt>
      <trkpt lat="48.87196" lon="2.38851">
        <ele>141.9</ele>
        <time>2015-04-06T19:51:36.766Z</time>
      </trkpt>
      <trkpt lat="48.87199" lon="2.38855">
        <ele>141.5</ele>
        <time>2015-04-06T19:51:37.809Z</time>
      </trkpt>
      <trkpt lat="48.87202" lon="2.38867">
        <ele>140.4</ele>
        <time>2015-04-06T19:51:39.751Z</time>
      </trkpt>
      <trkpt lat="48.87201" lon="2.38876">
        <ele>140.4</ele>
        <time>2015-04-06T19:51:40.781Z</time>
      </trkpt>
      <trkpt lat="48.87198" lon="2.38887">
        <ele>140.5</ele>
        <time>2015-04-06T19:51:41.844Z</time>
      </trkpt>
      <trkpt lat="48.87196" lon="2.38894">
        <ele>140.7</ele>
        <time>2015-04-06T19:51:42.732Z</time>
      </trkpt>
      <trkpt lat="48.87194" lon="2.389">
        <ele>141</ele>
        <time>2015-04-06T19:51:43.821Z</time>
      </trkpt>
      <trkpt lat="48.87192" lon="2.38907">
        <ele>141.1</ele>
        <time>2015-04-06T19:51:44.862Z</time>
      </trkpt>
      <trkpt lat="48.87191" lon="2.38918">
        <ele>141.3</ele>
        <time>2015-04-06T19:51:47.785Z</time>
      </trkpt>
      <trkpt lat="48.87188" lon="2.38925">
        <ele>141.5</ele>
        <time>2015-04-06T19:51:48.803Z</time>
      </trkpt>
      <trkpt lat="48.87188" lon="2.38925">
        <ele>141.5</ele>
        <time>2015-04-06T19:52:33.745Z</time>
      </trkpt>
      <trkpt lat="48.87177" lon="2.38924">
        <ele>156.5</ele>
        <time>2015-04-06T19:53:02.799Z</time>
      </trkpt>
      <trkpt lat="48.87183" lon="2.38925">
        <ele>157.4</ele>
        <time>2015-04-06T19:53:04.755Z</time>
      </trkpt>
      <trkpt lat="48.87187" lon="2.38927">
        <ele>157.9</ele>
        <time>2015-04-06T19:53:05.771Z</time>
      </trkpt>
      <trkpt lat="48.87191" lon="2.38929">
        <ele>158.3</ele>
        <time>2015-04-06T19:53:06.766Z</time>
      </trkpt>
      <trkpt lat="48.87196" lon="2.3893">
        <ele>158.7</ele>
        <time>2015-04-06T19:53:07.779Z</time>
      </trkpt>
      <trkpt lat="48.87204" lon="2.38928">
        <ele>158.8</ele>
        <time>2015-04-06T19:53:08.791Z</time>
      </trkpt>
      <trkpt lat="48.87211" lon="2.38927">
        <ele>158.9</ele>
        <time>2015-04-06T19:53:09.804Z</time>
      </trkpt>
      <trkpt lat="48.8722" lon="2.3893">
        <ele>159.8</ele>
        <time>2015-04-06T19:53:12.840Z</time>
      </trkpt>
      <trkpt lat="48.87223" lon="2.38932">
        <ele>160.2</ele>
        <time>2015-04-06T19:53:13.870Z</time>
      </trkpt>
      <trkpt lat="48.87231" lon="2.38931">
        <ele>160.2</ele>
        <time>2015-04-06T19:53:15.760Z</time>
      </trkpt>
      <trkpt lat="48.87236" lon="2.3893">
        <ele>160</ele>
        <time>2015-04-06T19:53:16.761Z</time>
      </trkpt>
      <trkpt lat="48.8724" lon="2.38929">
        <ele>159.9</ele>
        <time>2015-04-06T19:53:17.789Z</time>
      </trkpt>
      <trkpt lat="48.87246" lon="2.38927">
        <ele>159.7</ele>
        <time>2015-04-06T19:53:18.800Z</time>
      </trkpt>
      <trkpt lat="48.87251" lon="2.38924">
        <ele>159.7</ele>
        <time>2015-04-06T19:53:20.109Z</time>
      </trkpt>
      <trkpt lat="48.87256" lon="2.38923">
        <ele>159.4</ele>
        <time>2015-04-06T19:53:20.820Z</time>
      </trkpt>
      <trkpt lat="48.87265" lon="2.38924">
        <ele>158.5</ele>
        <time>2015-04-06T19:53:23.766Z</time>
      </trkpt>
      <trkpt lat="48.87268" lon="2.38924">
        <ele>158.4</ele>
        <time>2015-04-06T19:53:24.780Z</time>
      </trkpt>
      <trkpt lat="48.87272" lon="2.38925">
        <ele>158.5</ele>
        <time>2015-04-06T19:53:26.799Z</time>
      </trkpt>
      <trkpt lat="48.87273" lon="2.38925">
        <ele>158.8</ele>
        <time>2015-04-06T19:53:27.840Z</time>
      </trkpt>
      <trkpt lat="48.87274" lon="2.38925">
        <ele>159</ele>
        <time>2015-04-06T19:53:51.760Z</time>
      </trkpt>
      <trkpt lat="48.8729" lon="2.38957">
        <ele>152.9</ele>
        <time>2015-04-06T19:53:52.780Z</time>
      </trkpt>
      <trkpt lat="48.87294" lon="2.3897">
        <ele>153.4</ele>
        <time>2015-04-06T19:53:56.236Z</time>
      </trkpt>
      <trkpt lat="48.87295" lon="2.38974">
        <ele>153.5</ele>
        <time>2015-04-06T19:53:56.816Z</time>
      </trkpt>
      <trkpt lat="48.87298" lon="2.38978">
        <ele>153.3</ele>
        <time>2015-04-06T19:53:58.843Z</time>
      </trkpt>
      <trkpt lat="48.87311" lon="2.38984">
        <ele>153.7</ele>
        <time>2015-04-06T19:54:05.716Z</time>
      </trkpt>
      <trkpt lat="48.87311" lon="2.38984">
        <ele>153.7</ele>
        <time>2015-04-06T19:56:12.859Z</time>
      </trkpt>
      <trkpt lat="48.87339" lon="2.39017">
        <ele>147</ele>
        <time>2015-04-06T19:56:26.816Z</time>
      </trkpt>
      <trkpt lat="48.87331" lon="2.39022">
        <ele>148.2</ele>
        <time>2015-04-06T19:56:42.922Z</time>
      </trkpt>
      <trkpt lat="48.87329" lon="2.39024">
        <ele>148.4</ele>
        <time>2015-04-06T19:56:43.800Z</time>
      </trkpt>
      <trkpt lat="48.87322" lon="2.39032">
        <ele>149.4</ele>
        <time>2015-04-06T19:56:46.819Z</time>
      </trkpt>
      <trkpt lat="48.87318" lon="2.39035">
        <ele>149.4</ele>
        <time>2015-04-06T19:56:47.712Z</time>
      </trkpt>
      <trkpt lat="48.87316" lon="2.39038">
        <ele>149.4</ele>
        <time>2015-04-06T19:56:48.758Z</time>
      </trkpt>
      <trkpt lat="48.87311" lon="2.39044">
        <ele>149.4</ele>
        <time>2015-04-06T19:56:49.795Z</time>
      </trkpt>
      <trkpt lat="48.87306" lon="2.3905">
        <ele>149.6</ele>
        <time>2015-04-06T19:56:50.793Z</time>
      </trkpt>
      <trkpt lat="48.87302" lon="2.39056">
        <ele>149.7</ele>
        <time>2015-04-06T19:56:51.808Z</time>
      </trkpt>
      <trkpt lat="48.87298" lon="2.39062">
        <ele>149.8</ele>
        <time>2015-04-06T19:56:52.831Z</time>
      </trkpt>
      <trkpt lat="48.87293" lon="2.39069">
        <ele>149.8</ele>
        <time>2015-04-06T19:56:53.750Z</time>
      </trkpt>
      <trkpt lat="48.87288" lon="2.39075">
        <ele>150</ele>
        <time>2015-04-06T19:56:54.741Z</time>
      </trkpt>
      <trkpt lat="48.87284" lon="2.39079">
        <ele>150.1</ele>
        <time>2015-04-06T19:56:55.769Z</time>
      </trkpt>
      <trkpt lat="48.87276" lon="2.39087">
        <ele>150.4</ele>
        <time>2015-04-06T19:56:57.725Z</time>
      </trkpt>
      <trkpt lat="48.87271" lon="2.39088">
        <ele>150.7</ele>
        <time>2015-04-06T19:56:58.736Z</time>
      </trkpt>
      <trkpt lat="48.87265" lon="2.39097">
        <ele>151</ele>
        <time>2015-04-06T19:57:01.374Z</time>
      </trkpt>
      <trkpt lat="48.87261" lon="2.39103">
        <ele>151.2</ele>
        <time>2015-04-06T19:57:01.812Z</time>
      </trkpt>
      <trkpt lat="48.87256" lon="2.39114">
        <ele>151.9</ele>
        <time>2015-04-06T19:57:02.821Z</time>
      </trkpt>
      <trkpt lat="48.8725" lon="2.39123">
        <ele>152.4</ele>
        <time>2015-04-06T19:57:03.769Z</time>
      </trkpt>
      <trkpt lat="48.87244" lon="2.39132">
        <ele>152.4</ele>
        <time>2015-04-06T19:57:04.813Z</time>
      </trkpt>
      <trkpt lat="48.87239" lon="2.3914">
        <ele>152.3</ele>
        <time>2015-04-06T19:57:05.729Z</time>
      </trkpt>
      <trkpt lat="48.87234" lon="2.39148">
        <ele>152</ele>
        <time>2015-04-06T19:57:06.730Z</time>
      </trkpt>
      <trkpt lat="48.87228" lon="2.39154">
        <ele>152.3</ele>
        <time>2015-04-06T19:57:07.791Z</time>
      </trkpt>
      <trkpt lat="48.87222" lon="2.39162">
        <ele>152.4</ele>
        <time>2015-04-06T19:57:08.817Z</time>
      </trkpt>
      <trkpt lat="48.87216" lon="2.39169">
        <ele>152.2</ele>
        <time>2015-04-06T19:57:09.852Z</time>
      </trkpt>
      <trkpt lat="48.87212" lon="2.39176">
        <ele>152</ele>
        <time>2015-04-06T19:57:10.751Z</time>
      </trkpt>
      <trkpt lat="48.87207" lon="2.39184">
        <ele>152.1</ele>
        <time>2015-04-06T19:57:11.783Z</time>
      </trkpt>
      <trkpt lat="48.87202" lon="2.39192">
        <ele>152.3</ele>
        <time>2015-04-06T19:57:12.804Z</time>
      </trkpt>
      <trkpt lat="48.87198" lon="2.39199">
        <ele>152.1</ele>
        <time>2015-04-06T19:57:13.818Z</time>
      </trkpt>
      <trkpt lat="48.87192" lon="2.39207">
        <ele>152.6</ele>
        <time>2015-04-06T19:57:14.833Z</time>
      </trkpt>
      <trkpt lat="48.87186" lon="2.39213">
        <ele>153.2</ele>
        <time>2015-04-06T19:57:15.747Z</time>
      </trkpt>
      <trkpt lat="48.87182" lon="2.39219">
        <ele>153.6</ele>
        <time>2015-04-06T19:57:16.755Z</time>
      </trkpt>
      <trkpt lat="48.87176" lon="2.39226">
        <ele>154.2</ele>
        <time>2015-04-06T19:57:17.750Z</time>
      </trkpt>
      <trkpt lat="48.87169" lon="2.39231">
        <ele>154.8</ele>
        <time>2015-04-06T19:57:18.779Z</time>
      </trkpt>
      <trkpt lat="48.87164" lon="2.39238">
        <ele>155.4</ele>
        <time>2015-04-06T19:57:19.808Z</time>
      </trkpt>
      <trkpt lat="48.87159" lon="2.39244">
        <ele>155.9</ele>
        <time>2015-04-06T19:57:20.844Z</time>
      </trkpt>
      <trkpt lat="48.87154" lon="2.39248">
        <ele>156.8</ele>
        <time>2015-04-06T19:57:21.857Z</time>
      </trkpt>
      <trkpt lat="48.87149" lon="2.39253">
        <ele>157.8</ele>
        <time>2015-04-06T19:57:22.765Z</time>
      </trkpt>
      <trkpt lat="48.87145" lon="2.3926">
        <ele>158.5</ele>
        <time>2015-04-06T19:57:23.762Z</time>
      </trkpt>
      <trkpt lat="48.87141" lon="2.39267">
        <ele>159.2</ele>
        <time>2015-04-06T19:57:24.766Z</time>
      </trkpt>
      <trkpt lat="48.87137" lon="2.39273">
        <ele>159.7</ele>
        <time>2015-04-06T19:57:25.801Z</time>
      </trkpt>
      <trkpt lat="48.87133" lon="2.39281">
        <ele>161.5</ele>
        <time>2015-04-06T19:57:26.807Z</time>
      </trkpt>
      <trkpt lat="48.87129" lon="2.39287">
        <ele>162.9</ele>
        <time>2015-04-06T19:57:27.862Z</time>
      </trkpt>
      <trkpt lat="48.87125" lon="2.39293">
        <ele>164.1</ele>
        <time>2015-04-06T19:57:28.757Z</time>
      </trkpt>
      <trkpt lat="48.87121" lon="2.39298">
        <ele>164.9</ele>
        <time>2015-04-06T19:57:29.765Z</time>
      </trkpt>
      <trkpt lat="48.87117" lon="2.39305">
        <ele>165.4</ele>
        <time>2015-04-06T19:57:30.761Z</time>
      </trkpt>
      <trkpt lat="48.87114" lon="2.39312">
        <ele>165.7</ele>
        <time>2015-04-06T19:57:31.822Z</time>
      </trkpt>
      <trkpt lat="48.8711" lon="2.39319">
        <ele>166.3</ele>
        <time>2015-04-06T19:57:32.818Z</time>
      </trkpt>
      <trkpt lat="48.87106" lon="2.39324">
        <ele>166.5</ele>
        <time>2015-04-06T19:57:33.841Z</time>
      </trkpt>
      <trkpt lat="48.87102" lon="2.39328">
        <ele>166.6</ele>
        <time>2015-04-06T19:57:34.811Z</time>
      </trkpt>
      <trkpt lat="48.87098" lon="2.39333">
        <ele>166.6</ele>
        <time>2015-04-06T19:57:35.767Z</time>
      </trkpt>
      <trkpt lat="48.87095" lon="2.39337">
        <ele>166.7</ele>
        <time>2015-04-06T19:57:36.784Z</time>
      </trkpt>
      <trkpt lat="48.87091" lon="2.39342">
        <ele>166.5</ele>
        <time>2015-04-06T19:57:37.782Z</time>
      </trkpt>
      <trkpt lat="48.87086" lon="2.39348">
        <ele>166.5</ele>
        <time>2015-04-06T19:57:38.796Z</time>
      </trkpt>
      <trkpt lat="48.87083" lon="2.39353">
        <ele>166.3</ele>
        <time>2015-04-06T19:57:39.805Z</time>
      </trkpt>
      <trkpt lat="48.87077" lon="2.39361">
        <ele>166</ele>
        <time>2015-04-06T19:57:41.504Z</time>
      </trkpt>
      <trkpt lat="48.87074" lon="2.39366">
        <ele>166.1</ele>
        <time>2015-04-06T19:57:42.778Z</time>
      </trkpt>
      <trkpt lat="48.87069" lon="2.39369">
        <ele>166.2</ele>
        <time>2015-04-06T19:57:43.991Z</time>
      </trkpt>
      <trkpt lat="48.87065" lon="2.39374">
        <ele>166.3</ele>
        <time>2015-04-06T19:57:44.803Z</time>
      </trkpt>
      <trkpt lat="48.87061" lon="2.39379">
        <ele>166.5</ele>
        <time>2015-04-06T19:57:45.839Z</time>
      </trkpt>
      <trkpt lat="48.87056" lon="2.39384">
        <ele>166.4</ele>
        <time>2015-04-06T19:57:46.850Z</time>
      </trkpt>
      <trkpt lat="48.87052" lon="2.39389">
        <ele>166.4</ele>
        <time>2015-04-06T19:57:47.775Z</time>
      </trkpt>
      <trkpt lat="48.87048" lon="2.39394">
        <ele>166.3</ele>
        <time>2015-04-06T19:57:48.773Z</time>
      </trkpt>
      <trkpt lat="48.87045" lon="2.39399">
        <ele>166.8</ele>
        <time>2015-04-06T19:57:49.814Z</time>
      </trkpt>
      <trkpt lat="48.87041" lon="2.39403">
        <ele>166.9</ele>
        <time>2015-04-06T19:57:50.822Z</time>
      </trkpt>
      <trkpt lat="48.87038" lon="2.39408">
        <ele>167</ele>
        <time>2015-04-06T19:57:51.843Z</time>
      </trkpt>
      <trkpt lat="48.87034" lon="2.39413">
        <ele>167.2</ele>
        <time>2015-04-06T19:57:52.738Z</time>
      </trkpt>
      <trkpt lat="48.8703" lon="2.3942">
        <ele>167.3</ele>
        <time>2015-04-06T19:57:54.207Z</time>
      </trkpt>
      <trkpt lat="48.87027" lon="2.39425">
        <ele>167.5</ele>
        <time>2015-04-06T19:57:54.775Z</time>
      </trkpt>
      <trkpt lat="48.87022" lon="2.39432">
        <ele>167.5</ele>
        <time>2015-04-06T19:57:55.820Z</time>
      </trkpt>
      <trkpt lat="48.87017" lon="2.39439">
        <ele>167.6</ele>
        <time>2015-04-06T19:57:56.825Z</time>
      </trkpt>
      <trkpt lat="48.87012" lon="2.39445">
        <ele>167.8</ele>
        <time>2015-04-06T19:57:57.740Z</time>
      </trkpt>
      <trkpt lat="48.87009" lon="2.3945">
        <ele>168</ele>
        <time>2015-04-06T19:57:58.852Z</time>
      </trkpt>
      <trkpt lat="48.87004" lon="2.39458">
        <ele>168.5</ele>
        <time>2015-04-06T19:58:01.010Z</time>
      </trkpt>
      <trkpt lat="48.87002" lon="2.3946">
        <ele>168.7</ele>
        <time>2015-04-06T19:58:01.799Z</time>
      </trkpt>
      <trkpt lat="48.86997" lon="2.39455">
        <ele>168.3</ele>
        <time>2015-04-06T19:59:23.798Z</time>
      </trkpt>
      <trkpt lat="48.86985" lon="2.39455">
        <ele>174.4</ele>
        <time>2015-04-06T19:59:24.782Z</time>
      </trkpt>
      <trkpt lat="48.86981" lon="2.39464">
        <ele>175.6</ele>
        <time>2015-04-06T19:59:27.819Z</time>
      </trkpt>
      <trkpt lat="48.8698" lon="2.39467">
        <ele>176</ele>
        <time>2015-04-06T19:59:28.850Z</time>
      </trkpt>
      <trkpt lat="48.86973" lon="2.39475">
        <ele>175.7</ele>
        <time>2015-04-06T19:59:34.852Z</time>
      </trkpt>
      <trkpt lat="48.8697" lon="2.39477">
        <ele>175.8</ele>
        <time>2015-04-06T19:59:35.776Z</time>
      </trkpt>
      <trkpt lat="48.86963" lon="2.39485">
        <ele>176.2</ele>
        <time>2015-04-06T19:59:37.783Z</time>
      </trkpt>
      <trkpt lat="48.86959" lon="2.39489">
        <ele>176.5</ele>
        <time>2015-04-06T19:59:38.790Z</time>
      </trkpt>
      <trkpt lat="48.86952" lon="2.39491">
        <ele>176.2</ele>
        <time>2015-04-06T19:59:40.770Z</time>
      </trkpt>
      <trkpt lat="48.86949" lon="2.39493">
        <ele>176.1</ele>
        <time>2015-04-06T19:59:41.740Z</time>
      </trkpt>
      <trkpt lat="48.86943" lon="2.39497">
        <ele>175.7</ele>
        <time>2015-04-06T19:59:43.808Z</time>
      </trkpt>
      <trkpt lat="48.8694" lon="2.395">
        <ele>175.3</ele>
        <time>2015-04-06T19:59:44.804Z</time>
      </trkpt>
      <trkpt lat="48.86933" lon="2.39503">
        <ele>175.1</ele>
        <time>2015-04-06T19:59:46.824Z</time>
      </trkpt>
      <trkpt lat="48.8693" lon="2.39506">
        <ele>174.9</ele>
        <time>2015-04-06T19:59:47.842Z</time>
      </trkpt>
      <trkpt lat="48.86926" lon="2.3951">
        <ele>174.6</ele>
        <time>2015-04-06T19:59:48.767Z</time>
      </trkpt>
      <trkpt lat="48.86922" lon="2.39514">
        <ele>174.7</ele>
        <time>2015-04-06T19:59:49.791Z</time>
      </trkpt>
      <trkpt lat="48.86914" lon="2.39518">
        <ele>174.3</ele>
        <time>2015-04-06T19:59:51.800Z</time>
      </trkpt>
      <trkpt lat="48.8691" lon="2.39521">
        <ele>174.1</ele>
        <time>2015-04-06T19:59:52.822Z</time>
      </trkpt>
      <trkpt lat="48.86906" lon="2.39525">
        <ele>173.9</ele>
        <time>2015-04-06T19:59:53.757Z</time>
      </trkpt>
      <trkpt lat="48.86901" lon="2.39527">
        <ele>173.7</ele>
        <time>2015-04-06T19:59:54.764Z</time>
      </trkpt>
      <trkpt lat="48.86896" lon="2.39531">
        <ele>173.5</ele>
        <time>2015-04-06T19:59:55.818Z</time>
      </trkpt>
      <trkpt lat="48.86892" lon="2.39535">
        <ele>173.5</ele>
        <time>2015-04-06T19:59:56.829Z</time>
      </trkpt>
      <trkpt lat="48.86888" lon="2.3954">
        <ele>173.3</ele>
        <time>2015-04-06T19:59:57.838Z</time>
      </trkpt>
      <trkpt lat="48.86883" lon="2.39544">
        <ele>173.2</ele>
        <time>2015-04-06T19:59:58.759Z</time>
      </trkpt>
      <trkpt lat="48.86877" lon="2.39547">
        <ele>173.2</ele>
        <time>2015-04-06T19:59:59.761Z</time>
      </trkpt>
      <trkpt lat="48.86872" lon="2.3955">
        <ele>173.6</ele>
        <time>2015-04-06T20:00:00.763Z</time>
      </trkpt>
      <trkpt lat="48.86866" lon="2.39555">
        <ele>174</ele>
        <time>2015-04-06T20:00:01.830Z</time>
      </trkpt>
      <trkpt lat="48.86861" lon="2.39558">
        <ele>174.3</ele>
        <time>2015-04-06T20:00:02.720Z</time>
      </trkpt>
      <trkpt lat="48.86856" lon="2.39562">
        <ele>174.7</ele>
        <time>2015-04-06T20:00:03.741Z</time>
      </trkpt>
      <trkpt lat="48.86851" lon="2.39565">
        <ele>175.2</ele>
        <time>2015-04-06T20:00:04.746Z</time>
      </trkpt>
      <trkpt lat="48.86847" lon="2.39567">
        <ele>175.5</ele>
        <time>2015-04-06T20:00:05.749Z</time>
      </trkpt>
      <trkpt lat="48.86843" lon="2.39571">
        <ele>175.6</ele>
        <time>2015-04-06T20:00:06.762Z</time>
      </trkpt>
      <trkpt lat="48.86837" lon="2.39576">
        <ele>175.7</ele>
        <time>2015-04-06T20:00:07.780Z</time>
      </trkpt>
      <trkpt lat="48.86832" lon="2.39581">
        <ele>175.8</ele>
        <time>2015-04-06T20:00:08.791Z</time>
      </trkpt>
      <trkpt lat="48.86828" lon="2.39585">
        <ele>175.8</ele>
        <time>2015-04-06T20:00:09.727Z</time>
      </trkpt>
      <trkpt lat="48.86823" lon="2.39587">
        <ele>176.1</ele>
        <time>2015-04-06T20:00:10.739Z</time>
      </trkpt>
      <trkpt lat="48.86818" lon="2.39592">
        <ele>176.3</ele>
        <time>2015-04-06T20:00:11.740Z</time>
      </trkpt>
      <trkpt lat="48.86813" lon="2.39599">
        <ele>176.5</ele>
        <time>2015-04-06T20:00:12.750Z</time>
      </trkpt>
      <trkpt lat="48.86808" lon="2.39606">
        <ele>176.5</ele>
        <time>2015-04-06T20:00:13.815Z</time>
      </trkpt>
      <trkpt lat="48.86802" lon="2.39612">
        <ele>176.6</ele>
        <time>2015-04-06T20:00:14.814Z</time>
      </trkpt>
      <trkpt lat="48.86796" lon="2.39618">
        <ele>176.8</ele>
        <time>2015-04-06T20:00:15.724Z</time>
      </trkpt>
      <trkpt lat="48.86791" lon="2.39625">
        <ele>177</ele>
        <time>2015-04-06T20:00:16.849Z</time>
      </trkpt>
      <trkpt lat="48.86786" lon="2.3963">
        <ele>177.2</ele>
        <time>2015-04-06T20:00:17.739Z</time>
      </trkpt>
      <trkpt lat="48.8678" lon="2.39632">
        <ele>177</ele>
        <time>2015-04-06T20:00:18.739Z</time>
      </trkpt>
      <trkpt lat="48.86776" lon="2.39634">
        <ele>177</ele>
        <time>2015-04-06T20:00:19.777Z</time>
      </trkpt>
      <trkpt lat="48.86772" lon="2.3964">
        <ele>177.1</ele>
        <time>2015-04-06T20:00:20.781Z</time>
      </trkpt>
      <trkpt lat="48.86766" lon="2.39651">
        <ele>177</ele>
        <time>2015-04-06T20:00:21.787Z</time>
      </trkpt>
      <trkpt lat="48.8676" lon="2.39657">
        <ele>177.1</ele>
        <time>2015-04-06T20:00:22.807Z</time>
      </trkpt>
      <trkpt lat="48.86755" lon="2.39662">
        <ele>177</ele>
        <time>2015-04-06T20:00:23.811Z</time>
      </trkpt>
      <trkpt lat="48.86749" lon="2.39666">
        <ele>177.2</ele>
        <time>2015-04-06T20:00:24.742Z</time>
      </trkpt>
      <trkpt lat="48.86745" lon="2.3967">
        <ele>177</ele>
        <time>2015-04-06T20:00:25.770Z</time>
      </trkpt>
      <trkpt lat="48.8674" lon="2.39673">
        <ele>177.1</ele>
        <time>2015-04-06T20:00:26.787Z</time>
      </trkpt>
      <trkpt lat="48.86735" lon="2.39675">
        <ele>177.6</ele>
        <time>2015-04-06T20:00:27.797Z</time>
      </trkpt>
      <trkpt lat="48.8673" lon="2.39679">
        <ele>177.8</ele>
        <time>2015-04-06T20:00:28.808Z</time>
      </trkpt>
      <trkpt lat="48.86724" lon="2.39682">
        <ele>178</ele>
        <time>2015-04-06T20:00:29.816Z</time>
      </trkpt>
      <trkpt lat="48.86719" lon="2.39686">
        <ele>178.3</ele>
        <time>2015-04-06T20:00:30.824Z</time>
      </trkpt>
      <trkpt lat="48.86713" lon="2.3969">
        <ele>178.4</ele>
        <time>2015-04-06T20:00:31.834Z</time>
      </trkpt>
      <trkpt lat="48.86707" lon="2.39695">
        <ele>179.2</ele>
        <time>2015-04-06T20:00:32.732Z</time>
      </trkpt>
      <trkpt lat="48.86702" lon="2.397">
        <ele>179.7</ele>
        <time>2015-04-06T20:00:33.737Z</time>
      </trkpt>
      <trkpt lat="48.86696" lon="2.39705">
        <ele>179.9</ele>
        <time>2015-04-06T20:00:34.739Z</time>
      </trkpt>
      <trkpt lat="48.86692" lon="2.3971">
        <ele>179.9</ele>
        <time>2015-04-06T20:00:35.746Z</time>
      </trkpt>
      <trkpt lat="48.86686" lon="2.39714">
        <ele>180.3</ele>
        <time>2015-04-06T20:00:36.753Z</time>
      </trkpt>
      <trkpt lat="48.86681" lon="2.39717">
        <ele>180.5</ele>
        <time>2015-04-06T20:00:37.771Z</time>
      </trkpt>
      <trkpt lat="48.86676" lon="2.39723">
        <ele>181</ele>
        <time>2015-04-06T20:00:38.776Z</time>
      </trkpt>
      <trkpt lat="48.86671" lon="2.39728">
        <ele>181.2</ele>
        <time>2015-04-06T20:00:39.788Z</time>
      </trkpt>
      <trkpt lat="48.86665" lon="2.39729">
        <ele>180.5</ele>
        <time>2015-04-06T20:00:40.794Z</time>
      </trkpt>
      <trkpt lat="48.86661" lon="2.39732">
        <ele>180.1</ele>
        <time>2015-04-06T20:00:41.808Z</time>
      </trkpt>
      <trkpt lat="48.86654" lon="2.39735">
        <ele>179.4</ele>
        <time>2015-04-06T20:00:43.819Z</time>
      </trkpt>
      <trkpt lat="48.86649" lon="2.39737">
        <ele>179.7</ele>
        <time>2015-04-06T20:00:44.831Z</time>
      </trkpt>
      <trkpt lat="48.86645" lon="2.3974">
        <ele>180</ele>
        <time>2015-04-06T20:00:45.740Z</time>
      </trkpt>
      <trkpt lat="48.86639" lon="2.39743">
        <ele>180.1</ele>
        <time>2015-04-06T20:00:46.743Z</time>
      </trkpt>
      <trkpt lat="48.86633" lon="2.39745">
        <ele>179.6</ele>
        <time>2015-04-06T20:00:47.757Z</time>
      </trkpt>
      <trkpt lat="48.86627" lon="2.39749">
        <ele>179.7</ele>
        <time>2015-04-06T20:00:48.767Z</time>
      </trkpt>
      <trkpt lat="48.86621" lon="2.39755">
        <ele>180</ele>
        <time>2015-04-06T20:00:49.770Z</time>
      </trkpt>
      <trkpt lat="48.86616" lon="2.39761">
        <ele>180.3</ele>
        <time>2015-04-06T20:00:50.772Z</time>
      </trkpt>
      <trkpt lat="48.8661" lon="2.39766">
        <ele>180.3</ele>
        <time>2015-04-06T20:00:51.793Z</time>
      </trkpt>
      <trkpt lat="48.86603" lon="2.39772">
        <ele>179.9</ele>
        <time>2015-04-06T20:00:52.812Z</time>
      </trkpt>
      <trkpt lat="48.86596" lon="2.39779">
        <ele>180.3</ele>
        <time>2015-04-06T20:00:53.741Z</time>
      </trkpt>
      <trkpt lat="48.86591" lon="2.39784">
        <ele>180.5</ele>
        <time>2015-04-06T20:00:54.741Z</time>
      </trkpt>
      <trkpt lat="48.86585" lon="2.3979">
        <ele>180.7</ele>
        <time>2015-04-06T20:00:55.787Z</time>
      </trkpt>
      <trkpt lat="48.86579" lon="2.39795">
        <ele>181.1</ele>
        <time>2015-04-06T20:00:56.789Z</time>
      </trkpt>
      <trkpt lat="48.86573" lon="2.398">
        <ele>180.8</ele>
        <time>2015-04-06T20:00:57.804Z</time>
      </trkpt>
      <trkpt lat="48.86567" lon="2.39805">
        <ele>180.6</ele>
        <time>2015-04-06T20:00:58.820Z</time>
      </trkpt>
      <trkpt lat="48.86561" lon="2.39814">
        <ele>180.7</ele>
        <time>2015-04-06T20:01:00.751Z</time>
      </trkpt>
      <trkpt lat="48.86558" lon="2.39817">
        <ele>181.1</ele>
        <time>2015-04-06T20:01:01.849Z</time>
      </trkpt>
      <trkpt lat="48.86551" lon="2.39823">
        <ele>181.8</ele>
        <time>2015-04-06T20:01:03.752Z</time>
      </trkpt>
      <trkpt lat="48.86545" lon="2.39827">
        <ele>182.1</ele>
        <time>2015-04-06T20:01:04.773Z</time>
      </trkpt>
      <trkpt lat="48.8654" lon="2.39831">
        <ele>182.2</ele>
        <time>2015-04-06T20:01:05.827Z</time>
      </trkpt>
      <trkpt lat="48.86536" lon="2.39833">
        <ele>182.2</ele>
        <time>2015-04-06T20:01:06.750Z</time>
      </trkpt>
      <trkpt lat="48.86533" lon="2.39837">
        <ele>182.3</ele>
        <time>2015-04-06T20:01:07.841Z</time>
      </trkpt>
      <trkpt lat="48.86528" lon="2.39841">
        <ele>182.2</ele>
        <time>2015-04-06T20:01:08.742Z</time>
      </trkpt>
      <trkpt lat="48.86524" lon="2.39845">
        <ele>182.2</ele>
        <time>2015-04-06T20:01:09.772Z</time>
      </trkpt>
      <trkpt lat="48.8652" lon="2.39849">
        <ele>182</ele>
        <time>2015-04-06T20:01:10.839Z</time>
      </trkpt>
      <trkpt lat="48.86512" lon="2.39856">
        <ele>181.6</ele>
        <time>2015-04-06T20:01:12.771Z</time>
      </trkpt>
      <trkpt lat="48.86508" lon="2.39856">
        <ele>181.3</ele>
        <time>2015-04-06T20:01:13.795Z</time>
      </trkpt>
      <trkpt lat="48.865" lon="2.39852">
        <ele>177.5</ele>
        <time>2015-04-06T20:01:16.740Z</time>
      </trkpt>
      <trkpt lat="48.86499" lon="2.39849">
        <ele>176</ele>
        <time>2015-04-06T20:01:17.757Z</time>
      </trkpt>
      <trkpt lat="48.86492" lon="2.39841">
        <ele>150.2</ele>
        <time>2015-04-06T20:02:11.761Z</time>
      </trkpt>
      <trkpt lat="48.8649" lon="2.39841">
        <ele>149.9</ele>
        <time>2015-04-06T20:02:12.783Z</time>
      </trkpt>
      <trkpt lat="48.8649" lon="2.39841">
        <ele>149.9</ele>
        <time>2015-04-06T20:02:51.848Z</time>
      </trkpt>
      <trkpt lat="48.86477" lon="2.39849">
        <ele>153.7</ele>
        <time>2015-04-06T20:02:52.780Z</time>
      </trkpt>
      <trkpt lat="48.86471" lon="2.39858">
        <ele>154.7</ele>
        <time>2015-04-06T20:02:56.834Z</time>
      </trkpt>
      <trkpt lat="48.8647" lon="2.3986">
        <ele>154.9</ele>
        <time>2015-04-06T20:02:57.741Z</time>
      </trkpt>
      <trkpt lat="48.86466" lon="2.39868">
        <ele>154.7</ele>
        <time>2015-04-06T20:03:00.803Z</time>
      </trkpt>
      <trkpt lat="48.86464" lon="2.39871">
        <ele>154.1</ele>
        <time>2015-04-06T20:03:01.807Z</time>
      </trkpt>
      <trkpt lat="48.86459" lon="2.39877">
        <ele>153.7</ele>
        <time>2015-04-06T20:03:03.827Z</time>
      </trkpt>
      <trkpt lat="48.86456" lon="2.39879">
        <ele>153.8</ele>
        <time>2015-04-06T20:03:04.850Z</time>
      </trkpt>
      <trkpt lat="48.86451" lon="2.39884">
        <ele>154.2</ele>
        <time>2015-04-06T20:03:06.751Z</time>
      </trkpt>
      <trkpt lat="48.86448" lon="2.39887">
        <ele>154.5</ele>
        <time>2015-04-06T20:03:07.817Z</time>
      </trkpt>
      <trkpt lat="48.86443" lon="2.39892">
        <ele>155.2</ele>
        <time>2015-04-06T20:03:09.750Z</time>
      </trkpt>
      <trkpt lat="48.86439" lon="2.39894">
        <ele>155.2</ele>
        <time>2015-04-06T20:03:10.775Z</time>
      </trkpt>
      <trkpt lat="48.86432" lon="2.399">
        <ele>155.4</ele>
        <time>2015-04-06T20:03:12.807Z</time>
      </trkpt>
      <trkpt lat="48.86428" lon="2.39905">
        <ele>155.7</ele>
        <time>2015-04-06T20:03:13.844Z</time>
      </trkpt>
      <trkpt lat="48.86421" lon="2.39912">
        <ele>156</ele>
        <time>2015-04-06T20:03:15.755Z</time>
      </trkpt>
      <trkpt lat="48.86417" lon="2.39916">
        <ele>156.2</ele>
        <time>2015-04-06T20:03:16.759Z</time>
      </trkpt>
      <trkpt lat="48.86409" lon="2.39921">
        <ele>156.5</ele>
        <time>2015-04-06T20:03:18.777Z</time>
      </trkpt>
      <trkpt lat="48.86405" lon="2.39924">
        <ele>156.5</ele>
        <time>2015-04-06T20:03:19.800Z</time>
      </trkpt>
      <trkpt lat="48.86398" lon="2.39928">
        <ele>157</ele>
        <time>2015-04-06T20:03:21.816Z</time>
      </trkpt>
      <trkpt lat="48.86394" lon="2.3993">
        <ele>157.2</ele>
        <time>2015-04-06T20:03:22.833Z</time>
      </trkpt>
      <trkpt lat="48.86389" lon="2.39932">
        <ele>157.6</ele>
        <time>2015-04-06T20:03:23.750Z</time>
      </trkpt>
      <trkpt lat="48.86384" lon="2.39937">
        <ele>158.2</ele>
        <time>2015-04-06T20:03:24.755Z</time>
      </trkpt>
      <trkpt lat="48.86378" lon="2.3994">
        <ele>158.6</ele>
        <time>2015-04-06T20:03:25.796Z</time>
      </trkpt>
      <trkpt lat="48.86372" lon="2.39944">
        <ele>159.2</ele>
        <time>2015-04-06T20:03:26.796Z</time>
      </trkpt>
      <trkpt lat="48.86365" lon="2.39949">
        <ele>160</ele>
        <time>2015-04-06T20:03:27.787Z</time>
      </trkpt>
      <trkpt lat="48.86358" lon="2.39955">
        <ele>160.7</ele>
        <time>2015-04-06T20:03:28.795Z</time>
      </trkpt>
      <trkpt lat="48.8635" lon="2.3996">
        <ele>161</ele>
        <time>2015-04-06T20:03:29.808Z</time>
      </trkpt>
      <trkpt lat="48.86343" lon="2.39966">
        <ele>161.4</ele>
        <time>2015-04-06T20:03:30.804Z</time>
      </trkpt>
      <trkpt lat="48.86338" lon="2.39976">
        <ele>161.9</ele>
        <time>2015-04-06T20:03:31.818Z</time>
      </trkpt>
      <trkpt lat="48.86332" lon="2.39985">
        <ele>162.5</ele>
        <time>2015-04-06T20:03:32.821Z</time>
      </trkpt>
      <trkpt lat="48.86326" lon="2.39994">
        <ele>163.2</ele>
        <time>2015-04-06T20:03:33.834Z</time>
      </trkpt>
      <trkpt lat="48.8632" lon="2.40003">
        <ele>164.3</ele>
        <time>2015-04-06T20:03:34.746Z</time>
      </trkpt>
      <trkpt lat="48.86314" lon="2.40007">
        <ele>164.9</ele>
        <time>2015-04-06T20:03:35.760Z</time>
      </trkpt>
      <trkpt lat="48.86307" lon="2.40013">
        <ele>165.8</ele>
        <time>2015-04-06T20:03:36.775Z</time>
      </trkpt>
      <trkpt lat="48.863" lon="2.40016">
        <ele>166.2</ele>
        <time>2015-04-06T20:03:37.801Z</time>
      </trkpt>
      <trkpt lat="48.86294" lon="2.4002">
        <ele>166.9</ele>
        <time>2015-04-06T20:03:38.792Z</time>
      </trkpt>
      <trkpt lat="48.86287" lon="2.40023">
        <ele>167.5</ele>
        <time>2015-04-06T20:03:39.803Z</time>
      </trkpt>
      <trkpt lat="48.86281" lon="2.40026">
        <ele>168</ele>
        <time>2015-04-06T20:03:40.808Z</time>
      </trkpt>
      <trkpt lat="48.86274" lon="2.40027">
        <ele>168.6</ele>
        <time>2015-04-06T20:03:41.818Z</time>
      </trkpt>
      <trkpt lat="48.86267" lon="2.40029">
        <ele>168.9</ele>
        <time>2015-04-06T20:03:42.736Z</time>
      </trkpt>
      <trkpt lat="48.86261" lon="2.40031">
        <ele>169.2</ele>
        <time>2015-04-06T20:03:43.853Z</time>
      </trkpt>
      <trkpt lat="48.86254" lon="2.40032">
        <ele>169.1</ele>
        <time>2015-04-06T20:03:44.736Z</time>
      </trkpt>
      <trkpt lat="48.86247" lon="2.40033">
        <ele>169.2</ele>
        <time>2015-04-06T20:03:45.747Z</time>
      </trkpt>
      <trkpt lat="48.86241" lon="2.40035">
        <ele>169.2</ele>
        <time>2015-04-06T20:03:46.757Z</time>
      </trkpt>
      <trkpt lat="48.86234" lon="2.40037">
        <ele>169.1</ele>
        <time>2015-04-06T20:03:47.759Z</time>
      </trkpt>
      <trkpt lat="48.86227" lon="2.40034">
        <ele>167.8</ele>
        <time>2015-04-06T20:03:48.759Z</time>
      </trkpt>
      <trkpt lat="48.8622" lon="2.40034">
        <ele>167.4</ele>
        <time>2015-04-06T20:03:49.824Z</time>
      </trkpt>
      <trkpt lat="48.86212" lon="2.40035">
        <ele>166.6</ele>
        <time>2015-04-06T20:03:50.761Z</time>
      </trkpt>
      <trkpt lat="48.86206" lon="2.40035">
        <ele>165.9</ele>
        <time>2015-04-06T20:03:51.745Z</time>
      </trkpt>
      <trkpt lat="48.86199" lon="2.40037">
        <ele>166.6</ele>
        <time>2015-04-06T20:03:52.740Z</time>
      </trkpt>
      <trkpt lat="48.86193" lon="2.40037">
        <ele>166.1</ele>
        <time>2015-04-06T20:03:53.760Z</time>
      </trkpt>
      <trkpt lat="48.86187" lon="2.40038">
        <ele>165.5</ele>
        <time>2015-04-06T20:03:54.767Z</time>
      </trkpt>
      <trkpt lat="48.85918" lon="2.40225">
        <ele>163.9</ele>
        <time>2015-04-06T20:04:38.813Z</time>
      </trkpt>
      <trkpt lat="48.85912" lon="2.40234">
        <ele>159.5</ele>
        <time>2015-04-06T20:04:40.746Z</time>
      </trkpt>
      <trkpt lat="48.85908" lon="2.40238">
        <ele>157.8</ele>
        <time>2015-04-06T20:04:41.757Z</time>
      </trkpt>
      <trkpt lat="48.859" lon="2.40243">
        <ele>157.3</ele>
        <time>2015-04-06T20:04:43.818Z</time>
      </trkpt>
      <trkpt lat="48.85896" lon="2.40248">
        <ele>157.6</ele>
        <time>2015-04-06T20:04:44.844Z</time>
      </trkpt>
      <trkpt lat="48.85892" lon="2.40253">
        <ele>157.8</ele>
        <time>2015-04-06T20:04:45.766Z</time>
      </trkpt>
      <trkpt lat="48.85888" lon="2.40258">
        <ele>157.9</ele>
        <time>2015-04-06T20:04:46.781Z</time>
      </trkpt>
      <trkpt lat="48.85884" lon="2.40263">
        <ele>158.1</ele>
        <time>2015-04-06T20:04:47.787Z</time>
      </trkpt>
      <trkpt lat="48.85879" lon="2.40269">
        <ele>158.5</ele>
        <time>2015-04-06T20:04:48.792Z</time>
      </trkpt>
      <trkpt lat="48.85875" lon="2.40275">
        <ele>158.9</ele>
        <time>2015-04-06T20:04:49.804Z</time>
      </trkpt>
      <trkpt lat="48.85869" lon="2.4028">
        <ele>159.2</ele>
        <time>2015-04-06T20:04:50.827Z</time>
      </trkpt>
      <trkpt lat="48.85862" lon="2.4029">
        <ele>158.6</ele>
        <time>2015-04-06T20:04:51.735Z</time>
      </trkpt>
      <trkpt lat="48.85856" lon="2.403">
        <ele>158.4</ele>
        <time>2015-04-06T20:04:52.734Z</time>
      </trkpt>
      <trkpt lat="48.85851" lon="2.40309">
        <ele>157.8</ele>
        <time>2015-04-06T20:04:53.734Z</time>
      </trkpt>
      <trkpt lat="48.85846" lon="2.40317">
        <ele>157.2</ele>
        <time>2015-04-06T20:04:54.748Z</time>
      </trkpt>
      <trkpt lat="48.85839" lon="2.40324">
        <ele>156.7</ele>
        <time>2015-04-06T20:04:55.853Z</time>
      </trkpt>
      <trkpt lat="48.85831" lon="2.4033">
        <ele>156.3</ele>
        <time>2015-04-06T20:04:56.825Z</time>
      </trkpt>
      <trkpt lat="48.85825" lon="2.40336">
        <ele>155.9</ele>
        <time>2015-04-06T20:04:57.831Z</time>
      </trkpt>
      <trkpt lat="48.8582" lon="2.4034">
        <ele>156</ele>
        <time>2015-04-06T20:04:58.759Z</time>
      </trkpt>
      <trkpt lat="48.85816" lon="2.40344">
        <ele>154.6</ele>
        <time>2015-04-06T20:04:59.740Z</time>
      </trkpt>
      <trkpt lat="48.85811" lon="2.4035">
        <ele>152.3</ele>
        <time>2015-04-06T20:05:00.749Z</time>
      </trkpt>
      <trkpt lat="48.85807" lon="2.40355">
        <ele>150.1</ele>
        <time>2015-04-06T20:05:01.778Z</time>
      </trkpt>
      <trkpt lat="48.85802" lon="2.4036">
        <ele>147.4</ele>
        <time>2015-04-06T20:05:02.775Z</time>
      </trkpt>
      <trkpt lat="48.85797" lon="2.40367">
        <ele>145.2</ele>
        <time>2015-04-06T20:05:03.787Z</time>
      </trkpt>
      <trkpt lat="48.85783" lon="2.40385">
        <ele>145.1</ele>
        <time>2015-04-06T20:05:05.829Z</time>
      </trkpt>
      <trkpt lat="48.85765" lon="2.40409">
        <ele>145</ele>
        <time>2015-04-06T20:05:08.782Z</time>
      </trkpt>
      <trkpt lat="48.85759" lon="2.40416">
        <ele>144.7</ele>
        <time>2015-04-06T20:05:09.819Z</time>
      </trkpt>
      <trkpt lat="48.85753" lon="2.4042">
        <ele>144.4</ele>
        <time>2015-04-06T20:05:10.836Z</time>
      </trkpt>
      <trkpt lat="48.85746" lon="2.40426">
        <ele>144</ele>
        <time>2015-04-06T20:05:11.759Z</time>
      </trkpt>
      <trkpt lat="48.85741" lon="2.40433">
        <ele>144.1</ele>
        <time>2015-04-06T20:05:12.779Z</time>
      </trkpt>
      <trkpt lat="48.85734" lon="2.40439">
        <ele>144.4</ele>
        <time>2015-04-06T20:05:13.864Z</time>
      </trkpt>
      <trkpt lat="48.85727" lon="2.40444">
        <ele>144.8</ele>
        <time>2015-04-06T20:05:14.760Z</time>
      </trkpt>
      <trkpt lat="48.85721" lon="2.40449">
        <ele>145.2</ele>
        <time>2015-04-06T20:05:15.783Z</time>
      </trkpt>
      <trkpt lat="48.85715" lon="2.40455">
        <ele>145.6</ele>
        <time>2015-04-06T20:05:16.791Z</time>
      </trkpt>
      <trkpt lat="48.8571" lon="2.4046">
        <ele>145.8</ele>
        <time>2015-04-06T20:05:17.822Z</time>
      </trkpt>
      <trkpt lat="48.85705" lon="2.40466">
        <ele>146.1</ele>
        <time>2015-04-06T20:05:18.831Z</time>
      </trkpt>
      <trkpt lat="48.85699" lon="2.40472">
        <ele>146.9</ele>
        <time>2015-04-06T20:05:19.871Z</time>
      </trkpt>
      <trkpt lat="48.85693" lon="2.40478">
        <ele>147.3</ele>
        <time>2015-04-06T20:05:20.735Z</time>
      </trkpt>
      <trkpt lat="48.85687" lon="2.40482">
        <ele>148.3</ele>
        <time>2015-04-06T20:05:21.753Z</time>
      </trkpt>
      <trkpt lat="48.85681" lon="2.40486">
        <ele>148.3</ele>
        <time>2015-04-06T20:05:22.757Z</time>
      </trkpt>
      <trkpt lat="48.85676" lon="2.4049">
        <ele>148.5</ele>
        <time>2015-04-06T20:05:23.781Z</time>
      </trkpt>
      <trkpt lat="48.8567" lon="2.40492">
        <ele>148.2</ele>
        <time>2015-04-06T20:05:24.787Z</time>
      </trkpt>
      <trkpt lat="48.85652" lon="2.40502">
        <ele>147.6</ele>
        <time>2015-04-06T20:05:27.841Z</time>
      </trkpt>
      <trkpt lat="48.85647" lon="2.40505">
        <ele>147.9</ele>
        <time>2015-04-06T20:05:28.738Z</time>
      </trkpt>
      <trkpt lat="48.85642" lon="2.40506">
        <ele>147.9</ele>
        <time>2015-04-06T20:05:29.736Z</time>
      </trkpt>
      <trkpt lat="48.85637" lon="2.40508">
        <ele>147.8</ele>
        <time>2015-04-06T20:05:30.758Z</time>
      </trkpt>
      <trkpt lat="48.85631" lon="2.4051">
        <ele>147.4</ele>
        <time>2015-04-06T20:05:31.793Z</time>
      </trkpt>
      <trkpt lat="48.85625" lon="2.4051">
        <ele>147</ele>
        <time>2015-04-06T20:05:32.803Z</time>
      </trkpt>
      <trkpt lat="48.8562" lon="2.40512">
        <ele>146.6</ele>
        <time>2015-04-06T20:05:33.808Z</time>
      </trkpt>
      <trkpt lat="48.85616" lon="2.40515">
        <ele>146.6</ele>
        <time>2015-04-06T20:05:34.809Z</time>
      </trkpt>
      <trkpt lat="48.85611" lon="2.4052">
        <ele>146.4</ele>
        <time>2015-04-06T20:05:35.837Z</time>
      </trkpt>
      <trkpt lat="48.85606" lon="2.40526">
        <ele>146.3</ele>
        <time>2015-04-06T20:05:36.739Z</time>
      </trkpt>
      <trkpt lat="48.85595" lon="2.40534">
        <ele>146</ele>
        <time>2015-04-06T20:05:38.775Z</time>
      </trkpt>
      <trkpt lat="48.85591" lon="2.40537">
        <ele>145.7</ele>
        <time>2015-04-06T20:05:39.788Z</time>
      </trkpt>
      <trkpt lat="48.85577" lon="2.40541">
        <ele>145.2</ele>
        <time>2015-04-06T20:05:42.761Z</time>
      </trkpt>
      <trkpt lat="48.85302" lon="2.40611">
        <ele>153.4</ele>
        <time>2015-04-06T20:06:20.812Z</time>
      </trkpt>
      <trkpt lat="48.85295" lon="2.40612">
        <ele>153.9</ele>
        <time>2015-04-06T20:06:21.738Z</time>
      </trkpt>
      <trkpt lat="48.85288" lon="2.40614">
        <ele>154.5</ele>
        <time>2015-04-06T20:06:22.737Z</time>
      </trkpt>
      <trkpt lat="48.85282" lon="2.40615">
        <ele>155</ele>
        <time>2015-04-06T20:06:24.774Z</time>
      </trkpt>
      <trkpt lat="48.85277" lon="2.40617">
        <ele>154.6</ele>
        <time>2015-04-06T20:06:25.795Z</time>
      </trkpt>
      <trkpt lat="48.85269" lon="2.40621">
        <ele>152.8</ele>
        <time>2015-04-06T20:06:27.736Z</time>
      </trkpt>
      <trkpt lat="48.85267" lon="2.40621">
        <ele>152.6</ele>
        <time>2015-04-06T20:06:28.758Z</time>
      </trkpt>
      <trkpt lat="48.85259" lon="2.40621">
        <ele>151.3</ele>
        <time>2015-04-06T20:06:30.755Z</time>
      </trkpt>
      <trkpt lat="48.85255" lon="2.40621">
        <ele>151.1</ele>
        <time>2015-04-06T20:06:31.795Z</time>
      </trkpt>
      <trkpt lat="48.85247" lon="2.40622">
        <ele>151.2</ele>
        <time>2015-04-06T20:06:33.738Z</time>
      </trkpt>
      <trkpt lat="48.85241" lon="2.40623">
        <ele>151.2</ele>
        <time>2015-04-06T20:06:34.780Z</time>
      </trkpt>
      <trkpt lat="48.85232" lon="2.40627">
        <ele>151.7</ele>
        <time>2015-04-06T20:06:36.809Z</time>
      </trkpt>
      <trkpt lat="48.85224" lon="2.40629">
        <ele>151.9</ele>
        <time>2015-04-06T20:06:37.833Z</time>
      </trkpt>
      <trkpt lat="48.85218" lon="2.4063">
        <ele>151.6</ele>
        <time>2015-04-06T20:06:38.759Z</time>
      </trkpt>
      <trkpt lat="48.85214" lon="2.4063">
        <ele>151</ele>
        <time>2015-04-06T20:06:39.751Z</time>
      </trkpt>
      <trkpt lat="48.85208" lon="2.40632">
        <ele>150.5</ele>
        <time>2015-04-06T20:06:40.761Z</time>
      </trkpt>
      <trkpt lat="48.85203" lon="2.40634">
        <ele>150.1</ele>
        <time>2015-04-06T20:06:41.780Z</time>
      </trkpt>
      <trkpt lat="48.85198" lon="2.40636">
        <ele>149.8</ele>
        <time>2015-04-06T20:06:42.797Z</time>
      </trkpt>
      <trkpt lat="48.85193" lon="2.40641">
        <ele>149.6</ele>
        <time>2015-04-06T20:06:43.792Z</time>
      </trkpt>
      <trkpt lat="48.85188" lon="2.40645">
        <ele>149.6</ele>
        <time>2015-04-06T20:06:44.789Z</time>
      </trkpt>
      <trkpt lat="48.85183" lon="2.40648">
        <ele>149.4</ele>
        <time>2015-04-06T20:06:45.813Z</time>
      </trkpt>
      <trkpt lat="48.85176" lon="2.40649">
        <ele>149.5</ele>
        <time>2015-04-06T20:06:46.771Z</time>
      </trkpt>
      <trkpt lat="48.85169" lon="2.40648">
        <ele>149.2</ele>
        <time>2015-04-06T20:06:47.728Z</time>
      </trkpt>
      <trkpt lat="48.85161" lon="2.40647">
        <ele>148.7</ele>
        <time>2015-04-06T20:06:48.728Z</time>
      </trkpt>
      <trkpt lat="48.85155" lon="2.40646">
        <ele>148.1</ele>
        <time>2015-04-06T20:06:49.829Z</time>
      </trkpt>
      <trkpt lat="48.85149" lon="2.40644">
        <ele>147.2</ele>
        <time>2015-04-06T20:06:50.744Z</time>
      </trkpt>
      <trkpt lat="48.84893" lon="2.40658">
        <ele>153.4</ele>
        <time>2015-04-06T20:07:41.785Z</time>
      </trkpt>
      <trkpt lat="48.84887" lon="2.4066">
        <ele>154.2</ele>
        <time>2015-04-06T20:07:43.794Z</time>
      </trkpt>
      <trkpt lat="48.84883" lon="2.4066">
        <ele>154.5</ele>
        <time>2015-04-06T20:07:44.813Z</time>
      </trkpt>
      <trkpt lat="48.84876" lon="2.40659">
        <ele>155.1</ele>
        <time>2015-04-06T20:07:46.760Z</time>
      </trkpt>
      <trkpt lat="48.84873" lon="2.40658">
        <ele>155.3</ele>
        <time>2015-04-06T20:07:47.736Z</time>
      </trkpt>
      <trkpt lat="48.84866" lon="2.40652">
        <ele>155.8</ele>
        <time>2015-04-06T20:07:49.810Z</time>
      </trkpt>
      <trkpt lat="48.84863" lon="2.40649">
        <ele>156.1</ele>
        <time>2015-04-06T20:07:50.831Z</time>
      </trkpt>
      <trkpt lat="48.84855" lon="2.40645">
        <ele>156.1</ele>
        <time>2015-04-06T20:07:52.746Z</time>
      </trkpt>
      <trkpt lat="48.8485" lon="2.40644">
        <ele>156.3</ele>
        <time>2015-04-06T20:07:53.754Z</time>
      </trkpt>
      <trkpt lat="48.84842" lon="2.40641">
        <ele>157</ele>
        <time>2015-04-06T20:07:55.787Z</time>
      </trkpt>
      <trkpt lat="48.84805" lon="2.40631">
        <ele>159.1</ele>
        <time>2015-04-06T20:08:07.813Z</time>
      </trkpt>
      <trkpt lat="48.84796" lon="2.4063">
        <ele>159.6</ele>
        <time>2015-04-06T20:08:12.530Z</time>
      </trkpt>
      <trkpt lat="48.84794" lon="2.40632">
        <ele>158.2</ele>
        <time>2015-04-06T20:08:12.793Z</time>
      </trkpt>
      <trkpt lat="48.84788" lon="2.40636">
        <ele>154.8</ele>
        <time>2015-04-06T20:08:14.737Z</time>
      </trkpt>
      <trkpt lat="48.84785" lon="2.40639">
        <ele>152.6</ele>
        <time>2015-04-06T20:08:15.779Z</time>
      </trkpt>
      <trkpt lat="48.84784" lon="2.40637">
        <ele>172.7</ele>
        <time>2015-04-06T20:10:06.775Z</time>
      </trkpt>
      <trkpt lat="48.84766" lon="2.40655">
        <ele>169.8</ele>
        <time>2015-04-06T20:10:07.816Z</time>
      </trkpt>
      <trkpt lat="48.8476" lon="2.40654">
        <ele>168.9</ele>
        <time>2015-04-06T20:10:10.821Z</time>
      </trkpt>
      <trkpt lat="48.84757" lon="2.40654">
        <ele>168</ele>
        <time>2015-04-06T20:10:11.851Z</time>
      </trkpt>
      <trkpt lat="48.84748" lon="2.40651">
        <ele>167.3</ele>
        <time>2015-04-06T20:10:15.819Z</time>
      </trkpt>
      <trkpt lat="48.84747" lon="2.4065">
        <ele>166.6</ele>
        <time>2015-04-06T20:10:16.836Z</time>
      </trkpt>
      <trkpt lat="48.84743" lon="2.4064">
        <ele>154.3</ele>
        <time>2015-04-06T20:10:29.752Z</time>
      </trkpt>
      <trkpt lat="48.84741" lon="2.40638">
        <ele>153.1</ele>
        <time>2015-04-06T20:10:30.794Z</time>
      </trkpt>
      <trkpt lat="48.84734" lon="2.40636">
        <ele>149.5</ele>
        <time>2015-04-06T20:10:33.826Z</time>
      </trkpt>
      <trkpt lat="48.8473" lon="2.40636">
        <ele>149</ele>
        <time>2015-04-06T20:10:34.766Z</time>
      </trkpt>
      <trkpt lat="48.84723" lon="2.40636">
        <ele>147.5</ele>
        <time>2015-04-06T20:10:36.774Z</time>
      </trkpt>
      <trkpt lat="48.8472" lon="2.40636">
        <ele>147</ele>
        <time>2015-04-06T20:10:37.890Z</time>
      </trkpt>
      <trkpt lat="48.84711" lon="2.40634">
        <ele>145.3</ele>
        <time>2015-04-06T20:10:40.775Z</time>
      </trkpt>
      <trkpt lat="48.84707" lon="2.40632">
        <ele>144.9</ele>
        <time>2015-04-06T20:10:41.796Z</time>
      </trkpt>
      <trkpt lat="48.84701" lon="2.40632">
        <ele>144.3</ele>
        <time>2015-04-06T20:10:42.824Z</time>
      </trkpt>
      <trkpt lat="48.84696" lon="2.40631">
        <ele>144.1</ele>
        <time>2015-04-06T20:10:43.846Z</time>
      </trkpt>
      <trkpt lat="48.84693" lon="2.40628">
        <ele>143.8</ele>
        <time>2015-04-06T20:10:44.771Z</time>
      </trkpt>
      <trkpt lat="48.84687" lon="2.40626">
        <ele>143.5</ele>
        <time>2015-04-06T20:10:45.776Z</time>
      </trkpt>
      <trkpt lat="48.84683" lon="2.40624">
        <ele>143.3</ele>
        <time>2015-04-06T20:10:46.794Z</time>
      </trkpt>
      <trkpt lat="48.84677" lon="2.40622">
        <ele>143.2</ele>
        <time>2015-04-06T20:10:47.847Z</time>
      </trkpt>
      <trkpt lat="48.84672" lon="2.40621">
        <ele>143.2</ele>
        <time>2015-04-06T20:10:48.748Z</time>
      </trkpt>
      <trkpt lat="48.84667" lon="2.40619">
        <ele>143.2</ele>
        <time>2015-04-06T20:10:49.846Z</time>
      </trkpt>
      <trkpt lat="48.84661" lon="2.40616">
        <ele>143.3</ele>
        <time>2015-04-06T20:10:50.828Z</time>
      </trkpt>
      <trkpt lat="48.84653" lon="2.40613">
        <ele>143.3</ele>
        <time>2015-04-06T20:10:51.831Z</time>
      </trkpt>
      <trkpt lat="48.84462" lon="2.40574">
        <ele>135</ele>
        <time>2015-04-06T20:11:18.813Z</time>
      </trkpt>
      <trkpt lat="48.84458" lon="2.40565">
        <ele>133.1</ele>
        <time>2015-04-06T20:11:26.751Z</time>
      </trkpt>
      <trkpt lat="48.84456" lon="2.40563">
        <ele>133.4</ele>
        <time>2015-04-06T20:11:27.753Z</time>
      </trkpt>
      <trkpt lat="48.84448" lon="2.40559">
        <ele>133.8</ele>
        <time>2015-04-06T20:11:29.798Z</time>
      </trkpt>
      <trkpt lat="48.84443" lon="2.40558">
        <ele>133.8</ele>
        <time>2015-04-06T20:11:30.817Z</time>
      </trkpt>
      <trkpt lat="48.84438" lon="2.40557">
        <ele>133.9</ele>
        <time>2015-04-06T20:11:31.846Z</time>
      </trkpt>
      <trkpt lat="48.84433" lon="2.40557">
        <ele>134</ele>
        <time>2015-04-06T20:11:32.728Z</time>
      </trkpt>
      <trkpt lat="48.84429" lon="2.40555">
        <ele>133.7</ele>
        <time>2015-04-06T20:11:33.752Z</time>
      </trkpt>
      <trkpt lat="48.84423" lon="2.40555">
        <ele>133.2</ele>
        <time>2015-04-06T20:11:34.789Z</time>
      </trkpt>
      <trkpt lat="48.84415" lon="2.40556">
        <ele>131.9</ele>
        <time>2015-04-06T20:11:35.807Z</time>
      </trkpt>
      <trkpt lat="48.84408" lon="2.40555">
        <ele>131.1</ele>
        <time>2015-04-06T20:11:36.817Z</time>
      </trkpt>
      <trkpt lat="48.844" lon="2.40555">
        <ele>130.4</ele>
        <time>2015-04-06T20:11:37.839Z</time>
      </trkpt>
      <trkpt lat="48.84392" lon="2.40552">
        <ele>130.4</ele>
        <time>2015-04-06T20:11:38.754Z</time>
      </trkpt>
      <trkpt lat="48.84384" lon="2.4055">
        <ele>130.5</ele>
        <time>2015-04-06T20:11:39.801Z</time>
      </trkpt>
      <trkpt lat="48.84378" lon="2.40548">
        <ele>131</ele>
        <time>2015-04-06T20:11:40.817Z</time>
      </trkpt>
      <trkpt lat="48.84371" lon="2.40545">
        <ele>131.2</ele>
        <time>2015-04-06T20:11:41.730Z</time>
      </trkpt>
      <trkpt lat="48.84366" lon="2.40541">
        <ele>131.8</ele>
        <time>2015-04-06T20:11:42.720Z</time>
      </trkpt>
      <trkpt lat="48.84358" lon="2.40541">
        <ele>131.6</ele>
        <time>2015-04-06T20:11:43.790Z</time>
      </trkpt>
      <trkpt lat="48.84352" lon="2.4054">
        <ele>131.6</ele>
        <time>2015-04-06T20:11:44.811Z</time>
      </trkpt>
      <trkpt lat="48.84346" lon="2.4054">
        <ele>130.8</ele>
        <time>2015-04-06T20:11:45.719Z</time>
      </trkpt>
      <trkpt lat="48.84339" lon="2.4054">
        <ele>129.9</ele>
        <time>2015-04-06T20:11:46.728Z</time>
      </trkpt>
      <trkpt lat="48.84333" lon="2.40538">
        <ele>128.9</ele>
        <time>2015-04-06T20:11:47.740Z</time>
      </trkpt>
      <trkpt lat="48.8433" lon="2.40535">
        <ele>128.5</ele>
        <time>2015-04-06T20:11:48.745Z</time>
      </trkpt>
      <trkpt lat="48.84326" lon="2.40532">
        <ele>128.3</ele>
        <time>2015-04-06T20:11:49.806Z</time>
      </trkpt>
      <trkpt lat="48.84321" lon="2.40532">
        <ele>128.5</ele>
        <time>2015-04-06T20:11:50.722Z</time>
      </trkpt>
      <trkpt lat="48.84316" lon="2.40531">
        <ele>128.3</ele>
        <time>2015-04-06T20:11:51.729Z</time>
      </trkpt>
      <trkpt lat="48.8431" lon="2.4053">
        <ele>128.2</ele>
        <time>2015-04-06T20:11:52.742Z</time>
      </trkpt>
      <trkpt lat="48.84302" lon="2.40532">
        <ele>127.2</ele>
        <time>2015-04-06T20:11:53.722Z</time>
      </trkpt>
      <trkpt lat="48.84297" lon="2.40529">
        <ele>126.8</ele>
        <time>2015-04-06T20:11:54.726Z</time>
      </trkpt>
      <trkpt lat="48.84292" lon="2.40527">
        <ele>126.7</ele>
        <time>2015-04-06T20:11:55.777Z</time>
      </trkpt>
      <trkpt lat="48.84288" lon="2.40524">
        <ele>126.7</ele>
        <time>2015-04-06T20:11:56.785Z</time>
      </trkpt>
      <trkpt lat="48.84282" lon="2.40522">
        <ele>126.5</ele>
        <time>2015-04-06T20:11:57.811Z</time>
      </trkpt>
      <trkpt lat="48.84276" lon="2.4052">
        <ele>126.4</ele>
        <time>2015-04-06T20:11:58.704Z</time>
      </trkpt>
      <trkpt lat="48.84269" lon="2.40518">
        <ele>126.2</ele>
        <time>2015-04-06T20:11:59.753Z</time>
      </trkpt>
      <trkpt lat="48.84263" lon="2.40517">
        <ele>125.7</ele>
        <time>2015-04-06T20:12:00.776Z</time>
      </trkpt>
      <trkpt lat="48.84257" lon="2.40516">
        <ele>125.6</ele>
        <time>2015-04-06T20:12:01.792Z</time>
      </trkpt>
      <trkpt lat="48.8425" lon="2.40513">
        <ele>125.4</ele>
        <time>2015-04-06T20:12:02.808Z</time>
      </trkpt>
      <trkpt lat="48.84243" lon="2.40514">
        <ele>125</ele>
        <time>2015-04-06T20:12:03.725Z</time>
      </trkpt>
      <trkpt lat="48.84235" lon="2.40514">
        <ele>124</ele>
        <time>2015-04-06T20:12:04.727Z</time>
      </trkpt>
      <trkpt lat="48.84229" lon="2.40514">
        <ele>124</ele>
        <time>2015-04-06T20:12:05.744Z</time>
      </trkpt>
      <trkpt lat="48.84223" lon="2.40514">
        <ele>124.2</ele>
        <time>2015-04-06T20:12:06.764Z</time>
      </trkpt>
      <trkpt lat="48.84217" lon="2.4051">
        <ele>123.9</ele>
        <time>2015-04-06T20:12:07.792Z</time>
      </trkpt>
      <trkpt lat="48.8421" lon="2.40508">
        <ele>123.7</ele>
        <time>2015-04-06T20:12:08.796Z</time>
      </trkpt>
      <trkpt lat="48.84205" lon="2.40505">
        <ele>123.5</ele>
        <time>2015-04-06T20:12:09.811Z</time>
      </trkpt>
      <trkpt lat="48.84199" lon="2.40503">
        <ele>123.4</ele>
        <time>2015-04-06T20:12:10.743Z</time>
      </trkpt>
      <trkpt lat="48.84193" lon="2.40499">
        <ele>123.2</ele>
        <time>2015-04-06T20:12:11.732Z</time>
      </trkpt>
      <trkpt lat="48.84187" lon="2.40495">
        <ele>122.9</ele>
        <time>2015-04-06T20:12:12.743Z</time>
      </trkpt>
      <trkpt lat="48.84183" lon="2.40491">
        <ele>122.6</ele>
        <time>2015-04-06T20:12:13.761Z</time>
      </trkpt>
      <trkpt lat="48.84178" lon="2.40488">
        <ele>122.4</ele>
        <time>2015-04-06T20:12:14.768Z</time>
      </trkpt>
      <trkpt lat="48.84174" lon="2.40486">
        <ele>122.5</ele>
        <time>2015-04-06T20:12:15.774Z</time>
      </trkpt>
      <trkpt lat="48.84169" lon="2.40486">
        <ele>122.9</ele>
        <time>2015-04-06T20:12:16.781Z</time>
      </trkpt>
      <trkpt lat="48.84163" lon="2.40486">
        <ele>123.4</ele>
        <time>2015-04-06T20:12:17.787Z</time>
      </trkpt>
      <trkpt lat="48.84158" lon="2.40484">
        <ele>123.7</ele>
        <time>2015-04-06T20:12:18.792Z</time>
      </trkpt>
      <trkpt lat="48.8415" lon="2.40477">
        <ele>122.9</ele>
        <time>2015-04-06T20:12:20.726Z</time>
      </trkpt>
      <trkpt lat="48.84145" lon="2.40474">
        <ele>123</ele>
        <time>2015-04-06T20:12:21.754Z</time>
      </trkpt>
      <trkpt lat="48.8414" lon="2.40471">
        <ele>122.9</ele>
        <time>2015-04-06T20:12:22.761Z</time>
      </trkpt>
      <trkpt lat="48.84134" lon="2.40471">
        <ele>122.5</ele>
        <time>2015-04-06T20:12:23.778Z</time>
      </trkpt>
      <trkpt lat="48.84126" lon="2.4047">
        <ele>121.6</ele>
        <time>2015-04-06T20:12:24.783Z</time>
      </trkpt>
      <trkpt lat="48.84107" lon="2.40465">
        <ele>121.2</ele>
        <time>2015-04-06T20:12:26.728Z</time>
      </trkpt>
      <trkpt lat="48.84092" lon="2.40463">
        <ele>120.7</ele>
        <time>2015-04-06T20:12:27.755Z</time>
      </trkpt>
      <trkpt lat="48.84078" lon="2.40463">
        <ele>120.3</ele>
        <time>2015-04-06T20:12:28.797Z</time>
      </trkpt>
      <trkpt lat="48.84063" lon="2.40461">
        <ele>120</ele>
        <time>2015-04-06T20:12:30.729Z</time>
      </trkpt>
      <trkpt lat="48.84058" lon="2.40459">
        <ele>119.9</ele>
        <time>2015-04-06T20:12:31.827Z</time>
      </trkpt>
      <trkpt lat="48.8405" lon="2.40458">
        <ele>119.8</ele>
        <time>2015-04-06T20:12:32.752Z</time>
      </trkpt>
      <trkpt lat="48.84045" lon="2.40456">
        <ele>119.5</ele>
        <time>2015-04-06T20:12:33.724Z</time>
      </trkpt>
      <trkpt lat="48.84039" lon="2.40455">
        <ele>119.1</ele>
        <time>2015-04-06T20:12:34.729Z</time>
      </trkpt>
      <trkpt lat="48.8403" lon="2.40455">
        <ele>118</ele>
        <time>2015-04-06T20:12:35.742Z</time>
      </trkpt>
      <trkpt lat="48.84023" lon="2.40454">
        <ele>117.4</ele>
        <time>2015-04-06T20:12:36.745Z</time>
      </trkpt>
      <trkpt lat="48.84016" lon="2.40453">
        <ele>116.7</ele>
        <time>2015-04-06T20:12:37.769Z</time>
      </trkpt>
      <trkpt lat="48.84009" lon="2.40451">
        <ele>116.4</ele>
        <time>2015-04-06T20:12:38.779Z</time>
      </trkpt>
      <trkpt lat="48.84003" lon="2.4045">
        <ele>116.4</ele>
        <time>2015-04-06T20:12:39.787Z</time>
      </trkpt>
      <trkpt lat="48.83997" lon="2.40448">
        <ele>115.7</ele>
        <time>2015-04-06T20:12:40.791Z</time>
      </trkpt>
      <trkpt lat="48.83761" lon="2.40367">
        <ele>118.7</ele>
        <time>2015-04-06T20:13:16.816Z</time>
      </trkpt>
      <trkpt lat="48.83755" lon="2.40365">
        <ele>118.5</ele>
        <time>2015-04-06T20:13:17.723Z</time>
      </trkpt>
      <trkpt lat="48.83749" lon="2.40363">
        <ele>118.3</ele>
        <time>2015-04-06T20:13:18.718Z</time>
      </trkpt>
      <trkpt lat="48.83742" lon="2.40359">
        <ele>117.8</ele>
        <time>2015-04-06T20:13:20.800Z</time>
      </trkpt>
      <trkpt lat="48.83739" lon="2.40356">
        <ele>117.7</ele>
        <time>2015-04-06T20:13:21.738Z</time>
      </trkpt>
      <trkpt lat="48.83731" lon="2.40349">
        <ele>117.4</ele>
        <time>2015-04-06T20:13:24.751Z</time>
      </trkpt>
      <trkpt lat="48.83727" lon="2.40347">
        <ele>117.2</ele>
        <time>2015-04-06T20:13:25.785Z</time>
      </trkpt>
      <trkpt lat="48.83721" lon="2.40344">
        <ele>116.7</ele>
        <time>2015-04-06T20:13:27.763Z</time>
      </trkpt>
      <trkpt lat="48.83714" lon="2.40343">
        <ele>116.9</ele>
        <time>2015-04-06T20:13:28.775Z</time>
      </trkpt>
      <trkpt lat="48.83707" lon="2.40343">
        <ele>116.8</ele>
        <time>2015-04-06T20:13:29.810Z</time>
      </trkpt>
      <trkpt lat="48.83703" lon="2.40347">
        <ele>114.6</ele>
        <time>2015-04-06T20:13:30.726Z</time>
      </trkpt>
      <trkpt lat="48.83697" lon="2.40345">
        <ele>111.7</ele>
        <time>2015-04-06T20:13:33.749Z</time>
      </trkpt>
      <trkpt lat="48.83689" lon="2.40346">
        <ele>110</ele>
        <time>2015-04-06T20:13:34.774Z</time>
      </trkpt>
      <trkpt lat="48.83683" lon="2.40348">
        <ele>108.9</ele>
        <time>2015-04-06T20:14:15.731Z</time>
      </trkpt>
      <trkpt lat="48.8368" lon="2.40354">
        <ele>112.7</ele>
        <time>2015-04-06T20:14:16.725Z</time>
      </trkpt>
      <trkpt lat="48.83682" lon="2.40354">
        <ele>114.4</ele>
        <time>2015-04-06T20:15:26.807Z</time>
      </trkpt>
      <trkpt lat="48.8367" lon="2.40346">
        <ele>107.5</ele>
        <time>2015-04-06T20:15:27.828Z</time>
      </trkpt>
      <trkpt lat="48.83662" lon="2.40342">
        <ele>106.6</ele>
        <time>2015-04-06T20:15:29.735Z</time>
      </trkpt>
      <trkpt lat="48.83659" lon="2.40339">
        <ele>106.5</ele>
        <time>2015-04-06T20:15:30.811Z</time>
      </trkpt>
      <trkpt lat="48.83652" lon="2.40331">
        <ele>107.1</ele>
        <time>2015-04-06T20:15:32.711Z</time>
      </trkpt>
      <trkpt lat="48.83649" lon="2.40327">
        <ele>107.5</ele>
        <time>2015-04-06T20:15:33.765Z</time>
      </trkpt>
      <trkpt lat="48.83642" lon="2.4032">
        <ele>107.6</ele>
        <time>2015-04-06T20:15:35.818Z</time>
      </trkpt>
      <trkpt lat="48.83641" lon="2.40316">
        <ele>107.8</ele>
        <time>2015-04-06T20:15:36.746Z</time>
      </trkpt>
      <trkpt lat="48.83638" lon="2.40306">
        <ele>108.3</ele>
        <time>2015-04-06T20:15:38.751Z</time>
      </trkpt>
      <trkpt lat="48.8363" lon="2.40302">
        <ele>109.8</ele>
        <time>2015-04-06T20:15:39.764Z</time>
      </trkpt>
      <trkpt lat="48.83629" lon="2.40291">
        <ele>110</ele>
        <time>2015-04-06T20:15:41.752Z</time>
      </trkpt>
      <trkpt lat="48.83627" lon="2.40285">
        <ele>109.8</ele>
        <time>2015-04-06T20:15:42.752Z</time>
      </trkpt>
      <trkpt lat="48.8362" lon="2.40278">
        <ele>109.6</ele>
        <time>2015-04-06T20:15:44.791Z</time>
      </trkpt>
      <trkpt lat="48.83617" lon="2.40274">
        <ele>109.4</ele>
        <time>2015-04-06T20:15:45.810Z</time>
      </trkpt>
      <trkpt lat="48.83615" lon="2.40268">
        <ele>109.1</ele>
        <time>2015-04-06T20:15:46.730Z</time>
      </trkpt>
      <trkpt lat="48.83612" lon="2.40261">
        <ele>108.7</ele>
        <time>2015-04-06T20:15:47.734Z</time>
      </trkpt>
      <trkpt lat="48.83609" lon="2.40253">
        <ele>108.3</ele>
        <time>2015-04-06T20:15:48.751Z</time>
      </trkpt>
      <trkpt lat="48.83605" lon="2.40246">
        <ele>107.8</ele>
        <time>2015-04-06T20:15:49.792Z</time>
      </trkpt>
      <trkpt lat="48.83601" lon="2.4024">
        <ele>107.7</ele>
        <time>2015-04-06T20:15:50.805Z</time>
      </trkpt>
      <trkpt lat="48.836" lon="2.40234">
        <ele>107.6</ele>
        <time>2015-04-06T20:15:51.851Z</time>
      </trkpt>
      <trkpt lat="48.83598" lon="2.40226">
        <ele>107</ele>
        <time>2015-04-06T20:15:52.713Z</time>
      </trkpt>
      <trkpt lat="48.83594" lon="2.40221">
        <ele>106.7</ele>
        <time>2015-04-06T20:15:53.731Z</time>
      </trkpt>
      <trkpt lat="48.83591" lon="2.40215">
        <ele>106.7</ele>
        <time>2015-04-06T20:15:54.750Z</time>
      </trkpt>
      <trkpt lat="48.83589" lon="2.40209">
        <ele>106.6</ele>
        <time>2015-04-06T20:15:55.770Z</time>
      </trkpt>
      <trkpt lat="48.83586" lon="2.40203">
        <ele>106.5</ele>
        <time>2015-04-06T20:15:56.782Z</time>
      </trkpt>
      <trkpt lat="48.83582" lon="2.40197">
        <ele>106.6</ele>
        <time>2015-04-06T20:15:57.711Z</time>
      </trkpt>
      <trkpt lat="48.83578" lon="2.4019">
        <ele>106.5</ele>
        <time>2015-04-06T20:15:58.747Z</time>
      </trkpt>
      <trkpt lat="48.83574" lon="2.40184">
        <ele>106.6</ele>
        <time>2015-04-06T20:15:59.754Z</time>
      </trkpt>
      <trkpt lat="48.8357" lon="2.4018">
        <ele>106.6</ele>
        <time>2015-04-06T20:16:00.773Z</time>
      </trkpt>
      <trkpt lat="48.83566" lon="2.40175">
        <ele>106.6</ele>
        <time>2015-04-06T20:16:01.789Z</time>
      </trkpt>
      <trkpt lat="48.8356" lon="2.40167">
        <ele>106.6</ele>
        <time>2015-04-06T20:16:03.730Z</time>
      </trkpt>
      <trkpt lat="48.83556" lon="2.40163">
        <ele>106.6</ele>
        <time>2015-04-06T20:16:04.761Z</time>
      </trkpt>
      <trkpt lat="48.83551" lon="2.40159">
        <ele>106.5</ele>
        <time>2015-04-06T20:16:05.792Z</time>
      </trkpt>
      <trkpt lat="48.83547" lon="2.40154">
        <ele>106.5</ele>
        <time>2015-04-06T20:16:06.810Z</time>
      </trkpt>
      <trkpt lat="48.83543" lon="2.4015">
        <ele>106.4</ele>
        <time>2015-04-06T20:16:07.833Z</time>
      </trkpt>
      <trkpt lat="48.8354" lon="2.40145">
        <ele>106.5</ele>
        <time>2015-04-06T20:16:08.726Z</time>
      </trkpt>
      <trkpt lat="48.83538" lon="2.40136">
        <ele>105.7</ele>
        <time>2015-04-06T20:16:09.723Z</time>
      </trkpt>
      <trkpt lat="48.83533" lon="2.40129">
        <ele>105.2</ele>
        <time>2015-04-06T20:16:10.744Z</time>
      </trkpt>
      <trkpt lat="48.83528" lon="2.40121">
        <ele>104.3</ele>
        <time>2015-04-06T20:16:11.806Z</time>
      </trkpt>
      <trkpt lat="48.83523" lon="2.40114">
        <ele>103.8</ele>
        <time>2015-04-06T20:16:12.725Z</time>
      </trkpt>
      <trkpt lat="48.83518" lon="2.40109">
        <ele>103.5</ele>
        <time>2015-04-06T20:16:13.761Z</time>
      </trkpt>
      <trkpt lat="48.83513" lon="2.40105">
        <ele>103.3</ele>
        <time>2015-04-06T20:16:14.752Z</time>
      </trkpt>
      <trkpt lat="48.83508" lon="2.401">
        <ele>103.2</ele>
        <time>2015-04-06T20:16:15.780Z</time>
      </trkpt>
      <trkpt lat="48.83503" lon="2.40096">
        <ele>103.4</ele>
        <time>2015-04-06T20:16:16.793Z</time>
      </trkpt>
      <trkpt lat="48.83496" lon="2.40093">
        <ele>103.4</ele>
        <time>2015-04-06T20:16:17.808Z</time>
      </trkpt>
      <trkpt lat="48.83489" lon="2.40089">
        <ele>102.5</ele>
        <time>2015-04-06T20:16:18.724Z</time>
      </trkpt>
      <trkpt lat="48.83483" lon="2.40086">
        <ele>102.4</ele>
        <time>2015-04-06T20:16:19.835Z</time>
      </trkpt>
      <trkpt lat="48.83477" lon="2.40082">
        <ele>102.2</ele>
        <time>2015-04-06T20:16:20.756Z</time>
      </trkpt>
      <trkpt lat="48.83472" lon="2.40078">
        <ele>102.2</ele>
        <time>2015-04-06T20:16:21.767Z</time>
      </trkpt>
      <trkpt lat="48.83466" lon="2.40073">
        <ele>102.1</ele>
        <time>2015-04-06T20:16:22.775Z</time>
      </trkpt>
      <trkpt lat="48.83464" lon="2.40061">
        <ele>102.6</ele>
        <time>2015-04-06T20:16:26.874Z</time>
      </trkpt>
      <trkpt lat="48.83467" lon="2.40058">
        <ele>102.5</ele>
        <time>2015-04-06T20:16:27.744Z</time>
      </trkpt>
      <trkpt lat="48.83472" lon="2.40048">
        <ele>102.4</ele>
        <time>2015-04-06T20:16:30.784Z</time>
      </trkpt>
      <trkpt lat="48.83474" lon="2.40044">
        <ele>102.9</ele>
        <time>2015-04-06T20:16:31.795Z</time>
      </trkpt>
      <trkpt lat="48.83477" lon="2.40035">
        <ele>102.8</ele>
        <time>2015-04-06T20:16:33.732Z</time>
      </trkpt>
      <trkpt lat="48.83478" lon="2.4003">
        <ele>102.8</ele>
        <time>2015-04-06T20:16:34.760Z</time>
      </trkpt>
      <trkpt lat="48.83482" lon="2.40022">
        <ele>103</ele>
        <time>2015-04-06T20:16:36.787Z</time>
      </trkpt>
      <trkpt lat="48.83483" lon="2.40018">
        <ele>103</ele>
        <time>2015-04-06T20:16:37.849Z</time>
      </trkpt>
      <trkpt lat="48.83485" lon="2.40008">
        <ele>103.2</ele>
        <time>2015-04-06T20:16:40.759Z</time>
      </trkpt>
      <trkpt lat="48.83486" lon="2.40004">
        <ele>103.1</ele>
        <time>2015-04-06T20:16:41.794Z</time>
      </trkpt>
      <trkpt lat="48.8349" lon="2.39993">
        <ele>103</ele>
        <time>2015-04-06T20:16:43.834Z</time>
      </trkpt>
      <trkpt lat="48.83491" lon="2.39988">
        <ele>103</ele>
        <time>2015-04-06T20:16:44.760Z</time>
      </trkpt>
      <trkpt lat="48.83493" lon="2.39975">
        <ele>103.3</ele>
        <time>2015-04-06T20:16:48.781Z</time>
      </trkpt>
      <trkpt lat="48.83492" lon="2.39971">
        <ele>103.5</ele>
        <time>2015-04-06T20:16:49.802Z</time>
      </trkpt>
      <trkpt lat="48.83487" lon="2.3996">
        <ele>105.4</ele>
        <time>2015-04-06T20:16:52.755Z</time>
      </trkpt>
      <trkpt lat="48.83489" lon="2.39954">
        <ele>106.3</ele>
        <time>2015-04-06T20:16:53.765Z</time>
      </trkpt>
      <trkpt lat="48.83494" lon="2.39946">
        <ele>106.5</ele>
        <time>2015-04-06T20:16:54.786Z</time>
      </trkpt>
      <trkpt lat="48.835" lon="2.39932">
        <ele>106.6</ele>
        <time>2015-04-06T20:16:55.792Z</time>
      </trkpt>
      <trkpt lat="48.83505" lon="2.39922">
        <ele>106.4</ele>
        <time>2015-04-06T20:16:56.798Z</time>
      </trkpt>
      <trkpt lat="48.83511" lon="2.39912">
        <ele>106.6</ele>
        <time>2015-04-06T20:16:57.808Z</time>
      </trkpt>
      <trkpt lat="48.83517" lon="2.39903">
        <ele>106.6</ele>
        <time>2015-04-06T20:16:58.827Z</time>
      </trkpt>
      <trkpt lat="48.83522" lon="2.39892">
        <ele>106.8</ele>
        <time>2015-04-06T20:16:59.766Z</time>
      </trkpt>
      <trkpt lat="48.83526" lon="2.39881">
        <ele>106.9</ele>
        <time>2015-04-06T20:17:00.737Z</time>
      </trkpt>
      <trkpt lat="48.83528" lon="2.3987">
        <ele>106.8</ele>
        <time>2015-04-06T20:17:01.781Z</time>
      </trkpt>
      <trkpt lat="48.83529" lon="2.39856">
        <ele>106.7</ele>
        <time>2015-04-06T20:17:02.793Z</time>
      </trkpt>
      <trkpt lat="48.8353" lon="2.39843">
        <ele>106.4</ele>
        <time>2015-04-06T20:17:03.804Z</time>
      </trkpt>
      <trkpt lat="48.83531" lon="2.39834">
        <ele>106.3</ele>
        <time>2015-04-06T20:17:04.817Z</time>
      </trkpt>
      <trkpt lat="48.83533" lon="2.39826">
        <ele>106.2</ele>
        <time>2015-04-06T20:17:05.823Z</time>
      </trkpt>
      <trkpt lat="48.83536" lon="2.3982">
        <ele>106.1</ele>
        <time>2015-04-06T20:17:06.722Z</time>
      </trkpt>
      <trkpt lat="48.83536" lon="2.3981">
        <ele>105.4</ele>
        <time>2015-04-06T20:17:07.762Z</time>
      </trkpt>
      <trkpt lat="48.83534" lon="2.39799">
        <ele>104.8</ele>
        <time>2015-04-06T20:17:08.774Z</time>
      </trkpt>
      <trkpt lat="48.83535" lon="2.39789">
        <ele>104.4</ele>
        <time>2015-04-06T20:17:09.792Z</time>
      </trkpt>
      <trkpt lat="48.83538" lon="2.39782">
        <ele>104.2</ele>
        <time>2015-04-06T20:17:10.729Z</time>
      </trkpt>
      <trkpt lat="48.83541" lon="2.39775">
        <ele>104.5</ele>
        <time>2015-04-06T20:17:11.727Z</time>
      </trkpt>
      <trkpt lat="48.83546" lon="2.39766">
        <ele>104.8</ele>
        <time>2015-04-06T20:17:12.752Z</time>
      </trkpt>
      <trkpt lat="48.8355" lon="2.39756">
        <ele>105.5</ele>
        <time>2015-04-06T20:17:13.815Z</time>
      </trkpt>
      <trkpt lat="48.83558" lon="2.39734">
        <ele>107.2</ele>
        <time>2015-04-06T20:17:15.735Z</time>
      </trkpt>
      <trkpt lat="48.8356" lon="2.39727">
        <ele>107.4</ele>
        <time>2015-04-06T20:17:16.848Z</time>
      </trkpt>
      <trkpt lat="48.83561" lon="2.3972">
        <ele>107.5</ele>
        <time>2015-04-06T20:17:17.735Z</time>
      </trkpt>
      <trkpt lat="48.83565" lon="2.39709">
        <ele>107.1</ele>
        <time>2015-04-06T20:17:19.791Z</time>
      </trkpt>
      <trkpt lat="48.83567" lon="2.39705">
        <ele>106.7</ele>
        <time>2015-04-06T20:17:20.803Z</time>
      </trkpt>
      <trkpt lat="48.83573" lon="2.39696">
        <ele>105.7</ele>
        <time>2015-04-06T20:17:23.738Z</time>
      </trkpt>
      <trkpt lat="48.83574" lon="2.39691">
        <ele>105.5</ele>
        <time>2015-04-06T20:17:24.731Z</time>
      </trkpt>
      <trkpt lat="48.83578" lon="2.39681">
        <ele>105.1</ele>
        <time>2015-04-06T20:17:26.778Z</time>
      </trkpt>
      <trkpt lat="48.8358" lon="2.39674">
        <ele>104.8</ele>
        <time>2015-04-06T20:17:27.812Z</time>
      </trkpt>
      <trkpt lat="48.83582" lon="2.39666">
        <ele>104.6</ele>
        <time>2015-04-06T20:17:28.725Z</time>
      </trkpt>
      <trkpt lat="48.83583" lon="2.39657">
        <ele>104.4</ele>
        <time>2015-04-06T20:17:29.754Z</time>
      </trkpt>
      <trkpt lat="48.83585" lon="2.3965">
        <ele>104.2</ele>
        <time>2015-04-06T20:17:30.786Z</time>
      </trkpt>
      <trkpt lat="48.83587" lon="2.39644">
        <ele>104.1</ele>
        <time>2015-04-06T20:17:31.802Z</time>
      </trkpt>
      <trkpt lat="48.83589" lon="2.39638">
        <ele>104</ele>
        <time>2015-04-06T20:17:32.810Z</time>
      </trkpt>
      <trkpt lat="48.83592" lon="2.39632">
        <ele>104.1</ele>
        <time>2015-04-06T20:17:33.821Z</time>
      </trkpt>
      <trkpt lat="48.83596" lon="2.39624">
        <ele>104.7</ele>
        <time>2015-04-06T20:17:34.731Z</time>
      </trkpt>
      <trkpt lat="48.836" lon="2.39616">
        <ele>104.6</ele>
        <time>2015-04-06T20:17:35.731Z</time>
      </trkpt>
      <trkpt lat="48.83605" lon="2.39606">
        <ele>104.6</ele>
        <time>2015-04-06T20:17:36.486Z</time>
      </trkpt>
      <trkpt lat="48.8361" lon="2.39597">
        <ele>104.3</ele>
        <time>2015-04-06T20:17:37.770Z</time>
      </trkpt>
      <trkpt lat="48.83614" lon="2.39588">
        <ele>103.8</ele>
        <time>2015-04-06T20:17:38.770Z</time>
      </trkpt>
      <trkpt lat="48.8362" lon="2.39576">
        <ele>103.5</ele>
        <time>2015-04-06T20:17:39.781Z</time>
      </trkpt>
      <trkpt lat="48.8362" lon="2.39576">
        <ele>103.5</ele>
        <time>2015-04-06T20:17:40.280Z</time>
      </trkpt>
      <trkpt lat="48.83628" lon="2.39562">
        <ele>103.1</ele>
        <time>2015-04-06T20:17:40.789Z</time>
      </trkpt>
      <trkpt lat="48.83634" lon="2.39548">
        <ele>102.9</ele>
        <time>2015-04-06T20:17:41.731Z</time>
      </trkpt>
      <trkpt lat="48.8364" lon="2.39533">
        <ele>102.8</ele>
        <time>2015-04-06T20:17:42.732Z</time>
      </trkpt>
      <trkpt lat="48.83647" lon="2.39517">
        <ele>102.8</ele>
        <time>2015-04-06T20:17:43.806Z</time>
      </trkpt>
      <trkpt lat="48.83653" lon="2.395">
        <ele>103.1</ele>
        <time>2015-04-06T20:17:44.819Z</time>
      </trkpt>
      <trkpt lat="48.8366" lon="2.39484">
        <ele>103.3</ele>
        <time>2015-04-06T20:17:45.722Z</time>
      </trkpt>
      <trkpt lat="48.83667" lon="2.39469">
        <ele>103.3</ele>
        <time>2015-04-06T20:17:46.721Z</time>
      </trkpt>
      <trkpt lat="48.83673" lon="2.39453">
        <ele>103.2</ele>
        <time>2015-04-06T20:17:47.734Z</time>
      </trkpt>
      <trkpt lat="48.83678" lon="2.39439">
        <ele>103.6</ele>
        <time>2015-04-06T20:17:48.771Z</time>
      </trkpt>
      <trkpt lat="48.83748" lon="2.39304">
        <ele>101.6</ele>
        <time>2015-04-06T20:17:58.828Z</time>
      </trkpt>
      <trkpt lat="48.83752" lon="2.39294">
        <ele>101.7</ele>
        <time>2015-04-06T20:18:00.727Z</time>
      </trkpt>
      <trkpt lat="48.83756" lon="2.39288">
        <ele>101.5</ele>
        <time>2015-04-06T20:18:01.760Z</time>
      </trkpt>
      <trkpt lat="48.83758" lon="2.39282">
        <ele>101</ele>
        <time>2015-04-06T20:18:02.767Z</time>
      </trkpt>
      <trkpt lat="48.83762" lon="2.39275">
        <ele>101</ele>
        <time>2015-04-06T20:18:03.776Z</time>
      </trkpt>
      <trkpt lat="48.83771" lon="2.39261">
        <ele>100.9</ele>
        <time>2015-04-06T20:18:06.759Z</time>
      </trkpt>
      <trkpt lat="48.83765" lon="2.39255">
        <ele>100.2</ele>
        <time>2015-04-06T20:18:08.781Z</time>
      </trkpt>
      <trkpt lat="48.8376" lon="2.39256">
        <ele>100.8</ele>
        <time>2015-04-06T20:18:09.792Z</time>
      </trkpt>
      <trkpt lat="48.83754" lon="2.39254">
        <ele>101.6</ele>
        <time>2015-04-06T20:18:11.816Z</time>
      </trkpt>
      <trkpt lat="48.8375" lon="2.39253">
        <ele>102.3</ele>
        <time>2015-04-06T20:18:12.823Z</time>
      </trkpt>
      <trkpt lat="48.83742" lon="2.39246">
        <ele>102.2</ele>
        <time>2015-04-06T20:18:14.740Z</time>
      </trkpt>
      <trkpt lat="48.8374" lon="2.3924">
        <ele>101.6</ele>
        <time>2015-04-06T20:18:15.756Z</time>
      </trkpt>
      <trkpt lat="48.83739" lon="2.39233">
        <ele>100.7</ele>
        <time>2015-04-06T20:18:16.810Z</time>
      </trkpt>
      <trkpt lat="48.83736" lon="2.39217">
        <ele>100</ele>
        <time>2015-04-06T20:18:18.757Z</time>
      </trkpt>
      <trkpt lat="48.83733" lon="2.39208">
        <ele>100.1</ele>
        <time>2015-04-06T20:18:19.772Z</time>
      </trkpt>
      <trkpt lat="48.83733" lon="2.392">
        <ele>100.4</ele>
        <time>2015-04-06T20:18:20.772Z</time>
      </trkpt>
      <trkpt lat="48.83735" lon="2.39192">
        <ele>100.6</ele>
        <time>2015-04-06T20:18:21.798Z</time>
      </trkpt>
      <trkpt lat="48.83739" lon="2.39183">
        <ele>100.7</ele>
        <time>2015-04-06T20:18:22.810Z</time>
      </trkpt>
      <trkpt lat="48.83743" lon="2.39176">
        <ele>101</ele>
        <time>2015-04-06T20:18:23.743Z</time>
      </trkpt>
      <trkpt lat="48.83746" lon="2.3917">
        <ele>101</ele>
        <time>2015-04-06T20:18:24.745Z</time>
      </trkpt>
      <trkpt lat="48.83749" lon="2.39164">
        <ele>101.3</ele>
        <time>2015-04-06T20:18:25.799Z</time>
      </trkpt>
      <trkpt lat="48.83752" lon="2.39158">
        <ele>101.2</ele>
        <time>2015-04-06T20:18:26.802Z</time>
      </trkpt>
      <trkpt lat="48.83756" lon="2.39151">
        <ele>101.2</ele>
        <time>2015-04-06T20:18:27.737Z</time>
      </trkpt>
      <trkpt lat="48.83757" lon="2.39146">
        <ele>101</ele>
        <time>2015-04-06T20:18:28.737Z</time>
      </trkpt>
      <trkpt lat="48.83759" lon="2.39135">
        <ele>99.3</ele>
        <time>2015-04-06T20:18:31.797Z</time>
      </trkpt>
      <trkpt lat="48.83758" lon="2.3913">
        <ele>98.1</ele>
        <time>2015-04-06T20:18:32.802Z</time>
      </trkpt>
      <trkpt lat="48.83751" lon="2.39128">
        <ele>93.3</ele>
        <time>2015-04-06T20:18:38.840Z</time>
      </trkpt>
      <trkpt lat="48.83749" lon="2.39129">
        <ele>92.6</ele>
        <time>2015-04-06T20:18:39.768Z</time>
      </trkpt>
      <trkpt lat="48.83749" lon="2.39129">
        <ele>92.6</ele>
        <time>2015-04-06T20:19:05.760Z</time>
      </trkpt>
      <trkpt lat="48.83714" lon="2.39132">
        <ele>85.9</ele>
        <time>2015-04-06T20:19:06.781Z</time>
      </trkpt>
      <trkpt lat="48.83712" lon="2.39131">
        <ele>86.8</ele>
        <time>2015-04-06T20:19:38.809Z</time>
      </trkpt>
      <trkpt lat="48.83719" lon="2.39115">
        <ele>93.3</ele>
        <time>2015-04-06T20:19:39.857Z</time>
      </trkpt>
      <trkpt lat="48.83725" lon="2.39106">
        <ele>92.9</ele>
        <time>2015-04-06T20:19:46.786Z</time>
      </trkpt>
      <trkpt lat="48.83726" lon="2.39104">
        <ele>92.9</ele>
        <time>2015-04-06T20:19:47.803Z</time>
      </trkpt>
      <trkpt lat="48.83722" lon="2.39092">
        <ele>93</ele>
        <time>2015-04-06T20:19:53.790Z</time>
      </trkpt>
      <trkpt lat="48.83723" lon="2.39087">
        <ele>93.2</ele>
        <time>2015-04-06T20:19:54.804Z</time>
      </trkpt>
      <trkpt lat="48.83723" lon="2.39076">
        <ele>92.6</ele>
        <time>2015-04-06T20:19:56.825Z</time>
      </trkpt>
      <trkpt lat="48.83723" lon="2.39071">
        <ele>92.9</ele>
        <time>2015-04-06T20:19:57.863Z</time>
      </trkpt>
      <trkpt lat="48.83722" lon="2.39059">
        <ele>93.5</ele>
        <time>2015-04-06T20:19:59.753Z</time>
      </trkpt>
      <trkpt lat="48.83721" lon="2.39054">
        <ele>93.5</ele>
        <time>2015-04-06T20:20:00.771Z</time>
      </trkpt>
      <trkpt lat="48.83719" lon="2.39043">
        <ele>94.3</ele>
        <time>2015-04-06T20:20:02.817Z</time>
      </trkpt>
      <trkpt lat="48.83718" lon="2.39037">
        <ele>94.9</ele>
        <time>2015-04-06T20:20:03.834Z</time>
      </trkpt>
      <trkpt lat="48.83715" lon="2.39025">
        <ele>96.2</ele>
        <time>2015-04-06T20:20:05.739Z</time>
      </trkpt>
      <trkpt lat="48.83712" lon="2.39019">
        <ele>96.9</ele>
        <time>2015-04-06T20:20:06.836Z</time>
      </trkpt>
      <trkpt lat="48.83708" lon="2.39007">
        <ele>98.5</ele>
        <time>2015-04-06T20:20:08.819Z</time>
      </trkpt>
      <trkpt lat="48.83706" lon="2.39002">
        <ele>98.8</ele>
        <time>2015-04-06T20:20:09.837Z</time>
      </trkpt>
      <trkpt lat="48.83704" lon="2.38991">
        <ele>99.4</ele>
        <time>2015-04-06T20:20:11.737Z</time>
      </trkpt>
      <trkpt lat="48.83703" lon="2.38988">
        <ele>99.4</ele>
        <time>2015-04-06T20:20:12.777Z</time>
      </trkpt>
      <trkpt lat="48.83705" lon="2.38902">
        <ele>98.1</ele>
        <time>2015-04-06T20:20:31.803Z</time>
      </trkpt>
      <trkpt lat="48.83704" lon="2.38898">
        <ele>98.1</ele>
        <time>2015-04-06T20:20:32.801Z</time>
      </trkpt>
      <trkpt lat="48.83706" lon="2.38885">
        <ele>97.3</ele>
        <time>2015-04-06T20:20:33.879Z</time>
      </trkpt>
      <trkpt lat="48.83708" lon="2.38874">
        <ele>96.8</ele>
        <time>2015-04-06T20:20:34.715Z</time>
      </trkpt>
      <trkpt lat="48.83707" lon="2.38871">
        <ele>96</ele>
        <time>2015-04-06T20:20:35.758Z</time>
      </trkpt>
      <trkpt lat="48.83704" lon="2.38866">
        <ele>95.2</ele>
        <time>2015-04-06T20:20:36.896Z</time>
      </trkpt>
      <trkpt lat="48.83709" lon="2.38809">
        <ele>90.9</ele>
        <time>2015-04-06T20:20:42.772Z</time>
      </trkpt>
      <trkpt lat="48.8372" lon="2.38787">
        <ele>93.4</ele>
        <time>2015-04-06T20:20:43.823Z</time>
      </trkpt>
      <trkpt lat="48.83731" lon="2.38765">
        <ele>94.2</ele>
        <time>2015-04-06T20:20:44.829Z</time>
      </trkpt>
      <trkpt lat="48.83734" lon="2.38753">
        <ele>92.5</ele>
        <time>2015-04-06T20:20:49.810Z</time>
      </trkpt>
      <trkpt lat="48.83731" lon="2.38754">
        <ele>92.1</ele>
        <time>2015-04-06T20:20:50.845Z</time>
      </trkpt>
      <trkpt lat="48.83728" lon="2.38755">
        <ele>92.7</ele>
        <time>2015-04-06T20:21:02.825Z</time>
      </trkpt>
      <trkpt lat="48.83692" lon="2.38754">
        <ele>100.3</ele>
        <time>2015-04-06T20:21:03.841Z</time>
      </trkpt>
      <trkpt lat="48.83684" lon="2.38755">
        <ele>99.7</ele>
        <time>2015-04-06T20:21:05.746Z</time>
      </trkpt>
      <trkpt lat="48.83679" lon="2.38756">
        <ele>98.5</ele>
        <time>2015-04-06T20:21:06.732Z</time>
      </trkpt>
      <trkpt lat="48.83679" lon="2.38756">
        <ele>98.5</ele>
        <time>2015-04-06T20:21:19.849Z</time>
      </trkpt>
      <trkpt lat="48.83654" lon="2.38748">
        <ele>99.4</ele>
        <time>2015-04-06T20:21:20.777Z</time>
      </trkpt>
      <trkpt lat="48.8365" lon="2.38736">
        <ele>100.3</ele>
        <time>2015-04-06T20:21:23.787Z</time>
      </trkpt>
      <trkpt lat="48.83648" lon="2.38731">
        <ele>100.8</ele>
        <time>2015-04-06T20:21:24.800Z</time>
      </trkpt>
      <trkpt lat="48.83643" lon="2.38721">
        <ele>100.1</ele>
        <time>2015-04-06T20:21:27.811Z</time>
      </trkpt>
      <trkpt lat="48.83642" lon="2.38718">
        <ele>99.7</ele>
        <time>2015-04-06T20:21:28.829Z</time>
      </trkpt>
      <trkpt lat="48.83639" lon="2.38712">
        <ele>99.5</ele>
        <time>2015-04-06T20:21:30.772Z</time>
      </trkpt>
      <trkpt lat="48.83636" lon="2.38707">
        <ele>99.4</ele>
        <time>2015-04-06T20:21:31.827Z</time>
      </trkpt>
      <trkpt lat="48.83631" lon="2.38701">
        <ele>98.9</ele>
        <time>2015-04-06T20:21:32.751Z</time>
      </trkpt>
      <trkpt lat="48.83627" lon="2.38697">
        <ele>98.7</ele>
        <time>2015-04-06T20:21:33.763Z</time>
      </trkpt>
      <trkpt lat="48.83621" lon="2.3869">
        <ele>96.9</ele>
        <time>2015-04-06T20:21:34.782Z</time>
      </trkpt>
      <trkpt lat="48.83617" lon="2.38686">
        <ele>97.5</ele>
        <time>2015-04-06T20:21:35.788Z</time>
      </trkpt>
      <trkpt lat="48.83613" lon="2.38683">
        <ele>98.2</ele>
        <time>2015-04-06T20:21:36.811Z</time>
      </trkpt>
      <trkpt lat="48.83608" lon="2.3868">
        <ele>98.7</ele>
        <time>2015-04-06T20:21:37.826Z</time>
      </trkpt>
      <trkpt lat="48.83603" lon="2.38677">
        <ele>98.8</ele>
        <time>2015-04-06T20:21:38.748Z</time>
      </trkpt>
      <trkpt lat="48.83598" lon="2.38675">
        <ele>98.6</ele>
        <time>2015-04-06T20:21:39.752Z</time>
      </trkpt>
      <trkpt lat="48.83593" lon="2.38672">
        <ele>98.2</ele>
        <time>2015-04-06T20:21:40.777Z</time>
      </trkpt>
      <trkpt lat="48.83588" lon="2.3867">
        <ele>98.2</ele>
        <time>2015-04-06T20:21:41.785Z</time>
      </trkpt>
      <trkpt lat="48.83582" lon="2.38667">
        <ele>98.3</ele>
        <time>2015-04-06T20:21:42.789Z</time>
      </trkpt>
      <trkpt lat="48.83577" lon="2.38665">
        <ele>98.3</ele>
        <time>2015-04-06T20:21:43.840Z</time>
      </trkpt>
      <trkpt lat="48.83569" lon="2.38659">
        <ele>98.8</ele>
        <time>2015-04-06T20:21:46.112Z</time>
      </trkpt>
      <trkpt lat="48.83565" lon="2.38656">
        <ele>98.6</ele>
        <time>2015-04-06T20:21:46.745Z</time>
      </trkpt>
      <trkpt lat="48.83564" lon="2.38649">
        <ele>99.4</ele>
        <time>2015-04-06T20:21:47.749Z</time>
      </trkpt>
      <trkpt lat="48.83564" lon="2.3864">
        <ele>100.2</ele>
        <time>2015-04-06T20:21:48.761Z</time>
      </trkpt>
      <trkpt lat="48.83564" lon="2.38632">
        <ele>100.6</ele>
        <time>2015-04-06T20:21:49.777Z</time>
      </trkpt>
      <trkpt lat="48.83564" lon="2.38624">
        <ele>99.7</ele>
        <time>2015-04-06T20:21:50.779Z</time>
      </trkpt>
      <trkpt lat="48.83563" lon="2.38616">
        <ele>99.6</ele>
        <time>2015-04-06T20:21:51.798Z</time>
      </trkpt>
      <trkpt lat="48.83563" lon="2.38608">
        <ele>100.1</ele>
        <time>2015-04-06T20:21:52.813Z</time>
      </trkpt>
      <trkpt lat="48.83561" lon="2.38601">
        <ele>99.6</ele>
        <time>2015-04-06T20:21:53.831Z</time>
      </trkpt>
      <trkpt lat="48.8356" lon="2.38595">
        <ele>99.5</ele>
        <time>2015-04-06T20:21:54.897Z</time>
      </trkpt>
      <trkpt lat="48.83557" lon="2.38585">
        <ele>99.2</ele>
        <time>2015-04-06T20:21:54.919Z</time>
      </trkpt>
      <trkpt lat="48.83545" lon="2.38547">
        <ele>98.1</ele>
        <time>2015-04-06T20:22:02.713Z</time>
      </trkpt>
      <trkpt lat="48.83542" lon="2.38541">
        <ele>97.8</ele>
        <time>2015-04-06T20:22:03.749Z</time>
      </trkpt>
      <trkpt lat="48.83537" lon="2.38538">
        <ele>97.3</ele>
        <time>2015-04-06T20:22:04.741Z</time>
      </trkpt>
      <trkpt lat="48.83534" lon="2.38532">
        <ele>96.8</ele>
        <time>2015-04-06T20:22:05.748Z</time>
      </trkpt>
      <trkpt lat="48.83533" lon="2.38523">
        <ele>96.8</ele>
        <time>2015-04-06T20:22:06.756Z</time>
      </trkpt>
      <trkpt lat="48.83528" lon="2.38519">
        <ele>97.2</ele>
        <time>2015-04-06T20:22:07.776Z</time>
      </trkpt>
      <trkpt lat="48.83523" lon="2.38513">
        <ele>97.2</ele>
        <time>2015-04-06T20:22:08.774Z</time>
      </trkpt>
      <trkpt lat="48.83517" lon="2.38507">
        <ele>97.1</ele>
        <time>2015-04-06T20:22:09.779Z</time>
      </trkpt>
      <trkpt lat="48.83513" lon="2.385">
        <ele>97.1</ele>
        <time>2015-04-06T20:22:10.784Z</time>
      </trkpt>
      <trkpt lat="48.83507" lon="2.38492">
        <ele>97.1</ele>
        <time>2015-04-06T20:22:11.804Z</time>
      </trkpt>
      <trkpt lat="48.83501" lon="2.38485">
        <ele>97.2</ele>
        <time>2015-04-06T20:22:12.814Z</time>
      </trkpt>
      <trkpt lat="48.83494" lon="2.38477">
        <ele>97.1</ele>
        <time>2015-04-06T20:22:13.753Z</time>
      </trkpt>
      <trkpt lat="48.83489" lon="2.3847">
        <ele>97.4</ele>
        <time>2015-04-06T20:22:14.736Z</time>
      </trkpt>
      <trkpt lat="48.83483" lon="2.38462">
        <ele>97.5</ele>
        <time>2015-04-06T20:22:15.759Z</time>
      </trkpt>
      <trkpt lat="48.83479" lon="2.38453">
        <ele>97.7</ele>
        <time>2015-04-06T20:22:16.791Z</time>
      </trkpt>
      <trkpt lat="48.83474" lon="2.38446">
        <ele>96.7</ele>
        <time>2015-04-06T20:22:17.737Z</time>
      </trkpt>
      <trkpt lat="48.83468" lon="2.3844">
        <ele>96</ele>
        <time>2015-04-06T20:22:18.734Z</time>
      </trkpt>
      <trkpt lat="48.83464" lon="2.38434">
        <ele>94.9</ele>
        <time>2015-04-06T20:22:19.771Z</time>
      </trkpt>
      <trkpt lat="48.83462" lon="2.38425">
        <ele>94.6</ele>
        <time>2015-04-06T20:22:20.780Z</time>
      </trkpt>
      <trkpt lat="48.83458" lon="2.38419">
        <ele>94.4</ele>
        <time>2015-04-06T20:22:21.794Z</time>
      </trkpt>
      <trkpt lat="48.83455" lon="2.38414">
        <ele>94.4</ele>
        <time>2015-04-06T20:22:22.801Z</time>
      </trkpt>
      <trkpt lat="48.83452" lon="2.38407">
        <ele>93.9</ele>
        <time>2015-04-06T20:22:23.824Z</time>
      </trkpt>
      <trkpt lat="48.83448" lon="2.38399">
        <ele>93.2</ele>
        <time>2015-04-06T20:22:24.757Z</time>
      </trkpt>
      <trkpt lat="48.83444" lon="2.38391">
        <ele>92.8</ele>
        <time>2015-04-06T20:22:25.789Z</time>
      </trkpt>
      <trkpt lat="48.83437" lon="2.38385">
        <ele>92.4</ele>
        <time>2015-04-06T20:22:26.760Z</time>
      </trkpt>
      <trkpt lat="48.83429" lon="2.38382">
        <ele>92.4</ele>
        <time>2015-04-06T20:22:27.768Z</time>
      </trkpt>
      <trkpt lat="48.83421" lon="2.38378">
        <ele>92.4</ele>
        <time>2015-04-06T20:22:28.772Z</time>
      </trkpt>
      <trkpt lat="48.83414" lon="2.38372">
        <ele>92.3</ele>
        <time>2015-04-06T20:22:29.785Z</time>
      </trkpt>
      <trkpt lat="48.83409" lon="2.38364">
        <ele>92.3</ele>
        <time>2015-04-06T20:22:30.787Z</time>
      </trkpt>
      <trkpt lat="48.83406" lon="2.38356">
        <ele>92.2</ele>
        <time>2015-04-06T20:22:31.828Z</time>
      </trkpt>
      <trkpt lat="48.83404" lon="2.38348">
        <ele>92.5</ele>
        <time>2015-04-06T20:22:32.729Z</time>
      </trkpt>
      <trkpt lat="48.83401" lon="2.38339">
        <ele>92.8</ele>
        <time>2015-04-06T20:22:33.724Z</time>
      </trkpt>
      <trkpt lat="48.83397" lon="2.38332">
        <ele>92.9</ele>
        <time>2015-04-06T20:22:34.738Z</time>
      </trkpt>
      <trkpt lat="48.83392" lon="2.38322">
        <ele>92.5</ele>
        <time>2015-04-06T20:22:35.747Z</time>
      </trkpt>
      <trkpt lat="48.83388" lon="2.38312">
        <ele>92.3</ele>
        <time>2015-04-06T20:22:36.764Z</time>
      </trkpt>
      <trkpt lat="48.83383" lon="2.38304">
        <ele>92</ele>
        <time>2015-04-06T20:22:37.776Z</time>
      </trkpt>
      <trkpt lat="48.83375" lon="2.38297">
        <ele>91.8</ele>
        <time>2015-04-06T20:22:38.794Z</time>
      </trkpt>
      <trkpt lat="48.83366" lon="2.38293">
        <ele>92</ele>
        <time>2015-04-06T20:22:39.733Z</time>
      </trkpt>
      <trkpt lat="48.83363" lon="2.38287">
        <ele>92.5</ele>
        <time>2015-04-06T20:22:40.728Z</time>
      </trkpt>
      <trkpt lat="48.83369" lon="2.38278">
        <ele>92.9</ele>
        <time>2015-04-06T20:22:41.749Z</time>
      </trkpt>
      <trkpt lat="48.8337" lon="2.38268">
        <ele>92.8</ele>
        <time>2015-04-06T20:22:42.815Z</time>
      </trkpt>
      <trkpt lat="48.83368" lon="2.38262">
        <ele>92.7</ele>
        <time>2015-04-06T20:22:43.814Z</time>
      </trkpt>
      <trkpt lat="48.83367" lon="2.38254">
        <ele>92.7</ele>
        <time>2015-04-06T20:22:44.734Z</time>
      </trkpt>
      <trkpt lat="48.83365" lon="2.38248">
        <ele>92.5</ele>
        <time>2015-04-06T20:22:45.734Z</time>
      </trkpt>
      <trkpt lat="48.83362" lon="2.38242">
        <ele>92.3</ele>
        <time>2015-04-06T20:22:46.747Z</time>
      </trkpt>
      <trkpt lat="48.83356" lon="2.38239">
        <ele>93</ele>
        <time>2015-04-06T20:22:47.750Z</time>
      </trkpt>
      <trkpt lat="48.83351" lon="2.38229">
        <ele>93.5</ele>
        <time>2015-04-06T20:22:49.786Z</time>
      </trkpt>
      <trkpt lat="48.83349" lon="2.38223">
        <ele>93.8</ele>
        <time>2015-04-06T20:22:50.798Z</time>
      </trkpt>
      <trkpt lat="48.83346" lon="2.38213">
        <ele>94</ele>
        <time>2015-04-06T20:22:52.845Z</time>
      </trkpt>
      <trkpt lat="48.83344" lon="2.38208">
        <ele>94.2</ele>
        <time>2015-04-06T20:22:53.766Z</time>
      </trkpt>
      <trkpt lat="48.83341" lon="2.38202">
        <ele>94.1</ele>
        <time>2015-04-06T20:22:54.746Z</time>
      </trkpt>
      <trkpt lat="48.83338" lon="2.38197">
        <ele>93.7</ele>
        <time>2015-04-06T20:22:55.784Z</time>
      </trkpt>
      <trkpt lat="48.83335" lon="2.38191">
        <ele>93.6</ele>
        <time>2015-04-06T20:22:56.794Z</time>
      </trkpt>
      <trkpt lat="48.83331" lon="2.38185">
        <ele>93.5</ele>
        <time>2015-04-06T20:22:57.810Z</time>
      </trkpt>
      <trkpt lat="48.83328" lon="2.3818">
        <ele>93.3</ele>
        <time>2015-04-06T20:22:58.803Z</time>
      </trkpt>
      <trkpt lat="48.83325" lon="2.38175">
        <ele>93</ele>
        <time>2015-04-06T20:22:59.810Z</time>
      </trkpt>
      <trkpt lat="48.83323" lon="2.38169">
        <ele>92.6</ele>
        <time>2015-04-06T20:23:00.717Z</time>
      </trkpt>
      <trkpt lat="48.8332" lon="2.38163">
        <ele>92.5</ele>
        <time>2015-04-06T20:23:01.837Z</time>
      </trkpt>
      <trkpt lat="48.83314" lon="2.38153">
        <ele>92.3</ele>
        <time>2015-04-06T20:23:03.742Z</time>
      </trkpt>
      <trkpt lat="48.83312" lon="2.38148">
        <ele>92.3</ele>
        <time>2015-04-06T20:23:04.770Z</time>
      </trkpt>
      <trkpt lat="48.83307" lon="2.38138">
        <ele>92.5</ele>
        <time>2015-04-06T20:23:06.802Z</time>
      </trkpt>
      <trkpt lat="48.83304" lon="2.38133">
        <ele>92.3</ele>
        <time>2015-04-06T20:23:07.835Z</time>
      </trkpt>
      <trkpt lat="48.83299" lon="2.38122">
        <ele>92.3</ele>
        <time>2015-04-06T20:23:09.744Z</time>
      </trkpt>
      <trkpt lat="48.83297" lon="2.38116">
        <ele>92.1</ele>
        <time>2015-04-06T20:23:10.766Z</time>
      </trkpt>
      <trkpt lat="48.83292" lon="2.38107">
        <ele>92.2</ele>
        <time>2015-04-06T20:23:12.799Z</time>
      </trkpt>
      <trkpt lat="48.83289" lon="2.38102">
        <ele>92.2</ele>
        <time>2015-04-06T20:23:13.837Z</time>
      </trkpt>
      <trkpt lat="48.83284" lon="2.38091">
        <ele>91.8</ele>
        <time>2015-04-06T20:23:15.759Z</time>
      </trkpt>
      <trkpt lat="48.83282" lon="2.38084">
        <ele>91</ele>
        <time>2015-04-06T20:23:16.762Z</time>
      </trkpt>
      <trkpt lat="48.83277" lon="2.38073">
        <ele>90.8</ele>
        <time>2015-04-06T20:23:18.733Z</time>
      </trkpt>
      <trkpt lat="48.83275" lon="2.38066">
        <ele>90.6</ele>
        <time>2015-04-06T20:23:19.801Z</time>
      </trkpt>
      <trkpt lat="48.8327" lon="2.38056">
        <ele>90.1</ele>
        <time>2015-04-06T20:23:21.347Z</time>
      </trkpt>
      <trkpt lat="48.83267" lon="2.3805">
        <ele>89.8</ele>
        <time>2015-04-06T20:23:22.764Z</time>
      </trkpt>
      <trkpt lat="48.83264" lon="2.38044">
        <ele>89.7</ele>
        <time>2015-04-06T20:23:23.774Z</time>
      </trkpt>
      <trkpt lat="48.83261" lon="2.38038">
        <ele>89.5</ele>
        <time>2015-04-06T20:23:24.791Z</time>
      </trkpt>
      <trkpt lat="48.83259" lon="2.38031">
        <ele>89.4</ele>
        <time>2015-04-06T20:23:25.806Z</time>
      </trkpt>
      <trkpt lat="48.83256" lon="2.38025">
        <ele>89.1</ele>
        <time>2015-04-06T20:23:26.804Z</time>
      </trkpt>
      <trkpt lat="48.83253" lon="2.3802">
        <ele>88.7</ele>
        <time>2015-04-06T20:23:27.811Z</time>
      </trkpt>
      <trkpt lat="48.83251" lon="2.38014">
        <ele>88.3</ele>
        <time>2015-04-06T20:23:28.913Z</time>
      </trkpt>
      <trkpt lat="48.83248" lon="2.38008">
        <ele>87.7</ele>
        <time>2015-04-06T20:23:29.743Z</time>
      </trkpt>
      <trkpt lat="48.83245" lon="2.38002">
        <ele>87.7</ele>
        <time>2015-04-06T20:23:30.760Z</time>
      </trkpt>
      <trkpt lat="48.83239" lon="2.37992">
        <ele>87.9</ele>
        <time>2015-04-06T20:23:32.765Z</time>
      </trkpt>
      <trkpt lat="48.83237" lon="2.37987">
        <ele>87.8</ele>
        <time>2015-04-06T20:23:33.770Z</time>
      </trkpt>
      <trkpt lat="48.83232" lon="2.37976">
        <ele>87.5</ele>
        <time>2015-04-06T20:24:38.822Z</time>
      </trkpt>
      <trkpt lat="48.8323" lon="2.37973">
        <ele>87.4</ele>
        <time>2015-04-06T20:24:39.904Z</time>
      </trkpt>
      <trkpt lat="48.83226" lon="2.37964">
        <ele>87.2</ele>
        <time>2015-04-06T20:24:41.776Z</time>
      </trkpt>
      <trkpt lat="48.83223" lon="2.3796">
        <ele>87.1</ele>
        <time>2015-04-06T20:24:42.795Z</time>
      </trkpt>
      <trkpt lat="48.83218" lon="2.37951">
        <ele>87</ele>
        <time>2015-04-06T20:24:44.771Z</time>
      </trkpt>
      <trkpt lat="48.83215" lon="2.37948">
        <ele>86.6</ele>
        <time>2015-04-06T20:24:45.773Z</time>
      </trkpt>
      <trkpt lat="48.83208" lon="2.37941">
        <ele>86</ele>
        <time>2015-04-06T20:24:47.827Z</time>
      </trkpt>
      <trkpt lat="48.83204" lon="2.37938">
        <ele>86.1</ele>
        <time>2015-04-06T20:24:48.844Z</time>
      </trkpt>
      <trkpt lat="48.83198" lon="2.37936">
        <ele>86.5</ele>
        <time>2015-04-06T20:24:50.744Z</time>
      </trkpt>
      <trkpt lat="48.83194" lon="2.37935">
        <ele>86.5</ele>
        <time>2015-04-06T20:24:51.770Z</time>
      </trkpt>
      <trkpt lat="48.83188" lon="2.3793">
        <ele>86</ele>
        <time>2015-04-06T20:24:53.805Z</time>
      </trkpt>
      <trkpt lat="48.83184" lon="2.37928">
        <ele>85.9</ele>
        <time>2015-04-06T20:24:54.827Z</time>
      </trkpt>
      <trkpt lat="48.83178" lon="2.37921">
        <ele>85.1</ele>
        <time>2015-04-06T20:24:57.822Z</time>
      </trkpt>
      <trkpt lat="48.83176" lon="2.37917">
        <ele>85</ele>
        <time>2015-04-06T20:24:58.833Z</time>
      </trkpt>
      <trkpt lat="48.83175" lon="2.3791">
        <ele>84.7</ele>
        <time>2015-04-06T20:24:59.753Z</time>
      </trkpt>
      <trkpt lat="48.83174" lon="2.37903">
        <ele>84.5</ele>
        <time>2015-04-06T20:25:00.754Z</time>
      </trkpt>
      <trkpt lat="48.83175" lon="2.37896">
        <ele>84.6</ele>
        <time>2015-04-06T20:25:01.789Z</time>
      </trkpt>
      <trkpt lat="48.83174" lon="2.37889">
        <ele>84.6</ele>
        <time>2015-04-06T20:25:02.772Z</time>
      </trkpt>
      <trkpt lat="48.83175" lon="2.37877">
        <ele>85.8</ele>
        <time>2015-04-06T20:25:04.815Z</time>
      </trkpt>
      <trkpt lat="48.83174" lon="2.37872">
        <ele>85.8</ele>
        <time>2015-04-06T20:25:05.759Z</time>
      </trkpt>
      <trkpt lat="48.8317" lon="2.37862">
        <ele>86</ele>
        <time>2015-04-06T20:25:07.783Z</time>
      </trkpt>
      <trkpt lat="48.83167" lon="2.37858">
        <ele>86.4</ele>
        <time>2015-04-06T20:25:08.783Z</time>
      </trkpt>
      <trkpt lat="48.83164" lon="2.37853">
        <ele>86.3</ele>
        <time>2015-04-06T20:25:09.800Z</time>
      </trkpt>
      <trkpt lat="48.8316" lon="2.37847">
        <ele>86.3</ele>
        <time>2015-04-06T20:25:10.813Z</time>
      </trkpt>
      <trkpt lat="48.83157" lon="2.37842">
        <ele>86.6</ele>
        <time>2015-04-06T20:25:11.747Z</time>
      </trkpt>
      <trkpt lat="48.83153" lon="2.37838">
        <ele>86.9</ele>
        <time>2015-04-06T20:25:12.750Z</time>
      </trkpt>
      <trkpt lat="48.83148" lon="2.37829">
        <ele>87.8</ele>
        <time>2015-04-06T20:25:14.772Z</time>
      </trkpt>
      <trkpt lat="48.83144" lon="2.37826">
        <ele>88.5</ele>
        <time>2015-04-06T20:25:15.771Z</time>
      </trkpt>
      <trkpt lat="48.8314" lon="2.37822">
        <ele>89</ele>
        <time>2015-04-06T20:25:16.781Z</time>
      </trkpt>
      <trkpt lat="48.83137" lon="2.37818">
        <ele>89.3</ele>
        <time>2015-04-06T20:25:17.785Z</time>
      </trkpt>
      <trkpt lat="48.83132" lon="2.37814">
        <ele>89.4</ele>
        <time>2015-04-06T20:25:19.184Z</time>
      </trkpt>
      <trkpt lat="48.83128" lon="2.3781">
        <ele>89.5</ele>
        <time>2015-04-06T20:25:19.852Z</time>
      </trkpt>
      <trkpt lat="48.83122" lon="2.37801">
        <ele>90.4</ele>
        <time>2015-04-06T20:25:21.714Z</time>
      </trkpt>
      <trkpt lat="48.83118" lon="2.37798">
        <ele>90.5</ele>
        <time>2015-04-06T20:25:22.737Z</time>
      </trkpt>
      <trkpt lat="48.83111" lon="2.37792">
        <ele>91.4</ele>
        <time>2015-04-06T20:25:24.822Z</time>
      </trkpt>
      <trkpt lat="48.83108" lon="2.37787">
        <ele>91.8</ele>
        <time>2015-04-06T20:25:25.830Z</time>
      </trkpt>
      <trkpt lat="48.83104" lon="2.37779">
        <ele>92.2</ele>
        <time>2015-04-06T20:25:27.746Z</time>
      </trkpt>
      <trkpt lat="48.83103" lon="2.37775">
        <ele>92.1</ele>
        <time>2015-04-06T20:25:28.769Z</time>
      </trkpt>
      <trkpt lat="48.83103" lon="2.37766">
        <ele>91.5</ele>
        <time>2015-04-06T20:25:30.746Z</time>
      </trkpt>
      <trkpt lat="48.83104" lon="2.37761">
        <ele>92.1</ele>
        <time>2015-04-06T20:25:31.781Z</time>
      </trkpt>
      <trkpt lat="48.83102" lon="2.37772">
        <ele>100.9</ele>
        <time>2015-04-06T20:27:23.743Z</time>
      </trkpt>
      <trkpt lat="48.83108" lon="2.37744">
        <ele>134.4</ele>
        <time>2015-04-06T20:27:24.757Z</time>
      </trkpt>
      <trkpt lat="48.83108" lon="2.37745">
        <ele>134.9</ele>
        <time>2015-04-06T20:27:25.797Z</time>
      </trkpt>
      <trkpt lat="48.83106" lon="2.37736">
        <ele>179.2</ele>
        <time>2015-04-06T20:29:40.717Z</time>
      </trkpt>
      <trkpt lat="48.83133" lon="2.3777">
        <ele>164.3</ele>
        <time>2015-04-06T20:29:41.729Z</time>
      </trkpt>
      <trkpt lat="48.83133" lon="2.3777">
        <ele>164.3</ele>
        <time>2015-04-06T20:29:42.266Z</time>
      </trkpt>
      <trkpt lat="48.83134" lon="2.3777">
        <ele>163.3</ele>
        <time>2015-04-06T20:29:42.744Z</time>
      </trkpt>
      <trkpt lat="48.83135" lon="2.37771">
        <ele>162.7</ele>
        <time>2015-04-06T20:29:43.747Z</time>
      </trkpt>
      <trkpt lat="48.83136" lon="2.37771">
        <ele>161.8</ele>
        <time>2015-04-06T20:32:48.761Z</time>
      </trkpt>
      <trkpt lat="48.83116" lon="2.37787">
        <ele>130.2</ele>
        <time>2015-04-06T20:32:49.786Z</time>
      </trkpt>
      <trkpt lat="48.83115" lon="2.37788">
        <ele>129.5</ele>
        <time>2015-04-06T20:32:51.250Z</time>
      </trkpt>
      <trkpt lat="48.83114" lon="2.37787">
        <ele>129.1</ele>
        <time>2015-04-06T20:32:51.744Z</time>
      </trkpt>
      <trkpt lat="48.83112" lon="2.37786">
        <ele>128.7</ele>
        <time>2015-04-06T20:32:59.761Z</time>
      </trkpt>
      <trkpt lat="48.83106" lon="2.37777">
        <ele>128.2</ele>
        <time>2015-04-06T20:33:00.776Z</time>
      </trkpt>
      <trkpt lat="48.83098" lon="2.37774">
        <ele>127.6</ele>
        <time>2015-04-06T20:33:03.829Z</time>
      </trkpt>
      <trkpt lat="48.83094" lon="2.37774">
        <ele>127.3</ele>
        <time>2015-04-06T20:33:04.744Z</time>
      </trkpt>
      <trkpt lat="48.83086" lon="2.3777">
        <ele>126.6</ele>
        <time>2015-04-06T20:33:06.701Z</time>
      </trkpt>
      <trkpt lat="48.83082" lon="2.37769">
        <ele>126.3</ele>
        <time>2015-04-06T20:33:07.785Z</time>
      </trkpt>
      <trkpt lat="48.83077" lon="2.37769">
        <ele>126.1</ele>
        <time>2015-04-06T20:33:36.886Z</time>
      </trkpt>
      <trkpt lat="48.83061" lon="2.3772">
        <ele>127.2</ele>
        <time>2015-04-06T20:33:37.832Z</time>
      </trkpt>
      <trkpt lat="48.8306" lon="2.37718">
        <ele>127.3</ele>
        <time>2015-04-06T20:33:38.784Z</time>
      </trkpt>
      <trkpt lat="48.83059" lon="2.37716">
        <ele>126.6</ele>
        <time>2015-04-06T20:33:39.790Z</time>
      </trkpt>
      <trkpt lat="48.83059" lon="2.37715">
        <ele>125.9</ele>
        <time>2015-04-06T20:34:03.733Z</time>
      </trkpt>
      <trkpt lat="48.83041" lon="2.37683">
        <ele>123.1</ele>
        <time>2015-04-06T20:34:04.746Z</time>
      </trkpt>
      <trkpt lat="48.83035" lon="2.37678">
        <ele>122.3</ele>
        <time>2015-04-06T20:34:08.834Z</time>
      </trkpt>
      <trkpt lat="48.83033" lon="2.37672">
        <ele>121.8</ele>
        <time>2015-04-06T20:34:09.740Z</time>
      </trkpt>
      <trkpt lat="48.83028" lon="2.37661">
        <ele>121.5</ele>
        <time>2015-04-06T20:34:13.785Z</time>
      </trkpt>
      <trkpt lat="48.83027" lon="2.37658">
        <ele>121.3</ele>
        <time>2015-04-06T20:34:14.775Z</time>
      </trkpt>
      <trkpt lat="48.83027" lon="2.37658">
        <ele>121.3</ele>
        <time>2015-04-06T20:34:18.805Z</time>
      </trkpt>
      <trkpt lat="48.83029" lon="2.37641">
        <ele>120.8</ele>
        <time>2015-04-06T20:34:19.816Z</time>
      </trkpt>
      <trkpt lat="48.83027" lon="2.3763">
        <ele>120.4</ele>
        <time>2015-04-06T20:34:22.798Z</time>
      </trkpt>
      <trkpt lat="48.83026" lon="2.37625">
        <ele>120.4</ele>
        <time>2015-04-06T20:34:23.818Z</time>
      </trkpt>
      <trkpt lat="48.8302" lon="2.37618">
        <ele>119.8</ele>
        <time>2015-04-06T20:34:25.784Z</time>
      </trkpt>
      <trkpt lat="48.83015" lon="2.37617">
        <ele>119.3</ele>
        <time>2015-04-06T20:34:26.796Z</time>
      </trkpt>
      <trkpt lat="48.83007" lon="2.37612">
        <ele>118.2</ele>
        <time>2015-04-06T20:34:28.724Z</time>
      </trkpt>
      <trkpt lat="48.83003" lon="2.37608">
        <ele>116.8</ele>
        <time>2015-04-06T20:34:29.749Z</time>
      </trkpt>
      <trkpt lat="48.83" lon="2.376">
        <ele>115.5</ele>
        <time>2015-04-06T20:34:30.767Z</time>
      </trkpt>
      <trkpt lat="48.82997" lon="2.37592">
        <ele>114.2</ele>
        <time>2015-04-06T20:34:31.792Z</time>
      </trkpt>
      <trkpt lat="48.82994" lon="2.37586">
        <ele>113.6</ele>
        <time>2015-04-06T20:34:32.706Z</time>
      </trkpt>
      <trkpt lat="48.8299" lon="2.37576">
        <ele>112.8</ele>
        <time>2015-04-06T20:34:33.715Z</time>
      </trkpt>
      <trkpt lat="48.82987" lon="2.37567">
        <ele>112.3</ele>
        <time>2015-04-06T20:34:34.739Z</time>
      </trkpt>
      <trkpt lat="48.82983" lon="2.37558">
        <ele>111.8</ele>
        <time>2015-04-06T20:34:35.761Z</time>
      </trkpt>
      <trkpt lat="48.82979" lon="2.37552">
        <ele>112.2</ele>
        <time>2015-04-06T20:34:36.785Z</time>
      </trkpt>
      <trkpt lat="48.82975" lon="2.37546">
        <ele>112.2</ele>
        <time>2015-04-06T20:34:37.807Z</time>
      </trkpt>
      <trkpt lat="48.82971" lon="2.3754">
        <ele>112.1</ele>
        <time>2015-04-06T20:34:38.706Z</time>
      </trkpt>
      <trkpt lat="48.82966" lon="2.37535">
        <ele>112.3</ele>
        <time>2015-04-06T20:34:39.716Z</time>
      </trkpt>
      <trkpt lat="48.82962" lon="2.3753">
        <ele>112.2</ele>
        <time>2015-04-06T20:34:40.739Z</time>
      </trkpt>
      <trkpt lat="48.82958" lon="2.37528">
        <ele>112.4</ele>
        <time>2015-04-06T20:34:41.754Z</time>
      </trkpt>
      <trkpt lat="48.82953" lon="2.37519">
        <ele>113.5</ele>
        <time>2015-04-06T20:34:45.766Z</time>
      </trkpt>
      <trkpt lat="48.82953" lon="2.37515">
        <ele>113.8</ele>
        <time>2015-04-06T20:34:46.790Z</time>
      </trkpt>
      <trkpt lat="48.82947" lon="2.37506">
        <ele>114.1</ele>
        <time>2015-04-06T20:34:50.788Z</time>
      </trkpt>
      <trkpt lat="48.82946" lon="2.37504">
        <ele>114.2</ele>
        <time>2015-04-06T20:34:51.805Z</time>
      </trkpt>
      <trkpt lat="48.82944" lon="2.37494">
        <ele>114.4</ele>
        <time>2015-04-06T20:34:57.711Z</time>
      </trkpt>
      <trkpt lat="48.82944" lon="2.3749">
        <ele>114.3</ele>
        <time>2015-04-06T20:34:58.736Z</time>
      </trkpt>
      <trkpt lat="48.82944" lon="2.3749">
        <ele>114.3</ele>
        <time>2015-04-06T20:35:10.822Z</time>
      </trkpt>
      <trkpt lat="48.82924" lon="2.37457">
        <ele>115</ele>
        <time>2015-04-06T20:35:11.738Z</time>
      </trkpt>
      <trkpt lat="48.82919" lon="2.37458">
        <ele>114.9</ele>
        <time>2015-04-06T20:35:15.711Z</time>
      </trkpt>
      <trkpt lat="48.82915" lon="2.37456">
        <ele>114.6</ele>
        <time>2015-04-06T20:35:17.793Z</time>
      </trkpt>
      <trkpt lat="48.82911" lon="2.37449">
        <ele>115.1</ele>
        <time>2015-04-06T20:35:19.799Z</time>
      </trkpt>
      <trkpt lat="48.8291" lon="2.37442">
        <ele>114.9</ele>
        <time>2015-04-06T20:35:20.709Z</time>
      </trkpt>
      <trkpt lat="48.82906" lon="2.3743">
        <ele>114.2</ele>
        <time>2015-04-06T20:35:22.731Z</time>
      </trkpt>
      <trkpt lat="48.82903" lon="2.37424">
        <ele>114.3</ele>
        <time>2015-04-06T20:35:23.739Z</time>
      </trkpt>
      <trkpt lat="48.82902" lon="2.37419">
        <ele>114.5</ele>
        <time>2015-04-06T20:35:24.750Z</time>
      </trkpt>
      <trkpt lat="48.82899" lon="2.37411">
        <ele>115.3</ele>
        <time>2015-04-06T20:35:25.758Z</time>
      </trkpt>
      <trkpt lat="48.82898" lon="2.374">
        <ele>115.6</ele>
        <time>2015-04-06T20:35:27.129Z</time>
      </trkpt>
      <trkpt lat="48.82895" lon="2.37393">
        <ele>115.7</ele>
        <time>2015-04-06T20:35:27.776Z</time>
      </trkpt>
      <trkpt lat="48.82887" lon="2.37389">
        <ele>114.8</ele>
        <time>2015-04-06T20:35:28.709Z</time>
      </trkpt>
      <trkpt lat="48.82881" lon="2.37384">
        <ele>114.1</ele>
        <time>2015-04-06T20:35:29.725Z</time>
      </trkpt>
      <trkpt lat="48.82876" lon="2.37374">
        <ele>115.4</ele>
        <time>2015-04-06T20:35:32.705Z</time>
      </trkpt>
      <trkpt lat="48.82875" lon="2.37371">
        <ele>115.7</ele>
        <time>2015-04-06T20:35:33.708Z</time>
      </trkpt>
      <trkpt lat="48.82871" lon="2.3736">
        <ele>116.5</ele>
        <time>2015-04-06T20:35:37.730Z</time>
      </trkpt>
      <trkpt lat="48.82869" lon="2.37357">
        <ele>116.5</ele>
        <time>2015-04-06T20:35:38.742Z</time>
      </trkpt>
      <trkpt lat="48.82863" lon="2.37348">
        <ele>116.2</ele>
        <time>2015-04-06T20:35:43.831Z</time>
      </trkpt>
      <trkpt lat="48.82861" lon="2.37345">
        <ele>116</ele>
        <time>2015-04-06T20:35:44.712Z</time>
      </trkpt>
      <trkpt lat="48.82859" lon="2.37336">
        <ele>115.6</ele>
        <time>2015-04-06T20:35:54.788Z</time>
      </trkpt>
      <trkpt lat="48.82849" lon="2.37313">
        <ele>117.5</ele>
        <time>2015-04-06T20:35:55.840Z</time>
      </trkpt>
      <trkpt lat="48.82843" lon="2.37304">
        <ele>116.4</ele>
        <time>2015-04-06T20:35:57.712Z</time>
      </trkpt>
      <trkpt lat="48.82841" lon="2.37298">
        <ele>115.6</ele>
        <time>2015-04-06T20:35:58.717Z</time>
      </trkpt>
      <trkpt lat="48.82835" lon="2.37288">
        <ele>114.8</ele>
        <time>2015-04-06T20:36:01.319Z</time>
      </trkpt>
      <trkpt lat="48.8283" lon="2.37283">
        <ele>114.1</ele>
        <time>2015-04-06T20:36:01.767Z</time>
      </trkpt>
      <trkpt lat="48.82823" lon="2.37276">
        <ele>113</ele>
        <time>2015-04-06T20:36:03.795Z</time>
      </trkpt>
      <trkpt lat="48.82821" lon="2.37271">
        <ele>112.4</ele>
        <time>2015-04-06T20:36:04.766Z</time>
      </trkpt>
      <trkpt lat="48.82818" lon="2.3726">
        <ele>111.6</ele>
        <time>2015-04-06T20:36:06.709Z</time>
      </trkpt>
      <trkpt lat="48.82815" lon="2.37254">
        <ele>111.5</ele>
        <time>2015-04-06T20:36:07.809Z</time>
      </trkpt>
      <trkpt lat="48.82811" lon="2.37244">
        <ele>111.1</ele>
        <time>2015-04-06T20:36:09.719Z</time>
      </trkpt>
      <trkpt lat="48.82809" lon="2.37239">
        <ele>110.8</ele>
        <time>2015-04-06T20:36:10.735Z</time>
      </trkpt>
      <trkpt lat="48.82804" lon="2.37231">
        <ele>110.4</ele>
        <time>2015-04-06T20:36:12.771Z</time>
      </trkpt>
      <trkpt lat="48.828" lon="2.37228">
        <ele>110</ele>
        <time>2015-04-06T20:36:13.775Z</time>
      </trkpt>
      <trkpt lat="48.82794" lon="2.37222">
        <ele>108.7</ele>
        <time>2015-04-06T20:36:16.433Z</time>
      </trkpt>
      <trkpt lat="48.82792" lon="2.37216">
        <ele>108.1</ele>
        <time>2015-04-06T20:36:16.706Z</time>
      </trkpt>
      <trkpt lat="48.82787" lon="2.37207">
        <ele>107.1</ele>
        <time>2015-04-06T20:36:18.764Z</time>
      </trkpt>
      <trkpt lat="48.82785" lon="2.37202">
        <ele>107</ele>
        <time>2015-04-06T20:36:19.780Z</time>
      </trkpt>
      <trkpt lat="48.82781" lon="2.37197">
        <ele>107.1</ele>
        <time>2015-04-06T20:36:20.789Z</time>
      </trkpt>
      <trkpt lat="48.82778" lon="2.37191">
        <ele>107.2</ele>
        <time>2015-04-06T20:36:21.710Z</time>
      </trkpt>
      <trkpt lat="48.82776" lon="2.37185">
        <ele>107.1</ele>
        <time>2015-04-06T20:36:23.131Z</time>
      </trkpt>
      <trkpt lat="48.82773" lon="2.37178">
        <ele>107.6</ele>
        <time>2015-04-06T20:36:23.681Z</time>
      </trkpt>
      <trkpt lat="48.8277" lon="2.37171">
        <ele>107.9</ele>
        <time>2015-04-06T20:36:24.711Z</time>
      </trkpt>
      <trkpt lat="48.82767" lon="2.37164">
        <ele>108.1</ele>
        <time>2015-04-06T20:36:25.746Z</time>
      </trkpt>
      <trkpt lat="48.82765" lon="2.37152">
        <ele>109.1</ele>
        <time>2015-04-06T20:36:27.753Z</time>
      </trkpt>
      <trkpt lat="48.82765" lon="2.37146">
        <ele>109.6</ele>
        <time>2015-04-06T20:36:28.759Z</time>
      </trkpt>
      <trkpt lat="48.82766" lon="2.37135">
        <ele>110.5</ele>
        <time>2015-04-06T20:36:31.646Z</time>
      </trkpt>
      <trkpt lat="48.82768" lon="2.3713">
        <ele>111.1</ele>
        <time>2015-04-06T20:36:31.715Z</time>
      </trkpt>
      <trkpt lat="48.82773" lon="2.37123">
        <ele>111.6</ele>
        <time>2015-04-06T20:36:33.797Z</time>
      </trkpt>
      <trkpt lat="48.82775" lon="2.3712">
        <ele>111.9</ele>
        <time>2015-04-06T20:36:34.808Z</time>
      </trkpt>
      <trkpt lat="48.82782" lon="2.37112">
        <ele>112.9</ele>
        <time>2015-04-06T20:36:37.775Z</time>
      </trkpt>
      <trkpt lat="48.82783" lon="2.37109">
        <ele>113.3</ele>
        <time>2015-04-06T20:36:38.762Z</time>
      </trkpt>
      <trkpt lat="48.82781" lon="2.37104">
        <ele>113.2</ele>
        <time>2015-04-06T20:36:40.773Z</time>
      </trkpt>
      <trkpt lat="48.82776" lon="2.37097">
        <ele>111.7</ele>
        <time>2015-04-06T20:36:41.842Z</time>
      </trkpt>
      <trkpt lat="48.82771" lon="2.3709">
        <ele>110.7</ele>
        <time>2015-04-06T20:36:42.729Z</time>
      </trkpt>
      <trkpt lat="48.82766" lon="2.37079">
        <ele>110.3</ele>
        <time>2015-04-06T20:36:43.760Z</time>
      </trkpt>
      <trkpt lat="48.8276" lon="2.37068">
        <ele>110</ele>
        <time>2015-04-06T20:36:44.753Z</time>
      </trkpt>
      <trkpt lat="48.82757" lon="2.37059">
        <ele>110.7</ele>
        <time>2015-04-06T20:36:45.762Z</time>
      </trkpt>
      <trkpt lat="48.82755" lon="2.37051">
        <ele>111.1</ele>
        <time>2015-04-06T20:36:46.774Z</time>
      </trkpt>
      <trkpt lat="48.82754" lon="2.37043">
        <ele>111.5</ele>
        <time>2015-04-06T20:36:47.779Z</time>
      </trkpt>
      <trkpt lat="48.82753" lon="2.37036">
        <ele>112.2</ele>
        <time>2015-04-06T20:36:48.788Z</time>
      </trkpt>
      <trkpt lat="48.82752" lon="2.37029">
        <ele>112.7</ele>
        <time>2015-04-06T20:36:49.794Z</time>
      </trkpt>
      <trkpt lat="48.82752" lon="2.37022">
        <ele>113.2</ele>
        <time>2015-04-06T20:36:51.181Z</time>
      </trkpt>
      <trkpt lat="48.82751" lon="2.37013">
        <ele>113.6</ele>
        <time>2015-04-06T20:36:51.713Z</time>
      </trkpt>
      <trkpt lat="48.82749" lon="2.37002">
        <ele>113.5</ele>
        <time>2015-04-06T20:36:52.740Z</time>
      </trkpt>
      <trkpt lat="48.82747" lon="2.36992">
        <ele>113.9</ele>
        <time>2015-04-06T20:36:53.774Z</time>
      </trkpt>
      <trkpt lat="48.82745" lon="2.36984">
        <ele>114.2</ele>
        <time>2015-04-06T20:36:54.795Z</time>
      </trkpt>
      <trkpt lat="48.82744" lon="2.36975">
        <ele>114.6</ele>
        <time>2015-04-06T20:36:55.822Z</time>
      </trkpt>
      <trkpt lat="48.82742" lon="2.36966">
        <ele>115.3</ele>
        <time>2015-04-06T20:36:56.741Z</time>
      </trkpt>
      <trkpt lat="48.82741" lon="2.36957">
        <ele>115.6</ele>
        <time>2015-04-06T20:36:57.760Z</time>
      </trkpt>
      <trkpt lat="48.8274" lon="2.36949">
        <ele>116.1</ele>
        <time>2015-04-06T20:36:58.785Z</time>
      </trkpt>
      <trkpt lat="48.82726" lon="2.36906">
        <ele>116.4</ele>
        <time>2015-04-06T20:37:03.778Z</time>
      </trkpt>
      <trkpt lat="48.82724" lon="2.36899">
        <ele>115.9</ele>
        <time>2015-04-06T20:37:04.699Z</time>
      </trkpt>
      <trkpt lat="48.82722" lon="2.36893">
        <ele>115.7</ele>
        <time>2015-04-06T20:37:05.706Z</time>
      </trkpt>
      <trkpt lat="48.82717" lon="2.36882">
        <ele>115.8</ele>
        <time>2015-04-06T20:37:07.753Z</time>
      </trkpt>
      <trkpt lat="48.82716" lon="2.36874">
        <ele>116.7</ele>
        <time>2015-04-06T20:37:08.770Z</time>
      </trkpt>
      <trkpt lat="48.82716" lon="2.36862">
        <ele>117.6</ele>
        <time>2015-04-06T20:37:09.805Z</time>
      </trkpt>
      <trkpt lat="48.82715" lon="2.36852">
        <ele>118.3</ele>
        <time>2015-04-06T20:37:10.710Z</time>
      </trkpt>
      <trkpt lat="48.82714" lon="2.36845">
        <ele>119</ele>
        <time>2015-04-06T20:37:11.715Z</time>
      </trkpt>
      <trkpt lat="48.82713" lon="2.36837">
        <ele>120.1</ele>
        <time>2015-04-06T20:37:12.713Z</time>
      </trkpt>
      <trkpt lat="48.82713" lon="2.36829">
        <ele>120.8</ele>
        <time>2015-04-06T20:37:13.755Z</time>
      </trkpt>
      <trkpt lat="48.82712" lon="2.36821">
        <ele>121.8</ele>
        <time>2015-04-06T20:37:14.756Z</time>
      </trkpt>
      <trkpt lat="48.82711" lon="2.36813">
        <ele>122.7</ele>
        <time>2015-04-06T20:37:15.763Z</time>
      </trkpt>
      <trkpt lat="48.82711" lon="2.36806">
        <ele>122.9</ele>
        <time>2015-04-06T20:37:16.767Z</time>
      </trkpt>
      <trkpt lat="48.82712" lon="2.36799">
        <ele>123.3</ele>
        <time>2015-04-06T20:37:17.772Z</time>
      </trkpt>
      <trkpt lat="48.82712" lon="2.36791">
        <ele>123.6</ele>
        <time>2015-04-06T20:37:18.781Z</time>
      </trkpt>
      <trkpt lat="48.82711" lon="2.36784">
        <ele>124.3</ele>
        <time>2015-04-06T20:37:19.794Z</time>
      </trkpt>
      <trkpt lat="48.82711" lon="2.36776">
        <ele>124.6</ele>
        <time>2015-04-06T20:37:20.715Z</time>
      </trkpt>
      <trkpt lat="48.8271" lon="2.36769">
        <ele>124.8</ele>
        <time>2015-04-06T20:37:21.718Z</time>
      </trkpt>
      <trkpt lat="48.82709" lon="2.36761">
        <ele>124.9</ele>
        <time>2015-04-06T20:37:22.727Z</time>
      </trkpt>
      <trkpt lat="48.82707" lon="2.36753">
        <ele>125.1</ele>
        <time>2015-04-06T20:37:23.732Z</time>
      </trkpt>
      <trkpt lat="48.82706" lon="2.36745">
        <ele>125.1</ele>
        <time>2015-04-06T20:37:24.737Z</time>
      </trkpt>
      <trkpt lat="48.82703" lon="2.36732">
        <ele>121.9</ele>
        <time>2015-04-06T20:37:25.780Z</time>
      </trkpt>
      <trkpt lat="48.82701" lon="2.36722">
        <ele>121.7</ele>
        <time>2015-04-06T20:37:26.770Z</time>
      </trkpt>
      <trkpt lat="48.827" lon="2.36712">
        <ele>121.6</ele>
        <time>2015-04-06T20:37:27.797Z</time>
      </trkpt>
      <trkpt lat="48.82698" lon="2.36704">
        <ele>120.9</ele>
        <time>2015-04-06T20:37:28.719Z</time>
      </trkpt>
      <trkpt lat="48.82697" lon="2.36696">
        <ele>119.8</ele>
        <time>2015-04-06T20:37:29.717Z</time>
      </trkpt>
      <trkpt lat="48.82696" lon="2.36688">
        <ele>119.8</ele>
        <time>2015-04-06T20:37:30.742Z</time>
      </trkpt>
      <trkpt lat="48.82695" lon="2.36681">
        <ele>119</ele>
        <time>2015-04-06T20:37:31.776Z</time>
      </trkpt>
      <trkpt lat="48.82693" lon="2.36674">
        <ele>117.8</ele>
        <time>2015-04-06T20:37:32.797Z</time>
      </trkpt>
      <trkpt lat="48.82692" lon="2.36668">
        <ele>117</ele>
        <time>2015-04-06T20:37:33.804Z</time>
      </trkpt>
      <trkpt lat="48.82693" lon="2.36658">
        <ele>116</ele>
        <time>2015-04-06T20:37:35.825Z</time>
      </trkpt>
      <trkpt lat="48.82693" lon="2.36653">
        <ele>116.3</ele>
        <time>2015-04-06T20:37:36.937Z</time>
      </trkpt>
      <trkpt lat="48.82693" lon="2.36644">
        <ele>117.3</ele>
        <time>2015-04-06T20:37:38.711Z</time>
      </trkpt>
      <trkpt lat="48.82694" lon="2.36638">
        <ele>117.6</ele>
        <time>2015-04-06T20:37:39.717Z</time>
      </trkpt>
      <trkpt lat="48.82692" lon="2.36629">
        <ele>117.1</ele>
        <time>2015-04-06T20:37:41.759Z</time>
      </trkpt>
      <trkpt lat="48.82691" lon="2.36623">
        <ele>117</ele>
        <time>2015-04-06T20:37:42.792Z</time>
      </trkpt>
      <trkpt lat="48.82689" lon="2.36616">
        <ele>116.6</ele>
        <time>2015-04-06T20:37:43.813Z</time>
      </trkpt>
      <trkpt lat="48.82686" lon="2.3661">
        <ele>116.3</ele>
        <time>2015-04-06T20:37:44.716Z</time>
      </trkpt>
      <trkpt lat="48.82684" lon="2.36603">
        <ele>116</ele>
        <time>2015-04-06T20:37:45.731Z</time>
      </trkpt>
      <trkpt lat="48.8268" lon="2.36595">
        <ele>115.8</ele>
        <time>2015-04-06T20:37:46.737Z</time>
      </trkpt>
      <trkpt lat="48.82676" lon="2.36587">
        <ele>115.5</ele>
        <time>2015-04-06T20:37:47.743Z</time>
      </trkpt>
      <trkpt lat="48.82673" lon="2.36578">
        <ele>115.7</ele>
        <time>2015-04-06T20:37:48.758Z</time>
      </trkpt>
      <trkpt lat="48.82669" lon="2.36569">
        <ele>115.9</ele>
        <time>2015-04-06T20:37:49.769Z</time>
      </trkpt>
      <trkpt lat="48.82666" lon="2.3656">
        <ele>116.2</ele>
        <time>2015-04-06T20:37:50.776Z</time>
      </trkpt>
      <trkpt lat="48.82664" lon="2.36549">
        <ele>117</ele>
        <time>2015-04-06T20:37:51.795Z</time>
      </trkpt>
      <trkpt lat="48.82661" lon="2.36539">
        <ele>116.7</ele>
        <time>2015-04-06T20:37:52.707Z</time>
      </trkpt>
      <trkpt lat="48.82657" lon="2.36529">
        <ele>116.8</ele>
        <time>2015-04-06T20:37:53.711Z</time>
      </trkpt>
      <trkpt lat="48.82652" lon="2.36519">
        <ele>116.9</ele>
        <time>2015-04-06T20:37:54.720Z</time>
      </trkpt>
      <trkpt lat="48.82648" lon="2.36508">
        <ele>116.4</ele>
        <time>2015-04-06T20:37:55.756Z</time>
      </trkpt>
      <trkpt lat="48.82643" lon="2.36497">
        <ele>116.1</ele>
        <time>2015-04-06T20:37:56.755Z</time>
      </trkpt>
      <trkpt lat="48.8264" lon="2.36487">
        <ele>116.2</ele>
        <time>2015-04-06T20:37:57.760Z</time>
      </trkpt>
      <trkpt lat="48.82636" lon="2.36477">
        <ele>116</ele>
        <time>2015-04-06T20:37:58.771Z</time>
      </trkpt>
      <trkpt lat="48.82634" lon="2.36468">
        <ele>115.5</ele>
        <time>2015-04-06T20:37:59.796Z</time>
      </trkpt>
      <trkpt lat="48.82636" lon="2.36458">
        <ele>115.2</ele>
        <time>2015-04-06T20:38:00.718Z</time>
      </trkpt>
      <trkpt lat="48.82639" lon="2.36449">
        <ele>116.5</ele>
        <time>2015-04-06T20:38:01.768Z</time>
      </trkpt>
      <trkpt lat="48.82641" lon="2.3644">
        <ele>116.9</ele>
        <time>2015-04-06T20:38:02.761Z</time>
      </trkpt>
      <trkpt lat="48.82644" lon="2.36433">
        <ele>117.6</ele>
        <time>2015-04-06T20:38:03.779Z</time>
      </trkpt>
      <trkpt lat="48.82646" lon="2.36424">
        <ele>117.6</ele>
        <time>2015-04-06T20:38:04.791Z</time>
      </trkpt>
      <trkpt lat="48.82645" lon="2.36415">
        <ele>117.4</ele>
        <time>2015-04-06T20:38:05.806Z</time>
      </trkpt>
      <trkpt lat="48.82645" lon="2.36405">
        <ele>117.3</ele>
        <time>2015-04-06T20:38:06.712Z</time>
      </trkpt>
      <trkpt lat="48.82646" lon="2.36396">
        <ele>117.3</ele>
        <time>2015-04-06T20:38:07.763Z</time>
      </trkpt>
      <trkpt lat="48.82645" lon="2.36386">
        <ele>117.3</ele>
        <time>2015-04-06T20:38:08.760Z</time>
      </trkpt>
      <trkpt lat="48.82647" lon="2.36376">
        <ele>116.7</ele>
        <time>2015-04-06T20:38:09.764Z</time>
      </trkpt>
      <trkpt lat="48.82646" lon="2.36367">
        <ele>116.2</ele>
        <time>2015-04-06T20:38:10.778Z</time>
      </trkpt>
      <trkpt lat="48.82648" lon="2.36358">
        <ele>116</ele>
        <time>2015-04-06T20:38:11.788Z</time>
      </trkpt>
      <trkpt lat="48.8265" lon="2.3635">
        <ele>116.3</ele>
        <time>2015-04-06T20:38:12.802Z</time>
      </trkpt>
      <trkpt lat="48.82651" lon="2.36336">
        <ele>115.8</ele>
        <time>2015-04-06T20:38:14.722Z</time>
      </trkpt>
      <trkpt lat="48.82651" lon="2.36329">
        <ele>115.7</ele>
        <time>2015-04-06T20:38:15.758Z</time>
      </trkpt>
      <trkpt lat="48.82651" lon="2.36323">
        <ele>115.5</ele>
        <time>2015-04-06T20:38:16.733Z</time>
      </trkpt>
      <trkpt lat="48.8265" lon="2.36315">
        <ele>115.2</ele>
        <time>2015-04-06T20:38:17.744Z</time>
      </trkpt>
      <trkpt lat="48.8265" lon="2.36307">
        <ele>114.9</ele>
        <time>2015-04-06T20:38:18.749Z</time>
      </trkpt>
      <trkpt lat="48.82649" lon="2.36299">
        <ele>114.7</ele>
        <time>2015-04-06T20:38:19.766Z</time>
      </trkpt>
      <trkpt lat="48.82649" lon="2.3629">
        <ele>115.3</ele>
        <time>2015-04-06T20:38:20.777Z</time>
      </trkpt>
      <trkpt lat="48.82649" lon="2.36282">
        <ele>115.6</ele>
        <time>2015-04-06T20:38:21.778Z</time>
      </trkpt>
      <trkpt lat="48.82649" lon="2.36269">
        <ele>116.2</ele>
        <time>2015-04-06T20:38:23.711Z</time>
      </trkpt>
      <trkpt lat="48.82648" lon="2.3626">
        <ele>116</ele>
        <time>2015-04-06T20:38:24.740Z</time>
      </trkpt>
      <trkpt lat="48.82647" lon="2.3625">
        <ele>116.2</ele>
        <time>2015-04-06T20:38:25.810Z</time>
      </trkpt>
      <trkpt lat="48.82645" lon="2.36241">
        <ele>116.5</ele>
        <time>2015-04-06T20:38:26.705Z</time>
      </trkpt>
      <trkpt lat="48.82644" lon="2.36233">
        <ele>116.8</ele>
        <time>2015-04-06T20:38:27.745Z</time>
      </trkpt>
      <trkpt lat="48.82644" lon="2.36225">
        <ele>117.1</ele>
        <time>2015-04-06T20:38:28.763Z</time>
      </trkpt>
      <trkpt lat="48.82643" lon="2.36217">
        <ele>117.1</ele>
        <time>2015-04-06T20:38:29.698Z</time>
      </trkpt>
      <trkpt lat="48.82642" lon="2.36209">
        <ele>117.2</ele>
        <time>2015-04-06T20:38:30.708Z</time>
      </trkpt>
      <trkpt lat="48.8264" lon="2.362">
        <ele>117.5</ele>
        <time>2015-04-06T20:38:31.735Z</time>
      </trkpt>
      <trkpt lat="48.82639" lon="2.36193">
        <ele>117.9</ele>
        <time>2015-04-06T20:38:32.738Z</time>
      </trkpt>
      <trkpt lat="48.82638" lon="2.3618">
        <ele>117.9</ele>
        <time>2015-04-06T20:38:34.793Z</time>
      </trkpt>
      <trkpt lat="48.82638" lon="2.36175">
        <ele>117.8</ele>
        <time>2015-04-06T20:38:35.826Z</time>
      </trkpt>
      <trkpt lat="48.82636" lon="2.36163">
        <ele>117.7</ele>
        <time>2015-04-06T20:38:37.750Z</time>
      </trkpt>
      <trkpt lat="48.82633" lon="2.36155">
        <ele>117.7</ele>
        <time>2015-04-06T20:38:38.752Z</time>
      </trkpt>
      <trkpt lat="48.82631" lon="2.36147">
        <ele>117.6</ele>
        <time>2015-04-06T20:38:39.789Z</time>
      </trkpt>
      <trkpt lat="48.82629" lon="2.3614">
        <ele>117.5</ele>
        <time>2015-04-06T20:38:40.798Z</time>
      </trkpt>
      <trkpt lat="48.82627" lon="2.3613">
        <ele>116.6</ele>
        <time>2015-04-06T20:38:41.732Z</time>
      </trkpt>
      <trkpt lat="48.82625" lon="2.36122">
        <ele>115.8</ele>
        <time>2015-04-06T20:38:42.719Z</time>
      </trkpt>
      <trkpt lat="48.82624" lon="2.36115">
        <ele>115.1</ele>
        <time>2015-04-06T20:38:43.750Z</time>
      </trkpt>
      <trkpt lat="48.82622" lon="2.36108">
        <ele>114.6</ele>
        <time>2015-04-06T20:38:44.759Z</time>
      </trkpt>
      <trkpt lat="48.8262" lon="2.361">
        <ele>114.2</ele>
        <time>2015-04-06T20:38:45.779Z</time>
      </trkpt>
      <trkpt lat="48.82617" lon="2.36092">
        <ele>113.9</ele>
        <time>2015-04-06T20:38:46.789Z</time>
      </trkpt>
      <trkpt lat="48.82615" lon="2.36083">
        <ele>113.6</ele>
        <time>2015-04-06T20:38:47.731Z</time>
      </trkpt>
      <trkpt lat="48.82613" lon="2.36075">
        <ele>113.4</ele>
        <time>2015-04-06T20:38:48.738Z</time>
      </trkpt>
      <trkpt lat="48.82611" lon="2.36066">
        <ele>113.1</ele>
        <time>2015-04-06T20:38:49.794Z</time>
      </trkpt>
      <trkpt lat="48.82609" lon="2.36058">
        <ele>112.8</ele>
        <time>2015-04-06T20:38:50.802Z</time>
      </trkpt>
      <trkpt lat="48.82608" lon="2.36049">
        <ele>112.6</ele>
        <time>2015-04-06T20:38:51.715Z</time>
      </trkpt>
      <trkpt lat="48.82607" lon="2.3604">
        <ele>112.5</ele>
        <time>2015-04-06T20:38:52.716Z</time>
      </trkpt>
      <trkpt lat="48.82606" lon="2.3603">
        <ele>112.5</ele>
        <time>2015-04-06T20:38:53.721Z</time>
      </trkpt>
      <trkpt lat="48.82605" lon="2.3602">
        <ele>112.6</ele>
        <time>2015-04-06T20:38:54.724Z</time>
      </trkpt>
      <trkpt lat="48.82606" lon="2.36012">
        <ele>112.9</ele>
        <time>2015-04-06T20:38:55.767Z</time>
      </trkpt>
      <trkpt lat="48.82607" lon="2.36004">
        <ele>113.4</ele>
        <time>2015-04-06T20:38:56.809Z</time>
      </trkpt>
      <trkpt lat="48.82607" lon="2.35993">
        <ele>113.7</ele>
        <time>2015-04-06T20:38:58.726Z</time>
      </trkpt>
      <trkpt lat="48.82607" lon="2.35989">
        <ele>113.7</ele>
        <time>2015-04-06T20:38:59.739Z</time>
      </trkpt>
      <trkpt lat="48.8261" lon="2.35986">
        <ele>112.7</ele>
        <time>2015-04-06T20:40:08.726Z</time>
      </trkpt>
      <trkpt lat="48.82634" lon="2.3599">
        <ele>112.3</ele>
        <time>2015-04-06T20:40:09.753Z</time>
      </trkpt>
      <trkpt lat="48.82638" lon="2.35979">
        <ele>109.9</ele>
        <time>2015-04-06T20:40:12.783Z</time>
      </trkpt>
      <trkpt lat="48.8264" lon="2.35973">
        <ele>108.5</ele>
        <time>2015-04-06T20:40:13.806Z</time>
      </trkpt>
      <trkpt lat="48.82641" lon="2.35964">
        <ele>107.8</ele>
        <time>2015-04-06T20:40:14.684Z</time>
      </trkpt>
      <trkpt lat="48.82642" lon="2.35955">
        <ele>107.3</ele>
        <time>2015-04-06T20:40:15.745Z</time>
      </trkpt>
      <trkpt lat="48.82641" lon="2.35945">
        <ele>106.5</ele>
        <time>2015-04-06T20:40:16.722Z</time>
      </trkpt>
      <trkpt lat="48.82639" lon="2.35936">
        <ele>106</ele>
        <time>2015-04-06T20:40:17.742Z</time>
      </trkpt>
      <trkpt lat="48.82638" lon="2.35928">
        <ele>106</ele>
        <time>2015-04-06T20:40:18.762Z</time>
      </trkpt>
      <trkpt lat="48.82637" lon="2.3592">
        <ele>105.8</ele>
        <time>2015-04-06T20:40:19.822Z</time>
      </trkpt>
      <trkpt lat="48.82633" lon="2.35914">
        <ele>105.2</ele>
        <time>2015-04-06T20:40:20.773Z</time>
      </trkpt>
      <trkpt lat="48.82628" lon="2.35907">
        <ele>104.9</ele>
        <time>2015-04-06T20:40:21.781Z</time>
      </trkpt>
      <trkpt lat="48.82625" lon="2.359">
        <ele>104.6</ele>
        <time>2015-04-06T20:40:22.703Z</time>
      </trkpt>
      <trkpt lat="48.82619" lon="2.3589">
        <ele>104</ele>
        <time>2015-04-06T20:40:23.710Z</time>
      </trkpt>
      <trkpt lat="48.82616" lon="2.3588">
        <ele>103.7</ele>
        <time>2015-04-06T20:40:24.715Z</time>
      </trkpt>
      <trkpt lat="48.82614" lon="2.35871">
        <ele>103.7</ele>
        <time>2015-04-06T20:40:25.745Z</time>
      </trkpt>
      <trkpt lat="48.82612" lon="2.35862">
        <ele>103.8</ele>
        <time>2015-04-06T20:40:26.755Z</time>
      </trkpt>
      <trkpt lat="48.82611" lon="2.35852">
        <ele>104</ele>
        <time>2015-04-06T20:40:27.762Z</time>
      </trkpt>
      <trkpt lat="48.82611" lon="2.35841">
        <ele>104.2</ele>
        <time>2015-04-06T20:40:28.777Z</time>
      </trkpt>
      <trkpt lat="48.82611" lon="2.3583">
        <ele>104.4</ele>
        <time>2015-04-06T20:40:29.787Z</time>
      </trkpt>
      <trkpt lat="48.82611" lon="2.35819">
        <ele>104.5</ele>
        <time>2015-04-06T20:40:30.685Z</time>
      </trkpt>
      <trkpt lat="48.82611" lon="2.35809">
        <ele>104.6</ele>
        <time>2015-04-06T20:40:31.756Z</time>
      </trkpt>
      <trkpt lat="48.82608" lon="2.358">
        <ele>104.5</ele>
        <time>2015-04-06T20:40:32.752Z</time>
      </trkpt>
      <trkpt lat="48.82606" lon="2.35793">
        <ele>104.4</ele>
        <time>2015-04-06T20:40:33.756Z</time>
      </trkpt>
      <trkpt lat="48.82605" lon="2.35785">
        <ele>104.6</ele>
        <time>2015-04-06T20:40:34.762Z</time>
      </trkpt>
      <trkpt lat="48.82609" lon="2.35776">
        <ele>104.4</ele>
        <time>2015-04-06T20:40:35.776Z</time>
      </trkpt>
      <trkpt lat="48.82609" lon="2.35768">
        <ele>104.3</ele>
        <time>2015-04-06T20:40:36.794Z</time>
      </trkpt>
      <trkpt lat="48.82608" lon="2.35762">
        <ele>104.4</ele>
        <time>2015-04-06T20:40:37.799Z</time>
      </trkpt>
      <trkpt lat="48.82608" lon="2.35753">
        <ele>105.1</ele>
        <time>2015-04-06T20:40:39.714Z</time>
      </trkpt>
      <trkpt lat="48.82609" lon="2.35748">
        <ele>106.1</ele>
        <time>2015-04-06T20:40:40.729Z</time>
      </trkpt>
      <trkpt lat="48.82614" lon="2.35743">
        <ele>107.2</ele>
        <time>2015-04-06T20:41:18.794Z</time>
      </trkpt>
      <trkpt lat="48.8262" lon="2.35734">
        <ele>112.3</ele>
        <time>2015-04-06T20:41:19.800Z</time>
      </trkpt>
      <trkpt lat="48.82619" lon="2.35722">
        <ele>112.3</ele>
        <time>2015-04-06T20:41:21.711Z</time>
      </trkpt>
      <trkpt lat="48.8262" lon="2.35717">
        <ele>112.4</ele>
        <time>2015-04-06T20:41:22.735Z</time>
      </trkpt>
      <trkpt lat="48.82619" lon="2.35705">
        <ele>112.6</ele>
        <time>2015-04-06T20:41:24.791Z</time>
      </trkpt>
      <trkpt lat="48.82619" lon="2.357">
        <ele>112.4</ele>
        <time>2015-04-06T20:41:25.819Z</time>
      </trkpt>
      <trkpt lat="48.82619" lon="2.35689">
        <ele>111.9</ele>
        <time>2015-04-06T20:41:27.721Z</time>
      </trkpt>
      <trkpt lat="48.82618" lon="2.35684">
        <ele>111.5</ele>
        <time>2015-04-06T20:41:28.733Z</time>
      </trkpt>
      <trkpt lat="48.82617" lon="2.35673">
        <ele>111.8</ele>
        <time>2015-04-06T20:41:30.744Z</time>
      </trkpt>
      <trkpt lat="48.82617" lon="2.35667">
        <ele>111.6</ele>
        <time>2015-04-06T20:41:31.774Z</time>
      </trkpt>
      <trkpt lat="48.82616" lon="2.35655">
        <ele>111.6</ele>
        <time>2015-04-06T20:41:33.707Z</time>
      </trkpt>
      <trkpt lat="48.82616" lon="2.35649">
        <ele>111.8</ele>
        <time>2015-04-06T20:41:34.733Z</time>
      </trkpt>
      <trkpt lat="48.82616" lon="2.35637">
        <ele>112.3</ele>
        <time>2015-04-06T20:41:36.752Z</time>
      </trkpt>
      <trkpt lat="48.82616" lon="2.3563">
        <ele>112.4</ele>
        <time>2015-04-06T20:41:37.780Z</time>
      </trkpt>
      <trkpt lat="48.82617" lon="2.35622">
        <ele>112.2</ele>
        <time>2015-04-06T20:41:38.714Z</time>
      </trkpt>
      <trkpt lat="48.82618" lon="2.35615">
        <ele>112.2</ele>
        <time>2015-04-06T20:41:39.710Z</time>
      </trkpt>
      <trkpt lat="48.82618" lon="2.35607">
        <ele>112</ele>
        <time>2015-04-06T20:41:40.713Z</time>
      </trkpt>
      <trkpt lat="48.82619" lon="2.35598">
        <ele>111.8</ele>
        <time>2015-04-06T20:41:41.717Z</time>
      </trkpt>
      <trkpt lat="48.82618" lon="2.3559">
        <ele>111.6</ele>
        <time>2015-04-06T20:41:42.728Z</time>
      </trkpt>
      <trkpt lat="48.82617" lon="2.35581">
        <ele>111.3</ele>
        <time>2015-04-06T20:41:43.741Z</time>
      </trkpt>
      <trkpt lat="48.82617" lon="2.35573">
        <ele>110.8</ele>
        <time>2015-04-06T20:41:44.739Z</time>
      </trkpt>
      <trkpt lat="48.82618" lon="2.35564">
        <ele>110.4</ele>
        <time>2015-04-06T20:41:45.748Z</time>
      </trkpt>
      <trkpt lat="48.82615" lon="2.35556">
        <ele>109.7</ele>
        <time>2015-04-06T20:41:46.755Z</time>
      </trkpt>
      <trkpt lat="48.82614" lon="2.35547">
        <ele>109.2</ele>
        <time>2015-04-06T20:41:47.763Z</time>
      </trkpt>
      <trkpt lat="48.82611" lon="2.35539">
        <ele>109</ele>
        <time>2015-04-06T20:41:48.797Z</time>
      </trkpt>
      <trkpt lat="48.82609" lon="2.35531">
        <ele>108.6</ele>
        <time>2015-04-06T20:41:49.807Z</time>
      </trkpt>
      <trkpt lat="48.82608" lon="2.35523">
        <ele>108.2</ele>
        <time>2015-04-06T20:41:50.729Z</time>
      </trkpt>
      <trkpt lat="48.82605" lon="2.35515">
        <ele>107.5</ele>
        <time>2015-04-06T20:41:51.740Z</time>
      </trkpt>
      <trkpt lat="48.82602" lon="2.35508">
        <ele>107.2</ele>
        <time>2015-04-06T20:41:52.798Z</time>
      </trkpt>
      <trkpt lat="48.82599" lon="2.35501">
        <ele>106.7</ele>
        <time>2015-04-06T20:41:53.727Z</time>
      </trkpt>
      <trkpt lat="48.82598" lon="2.35494">
        <ele>106.5</ele>
        <time>2015-04-06T20:41:54.731Z</time>
      </trkpt>
      <trkpt lat="48.82597" lon="2.35487">
        <ele>106.4</ele>
        <time>2015-04-06T20:41:55.737Z</time>
      </trkpt>
      <trkpt lat="48.82597" lon="2.3548">
        <ele>106.3</ele>
        <time>2015-04-06T20:41:56.755Z</time>
      </trkpt>
      <trkpt lat="48.82597" lon="2.35473">
        <ele>106.5</ele>
        <time>2015-04-06T20:41:57.768Z</time>
      </trkpt>
      <trkpt lat="48.82595" lon="2.35461">
        <ele>106.4</ele>
        <time>2015-04-06T20:41:59.782Z</time>
      </trkpt>
      <trkpt lat="48.82594" lon="2.35455">
        <ele>106.5</ele>
        <time>2015-04-06T20:42:00.732Z</time>
      </trkpt>
      <trkpt lat="48.82591" lon="2.35445">
        <ele>106.2</ele>
        <time>2015-04-06T20:42:02.736Z</time>
      </trkpt>
      <trkpt lat="48.82589" lon="2.35439">
        <ele>106.1</ele>
        <time>2015-04-06T20:42:03.750Z</time>
      </trkpt>
      <trkpt lat="48.82588" lon="2.35433">
        <ele>106</ele>
        <time>2015-04-06T20:42:04.777Z</time>
      </trkpt>
      <trkpt lat="48.82588" lon="2.35425">
        <ele>105.7</ele>
        <time>2015-04-06T20:42:05.711Z</time>
      </trkpt>
      <trkpt lat="48.82588" lon="2.35418">
        <ele>105.7</ele>
        <time>2015-04-06T20:42:06.725Z</time>
      </trkpt>
      <trkpt lat="48.82589" lon="2.35409">
        <ele>105.8</ele>
        <time>2015-04-06T20:42:07.741Z</time>
      </trkpt>
      <trkpt lat="48.82591" lon="2.35398">
        <ele>107</ele>
        <time>2015-04-06T20:42:09.751Z</time>
      </trkpt>
      <trkpt lat="48.82592" lon="2.35392">
        <ele>106.9</ele>
        <time>2015-04-06T20:42:10.770Z</time>
      </trkpt>
      <trkpt lat="48.82595" lon="2.3538">
        <ele>107.7</ele>
        <time>2015-04-06T20:42:12.705Z</time>
      </trkpt>
      <trkpt lat="48.82595" lon="2.35373">
        <ele>108.2</ele>
        <time>2015-04-06T20:42:13.755Z</time>
      </trkpt>
      <trkpt lat="48.82593" lon="2.3536">
        <ele>108.6</ele>
        <time>2015-04-06T20:42:15.708Z</time>
      </trkpt>
      <trkpt lat="48.82591" lon="2.35353">
        <ele>109.3</ele>
        <time>2015-04-06T20:42:16.740Z</time>
      </trkpt>
      <trkpt lat="48.82588" lon="2.35341">
        <ele>108.9</ele>
        <time>2015-04-06T20:42:18.777Z</time>
      </trkpt>
      <trkpt lat="48.82586" lon="2.35335">
        <ele>109.1</ele>
        <time>2015-04-06T20:42:19.785Z</time>
      </trkpt>
      <trkpt lat="48.82584" lon="2.35324">
        <ele>107.6</ele>
        <time>2015-04-06T20:42:21.704Z</time>
      </trkpt>
      <trkpt lat="48.82583" lon="2.35318">
        <ele>107.6</ele>
        <time>2015-04-06T20:42:22.720Z</time>
      </trkpt>
      <trkpt lat="48.82585" lon="2.35305">
        <ele>107.6</ele>
        <time>2015-04-06T20:42:24.761Z</time>
      </trkpt>
      <trkpt lat="48.82585" lon="2.35299">
        <ele>107.4</ele>
        <time>2015-04-06T20:42:25.780Z</time>
      </trkpt>
      <trkpt lat="48.82585" lon="2.35285">
        <ele>106.5</ele>
        <time>2015-04-06T20:42:27.713Z</time>
      </trkpt>
      <trkpt lat="48.82587" lon="2.35279">
        <ele>106.3</ele>
        <time>2015-04-06T20:42:28.728Z</time>
      </trkpt>
      <trkpt lat="48.8259" lon="2.35268">
        <ele>105.7</ele>
        <time>2015-04-06T20:42:30.795Z</time>
      </trkpt>
      <trkpt lat="48.82591" lon="2.35263">
        <ele>105.2</ele>
        <time>2015-04-06T20:42:31.808Z</time>
      </trkpt>
      <trkpt lat="48.82592" lon="2.35251">
        <ele>104</ele>
        <time>2015-04-06T20:42:33.717Z</time>
      </trkpt>
      <trkpt lat="48.8259" lon="2.35246">
        <ele>103.6</ele>
        <time>2015-04-06T20:42:34.736Z</time>
      </trkpt>
      <trkpt lat="48.82589" lon="2.35234">
        <ele>102.6</ele>
        <time>2015-04-06T20:42:36.752Z</time>
      </trkpt>
      <trkpt lat="48.82589" lon="2.35228">
        <ele>102.9</ele>
        <time>2015-04-06T20:42:37.833Z</time>
      </trkpt>
      <trkpt lat="48.82589" lon="2.35215">
        <ele>103.1</ele>
        <time>2015-04-06T20:42:39.697Z</time>
      </trkpt>
      <trkpt lat="48.82589" lon="2.35209">
        <ele>103.3</ele>
        <time>2015-04-06T20:42:40.723Z</time>
      </trkpt>
      <trkpt lat="48.82588" lon="2.35196">
        <ele>103.3</ele>
        <time>2015-04-06T20:42:42.705Z</time>
      </trkpt>
      <trkpt lat="48.82587" lon="2.35188">
        <ele>103.2</ele>
        <time>2015-04-06T20:42:43.866Z</time>
      </trkpt>
      <trkpt lat="48.82586" lon="2.35176">
        <ele>103</ele>
        <time>2015-04-06T20:42:45.744Z</time>
      </trkpt>
      <trkpt lat="48.82587" lon="2.35169">
        <ele>102.8</ele>
        <time>2015-04-06T20:42:46.758Z</time>
      </trkpt>
      <trkpt lat="48.82588" lon="2.35161">
        <ele>102.7</ele>
        <time>2015-04-06T20:42:47.783Z</time>
      </trkpt>
      <trkpt lat="48.82588" lon="2.35155">
        <ele>103.1</ele>
        <time>2015-04-06T20:42:48.693Z</time>
      </trkpt>
      <trkpt lat="48.82588" lon="2.35148">
        <ele>103.3</ele>
        <time>2015-04-06T20:42:49.750Z</time>
      </trkpt>
      <trkpt lat="48.82588" lon="2.3514">
        <ele>103.6</ele>
        <time>2015-04-06T20:42:50.755Z</time>
      </trkpt>
      <trkpt lat="48.82586" lon="2.35133">
        <ele>104.1</ele>
        <time>2015-04-06T20:42:51.765Z</time>
      </trkpt>
      <trkpt lat="48.82585" lon="2.35126">
        <ele>104.3</ele>
        <time>2015-04-06T20:42:52.770Z</time>
      </trkpt>
      <trkpt lat="48.82583" lon="2.35113">
        <ele>103.6</ele>
        <time>2015-04-06T20:42:54.730Z</time>
      </trkpt>
      <trkpt lat="48.82582" lon="2.35106">
        <ele>103.5</ele>
        <time>2015-04-06T20:42:55.766Z</time>
      </trkpt>
      <trkpt lat="48.8258" lon="2.351">
        <ele>103.2</ele>
        <time>2015-04-06T20:42:56.728Z</time>
      </trkpt>
      <trkpt lat="48.82578" lon="2.35093">
        <ele>102.9</ele>
        <time>2015-04-06T20:42:57.702Z</time>
      </trkpt>
      <trkpt lat="48.82575" lon="2.3508">
        <ele>102.4</ele>
        <time>2015-04-06T20:42:59.714Z</time>
      </trkpt>
      <trkpt lat="48.82574" lon="2.35074">
        <ele>102.1</ele>
        <time>2015-04-06T20:43:00.741Z</time>
      </trkpt>
      <trkpt lat="48.82572" lon="2.35066">
        <ele>101.9</ele>
        <time>2015-04-06T20:43:01.783Z</time>
      </trkpt>
      <trkpt lat="48.82571" lon="2.35059">
        <ele>102</ele>
        <time>2015-04-06T20:43:02.954Z</time>
      </trkpt>
      <trkpt lat="48.82569" lon="2.35046">
        <ele>102</ele>
        <time>2015-04-06T20:43:04.711Z</time>
      </trkpt>
      <trkpt lat="48.82569" lon="2.3504">
        <ele>102</ele>
        <time>2015-04-06T20:43:05.715Z</time>
      </trkpt>
      <trkpt lat="48.82567" lon="2.35029">
        <ele>102.8</ele>
        <time>2015-04-06T20:43:07.740Z</time>
      </trkpt>
      <trkpt lat="48.82565" lon="2.35025">
        <ele>103.1</ele>
        <time>2015-04-06T20:43:08.757Z</time>
      </trkpt>
      <trkpt lat="48.82558" lon="2.35018">
        <ele>100.2</ele>
        <time>2015-04-06T20:43:13.771Z</time>
      </trkpt>
      <trkpt lat="48.82555" lon="2.35016">
        <ele>100.2</ele>
        <time>2015-04-06T20:43:14.843Z</time>
      </trkpt>
      <trkpt lat="48.82549" lon="2.35012">
        <ele>100.2</ele>
        <time>2015-04-06T20:43:16.703Z</time>
      </trkpt>
      <trkpt lat="48.82545" lon="2.3501">
        <ele>99.9</ele>
        <time>2015-04-06T20:43:17.723Z</time>
      </trkpt>
      <trkpt lat="48.82538" lon="2.35004">
        <ele>99.8</ele>
        <time>2015-04-06T20:43:19.762Z</time>
      </trkpt>
      <trkpt lat="48.82534" lon="2.35001">
        <ele>100</ele>
        <time>2015-04-06T20:43:20.812Z</time>
      </trkpt>
      <trkpt lat="48.82531" lon="2.34998">
        <ele>100.1</ele>
        <time>2015-04-06T20:43:21.750Z</time>
      </trkpt>
      <trkpt lat="48.82526" lon="2.34994">
        <ele>100.2</ele>
        <time>2015-04-06T20:43:22.716Z</time>
      </trkpt>
      <trkpt lat="48.82522" lon="2.34991">
        <ele>100.4</ele>
        <time>2015-04-06T20:43:23.723Z</time>
      </trkpt>
      <trkpt lat="48.82517" lon="2.34988">
        <ele>101</ele>
        <time>2015-04-06T20:43:24.735Z</time>
      </trkpt>
      <trkpt lat="48.82513" lon="2.34983">
        <ele>101.3</ele>
        <time>2015-04-06T20:43:25.741Z</time>
      </trkpt>
      <trkpt lat="48.82508" lon="2.34978">
        <ele>101.6</ele>
        <time>2015-04-06T20:43:26.745Z</time>
      </trkpt>
      <trkpt lat="48.82504" lon="2.34973">
        <ele>102.1</ele>
        <time>2015-04-06T20:43:27.759Z</time>
      </trkpt>
      <trkpt lat="48.825" lon="2.34969">
        <ele>102.3</ele>
        <time>2015-04-06T20:43:28.764Z</time>
      </trkpt>
      <trkpt lat="48.82494" lon="2.34964">
        <ele>102.4</ele>
        <time>2015-04-06T20:43:29.779Z</time>
      </trkpt>
      <trkpt lat="48.82489" lon="2.3496">
        <ele>102.7</ele>
        <time>2015-04-06T20:43:30.789Z</time>
      </trkpt>
      <trkpt lat="48.82484" lon="2.34955">
        <ele>102.9</ele>
        <time>2015-04-06T20:43:31.802Z</time>
      </trkpt>
      <trkpt lat="48.82479" lon="2.3495">
        <ele>103.2</ele>
        <time>2015-04-06T20:43:32.682Z</time>
      </trkpt>
      <trkpt lat="48.82474" lon="2.34944">
        <ele>103.4</ele>
        <time>2015-04-06T20:43:33.707Z</time>
      </trkpt>
      <trkpt lat="48.82469" lon="2.34937">
        <ele>103.6</ele>
        <time>2015-04-06T20:43:34.829Z</time>
      </trkpt>
      <trkpt lat="48.82465" lon="2.3493">
        <ele>103.9</ele>
        <time>2015-04-06T20:43:35.667Z</time>
      </trkpt>
      <trkpt lat="48.8246" lon="2.34925">
        <ele>103.8</ele>
        <time>2015-04-06T20:43:36.691Z</time>
      </trkpt>
      <trkpt lat="48.82456" lon="2.34922">
        <ele>102.9</ele>
        <time>2015-04-06T20:43:37.734Z</time>
      </trkpt>
      <trkpt lat="48.8245" lon="2.34917">
        <ele>102.5</ele>
        <time>2015-04-06T20:43:38.733Z</time>
      </trkpt>
      <trkpt lat="48.82445" lon="2.34912">
        <ele>102.4</ele>
        <time>2015-04-06T20:43:39.749Z</time>
      </trkpt>
      <trkpt lat="48.82429" lon="2.34894">
        <ele>102.2</ele>
        <time>2015-04-06T20:43:42.705Z</time>
      </trkpt>
      <trkpt lat="48.82404" lon="2.34871">
        <ele>102.1</ele>
        <time>2015-04-06T20:43:47.700Z</time>
      </trkpt>
      <trkpt lat="48.82399" lon="2.34867">
        <ele>102.1</ele>
        <time>2015-04-06T20:43:48.740Z</time>
      </trkpt>
      <trkpt lat="48.82394" lon="2.34863">
        <ele>102.1</ele>
        <time>2015-04-06T20:43:49.757Z</time>
      </trkpt>
      <trkpt lat="48.82391" lon="2.34859">
        <ele>102</ele>
        <time>2015-04-06T20:43:50.687Z</time>
      </trkpt>
      <trkpt lat="48.82387" lon="2.34854">
        <ele>102</ele>
        <time>2015-04-06T20:43:51.684Z</time>
      </trkpt>
      <trkpt lat="48.82383" lon="2.3485">
        <ele>101.8</ele>
        <time>2015-04-06T20:43:52.705Z</time>
      </trkpt>
      <trkpt lat="48.82379" lon="2.34847">
        <ele>101.3</ele>
        <time>2015-04-06T20:43:53.729Z</time>
      </trkpt>
      <trkpt lat="48.82373" lon="2.34843">
        <ele>101.1</ele>
        <time>2015-04-06T20:43:54.779Z</time>
      </trkpt>
      <trkpt lat="48.82368" lon="2.34838">
        <ele>101.2</ele>
        <time>2015-04-06T20:43:55.793Z</time>
      </trkpt>
      <trkpt lat="48.82364" lon="2.34833">
        <ele>101.1</ele>
        <time>2015-04-06T20:43:56.695Z</time>
      </trkpt>
      <trkpt lat="48.8236" lon="2.34828">
        <ele>101.2</ele>
        <time>2015-04-06T20:43:57.697Z</time>
      </trkpt>
      <trkpt lat="48.82355" lon="2.34823">
        <ele>101.4</ele>
        <time>2015-04-06T20:43:58.753Z</time>
      </trkpt>
      <trkpt lat="48.82351" lon="2.34818">
        <ele>101.4</ele>
        <time>2015-04-06T20:43:59.762Z</time>
      </trkpt>
      <trkpt lat="48.82347" lon="2.34811">
        <ele>101.4</ele>
        <time>2015-04-06T20:44:00.667Z</time>
      </trkpt>
      <trkpt lat="48.82336" lon="2.348">
        <ele>101</ele>
        <time>2015-04-06T20:44:02.743Z</time>
      </trkpt>
      <trkpt lat="48.8233" lon="2.34796">
        <ele>100.7</ele>
        <time>2015-04-06T20:44:03.715Z</time>
      </trkpt>
      <trkpt lat="48.82325" lon="2.34792">
        <ele>100.5</ele>
        <time>2015-04-06T20:44:04.716Z</time>
      </trkpt>
      <trkpt lat="48.8232" lon="2.34788">
        <ele>100.6</ele>
        <time>2015-04-06T20:44:05.766Z</time>
      </trkpt>
      <trkpt lat="48.82301" lon="2.34763">
        <ele>101</ele>
        <time>2015-04-06T20:44:09.739Z</time>
      </trkpt>
      <trkpt lat="48.82296" lon="2.34759">
        <ele>100.9</ele>
        <time>2015-04-06T20:44:10.767Z</time>
      </trkpt>
      <trkpt lat="48.82289" lon="2.34754">
        <ele>101.5</ele>
        <time>2015-04-06T20:44:11.799Z</time>
      </trkpt>
      <trkpt lat="48.82281" lon="2.34752">
        <ele>101.3</ele>
        <time>2015-04-06T20:44:12.690Z</time>
      </trkpt>
      <trkpt lat="48.82271" lon="2.34752">
        <ele>101</ele>
        <time>2015-04-06T20:44:13.726Z</time>
      </trkpt>
      <trkpt lat="48.82265" lon="2.34752">
        <ele>100.2</ele>
        <time>2015-04-06T20:44:14.729Z</time>
      </trkpt>
      <trkpt lat="48.82256" lon="2.34751">
        <ele>100.3</ele>
        <time>2015-04-06T20:44:15.744Z</time>
      </trkpt>
      <trkpt lat="48.8225" lon="2.34749">
        <ele>100.3</ele>
        <time>2015-04-06T20:44:16.764Z</time>
      </trkpt>
      <trkpt lat="48.82245" lon="2.34744">
        <ele>100.2</ele>
        <time>2015-04-06T20:44:17.714Z</time>
      </trkpt>
      <trkpt lat="48.82242" lon="2.34739">
        <ele>99.1</ele>
        <time>2015-04-06T20:44:18.705Z</time>
      </trkpt>
      <trkpt lat="48.8224" lon="2.3473">
        <ele>98.3</ele>
        <time>2015-04-06T20:44:19.748Z</time>
      </trkpt>
      <trkpt lat="48.82238" lon="2.34722">
        <ele>98.4</ele>
        <time>2015-04-06T20:44:20.744Z</time>
      </trkpt>
      <trkpt lat="48.82237" lon="2.34715">
        <ele>98.4</ele>
        <time>2015-04-06T20:44:21.750Z</time>
      </trkpt>
      <trkpt lat="48.82234" lon="2.34703">
        <ele>98.1</ele>
        <time>2015-04-06T20:44:23.767Z</time>
      </trkpt>
      <trkpt lat="48.82234" lon="2.34698">
        <ele>98.6</ele>
        <time>2015-04-06T20:44:24.770Z</time>
      </trkpt>
      <trkpt lat="48.82232" lon="2.34688">
        <ele>99.3</ele>
        <time>2015-04-06T20:44:26.798Z</time>
      </trkpt>
      <trkpt lat="48.82234" lon="2.34679">
        <ele>99.6</ele>
        <time>2015-04-06T20:44:27.714Z</time>
      </trkpt>
      <trkpt lat="48.82236" lon="2.34668">
        <ele>100.3</ele>
        <time>2015-04-06T20:44:28.733Z</time>
      </trkpt>
      <trkpt lat="48.82236" lon="2.34662">
        <ele>100.1</ele>
        <time>2015-04-06T20:44:29.742Z</time>
      </trkpt>
      <trkpt lat="48.82233" lon="2.34654">
        <ele>100</ele>
        <time>2015-04-06T20:44:31.774Z</time>
      </trkpt>
      <trkpt lat="48.82231" lon="2.3465">
        <ele>99.8</ele>
        <time>2015-04-06T20:44:32.793Z</time>
      </trkpt>
      <trkpt lat="48.82226" lon="2.3464">
        <ele>99.3</ele>
        <time>2015-04-06T20:44:35.741Z</time>
      </trkpt>
      <trkpt lat="48.82225" lon="2.34638">
        <ele>99.3</ele>
        <time>2015-04-06T20:44:36.761Z</time>
      </trkpt>
      <trkpt lat="48.82218" lon="2.34635">
        <ele>101</ele>
        <time>2015-04-06T20:44:40.774Z</time>
      </trkpt>
      <trkpt lat="48.82216" lon="2.34636">
        <ele>102.2</ele>
        <time>2015-04-06T20:44:41.787Z</time>
      </trkpt>
      <trkpt lat="48.82215" lon="2.34637">
        <ele>102.7</ele>
        <time>2015-04-06T20:45:01.799Z</time>
      </trkpt>
      <trkpt lat="48.82222" lon="2.34652">
        <ele>99.1</ele>
        <time>2015-04-06T20:45:02.833Z</time>
      </trkpt>
      <trkpt lat="48.82222" lon="2.34664">
        <ele>98.6</ele>
        <time>2015-04-06T20:45:05.906Z</time>
      </trkpt>
      <trkpt lat="48.82221" lon="2.34667">
        <ele>98.7</ele>
        <time>2015-04-06T20:45:06.919Z</time>
      </trkpt>
      <trkpt lat="48.82221" lon="2.34678">
        <ele>99.5</ele>
        <time>2015-04-06T20:45:09.848Z</time>
      </trkpt>
      <trkpt lat="48.82221" lon="2.34682">
        <ele>99.8</ele>
        <time>2015-04-06T20:45:10.860Z</time>
      </trkpt>
      <trkpt lat="48.82222" lon="2.34694">
        <ele>102.1</ele>
        <time>2015-04-06T20:45:12.898Z</time>
      </trkpt>
      <trkpt lat="48.82222" lon="2.34698">
        <ele>102.7</ele>
        <time>2015-04-06T20:45:13.734Z</time>
      </trkpt>
      <trkpt lat="48.82224" lon="2.3471">
        <ele>103.2</ele>
        <time>2015-04-06T20:45:16.730Z</time>
      </trkpt>
      <trkpt lat="48.82224" lon="2.34715">
        <ele>103.8</ele>
        <time>2015-04-06T20:45:17.752Z</time>
      </trkpt>
      <trkpt lat="48.82223" lon="2.34727">
        <ele>104</ele>
        <time>2015-04-06T20:45:19.770Z</time>
      </trkpt>
      <trkpt lat="48.82225" lon="2.34735">
        <ele>104.8</ele>
        <time>2015-04-06T20:45:20.787Z</time>
      </trkpt>
      <trkpt lat="48.82225" lon="2.34747">
        <ele>104.8</ele>
        <time>2015-04-06T20:45:22.718Z</time>
      </trkpt>
      <trkpt lat="48.82223" lon="2.3475">
        <ele>104.3</ele>
        <time>2015-04-06T20:45:23.737Z</time>
      </trkpt>
      <trkpt lat="48.8222" lon="2.3476">
        <ele>104</ele>
        <time>2015-04-06T20:45:26.686Z</time>
      </trkpt>
      <trkpt lat="48.82219" lon="2.34764">
        <ele>104</ele>
        <time>2015-04-06T20:45:27.720Z</time>
      </trkpt>
      <trkpt lat="48.82219" lon="2.34776">
        <ele>103.9</ele>
        <time>2015-04-06T20:45:29.742Z</time>
      </trkpt>
      <trkpt lat="48.8222" lon="2.34781">
        <ele>104</ele>
        <time>2015-04-06T20:45:30.763Z</time>
      </trkpt>
      <trkpt lat="48.82222" lon="2.34788">
        <ele>104.3</ele>
        <time>2015-04-06T20:45:32.823Z</time>
      </trkpt>
      <trkpt lat="48.82224" lon="2.34794">
        <ele>104.5</ele>
        <time>2015-04-06T20:45:33.815Z</time>
      </trkpt>
      <trkpt lat="48.82222" lon="2.34802">
        <ele>105.6</ele>
        <time>2015-04-06T20:45:36.798Z</time>
      </trkpt>
      <trkpt lat="48.82219" lon="2.34807">
        <ele>105.7</ele>
        <time>2015-04-06T20:45:37.817Z</time>
      </trkpt>
      <trkpt lat="48.82215" lon="2.3481">
        <ele>106.2</ele>
        <time>2015-04-06T20:48:58.862Z</time>
      </trkpt>
      <trkpt lat="48.82208" lon="2.34792">
        <ele>109.1</ele>
        <time>2015-04-06T20:48:59.900Z</time>
      </trkpt>
      <trkpt lat="48.82208" lon="2.34779">
        <ele>110.8</ele>
        <time>2015-04-06T20:49:03.735Z</time>
      </trkpt>
      <trkpt lat="48.82208" lon="2.34777">
        <ele>111.1</ele>
        <time>2015-04-06T20:49:04.762Z</time>
      </trkpt>
      <trkpt lat="48.82207" lon="2.34774">
        <ele>111.7</ele>
        <time>2015-04-06T20:50:44.753Z</time>
      </trkpt>
      <trkpt lat="48.82214" lon="2.34761">
        <ele>108.7</ele>
        <time>2015-04-06T20:50:45.711Z</time>
      </trkpt>
      <trkpt lat="48.82218" lon="2.34751">
        <ele>108.6</ele>
        <time>2015-04-06T20:50:47.798Z</time>
      </trkpt>
      <trkpt lat="48.82218" lon="2.34747">
        <ele>108.3</ele>
        <time>2015-04-06T20:50:48.861Z</time>
      </trkpt>
      <trkpt lat="48.82217" lon="2.34734">
        <ele>108.3</ele>
        <time>2015-04-06T20:50:51.906Z</time>
      </trkpt>
      <trkpt lat="48.82217" lon="2.34728">
        <ele>108.3</ele>
        <time>2015-04-06T20:50:52.811Z</time>
      </trkpt>
      <trkpt lat="48.82216" lon="2.34717">
        <ele>108.7</ele>
        <time>2015-04-06T20:50:54.718Z</time>
      </trkpt>
      <trkpt lat="48.82217" lon="2.34711">
        <ele>108.6</ele>
        <time>2015-04-06T20:50:55.759Z</time>
      </trkpt>
      <trkpt lat="48.82217" lon="2.347">
        <ele>108.6</ele>
        <time>2015-04-06T20:50:57.761Z</time>
      </trkpt>
      <trkpt lat="48.82217" lon="2.34694">
        <ele>108.4</ele>
        <time>2015-04-06T20:50:58.771Z</time>
      </trkpt>
      <trkpt lat="48.82217" lon="2.34684">
        <ele>108.4</ele>
        <time>2015-04-06T20:51:00.855Z</time>
      </trkpt>
      <trkpt lat="48.82218" lon="2.34679">
        <ele>108.4</ele>
        <time>2015-04-06T20:51:01.722Z</time>
      </trkpt>
      <trkpt lat="48.82221" lon="2.34669">
        <ele>109</ele>
        <time>2015-04-06T20:51:04.870Z</time>
      </trkpt>
      <trkpt lat="48.8222" lon="2.34666">
        <ele>108.9</ele>
        <time>2015-04-06T20:51:05.888Z</time>
      </trkpt>
      <trkpt lat="48.8222" lon="2.34655">
        <ele>107.6</ele>
        <time>2015-04-06T20:51:09.842Z</time>
      </trkpt>
      <trkpt lat="48.8222" lon="2.34651">
        <ele>107.5</ele>
        <time>2015-04-06T20:51:10.705Z</time>
      </trkpt>
      <trkpt lat="48.82218" lon="2.34638">
        <ele>106.5</ele>
        <time>2015-04-06T20:51:14.753Z</time>
      </trkpt>
      <trkpt lat="48.82216" lon="2.34636">
        <ele>106.4</ele>
        <time>2015-04-06T20:51:15.844Z</time>
      </trkpt>
      <trkpt lat="48.82214" lon="2.34625">
        <ele>105.9</ele>
        <time>2015-04-06T20:51:18.847Z</time>
      </trkpt>
      <trkpt lat="48.82213" lon="2.3462">
        <ele>105.8</ele>
        <time>2015-04-06T20:51:19.874Z</time>
      </trkpt>
      <trkpt lat="48.8221" lon="2.34611">
        <ele>104.7</ele>
        <time>2015-04-06T20:51:21.807Z</time>
      </trkpt>
      <trkpt lat="48.82208" lon="2.34607">
        <ele>104.4</ele>
        <time>2015-04-06T20:51:22.828Z</time>
      </trkpt>
      <trkpt lat="48.82205" lon="2.34598">
        <ele>103.5</ele>
        <time>2015-04-06T20:51:24.687Z</time>
      </trkpt>
      <trkpt lat="48.82204" lon="2.34593">
        <ele>103.1</ele>
        <time>2015-04-06T20:51:25.742Z</time>
      </trkpt>
      <trkpt lat="48.82204" lon="2.34581">
        <ele>102.5</ele>
        <time>2015-04-06T20:51:27.688Z</time>
      </trkpt>
      <trkpt lat="48.82203" lon="2.34575">
        <ele>102.4</ele>
        <time>2015-04-06T20:51:28.708Z</time>
      </trkpt>
      <trkpt lat="48.82201" lon="2.34563">
        <ele>101</ele>
        <time>2015-04-06T20:51:30.734Z</time>
      </trkpt>
      <trkpt lat="48.82199" lon="2.34558">
        <ele>100.6</ele>
        <time>2015-04-06T20:51:31.930Z</time>
      </trkpt>
      <trkpt lat="48.82196" lon="2.34547">
        <ele>100.1</ele>
        <time>2015-04-06T20:51:33.866Z</time>
      </trkpt>
      <trkpt lat="48.82193" lon="2.34541">
        <ele>100.1</ele>
        <time>2015-04-06T20:51:34.893Z</time>
      </trkpt>
      <trkpt lat="48.82193" lon="2.34534">
        <ele>100.5</ele>
        <time>2015-04-06T20:51:35.795Z</time>
      </trkpt>
      <trkpt lat="48.82191" lon="2.34528">
        <ele>100.8</ele>
        <time>2015-04-06T20:51:36.691Z</time>
      </trkpt>
      <trkpt lat="48.8219" lon="2.34521">
        <ele>101.3</ele>
        <time>2015-04-06T20:51:37.744Z</time>
      </trkpt>
      <trkpt lat="48.82188" lon="2.34514">
        <ele>101.4</ele>
        <time>2015-04-06T20:51:38.768Z</time>
      </trkpt>
      <trkpt lat="48.82187" lon="2.34506">
        <ele>101.8</ele>
        <time>2015-04-06T20:51:39.806Z</time>
      </trkpt>
      <trkpt lat="48.82186" lon="2.345">
        <ele>102</ele>
        <time>2015-04-06T20:51:40.689Z</time>
      </trkpt>
      <trkpt lat="48.82184" lon="2.34488">
        <ele>101.6</ele>
        <time>2015-04-06T20:51:42.705Z</time>
      </trkpt>
      <trkpt lat="48.82184" lon="2.34482">
        <ele>101.7</ele>
        <time>2015-04-06T20:51:43.819Z</time>
      </trkpt>
      <trkpt lat="48.82185" lon="2.34471">
        <ele>102</ele>
        <time>2015-04-06T20:51:45.684Z</time>
      </trkpt>
      <trkpt lat="48.82185" lon="2.34465">
        <ele>102.2</ele>
        <time>2015-04-06T20:51:46.791Z</time>
      </trkpt>
      <trkpt lat="48.82184" lon="2.34454">
        <ele>102.5</ele>
        <time>2015-04-06T20:51:48.864Z</time>
      </trkpt>
      <trkpt lat="48.82183" lon="2.34446">
        <ele>102.4</ele>
        <time>2015-04-06T20:51:49.719Z</time>
      </trkpt>
      <trkpt lat="48.82182" lon="2.34439">
        <ele>102.2</ele>
        <time>2015-04-06T20:51:50.738Z</time>
      </trkpt>
      <trkpt lat="48.8218" lon="2.34431">
        <ele>101.9</ele>
        <time>2015-04-06T20:51:51.834Z</time>
      </trkpt>
      <trkpt lat="48.82178" lon="2.34423">
        <ele>101.5</ele>
        <time>2015-04-06T20:51:52.757Z</time>
      </trkpt>
      <trkpt lat="48.82177" lon="2.34415">
        <ele>100.7</ele>
        <time>2015-04-06T20:51:53.764Z</time>
      </trkpt>
      <trkpt lat="48.82175" lon="2.34408">
        <ele>100.1</ele>
        <time>2015-04-06T20:51:54.689Z</time>
      </trkpt>
      <trkpt lat="48.82173" lon="2.34401">
        <ele>99.8</ele>
        <time>2015-04-06T20:51:55.724Z</time>
      </trkpt>
      <trkpt lat="48.82169" lon="2.34394">
        <ele>99.7</ele>
        <time>2015-04-06T20:51:56.737Z</time>
      </trkpt>
      <trkpt lat="48.82166" lon="2.34387">
        <ele>99.6</ele>
        <time>2015-04-06T20:51:57.755Z</time>
      </trkpt>
      <trkpt lat="48.82164" lon="2.34379">
        <ele>99.6</ele>
        <time>2015-04-06T20:51:58.789Z</time>
      </trkpt>
      <trkpt lat="48.82162" lon="2.34372">
        <ele>99.9</ele>
        <time>2015-04-06T20:51:59.812Z</time>
      </trkpt>
      <trkpt lat="48.8216" lon="2.34365">
        <ele>100.3</ele>
        <time>2015-04-06T20:52:00.689Z</time>
      </trkpt>
      <trkpt lat="48.82159" lon="2.34358">
        <ele>100.7</ele>
        <time>2015-04-06T20:52:01.891Z</time>
      </trkpt>
      <trkpt lat="48.82158" lon="2.34346">
        <ele>101.3</ele>
        <time>2015-04-06T20:52:03.850Z</time>
      </trkpt>
      <trkpt lat="48.82155" lon="2.3434">
        <ele>101.5</ele>
        <time>2015-04-06T20:52:04.817Z</time>
      </trkpt>
      <trkpt lat="48.82152" lon="2.34334">
        <ele>101.5</ele>
        <time>2015-04-06T20:52:05.718Z</time>
      </trkpt>
      <trkpt lat="48.82151" lon="2.34328">
        <ele>101.4</ele>
        <time>2015-04-06T20:52:06.732Z</time>
      </trkpt>
      <trkpt lat="48.82151" lon="2.34315">
        <ele>101.1</ele>
        <time>2015-04-06T20:52:09.122Z</time>
      </trkpt>
      <trkpt lat="48.82151" lon="2.34312">
        <ele>101</ele>
        <time>2015-04-06T20:52:09.839Z</time>
      </trkpt>
      <trkpt lat="48.82153" lon="2.34303">
        <ele>100.8</ele>
        <time>2015-04-06T20:52:11.813Z</time>
      </trkpt>
      <trkpt lat="48.82153" lon="2.34298">
        <ele>100.8</ele>
        <time>2015-04-06T20:52:12.863Z</time>
      </trkpt>
      <trkpt lat="48.82148" lon="2.34287">
        <ele>100.5</ele>
        <time>2015-04-06T20:52:15.806Z</time>
      </trkpt>
      <trkpt lat="48.82146" lon="2.34282">
        <ele>100.5</ele>
        <time>2015-04-06T20:52:16.816Z</time>
      </trkpt>
      <trkpt lat="48.82139" lon="2.34277">
        <ele>101.4</ele>
        <time>2015-04-06T20:52:19.747Z</time>
      </trkpt>
      <trkpt lat="48.82137" lon="2.34275">
        <ele>102.1</ele>
        <time>2015-04-06T20:52:20.740Z</time>
      </trkpt>
      <trkpt lat="48.82139" lon="2.34268">
        <ele>105.6</ele>
        <time>2015-04-06T20:53:09.842Z</time>
      </trkpt>
      <trkpt lat="48.82139" lon="2.34262">
        <ele>111.5</ele>
        <time>2015-04-06T20:53:10.912Z</time>
      </trkpt>
      <trkpt lat="48.82133" lon="2.34269">
        <ele>112.4</ele>
        <time>2015-04-06T20:53:14.818Z</time>
      </trkpt>
      <trkpt lat="48.8213" lon="2.34269">
        <ele>112.8</ele>
        <time>2015-04-06T20:53:15.815Z</time>
      </trkpt>
      <trkpt lat="48.82123" lon="2.34267">
        <ele>115.8</ele>
        <time>2015-04-06T20:53:19.756Z</time>
      </trkpt>
      <trkpt lat="48.82121" lon="2.34267">
        <ele>116.6</ele>
        <time>2015-04-06T20:53:20.807Z</time>
      </trkpt>
      <trkpt lat="48.82116" lon="2.34263">
        <ele>118.2</ele>
        <time>2015-04-06T20:53:22.741Z</time>
      </trkpt>
      <trkpt lat="48.82113" lon="2.34262">
        <ele>119</ele>
        <time>2015-04-06T20:53:23.852Z</time>
      </trkpt>
      <trkpt lat="48.82107" lon="2.34261">
        <ele>119.9</ele>
        <time>2015-04-06T20:53:24.862Z</time>
      </trkpt>
      <trkpt lat="48.82101" lon="2.34259">
        <ele>120.5</ele>
        <time>2015-04-06T20:53:25.867Z</time>
      </trkpt>
      <trkpt lat="48.82094" lon="2.34257">
        <ele>121</ele>
        <time>2015-04-06T20:53:26.876Z</time>
      </trkpt>
      <trkpt lat="48.82087" lon="2.34256">
        <ele>121.2</ele>
        <time>2015-04-06T20:53:27.876Z</time>
      </trkpt>
      <trkpt lat="48.82082" lon="2.34254">
        <ele>121.5</ele>
        <time>2015-04-06T20:53:28.951Z</time>
      </trkpt>
      <trkpt lat="48.82079" lon="2.34252">
        <ele>121.7</ele>
        <time>2015-04-06T20:53:29.711Z</time>
      </trkpt>
      <trkpt lat="48.82054" lon="2.3425">
        <ele>121.4</ele>
        <time>2015-04-06T20:53:36.821Z</time>
      </trkpt>
      <trkpt lat="48.82047" lon="2.34248">
        <ele>121.9</ele>
        <time>2015-04-06T20:53:40.549Z</time>
      </trkpt>
      <trkpt lat="48.82045" lon="2.34248">
        <ele>122.4</ele>
        <time>2015-04-06T20:53:40.718Z</time>
      </trkpt>
      <trkpt lat="48.82041" lon="2.34246">
        <ele>122.7</ele>
        <time>2015-04-06T20:53:41.811Z</time>
      </trkpt>
      <trkpt lat="48.82035" lon="2.34245">
        <ele>122.7</ele>
        <time>2015-04-06T20:53:42.907Z</time>
      </trkpt>
      <trkpt lat="48.82027" lon="2.34239">
        <ele>122.1</ele>
        <time>2015-04-06T20:53:45.636Z</time>
      </trkpt>
      <trkpt lat="48.82022" lon="2.34238">
        <ele>121.8</ele>
        <time>2015-04-06T20:53:45.835Z</time>
      </trkpt>
      <trkpt lat="48.82017" lon="2.34237">
        <ele>121.5</ele>
        <time>2015-04-06T20:53:46.713Z</time>
      </trkpt>
      <trkpt lat="48.82011" lon="2.34237">
        <ele>121.3</ele>
        <time>2015-04-06T20:53:47.744Z</time>
      </trkpt>
      <trkpt lat="48.82006" lon="2.34239">
        <ele>121.5</ele>
        <time>2015-04-06T20:53:48.761Z</time>
      </trkpt>
      <trkpt lat="48.82" lon="2.34242">
        <ele>121.3</ele>
        <time>2015-04-06T20:53:49.771Z</time>
      </trkpt>
      <trkpt lat="48.81995" lon="2.3425">
        <ele>121.7</ele>
        <time>2015-04-06T20:54:58.863Z</time>
      </trkpt>
      <trkpt lat="48.81965" lon="2.34271">
        <ele>140.5</ele>
        <time>2015-04-06T20:54:59.862Z</time>
      </trkpt>
      <trkpt lat="48.81959" lon="2.34262">
        <ele>142.9</ele>
        <time>2015-04-06T20:55:13.873Z</time>
      </trkpt>
      <trkpt lat="48.8196" lon="2.34258">
        <ele>142.9</ele>
        <time>2015-04-06T20:55:14.880Z</time>
      </trkpt>
      <trkpt lat="48.81963" lon="2.34247">
        <ele>143.1</ele>
        <time>2015-04-06T20:55:16.920Z</time>
      </trkpt>
      <trkpt lat="48.81963" lon="2.3424">
        <ele>143.1</ele>
        <time>2015-04-06T20:55:17.856Z</time>
      </trkpt>
      <trkpt lat="48.81964" lon="2.34233">
        <ele>143.2</ele>
        <time>2015-04-06T20:55:18.920Z</time>
      </trkpt>
      <trkpt lat="48.81965" lon="2.34226">
        <ele>143.3</ele>
        <time>2015-04-06T20:55:19.811Z</time>
      </trkpt>
      <trkpt lat="48.81966" lon="2.34219">
        <ele>143.4</ele>
        <time>2015-04-06T20:55:20.832Z</time>
      </trkpt>
      <trkpt lat="48.81967" lon="2.34212">
        <ele>143.4</ele>
        <time>2015-04-06T20:55:21.846Z</time>
      </trkpt>
      <trkpt lat="48.81968" lon="2.34205">
        <ele>143.5</ele>
        <time>2015-04-06T20:55:22.853Z</time>
      </trkpt>
      <trkpt lat="48.81969" lon="2.34198">
        <ele>143.6</ele>
        <time>2015-04-06T20:55:23.854Z</time>
      </trkpt>
      <trkpt lat="48.81972" lon="2.34188">
        <ele>143.5</ele>
        <time>2015-04-06T20:55:25.879Z</time>
      </trkpt>
      <trkpt lat="48.81974" lon="2.34184">
        <ele>143.5</ele>
        <time>2015-04-06T20:55:26.889Z</time>
      </trkpt>
      <trkpt lat="48.81974" lon="2.34173">
        <ele>143.3</ele>
        <time>2015-04-06T20:55:28.817Z</time>
      </trkpt>
      <trkpt lat="48.81975" lon="2.34168">
        <ele>143.4</ele>
        <time>2015-04-06T20:55:29.824Z</time>
      </trkpt>
      <trkpt lat="48.81977" lon="2.34156">
        <ele>143.3</ele>
        <time>2015-04-06T20:55:32.895Z</time>
      </trkpt>
      <trkpt lat="48.81979" lon="2.34153">
        <ele>143.7</ele>
        <time>2015-04-06T20:55:33.802Z</time>
      </trkpt>
      <trkpt lat="48.81982" lon="2.34141">
        <ele>144.2</ele>
        <time>2015-04-06T20:55:36.828Z</time>
      </trkpt>
      <trkpt lat="48.81982" lon="2.34138">
        <ele>144.4</ele>
        <time>2015-04-06T20:55:37.850Z</time>
      </trkpt>
      <trkpt lat="48.81986" lon="2.34136">
        <ele>144.5</ele>
        <time>2015-04-06T20:55:51.225Z</time>
      </trkpt>
      <trkpt lat="48.81993" lon="2.34146">
        <ele>147.4</ele>
        <time>2015-04-06T20:55:51.828Z</time>
      </trkpt>
      <trkpt lat="48.82001" lon="2.34147">
        <ele>146.7</ele>
        <time>2015-04-06T20:55:54.929Z</time>
      </trkpt>
      <trkpt lat="48.82004" lon="2.34146">
        <ele>147</ele>
        <time>2015-04-06T20:55:55.816Z</time>
      </trkpt>
      <trkpt lat="48.8201" lon="2.34143">
        <ele>147.2</ele>
        <time>2015-04-06T20:55:57.813Z</time>
      </trkpt>
      <trkpt lat="48.82013" lon="2.3414">
        <ele>147.4</ele>
        <time>2015-04-06T20:55:58.814Z</time>
      </trkpt>
      <trkpt lat="48.8202" lon="2.34137">
        <ele>147.2</ele>
        <time>2015-04-06T20:56:01.266Z</time>
      </trkpt>
      <trkpt lat="48.82024" lon="2.34137">
        <ele>147</ele>
        <time>2015-04-06T20:56:01.858Z</time>
      </trkpt>
      <trkpt lat="48.82033" lon="2.34139">
        <ele>146.3</ele>
        <time>2015-04-06T20:56:04.913Z</time>
      </trkpt>
      <trkpt lat="48.82036" lon="2.34138">
        <ele>146.2</ele>
        <time>2015-04-06T20:56:05.841Z</time>
      </trkpt>
      <trkpt lat="48.82043" lon="2.34136">
        <ele>146.2</ele>
        <time>2015-04-06T20:56:07.845Z</time>
      </trkpt>
      <trkpt lat="48.82046" lon="2.34134">
        <ele>146.2</ele>
        <time>2015-04-06T20:56:08.881Z</time>
      </trkpt>
      <trkpt lat="48.82053" lon="2.34129">
        <ele>146.1</ele>
        <time>2015-04-06T20:56:11.431Z</time>
      </trkpt>
      <trkpt lat="48.82056" lon="2.34129">
        <ele>146</ele>
        <time>2015-04-06T20:56:11.784Z</time>
      </trkpt>
      <trkpt lat="48.82063" lon="2.34129">
        <ele>145.7</ele>
        <time>2015-04-06T20:56:12.860Z</time>
      </trkpt>
      <trkpt lat="48.82069" lon="2.34128">
        <ele>145.6</ele>
        <time>2015-04-06T20:56:13.864Z</time>
      </trkpt>
      <trkpt lat="48.82074" lon="2.34127">
        <ele>145</ele>
        <time>2015-04-06T20:56:14.781Z</time>
      </trkpt>
      <trkpt lat="48.8208" lon="2.34126">
        <ele>144.6</ele>
        <time>2015-04-06T20:56:15.809Z</time>
      </trkpt>
      <trkpt lat="48.82086" lon="2.34126">
        <ele>144.2</ele>
        <time>2015-04-06T20:56:16.809Z</time>
      </trkpt>
      <trkpt lat="48.82092" lon="2.34124">
        <ele>144</ele>
        <time>2015-04-06T20:56:17.809Z</time>
      </trkpt>
      <trkpt lat="48.82097" lon="2.34122">
        <ele>143.9</ele>
        <time>2015-04-06T20:56:18.942Z</time>
      </trkpt>
      <trkpt lat="48.82101" lon="2.34119">
        <ele>143.7</ele>
        <time>2015-04-06T20:56:19.829Z</time>
      </trkpt>
      <trkpt lat="48.82109" lon="2.34114">
        <ele>143.6</ele>
        <time>2015-04-06T20:56:21.817Z</time>
      </trkpt>
      <trkpt lat="48.82113" lon="2.34111">
        <ele>143.7</ele>
        <time>2015-04-06T20:56:22.831Z</time>
      </trkpt>
      <trkpt lat="48.82118" lon="2.34109">
        <ele>143.6</ele>
        <time>2015-04-06T20:56:23.824Z</time>
      </trkpt>
      <trkpt lat="48.82124" lon="2.34108">
        <ele>143.8</ele>
        <time>2015-04-06T20:56:24.851Z</time>
      </trkpt>
      <trkpt lat="48.82132" lon="2.34108">
        <ele>143.9</ele>
        <time>2015-04-06T20:56:25.801Z</time>
      </trkpt>
      <trkpt lat="48.82139" lon="2.34106">
        <ele>144.1</ele>
        <time>2015-04-06T20:56:26.828Z</time>
      </trkpt>
      <trkpt lat="48.82145" lon="2.34103">
        <ele>144.1</ele>
        <time>2015-04-06T20:56:27.844Z</time>
      </trkpt>
      <trkpt lat="48.82151" lon="2.34099">
        <ele>143.8</ele>
        <time>2015-04-06T20:56:28.843Z</time>
      </trkpt>
      <trkpt lat="48.82159" lon="2.34095">
        <ele>143.8</ele>
        <time>2015-04-06T20:56:29.854Z</time>
      </trkpt>
      <trkpt lat="48.82167" lon="2.34091">
        <ele>143.6</ele>
        <time>2015-04-06T20:56:30.871Z</time>
      </trkpt>
      <trkpt lat="48.82176" lon="2.34089">
        <ele>143.5</ele>
        <time>2015-04-06T20:56:31.902Z</time>
      </trkpt>
      <trkpt lat="48.82183" lon="2.34085">
        <ele>143</ele>
        <time>2015-04-06T20:56:32.789Z</time>
      </trkpt>
      <trkpt lat="48.82191" lon="2.34081">
        <ele>142.4</ele>
        <time>2015-04-06T20:56:33.799Z</time>
      </trkpt>
      <trkpt lat="48.82198" lon="2.34077">
        <ele>141.9</ele>
        <time>2015-04-06T20:56:34.808Z</time>
      </trkpt>
      <trkpt lat="48.82206" lon="2.34073">
        <ele>141.4</ele>
        <time>2015-04-06T20:56:35.827Z</time>
      </trkpt>
      <trkpt lat="48.82362" lon="2.34009">
        <ele>139.2</ele>
        <time>2015-04-06T20:57:04.844Z</time>
      </trkpt>
      <trkpt lat="48.8237" lon="2.34006">
        <ele>139.1</ele>
        <time>2015-04-06T20:57:06.806Z</time>
      </trkpt>
      <trkpt lat="48.82374" lon="2.34003">
        <ele>139.3</ele>
        <time>2015-04-06T20:57:07.806Z</time>
      </trkpt>
      <trkpt lat="48.82379" lon="2.33999">
        <ele>139.5</ele>
        <time>2015-04-06T20:57:09.165Z</time>
      </trkpt>
      <trkpt lat="48.82384" lon="2.33995">
        <ele>139.7</ele>
        <time>2015-04-06T20:57:09.851Z</time>
      </trkpt>
      <trkpt lat="48.82389" lon="2.33993">
        <ele>139.9</ele>
        <time>2015-04-06T20:57:10.792Z</time>
      </trkpt>
      <trkpt lat="48.82394" lon="2.33994">
        <ele>139.8</ele>
        <time>2015-04-06T20:57:11.800Z</time>
      </trkpt>
      <trkpt lat="48.82399" lon="2.33993">
        <ele>139.7</ele>
        <time>2015-04-06T20:57:12.855Z</time>
      </trkpt>
      <trkpt lat="48.82403" lon="2.33992">
        <ele>139.5</ele>
        <time>2015-04-06T20:57:13.807Z</time>
      </trkpt>
      <trkpt lat="48.82412" lon="2.33989">
        <ele>139.2</ele>
        <time>2015-04-06T20:57:15.816Z</time>
      </trkpt>
      <trkpt lat="48.82416" lon="2.33988">
        <ele>138.7</ele>
        <time>2015-04-06T20:57:16.828Z</time>
      </trkpt>
      <trkpt lat="48.82421" lon="2.33986">
        <ele>138.7</ele>
        <time>2015-04-06T20:57:17.834Z</time>
      </trkpt>
      <trkpt lat="48.82425" lon="2.33986">
        <ele>138.2</ele>
        <time>2015-04-06T20:57:18.862Z</time>
      </trkpt>
      <trkpt lat="48.8243" lon="2.33986">
        <ele>138</ele>
        <time>2015-04-06T20:57:19.878Z</time>
      </trkpt>
      <trkpt lat="48.82434" lon="2.33985">
        <ele>138.1</ele>
        <time>2015-04-06T20:57:20.798Z</time>
      </trkpt>
      <trkpt lat="48.8244" lon="2.33984">
        <ele>137.6</ele>
        <time>2015-04-06T20:57:22.804Z</time>
      </trkpt>
      <trkpt lat="48.82445" lon="2.33985">
        <ele>136.7</ele>
        <time>2015-04-06T20:57:23.842Z</time>
      </trkpt>
      <trkpt lat="48.82445" lon="2.33985">
        <ele>136.7</ele>
        <time>2015-04-06T20:57:49.806Z</time>
      </trkpt>
      <trkpt lat="48.82462" lon="2.33978">
        <ele>131</ele>
        <time>2015-04-06T20:57:50.856Z</time>
      </trkpt>
      <trkpt lat="48.82458" lon="2.33967">
        <ele>127.4</ele>
        <time>2015-04-06T20:57:58.869Z</time>
      </trkpt>
      <trkpt lat="48.82459" lon="2.33958">
        <ele>125.1</ele>
        <time>2015-04-06T20:57:59.883Z</time>
      </trkpt>
      <trkpt lat="48.8246" lon="2.33948">
        <ele>124</ele>
        <time>2015-04-06T20:58:02.923Z</time>
      </trkpt>
      <trkpt lat="48.8246" lon="2.33944">
        <ele>123.8</ele>
        <time>2015-04-06T20:58:03.787Z</time>
      </trkpt>
      <trkpt lat="48.82461" lon="2.33931">
        <ele>123</ele>
        <time>2015-04-06T20:58:06.874Z</time>
      </trkpt>
      <trkpt lat="48.82461" lon="2.33926">
        <ele>122.8</ele>
        <time>2015-04-06T20:58:07.885Z</time>
      </trkpt>
      <trkpt lat="48.8246" lon="2.33916">
        <ele>122.2</ele>
        <time>2015-04-06T20:58:09.863Z</time>
      </trkpt>
      <trkpt lat="48.8246" lon="2.33909">
        <ele>121.4</ele>
        <time>2015-04-06T20:58:10.855Z</time>
      </trkpt>
      <trkpt lat="48.82459" lon="2.339">
        <ele>120.4</ele>
        <time>2015-04-06T20:58:11.861Z</time>
      </trkpt>
      <trkpt lat="48.82458" lon="2.33891">
        <ele>119.7</ele>
        <time>2015-04-06T20:58:12.874Z</time>
      </trkpt>
      <trkpt lat="48.82457" lon="2.33882">
        <ele>119.2</ele>
        <time>2015-04-06T20:58:13.798Z</time>
      </trkpt>
      <trkpt lat="48.82456" lon="2.33872">
        <ele>118.5</ele>
        <time>2015-04-06T20:58:14.891Z</time>
      </trkpt>
      <trkpt lat="48.82454" lon="2.33862">
        <ele>118</ele>
        <time>2015-04-06T20:58:15.852Z</time>
      </trkpt>
      <trkpt lat="48.82453" lon="2.33851">
        <ele>117.8</ele>
        <time>2015-04-06T20:58:16.867Z</time>
      </trkpt>
      <trkpt lat="48.82451" lon="2.33841">
        <ele>117.6</ele>
        <time>2015-04-06T20:58:17.874Z</time>
      </trkpt>
      <trkpt lat="48.82449" lon="2.33831">
        <ele>117.3</ele>
        <time>2015-04-06T20:58:18.882Z</time>
      </trkpt>
      <trkpt lat="48.82448" lon="2.33822">
        <ele>117.4</ele>
        <time>2015-04-06T20:58:19.804Z</time>
      </trkpt>
      <trkpt lat="48.82446" lon="2.33813">
        <ele>117.4</ele>
        <time>2015-04-06T20:58:20.798Z</time>
      </trkpt>
      <trkpt lat="48.82444" lon="2.33802">
        <ele>117.6</ele>
        <time>2015-04-06T20:58:21.831Z</time>
      </trkpt>
      <trkpt lat="48.82443" lon="2.33791">
        <ele>117.7</ele>
        <time>2015-04-06T20:58:22.854Z</time>
      </trkpt>
      <trkpt lat="48.82441" lon="2.3378">
        <ele>118</ele>
        <time>2015-04-06T20:58:23.803Z</time>
      </trkpt>
      <trkpt lat="48.82439" lon="2.3377">
        <ele>117.8</ele>
        <time>2015-04-06T20:58:24.844Z</time>
      </trkpt>
      <trkpt lat="48.82436" lon="2.3376">
        <ele>117.5</ele>
        <time>2015-04-06T20:58:25.851Z</time>
      </trkpt>
      <trkpt lat="48.82421" lon="2.33706">
        <ele>117.6</ele>
        <time>2015-04-06T20:58:26.868Z</time>
      </trkpt>
      <trkpt lat="48.82421" lon="2.33697">
        <ele>117.7</ele>
        <time>2015-04-06T20:58:27.796Z</time>
      </trkpt>
      <trkpt lat="48.82421" lon="2.33689">
        <ele>117.7</ele>
        <time>2015-04-06T20:58:28.797Z</time>
      </trkpt>
      <trkpt lat="48.82421" lon="2.33675">
        <ele>118.9</ele>
        <time>2015-04-06T20:58:30.865Z</time>
      </trkpt>
      <trkpt lat="48.82421" lon="2.33669">
        <ele>119.5</ele>
        <time>2015-04-06T20:58:31.888Z</time>
      </trkpt>
      <trkpt lat="48.82422" lon="2.33659">
        <ele>119.9</ele>
        <time>2015-04-06T20:58:33.870Z</time>
      </trkpt>
      <trkpt lat="48.82422" lon="2.33655">
        <ele>119.6</ele>
        <time>2015-04-06T20:58:34.825Z</time>
      </trkpt>
      <trkpt lat="48.82425" lon="2.33643">
        <ele>119.8</ele>
        <time>2015-04-06T20:58:37.809Z</time>
      </trkpt>
      <trkpt lat="48.82425" lon="2.3364">
        <ele>119.8</ele>
        <time>2015-04-06T20:58:38.807Z</time>
      </trkpt>
      <trkpt lat="48.82426" lon="2.3363">
        <ele>120.1</ele>
        <time>2015-04-06T20:58:41.812Z</time>
      </trkpt>
      <trkpt lat="48.82426" lon="2.33626">
        <ele>120.5</ele>
        <time>2015-04-06T20:58:42.850Z</time>
      </trkpt>
      <trkpt lat="48.82429" lon="2.33614">
        <ele>121.5</ele>
        <time>2015-04-06T20:59:12.835Z</time>
      </trkpt>
      <trkpt lat="48.82423" lon="2.33597">
        <ele>124.1</ele>
        <time>2015-04-06T20:59:39.864Z</time>
      </trkpt>
      <trkpt lat="48.82423" lon="2.33597">
        <ele>124.1</ele>
        <time>2015-04-06T20:59:47.805Z</time>
      </trkpt>
      <trkpt lat="48.82439" lon="2.3362">
        <ele>124.1</ele>
        <time>2015-04-06T20:59:48.926Z</time>
      </trkpt>
      <trkpt lat="48.82446" lon="2.33616">
        <ele>126.7</ele>
        <time>2015-04-06T20:59:52.867Z</time>
      </trkpt>
      <trkpt lat="48.82448" lon="2.33614">
        <ele>127.5</ele>
        <time>2015-04-06T20:59:53.847Z</time>
      </trkpt>
      <trkpt lat="48.82453" lon="2.33612">
        <ele>129.8</ele>
        <time>2015-04-06T20:59:59.835Z</time>
      </trkpt>
      <trkpt lat="48.82461" lon="2.33608">
        <ele>129.5</ele>
        <time>2015-04-06T21:00:00.927Z</time>
      </trkpt>
      <trkpt lat="48.82468" lon="2.33605">
        <ele>130.2</ele>
        <time>2015-04-06T21:00:03.940Z</time>
      </trkpt>
      <trkpt lat="48.82471" lon="2.33604">
        <ele>130.5</ele>
        <time>2015-04-06T21:00:04.863Z</time>
      </trkpt>
      <trkpt lat="48.82478" lon="2.336">
        <ele>130.3</ele>
        <time>2015-04-06T21:00:07.901Z</time>
      </trkpt>
      <trkpt lat="48.8248" lon="2.336">
        <ele>130.8</ele>
        <time>2015-04-06T21:00:08.805Z</time>
      </trkpt>
      <trkpt lat="48.82488" lon="2.33597">
        <ele>131.9</ele>
        <time>2015-04-06T21:00:11.862Z</time>
      </trkpt>
      <trkpt lat="48.82491" lon="2.33597">
        <ele>132.1</ele>
        <time>2015-04-06T21:00:12.882Z</time>
      </trkpt>
      <trkpt lat="48.82498" lon="2.33594">
        <ele>132.9</ele>
        <time>2015-04-06T21:00:16.541Z</time>
      </trkpt>
      <trkpt lat="48.82502" lon="2.33593">
        <ele>132.7</ele>
        <time>2015-04-06T21:00:16.836Z</time>
      </trkpt>
      <trkpt lat="48.82509" lon="2.33593">
        <ele>132.1</ele>
        <time>2015-04-06T21:00:18.887Z</time>
      </trkpt>
      <trkpt lat="48.82512" lon="2.33592">
        <ele>131.9</ele>
        <time>2015-04-06T21:00:19.836Z</time>
      </trkpt>
      <trkpt lat="48.82517" lon="2.33591">
        <ele>132.1</ele>
        <time>2015-04-06T21:00:21.553Z</time>
      </trkpt>
      <trkpt lat="48.82522" lon="2.3359">
        <ele>132.4</ele>
        <time>2015-04-06T21:00:21.880Z</time>
      </trkpt>
      <trkpt lat="48.8253" lon="2.33585">
        <ele>132.4</ele>
        <time>2015-04-06T21:00:23.810Z</time>
      </trkpt>
      <trkpt lat="48.82534" lon="2.33581">
        <ele>132.5</ele>
        <time>2015-04-06T21:00:24.848Z</time>
      </trkpt>
      <trkpt lat="48.82539" lon="2.33578">
        <ele>132.4</ele>
        <time>2015-04-06T21:00:26.677Z</time>
      </trkpt>
      <trkpt lat="48.82543" lon="2.33576">
        <ele>132.5</ele>
        <time>2015-04-06T21:00:26.768Z</time>
      </trkpt>
      <trkpt lat="48.82547" lon="2.33574">
        <ele>132.4</ele>
        <time>2015-04-06T21:00:27.798Z</time>
      </trkpt>
      <trkpt lat="48.82552" lon="2.33573">
        <ele>132.2</ele>
        <time>2015-04-06T21:00:28.833Z</time>
      </trkpt>
      <trkpt lat="48.82557" lon="2.33572">
        <ele>132.2</ele>
        <time>2015-04-06T21:00:29.828Z</time>
      </trkpt>
      <trkpt lat="48.82562" lon="2.3357">
        <ele>132.2</ele>
        <time>2015-04-06T21:00:30.838Z</time>
      </trkpt>
      <trkpt lat="48.82569" lon="2.33564">
        <ele>133.4</ele>
        <time>2015-04-06T21:00:32.849Z</time>
      </trkpt>
      <trkpt lat="48.82573" lon="2.3356">
        <ele>134</ele>
        <time>2015-04-06T21:00:33.856Z</time>
      </trkpt>
      <trkpt lat="48.82578" lon="2.33557">
        <ele>134.6</ele>
        <time>2015-04-06T21:00:34.795Z</time>
      </trkpt>
      <trkpt lat="48.82582" lon="2.33555">
        <ele>135.2</ele>
        <time>2015-04-06T21:00:35.836Z</time>
      </trkpt>
      <trkpt lat="48.82589" lon="2.3355">
        <ele>135.9</ele>
        <time>2015-04-06T21:00:37.877Z</time>
      </trkpt>
      <trkpt lat="48.82592" lon="2.33548">
        <ele>136.1</ele>
        <time>2015-04-06T21:00:38.882Z</time>
      </trkpt>
      <trkpt lat="48.82597" lon="2.33544">
        <ele>136.4</ele>
        <time>2015-04-06T21:00:40.803Z</time>
      </trkpt>
      <trkpt lat="48.826" lon="2.33541">
        <ele>136.5</ele>
        <time>2015-04-06T21:00:41.812Z</time>
      </trkpt>
      <trkpt lat="48.82605" lon="2.3354">
        <ele>136.7</ele>
        <time>2015-04-06T21:00:42.920Z</time>
      </trkpt>
      <trkpt lat="48.82609" lon="2.33538">
        <ele>136.9</ele>
        <time>2015-04-06T21:00:43.800Z</time>
      </trkpt>
      <trkpt lat="48.82614" lon="2.33537">
        <ele>137</ele>
        <time>2015-04-06T21:00:44.795Z</time>
      </trkpt>
      <trkpt lat="48.8262" lon="2.33536">
        <ele>137</ele>
        <time>2015-04-06T21:00:45.840Z</time>
      </trkpt>
      <trkpt lat="48.82627" lon="2.33536">
        <ele>137.2</ele>
        <time>2015-04-06T21:00:47.178Z</time>
      </trkpt>
      <trkpt lat="48.82634" lon="2.33537">
        <ele>137.3</ele>
        <time>2015-04-06T21:00:47.799Z</time>
      </trkpt>
      <trkpt lat="48.8264" lon="2.33536">
        <ele>137.1</ele>
        <time>2015-04-06T21:00:48.824Z</time>
      </trkpt>
      <trkpt lat="48.82645" lon="2.33535">
        <ele>136.9</ele>
        <time>2015-04-06T21:00:49.835Z</time>
      </trkpt>
      <trkpt lat="48.82649" lon="2.33532">
        <ele>137</ele>
        <time>2015-04-06T21:00:50.841Z</time>
      </trkpt>
      <trkpt lat="48.82654" lon="2.3353">
        <ele>136.9</ele>
        <time>2015-04-06T21:00:51.845Z</time>
      </trkpt>
      <trkpt lat="48.8266" lon="2.33528">
        <ele>137.1</ele>
        <time>2015-04-06T21:00:52.776Z</time>
      </trkpt>
      <trkpt lat="48.82665" lon="2.33527">
        <ele>137.5</ele>
        <time>2015-04-06T21:00:53.759Z</time>
      </trkpt>
      <trkpt lat="48.82672" lon="2.33522">
        <ele>137.9</ele>
        <time>2015-04-06T21:00:55.822Z</time>
      </trkpt>
      <trkpt lat="48.82674" lon="2.33521">
        <ele>138</ele>
        <time>2015-04-06T21:00:56.835Z</time>
      </trkpt>
      <trkpt lat="48.8268" lon="2.33516">
        <ele>137.9</ele>
        <time>2015-04-06T21:00:58.866Z</time>
      </trkpt>
      <trkpt lat="48.82683" lon="2.33514">
        <ele>138</ele>
        <time>2015-04-06T21:00:59.889Z</time>
      </trkpt>
      <trkpt lat="48.8269" lon="2.3351">
        <ele>138</ele>
        <time>2015-04-06T21:01:01.839Z</time>
      </trkpt>
      <trkpt lat="48.82694" lon="2.33508">
        <ele>138</ele>
        <time>2015-04-06T21:01:02.853Z</time>
      </trkpt>
      <trkpt lat="48.82697" lon="2.33506">
        <ele>138</ele>
        <time>2015-04-06T21:01:03.795Z</time>
      </trkpt>
      <trkpt lat="48.82703" lon="2.33505">
        <ele>138.5</ele>
        <time>2015-04-06T21:01:04.805Z</time>
      </trkpt>
      <trkpt lat="48.82708" lon="2.33503">
        <ele>138.7</ele>
        <time>2015-04-06T21:01:05.827Z</time>
      </trkpt>
      <trkpt lat="48.82712" lon="2.33502">
        <ele>139</ele>
        <time>2015-04-06T21:01:06.834Z</time>
      </trkpt>
      <trkpt lat="48.8272" lon="2.335">
        <ele>139.6</ele>
        <time>2015-04-06T21:01:08.845Z</time>
      </trkpt>
      <trkpt lat="48.82724" lon="2.33499">
        <ele>139.9</ele>
        <time>2015-04-06T21:01:09.861Z</time>
      </trkpt>
      <trkpt lat="48.8273" lon="2.33496">
        <ele>139.8</ele>
        <time>2015-04-06T21:01:11.787Z</time>
      </trkpt>
      <trkpt lat="48.82733" lon="2.33494">
        <ele>139.7</ele>
        <time>2015-04-06T21:01:12.863Z</time>
      </trkpt>
      <trkpt lat="48.82741" lon="2.33492">
        <ele>139.5</ele>
        <time>2015-04-06T21:01:13.883Z</time>
      </trkpt>
      <trkpt lat="48.82746" lon="2.33492">
        <ele>139.5</ele>
        <time>2015-04-06T21:01:14.789Z</time>
      </trkpt>
      <trkpt lat="48.82752" lon="2.33492">
        <ele>139.8</ele>
        <time>2015-04-06T21:01:15.806Z</time>
      </trkpt>
      <trkpt lat="48.82756" lon="2.33491">
        <ele>139.9</ele>
        <time>2015-04-06T21:01:16.820Z</time>
      </trkpt>
      <trkpt lat="48.82764" lon="2.33487">
        <ele>140.2</ele>
        <time>2015-04-06T21:01:18.838Z</time>
      </trkpt>
      <trkpt lat="48.82768" lon="2.33484">
        <ele>140.4</ele>
        <time>2015-04-06T21:01:19.851Z</time>
      </trkpt>
      <trkpt lat="48.82776" lon="2.3348">
        <ele>140.5</ele>
        <time>2015-04-06T21:01:21.793Z</time>
      </trkpt>
      <trkpt lat="48.82779" lon="2.33477">
        <ele>140.6</ele>
        <time>2015-04-06T21:01:22.793Z</time>
      </trkpt>
      <trkpt lat="48.82786" lon="2.33474">
        <ele>140.2</ele>
        <time>2015-04-06T21:01:24.941Z</time>
      </trkpt>
      <trkpt lat="48.82788" lon="2.33472">
        <ele>139.8</ele>
        <time>2015-04-06T21:01:25.796Z</time>
      </trkpt>
      <trkpt lat="48.82796" lon="2.3347">
        <ele>139.1</ele>
        <time>2015-04-06T21:01:28.822Z</time>
      </trkpt>
      <trkpt lat="48.82799" lon="2.33467">
        <ele>138.7</ele>
        <time>2015-04-06T21:01:28.855Z</time>
      </trkpt>
      <trkpt lat="48.82805" lon="2.33457">
        <ele>137.6</ele>
        <time>2015-04-06T21:01:31.876Z</time>
      </trkpt>
      <trkpt lat="48.82808" lon="2.33455">
        <ele>137</ele>
        <time>2015-04-06T21:01:32.801Z</time>
      </trkpt>
      <trkpt lat="48.82815" lon="2.33446">
        <ele>135.7</ele>
        <time>2015-04-06T21:01:35.575Z</time>
      </trkpt>
      <trkpt lat="48.82816" lon="2.33443">
        <ele>135.2</ele>
        <time>2015-04-06T21:01:36.834Z</time>
      </trkpt>
      <trkpt lat="48.82822" lon="2.33438">
        <ele>134</ele>
        <time>2015-04-06T21:01:39.858Z</time>
      </trkpt>
      <trkpt lat="48.82825" lon="2.33437">
        <ele>133.8</ele>
        <time>2015-04-06T21:01:40.799Z</time>
      </trkpt>
      <trkpt lat="48.82833" lon="2.33433">
        <ele>133.5</ele>
        <time>2015-04-06T21:01:46.393Z</time>
      </trkpt>
      <trkpt lat="48.8284" lon="2.33428">
        <ele>133.5</ele>
        <time>2015-04-06T21:01:46.814Z</time>
      </trkpt>
      <trkpt lat="48.82847" lon="2.33422">
        <ele>132.9</ele>
        <time>2015-04-06T21:01:48.855Z</time>
      </trkpt>
      <trkpt lat="48.8285" lon="2.3342">
        <ele>132.7</ele>
        <time>2015-04-06T21:01:49.866Z</time>
      </trkpt>
      <trkpt lat="48.82856" lon="2.33419">
        <ele>132.4</ele>
        <time>2015-04-06T21:01:54.890Z</time>
      </trkpt>
      <trkpt lat="48.82865" lon="2.33413">
        <ele>131.7</ele>
        <time>2015-04-06T21:01:55.831Z</time>
      </trkpt>
      <trkpt lat="48.82869" lon="2.33406">
        <ele>131.8</ele>
        <time>2015-04-06T21:01:57.822Z</time>
      </trkpt>
      <trkpt lat="48.82872" lon="2.33404">
        <ele>132.4</ele>
        <time>2015-04-06T21:01:58.837Z</time>
      </trkpt>
      <trkpt lat="48.8288" lon="2.33405">
        <ele>132.6</ele>
        <time>2015-04-06T21:02:01.641Z</time>
      </trkpt>
      <trkpt lat="48.82885" lon="2.33407">
        <ele>132.7</ele>
        <time>2015-04-06T21:02:01.765Z</time>
      </trkpt>
      <trkpt lat="48.82885" lon="2.33407">
        <ele>132.7</ele>
        <time>2015-04-06T21:02:05.881Z</time>
      </trkpt>
      <trkpt lat="48.82902" lon="2.3339">
        <ele>132.3</ele>
        <time>2015-04-06T21:02:06.806Z</time>
      </trkpt>
      <trkpt lat="48.82909" lon="2.33386">
        <ele>132.5</ele>
        <time>2015-04-06T21:02:07.873Z</time>
      </trkpt>
      <trkpt lat="48.82916" lon="2.33383">
        <ele>133.2</ele>
        <time>2015-04-06T21:02:08.782Z</time>
      </trkpt>
      <trkpt lat="48.82924" lon="2.33382">
        <ele>134.4</ele>
        <time>2015-04-06T21:02:09.238Z</time>
      </trkpt>
      <trkpt lat="48.82932" lon="2.33382">
        <ele>135</ele>
        <time>2015-04-06T21:02:10.805Z</time>
      </trkpt>
      <trkpt lat="48.82938" lon="2.33381">
        <ele>135.2</ele>
        <time>2015-04-06T21:02:11.842Z</time>
      </trkpt>
      <trkpt lat="48.82943" lon="2.33378">
        <ele>135.5</ele>
        <time>2015-04-06T21:02:12.842Z</time>
      </trkpt>
      <trkpt lat="48.82949" lon="2.33369">
        <ele>135.8</ele>
        <time>2015-04-06T21:02:14.868Z</time>
      </trkpt>
      <trkpt lat="48.82952" lon="2.33365">
        <ele>136.1</ele>
        <time>2015-04-06T21:02:15.910Z</time>
      </trkpt>
      <trkpt lat="48.82958" lon="2.33358">
        <ele>136.1</ele>
        <time>2015-04-06T21:02:17.830Z</time>
      </trkpt>
      <trkpt lat="48.82961" lon="2.33356">
        <ele>136</ele>
        <time>2015-04-06T21:02:18.854Z</time>
      </trkpt>
      <trkpt lat="48.82965" lon="2.33355">
        <ele>135.9</ele>
        <time>2015-04-06T21:02:19.822Z</time>
      </trkpt>
      <trkpt lat="48.82974" lon="2.33356">
        <ele>136.9</ele>
        <time>2015-04-06T21:02:20.878Z</time>
      </trkpt>
      <trkpt lat="48.82983" lon="2.33359">
        <ele>137.9</ele>
        <time>2015-04-06T21:02:21.814Z</time>
      </trkpt>
      <trkpt lat="48.8299" lon="2.3336">
        <ele>138.2</ele>
        <time>2015-04-06T21:02:22.810Z</time>
      </trkpt>
      <trkpt lat="48.82995" lon="2.33362">
        <ele>138.4</ele>
        <time>2015-04-06T21:02:23.836Z</time>
      </trkpt>
      <trkpt lat="48.83001" lon="2.33364">
        <ele>138.6</ele>
        <time>2015-04-06T21:02:24.911Z</time>
      </trkpt>
      <trkpt lat="48.83006" lon="2.33365">
        <ele>139</ele>
        <time>2015-04-06T21:02:25.799Z</time>
      </trkpt>
      <trkpt lat="48.83012" lon="2.33366">
        <ele>139.5</ele>
        <time>2015-04-06T21:02:27.070Z</time>
      </trkpt>
      <trkpt lat="48.8302" lon="2.33368">
        <ele>140.6</ele>
        <time>2015-04-06T21:02:27.834Z</time>
      </trkpt>
      <trkpt lat="48.83029" lon="2.33371">
        <ele>141.5</ele>
        <time>2015-04-06T21:02:28.856Z</time>
      </trkpt>
      <trkpt lat="48.83037" lon="2.33374">
        <ele>142.6</ele>
        <time>2015-04-06T21:02:29.789Z</time>
      </trkpt>
      <trkpt lat="48.83041" lon="2.33375">
        <ele>142.6</ele>
        <time>2015-04-06T21:02:30.847Z</time>
      </trkpt>
      <trkpt lat="48.83047" lon="2.33376">
        <ele>142.9</ele>
        <time>2015-04-06T21:02:32.787Z</time>
      </trkpt>
      <trkpt lat="48.83051" lon="2.33374">
        <ele>143.5</ele>
        <time>2015-04-06T21:02:33.819Z</time>
      </trkpt>
      <trkpt lat="48.83059" lon="2.33368">
        <ele>143.8</ele>
        <time>2015-04-06T21:02:35.788Z</time>
      </trkpt>
      <trkpt lat="48.83063" lon="2.33365">
        <ele>143.6</ele>
        <time>2015-04-06T21:02:36.831Z</time>
      </trkpt>
      <trkpt lat="48.83071" lon="2.33362">
        <ele>143</ele>
        <time>2015-04-06T21:02:38.857Z</time>
      </trkpt>
      <trkpt lat="48.83075" lon="2.33361">
        <ele>142.7</ele>
        <time>2015-04-06T21:02:39.868Z</time>
      </trkpt>
      <trkpt lat="48.83079" lon="2.33358">
        <ele>142.8</ele>
        <time>2015-04-06T21:02:40.796Z</time>
      </trkpt>
      <trkpt lat="48.83083" lon="2.33357">
        <ele>143.2</ele>
        <time>2015-04-06T21:02:41.802Z</time>
      </trkpt>
      <trkpt lat="48.83088" lon="2.33355">
        <ele>143.4</ele>
        <time>2015-04-06T21:02:42.924Z</time>
      </trkpt>
      <trkpt lat="48.83095" lon="2.33352">
        <ele>143.9</ele>
        <time>2015-04-06T21:02:43.846Z</time>
      </trkpt>
      <trkpt lat="48.83102" lon="2.3335">
        <ele>144.5</ele>
        <time>2015-04-06T21:02:44.892Z</time>
      </trkpt>
      <trkpt lat="48.83111" lon="2.33349">
        <ele>144.3</ele>
        <time>2015-04-06T21:02:45.792Z</time>
      </trkpt>
      <trkpt lat="48.83118" lon="2.33348">
        <ele>144.3</ele>
        <time>2015-04-06T21:02:46.796Z</time>
      </trkpt>
      <trkpt lat="48.83129" lon="2.33347">
        <ele>144.5</ele>
        <time>2015-04-06T21:02:47.842Z</time>
      </trkpt>
      <trkpt lat="48.83139" lon="2.33347">
        <ele>144.5</ele>
        <time>2015-04-06T21:02:48.885Z</time>
      </trkpt>
      <trkpt lat="48.83148" lon="2.33345">
        <ele>144</ele>
        <time>2015-04-06T21:02:49.789Z</time>
      </trkpt>
      <trkpt lat="48.83157" lon="2.33344">
        <ele>143.4</ele>
        <time>2015-04-06T21:02:50.797Z</time>
      </trkpt>
      <trkpt lat="48.83157" lon="2.33344">
        <ele>143.4</ele>
        <time>2015-04-06T21:02:51.134Z</time>
      </trkpt>
      <trkpt lat="48.83167" lon="2.33342">
        <ele>142.5</ele>
        <time>2015-04-06T21:02:51.833Z</time>
      </trkpt>
      <trkpt lat="48.83177" lon="2.33341">
        <ele>142.2</ele>
        <time>2015-04-06T21:02:52.846Z</time>
      </trkpt>
      <trkpt lat="48.83187" lon="2.33338">
        <ele>141.4</ele>
        <time>2015-04-06T21:02:53.876Z</time>
      </trkpt>
      <trkpt lat="48.83197" lon="2.33336">
        <ele>140.3</ele>
        <time>2015-04-06T21:02:54.865Z</time>
      </trkpt>
      <trkpt lat="48.83206" lon="2.33333">
        <ele>139.1</ele>
        <time>2015-04-06T21:02:55.877Z</time>
      </trkpt>
      <trkpt lat="48.83214" lon="2.33331">
        <ele>137.7</ele>
        <time>2015-04-06T21:02:56.802Z</time>
      </trkpt>
      <trkpt lat="48.83222" lon="2.33329">
        <ele>136.9</ele>
        <time>2015-04-06T21:02:57.795Z</time>
      </trkpt>
      <trkpt lat="48.83234" lon="2.33327">
        <ele>133.6</ele>
        <time>2015-04-06T21:02:58.796Z</time>
      </trkpt>
      <trkpt lat="48.83244" lon="2.33324">
        <ele>131.1</ele>
        <time>2015-04-06T21:02:59.887Z</time>
      </trkpt>
      <trkpt lat="48.83251" lon="2.33321">
        <ele>131</ele>
        <time>2015-04-06T21:03:00.906Z</time>
      </trkpt>
      <trkpt lat="48.83258" lon="2.33317">
        <ele>130.7</ele>
        <time>2015-04-06T21:03:01.792Z</time>
      </trkpt>
      <trkpt lat="48.83263" lon="2.33313">
        <ele>130.8</ele>
        <time>2015-04-06T21:03:02.810Z</time>
      </trkpt>
      <trkpt lat="48.83268" lon="2.3331">
        <ele>130.7</ele>
        <time>2015-04-06T21:03:03.814Z</time>
      </trkpt>
      <trkpt lat="48.83273" lon="2.33307">
        <ele>130.7</ele>
        <time>2015-04-06T21:03:04.843Z</time>
      </trkpt>
      <trkpt lat="48.83277" lon="2.33303">
        <ele>130.7</ele>
        <time>2015-04-06T21:03:05.847Z</time>
      </trkpt>
      <trkpt lat="48.83283" lon="2.33297">
        <ele>130.8</ele>
        <time>2015-04-06T21:03:07.872Z</time>
      </trkpt>
      <trkpt lat="48.83284" lon="2.33293">
        <ele>130.7</ele>
        <time>2015-04-06T21:03:08.885Z</time>
      </trkpt>
      <trkpt lat="48.83293" lon="2.33289">
        <ele>126.6</ele>
        <time>2015-04-06T21:03:10.818Z</time>
      </trkpt>
      <trkpt lat="48.83297" lon="2.33288">
        <ele>124.9</ele>
        <time>2015-04-06T21:03:11.839Z</time>
      </trkpt>
      <trkpt lat="48.83303" lon="2.33297">
        <ele>123</ele>
        <time>2015-04-06T21:03:13.792Z</time>
      </trkpt>
      <trkpt lat="48.83305" lon="2.33302">
        <ele>121.7</ele>
        <time>2015-04-06T21:03:14.816Z</time>
      </trkpt>
      <trkpt lat="48.83309" lon="2.33306">
        <ele>120.6</ele>
        <time>2015-04-06T21:03:15.828Z</time>
      </trkpt>
      <trkpt lat="48.83314" lon="2.33311">
        <ele>119.8</ele>
        <time>2015-04-06T21:03:16.837Z</time>
      </trkpt>
      <trkpt lat="48.8332" lon="2.33317">
        <ele>120.1</ele>
        <time>2015-04-06T21:03:18.850Z</time>
      </trkpt>
      <trkpt lat="48.83323" lon="2.3332">
        <ele>120.6</ele>
        <time>2015-04-06T21:03:19.941Z</time>
      </trkpt>
      <trkpt lat="48.8333" lon="2.33325">
        <ele>120.4</ele>
        <time>2015-04-06T21:03:22.836Z</time>
      </trkpt>
      <trkpt lat="48.83332" lon="2.33325">
        <ele>119.8</ele>
        <time>2015-04-06T21:03:23.854Z</time>
      </trkpt>
      <trkpt lat="48.83335" lon="2.33323">
        <ele>119.3</ele>
        <time>2015-04-06T21:07:06.872Z</time>
      </trkpt>
      <trkpt lat="48.83326" lon="2.33313">
        <ele>113.5</ele>
        <time>2015-04-06T21:07:07.789Z</time>
      </trkpt>
      <trkpt lat="48.83327" lon="2.33305">
        <ele>114.3</ele>
        <time>2015-04-06T21:07:18.864Z</time>
      </trkpt>
      <trkpt lat="48.83333" lon="2.33284">
        <ele>117</ele>
        <time>2015-04-06T21:07:19.795Z</time>
      </trkpt>
      <trkpt lat="48.83337" lon="2.33275">
        <ele>117.4</ele>
        <time>2015-04-06T21:07:22.807Z</time>
      </trkpt>
      <trkpt lat="48.83339" lon="2.33272">
        <ele>117.6</ele>
        <time>2015-04-06T21:07:23.832Z</time>
      </trkpt>
      <trkpt lat="48.83341" lon="2.33269">
        <ele>118.6</ele>
        <time>2015-04-06T21:07:35.880Z</time>
      </trkpt>
      <trkpt lat="48.83363" lon="2.33268">
        <ele>114.6</ele>
        <time>2015-04-06T21:07:36.893Z</time>
      </trkpt>
      <trkpt lat="48.83371" lon="2.33266">
        <ele>114.6</ele>
        <time>2015-04-06T21:07:39.808Z</time>
      </trkpt>
      <trkpt lat="48.83373" lon="2.33266">
        <ele>114.7</ele>
        <time>2015-04-06T21:07:40.819Z</time>
      </trkpt>
      <trkpt lat="48.83381" lon="2.33266">
        <ele>114.9</ele>
        <time>2015-04-06T21:07:43.871Z</time>
      </trkpt>
      <trkpt lat="48.83384" lon="2.33266">
        <ele>115.1</ele>
        <time>2015-04-06T21:07:44.822Z</time>
      </trkpt>
      <trkpt lat="48.83392" lon="2.33265">
        <ele>115.3</ele>
        <time>2015-04-06T21:07:48.874Z</time>
      </trkpt>
      <trkpt lat="48.83393" lon="2.33264">
        <ele>115</ele>
        <time>2015-04-06T21:07:49.809Z</time>
      </trkpt>
      <trkpt lat="48.83395" lon="2.33261">
        <ele>115</ele>
        <time>2015-04-06T21:07:53.813Z</time>
      </trkpt>
      <trkpt lat="48.83403" lon="2.33256">
        <ele>114.8</ele>
        <time>2015-04-06T21:07:54.861Z</time>
      </trkpt>
      <trkpt lat="48.83407" lon="2.33246">
        <ele>114.7</ele>
        <time>2015-04-06T21:09:13.826Z</time>
      </trkpt>
      <trkpt lat="48.83413" lon="2.33204">
        <ele>115</ele>
        <time>2015-04-06T21:09:14.865Z</time>
      </trkpt>
      <trkpt lat="48.83411" lon="2.33201">
        <ele>115.3</ele>
        <time>2015-04-06T21:09:16.813Z</time>
      </trkpt>
      <trkpt lat="48.83411" lon="2.33201">
        <ele>115.4</ele>
        <time>2015-04-06T21:09:17.825Z</time>
      </trkpt>
      <trkpt lat="48.83411" lon="2.33201">
        <ele>115.6</ele>
        <time>2015-04-06T21:09:45.839Z</time>
      </trkpt>
      <trkpt lat="48.83414" lon="2.33202">
        <ele>121.5</ele>
        <time>2015-04-06T21:09:46.856Z</time>
      </trkpt>
      <trkpt lat="48.83413" lon="2.332">
        <ele>122</ele>
        <time>2015-04-06T21:09:48.910Z</time>
      </trkpt>
      <trkpt lat="48.83412" lon="2.33201">
        <ele>122.3</ele>
        <time>2015-04-06T21:09:49.815Z</time>
      </trkpt>
      <trkpt lat="48.83412" lon="2.33201">
        <ele>122.7</ele>
        <time>2015-04-06T21:10:40.800Z</time>
      </trkpt>
      <trkpt lat="48.83404" lon="2.33197">
        <ele>125.2</ele>
        <time>2015-04-06T21:10:45.791Z</time>
      </trkpt>
      <trkpt lat="48.83402" lon="2.33197">
        <ele>125.3</ele>
        <time>2015-04-06T21:15:17.747Z</time>
      </trkpt>
      <trkpt lat="48.83419" lon="2.33212">
        <ele>135</ele>
        <time>2015-04-06T21:15:18.848Z</time>
      </trkpt>
      <trkpt lat="48.83422" lon="2.3321">
        <ele>132.9</ele>
        <time>2015-04-06T21:16:17.812Z</time>
      </trkpt>
      <trkpt lat="48.83403" lon="2.33199">
        <ele>125.7</ele>
        <time>2015-04-06T21:16:18.835Z</time>
      </trkpt>
      <trkpt lat="48.83394" lon="2.332">
        <ele>125.5</ele>
        <time>2015-04-06T21:16:21.791Z</time>
      </trkpt>
      <trkpt lat="48.83393" lon="2.33199">
        <ele>125</ele>
        <time>2015-04-06T21:16:22.804Z</time>
      </trkpt>
      <trkpt lat="48.83386" lon="2.33196">
        <ele>124.9</ele>
        <time>2015-04-06T21:16:25.857Z</time>
      </trkpt>
      <trkpt lat="48.83383" lon="2.33195">
        <ele>125</ele>
        <time>2015-04-06T21:16:26.794Z</time>
      </trkpt>
      <trkpt lat="48.83378" lon="2.33204">
        <ele>117.2</ele>
        <time>2015-04-06T21:16:39.812Z</time>
      </trkpt>
      <trkpt lat="48.83377" lon="2.33205">
        <ele>116.3</ele>
        <time>2015-04-06T21:16:40.841Z</time>
      </trkpt>
      <trkpt lat="48.83372" lon="2.33215">
        <ele>115.2</ele>
        <time>2015-04-06T21:16:44.844Z</time>
      </trkpt>
      <trkpt lat="48.8337" lon="2.33217">
        <ele>115.1</ele>
        <time>2015-04-06T21:16:45.868Z</time>
      </trkpt>
      <trkpt lat="48.83364" lon="2.33227">
        <ele>116</ele>
        <time>2015-04-06T21:16:49.791Z</time>
      </trkpt>
      <trkpt lat="48.83362" lon="2.33229">
        <ele>116</ele>
        <time>2015-04-06T21:16:50.810Z</time>
      </trkpt>
      <trkpt lat="48.83359" lon="2.3324">
        <ele>116.1</ele>
        <time>2015-04-06T21:16:53.787Z</time>
      </trkpt>
      <trkpt lat="48.83358" lon="2.33245">
        <ele>115.5</ele>
        <time>2015-04-06T21:16:54.835Z</time>
      </trkpt>
      <trkpt lat="48.83353" lon="2.33255">
        <ele>115.1</ele>
        <time>2015-04-06T21:16:57.785Z</time>
      </trkpt>
      <trkpt lat="48.83353" lon="2.33258">
        <ele>114.5</ele>
        <time>2015-04-06T21:16:58.797Z</time>
      </trkpt>
      <trkpt lat="48.83345" lon="2.33262">
        <ele>113.9</ele>
        <time>2015-04-06T21:17:07.830Z</time>
      </trkpt>
      <trkpt lat="48.83343" lon="2.33261">
        <ele>113.9</ele>
        <time>2015-04-06T21:17:08.850Z</time>
      </trkpt>
      <trkpt lat="48.83336" lon="2.33259">
        <ele>114.4</ele>
        <time>2015-04-06T21:17:12.834Z</time>
      </trkpt>
      <trkpt lat="48.83334" lon="2.33259">
        <ele>114.7</ele>
        <time>2015-04-06T21:17:13.858Z</time>
      </trkpt>
      <trkpt lat="48.83327" lon="2.33263">
        <ele>115.3</ele>
        <time>2015-04-06T21:19:01.185Z</time>
      </trkpt>
    </trkseg>
  </trk>
  <trk>
    <name><![CDATA[27/04/2015 20:18]]></name>
    <extensions>
      <line xmlns="http://www.topografix.com/GPX/gpx_style/0/2">
        <color>000000</color>
      </line>
    </extensions>
    <trkseg>
      <trkpt lat="48.85743" lon="2.34727">
        <ele>92.6</ele>
        <time>2015-04-27T18:18:35.341Z</time>
      </trkpt>
      <trkpt lat="48.85741" lon="2.34733">
        <ele>92.8</ele>
        <time>2015-04-27T18:19:31.936Z</time>
      </trkpt>
      <trkpt lat="48.8574" lon="2.34733">
        <ele>92.8</ele>
        <time>2015-04-27T18:19:32.880Z</time>
      </trkpt>
      <trkpt lat="48.8574" lon="2.34733">
        <ele>92.8</ele>
        <time>2015-04-27T18:19:33.904Z</time>
      </trkpt>
      <trkpt lat="48.8574" lon="2.34733">
        <ele>92.8</ele>
        <time>2015-04-27T18:19:34.944Z</time>
      </trkpt>
      <trkpt lat="48.8574" lon="2.34734">
        <ele>92.8</ele>
        <time>2015-04-27T18:19:35.956Z</time>
      </trkpt>
      <trkpt lat="48.8574" lon="2.34734">
        <ele>92.8</ele>
        <time>2015-04-27T18:19:36.911Z</time>
      </trkpt>
      <trkpt lat="48.85739" lon="2.34734">
        <ele>92.8</ele>
        <time>2015-04-27T18:19:37.878Z</time>
      </trkpt>
      <trkpt lat="48.85741" lon="2.3473">
        <ele>92.6</ele>
        <time>2015-04-27T18:19:45.936Z</time>
      </trkpt>
      <trkpt lat="48.85741" lon="2.3473">
        <ele>92.5</ele>
        <time>2015-04-27T18:19:46.949Z</time>
      </trkpt>
      <trkpt lat="48.85741" lon="2.3473">
        <ele>92.6</ele>
        <time>2015-04-27T18:19:47.853Z</time>
      </trkpt>
      <trkpt lat="48.85741" lon="2.3473">
        <ele>92.5</ele>
        <time>2015-04-27T18:19:48.910Z</time>
      </trkpt>
      <trkpt lat="48.85741" lon="2.3473">
        <ele>92.5</ele>
        <time>2015-04-27T18:19:49.933Z</time>
      </trkpt>
      <trkpt lat="48.85742" lon="2.34729">
        <ele>92.5</ele>
        <time>2015-04-27T18:19:50.940Z</time>
      </trkpt>
      <trkpt lat="48.85743" lon="2.34729">
        <ele>92.5</ele>
        <time>2015-04-27T18:19:51.958Z</time>
      </trkpt>
      <trkpt lat="48.85744" lon="2.34729">
        <ele>92.5</ele>
        <time>2015-04-27T18:19:54.988Z</time>
      </trkpt>
      <trkpt lat="48.85744" lon="2.34729">
        <ele>92.5</ele>
        <time>2015-04-27T18:19:55.887Z</time>
      </trkpt>
      <trkpt lat="48.85744" lon="2.34728">
        <ele>92.5</ele>
        <time>2015-04-27T18:19:58.943Z</time>
      </trkpt>
      <trkpt lat="48.85743" lon="2.34727">
        <ele>92.5</ele>
        <time>2015-04-27T18:19:59.963Z</time>
      </trkpt>
      <trkpt lat="48.85741" lon="2.34724">
        <ele>92.8</ele>
        <time>2015-04-27T18:20:22.929Z</time>
      </trkpt>
      <trkpt lat="48.85741" lon="2.34724">
        <ele>92.8</ele>
        <time>2015-04-27T18:20:23.975Z</time>
      </trkpt>
      <trkpt lat="48.85741" lon="2.34723">
        <ele>92.9</ele>
        <time>2015-04-27T18:20:35.875Z</time>
      </trkpt>
      <trkpt lat="48.85742" lon="2.34723">
        <ele>93.1</ele>
        <time>2015-04-27T18:20:36.991Z</time>
      </trkpt>
      <trkpt lat="48.85742" lon="2.34723">
        <ele>93.1</ele>
        <time>2015-04-27T18:20:37.919Z</time>
      </trkpt>
      <trkpt lat="48.85743" lon="2.34723">
        <ele>93.2</ele>
        <time>2015-04-27T18:21:26.993Z</time>
      </trkpt>
      <trkpt lat="48.85741" lon="2.34722">
        <ele>93.2</ele>
        <time>2015-04-27T18:21:27.954Z</time>
      </trkpt>
      <trkpt lat="48.85737" lon="2.34712">
        <ele>93.4</ele>
        <time>2015-04-27T18:21:34.958Z</time>
      </trkpt>
      <trkpt lat="48.85737" lon="2.34709">
        <ele>93.2</ele>
        <time>2015-04-27T18:21:35.957Z</time>
      </trkpt>
      <trkpt lat="48.85736" lon="2.34697">
        <ele>91.3</ele>
        <time>2015-04-27T18:21:51.942Z</time>
      </trkpt>
      <trkpt lat="48.85736" lon="2.34697">
        <ele>91.2</ele>
        <time>2015-04-27T18:21:52.886Z</time>
      </trkpt>
      <trkpt lat="48.85736" lon="2.34697">
        <ele>91.3</ele>
        <time>2015-04-27T18:21:53.920Z</time>
      </trkpt>
      <trkpt lat="48.85736" lon="2.34697">
        <ele>91.2</ele>
        <time>2015-04-27T18:21:54.929Z</time>
      </trkpt>
      <trkpt lat="48.85736" lon="2.34698">
        <ele>91.1</ele>
        <time>2015-04-27T18:22:13.854Z</time>
      </trkpt>
      <trkpt lat="48.85737" lon="2.34698">
        <ele>90.7</ele>
        <time>2015-04-27T18:22:14.876Z</time>
      </trkpt>
      <trkpt lat="48.8573" lon="2.34694">
        <ele>90.7</ele>
        <time>2015-04-27T18:22:18.989Z</time>
      </trkpt>
      <trkpt lat="48.85728" lon="2.34693">
        <ele>90.7</ele>
        <time>2015-04-27T18:22:19.890Z</time>
      </trkpt>
      <trkpt lat="48.8572" lon="2.34689">
        <ele>90.1</ele>
        <time>2015-04-27T18:22:22.915Z</time>
      </trkpt>
      <trkpt lat="48.85716" lon="2.34688">
        <ele>89.9</ele>
        <time>2015-04-27T18:22:23.927Z</time>
      </trkpt>
      <trkpt lat="48.85708" lon="2.34682">
        <ele>89.7</ele>
        <time>2015-04-27T18:22:26.983Z</time>
      </trkpt>
      <trkpt lat="48.85705" lon="2.34681">
        <ele>89.5</ele>
        <time>2015-04-27T18:22:28.005Z</time>
      </trkpt>
      <trkpt lat="48.85697" lon="2.34676">
        <ele>89.5</ele>
        <time>2015-04-27T18:22:30.942Z</time>
      </trkpt>
      <trkpt lat="48.85695" lon="2.34674">
        <ele>89.5</ele>
        <time>2015-04-27T18:22:31.920Z</time>
      </trkpt>
      <trkpt lat="48.8569" lon="2.34669">
        <ele>89.3</ele>
        <time>2015-04-27T18:22:33.941Z</time>
      </trkpt>
      <trkpt lat="48.85687" lon="2.34667">
        <ele>89.1</ele>
        <time>2015-04-27T18:22:34.899Z</time>
      </trkpt>
      <trkpt lat="48.85681" lon="2.34664">
        <ele>88.9</ele>
        <time>2015-04-27T18:22:36.920Z</time>
      </trkpt>
      <trkpt lat="48.85678" lon="2.34662">
        <ele>88.9</ele>
        <time>2015-04-27T18:22:37.934Z</time>
      </trkpt>
      <trkpt lat="48.85671" lon="2.34657">
        <ele>89</ele>
        <time>2015-04-27T18:22:39.955Z</time>
      </trkpt>
      <trkpt lat="48.85667" lon="2.34656">
        <ele>89.1</ele>
        <time>2015-04-27T18:22:40.879Z</time>
      </trkpt>
      <trkpt lat="48.8566" lon="2.34651">
        <ele>89.3</ele>
        <time>2015-04-27T18:22:43.036Z</time>
      </trkpt>
      <trkpt lat="48.85656" lon="2.34648">
        <ele>89.3</ele>
        <time>2015-04-27T18:22:43.942Z</time>
      </trkpt>
      <trkpt lat="48.85648" lon="2.34645">
        <ele>89.2</ele>
        <time>2015-04-27T18:22:45.988Z</time>
      </trkpt>
      <trkpt lat="48.85644" lon="2.34643">
        <ele>89.1</ele>
        <time>2015-04-27T18:22:46.963Z</time>
      </trkpt>
      <trkpt lat="48.85637" lon="2.34639">
        <ele>89.1</ele>
        <time>2015-04-27T18:22:48.966Z</time>
      </trkpt>
      <trkpt lat="48.85633" lon="2.34637">
        <ele>88.8</ele>
        <time>2015-04-27T18:22:49.971Z</time>
      </trkpt>
      <trkpt lat="48.85625" lon="2.34634">
        <ele>88.8</ele>
        <time>2015-04-27T18:22:51.981Z</time>
      </trkpt>
      <trkpt lat="48.85621" lon="2.34631">
        <ele>88.8</ele>
        <time>2015-04-27T18:22:52.934Z</time>
      </trkpt>
      <trkpt lat="48.85617" lon="2.34629">
        <ele>88.8</ele>
        <time>2015-04-27T18:22:53.957Z</time>
      </trkpt>
      <trkpt lat="48.85613" lon="2.34625">
        <ele>88.9</ele>
        <time>2015-04-27T18:22:54.971Z</time>
      </trkpt>
      <trkpt lat="48.85609" lon="2.34622">
        <ele>89</ele>
        <time>2015-04-27T18:22:55.993Z</time>
      </trkpt>
      <trkpt lat="48.85605" lon="2.34619">
        <ele>89</ele>
        <time>2015-04-27T18:22:56.951Z</time>
      </trkpt>
      <trkpt lat="48.85601" lon="2.34616">
        <ele>89.1</ele>
        <time>2015-04-27T18:22:57.974Z</time>
      </trkpt>
      <trkpt lat="48.85596" lon="2.34614">
        <ele>89.1</ele>
        <time>2015-04-27T18:22:58.974Z</time>
      </trkpt>
      <trkpt lat="48.85592" lon="2.34612">
        <ele>89.2</ele>
        <time>2015-04-27T18:22:59.908Z</time>
      </trkpt>
      <trkpt lat="48.85588" lon="2.34609">
        <ele>89.3</ele>
        <time>2015-04-27T18:23:00.913Z</time>
      </trkpt>
      <trkpt lat="48.85583" lon="2.34605">
        <ele>89.3</ele>
        <time>2015-04-27T18:23:01.942Z</time>
      </trkpt>
      <trkpt lat="48.85579" lon="2.34602">
        <ele>89.3</ele>
        <time>2015-04-27T18:23:03.017Z</time>
      </trkpt>
      <trkpt lat="48.85571" lon="2.34597">
        <ele>89.3</ele>
        <time>2015-04-27T18:23:04.893Z</time>
      </trkpt>
      <trkpt lat="48.85567" lon="2.34594">
        <ele>89.3</ele>
        <time>2015-04-27T18:23:05.992Z</time>
      </trkpt>
      <trkpt lat="48.8556" lon="2.34591">
        <ele>89.2</ele>
        <time>2015-04-27T18:23:08.057Z</time>
      </trkpt>
      <trkpt lat="48.85557" lon="2.3459">
        <ele>89.2</ele>
        <time>2015-04-27T18:23:09.091Z</time>
      </trkpt>
      <trkpt lat="48.8555" lon="2.34586">
        <ele>89.1</ele>
        <time>2015-04-27T18:23:11.924Z</time>
      </trkpt>
      <trkpt lat="48.85547" lon="2.34586">
        <ele>89.1</ele>
        <time>2015-04-27T18:23:12.940Z</time>
      </trkpt>
      <trkpt lat="48.85539" lon="2.34582">
        <ele>89.2</ele>
        <time>2015-04-27T18:23:17.910Z</time>
      </trkpt>
      <trkpt lat="48.85538" lon="2.34581">
        <ele>89.2</ele>
        <time>2015-04-27T18:23:18.853Z</time>
      </trkpt>
      <trkpt lat="48.85536" lon="2.34581">
        <ele>88.9</ele>
        <time>2015-04-27T18:23:22.079Z</time>
      </trkpt>
      <trkpt lat="48.85536" lon="2.3458">
        <ele>89</ele>
        <time>2015-04-27T18:23:22.933Z</time>
      </trkpt>
      <trkpt lat="48.85537" lon="2.34581">
        <ele>89</ele>
        <time>2015-04-27T18:23:23.966Z</time>
      </trkpt>
      <trkpt lat="48.85537" lon="2.34581">
        <ele>89.2</ele>
        <time>2015-04-27T18:23:24.853Z</time>
      </trkpt>
      <trkpt lat="48.85537" lon="2.34581">
        <ele>89.2</ele>
        <time>2015-04-27T18:23:25.873Z</time>
      </trkpt>
      <trkpt lat="48.85537" lon="2.34581">
        <ele>89.2</ele>
        <time>2015-04-27T18:23:26.894Z</time>
      </trkpt>
      <trkpt lat="48.85537" lon="2.34581">
        <ele>89.2</ele>
        <time>2015-04-27T18:23:34.922Z</time>
      </trkpt>
      <trkpt lat="48.85536" lon="2.34582">
        <ele>88.7</ele>
        <time>2015-04-27T18:23:35.944Z</time>
      </trkpt>
      <trkpt lat="48.85532" lon="2.34592">
        <ele>89.1</ele>
        <time>2015-04-27T18:23:40.905Z</time>
      </trkpt>
      <trkpt lat="48.85532" lon="2.34596">
        <ele>89.3</ele>
        <time>2015-04-27T18:23:41.943Z</time>
      </trkpt>
      <trkpt lat="48.85531" lon="2.34606">
        <ele>89.2</ele>
        <time>2015-04-27T18:23:45.091Z</time>
      </trkpt>
      <trkpt lat="48.8553" lon="2.3461">
        <ele>89.1</ele>
        <time>2015-04-27T18:23:45.906Z</time>
      </trkpt>
      <trkpt lat="48.85529" lon="2.34619">
        <ele>88.9</ele>
        <time>2015-04-27T18:23:47.922Z</time>
      </trkpt>
      <trkpt lat="48.85529" lon="2.34624">
        <ele>88.8</ele>
        <time>2015-04-27T18:23:48.932Z</time>
      </trkpt>
      <trkpt lat="48.85526" lon="2.34636">
        <ele>88.5</ele>
        <time>2015-04-27T18:23:52.239Z</time>
      </trkpt>
      <trkpt lat="48.85524" lon="2.3464">
        <ele>88.4</ele>
        <time>2015-04-27T18:23:52.916Z</time>
      </trkpt>
      <trkpt lat="48.85521" lon="2.34649">
        <ele>88</ele>
        <time>2015-04-27T18:23:54.943Z</time>
      </trkpt>
      <trkpt lat="48.8552" lon="2.34654">
        <ele>87.8</ele>
        <time>2015-04-27T18:23:55.950Z</time>
      </trkpt>
      <trkpt lat="48.85517" lon="2.34664">
        <ele>87.3</ele>
        <time>2015-04-27T18:23:57.915Z</time>
      </trkpt>
      <trkpt lat="48.85515" lon="2.34669">
        <ele>87.2</ele>
        <time>2015-04-27T18:23:58.929Z</time>
      </trkpt>
      <trkpt lat="48.8551" lon="2.34679">
        <ele>86.9</ele>
        <time>2015-04-27T18:24:00.990Z</time>
      </trkpt>
      <trkpt lat="48.85508" lon="2.34684">
        <ele>86.7</ele>
        <time>2015-04-27T18:24:01.910Z</time>
      </trkpt>
      <trkpt lat="48.85504" lon="2.34693">
        <ele>86.8</ele>
        <time>2015-04-27T18:24:03.943Z</time>
      </trkpt>
      <trkpt lat="48.85501" lon="2.34696">
        <ele>86.6</ele>
        <time>2015-04-27T18:24:04.947Z</time>
      </trkpt>
      <trkpt lat="48.85495" lon="2.34704">
        <ele>86.5</ele>
        <time>2015-04-27T18:24:07.980Z</time>
      </trkpt>
      <trkpt lat="48.85494" lon="2.34706">
        <ele>86.5</ele>
        <time>2015-04-27T18:24:08.987Z</time>
      </trkpt>
      <trkpt lat="48.85489" lon="2.34714">
        <ele>86.4</ele>
        <time>2015-04-27T18:24:11.920Z</time>
      </trkpt>
      <trkpt lat="48.85487" lon="2.34718">
        <ele>86.4</ele>
        <time>2015-04-27T18:24:12.919Z</time>
      </trkpt>
      <trkpt lat="48.85483" lon="2.34729">
        <ele>86.2</ele>
        <time>2015-04-27T18:24:15.914Z</time>
      </trkpt>
      <trkpt lat="48.85482" lon="2.34733">
        <ele>86.2</ele>
        <time>2015-04-27T18:24:16.934Z</time>
      </trkpt>
      <trkpt lat="48.85479" lon="2.34743">
        <ele>86.1</ele>
        <time>2015-04-27T18:24:19.900Z</time>
      </trkpt>
      <trkpt lat="48.85477" lon="2.34747">
        <ele>85.9</ele>
        <time>2015-04-27T18:24:20.973Z</time>
      </trkpt>
      <trkpt lat="48.8547" lon="2.34752">
        <ele>85.8</ele>
        <time>2015-04-27T18:24:23.921Z</time>
      </trkpt>
      <trkpt lat="48.85467" lon="2.34752">
        <ele>85.7</ele>
        <time>2015-04-27T18:24:25.062Z</time>
      </trkpt>
      <trkpt lat="48.8546" lon="2.34752">
        <ele>86</ele>
        <time>2015-04-27T18:24:27.773Z</time>
      </trkpt>
      <trkpt lat="48.85457" lon="2.34751">
        <ele>86.1</ele>
        <time>2015-04-27T18:24:27.925Z</time>
      </trkpt>
      <trkpt lat="48.85451" lon="2.34749">
        <ele>86.5</ele>
        <time>2015-04-27T18:24:29.925Z</time>
      </trkpt>
      <trkpt lat="48.85448" lon="2.34748">
        <ele>86.5</ele>
        <time>2015-04-27T18:24:30.875Z</time>
      </trkpt>
      <trkpt lat="48.85441" lon="2.34746">
        <ele>86.5</ele>
        <time>2015-04-27T18:24:32.905Z</time>
      </trkpt>
      <trkpt lat="48.85437" lon="2.34745">
        <ele>86.4</ele>
        <time>2015-04-27T18:24:33.947Z</time>
      </trkpt>
      <trkpt lat="48.8543" lon="2.34742">
        <ele>86.5</ele>
        <time>2015-04-27T18:24:35.893Z</time>
      </trkpt>
      <trkpt lat="48.85426" lon="2.3474">
        <ele>86.8</ele>
        <time>2015-04-27T18:24:36.969Z</time>
      </trkpt>
      <trkpt lat="48.85418" lon="2.34736">
        <ele>87.2</ele>
        <time>2015-04-27T18:24:38.470Z</time>
      </trkpt>
      <trkpt lat="48.85414" lon="2.34734">
        <ele>87.3</ele>
        <time>2015-04-27T18:24:39.897Z</time>
      </trkpt>
      <trkpt lat="48.85406" lon="2.3473">
        <ele>87.4</ele>
        <time>2015-04-27T18:24:41.938Z</time>
      </trkpt>
      <trkpt lat="48.85402" lon="2.34729">
        <ele>87.3</ele>
        <time>2015-04-27T18:24:42.947Z</time>
      </trkpt>
      <trkpt lat="48.85394" lon="2.34725">
        <ele>87.4</ele>
        <time>2015-04-27T18:24:45.563Z</time>
      </trkpt>
      <trkpt lat="48.8539" lon="2.34723">
        <ele>87.5</ele>
        <time>2015-04-27T18:24:45.904Z</time>
      </trkpt>
      <trkpt lat="48.85381" lon="2.3472">
        <ele>87.8</ele>
        <time>2015-04-27T18:24:47.886Z</time>
      </trkpt>
      <trkpt lat="48.85377" lon="2.34718">
        <ele>87.8</ele>
        <time>2015-04-27T18:24:48.894Z</time>
      </trkpt>
      <trkpt lat="48.85372" lon="2.34717">
        <ele>87.8</ele>
        <time>2015-04-27T18:24:50.730Z</time>
      </trkpt>
      <trkpt lat="48.85367" lon="2.34714">
        <ele>87.8</ele>
        <time>2015-04-27T18:24:50.847Z</time>
      </trkpt>
      <trkpt lat="48.85362" lon="2.34711">
        <ele>87.7</ele>
        <time>2015-04-27T18:24:51.902Z</time>
      </trkpt>
      <trkpt lat="48.85357" lon="2.34709">
        <ele>87.6</ele>
        <time>2015-04-27T18:24:52.903Z</time>
      </trkpt>
      <trkpt lat="48.85353" lon="2.34706">
        <ele>87.7</ele>
        <time>2015-04-27T18:24:53.939Z</time>
      </trkpt>
      <trkpt lat="48.85348" lon="2.34703">
        <ele>87.8</ele>
        <time>2015-04-27T18:24:54.886Z</time>
      </trkpt>
      <trkpt lat="48.85344" lon="2.347">
        <ele>87.8</ele>
        <time>2015-04-27T18:24:55.907Z</time>
      </trkpt>
      <trkpt lat="48.85339" lon="2.34698">
        <ele>87.8</ele>
        <time>2015-04-27T18:24:56.925Z</time>
      </trkpt>
      <trkpt lat="48.85331" lon="2.34695">
        <ele>87.7</ele>
        <time>2015-04-27T18:24:58.878Z</time>
      </trkpt>
      <trkpt lat="48.85328" lon="2.34694">
        <ele>87.6</ele>
        <time>2015-04-27T18:24:59.932Z</time>
      </trkpt>
      <trkpt lat="48.8532" lon="2.34691">
        <ele>87.5</ele>
        <time>2015-04-27T18:25:03.939Z</time>
      </trkpt>
      <trkpt lat="48.85318" lon="2.34691">
        <ele>87.5</ele>
        <time>2015-04-27T18:25:04.950Z</time>
      </trkpt>
      <trkpt lat="48.85311" lon="2.34685">
        <ele>87.7</ele>
        <time>2015-04-27T18:25:26.941Z</time>
      </trkpt>
      <trkpt lat="48.8531" lon="2.34684">
        <ele>87.7</ele>
        <time>2015-04-27T18:25:27.951Z</time>
      </trkpt>
      <trkpt lat="48.85304" lon="2.34679">
        <ele>87.7</ele>
        <time>2015-04-27T18:25:30.941Z</time>
      </trkpt>
      <trkpt lat="48.85301" lon="2.34678">
        <ele>87.6</ele>
        <time>2015-04-27T18:25:31.944Z</time>
      </trkpt>
      <trkpt lat="48.85295" lon="2.34673">
        <ele>87.5</ele>
        <time>2015-04-27T18:25:33.984Z</time>
      </trkpt>
      <trkpt lat="48.85292" lon="2.34671">
        <ele>87.4</ele>
        <time>2015-04-27T18:25:34.997Z</time>
      </trkpt>
      <trkpt lat="48.85285" lon="2.34664">
        <ele>87.2</ele>
        <time>2015-04-27T18:25:36.926Z</time>
      </trkpt>
      <trkpt lat="48.8528" lon="2.34661">
        <ele>87</ele>
        <time>2015-04-27T18:25:37.940Z</time>
      </trkpt>
      <trkpt lat="48.85273" lon="2.34656">
        <ele>87</ele>
        <time>2015-04-27T18:25:39.946Z</time>
      </trkpt>
      <trkpt lat="48.85269" lon="2.34654">
        <ele>87.1</ele>
        <time>2015-04-27T18:25:40.954Z</time>
      </trkpt>
      <trkpt lat="48.85264" lon="2.34651">
        <ele>87.2</ele>
        <time>2015-04-27T18:25:42.969Z</time>
      </trkpt>
      <trkpt lat="48.85258" lon="2.34648">
        <ele>87.5</ele>
        <time>2015-04-27T18:25:43.985Z</time>
      </trkpt>
      <trkpt lat="48.85253" lon="2.34645">
        <ele>87.6</ele>
        <time>2015-04-27T18:25:44.922Z</time>
      </trkpt>
      <trkpt lat="48.85248" lon="2.34642">
        <ele>87.7</ele>
        <time>2015-04-27T18:25:45.940Z</time>
      </trkpt>
      <trkpt lat="48.85242" lon="2.34639">
        <ele>87.7</ele>
        <time>2015-04-27T18:25:46.966Z</time>
      </trkpt>
      <trkpt lat="48.85238" lon="2.34636">
        <ele>87.7</ele>
        <time>2015-04-27T18:25:47.862Z</time>
      </trkpt>
      <trkpt lat="48.8523" lon="2.34629">
        <ele>87.9</ele>
        <time>2015-04-27T18:25:49.930Z</time>
      </trkpt>
      <trkpt lat="48.85129" lon="2.34577">
        <ele>88.3</ele>
        <time>2015-04-27T18:26:08.977Z</time>
      </trkpt>
      <trkpt lat="48.85124" lon="2.34575">
        <ele>88.4</ele>
        <time>2015-04-27T18:26:10.002Z</time>
      </trkpt>
      <trkpt lat="48.85119" lon="2.34574">
        <ele>88.5</ele>
        <time>2015-04-27T18:26:10.878Z</time>
      </trkpt>
      <trkpt lat="48.85114" lon="2.34573">
        <ele>88.6</ele>
        <time>2015-04-27T18:26:11.876Z</time>
      </trkpt>
      <trkpt lat="48.8511" lon="2.34572">
        <ele>88.6</ele>
        <time>2015-04-27T18:26:12.893Z</time>
      </trkpt>
      <trkpt lat="48.85102" lon="2.34572">
        <ele>88.5</ele>
        <time>2015-04-27T18:26:14.915Z</time>
      </trkpt>
      <trkpt lat="48.85098" lon="2.34573">
        <ele>88.5</ele>
        <time>2015-04-27T18:26:15.923Z</time>
      </trkpt>
      <trkpt lat="48.8509" lon="2.34578">
        <ele>88.3</ele>
        <time>2015-04-27T18:26:17.908Z</time>
      </trkpt>
      <trkpt lat="48.85087" lon="2.34581">
        <ele>88.2</ele>
        <time>2015-04-27T18:26:18.946Z</time>
      </trkpt>
      <trkpt lat="48.85082" lon="2.34588">
        <ele>87.9</ele>
        <time>2015-04-27T18:26:20.906Z</time>
      </trkpt>
      <trkpt lat="48.85081" lon="2.34593">
        <ele>87.8</ele>
        <time>2015-04-27T18:26:21.971Z</time>
      </trkpt>
      <trkpt lat="48.85079" lon="2.34599">
        <ele>87.6</ele>
        <time>2015-04-27T18:26:22.873Z</time>
      </trkpt>
      <trkpt lat="48.85078" lon="2.34606">
        <ele>87.3</ele>
        <time>2015-04-27T18:26:23.873Z</time>
      </trkpt>
      <trkpt lat="48.85076" lon="2.34613">
        <ele>87.2</ele>
        <time>2015-04-27T18:26:24.881Z</time>
      </trkpt>
      <trkpt lat="48.85075" lon="2.3462">
        <ele>87.1</ele>
        <time>2015-04-27T18:26:25.890Z</time>
      </trkpt>
      <trkpt lat="48.85073" lon="2.34627">
        <ele>86.8</ele>
        <time>2015-04-27T18:26:27.167Z</time>
      </trkpt>
      <trkpt lat="48.85071" lon="2.34635">
        <ele>86.6</ele>
        <time>2015-04-27T18:26:27.952Z</time>
      </trkpt>
      <trkpt lat="48.85068" lon="2.34643">
        <ele>86.4</ele>
        <time>2015-04-27T18:26:28.863Z</time>
      </trkpt>
      <trkpt lat="48.85066" lon="2.34651">
        <ele>86.3</ele>
        <time>2015-04-27T18:26:30.075Z</time>
      </trkpt>
      <trkpt lat="48.85063" lon="2.34659">
        <ele>86.1</ele>
        <time>2015-04-27T18:26:30.931Z</time>
      </trkpt>
      <trkpt lat="48.85061" lon="2.34666">
        <ele>86.1</ele>
        <time>2015-04-27T18:26:31.935Z</time>
      </trkpt>
      <trkpt lat="48.85058" lon="2.34674">
        <ele>85.9</ele>
        <time>2015-04-27T18:26:32.941Z</time>
      </trkpt>
      <trkpt lat="48.85056" lon="2.34682">
        <ele>85.8</ele>
        <time>2015-04-27T18:26:33.949Z</time>
      </trkpt>
      <trkpt lat="48.85054" lon="2.3469">
        <ele>85.6</ele>
        <time>2015-04-27T18:26:34.962Z</time>
      </trkpt>
      <trkpt lat="48.85052" lon="2.34698">
        <ele>85.4</ele>
        <time>2015-04-27T18:26:35.870Z</time>
      </trkpt>
      <trkpt lat="48.8505" lon="2.34708">
        <ele>85.5</ele>
        <time>2015-04-27T18:26:36.952Z</time>
      </trkpt>
      <trkpt lat="48.85048" lon="2.34718">
        <ele>85.5</ele>
        <time>2015-04-27T18:26:37.860Z</time>
      </trkpt>
      <trkpt lat="48.85045" lon="2.34727">
        <ele>85.6</ele>
        <time>2015-04-27T18:26:38.958Z</time>
      </trkpt>
      <trkpt lat="48.85043" lon="2.34735">
        <ele>85.8</ele>
        <time>2015-04-27T18:26:39.912Z</time>
      </trkpt>
      <trkpt lat="48.8504" lon="2.34743">
        <ele>85.8</ele>
        <time>2015-04-27T18:26:40.963Z</time>
      </trkpt>
      <trkpt lat="48.85038" lon="2.3475">
        <ele>85.7</ele>
        <time>2015-04-27T18:26:41.851Z</time>
      </trkpt>
      <trkpt lat="48.85035" lon="2.34759">
        <ele>85.8</ele>
        <time>2015-04-27T18:26:42.890Z</time>
      </trkpt>
      <trkpt lat="48.85033" lon="2.34767">
        <ele>85.9</ele>
        <time>2015-04-27T18:26:43.911Z</time>
      </trkpt>
      <trkpt lat="48.85031" lon="2.34776">
        <ele>86</ele>
        <time>2015-04-27T18:26:44.917Z</time>
      </trkpt>
      <trkpt lat="48.85028" lon="2.34784">
        <ele>85.8</ele>
        <time>2015-04-27T18:26:45.927Z</time>
      </trkpt>
      <trkpt lat="48.85027" lon="2.34792">
        <ele>85.7</ele>
        <time>2015-04-27T18:26:46.936Z</time>
      </trkpt>
      <trkpt lat="48.85025" lon="2.34801">
        <ele>85.6</ele>
        <time>2015-04-27T18:26:47.945Z</time>
      </trkpt>
      <trkpt lat="48.85023" lon="2.3481">
        <ele>85.4</ele>
        <time>2015-04-27T18:26:48.955Z</time>
      </trkpt>
      <trkpt lat="48.85021" lon="2.34818">
        <ele>85.1</ele>
        <time>2015-04-27T18:26:49.966Z</time>
      </trkpt>
      <trkpt lat="48.85019" lon="2.34826">
        <ele>84.8</ele>
        <time>2015-04-27T18:26:50.880Z</time>
      </trkpt>
      <trkpt lat="48.85017" lon="2.34834">
        <ele>84.6</ele>
        <time>2015-04-27T18:26:51.915Z</time>
      </trkpt>
      <trkpt lat="48.85015" lon="2.34842">
        <ele>84.4</ele>
        <time>2015-04-27T18:26:52.912Z</time>
      </trkpt>
      <trkpt lat="48.85013" lon="2.3485">
        <ele>84.2</ele>
        <time>2015-04-27T18:26:53.922Z</time>
      </trkpt>
      <trkpt lat="48.8501" lon="2.34858">
        <ele>83.9</ele>
        <time>2015-04-27T18:26:54.929Z</time>
      </trkpt>
      <trkpt lat="48.85008" lon="2.34866">
        <ele>83.6</ele>
        <time>2015-04-27T18:26:55.886Z</time>
      </trkpt>
      <trkpt lat="48.85005" lon="2.34874">
        <ele>83.3</ele>
        <time>2015-04-27T18:26:56.878Z</time>
      </trkpt>
      <trkpt lat="48.85002" lon="2.34882">
        <ele>83.1</ele>
        <time>2015-04-27T18:26:57.928Z</time>
      </trkpt>
      <trkpt lat="48.85" lon="2.34889">
        <ele>82.9</ele>
        <time>2015-04-27T18:26:58.938Z</time>
      </trkpt>
      <trkpt lat="48.84997" lon="2.34896">
        <ele>82.8</ele>
        <time>2015-04-27T18:26:59.956Z</time>
      </trkpt>
      <trkpt lat="48.84993" lon="2.34901">
        <ele>82.9</ele>
        <time>2015-04-27T18:27:00.855Z</time>
      </trkpt>
      <trkpt lat="48.84988" lon="2.34905">
        <ele>83</ele>
        <time>2015-04-27T18:27:01.878Z</time>
      </trkpt>
      <trkpt lat="48.84984" lon="2.34909">
        <ele>83.1</ele>
        <time>2015-04-27T18:27:02.924Z</time>
      </trkpt>
      <trkpt lat="48.8498" lon="2.34912">
        <ele>83.3</ele>
        <time>2015-04-27T18:27:03.970Z</time>
      </trkpt>
      <trkpt lat="48.84972" lon="2.34914">
        <ele>83.7</ele>
        <time>2015-04-27T18:27:05.875Z</time>
      </trkpt>
      <trkpt lat="48.84967" lon="2.34913">
        <ele>83.9</ele>
        <time>2015-04-27T18:27:06.962Z</time>
      </trkpt>
      <trkpt lat="48.84958" lon="2.34914">
        <ele>84.3</ele>
        <time>2015-04-27T18:27:08.881Z</time>
      </trkpt>
      <trkpt lat="48.84955" lon="2.34915">
        <ele>84.4</ele>
        <time>2015-04-27T18:27:09.926Z</time>
      </trkpt>
      <trkpt lat="48.84949" lon="2.3492">
        <ele>84.8</ele>
        <time>2015-04-27T18:27:11.953Z</time>
      </trkpt>
      <trkpt lat="48.84946" lon="2.34924">
        <ele>85</ele>
        <time>2015-04-27T18:27:12.850Z</time>
      </trkpt>
      <trkpt lat="48.84942" lon="2.34929">
        <ele>85.1</ele>
        <time>2015-04-27T18:27:13.919Z</time>
      </trkpt>
      <trkpt lat="48.84938" lon="2.34935">
        <ele>85.4</ele>
        <time>2015-04-27T18:27:14.947Z</time>
      </trkpt>
      <trkpt lat="48.84935" lon="2.34941">
        <ele>85.3</ele>
        <time>2015-04-27T18:27:15.993Z</time>
      </trkpt>
      <trkpt lat="48.84931" lon="2.34947">
        <ele>85.5</ele>
        <time>2015-04-27T18:27:16.882Z</time>
      </trkpt>
      <trkpt lat="48.84928" lon="2.34952">
        <ele>85.7</ele>
        <time>2015-04-27T18:27:17.878Z</time>
      </trkpt>
      <trkpt lat="48.84923" lon="2.34955">
        <ele>85.7</ele>
        <time>2015-04-27T18:27:18.895Z</time>
      </trkpt>
      <trkpt lat="48.84918" lon="2.34959">
        <ele>85.3</ele>
        <time>2015-04-27T18:27:19.914Z</time>
      </trkpt>
      <trkpt lat="48.84912" lon="2.34963">
        <ele>85.1</ele>
        <time>2015-04-27T18:27:20.927Z</time>
      </trkpt>
      <trkpt lat="48.84905" lon="2.34967">
        <ele>84.9</ele>
        <time>2015-04-27T18:27:21.946Z</time>
      </trkpt>
      <trkpt lat="48.84898" lon="2.34971">
        <ele>84.8</ele>
        <time>2015-04-27T18:27:22.960Z</time>
      </trkpt>
      <trkpt lat="48.84886" lon="2.34982">
        <ele>84.4</ele>
        <time>2015-04-27T18:27:24.898Z</time>
      </trkpt>
      <trkpt lat="48.8488" lon="2.34986">
        <ele>84.3</ele>
        <time>2015-04-27T18:27:25.910Z</time>
      </trkpt>
      <trkpt lat="48.84874" lon="2.3499">
        <ele>84.3</ele>
        <time>2015-04-27T18:27:26.918Z</time>
      </trkpt>
      <trkpt lat="48.84867" lon="2.34994">
        <ele>84.4</ele>
        <time>2015-04-27T18:27:27.933Z</time>
      </trkpt>
      <trkpt lat="48.84862" lon="2.34998">
        <ele>84.5</ele>
        <time>2015-04-27T18:27:28.945Z</time>
      </trkpt>
      <trkpt lat="48.84856" lon="2.35002">
        <ele>84.6</ele>
        <time>2015-04-27T18:27:29.861Z</time>
      </trkpt>
      <trkpt lat="48.84851" lon="2.35006">
        <ele>84.7</ele>
        <time>2015-04-27T18:27:30.869Z</time>
      </trkpt>
      <trkpt lat="48.84846" lon="2.3501">
        <ele>84.9</ele>
        <time>2015-04-27T18:27:31.876Z</time>
      </trkpt>
      <trkpt lat="48.84841" lon="2.35015">
        <ele>85.1</ele>
        <time>2015-04-27T18:27:32.884Z</time>
      </trkpt>
      <trkpt lat="48.84837" lon="2.3502">
        <ele>85.2</ele>
        <time>2015-04-27T18:27:33.921Z</time>
      </trkpt>
      <trkpt lat="48.84832" lon="2.35025">
        <ele>85.4</ele>
        <time>2015-04-27T18:27:34.937Z</time>
      </trkpt>
      <trkpt lat="48.84828" lon="2.35031">
        <ele>85.2</ele>
        <time>2015-04-27T18:27:35.972Z</time>
      </trkpt>
      <trkpt lat="48.84824" lon="2.35036">
        <ele>85.3</ele>
        <time>2015-04-27T18:27:36.875Z</time>
      </trkpt>
      <trkpt lat="48.84819" lon="2.35041">
        <ele>85.5</ele>
        <time>2015-04-27T18:27:37.910Z</time>
      </trkpt>
      <trkpt lat="48.84815" lon="2.35045">
        <ele>85.6</ele>
        <time>2015-04-27T18:27:38.920Z</time>
      </trkpt>
      <trkpt lat="48.84808" lon="2.35051">
        <ele>85.5</ele>
        <time>2015-04-27T18:27:40.929Z</time>
      </trkpt>
      <trkpt lat="48.84805" lon="2.35053">
        <ele>85.6</ele>
        <time>2015-04-27T18:27:41.953Z</time>
      </trkpt>
      <trkpt lat="48.84802" lon="2.35055">
        <ele>85.6</ele>
        <time>2015-04-27T18:27:44.919Z</time>
      </trkpt>
      <trkpt lat="48.84802" lon="2.35055">
        <ele>85.2</ele>
        <time>2015-04-27T18:27:45.956Z</time>
      </trkpt>
      <trkpt lat="48.84803" lon="2.35054">
        <ele>84.8</ele>
        <time>2015-04-27T18:27:50.898Z</time>
      </trkpt>
      <trkpt lat="48.84804" lon="2.35056">
        <ele>84.9</ele>
        <time>2015-04-27T18:27:51.923Z</time>
      </trkpt>
      <trkpt lat="48.84803" lon="2.35067">
        <ele>85.5</ele>
        <time>2015-04-27T18:27:55.908Z</time>
      </trkpt>
      <trkpt lat="48.84802" lon="2.35072">
        <ele>85.6</ele>
        <time>2015-04-27T18:27:56.915Z</time>
      </trkpt>
      <trkpt lat="48.84799" lon="2.35084">
        <ele>85.4</ele>
        <time>2015-04-27T18:27:58.921Z</time>
      </trkpt>
      <trkpt lat="48.84797" lon="2.3509">
        <ele>85.2</ele>
        <time>2015-04-27T18:27:59.947Z</time>
      </trkpt>
      <trkpt lat="48.84795" lon="2.35096">
        <ele>85.1</ele>
        <time>2015-04-27T18:28:00.857Z</time>
      </trkpt>
      <trkpt lat="48.84793" lon="2.35103">
        <ele>85</ele>
        <time>2015-04-27T18:28:01.884Z</time>
      </trkpt>
      <trkpt lat="48.84791" lon="2.35109">
        <ele>84.9</ele>
        <time>2015-04-27T18:28:02.890Z</time>
      </trkpt>
      <trkpt lat="48.84788" lon="2.35116">
        <ele>84.8</ele>
        <time>2015-04-27T18:28:03.925Z</time>
      </trkpt>
      <trkpt lat="48.84785" lon="2.35123">
        <ele>84.7</ele>
        <time>2015-04-27T18:28:04.931Z</time>
      </trkpt>
      <trkpt lat="48.84783" lon="2.35131">
        <ele>84.6</ele>
        <time>2015-04-27T18:28:05.864Z</time>
      </trkpt>
      <trkpt lat="48.8478" lon="2.35137">
        <ele>84.5</ele>
        <time>2015-04-27T18:28:05.406Z</time>
      </trkpt>
      <trkpt lat="48.84777" lon="2.35144">
        <ele>84.4</ele>
        <time>2015-04-27T18:28:07.887Z</time>
      </trkpt>
      <trkpt lat="48.84775" lon="2.35152">
        <ele>83.9</ele>
        <time>2015-04-27T18:28:08.898Z</time>
      </trkpt>
      <trkpt lat="48.84772" lon="2.35159">
        <ele>83.9</ele>
        <time>2015-04-27T18:28:09.924Z</time>
      </trkpt>
      <trkpt lat="48.8477" lon="2.35166">
        <ele>83.7</ele>
        <time>2015-04-27T18:28:10.935Z</time>
      </trkpt>
      <trkpt lat="48.84767" lon="2.35174">
        <ele>83.7</ele>
        <time>2015-04-27T18:28:11.948Z</time>
      </trkpt>
      <trkpt lat="48.84765" lon="2.35182">
        <ele>83.5</ele>
        <time>2015-04-27T18:28:12.844Z</time>
      </trkpt>
      <trkpt lat="48.84761" lon="2.35198">
        <ele>83.3</ele>
        <time>2015-04-27T18:28:14.946Z</time>
      </trkpt>
      <trkpt lat="48.84758" lon="2.35206">
        <ele>83</ele>
        <time>2015-04-27T18:28:15.975Z</time>
      </trkpt>
      <trkpt lat="48.84756" lon="2.35215">
        <ele>82.8</ele>
        <time>2015-04-27T18:28:16.906Z</time>
      </trkpt>
      <trkpt lat="48.84753" lon="2.35224">
        <ele>82.6</ele>
        <time>2015-04-27T18:28:17.924Z</time>
      </trkpt>
      <trkpt lat="48.84751" lon="2.35233">
        <ele>82.6</ele>
        <time>2015-04-27T18:28:18.945Z</time>
      </trkpt>
      <trkpt lat="48.84749" lon="2.35242">
        <ele>82.4</ele>
        <time>2015-04-27T18:28:19.953Z</time>
      </trkpt>
      <trkpt lat="48.84746" lon="2.3525">
        <ele>82.2</ele>
        <time>2015-04-27T18:28:20.867Z</time>
      </trkpt>
      <trkpt lat="48.84741" lon="2.35261">
        <ele>82.1</ele>
        <time>2015-04-27T18:28:22.922Z</time>
      </trkpt>
      <trkpt lat="48.8474" lon="2.35265">
        <ele>81.7</ele>
        <time>2015-04-27T18:28:23.955Z</time>
      </trkpt>
      <trkpt lat="48.84737" lon="2.35274">
        <ele>81.9</ele>
        <time>2015-04-27T18:28:25.886Z</time>
      </trkpt>
      <trkpt lat="48.84736" lon="2.35278">
        <ele>82</ele>
        <time>2015-04-27T18:28:26.955Z</time>
      </trkpt>
      <trkpt lat="48.84734" lon="2.35286">
        <ele>82</ele>
        <time>2015-04-27T18:28:29.908Z</time>
      </trkpt>
      <trkpt lat="48.84734" lon="2.35285">
        <ele>82.4</ele>
        <time>2015-04-27T18:28:30.941Z</time>
      </trkpt>
      <trkpt lat="48.84734" lon="2.35285">
        <ele>82.4</ele>
        <time>2015-04-27T18:28:31.880Z</time>
      </trkpt>
      <trkpt lat="48.84734" lon="2.35285">
        <ele>82.3</ele>
        <time>2015-04-27T18:28:32.951Z</time>
      </trkpt>
      <trkpt lat="48.84735" lon="2.35285">
        <ele>82</ele>
        <time>2015-04-27T18:28:33.969Z</time>
      </trkpt>
      <trkpt lat="48.84735" lon="2.35284">
        <ele>81.6</ele>
        <time>2015-04-27T18:28:35.920Z</time>
      </trkpt>
      <trkpt lat="48.84736" lon="2.35286">
        <ele>81.6</ele>
        <time>2015-04-27T18:28:36.928Z</time>
      </trkpt>
      <trkpt lat="48.84736" lon="2.35295">
        <ele>81.6</ele>
        <time>2015-04-27T18:28:38.950Z</time>
      </trkpt>
      <trkpt lat="48.84735" lon="2.35301">
        <ele>81.3</ele>
        <time>2015-04-27T18:28:39.957Z</time>
      </trkpt>
      <trkpt lat="48.84734" lon="2.35313">
        <ele>81.4</ele>
        <time>2015-04-27T18:28:41.898Z</time>
      </trkpt>
      <trkpt lat="48.84734" lon="2.3532">
        <ele>81.5</ele>
        <time>2015-04-27T18:28:42.974Z</time>
      </trkpt>
      <trkpt lat="48.84731" lon="2.3533">
        <ele>81.6</ele>
        <time>2015-04-27T18:28:44.907Z</time>
      </trkpt>
      <trkpt lat="48.84729" lon="2.35335">
        <ele>81.7</ele>
        <time>2015-04-27T18:28:45.974Z</time>
      </trkpt>
      <trkpt lat="48.84723" lon="2.35343">
        <ele>81.8</ele>
        <time>2015-04-27T18:28:48.934Z</time>
      </trkpt>
      <trkpt lat="48.84722" lon="2.35346">
        <ele>81.7</ele>
        <time>2015-04-27T18:28:49.953Z</time>
      </trkpt>
      <trkpt lat="48.84717" lon="2.35357">
        <ele>81</ele>
        <time>2015-04-27T18:28:54.372Z</time>
      </trkpt>
      <trkpt lat="48.84715" lon="2.35363">
        <ele>80.5</ele>
        <time>2015-04-27T18:28:54.891Z</time>
      </trkpt>
      <trkpt lat="48.84713" lon="2.35371">
        <ele>80</ele>
        <time>2015-04-27T18:28:55.966Z</time>
      </trkpt>
      <trkpt lat="48.84712" lon="2.35378">
        <ele>79.6</ele>
        <time>2015-04-27T18:28:56.843Z</time>
      </trkpt>
      <trkpt lat="48.8471" lon="2.35383">
        <ele>79.5</ele>
        <time>2015-04-27T18:28:57.908Z</time>
      </trkpt>
      <trkpt lat="48.84707" lon="2.35393">
        <ele>78.6</ele>
        <time>2015-04-27T18:28:59.101Z</time>
      </trkpt>
      <trkpt lat="48.84701" lon="2.35399">
        <ele>78</ele>
        <time>2015-04-27T18:28:59.933Z</time>
      </trkpt>
      <trkpt lat="48.84696" lon="2.35405">
        <ele>77.7</ele>
        <time>2015-04-27T18:29:00.944Z</time>
      </trkpt>
      <trkpt lat="48.84689" lon="2.3541">
        <ele>77.8</ele>
        <time>2015-04-27T18:29:01.955Z</time>
      </trkpt>
      <trkpt lat="48.84683" lon="2.35413">
        <ele>77.5</ele>
        <time>2015-04-27T18:29:02.878Z</time>
      </trkpt>
      <trkpt lat="48.84674" lon="2.35415">
        <ele>77.1</ele>
        <time>2015-04-27T18:29:03.917Z</time>
      </trkpt>
      <trkpt lat="48.84666" lon="2.35418">
        <ele>76.9</ele>
        <time>2015-04-27T18:29:04.931Z</time>
      </trkpt>
      <trkpt lat="48.84658" lon="2.35421">
        <ele>76.6</ele>
        <time>2015-04-27T18:29:04.571Z</time>
      </trkpt>
      <trkpt lat="48.84651" lon="2.35422">
        <ele>76.7</ele>
        <time>2015-04-27T18:29:06.879Z</time>
      </trkpt>
      <trkpt lat="48.84645" lon="2.35425">
        <ele>76.8</ele>
        <time>2015-04-27T18:29:07.870Z</time>
      </trkpt>
      <trkpt lat="48.84638" lon="2.35428">
        <ele>76.8</ele>
        <time>2015-04-27T18:29:08.907Z</time>
      </trkpt>
      <trkpt lat="48.84631" lon="2.35431">
        <ele>76.9</ele>
        <time>2015-04-27T18:29:09.927Z</time>
      </trkpt>
      <trkpt lat="48.84623" lon="2.35433">
        <ele>76.8</ele>
        <time>2015-04-27T18:29:10.956Z</time>
      </trkpt>
      <trkpt lat="48.84616" lon="2.35435">
        <ele>77</ele>
        <time>2015-04-27T18:29:11.877Z</time>
      </trkpt>
      <trkpt lat="48.84609" lon="2.35436">
        <ele>77.3</ele>
        <time>2015-04-27T18:29:12.928Z</time>
      </trkpt>
      <trkpt lat="48.84602" lon="2.35438">
        <ele>77.5</ele>
        <time>2015-04-27T18:29:13.941Z</time>
      </trkpt>
      <trkpt lat="48.84595" lon="2.35439">
        <ele>77.9</ele>
        <time>2015-04-27T18:29:14.975Z</time>
      </trkpt>
      <trkpt lat="48.84588" lon="2.35441">
        <ele>78.3</ele>
        <time>2015-04-27T18:29:15.906Z</time>
      </trkpt>
      <trkpt lat="48.84582" lon="2.35442">
        <ele>78.5</ele>
        <time>2015-04-27T18:29:16.870Z</time>
      </trkpt>
      <trkpt lat="48.84576" lon="2.35445">
        <ele>78.8</ele>
        <time>2015-04-27T18:29:17.889Z</time>
      </trkpt>
      <trkpt lat="48.84569" lon="2.35447">
        <ele>79.2</ele>
        <time>2015-04-27T18:29:18.901Z</time>
      </trkpt>
      <trkpt lat="48.84563" lon="2.35449">
        <ele>79.5</ele>
        <time>2015-04-27T18:29:19.926Z</time>
      </trkpt>
      <trkpt lat="48.84556" lon="2.35451">
        <ele>79.7</ele>
        <time>2015-04-27T18:29:20.934Z</time>
      </trkpt>
      <trkpt lat="48.8455" lon="2.35454">
        <ele>79.9</ele>
        <time>2015-04-27T18:29:21.948Z</time>
      </trkpt>
      <trkpt lat="48.84545" lon="2.35456">
        <ele>80.1</ele>
        <time>2015-04-27T18:29:22.878Z</time>
      </trkpt>
      <trkpt lat="48.84536" lon="2.35459">
        <ele>80.5</ele>
        <time>2015-04-27T18:29:24.950Z</time>
      </trkpt>
      <trkpt lat="48.84533" lon="2.35461">
        <ele>80.7</ele>
        <time>2015-04-27T18:29:25.868Z</time>
      </trkpt>
      <trkpt lat="48.84529" lon="2.35463">
        <ele>80.9</ele>
        <time>2015-04-27T18:29:26.960Z</time>
      </trkpt>
      <trkpt lat="48.84524" lon="2.35465">
        <ele>81.2</ele>
        <time>2015-04-27T18:29:27.920Z</time>
      </trkpt>
      <trkpt lat="48.84515" lon="2.35467">
        <ele>81.6</ele>
        <time>2015-04-27T18:29:29.934Z</time>
      </trkpt>
      <trkpt lat="48.84511" lon="2.35468">
        <ele>81.8</ele>
        <time>2015-04-27T18:29:30.900Z</time>
      </trkpt>
      <trkpt lat="48.84506" lon="2.35469">
        <ele>82</ele>
        <time>2015-04-27T18:29:31.844Z</time>
      </trkpt>
      <trkpt lat="48.845" lon="2.35469">
        <ele>82.2</ele>
        <time>2015-04-27T18:29:32.850Z</time>
      </trkpt>
      <trkpt lat="48.84494" lon="2.35468">
        <ele>82.3</ele>
        <time>2015-04-27T18:29:33.910Z</time>
      </trkpt>
      <trkpt lat="48.84488" lon="2.35468">
        <ele>82.5</ele>
        <time>2015-04-27T18:29:34.980Z</time>
      </trkpt>
      <trkpt lat="48.84483" lon="2.35469">
        <ele>82.7</ele>
        <time>2015-04-27T18:29:35.892Z</time>
      </trkpt>
      <trkpt lat="48.84478" lon="2.35471">
        <ele>82.9</ele>
        <time>2015-04-27T18:29:36.923Z</time>
      </trkpt>
      <trkpt lat="48.84469" lon="2.35474">
        <ele>83.2</ele>
        <time>2015-04-27T18:29:38.905Z</time>
      </trkpt>
      <trkpt lat="48.84466" lon="2.35475">
        <ele>83.3</ele>
        <time>2015-04-27T18:29:39.939Z</time>
      </trkpt>
      <trkpt lat="48.84458" lon="2.35476">
        <ele>83.6</ele>
        <time>2015-04-27T18:29:42.098Z</time>
      </trkpt>
      <trkpt lat="48.84453" lon="2.35476">
        <ele>83.6</ele>
        <time>2015-04-27T18:29:42.947Z</time>
      </trkpt>
      <trkpt lat="48.84447" lon="2.35476">
        <ele>83.7</ele>
        <time>2015-04-27T18:29:43.878Z</time>
      </trkpt>
      <trkpt lat="48.84441" lon="2.35476">
        <ele>83.8</ele>
        <time>2015-04-27T18:29:44.905Z</time>
      </trkpt>
      <trkpt lat="48.84436" lon="2.35476">
        <ele>83.9</ele>
        <time>2015-04-27T18:29:46.016Z</time>
      </trkpt>
      <trkpt lat="48.8443" lon="2.35479">
        <ele>84.4</ele>
        <time>2015-04-27T18:29:46.877Z</time>
      </trkpt>
      <trkpt lat="48.84425" lon="2.3548">
        <ele>84.5</ele>
        <time>2015-04-27T18:29:47.909Z</time>
      </trkpt>
      <trkpt lat="48.8442" lon="2.35481">
        <ele>84.7</ele>
        <time>2015-04-27T18:29:48.933Z</time>
      </trkpt>
      <trkpt lat="48.84411" lon="2.35484">
        <ele>84.8</ele>
        <time>2015-04-27T18:29:50.866Z</time>
      </trkpt>
      <trkpt lat="48.84407" lon="2.35485">
        <ele>84.9</ele>
        <time>2015-04-27T18:29:51.902Z</time>
      </trkpt>
      <trkpt lat="48.84402" lon="2.35485">
        <ele>84.6</ele>
        <time>2015-04-27T18:29:52.936Z</time>
      </trkpt>
      <trkpt lat="48.84397" lon="2.35486">
        <ele>84.7</ele>
        <time>2015-04-27T18:29:53.843Z</time>
      </trkpt>
      <trkpt lat="48.84389" lon="2.35488">
        <ele>84.5</ele>
        <time>2015-04-27T18:29:55.911Z</time>
      </trkpt>
      <trkpt lat="48.84386" lon="2.35488">
        <ele>84.3</ele>
        <time>2015-04-27T18:29:56.970Z</time>
      </trkpt>
      <trkpt lat="48.84379" lon="2.35493">
        <ele>83.9</ele>
        <time>2015-04-27T18:29:59.936Z</time>
      </trkpt>
      <trkpt lat="48.84377" lon="2.35494">
        <ele>84</ele>
        <time>2015-04-27T18:30:00.951Z</time>
      </trkpt>
      <trkpt lat="48.84368" lon="2.35498">
        <ele>84.6</ele>
        <time>2015-04-27T18:30:10.935Z</time>
      </trkpt>
      <trkpt lat="48.84366" lon="2.35499">
        <ele>84.7</ele>
        <time>2015-04-27T18:30:12.017Z</time>
      </trkpt>
      <trkpt lat="48.84358" lon="2.35502">
        <ele>85.3</ele>
        <time>2015-04-27T18:30:14.977Z</time>
      </trkpt>
      <trkpt lat="48.84355" lon="2.35503">
        <ele>85.5</ele>
        <time>2015-04-27T18:30:15.927Z</time>
      </trkpt>
      <trkpt lat="48.84348" lon="2.35504">
        <ele>85.8</ele>
        <time>2015-04-27T18:30:17.969Z</time>
      </trkpt>
      <trkpt lat="48.84343" lon="2.35506">
        <ele>85.8</ele>
        <time>2015-04-27T18:30:18.923Z</time>
      </trkpt>
      <trkpt lat="48.84338" lon="2.35506">
        <ele>85.9</ele>
        <time>2015-04-27T18:30:19.896Z</time>
      </trkpt>
      <trkpt lat="48.84334" lon="2.35507">
        <ele>85.8</ele>
        <time>2015-04-27T18:30:20.926Z</time>
      </trkpt>
      <trkpt lat="48.84329" lon="2.35508">
        <ele>85.6</ele>
        <time>2015-04-27T18:30:21.951Z</time>
      </trkpt>
      <trkpt lat="48.84325" lon="2.35508">
        <ele>85.6</ele>
        <time>2015-04-27T18:30:22.868Z</time>
      </trkpt>
      <trkpt lat="48.8432" lon="2.35509">
        <ele>85.7</ele>
        <time>2015-04-27T18:30:23.903Z</time>
      </trkpt>
      <trkpt lat="48.84315" lon="2.3551">
        <ele>85.6</ele>
        <time>2015-04-27T18:30:24.921Z</time>
      </trkpt>
      <trkpt lat="48.84306" lon="2.35513">
        <ele>85.7</ele>
        <time>2015-04-27T18:30:26.871Z</time>
      </trkpt>
      <trkpt lat="48.84301" lon="2.35515">
        <ele>85.7</ele>
        <time>2015-04-27T18:30:27.935Z</time>
      </trkpt>
      <trkpt lat="48.84295" lon="2.35517">
        <ele>85.6</ele>
        <time>2015-04-27T18:30:28.895Z</time>
      </trkpt>
      <trkpt lat="48.84289" lon="2.3552">
        <ele>85.3</ele>
        <time>2015-04-27T18:30:29.861Z</time>
      </trkpt>
      <trkpt lat="48.84283" lon="2.35522">
        <ele>85.3</ele>
        <time>2015-04-27T18:30:30.890Z</time>
      </trkpt>
      <trkpt lat="48.84277" lon="2.35524">
        <ele>85.3</ele>
        <time>2015-04-27T18:30:31.900Z</time>
      </trkpt>
      <trkpt lat="48.84272" lon="2.35526">
        <ele>85.5</ele>
        <time>2015-04-27T18:30:32.921Z</time>
      </trkpt>
      <trkpt lat="48.84265" lon="2.35529">
        <ele>85.6</ele>
        <time>2015-04-27T18:30:33.927Z</time>
      </trkpt>
      <trkpt lat="48.84259" lon="2.35532">
        <ele>85.7</ele>
        <time>2015-04-27T18:30:34.943Z</time>
      </trkpt>
      <trkpt lat="48.84253" lon="2.35534">
        <ele>85.8</ele>
        <time>2015-04-27T18:30:35.964Z</time>
      </trkpt>
      <trkpt lat="48.84132" lon="2.35592">
        <ele>86</ele>
        <time>2015-04-27T18:30:59.909Z</time>
      </trkpt>
      <trkpt lat="48.84112" lon="2.35595">
        <ele>86.2</ele>
        <time>2015-04-27T18:31:09.070Z</time>
      </trkpt>
      <trkpt lat="48.84105" lon="2.35598">
        <ele>86.2</ele>
        <time>2015-04-27T18:31:10.862Z</time>
      </trkpt>
      <trkpt lat="48.84102" lon="2.35599">
        <ele>86.2</ele>
        <time>2015-04-27T18:31:11.901Z</time>
      </trkpt>
      <trkpt lat="48.84097" lon="2.35598">
        <ele>86.2</ele>
        <time>2015-04-27T18:31:12.939Z</time>
      </trkpt>
      <trkpt lat="48.84092" lon="2.356">
        <ele>86.1</ele>
        <time>2015-04-27T18:31:13.943Z</time>
      </trkpt>
      <trkpt lat="48.84086" lon="2.35602">
        <ele>86</ele>
        <time>2015-04-27T18:31:14.864Z</time>
      </trkpt>
      <trkpt lat="48.84081" lon="2.35603">
        <ele>86</ele>
        <time>2015-04-27T18:31:15.904Z</time>
      </trkpt>
      <trkpt lat="48.84076" lon="2.35604">
        <ele>86.1</ele>
        <time>2015-04-27T18:31:16.927Z</time>
      </trkpt>
      <trkpt lat="48.84071" lon="2.35604">
        <ele>86.1</ele>
        <time>2015-04-27T18:31:17.935Z</time>
      </trkpt>
      <trkpt lat="48.84061" lon="2.35606">
        <ele>86.2</ele>
        <time>2015-04-27T18:31:19.870Z</time>
      </trkpt>
      <trkpt lat="48.84053" lon="2.35612">
        <ele>86.3</ele>
        <time>2015-04-27T18:31:21.897Z</time>
      </trkpt>
      <trkpt lat="48.84049" lon="2.35615">
        <ele>86.3</ele>
        <time>2015-04-27T18:31:23.101Z</time>
      </trkpt>
      <trkpt lat="48.84044" lon="2.35617">
        <ele>86.5</ele>
        <time>2015-04-27T18:31:23.869Z</time>
      </trkpt>
      <trkpt lat="48.84039" lon="2.35619">
        <ele>86.7</ele>
        <time>2015-04-27T18:31:24.880Z</time>
      </trkpt>
      <trkpt lat="48.84029" lon="2.35624">
        <ele>86.9</ele>
        <time>2015-04-27T18:31:26.907Z</time>
      </trkpt>
      <trkpt lat="48.84024" lon="2.35626">
        <ele>87.1</ele>
        <time>2015-04-27T18:31:27.912Z</time>
      </trkpt>
      <trkpt lat="48.84019" lon="2.35629">
        <ele>87.2</ele>
        <time>2015-04-27T18:31:28.918Z</time>
      </trkpt>
      <trkpt lat="48.84014" lon="2.3563">
        <ele>87.3</ele>
        <time>2015-04-27T18:31:29.935Z</time>
      </trkpt>
      <trkpt lat="48.8401" lon="2.35631">
        <ele>87.3</ele>
        <time>2015-04-27T18:31:30.941Z</time>
      </trkpt>
      <trkpt lat="48.84003" lon="2.3563">
        <ele>87.2</ele>
        <time>2015-04-27T18:31:31.966Z</time>
      </trkpt>
      <trkpt lat="48.83998" lon="2.35631">
        <ele>87.3</ele>
        <time>2015-04-27T18:31:32.958Z</time>
      </trkpt>
      <trkpt lat="48.83992" lon="2.35632">
        <ele>87.1</ele>
        <time>2015-04-27T18:31:33.971Z</time>
      </trkpt>
      <trkpt lat="48.83987" lon="2.35633">
        <ele>87.1</ele>
        <time>2015-04-27T18:31:34.860Z</time>
      </trkpt>
      <trkpt lat="48.83979" lon="2.35635">
        <ele>87.2</ele>
        <time>2015-04-27T18:31:36.900Z</time>
      </trkpt>
      <trkpt lat="48.83977" lon="2.35637">
        <ele>87.2</ele>
        <time>2015-04-27T18:31:37.974Z</time>
      </trkpt>
      <trkpt lat="48.83976" lon="2.3565">
        <ele>87.5</ele>
        <time>2015-04-27T18:31:42.914Z</time>
      </trkpt>
      <trkpt lat="48.83976" lon="2.35654">
        <ele>87.7</ele>
        <time>2015-04-27T18:31:43.978Z</time>
      </trkpt>
      <trkpt lat="48.83978" lon="2.35666">
        <ele>88.1</ele>
        <time>2015-04-27T18:31:46.896Z</time>
      </trkpt>
      <trkpt lat="48.83978" lon="2.3567">
        <ele>88.2</ele>
        <time>2015-04-27T18:31:47.901Z</time>
      </trkpt>
      <trkpt lat="48.83981" lon="2.35682">
        <ele>88.4</ele>
        <time>2015-04-27T18:31:50.845Z</time>
      </trkpt>
      <trkpt lat="48.83982" lon="2.35686">
        <ele>88.4</ele>
        <time>2015-04-27T18:31:51.890Z</time>
      </trkpt>
      <trkpt lat="48.83984" lon="2.35694">
        <ele>88.5</ele>
        <time>2015-04-27T18:31:53.956Z</time>
      </trkpt>
      <trkpt lat="48.83986" lon="2.35699">
        <ele>88.6</ele>
        <time>2015-04-27T18:31:54.853Z</time>
      </trkpt>
      <trkpt lat="48.83989" lon="2.3571">
        <ele>88.6</ele>
        <time>2015-04-27T18:31:56.864Z</time>
      </trkpt>
      <trkpt lat="48.83991" lon="2.35715">
        <ele>88.6</ele>
        <time>2015-04-27T18:31:57.902Z</time>
      </trkpt>
      <trkpt lat="48.83997" lon="2.35763">
        <ele>89.1</ele>
        <time>2015-04-27T18:32:04.844Z</time>
      </trkpt>
      <trkpt lat="48.83998" lon="2.35772">
        <ele>89.3</ele>
        <time>2015-04-27T18:32:05.867Z</time>
      </trkpt>
      <trkpt lat="48.83999" lon="2.3578">
        <ele>89.4</ele>
        <time>2015-04-27T18:32:06.877Z</time>
      </trkpt>
      <trkpt lat="48.84" lon="2.35788">
        <ele>89.5</ele>
        <time>2015-04-27T18:32:08.595Z</time>
      </trkpt>
      <trkpt lat="48.84002" lon="2.35796">
        <ele>89.7</ele>
        <time>2015-04-27T18:32:08.884Z</time>
      </trkpt>
      <trkpt lat="48.84003" lon="2.35804">
        <ele>89.8</ele>
        <time>2015-04-27T18:32:09.907Z</time>
      </trkpt>
      <trkpt lat="48.84004" lon="2.35811">
        <ele>89.9</ele>
        <time>2015-04-27T18:32:10.912Z</time>
      </trkpt>
      <trkpt lat="48.84005" lon="2.35819">
        <ele>90.1</ele>
        <time>2015-04-27T18:32:11.932Z</time>
      </trkpt>
      <trkpt lat="48.84006" lon="2.35827">
        <ele>90.3</ele>
        <time>2015-04-27T18:32:12.944Z</time>
      </trkpt>
      <trkpt lat="48.84008" lon="2.35836">
        <ele>90.5</ele>
        <time>2015-04-27T18:32:13.865Z</time>
      </trkpt>
      <trkpt lat="48.84009" lon="2.35846">
        <ele>90.7</ele>
        <time>2015-04-27T18:32:14.880Z</time>
      </trkpt>
      <trkpt lat="48.84012" lon="2.35855">
        <ele>91</ele>
        <time>2015-04-27T18:32:15.928Z</time>
      </trkpt>
      <trkpt lat="48.84015" lon="2.35862">
        <ele>91</ele>
        <time>2015-04-27T18:32:16.874Z</time>
      </trkpt>
      <trkpt lat="48.84018" lon="2.35868">
        <ele>91</ele>
        <time>2015-04-27T18:32:17.882Z</time>
      </trkpt>
      <trkpt lat="48.84021" lon="2.35875">
        <ele>91</ele>
        <time>2015-04-27T18:32:18.914Z</time>
      </trkpt>
      <trkpt lat="48.84023" lon="2.35882">
        <ele>91</ele>
        <time>2015-04-27T18:32:19.938Z</time>
      </trkpt>
      <trkpt lat="48.84024" lon="2.35888">
        <ele>90.9</ele>
        <time>2015-04-27T18:32:20.842Z</time>
      </trkpt>
      <trkpt lat="48.84026" lon="2.35894">
        <ele>91</ele>
        <time>2015-04-27T18:32:21.911Z</time>
      </trkpt>
      <trkpt lat="48.84028" lon="2.35901">
        <ele>91</ele>
        <time>2015-04-27T18:32:22.931Z</time>
      </trkpt>
      <trkpt lat="48.84029" lon="2.35908">
        <ele>90.9</ele>
        <time>2015-04-27T18:32:23.962Z</time>
      </trkpt>
      <trkpt lat="48.84031" lon="2.35916">
        <ele>90.9</ele>
        <time>2015-04-27T18:32:24.848Z</time>
      </trkpt>
      <trkpt lat="48.84036" lon="2.35927">
        <ele>90.9</ele>
        <time>2015-04-27T18:32:26.869Z</time>
      </trkpt>
      <trkpt lat="48.84037" lon="2.35932">
        <ele>90.9</ele>
        <time>2015-04-27T18:32:27.925Z</time>
      </trkpt>
      <trkpt lat="48.84037" lon="2.35947">
        <ele>91.2</ele>
        <time>2015-04-27T18:32:29.891Z</time>
      </trkpt>
      <trkpt lat="48.84038" lon="2.35955">
        <ele>91.3</ele>
        <time>2015-04-27T18:32:30.909Z</time>
      </trkpt>
      <trkpt lat="48.84039" lon="2.35962">
        <ele>91.4</ele>
        <time>2015-04-27T18:32:31.910Z</time>
      </trkpt>
      <trkpt lat="48.84039" lon="2.35969">
        <ele>91.5</ele>
        <time>2015-04-27T18:32:32.923Z</time>
      </trkpt>
      <trkpt lat="48.84039" lon="2.35976">
        <ele>91.5</ele>
        <time>2015-04-27T18:32:33.927Z</time>
      </trkpt>
      <trkpt lat="48.84039" lon="2.3599">
        <ele>91.7</ele>
        <time>2015-04-27T18:32:35.840Z</time>
      </trkpt>
      <trkpt lat="48.84039" lon="2.35996">
        <ele>91.8</ele>
        <time>2015-04-27T18:32:36.895Z</time>
      </trkpt>
      <trkpt lat="48.8404" lon="2.36009">
        <ele>91.9</ele>
        <time>2015-04-27T18:32:38.923Z</time>
      </trkpt>
      <trkpt lat="48.84041" lon="2.36017">
        <ele>92</ele>
        <time>2015-04-27T18:32:39.922Z</time>
      </trkpt>
      <trkpt lat="48.84042" lon="2.36026">
        <ele>92.1</ele>
        <time>2015-04-27T18:32:40.947Z</time>
      </trkpt>
      <trkpt lat="48.84043" lon="2.36035">
        <ele>92.1</ele>
        <time>2015-04-27T18:32:41.857Z</time>
      </trkpt>
      <trkpt lat="48.84043" lon="2.36045">
        <ele>92.3</ele>
        <time>2015-04-27T18:32:42.862Z</time>
      </trkpt>
      <trkpt lat="48.84043" lon="2.36054">
        <ele>92.5</ele>
        <time>2015-04-27T18:32:43.879Z</time>
      </trkpt>
      <trkpt lat="48.84044" lon="2.36062">
        <ele>92.6</ele>
        <time>2015-04-27T18:32:44.900Z</time>
      </trkpt>
      <trkpt lat="48.84045" lon="2.36071">
        <ele>92.7</ele>
        <time>2015-04-27T18:32:45.932Z</time>
      </trkpt>
      <trkpt lat="48.84045" lon="2.36079">
        <ele>92.8</ele>
        <time>2015-04-27T18:32:46.920Z</time>
      </trkpt>
      <trkpt lat="48.84046" lon="2.36087">
        <ele>92.9</ele>
        <time>2015-04-27T18:32:47.932Z</time>
      </trkpt>
      <trkpt lat="48.84046" lon="2.36096">
        <ele>92.9</ele>
        <time>2015-04-27T18:32:49.172Z</time>
      </trkpt>
      <trkpt lat="48.84044" lon="2.36104">
        <ele>92.5</ele>
        <time>2015-04-27T18:32:49.858Z</time>
      </trkpt>
      <trkpt lat="48.84041" lon="2.36112">
        <ele>91.7</ele>
        <time>2015-04-27T18:32:50.873Z</time>
      </trkpt>
      <trkpt lat="48.84038" lon="2.36119">
        <ele>90.9</ele>
        <time>2015-04-27T18:32:51.904Z</time>
      </trkpt>
      <trkpt lat="48.84036" lon="2.36125">
        <ele>90.2</ele>
        <time>2015-04-27T18:32:52.920Z</time>
      </trkpt>
      <trkpt lat="48.84036" lon="2.36132">
        <ele>89</ele>
        <time>2015-04-27T18:32:53.937Z</time>
      </trkpt>
      <trkpt lat="48.84035" lon="2.3614">
        <ele>88</ele>
        <time>2015-04-27T18:32:54.946Z</time>
      </trkpt>
      <trkpt lat="48.84034" lon="2.36147">
        <ele>87.2</ele>
        <time>2015-04-27T18:32:55.954Z</time>
      </trkpt>
      <trkpt lat="48.84033" lon="2.36158">
        <ele>86</ele>
        <time>2015-04-27T18:32:57.972Z</time>
      </trkpt>
      <trkpt lat="48.84032" lon="2.36162">
        <ele>85</ele>
        <time>2015-04-27T18:32:58.894Z</time>
      </trkpt>
      <trkpt lat="48.84032" lon="2.36168">
        <ele>84.2</ele>
        <time>2015-04-27T18:32:59.457Z</time>
      </trkpt>
      <trkpt lat="48.84032" lon="2.36171">
        <ele>84.4</ele>
        <time>2015-04-27T18:33:02.958Z</time>
      </trkpt>
      <trkpt lat="48.84033" lon="2.36172">
        <ele>84.3</ele>
        <time>2015-04-27T18:33:03.928Z</time>
      </trkpt>
      <trkpt lat="48.84034" lon="2.36174">
        <ele>84.3</ele>
        <time>2015-04-27T18:33:04.945Z</time>
      </trkpt>
      <trkpt lat="48.84034" lon="2.36176">
        <ele>84.4</ele>
        <time>2015-04-27T18:33:06.196Z</time>
      </trkpt>
      <trkpt lat="48.84034" lon="2.36176">
        <ele>84.3</ele>
        <time>2015-04-27T18:33:10.886Z</time>
      </trkpt>
      <trkpt lat="48.84035" lon="2.36181">
        <ele>84</ele>
        <time>2015-04-27T18:33:11.920Z</time>
      </trkpt>
      <trkpt lat="48.84035" lon="2.36185">
        <ele>85.4</ele>
        <time>2015-04-27T18:33:31.937Z</time>
      </trkpt>
      <trkpt lat="48.84035" lon="2.36185">
        <ele>85.3</ele>
        <time>2015-04-27T18:33:32.949Z</time>
      </trkpt>
      <trkpt lat="48.84034" lon="2.36186">
        <ele>84.9</ele>
        <time>2015-04-27T18:33:37.894Z</time>
      </trkpt>
      <trkpt lat="48.84033" lon="2.36186">
        <ele>84.6</ele>
        <time>2015-04-27T18:33:38.929Z</time>
      </trkpt>
      <trkpt lat="48.84032" lon="2.36186">
        <ele>84.9</ele>
        <time>2015-04-27T18:33:40.853Z</time>
      </trkpt>
      <trkpt lat="48.84032" lon="2.36187">
        <ele>85</ele>
        <time>2015-04-27T18:33:41.879Z</time>
      </trkpt>
      <trkpt lat="48.84032" lon="2.36188">
        <ele>86.4</ele>
        <time>2015-04-27T18:33:45.698Z</time>
      </trkpt>
      <trkpt lat="48.84031" lon="2.3619">
        <ele>86.4</ele>
        <time>2015-04-27T18:33:45.890Z</time>
      </trkpt>
      <trkpt lat="48.84023" lon="2.36187">
        <ele>86.9</ele>
        <time>2015-04-27T18:33:50.864Z</time>
      </trkpt>
      <trkpt lat="48.84021" lon="2.36186">
        <ele>86.8</ele>
        <time>2015-04-27T18:33:51.939Z</time>
      </trkpt>
      <trkpt lat="48.84013" lon="2.36182">
        <ele>87</ele>
        <time>2015-04-27T18:33:55.746Z</time>
      </trkpt>
      <trkpt lat="48.84011" lon="2.3618">
        <ele>86.9</ele>
        <time>2015-04-27T18:33:55.946Z</time>
      </trkpt>
      <trkpt lat="48.84005" lon="2.36172">
        <ele>86.8</ele>
        <time>2015-04-27T18:33:58.901Z</time>
      </trkpt>
      <trkpt lat="48.84004" lon="2.3617">
        <ele>86.8</ele>
        <time>2015-04-27T18:33:59.912Z</time>
      </trkpt>
      <trkpt lat="48.83998" lon="2.3616">
        <ele>86.7</ele>
        <time>2015-04-27T18:34:05.928Z</time>
      </trkpt>
      <trkpt lat="48.83998" lon="2.36158">
        <ele>86.7</ele>
        <time>2015-04-27T18:34:05.977Z</time>
      </trkpt>
      <trkpt lat="48.8399" lon="2.36158">
        <ele>87</ele>
        <time>2015-04-27T18:34:09.936Z</time>
      </trkpt>
      <trkpt lat="48.83987" lon="2.36157">
        <ele>86.9</ele>
        <time>2015-04-27T18:34:10.982Z</time>
      </trkpt>
      <trkpt lat="48.83981" lon="2.36154">
        <ele>86.9</ele>
        <time>2015-04-27T18:34:12.925Z</time>
      </trkpt>
      <trkpt lat="48.83977" lon="2.36152">
        <ele>86.9</ele>
        <time>2015-04-27T18:34:13.978Z</time>
      </trkpt>
      <trkpt lat="48.83969" lon="2.36146">
        <ele>86.8</ele>
        <time>2015-04-27T18:34:16.049Z</time>
      </trkpt>
      <trkpt lat="48.83965" lon="2.36143">
        <ele>86.8</ele>
        <time>2015-04-27T18:34:17.059Z</time>
      </trkpt>
      <trkpt lat="48.8396" lon="2.3614">
        <ele>86.9</ele>
        <time>2015-04-27T18:34:17.867Z</time>
      </trkpt>
      <trkpt lat="48.83957" lon="2.36136">
        <ele>86.9</ele>
        <time>2015-04-27T18:34:18.976Z</time>
      </trkpt>
      <trkpt lat="48.83953" lon="2.36133">
        <ele>87.1</ele>
        <time>2015-04-27T18:34:20.034Z</time>
      </trkpt>
      <trkpt lat="48.83949" lon="2.36129">
        <ele>87.1</ele>
        <time>2015-04-27T18:34:20.897Z</time>
      </trkpt>
      <trkpt lat="48.83945" lon="2.36126">
        <ele>87.2</ele>
        <time>2015-04-27T18:34:21.946Z</time>
      </trkpt>
      <trkpt lat="48.8394" lon="2.36123">
        <ele>87.2</ele>
        <time>2015-04-27T18:34:22.952Z</time>
      </trkpt>
      <trkpt lat="48.83935" lon="2.36119">
        <ele>87.2</ele>
        <time>2015-04-27T18:34:23.991Z</time>
      </trkpt>
      <trkpt lat="48.83931" lon="2.36116">
        <ele>87.2</ele>
        <time>2015-04-27T18:34:24.937Z</time>
      </trkpt>
      <trkpt lat="48.83927" lon="2.36112">
        <ele>87.2</ele>
        <time>2015-04-27T18:34:26.097Z</time>
      </trkpt>
      <trkpt lat="48.8392" lon="2.36107">
        <ele>87.7</ele>
        <time>2015-04-27T18:34:26.976Z</time>
      </trkpt>
      <trkpt lat="48.83915" lon="2.36103">
        <ele>87.7</ele>
        <time>2015-04-27T18:34:27.941Z</time>
      </trkpt>
      <trkpt lat="48.8391" lon="2.36098">
        <ele>87.9</ele>
        <time>2015-04-27T18:34:28.952Z</time>
      </trkpt>
      <trkpt lat="48.83904" lon="2.36093">
        <ele>88.4</ele>
        <time>2015-04-27T18:34:29.890Z</time>
      </trkpt>
      <trkpt lat="48.83897" lon="2.36088">
        <ele>88.3</ele>
        <time>2015-04-27T18:34:30.954Z</time>
      </trkpt>
      <trkpt lat="48.83891" lon="2.36084">
        <ele>88.3</ele>
        <time>2015-04-27T18:34:31.888Z</time>
      </trkpt>
      <trkpt lat="48.83886" lon="2.36078">
        <ele>88.5</ele>
        <time>2015-04-27T18:34:32.898Z</time>
      </trkpt>
      <trkpt lat="48.8388" lon="2.36074">
        <ele>88.8</ele>
        <time>2015-04-27T18:34:33.934Z</time>
      </trkpt>
      <trkpt lat="48.83875" lon="2.3607">
        <ele>88.9</ele>
        <time>2015-04-27T18:34:34.952Z</time>
      </trkpt>
      <trkpt lat="48.8387" lon="2.36067">
        <ele>89</ele>
        <time>2015-04-27T18:34:35.879Z</time>
      </trkpt>
      <trkpt lat="48.83864" lon="2.36064">
        <ele>89.1</ele>
        <time>2015-04-27T18:34:36.906Z</time>
      </trkpt>
      <trkpt lat="48.83859" lon="2.3606">
        <ele>89.2</ele>
        <time>2015-04-27T18:34:37.852Z</time>
      </trkpt>
      <trkpt lat="48.83854" lon="2.36056">
        <ele>89.4</ele>
        <time>2015-04-27T18:34:38.858Z</time>
      </trkpt>
      <trkpt lat="48.83849" lon="2.36052">
        <ele>89.4</ele>
        <time>2015-04-27T18:34:39.981Z</time>
      </trkpt>
      <trkpt lat="48.83844" lon="2.36049">
        <ele>89.6</ele>
        <time>2015-04-27T18:34:40.883Z</time>
      </trkpt>
      <trkpt lat="48.83839" lon="2.36045">
        <ele>89.9</ele>
        <time>2015-04-27T18:34:41.896Z</time>
      </trkpt>
      <trkpt lat="48.83835" lon="2.36041">
        <ele>90</ele>
        <time>2015-04-27T18:34:42.912Z</time>
      </trkpt>
      <trkpt lat="48.8383" lon="2.36037">
        <ele>90.1</ele>
        <time>2015-04-27T18:34:43.922Z</time>
      </trkpt>
      <trkpt lat="48.83824" lon="2.36034">
        <ele>90.2</ele>
        <time>2015-04-27T18:34:44.962Z</time>
      </trkpt>
      <trkpt lat="48.83819" lon="2.3603">
        <ele>90.4</ele>
        <time>2015-04-27T18:34:45.976Z</time>
      </trkpt>
      <trkpt lat="48.83814" lon="2.36026">
        <ele>90.5</ele>
        <time>2015-04-27T18:34:46.887Z</time>
      </trkpt>
      <trkpt lat="48.83808" lon="2.36022">
        <ele>90.7</ele>
        <time>2015-04-27T18:34:47.889Z</time>
      </trkpt>
      <trkpt lat="48.83803" lon="2.36017">
        <ele>90.7</ele>
        <time>2015-04-27T18:34:48.897Z</time>
      </trkpt>
      <trkpt lat="48.83797" lon="2.36014">
        <ele>90.8</ele>
        <time>2015-04-27T18:34:49.929Z</time>
      </trkpt>
      <trkpt lat="48.83792" lon="2.3601">
        <ele>90.9</ele>
        <time>2015-04-27T18:34:50.942Z</time>
      </trkpt>
      <trkpt lat="48.83786" lon="2.36007">
        <ele>90.9</ele>
        <time>2015-04-27T18:34:51.963Z</time>
      </trkpt>
      <trkpt lat="48.83781" lon="2.36003">
        <ele>90.9</ele>
        <time>2015-04-27T18:34:52.859Z</time>
      </trkpt>
      <trkpt lat="48.83776" lon="2.35999">
        <ele>90.9</ele>
        <time>2015-04-27T18:34:53.882Z</time>
      </trkpt>
      <trkpt lat="48.8377" lon="2.35995">
        <ele>90.9</ele>
        <time>2015-04-27T18:34:54.893Z</time>
      </trkpt>
      <trkpt lat="48.83765" lon="2.3599">
        <ele>91</ele>
        <time>2015-04-27T18:34:55.915Z</time>
      </trkpt>
      <trkpt lat="48.8376" lon="2.35986">
        <ele>91</ele>
        <time>2015-04-27T18:34:56.937Z</time>
      </trkpt>
      <trkpt lat="48.83709" lon="2.35958">
        <ele>90.7</ele>
        <time>2015-04-27T18:35:07.900Z</time>
      </trkpt>
      <trkpt lat="48.83703" lon="2.35954">
        <ele>90.9</ele>
        <time>2015-04-27T18:35:09.941Z</time>
      </trkpt>
      <trkpt lat="48.837" lon="2.35952">
        <ele>91</ele>
        <time>2015-04-27T18:35:10.892Z</time>
      </trkpt>
      <trkpt lat="48.83691" lon="2.35949">
        <ele>92.2</ele>
        <time>2015-04-27T18:35:12.873Z</time>
      </trkpt>
      <trkpt lat="48.83688" lon="2.35947">
        <ele>92.4</ele>
        <time>2015-04-27T18:35:13.933Z</time>
      </trkpt>
      <trkpt lat="48.83683" lon="2.35943">
        <ele>92.6</ele>
        <time>2015-04-27T18:35:15.893Z</time>
      </trkpt>
      <trkpt lat="48.8368" lon="2.35941">
        <ele>92.8</ele>
        <time>2015-04-27T18:35:16.894Z</time>
      </trkpt>
      <trkpt lat="48.83674" lon="2.35938">
        <ele>93.7</ele>
        <time>2015-04-27T18:35:19.911Z</time>
      </trkpt>
      <trkpt lat="48.83672" lon="2.35936">
        <ele>94</ele>
        <time>2015-04-27T18:35:20.926Z</time>
      </trkpt>
      <trkpt lat="48.83665" lon="2.35932">
        <ele>95.4</ele>
        <time>2015-04-27T18:35:24.919Z</time>
      </trkpt>
      <trkpt lat="48.83663" lon="2.35931">
        <ele>95.8</ele>
        <time>2015-04-27T18:35:25.929Z</time>
      </trkpt>
      <trkpt lat="48.83656" lon="2.35925">
        <ele>97.3</ele>
        <time>2015-04-27T18:35:29.963Z</time>
      </trkpt>
      <trkpt lat="48.83654" lon="2.35925">
        <ele>97.7</ele>
        <time>2015-04-27T18:35:30.974Z</time>
      </trkpt>
      <trkpt lat="48.83646" lon="2.35919">
        <ele>98.8</ele>
        <time>2015-04-27T18:35:36.866Z</time>
      </trkpt>
      <trkpt lat="48.83645" lon="2.35919">
        <ele>99</ele>
        <time>2015-04-27T18:35:37.882Z</time>
      </trkpt>
      <trkpt lat="48.83643" lon="2.35918">
        <ele>99.7</ele>
        <time>2015-04-27T18:35:39.924Z</time>
      </trkpt>
      <trkpt lat="48.83643" lon="2.35919">
        <ele>100</ele>
        <time>2015-04-27T18:35:40.901Z</time>
      </trkpt>
      <trkpt lat="48.83643" lon="2.35919">
        <ele>100.3</ele>
        <time>2015-04-27T18:35:43.917Z</time>
      </trkpt>
      <trkpt lat="48.83643" lon="2.35922">
        <ele>100.9</ele>
        <time>2015-04-27T18:35:44.939Z</time>
      </trkpt>
      <trkpt lat="48.83641" lon="2.35935">
        <ele>102.5</ele>
        <time>2015-04-27T18:35:52.028Z</time>
      </trkpt>
      <trkpt lat="48.83641" lon="2.35937">
        <ele>102.7</ele>
        <time>2015-04-27T18:35:52.950Z</time>
      </trkpt>
      <trkpt lat="48.83638" lon="2.35949">
        <ele>104.2</ele>
        <time>2015-04-27T18:35:59.930Z</time>
      </trkpt>
      <trkpt lat="48.83637" lon="2.3595">
        <ele>104.2</ele>
        <time>2015-04-27T18:36:00.962Z</time>
      </trkpt>
      <trkpt lat="48.83629" lon="2.35957">
        <ele>104.4</ele>
        <time>2015-04-27T18:36:06.877Z</time>
      </trkpt>
      <trkpt lat="48.83627" lon="2.35958">
        <ele>104.4</ele>
        <time>2015-04-27T18:36:08.080Z</time>
      </trkpt>
      <trkpt lat="48.8362" lon="2.35962">
        <ele>104.3</ele>
        <time>2015-04-27T18:36:10.943Z</time>
      </trkpt>
      <trkpt lat="48.83617" lon="2.35964">
        <ele>104.3</ele>
        <time>2015-04-27T18:36:11.950Z</time>
      </trkpt>
      <trkpt lat="48.8361" lon="2.35968">
        <ele>104.5</ele>
        <time>2015-04-27T18:36:13.919Z</time>
      </trkpt>
      <trkpt lat="48.83607" lon="2.3597">
        <ele>104.6</ele>
        <time>2015-04-27T18:36:14.947Z</time>
      </trkpt>
      <trkpt lat="48.836" lon="2.35976">
        <ele>105</ele>
        <time>2015-04-27T18:36:16.917Z</time>
      </trkpt>
      <trkpt lat="48.83596" lon="2.35979">
        <ele>105.1</ele>
        <time>2015-04-27T18:36:17.932Z</time>
      </trkpt>
      <trkpt lat="48.83592" lon="2.35987">
        <ele>105.4</ele>
        <time>2015-04-27T18:36:19.913Z</time>
      </trkpt>
      <trkpt lat="48.8359" lon="2.35992">
        <ele>105.6</ele>
        <time>2015-04-27T18:36:20.865Z</time>
      </trkpt>
      <trkpt lat="48.83589" lon="2.36003">
        <ele>106</ele>
        <time>2015-04-27T18:36:22.919Z</time>
      </trkpt>
      <trkpt lat="48.83589" lon="2.3601">
        <ele>106.2</ele>
        <time>2015-04-27T18:36:23.885Z</time>
      </trkpt>
      <trkpt lat="48.83586" lon="2.36022">
        <ele>106.5</ele>
        <time>2015-04-27T18:36:25.921Z</time>
      </trkpt>
      <trkpt lat="48.83583" lon="2.36028">
        <ele>106.4</ele>
        <time>2015-04-27T18:36:26.952Z</time>
      </trkpt>
      <trkpt lat="48.83579" lon="2.36032">
        <ele>106.5</ele>
        <time>2015-04-27T18:36:27.968Z</time>
      </trkpt>
      <trkpt lat="48.83576" lon="2.36037">
        <ele>106.5</ele>
        <time>2015-04-27T18:36:28.886Z</time>
      </trkpt>
      <trkpt lat="48.83572" lon="2.36042">
        <ele>106.5</ele>
        <time>2015-04-27T18:36:29.916Z</time>
      </trkpt>
      <trkpt lat="48.83568" lon="2.36047">
        <ele>106.6</ele>
        <time>2015-04-27T18:36:30.862Z</time>
      </trkpt>
      <trkpt lat="48.83564" lon="2.36052">
        <ele>106.5</ele>
        <time>2015-04-27T18:36:31.915Z</time>
      </trkpt>
      <trkpt lat="48.8356" lon="2.36057">
        <ele>106.5</ele>
        <time>2015-04-27T18:36:32.923Z</time>
      </trkpt>
      <trkpt lat="48.83556" lon="2.36062">
        <ele>106.4</ele>
        <time>2015-04-27T18:36:33.965Z</time>
      </trkpt>
      <trkpt lat="48.83552" lon="2.36067">
        <ele>106.2</ele>
        <time>2015-04-27T18:36:34.854Z</time>
      </trkpt>
      <trkpt lat="48.83548" lon="2.36071">
        <ele>106.3</ele>
        <time>2015-04-27T18:36:35.879Z</time>
      </trkpt>
      <trkpt lat="48.83544" lon="2.36077">
        <ele>106.3</ele>
        <time>2015-04-27T18:36:36.893Z</time>
      </trkpt>
      <trkpt lat="48.83539" lon="2.36082">
        <ele>106.2</ele>
        <time>2015-04-27T18:36:37.909Z</time>
      </trkpt>
      <trkpt lat="48.83535" lon="2.36088">
        <ele>106.3</ele>
        <time>2015-04-27T18:36:38.927Z</time>
      </trkpt>
      <trkpt lat="48.83531" lon="2.36094">
        <ele>106.2</ele>
        <time>2015-04-27T18:36:39.953Z</time>
      </trkpt>
      <trkpt lat="48.83528" lon="2.36101">
        <ele>106.2</ele>
        <time>2015-04-27T18:36:40.968Z</time>
      </trkpt>
      <trkpt lat="48.83525" lon="2.36108">
        <ele>106.2</ele>
        <time>2015-04-27T18:36:41.883Z</time>
      </trkpt>
      <trkpt lat="48.83522" lon="2.36116">
        <ele>106.1</ele>
        <time>2015-04-27T18:36:42.888Z</time>
      </trkpt>
      <trkpt lat="48.83519" lon="2.36124">
        <ele>106.1</ele>
        <time>2015-04-27T18:36:43.908Z</time>
      </trkpt>
      <trkpt lat="48.83515" lon="2.36132">
        <ele>105.7</ele>
        <time>2015-04-27T18:36:44.917Z</time>
      </trkpt>
      <trkpt lat="48.83511" lon="2.3614">
        <ele>105.5</ele>
        <time>2015-04-27T18:36:45.916Z</time>
      </trkpt>
      <trkpt lat="48.83506" lon="2.36148">
        <ele>105.4</ele>
        <time>2015-04-27T18:36:46.920Z</time>
      </trkpt>
      <trkpt lat="48.83502" lon="2.36156">
        <ele>105.6</ele>
        <time>2015-04-27T18:36:47.928Z</time>
      </trkpt>
      <trkpt lat="48.83497" lon="2.36163">
        <ele>105.7</ele>
        <time>2015-04-27T18:36:48.936Z</time>
      </trkpt>
      <trkpt lat="48.83493" lon="2.36171">
        <ele>105.9</ele>
        <time>2015-04-27T18:36:49.936Z</time>
      </trkpt>
      <trkpt lat="48.83484" lon="2.36179">
        <ele>104.6</ele>
        <time>2015-04-27T18:36:50.945Z</time>
      </trkpt>
      <trkpt lat="48.83477" lon="2.36186">
        <ele>104</ele>
        <time>2015-04-27T18:36:51.986Z</time>
      </trkpt>
      <trkpt lat="48.8347" lon="2.36192">
        <ele>103.7</ele>
        <time>2015-04-27T18:36:52.857Z</time>
      </trkpt>
      <trkpt lat="48.83464" lon="2.36198">
        <ele>104.1</ele>
        <time>2015-04-27T18:36:53.884Z</time>
      </trkpt>
      <trkpt lat="48.83459" lon="2.36204">
        <ele>104.3</ele>
        <time>2015-04-27T18:36:54.894Z</time>
      </trkpt>
      <trkpt lat="48.83454" lon="2.36211">
        <ele>104.4</ele>
        <time>2015-04-27T18:36:55.920Z</time>
      </trkpt>
      <trkpt lat="48.83449" lon="2.36218">
        <ele>104.4</ele>
        <time>2015-04-27T18:36:56.927Z</time>
      </trkpt>
      <trkpt lat="48.83445" lon="2.36225">
        <ele>104.5</ele>
        <time>2015-04-27T18:36:58.184Z</time>
      </trkpt>
      <trkpt lat="48.8344" lon="2.36233">
        <ele>104.6</ele>
        <time>2015-04-27T18:36:58.960Z</time>
      </trkpt>
      <trkpt lat="48.83435" lon="2.3624">
        <ele>104.7</ele>
        <time>2015-04-27T18:36:59.876Z</time>
      </trkpt>
      <trkpt lat="48.8343" lon="2.36247">
        <ele>104.7</ele>
        <time>2015-04-27T18:37:00.889Z</time>
      </trkpt>
      <trkpt lat="48.83425" lon="2.36255">
        <ele>104.5</ele>
        <time>2015-04-27T18:37:01.903Z</time>
      </trkpt>
      <trkpt lat="48.8342" lon="2.36261">
        <ele>104.3</ele>
        <time>2015-04-27T18:37:02.915Z</time>
      </trkpt>
      <trkpt lat="48.83417" lon="2.36269">
        <ele>104.2</ele>
        <time>2015-04-27T18:37:03.926Z</time>
      </trkpt>
      <trkpt lat="48.83414" lon="2.36275">
        <ele>104</ele>
        <time>2015-04-27T18:37:04.938Z</time>
      </trkpt>
      <trkpt lat="48.83411" lon="2.36282">
        <ele>103.8</ele>
        <time>2015-04-27T18:37:05.868Z</time>
      </trkpt>
      <trkpt lat="48.83407" lon="2.36289">
        <ele>103.7</ele>
        <time>2015-04-27T18:37:06.901Z</time>
      </trkpt>
      <trkpt lat="48.83403" lon="2.36296">
        <ele>103.5</ele>
        <time>2015-04-27T18:37:07.938Z</time>
      </trkpt>
      <trkpt lat="48.83398" lon="2.36302">
        <ele>102.9</ele>
        <time>2015-04-27T18:37:08.944Z</time>
      </trkpt>
      <trkpt lat="48.83393" lon="2.36307">
        <ele>102.7</ele>
        <time>2015-04-27T18:37:09.987Z</time>
      </trkpt>
      <trkpt lat="48.83387" lon="2.36313">
        <ele>102.2</ele>
        <time>2015-04-27T18:37:10.980Z</time>
      </trkpt>
      <trkpt lat="48.83382" lon="2.36318">
        <ele>102</ele>
        <time>2015-04-27T18:37:11.877Z</time>
      </trkpt>
      <trkpt lat="48.83378" lon="2.36323">
        <ele>101.9</ele>
        <time>2015-04-27T18:37:12.885Z</time>
      </trkpt>
      <trkpt lat="48.83373" lon="2.36327">
        <ele>101.8</ele>
        <time>2015-04-27T18:37:13.936Z</time>
      </trkpt>
      <trkpt lat="48.8337" lon="2.36331">
        <ele>101.8</ele>
        <time>2015-04-27T18:37:14.958Z</time>
      </trkpt>
      <trkpt lat="48.83363" lon="2.36339">
        <ele>101.8</ele>
        <time>2015-04-27T18:37:16.883Z</time>
      </trkpt>
      <trkpt lat="48.83361" lon="2.36342">
        <ele>102.1</ele>
        <time>2015-04-27T18:37:17.878Z</time>
      </trkpt>
      <trkpt lat="48.83361" lon="2.36351">
        <ele>103.2</ele>
        <time>2015-04-27T18:37:22.940Z</time>
      </trkpt>
      <trkpt lat="48.83361" lon="2.36351">
        <ele>104.5</ele>
        <time>2015-04-27T18:37:23.970Z</time>
      </trkpt>
      <trkpt lat="48.83361" lon="2.36352">
        <ele>105.1</ele>
        <time>2015-04-27T18:37:28.946Z</time>
      </trkpt>
      <trkpt lat="48.8336" lon="2.3635">
        <ele>104.8</ele>
        <time>2015-04-27T18:37:29.983Z</time>
      </trkpt>
      <trkpt lat="48.83359" lon="2.36348">
        <ele>103.8</ele>
        <time>2015-04-27T18:37:30.916Z</time>
      </trkpt>
      <trkpt lat="48.83358" lon="2.36346">
        <ele>103.3</ele>
        <time>2015-04-27T18:37:31.925Z</time>
      </trkpt>
      <trkpt lat="48.83358" lon="2.36346">
        <ele>103.3</ele>
        <time>2015-04-27T18:37:37.987Z</time>
      </trkpt>
      <trkpt lat="48.83355" lon="2.36345">
        <ele>103.5</ele>
        <time>2015-04-27T18:37:38.918Z</time>
      </trkpt>
      <trkpt lat="48.8335" lon="2.36346">
        <ele>103.7</ele>
        <time>2015-04-27T18:37:40.941Z</time>
      </trkpt>
      <trkpt lat="48.83346" lon="2.36349">
        <ele>103.7</ele>
        <time>2015-04-27T18:37:41.962Z</time>
      </trkpt>
      <trkpt lat="48.83342" lon="2.36352">
        <ele>103.9</ele>
        <time>2015-04-27T18:37:42.899Z</time>
      </trkpt>
      <trkpt lat="48.83338" lon="2.36357">
        <ele>104.2</ele>
        <time>2015-04-27T18:37:43.902Z</time>
      </trkpt>
      <trkpt lat="48.83333" lon="2.36362">
        <ele>104.2</ele>
        <time>2015-04-27T18:37:44.924Z</time>
      </trkpt>
      <trkpt lat="48.83327" lon="2.36368">
        <ele>104.1</ele>
        <time>2015-04-27T18:37:45.940Z</time>
      </trkpt>
      <trkpt lat="48.83322" lon="2.36373">
        <ele>104.2</ele>
        <time>2015-04-27T18:37:46.947Z</time>
      </trkpt>
      <trkpt lat="48.83317" lon="2.36379">
        <ele>104.3</ele>
        <time>2015-04-27T18:37:47.978Z</time>
      </trkpt>
      <trkpt lat="48.83312" lon="2.36385">
        <ele>104.4</ele>
        <time>2015-04-27T18:37:48.894Z</time>
      </trkpt>
      <trkpt lat="48.83307" lon="2.36392">
        <ele>104.4</ele>
        <time>2015-04-27T18:37:49.905Z</time>
      </trkpt>
      <trkpt lat="48.83302" lon="2.36401">
        <ele>104.4</ele>
        <time>2015-04-27T18:37:50.974Z</time>
      </trkpt>
      <trkpt lat="48.83298" lon="2.36409">
        <ele>104.2</ele>
        <time>2015-04-27T18:37:52.060Z</time>
      </trkpt>
      <trkpt lat="48.83293" lon="2.36416">
        <ele>104.1</ele>
        <time>2015-04-27T18:37:52.881Z</time>
      </trkpt>
      <trkpt lat="48.83289" lon="2.36421">
        <ele>104.1</ele>
        <time>2015-04-27T18:37:53.895Z</time>
      </trkpt>
      <trkpt lat="48.83284" lon="2.36428">
        <ele>104.2</ele>
        <time>2015-04-27T18:37:54.926Z</time>
      </trkpt>
      <trkpt lat="48.83279" lon="2.36436">
        <ele>104.3</ele>
        <time>2015-04-27T18:37:55.931Z</time>
      </trkpt>
      <trkpt lat="48.83275" lon="2.36446">
        <ele>104.3</ele>
        <time>2015-04-27T18:37:56.950Z</time>
      </trkpt>
      <trkpt lat="48.8327" lon="2.36454">
        <ele>104.3</ele>
        <time>2015-04-27T18:37:57.977Z</time>
      </trkpt>
      <trkpt lat="48.83263" lon="2.36462">
        <ele>104.2</ele>
        <time>2015-04-27T18:37:58.894Z</time>
      </trkpt>
      <trkpt lat="48.83257" lon="2.3647">
        <ele>104</ele>
        <time>2015-04-27T18:37:59.892Z</time>
      </trkpt>
      <trkpt lat="48.83251" lon="2.36477">
        <ele>104</ele>
        <time>2015-04-27T18:38:00.935Z</time>
      </trkpt>
      <trkpt lat="48.83245" lon="2.36485">
        <ele>104.1</ele>
        <time>2015-04-27T18:38:01.958Z</time>
      </trkpt>
      <trkpt lat="48.83239" lon="2.36492">
        <ele>104.3</ele>
        <time>2015-04-27T18:38:02.973Z</time>
      </trkpt>
      <trkpt lat="48.83233" lon="2.36499">
        <ele>104.5</ele>
        <time>2015-04-27T18:38:03.981Z</time>
      </trkpt>
      <trkpt lat="48.83227" lon="2.36507">
        <ele>104.7</ele>
        <time>2015-04-27T18:38:05.001Z</time>
      </trkpt>
      <trkpt lat="48.83222" lon="2.36514">
        <ele>104.8</ele>
        <time>2015-04-27T18:38:05.874Z</time>
      </trkpt>
      <trkpt lat="48.83217" lon="2.36521">
        <ele>105</ele>
        <time>2015-04-27T18:38:06.896Z</time>
      </trkpt>
      <trkpt lat="48.83211" lon="2.36528">
        <ele>105.2</ele>
        <time>2015-04-27T18:38:07.912Z</time>
      </trkpt>
      <trkpt lat="48.83206" lon="2.36536">
        <ele>105.3</ele>
        <time>2015-04-27T18:38:08.871Z</time>
      </trkpt>
      <trkpt lat="48.83201" lon="2.36545">
        <ele>105.4</ele>
        <time>2015-04-27T18:38:09.979Z</time>
      </trkpt>
      <trkpt lat="48.83197" lon="2.36553">
        <ele>105.5</ele>
        <time>2015-04-27T18:38:10.868Z</time>
      </trkpt>
      <trkpt lat="48.83193" lon="2.3656">
        <ele>105.7</ele>
        <time>2015-04-27T18:38:11.869Z</time>
      </trkpt>
      <trkpt lat="48.8319" lon="2.36567">
        <ele>105.8</ele>
        <time>2015-04-27T18:38:12.934Z</time>
      </trkpt>
      <trkpt lat="48.83187" lon="2.36574">
        <ele>105.8</ele>
        <time>2015-04-27T18:38:13.919Z</time>
      </trkpt>
      <trkpt lat="48.83183" lon="2.3658">
        <ele>106</ele>
        <time>2015-04-27T18:38:14.875Z</time>
      </trkpt>
      <trkpt lat="48.83179" lon="2.36586">
        <ele>106</ele>
        <time>2015-04-27T18:38:15.905Z</time>
      </trkpt>
      <trkpt lat="48.83175" lon="2.36593">
        <ele>105.9</ele>
        <time>2015-04-27T18:38:16.914Z</time>
      </trkpt>
      <trkpt lat="48.83171" lon="2.36598">
        <ele>105.7</ele>
        <time>2015-04-27T18:38:17.925Z</time>
      </trkpt>
      <trkpt lat="48.83166" lon="2.36605">
        <ele>105.3</ele>
        <time>2015-04-27T18:38:18.953Z</time>
      </trkpt>
      <trkpt lat="48.83162" lon="2.36612">
        <ele>105.3</ele>
        <time>2015-04-27T18:38:19.868Z</time>
      </trkpt>
      <trkpt lat="48.83158" lon="2.36617">
        <ele>105.4</ele>
        <time>2015-04-27T18:38:20.883Z</time>
      </trkpt>
      <trkpt lat="48.83155" lon="2.36622">
        <ele>105.6</ele>
        <time>2015-04-27T18:38:21.907Z</time>
      </trkpt>
      <trkpt lat="48.83152" lon="2.36628">
        <ele>106.2</ele>
        <time>2015-04-27T18:38:22.924Z</time>
      </trkpt>
      <trkpt lat="48.83151" lon="2.36635">
        <ele>107</ele>
        <time>2015-04-27T18:38:23.936Z</time>
      </trkpt>
      <trkpt lat="48.83151" lon="2.36645">
        <ele>107.1</ele>
        <time>2015-04-27T18:38:25.962Z</time>
      </trkpt>
      <trkpt lat="48.83152" lon="2.36651">
        <ele>106.6</ele>
        <time>2015-04-27T18:38:26.975Z</time>
      </trkpt>
      <trkpt lat="48.83156" lon="2.3666">
        <ele>106.1</ele>
        <time>2015-04-27T18:38:28.889Z</time>
      </trkpt>
      <trkpt lat="48.83158" lon="2.36664">
        <ele>105.6</ele>
        <time>2015-04-27T18:38:29.900Z</time>
      </trkpt>
      <trkpt lat="48.83165" lon="2.3667">
        <ele>105.6</ele>
        <time>2015-04-27T18:38:31.931Z</time>
      </trkpt>
      <trkpt lat="48.83168" lon="2.36674">
        <ele>105.7</ele>
        <time>2015-04-27T18:38:32.964Z</time>
      </trkpt>
      <trkpt lat="48.83171" lon="2.36678">
        <ele>105.7</ele>
        <time>2015-04-27T18:38:34.014Z</time>
      </trkpt>
      <trkpt lat="48.83175" lon="2.36683">
        <ele>105.8</ele>
        <time>2015-04-27T18:38:34.890Z</time>
      </trkpt>
      <trkpt lat="48.83179" lon="2.36688">
        <ele>105.7</ele>
        <time>2015-04-27T18:38:35.895Z</time>
      </trkpt>
      <trkpt lat="48.83184" lon="2.36693">
        <ele>105.5</ele>
        <time>2015-04-27T18:38:36.905Z</time>
      </trkpt>
      <trkpt lat="48.83188" lon="2.36698">
        <ele>105.6</ele>
        <time>2015-04-27T18:38:37.920Z</time>
      </trkpt>
      <trkpt lat="48.83192" lon="2.36703">
        <ele>105.5</ele>
        <time>2015-04-27T18:38:38.928Z</time>
      </trkpt>
      <trkpt lat="48.83196" lon="2.36709">
        <ele>105.3</ele>
        <time>2015-04-27T18:38:39.943Z</time>
      </trkpt>
      <trkpt lat="48.83199" lon="2.36714">
        <ele>105.1</ele>
        <time>2015-04-27T18:38:40.953Z</time>
      </trkpt>
      <trkpt lat="48.83203" lon="2.36719">
        <ele>105.2</ele>
        <time>2015-04-27T18:38:41.874Z</time>
      </trkpt>
      <trkpt lat="48.83207" lon="2.36723">
        <ele>105.3</ele>
        <time>2015-04-27T18:38:42.881Z</time>
      </trkpt>
      <trkpt lat="48.83211" lon="2.36727">
        <ele>105.1</ele>
        <time>2015-04-27T18:38:43.883Z</time>
      </trkpt>
      <trkpt lat="48.83215" lon="2.36732">
        <ele>105</ele>
        <time>2015-04-27T18:38:44.892Z</time>
      </trkpt>
      <trkpt lat="48.83218" lon="2.36736">
        <ele>104.9</ele>
        <time>2015-04-27T18:38:45.939Z</time>
      </trkpt>
      <trkpt lat="48.83222" lon="2.36742">
        <ele>104.6</ele>
        <time>2015-04-27T18:38:46.951Z</time>
      </trkpt>
      <trkpt lat="48.83225" lon="2.36747">
        <ele>104.5</ele>
        <time>2015-04-27T18:38:48.021Z</time>
      </trkpt>
      <trkpt lat="48.83228" lon="2.36754">
        <ele>104.7</ele>
        <time>2015-04-27T18:38:48.887Z</time>
      </trkpt>
      <trkpt lat="48.8323" lon="2.36761">
        <ele>104.6</ele>
        <time>2015-04-27T18:38:49.880Z</time>
      </trkpt>
      <trkpt lat="48.83232" lon="2.36767">
        <ele>104.4</ele>
        <time>2015-04-27T18:38:50.900Z</time>
      </trkpt>
      <trkpt lat="48.83236" lon="2.36773">
        <ele>103.6</ele>
        <time>2015-04-27T18:38:51.921Z</time>
      </trkpt>
      <trkpt lat="48.83239" lon="2.36779">
        <ele>103.2</ele>
        <time>2015-04-27T18:38:52.930Z</time>
      </trkpt>
      <trkpt lat="48.83242" lon="2.36786">
        <ele>102.7</ele>
        <time>2015-04-27T18:38:53.931Z</time>
      </trkpt>
      <trkpt lat="48.83245" lon="2.36793">
        <ele>101.8</ele>
        <time>2015-04-27T18:38:54.938Z</time>
      </trkpt>
      <trkpt lat="48.83248" lon="2.36799">
        <ele>101.4</ele>
        <time>2015-04-27T18:38:55.946Z</time>
      </trkpt>
      <trkpt lat="48.83251" lon="2.36806">
        <ele>101.6</ele>
        <time>2015-04-27T18:38:56.962Z</time>
      </trkpt>
      <trkpt lat="48.83252" lon="2.36813">
        <ele>101.7</ele>
        <time>2015-04-27T18:38:57.958Z</time>
      </trkpt>
      <trkpt lat="48.83255" lon="2.36821">
        <ele>101.9</ele>
        <time>2015-04-27T18:38:58.964Z</time>
      </trkpt>
      <trkpt lat="48.83258" lon="2.36826">
        <ele>102</ele>
        <time>2015-04-27T18:38:59.882Z</time>
      </trkpt>
      <trkpt lat="48.83262" lon="2.3683">
        <ele>102.3</ele>
        <time>2015-04-27T18:39:00.896Z</time>
      </trkpt>
      <trkpt lat="48.83269" lon="2.36837">
        <ele>102.6</ele>
        <time>2015-04-27T18:39:02.942Z</time>
      </trkpt>
      <trkpt lat="48.83271" lon="2.36842">
        <ele>103</ele>
        <time>2015-04-27T18:39:03.986Z</time>
      </trkpt>
      <trkpt lat="48.83277" lon="2.36849">
        <ele>103.5</ele>
        <time>2015-04-27T18:39:05.876Z</time>
      </trkpt>
      <trkpt lat="48.83281" lon="2.36851">
        <ele>103.6</ele>
        <time>2015-04-27T18:39:06.904Z</time>
      </trkpt>
      <trkpt lat="48.83286" lon="2.36853">
        <ele>103.3</ele>
        <time>2015-04-27T18:39:07.906Z</time>
      </trkpt>
      <trkpt lat="48.83291" lon="2.36854">
        <ele>103.1</ele>
        <time>2015-04-27T18:39:08.933Z</time>
      </trkpt>
      <trkpt lat="48.83296" lon="2.36855">
        <ele>102.9</ele>
        <time>2015-04-27T18:39:09.966Z</time>
      </trkpt>
      <trkpt lat="48.83302" lon="2.36855">
        <ele>102.7</ele>
        <time>2015-04-27T18:39:10.866Z</time>
      </trkpt>
      <trkpt lat="48.83309" lon="2.36862">
        <ele>103.8</ele>
        <time>2015-04-27T18:39:12.970Z</time>
      </trkpt>
      <trkpt lat="48.83311" lon="2.36867">
        <ele>104.2</ele>
        <time>2015-04-27T18:39:13.896Z</time>
      </trkpt>
      <trkpt lat="48.83313" lon="2.36875">
        <ele>104.6</ele>
        <time>2015-04-27T18:39:14.944Z</time>
      </trkpt>
      <trkpt lat="48.83316" lon="2.36882">
        <ele>105.1</ele>
        <time>2015-04-27T18:39:15.956Z</time>
      </trkpt>
      <trkpt lat="48.8332" lon="2.36887">
        <ele>105.5</ele>
        <time>2015-04-27T18:39:16.870Z</time>
      </trkpt>
      <trkpt lat="48.83323" lon="2.36893">
        <ele>105.9</ele>
        <time>2015-04-27T18:39:17.867Z</time>
      </trkpt>
      <trkpt lat="48.83326" lon="2.36898">
        <ele>105.7</ele>
        <time>2015-04-27T18:39:18.919Z</time>
      </trkpt>
      <trkpt lat="48.8333" lon="2.36901">
        <ele>105.2</ele>
        <time>2015-04-27T18:39:19.958Z</time>
      </trkpt>
      <trkpt lat="48.83332" lon="2.36908">
        <ele>105.1</ele>
        <time>2015-04-27T18:39:20.871Z</time>
      </trkpt>
      <trkpt lat="48.83332" lon="2.36917">
        <ele>105.5</ele>
        <time>2015-04-27T18:39:21.969Z</time>
      </trkpt>
      <trkpt lat="48.83332" lon="2.36924">
        <ele>106.1</ele>
        <time>2015-04-27T18:39:22.884Z</time>
      </trkpt>
      <trkpt lat="48.83333" lon="2.36931">
        <ele>106.6</ele>
        <time>2015-04-27T18:39:23.891Z</time>
      </trkpt>
      <trkpt lat="48.83332" lon="2.36944">
        <ele>107.7</ele>
        <time>2015-04-27T18:39:25.955Z</time>
      </trkpt>
      <trkpt lat="48.83332" lon="2.3695">
        <ele>108.1</ele>
        <time>2015-04-27T18:39:26.969Z</time>
      </trkpt>
      <trkpt lat="48.83334" lon="2.36961">
        <ele>109.5</ele>
        <time>2015-04-27T18:39:28.919Z</time>
      </trkpt>
      <trkpt lat="48.83335" lon="2.36965">
        <ele>109.8</ele>
        <time>2015-04-27T18:39:29.951Z</time>
      </trkpt>
      <trkpt lat="48.83339" lon="2.36972">
        <ele>110.3</ele>
        <time>2015-04-27T18:39:31.940Z</time>
      </trkpt>
      <trkpt lat="48.83342" lon="2.36976">
        <ele>110.5</ele>
        <time>2015-04-27T18:39:32.940Z</time>
      </trkpt>
      <trkpt lat="48.83344" lon="2.36981">
        <ele>110.8</ele>
        <time>2015-04-27T18:39:33.968Z</time>
      </trkpt>
      <trkpt lat="48.83348" lon="2.36989">
        <ele>108.2</ele>
        <time>2015-04-27T18:39:34.861Z</time>
      </trkpt>
      <trkpt lat="48.83351" lon="2.36996">
        <ele>107.2</ele>
        <time>2015-04-27T18:39:35.893Z</time>
      </trkpt>
      <trkpt lat="48.83353" lon="2.37003">
        <ele>106.2</ele>
        <time>2015-04-27T18:39:36.898Z</time>
      </trkpt>
      <trkpt lat="48.83356" lon="2.37014">
        <ele>104.9</ele>
        <time>2015-04-27T18:39:38.921Z</time>
      </trkpt>
      <trkpt lat="48.83357" lon="2.3702">
        <ele>104.9</ele>
        <time>2015-04-27T18:39:39.905Z</time>
      </trkpt>
      <trkpt lat="48.83356" lon="2.37033">
        <ele>104.4</ele>
        <time>2015-04-27T18:39:42.890Z</time>
      </trkpt>
      <trkpt lat="48.83354" lon="2.37034">
        <ele>104.5</ele>
        <time>2015-04-27T18:39:43.899Z</time>
      </trkpt>
      <trkpt lat="48.83347" lon="2.37038">
        <ele>104.5</ele>
        <time>2015-04-27T18:39:46.933Z</time>
      </trkpt>
      <trkpt lat="48.83343" lon="2.3704">
        <ele>104.5</ele>
        <time>2015-04-27T18:39:47.864Z</time>
      </trkpt>
      <trkpt lat="48.83336" lon="2.37047">
        <ele>104.5</ele>
        <time>2015-04-27T18:39:49.899Z</time>
      </trkpt>
      <trkpt lat="48.83332" lon="2.37052">
        <ele>104.5</ele>
        <time>2015-04-27T18:39:50.910Z</time>
      </trkpt>
      <trkpt lat="48.83327" lon="2.3706">
        <ele>104.6</ele>
        <time>2015-04-27T18:39:52.934Z</time>
      </trkpt>
      <trkpt lat="48.83324" lon="2.37065">
        <ele>104.8</ele>
        <time>2015-04-27T18:39:53.943Z</time>
      </trkpt>
      <trkpt lat="48.8332" lon="2.37074">
        <ele>104.9</ele>
        <time>2015-04-27T18:39:55.871Z</time>
      </trkpt>
      <trkpt lat="48.83318" lon="2.37079">
        <ele>105</ele>
        <time>2015-04-27T18:39:56.862Z</time>
      </trkpt>
      <trkpt lat="48.83314" lon="2.37087">
        <ele>105.1</ele>
        <time>2015-04-27T18:39:58.900Z</time>
      </trkpt>
      <trkpt lat="48.83311" lon="2.3709">
        <ele>105.1</ele>
        <time>2015-04-27T18:39:59.932Z</time>
      </trkpt>
      <trkpt lat="48.83306" lon="2.37096">
        <ele>105.3</ele>
        <time>2015-04-27T18:40:01.951Z</time>
      </trkpt>
      <trkpt lat="48.83302" lon="2.37098">
        <ele>105.3</ele>
        <time>2015-04-27T18:40:02.881Z</time>
      </trkpt>
      <trkpt lat="48.83299" lon="2.37103">
        <ele>105</ele>
        <time>2015-04-27T18:40:03.908Z</time>
      </trkpt>
      <trkpt lat="48.83291" lon="2.37106">
        <ele>104</ele>
        <time>2015-04-27T18:40:04.906Z</time>
      </trkpt>
      <trkpt lat="48.83284" lon="2.3711">
        <ele>102.9</ele>
        <time>2015-04-27T18:40:05.867Z</time>
      </trkpt>
      <trkpt lat="48.83279" lon="2.37114">
        <ele>102.2</ele>
        <time>2015-04-27T18:40:06.875Z</time>
      </trkpt>
      <trkpt lat="48.83275" lon="2.37119">
        <ele>101.8</ele>
        <time>2015-04-27T18:40:07.903Z</time>
      </trkpt>
      <trkpt lat="48.83272" lon="2.37125">
        <ele>101.6</ele>
        <time>2015-04-27T18:40:08.907Z</time>
      </trkpt>
      <trkpt lat="48.8327" lon="2.37133">
        <ele>101.3</ele>
        <time>2015-04-27T18:40:09.913Z</time>
      </trkpt>
      <trkpt lat="48.83268" lon="2.3714">
        <ele>101.1</ele>
        <time>2015-04-27T18:40:10.915Z</time>
      </trkpt>
      <trkpt lat="48.83265" lon="2.37147">
        <ele>100.9</ele>
        <time>2015-04-27T18:40:11.920Z</time>
      </trkpt>
      <trkpt lat="48.83262" lon="2.37153">
        <ele>100.6</ele>
        <time>2015-04-27T18:40:12.936Z</time>
      </trkpt>
      <trkpt lat="48.83258" lon="2.37158">
        <ele>99.9</ele>
        <time>2015-04-27T18:40:13.857Z</time>
      </trkpt>
      <trkpt lat="48.83254" lon="2.37164">
        <ele>99.4</ele>
        <time>2015-04-27T18:40:14.864Z</time>
      </trkpt>
      <trkpt lat="48.8325" lon="2.3717">
        <ele>98.9</ele>
        <time>2015-04-27T18:40:15.888Z</time>
      </trkpt>
      <trkpt lat="48.83246" lon="2.37175">
        <ele>98.6</ele>
        <time>2015-04-27T18:40:16.892Z</time>
      </trkpt>
      <trkpt lat="48.83242" lon="2.3718">
        <ele>98.3</ele>
        <time>2015-04-27T18:40:17.915Z</time>
      </trkpt>
      <trkpt lat="48.83239" lon="2.37185">
        <ele>98</ele>
        <time>2015-04-27T18:40:18.919Z</time>
      </trkpt>
      <trkpt lat="48.83234" lon="2.3719">
        <ele>97.7</ele>
        <time>2015-04-27T18:40:19.922Z</time>
      </trkpt>
      <trkpt lat="48.83231" lon="2.37195">
        <ele>97.5</ele>
        <time>2015-04-27T18:40:20.927Z</time>
      </trkpt>
      <trkpt lat="48.83225" lon="2.37204">
        <ele>97.1</ele>
        <time>2015-04-27T18:40:22.838Z</time>
      </trkpt>
      <trkpt lat="48.83221" lon="2.37209">
        <ele>96.9</ele>
        <time>2015-04-27T18:40:23.920Z</time>
      </trkpt>
      <trkpt lat="48.83215" lon="2.37217">
        <ele>96.5</ele>
        <time>2015-04-27T18:40:25.853Z</time>
      </trkpt>
      <trkpt lat="48.83212" lon="2.37221">
        <ele>96.3</ele>
        <time>2015-04-27T18:40:26.905Z</time>
      </trkpt>
      <trkpt lat="48.83206" lon="2.37229">
        <ele>96.1</ele>
        <time>2015-04-27T18:40:28.842Z</time>
      </trkpt>
      <trkpt lat="48.83203" lon="2.37233">
        <ele>96</ele>
        <time>2015-04-27T18:40:29.935Z</time>
      </trkpt>
      <trkpt lat="48.83198" lon="2.37241">
        <ele>95.7</ele>
        <time>2015-04-27T18:40:31.865Z</time>
      </trkpt>
      <trkpt lat="48.83195" lon="2.37245">
        <ele>95.6</ele>
        <time>2015-04-27T18:40:32.977Z</time>
      </trkpt>
      <trkpt lat="48.8319" lon="2.37253">
        <ele>95.2</ele>
        <time>2015-04-27T18:40:34.866Z</time>
      </trkpt>
      <trkpt lat="48.83187" lon="2.37257">
        <ele>95.4</ele>
        <time>2015-04-27T18:40:35.970Z</time>
      </trkpt>
      <trkpt lat="48.83183" lon="2.37268">
        <ele>96.2</ele>
        <time>2015-04-27T18:40:38.011Z</time>
      </trkpt>
      <trkpt lat="48.8318" lon="2.37274">
        <ele>96.7</ele>
        <time>2015-04-27T18:40:38.920Z</time>
      </trkpt>
      <trkpt lat="48.83175" lon="2.37284">
        <ele>97.3</ele>
        <time>2015-04-27T18:40:40.969Z</time>
      </trkpt>
      <trkpt lat="48.83172" lon="2.3729">
        <ele>97.3</ele>
        <time>2015-04-27T18:40:42.019Z</time>
      </trkpt>
      <trkpt lat="48.83168" lon="2.37301">
        <ele>97.4</ele>
        <time>2015-04-27T18:40:43.930Z</time>
      </trkpt>
      <trkpt lat="48.83165" lon="2.37306">
        <ele>98</ele>
        <time>2015-04-27T18:40:44.940Z</time>
      </trkpt>
      <trkpt lat="48.83162" lon="2.37312">
        <ele>98.2</ele>
        <time>2015-04-27T18:40:45.945Z</time>
      </trkpt>
      <trkpt lat="48.83159" lon="2.37318">
        <ele>98</ele>
        <time>2015-04-27T18:40:46.974Z</time>
      </trkpt>
      <trkpt lat="48.83157" lon="2.37324">
        <ele>97.7</ele>
        <time>2015-04-27T18:40:47.901Z</time>
      </trkpt>
      <trkpt lat="48.83155" lon="2.37331">
        <ele>97.5</ele>
        <time>2015-04-27T18:40:48.907Z</time>
      </trkpt>
      <trkpt lat="48.83152" lon="2.37337">
        <ele>97.3</ele>
        <time>2015-04-27T18:40:49.929Z</time>
      </trkpt>
      <trkpt lat="48.8315" lon="2.37343">
        <ele>97.1</ele>
        <time>2015-04-27T18:40:50.935Z</time>
      </trkpt>
      <trkpt lat="48.83147" lon="2.37348">
        <ele>97</ele>
        <time>2015-04-27T18:40:51.951Z</time>
      </trkpt>
      <trkpt lat="48.83144" lon="2.37354">
        <ele>97</ele>
        <time>2015-04-27T18:40:52.968Z</time>
      </trkpt>
      <trkpt lat="48.83139" lon="2.37365">
        <ele>97</ele>
        <time>2015-04-27T18:40:54.883Z</time>
      </trkpt>
      <trkpt lat="48.83137" lon="2.3737">
        <ele>97</ele>
        <time>2015-04-27T18:40:55.883Z</time>
      </trkpt>
      <trkpt lat="48.83131" lon="2.37378">
        <ele>96.8</ele>
        <time>2015-04-27T18:40:57.903Z</time>
      </trkpt>
      <trkpt lat="48.83129" lon="2.37382">
        <ele>96.8</ele>
        <time>2015-04-27T18:40:58.915Z</time>
      </trkpt>
      <trkpt lat="48.83124" lon="2.37391">
        <ele>96.8</ele>
        <time>2015-04-27T18:41:00.939Z</time>
      </trkpt>
      <trkpt lat="48.83121" lon="2.37395">
        <ele>96.9</ele>
        <time>2015-04-27T18:41:01.945Z</time>
      </trkpt>
      <trkpt lat="48.83117" lon="2.37403">
        <ele>97.1</ele>
        <time>2015-04-27T18:41:03.994Z</time>
      </trkpt>
      <trkpt lat="48.83115" lon="2.37407">
        <ele>97.2</ele>
        <time>2015-04-27T18:41:04.897Z</time>
      </trkpt>
      <trkpt lat="48.83112" lon="2.37416">
        <ele>98.8</ele>
        <time>2015-04-27T18:41:06.922Z</time>
      </trkpt>
      <trkpt lat="48.8311" lon="2.3742">
        <ele>98.6</ele>
        <time>2015-04-27T18:41:07.934Z</time>
      </trkpt>
      <trkpt lat="48.83107" lon="2.37432">
        <ele>98.2</ele>
        <time>2015-04-27T18:41:11.915Z</time>
      </trkpt>
      <trkpt lat="48.83107" lon="2.37434">
        <ele>98.3</ele>
        <time>2015-04-27T18:41:12.961Z</time>
      </trkpt>
      <trkpt lat="48.83105" lon="2.37437">
        <ele>98.4</ele>
        <time>2015-04-27T18:41:21.936Z</time>
      </trkpt>
      <trkpt lat="48.83105" lon="2.37437">
        <ele>98.5</ele>
        <time>2015-04-27T18:41:22.957Z</time>
      </trkpt>
      <trkpt lat="48.83104" lon="2.37437">
        <ele>98.8</ele>
        <time>2015-04-27T18:41:25.931Z</time>
      </trkpt>
      <trkpt lat="48.83102" lon="2.37438">
        <ele>99.5</ele>
        <time>2015-04-27T18:41:26.931Z</time>
      </trkpt>
      <trkpt lat="48.83102" lon="2.37441">
        <ele>99.8</ele>
        <time>2015-04-27T18:41:32.950Z</time>
      </trkpt>
      <trkpt lat="48.83102" lon="2.37441">
        <ele>99.8</ele>
        <time>2015-04-27T18:41:33.949Z</time>
      </trkpt>
      <trkpt lat="48.83102" lon="2.37441">
        <ele>99.8</ele>
        <time>2015-04-27T18:41:56.975Z</time>
      </trkpt>
      <trkpt lat="48.83109" lon="2.37448">
        <ele>102.7</ele>
        <time>2015-04-27T18:41:57.989Z</time>
      </trkpt>
      <trkpt lat="48.8311" lon="2.3745">
        <ele>102.6</ele>
        <time>2015-04-27T18:41:59.913Z</time>
      </trkpt>
      <trkpt lat="48.8311" lon="2.3745">
        <ele>102.6</ele>
        <time>2015-04-27T18:42:00.924Z</time>
      </trkpt>
      <trkpt lat="48.8311" lon="2.37451">
        <ele>102.6</ele>
        <time>2015-04-27T18:42:19.040Z</time>
      </trkpt>
      <trkpt lat="48.83111" lon="2.37461">
        <ele>101.9</ele>
        <time>2015-04-27T18:42:20.042Z</time>
      </trkpt>
      <trkpt lat="48.83113" lon="2.37465">
        <ele>102.4</ele>
        <time>2015-04-27T18:42:23.935Z</time>
      </trkpt>
      <trkpt lat="48.83113" lon="2.37465">
        <ele>102.6</ele>
        <time>2015-04-27T18:42:24.929Z</time>
      </trkpt>
      <trkpt lat="48.83112" lon="2.37466">
        <ele>103</ele>
        <time>2015-04-27T18:42:25.981Z</time>
      </trkpt>
      <trkpt lat="48.83109" lon="2.37465">
        <ele>103.2</ele>
        <time>2015-04-27T18:42:29.938Z</time>
      </trkpt>
      <trkpt lat="48.83109" lon="2.37466">
        <ele>103.1</ele>
        <time>2015-04-27T18:42:30.966Z</time>
      </trkpt>
      <trkpt lat="48.8311" lon="2.37467">
        <ele>102.8</ele>
        <time>2015-04-27T18:42:45.151Z</time>
      </trkpt>
      <trkpt lat="48.8311" lon="2.37472">
        <ele>102.7</ele>
        <time>2015-04-27T18:42:45.924Z</time>
      </trkpt>
      <trkpt lat="48.83113" lon="2.37474">
        <ele>103.2</ele>
        <time>2015-04-27T18:42:48.993Z</time>
      </trkpt>
      <trkpt lat="48.83113" lon="2.37474">
        <ele>103.4</ele>
        <time>2015-04-27T18:42:49.904Z</time>
      </trkpt>
      <trkpt lat="48.83113" lon="2.37474">
        <ele>103.6</ele>
        <time>2015-04-27T18:43:02.925Z</time>
      </trkpt>
      <trkpt lat="48.83114" lon="2.37476">
        <ele>104.3</ele>
        <time>2015-04-27T18:43:04.018Z</time>
      </trkpt>
      <trkpt lat="48.83114" lon="2.37488">
        <ele>105.8</ele>
        <time>2015-04-27T18:43:12.056Z</time>
      </trkpt>
      <trkpt lat="48.83115" lon="2.3749">
        <ele>105.4</ele>
        <time>2015-04-27T18:43:13.069Z</time>
      </trkpt>
      <trkpt lat="48.83116" lon="2.37501">
        <ele>105</ele>
        <time>2015-04-27T18:43:17.920Z</time>
      </trkpt>
      <trkpt lat="48.83118" lon="2.37503">
        <ele>104.9</ele>
        <time>2015-04-27T18:43:18.939Z</time>
      </trkpt>
      <trkpt lat="48.83121" lon="2.37514">
        <ele>104.7</ele>
        <time>2015-04-27T18:43:22.911Z</time>
      </trkpt>
      <trkpt lat="48.83122" lon="2.37517">
        <ele>104.6</ele>
        <time>2015-04-27T18:43:23.917Z</time>
      </trkpt>
      <trkpt lat="48.83126" lon="2.37528">
        <ele>104.1</ele>
        <time>2015-04-27T18:43:27.983Z</time>
      </trkpt>
      <trkpt lat="48.83128" lon="2.37532">
        <ele>104.1</ele>
        <time>2015-04-27T18:43:28.991Z</time>
      </trkpt>
      <trkpt lat="48.83131" lon="2.37543">
        <ele>104</ele>
        <time>2015-04-27T18:43:31.920Z</time>
      </trkpt>
      <trkpt lat="48.83133" lon="2.37546">
        <ele>104</ele>
        <time>2015-04-27T18:43:32.895Z</time>
      </trkpt>
      <trkpt lat="48.83136" lon="2.37556">
        <ele>104.7</ele>
        <time>2015-04-27T18:43:34.933Z</time>
      </trkpt>
      <trkpt lat="48.83139" lon="2.37561">
        <ele>105.4</ele>
        <time>2015-04-27T18:43:35.900Z</time>
      </trkpt>
      <trkpt lat="48.83143" lon="2.37569">
        <ele>105.6</ele>
        <time>2015-04-27T18:43:37.952Z</time>
      </trkpt>
      <trkpt lat="48.83143" lon="2.37573">
        <ele>104.6</ele>
        <time>2015-04-27T18:43:39.099Z</time>
      </trkpt>
      <trkpt lat="48.83147" lon="2.37581">
        <ele>105.1</ele>
        <time>2015-04-27T18:43:41.023Z</time>
      </trkpt>
      <trkpt lat="48.83148" lon="2.37585">
        <ele>105.3</ele>
        <time>2015-04-27T18:43:41.931Z</time>
      </trkpt>
      <trkpt lat="48.83154" lon="2.37595">
        <ele>105.6</ele>
        <time>2015-04-27T18:43:44.898Z</time>
      </trkpt>
      <trkpt lat="48.83157" lon="2.37597">
        <ele>105.7</ele>
        <time>2015-04-27T18:43:45.969Z</time>
      </trkpt>
      <trkpt lat="48.83164" lon="2.37602">
        <ele>106.1</ele>
        <time>2015-04-27T18:43:49.962Z</time>
      </trkpt>
      <trkpt lat="48.83166" lon="2.37603">
        <ele>106.1</ele>
        <time>2015-04-27T18:43:50.873Z</time>
      </trkpt>
      <trkpt lat="48.83173" lon="2.37605">
        <ele>105.8</ele>
        <time>2015-04-27T18:43:55.928Z</time>
      </trkpt>
      <trkpt lat="48.83176" lon="2.37605">
        <ele>105.9</ele>
        <time>2015-04-27T18:43:56.949Z</time>
      </trkpt>
      <trkpt lat="48.83183" lon="2.37608">
        <ele>106.2</ele>
        <time>2015-04-27T18:43:59.929Z</time>
      </trkpt>
      <trkpt lat="48.83187" lon="2.3761">
        <ele>106.4</ele>
        <time>2015-04-27T18:44:00.980Z</time>
      </trkpt>
      <trkpt lat="48.83193" lon="2.37613">
        <ele>106.6</ele>
        <time>2015-04-27T18:44:02.942Z</time>
      </trkpt>
      <trkpt lat="48.83198" lon="2.37614">
        <ele>107</ele>
        <time>2015-04-27T18:44:04.057Z</time>
      </trkpt>
      <trkpt lat="48.83206" lon="2.37616">
        <ele>107.5</ele>
        <time>2015-04-27T18:44:06.078Z</time>
      </trkpt>
      <trkpt lat="48.8321" lon="2.37618">
        <ele>107.7</ele>
        <time>2015-04-27T18:44:07.012Z</time>
      </trkpt>
      <trkpt lat="48.83217" lon="2.37623">
        <ele>107.6</ele>
        <time>2015-04-27T18:44:10.114Z</time>
      </trkpt>
      <trkpt lat="48.8322" lon="2.37625">
        <ele>107.5</ele>
        <time>2015-04-27T18:44:11.032Z</time>
      </trkpt>
      <trkpt lat="48.83225" lon="2.37629">
        <ele>107.5</ele>
        <time>2015-04-27T18:44:13.054Z</time>
      </trkpt>
      <trkpt lat="48.83229" lon="2.37632">
        <ele>107.6</ele>
        <time>2015-04-27T18:44:14.068Z</time>
      </trkpt>
      <trkpt lat="48.83235" lon="2.37641">
        <ele>107.7</ele>
        <time>2015-04-27T18:44:15.909Z</time>
      </trkpt>
      <trkpt lat="48.83238" lon="2.37645">
        <ele>107.7</ele>
        <time>2015-04-27T18:44:16.916Z</time>
      </trkpt>
      <trkpt lat="48.83243" lon="2.37653">
        <ele>107.4</ele>
        <time>2015-04-27T18:44:18.993Z</time>
      </trkpt>
      <trkpt lat="48.83246" lon="2.37657">
        <ele>107.5</ele>
        <time>2015-04-27T18:44:19.998Z</time>
      </trkpt>
      <trkpt lat="48.83251" lon="2.37665">
        <ele>107.3</ele>
        <time>2015-04-27T18:44:21.951Z</time>
      </trkpt>
      <trkpt lat="48.83254" lon="2.37669">
        <ele>107.3</ele>
        <time>2015-04-27T18:44:22.943Z</time>
      </trkpt>
      <trkpt lat="48.83258" lon="2.37677">
        <ele>107.4</ele>
        <time>2015-04-27T18:44:24.903Z</time>
      </trkpt>
      <trkpt lat="48.83259" lon="2.37683">
        <ele>107.3</ele>
        <time>2015-04-27T18:44:25.951Z</time>
      </trkpt>
      <trkpt lat="48.83263" lon="2.37692">
        <ele>107.3</ele>
        <time>2015-04-27T18:44:28.019Z</time>
      </trkpt>
      <trkpt lat="48.83265" lon="2.37694">
        <ele>107.1</ele>
        <time>2015-04-27T18:44:28.963Z</time>
      </trkpt>
      <trkpt lat="48.83271" lon="2.37691">
        <ele>106.1</ele>
        <time>2015-04-27T18:44:32.967Z</time>
      </trkpt>
      <trkpt lat="48.83273" lon="2.37688">
        <ele>105.9</ele>
        <time>2015-04-27T18:44:34.038Z</time>
      </trkpt>
      <trkpt lat="48.83279" lon="2.3768">
        <ele>105.8</ele>
        <time>2015-04-27T18:44:38.063Z</time>
      </trkpt>
      <trkpt lat="48.83281" lon="2.37678">
        <ele>106</ele>
        <time>2015-04-27T18:44:39.096Z</time>
      </trkpt>
      <trkpt lat="48.83279" lon="2.37666">
        <ele>109.3</ele>
        <time>2015-04-27T18:44:49.894Z</time>
      </trkpt>
      <trkpt lat="48.83279" lon="2.37663">
        <ele>109.1</ele>
        <time>2015-04-27T18:44:50.898Z</time>
      </trkpt>
      <trkpt lat="48.83282" lon="2.37655">
        <ele>110.4</ele>
        <time>2015-04-27T18:44:53.958Z</time>
      </trkpt>
      <trkpt lat="48.83285" lon="2.37652">
        <ele>110.9</ele>
        <time>2015-04-27T18:44:54.970Z</time>
      </trkpt>
      <trkpt lat="48.8329" lon="2.37651">
        <ele>111.2</ele>
        <time>2015-04-27T18:44:55.875Z</time>
      </trkpt>
      <trkpt lat="48.83294" lon="2.37651">
        <ele>111.2</ele>
        <time>2015-04-27T18:44:56.917Z</time>
      </trkpt>
      <trkpt lat="48.83303" lon="2.37648">
        <ele>111</ele>
        <time>2015-04-27T18:44:58.951Z</time>
      </trkpt>
      <trkpt lat="48.83307" lon="2.37646">
        <ele>110.8</ele>
        <time>2015-04-27T18:44:59.974Z</time>
      </trkpt>
      <trkpt lat="48.83312" lon="2.37644">
        <ele>110.9</ele>
        <time>2015-04-27T18:45:00.986Z</time>
      </trkpt>
      <trkpt lat="48.83316" lon="2.37642">
        <ele>111.1</ele>
        <time>2015-04-27T18:45:01.946Z</time>
      </trkpt>
      <trkpt lat="48.83323" lon="2.37637">
        <ele>111.4</ele>
        <time>2015-04-27T18:45:04.016Z</time>
      </trkpt>
      <trkpt lat="48.83326" lon="2.37636">
        <ele>111.7</ele>
        <time>2015-04-27T18:45:05.047Z</time>
      </trkpt>
      <trkpt lat="48.83332" lon="2.37642">
        <ele>111.6</ele>
        <time>2015-04-27T18:45:07.066Z</time>
      </trkpt>
      <trkpt lat="48.83338" lon="2.37657">
        <ele>111.1</ele>
        <time>2015-04-27T18:45:08.073Z</time>
      </trkpt>
      <trkpt lat="48.83341" lon="2.37663">
        <ele>115.2</ele>
        <time>2015-04-27T18:45:11.997Z</time>
      </trkpt>
      <trkpt lat="48.83345" lon="2.37671">
        <ele>114.5</ele>
        <time>2015-04-27T18:45:12.864Z</time>
      </trkpt>
      <trkpt lat="48.83349" lon="2.37677">
        <ele>113.8</ele>
        <time>2015-04-27T18:45:13.873Z</time>
      </trkpt>
      <trkpt lat="48.83353" lon="2.3768">
        <ele>113.9</ele>
        <time>2015-04-27T18:45:14.970Z</time>
      </trkpt>
      <trkpt lat="48.8336" lon="2.37683">
        <ele>113.3</ele>
        <time>2015-04-27T18:45:16.990Z</time>
      </trkpt>
      <trkpt lat="48.83364" lon="2.37681">
        <ele>113.6</ele>
        <time>2015-04-27T18:45:17.970Z</time>
      </trkpt>
      <trkpt lat="48.83372" lon="2.37679">
        <ele>113.1</ele>
        <time>2015-04-27T18:45:19.970Z</time>
      </trkpt>
      <trkpt lat="48.83376" lon="2.37677">
        <ele>113</ele>
        <time>2015-04-27T18:45:20.941Z</time>
      </trkpt>
      <trkpt lat="48.83383" lon="2.37674">
        <ele>113.2</ele>
        <time>2015-04-27T18:45:22.976Z</time>
      </trkpt>
      <trkpt lat="48.83387" lon="2.37671">
        <ele>113.5</ele>
        <time>2015-04-27T18:45:23.950Z</time>
      </trkpt>
      <trkpt lat="48.83393" lon="2.37667">
        <ele>113.7</ele>
        <time>2015-04-27T18:45:26.079Z</time>
      </trkpt>
      <trkpt lat="48.83396" lon="2.37666">
        <ele>113.7</ele>
        <time>2015-04-27T18:45:26.979Z</time>
      </trkpt>
      <trkpt lat="48.83403" lon="2.3766">
        <ele>114.1</ele>
        <time>2015-04-27T18:45:29.930Z</time>
      </trkpt>
      <trkpt lat="48.83406" lon="2.37657">
        <ele>115.3</ele>
        <time>2015-04-27T18:45:30.956Z</time>
      </trkpt>
      <trkpt lat="48.83414" lon="2.37653">
        <ele>116.4</ele>
        <time>2015-04-27T18:45:34.136Z</time>
      </trkpt>
      <trkpt lat="48.83417" lon="2.37652">
        <ele>116.7</ele>
        <time>2015-04-27T18:45:34.990Z</time>
      </trkpt>
      <trkpt lat="48.83422" lon="2.37647">
        <ele>117</ele>
        <time>2015-04-27T18:45:36.915Z</time>
      </trkpt>
      <trkpt lat="48.83425" lon="2.37646">
        <ele>117.1</ele>
        <time>2015-04-27T18:45:37.915Z</time>
      </trkpt>
      <trkpt lat="48.83432" lon="2.37646">
        <ele>116.4</ele>
        <time>2015-04-27T18:45:40.721Z</time>
      </trkpt>
      <trkpt lat="48.83435" lon="2.37648">
        <ele>115.7</ele>
        <time>2015-04-27T18:45:40.959Z</time>
      </trkpt>
      <trkpt lat="48.83441" lon="2.37652">
        <ele>114.3</ele>
        <time>2015-04-27T18:45:42.989Z</time>
      </trkpt>
      <trkpt lat="48.83443" lon="2.37656">
        <ele>113.7</ele>
        <time>2015-04-27T18:45:44.017Z</time>
      </trkpt>
      <trkpt lat="48.83447" lon="2.37667">
        <ele>112.1</ele>
        <time>2015-04-27T18:45:46.883Z</time>
      </trkpt>
      <trkpt lat="48.83449" lon="2.3767">
        <ele>111.4</ele>
        <time>2015-04-27T18:45:47.915Z</time>
      </trkpt>
      <trkpt lat="48.83452" lon="2.37678">
        <ele>110.9</ele>
        <time>2015-04-27T18:45:50.927Z</time>
      </trkpt>
      <trkpt lat="48.83454" lon="2.37682">
        <ele>111</ele>
        <time>2015-04-27T18:45:50.968Z</time>
      </trkpt>
      <trkpt lat="48.83458" lon="2.37689">
        <ele>110.2</ele>
        <time>2015-04-27T18:45:52.977Z</time>
      </trkpt>
      <trkpt lat="48.8346" lon="2.37692">
        <ele>109.8</ele>
        <time>2015-04-27T18:45:53.898Z</time>
      </trkpt>
      <trkpt lat="48.83465" lon="2.37698">
        <ele>109.2</ele>
        <time>2015-04-27T18:45:55.953Z</time>
      </trkpt>
      <trkpt lat="48.83467" lon="2.37701">
        <ele>108.9</ele>
        <time>2015-04-27T18:45:56.927Z</time>
      </trkpt>
      <trkpt lat="48.83471" lon="2.37708">
        <ele>108.4</ele>
        <time>2015-04-27T18:45:58.972Z</time>
      </trkpt>
      <trkpt lat="48.83474" lon="2.37712">
        <ele>108.1</ele>
        <time>2015-04-27T18:45:59.974Z</time>
      </trkpt>
      <trkpt lat="48.83479" lon="2.37721">
        <ele>107.8</ele>
        <time>2015-04-27T18:46:01.904Z</time>
      </trkpt>
      <trkpt lat="48.83481" lon="2.37726">
        <ele>107.6</ele>
        <time>2015-04-27T18:46:02.898Z</time>
      </trkpt>
      <trkpt lat="48.83484" lon="2.37731">
        <ele>107.3</ele>
        <time>2015-04-27T18:46:03.960Z</time>
      </trkpt>
      <trkpt lat="48.83487" lon="2.37737">
        <ele>107.1</ele>
        <time>2015-04-27T18:46:04.978Z</time>
      </trkpt>
      <trkpt lat="48.83493" lon="2.37746">
        <ele>106.3</ele>
        <time>2015-04-27T18:46:06.919Z</time>
      </trkpt>
      <trkpt lat="48.83495" lon="2.37751">
        <ele>106.2</ele>
        <time>2015-04-27T18:46:07.928Z</time>
      </trkpt>
      <trkpt lat="48.835" lon="2.3776">
        <ele>105.9</ele>
        <time>2015-04-27T18:46:09.946Z</time>
      </trkpt>
      <trkpt lat="48.83502" lon="2.37765">
        <ele>105.7</ele>
        <time>2015-04-27T18:46:10.960Z</time>
      </trkpt>
      <trkpt lat="48.83508" lon="2.37774">
        <ele>105</ele>
        <time>2015-04-27T18:46:12.894Z</time>
      </trkpt>
      <trkpt lat="48.83511" lon="2.37779">
        <ele>104.6</ele>
        <time>2015-04-27T18:46:13.934Z</time>
      </trkpt>
      <trkpt lat="48.83514" lon="2.37784">
        <ele>104.3</ele>
        <time>2015-04-27T18:46:14.963Z</time>
      </trkpt>
      <trkpt lat="48.83518" lon="2.3779">
        <ele>103.7</ele>
        <time>2015-04-27T18:46:15.972Z</time>
      </trkpt>
      <trkpt lat="48.83521" lon="2.37796">
        <ele>103.2</ele>
        <time>2015-04-27T18:46:16.981Z</time>
      </trkpt>
      <trkpt lat="48.83524" lon="2.37801">
        <ele>102.8</ele>
        <time>2015-04-27T18:46:17.902Z</time>
      </trkpt>
      <trkpt lat="48.83528" lon="2.37807">
        <ele>102.4</ele>
        <time>2015-04-27T18:46:18.895Z</time>
      </trkpt>
      <trkpt lat="48.83531" lon="2.37813">
        <ele>101.9</ele>
        <time>2015-04-27T18:46:19.911Z</time>
      </trkpt>
      <trkpt lat="48.83537" lon="2.37823">
        <ele>101.6</ele>
        <time>2015-04-27T18:46:22.011Z</time>
      </trkpt>
      <trkpt lat="48.8354" lon="2.37827">
        <ele>101.2</ele>
        <time>2015-04-27T18:46:22.894Z</time>
      </trkpt>
      <trkpt lat="48.83545" lon="2.37836">
        <ele>100.7</ele>
        <time>2015-04-27T18:46:24.967Z</time>
      </trkpt>
      <trkpt lat="48.83547" lon="2.3784">
        <ele>100.3</ele>
        <time>2015-04-27T18:46:25.922Z</time>
      </trkpt>
      <trkpt lat="48.83551" lon="2.37848">
        <ele>99.6</ele>
        <time>2015-04-27T18:46:27.911Z</time>
      </trkpt>
      <trkpt lat="48.83553" lon="2.37852">
        <ele>99.4</ele>
        <time>2015-04-27T18:46:28.930Z</time>
      </trkpt>
      <trkpt lat="48.83558" lon="2.3786">
        <ele>98.9</ele>
        <time>2015-04-27T18:46:31.922Z</time>
      </trkpt>
      <trkpt lat="48.8356" lon="2.37862">
        <ele>98.9</ele>
        <time>2015-04-27T18:46:32.933Z</time>
      </trkpt>
      <trkpt lat="48.83565" lon="2.3787">
        <ele>98.3</ele>
        <time>2015-04-27T18:46:36.004Z</time>
      </trkpt>
      <trkpt lat="48.83567" lon="2.37875">
        <ele>98.2</ele>
        <time>2015-04-27T18:46:37.042Z</time>
      </trkpt>
      <trkpt lat="48.83571" lon="2.37883">
        <ele>98.4</ele>
        <time>2015-04-27T18:46:39.090Z</time>
      </trkpt>
      <trkpt lat="48.83572" lon="2.37886">
        <ele>98.6</ele>
        <time>2015-04-27T18:46:40.124Z</time>
      </trkpt>
      <trkpt lat="48.83577" lon="2.37895">
        <ele>99.7</ele>
        <time>2015-04-27T18:46:44.031Z</time>
      </trkpt>
      <trkpt lat="48.83578" lon="2.37897">
        <ele>99.8</ele>
        <time>2015-04-27T18:46:44.889Z</time>
      </trkpt>
      <trkpt lat="48.83581" lon="2.37902">
        <ele>100.3</ele>
        <time>2015-04-27T18:46:48.933Z</time>
      </trkpt>
      <trkpt lat="48.83581" lon="2.37902">
        <ele>100.2</ele>
        <time>2015-04-27T18:46:49.920Z</time>
      </trkpt>
      <trkpt lat="48.83581" lon="2.37902">
        <ele>100</ele>
        <time>2015-04-27T18:46:50.975Z</time>
      </trkpt>
      <trkpt lat="48.83582" lon="2.37902">
        <ele>99.9</ele>
        <time>2015-04-27T18:46:52.018Z</time>
      </trkpt>
      <trkpt lat="48.83582" lon="2.37902">
        <ele>99.9</ele>
        <time>2015-04-27T18:46:52.889Z</time>
      </trkpt>
      <trkpt lat="48.83582" lon="2.37901">
        <ele>99.8</ele>
        <time>2015-04-27T18:46:53.893Z</time>
      </trkpt>
      <trkpt lat="48.83582" lon="2.37901">
        <ele>99.2</ele>
        <time>2015-04-27T18:46:56.923Z</time>
      </trkpt>
      <trkpt lat="48.83582" lon="2.379">
        <ele>98.2</ele>
        <time>2015-04-27T18:46:57.995Z</time>
      </trkpt>
      <trkpt lat="48.83583" lon="2.37897">
        <ele>97.2</ele>
        <time>2015-04-27T18:47:07.029Z</time>
      </trkpt>
      <trkpt lat="48.83583" lon="2.37897">
        <ele>97.2</ele>
        <time>2015-04-27T18:47:08.069Z</time>
      </trkpt>
      <trkpt lat="48.83583" lon="2.37898">
        <ele>97.1</ele>
        <time>2015-04-27T18:47:08.898Z</time>
      </trkpt>
      <trkpt lat="48.83583" lon="2.37898">
        <ele>97</ele>
        <time>2015-04-27T18:47:09.953Z</time>
      </trkpt>
      <trkpt lat="48.83583" lon="2.37899">
        <ele>96.8</ele>
        <time>2015-04-27T18:47:10.927Z</time>
      </trkpt>
      <trkpt lat="48.83589" lon="2.37902">
        <ele>96.9</ele>
        <time>2015-04-27T18:47:16.988Z</time>
      </trkpt>
      <trkpt lat="48.83589" lon="2.37902">
        <ele>96.8</ele>
        <time>2015-04-27T18:47:18.004Z</time>
      </trkpt>
      <trkpt lat="48.83589" lon="2.37902">
        <ele>96.7</ele>
        <time>2015-04-27T18:47:43.876Z</time>
      </trkpt>
      <trkpt lat="48.83588" lon="2.3791">
        <ele>97.2</ele>
        <time>2015-04-27T18:47:44.876Z</time>
      </trkpt>
      <trkpt lat="48.83582" lon="2.37918">
        <ele>96.7</ele>
        <time>2015-04-27T18:47:51.954Z</time>
      </trkpt>
      <trkpt lat="48.83581" lon="2.3792">
        <ele>96.7</ele>
        <time>2015-04-27T18:47:53.043Z</time>
      </trkpt>
      <trkpt lat="48.83573" lon="2.37926">
        <ele>96.5</ele>
        <time>2015-04-27T18:47:56.932Z</time>
      </trkpt>
      <trkpt lat="48.83571" lon="2.3793">
        <ele>95.9</ele>
        <time>2015-04-27T18:47:57.962Z</time>
      </trkpt>
      <trkpt lat="48.83566" lon="2.37937">
        <ele>94.6</ele>
        <time>2015-04-27T18:47:59.911Z</time>
      </trkpt>
      <trkpt lat="48.83563" lon="2.37941">
        <ele>94.4</ele>
        <time>2015-04-27T18:48:00.946Z</time>
      </trkpt>
      <trkpt lat="48.83558" lon="2.37947">
        <ele>93.9</ele>
        <time>2015-04-27T18:48:02.984Z</time>
      </trkpt>
      <trkpt lat="48.83555" lon="2.3795">
        <ele>93.8</ele>
        <time>2015-04-27T18:48:03.995Z</time>
      </trkpt>
      <trkpt lat="48.83549" lon="2.37956">
        <ele>93.5</ele>
        <time>2015-04-27T18:48:05.896Z</time>
      </trkpt>
      <trkpt lat="48.83545" lon="2.37961">
        <ele>92.7</ele>
        <time>2015-04-27T18:48:07.134Z</time>
      </trkpt>
      <trkpt lat="48.83539" lon="2.37969">
        <ele>92.4</ele>
        <time>2015-04-27T18:48:08.915Z</time>
      </trkpt>
      <trkpt lat="48.83536" lon="2.37973">
        <ele>92.4</ele>
        <time>2015-04-27T18:48:09.972Z</time>
      </trkpt>
      <trkpt lat="48.8353" lon="2.37979">
        <ele>92.2</ele>
        <time>2015-04-27T18:48:11.891Z</time>
      </trkpt>
      <trkpt lat="48.83527" lon="2.37982">
        <ele>92.2</ele>
        <time>2015-04-27T18:48:12.929Z</time>
      </trkpt>
      <trkpt lat="48.83521" lon="2.3799">
        <ele>91.8</ele>
        <time>2015-04-27T18:48:14.895Z</time>
      </trkpt>
      <trkpt lat="48.83518" lon="2.37994">
        <ele>92</ele>
        <time>2015-04-27T18:48:15.975Z</time>
      </trkpt>
      <trkpt lat="48.83512" lon="2.38">
        <ele>91.9</ele>
        <time>2015-04-27T18:48:17.893Z</time>
      </trkpt>
      <trkpt lat="48.83509" lon="2.38004">
        <ele>92</ele>
        <time>2015-04-27T18:48:18.892Z</time>
      </trkpt>
      <trkpt lat="48.83503" lon="2.38012">
        <ele>92.1</ele>
        <time>2015-04-27T18:48:21.025Z</time>
      </trkpt>
      <trkpt lat="48.835" lon="2.38016">
        <ele>92</ele>
        <time>2015-04-27T18:48:22.029Z</time>
      </trkpt>
      <trkpt lat="48.83493" lon="2.38025">
        <ele>91.7</ele>
        <time>2015-04-27T18:48:23.928Z</time>
      </trkpt>
      <trkpt lat="48.8349" lon="2.38029">
        <ele>91.6</ele>
        <time>2015-04-27T18:48:24.967Z</time>
      </trkpt>
      <trkpt lat="48.83486" lon="2.38033">
        <ele>91.4</ele>
        <time>2015-04-27T18:48:25.954Z</time>
      </trkpt>
      <trkpt lat="48.83483" lon="2.38038">
        <ele>91.3</ele>
        <time>2015-04-27T18:48:26.868Z</time>
      </trkpt>
      <trkpt lat="48.83479" lon="2.38042">
        <ele>91</ele>
        <time>2015-04-27T18:48:27.914Z</time>
      </trkpt>
      <trkpt lat="48.83476" lon="2.38048">
        <ele>90.8</ele>
        <time>2015-04-27T18:48:28.918Z</time>
      </trkpt>
      <trkpt lat="48.83472" lon="2.38053">
        <ele>90.7</ele>
        <time>2015-04-27T18:48:29.923Z</time>
      </trkpt>
      <trkpt lat="48.83468" lon="2.38058">
        <ele>90.8</ele>
        <time>2015-04-27T18:48:30.925Z</time>
      </trkpt>
      <trkpt lat="48.83465" lon="2.38062">
        <ele>90.9</ele>
        <time>2015-04-27T18:48:31.936Z</time>
      </trkpt>
      <trkpt lat="48.83461" lon="2.38067">
        <ele>90.9</ele>
        <time>2015-04-27T18:48:32.946Z</time>
      </trkpt>
      <trkpt lat="48.83458" lon="2.38072">
        <ele>90.9</ele>
        <time>2015-04-27T18:48:34.732Z</time>
      </trkpt>
      <trkpt lat="48.83454" lon="2.38077">
        <ele>90.9</ele>
        <time>2015-04-27T18:48:34.996Z</time>
      </trkpt>
      <trkpt lat="48.8345" lon="2.38081">
        <ele>90.9</ele>
        <time>2015-04-27T18:48:36.038Z</time>
      </trkpt>
      <trkpt lat="48.83446" lon="2.38085">
        <ele>90.9</ele>
        <time>2015-04-27T18:48:37.054Z</time>
      </trkpt>
      <trkpt lat="48.83443" lon="2.3809">
        <ele>90.8</ele>
        <time>2015-04-27T18:48:38.060Z</time>
      </trkpt>
      <trkpt lat="48.83439" lon="2.38094">
        <ele>90.7</ele>
        <time>2015-04-27T18:48:39.073Z</time>
      </trkpt>
      <trkpt lat="48.83435" lon="2.38099">
        <ele>90.7</ele>
        <time>2015-04-27T18:48:40.091Z</time>
      </trkpt>
      <trkpt lat="48.83431" lon="2.38104">
        <ele>90.8</ele>
        <time>2015-04-27T18:48:41.005Z</time>
      </trkpt>
      <trkpt lat="48.83428" lon="2.38109">
        <ele>91</ele>
        <time>2015-04-27T18:48:42.004Z</time>
      </trkpt>
      <trkpt lat="48.83424" lon="2.38114">
        <ele>91.1</ele>
        <time>2015-04-27T18:48:43.027Z</time>
      </trkpt>
      <trkpt lat="48.8342" lon="2.38119">
        <ele>91.1</ele>
        <time>2015-04-27T18:48:44.059Z</time>
      </trkpt>
      <trkpt lat="48.83417" lon="2.38123">
        <ele>91.1</ele>
        <time>2015-04-27T18:48:45.076Z</time>
      </trkpt>
      <trkpt lat="48.8341" lon="2.38131">
        <ele>90.9</ele>
        <time>2015-04-27T18:48:46.916Z</time>
      </trkpt>
      <trkpt lat="48.83406" lon="2.38136">
        <ele>90.8</ele>
        <time>2015-04-27T18:48:47.941Z</time>
      </trkpt>
      <trkpt lat="48.83403" lon="2.38141">
        <ele>90.8</ele>
        <time>2015-04-27T18:48:48.893Z</time>
      </trkpt>
      <trkpt lat="48.83399" lon="2.38145">
        <ele>90.7</ele>
        <time>2015-04-27T18:48:49.899Z</time>
      </trkpt>
      <trkpt lat="48.83392" lon="2.38153">
        <ele>90.6</ele>
        <time>2015-04-27T18:48:51.937Z</time>
      </trkpt>
      <trkpt lat="48.83389" lon="2.38157">
        <ele>90.6</ele>
        <time>2015-04-27T18:48:52.929Z</time>
      </trkpt>
      <trkpt lat="48.83382" lon="2.38165">
        <ele>90.2</ele>
        <time>2015-04-27T18:48:54.919Z</time>
      </trkpt>
      <trkpt lat="48.83379" lon="2.38169">
        <ele>90.1</ele>
        <time>2015-04-27T18:48:55.918Z</time>
      </trkpt>
      <trkpt lat="48.83372" lon="2.38178">
        <ele>90.1</ele>
        <time>2015-04-27T18:48:57.931Z</time>
      </trkpt>
      <trkpt lat="48.83369" lon="2.38182">
        <ele>90</ele>
        <time>2015-04-27T18:48:59.018Z</time>
      </trkpt>
      <trkpt lat="48.83363" lon="2.3819">
        <ele>89.7</ele>
        <time>2015-04-27T18:49:00.898Z</time>
      </trkpt>
      <trkpt lat="48.8336" lon="2.38195">
        <ele>89.6</ele>
        <time>2015-04-27T18:49:01.934Z</time>
      </trkpt>
      <trkpt lat="48.83353" lon="2.38203">
        <ele>89.6</ele>
        <time>2015-04-27T18:49:03.975Z</time>
      </trkpt>
      <trkpt lat="48.8335" lon="2.38207">
        <ele>89.6</ele>
        <time>2015-04-27T18:49:05.034Z</time>
      </trkpt>
      <trkpt lat="48.83343" lon="2.38215">
        <ele>89.3</ele>
        <time>2015-04-27T18:49:06.895Z</time>
      </trkpt>
      <trkpt lat="48.8334" lon="2.38219">
        <ele>89.3</ele>
        <time>2015-04-27T18:49:07.910Z</time>
      </trkpt>
      <trkpt lat="48.83332" lon="2.38224">
        <ele>89.4</ele>
        <time>2015-04-27T18:49:09.954Z</time>
      </trkpt>
      <trkpt lat="48.83328" lon="2.38227">
        <ele>89.4</ele>
        <time>2015-04-27T18:49:10.875Z</time>
      </trkpt>
      <trkpt lat="48.83321" lon="2.38232">
        <ele>89.2</ele>
        <time>2015-04-27T18:49:11.713Z</time>
      </trkpt>
      <trkpt lat="48.83317" lon="2.38236">
        <ele>89</ele>
        <time>2015-04-27T18:49:13.879Z</time>
      </trkpt>
      <trkpt lat="48.8331" lon="2.38242">
        <ele>88.7</ele>
        <time>2015-04-27T18:49:15.986Z</time>
      </trkpt>
      <trkpt lat="48.83307" lon="2.38247">
        <ele>88.7</ele>
        <time>2015-04-27T18:49:17.003Z</time>
      </trkpt>
      <trkpt lat="48.83303" lon="2.38251">
        <ele>88.5</ele>
        <time>2015-04-27T18:49:17.921Z</time>
      </trkpt>
      <trkpt lat="48.83299" lon="2.38255">
        <ele>88.4</ele>
        <time>2015-04-27T18:49:18.927Z</time>
      </trkpt>
      <trkpt lat="48.83295" lon="2.3826">
        <ele>88.6</ele>
        <time>2015-04-27T18:49:19.950Z</time>
      </trkpt>
      <trkpt lat="48.83291" lon="2.38265">
        <ele>88.3</ele>
        <time>2015-04-27T18:49:20.957Z</time>
      </trkpt>
      <trkpt lat="48.83288" lon="2.38271">
        <ele>87.9</ele>
        <time>2015-04-27T18:49:21.961Z</time>
      </trkpt>
      <trkpt lat="48.83284" lon="2.38276">
        <ele>87.6</ele>
        <time>2015-04-27T18:49:22.954Z</time>
      </trkpt>
      <trkpt lat="48.8328" lon="2.38281">
        <ele>87.3</ele>
        <time>2015-04-27T18:49:22.052Z</time>
      </trkpt>
      <trkpt lat="48.83276" lon="2.38287">
        <ele>87.1</ele>
        <time>2015-04-27T18:49:24.927Z</time>
      </trkpt>
      <trkpt lat="48.83272" lon="2.38292">
        <ele>87</ele>
        <time>2015-04-27T18:49:25.892Z</time>
      </trkpt>
      <trkpt lat="48.83269" lon="2.38298">
        <ele>87.4</ele>
        <time>2015-04-27T18:49:26.907Z</time>
      </trkpt>
      <trkpt lat="48.83265" lon="2.38305">
        <ele>87.5</ele>
        <time>2015-04-27T18:49:27.950Z</time>
      </trkpt>
      <trkpt lat="48.83261" lon="2.3831">
        <ele>88.1</ele>
        <time>2015-04-27T18:49:28.965Z</time>
      </trkpt>
      <trkpt lat="48.83257" lon="2.38316">
        <ele>88.4</ele>
        <time>2015-04-27T18:49:29.968Z</time>
      </trkpt>
      <trkpt lat="48.83253" lon="2.38321">
        <ele>88.3</ele>
        <time>2015-04-27T18:49:30.866Z</time>
      </trkpt>
      <trkpt lat="48.83249" lon="2.38326">
        <ele>88.3</ele>
        <time>2015-04-27T18:49:31.898Z</time>
      </trkpt>
      <trkpt lat="48.83245" lon="2.38331">
        <ele>88.2</ele>
        <time>2015-04-27T18:49:32.907Z</time>
      </trkpt>
      <trkpt lat="48.83241" lon="2.38337">
        <ele>88.3</ele>
        <time>2015-04-27T18:49:33.959Z</time>
      </trkpt>
      <trkpt lat="48.83237" lon="2.38342">
        <ele>88.3</ele>
        <time>2015-04-27T18:49:35.014Z</time>
      </trkpt>
      <trkpt lat="48.83233" lon="2.38348">
        <ele>88.5</ele>
        <time>2015-04-27T18:49:36.066Z</time>
      </trkpt>
      <trkpt lat="48.8323" lon="2.38353">
        <ele>88.6</ele>
        <time>2015-04-27T18:49:37.101Z</time>
      </trkpt>
      <trkpt lat="48.83227" lon="2.3836">
        <ele>88.8</ele>
        <time>2015-04-27T18:49:37.940Z</time>
      </trkpt>
      <trkpt lat="48.83223" lon="2.38365">
        <ele>88.9</ele>
        <time>2015-04-27T18:49:39.169Z</time>
      </trkpt>
      <trkpt lat="48.83219" lon="2.38369">
        <ele>88.9</ele>
        <time>2015-04-27T18:49:40.040Z</time>
      </trkpt>
      <trkpt lat="48.83215" lon="2.38374">
        <ele>88.9</ele>
        <time>2015-04-27T18:49:41.047Z</time>
      </trkpt>
      <trkpt lat="48.83211" lon="2.38378">
        <ele>88.9</ele>
        <time>2015-04-27T18:49:42.060Z</time>
      </trkpt>
      <trkpt lat="48.83207" lon="2.38383">
        <ele>89</ele>
        <time>2015-04-27T18:49:43.065Z</time>
      </trkpt>
      <trkpt lat="48.83203" lon="2.38388">
        <ele>89.1</ele>
        <time>2015-04-27T18:49:44.085Z</time>
      </trkpt>
      <trkpt lat="48.832" lon="2.38393">
        <ele>89.5</ele>
        <time>2015-04-27T18:49:45.095Z</time>
      </trkpt>
      <trkpt lat="48.83196" lon="2.38397">
        <ele>89.7</ele>
        <time>2015-04-27T18:49:45.911Z</time>
      </trkpt>
      <trkpt lat="48.83192" lon="2.38401">
        <ele>89.7</ele>
        <time>2015-04-27T18:49:46.926Z</time>
      </trkpt>
      <trkpt lat="48.83188" lon="2.38406">
        <ele>89.8</ele>
        <time>2015-04-27T18:49:47.934Z</time>
      </trkpt>
      <trkpt lat="48.83185" lon="2.38411">
        <ele>89.8</ele>
        <time>2015-04-27T18:49:48.940Z</time>
      </trkpt>
      <trkpt lat="48.83181" lon="2.38416">
        <ele>89.9</ele>
        <time>2015-04-27T18:49:49.944Z</time>
      </trkpt>
      <trkpt lat="48.83178" lon="2.3842">
        <ele>90.2</ele>
        <time>2015-04-27T18:49:50.950Z</time>
      </trkpt>
      <trkpt lat="48.83174" lon="2.38424">
        <ele>90.4</ele>
        <time>2015-04-27T18:49:51.956Z</time>
      </trkpt>
      <trkpt lat="48.83171" lon="2.38429">
        <ele>90.6</ele>
        <time>2015-04-27T18:49:52.967Z</time>
      </trkpt>
      <trkpt lat="48.83167" lon="2.38435">
        <ele>90.6</ele>
        <time>2015-04-27T18:49:53.967Z</time>
      </trkpt>
      <trkpt lat="48.83163" lon="2.3844">
        <ele>90.4</ele>
        <time>2015-04-27T18:49:54.917Z</time>
      </trkpt>
      <trkpt lat="48.83159" lon="2.38445">
        <ele>90.5</ele>
        <time>2015-04-27T18:49:55.901Z</time>
      </trkpt>
      <trkpt lat="48.83155" lon="2.3845">
        <ele>90.5</ele>
        <time>2015-04-27T18:49:56.903Z</time>
      </trkpt>
      <trkpt lat="48.83151" lon="2.38455">
        <ele>90.5</ele>
        <time>2015-04-27T18:49:57.934Z</time>
      </trkpt>
      <trkpt lat="48.83147" lon="2.3846">
        <ele>90.5</ele>
        <time>2015-04-27T18:49:58.936Z</time>
      </trkpt>
      <trkpt lat="48.83144" lon="2.38465">
        <ele>90.4</ele>
        <time>2015-04-27T18:49:59.951Z</time>
      </trkpt>
      <trkpt lat="48.8314" lon="2.38469">
        <ele>90.3</ele>
        <time>2015-04-27T18:50:00.964Z</time>
      </trkpt>
      <trkpt lat="48.83136" lon="2.38474">
        <ele>90.3</ele>
        <time>2015-04-27T18:50:01.969Z</time>
      </trkpt>
      <trkpt lat="48.83133" lon="2.38478">
        <ele>90.3</ele>
        <time>2015-04-27T18:50:02.888Z</time>
      </trkpt>
      <trkpt lat="48.83129" lon="2.38483">
        <ele>90.6</ele>
        <time>2015-04-27T18:50:03.956Z</time>
      </trkpt>
      <trkpt lat="48.83125" lon="2.38488">
        <ele>90.5</ele>
        <time>2015-04-27T18:50:04.965Z</time>
      </trkpt>
      <trkpt lat="48.83121" lon="2.38493">
        <ele>90.6</ele>
        <time>2015-04-27T18:50:05.889Z</time>
      </trkpt>
      <trkpt lat="48.83117" lon="2.38497">
        <ele>90.5</ele>
        <time>2015-04-27T18:50:06.894Z</time>
      </trkpt>
      <trkpt lat="48.83113" lon="2.38502">
        <ele>90.4</ele>
        <time>2015-04-27T18:50:08.029Z</time>
      </trkpt>
      <trkpt lat="48.83109" lon="2.38508">
        <ele>90.4</ele>
        <time>2015-04-27T18:50:09.147Z</time>
      </trkpt>
      <trkpt lat="48.83105" lon="2.38512">
        <ele>90.4</ele>
        <time>2015-04-27T18:50:10.010Z</time>
      </trkpt>
      <trkpt lat="48.83101" lon="2.38518">
        <ele>90.4</ele>
        <time>2015-04-27T18:50:11.017Z</time>
      </trkpt>
      <trkpt lat="48.83097" lon="2.38523">
        <ele>90.4</ele>
        <time>2015-04-27T18:50:12.040Z</time>
      </trkpt>
      <trkpt lat="48.83093" lon="2.38528">
        <ele>90.5</ele>
        <time>2015-04-27T18:50:12.890Z</time>
      </trkpt>
      <trkpt lat="48.83089" lon="2.38533">
        <ele>90.6</ele>
        <time>2015-04-27T18:50:13.917Z</time>
      </trkpt>
      <trkpt lat="48.83085" lon="2.38537">
        <ele>90.7</ele>
        <time>2015-04-27T18:50:14.963Z</time>
      </trkpt>
      <trkpt lat="48.83082" lon="2.38542">
        <ele>91</ele>
        <time>2015-04-27T18:50:15.986Z</time>
      </trkpt>
      <trkpt lat="48.83078" lon="2.38547">
        <ele>91.3</ele>
        <time>2015-04-27T18:50:16.896Z</time>
      </trkpt>
      <trkpt lat="48.83074" lon="2.38552">
        <ele>91.6</ele>
        <time>2015-04-27T18:50:17.912Z</time>
      </trkpt>
      <trkpt lat="48.83071" lon="2.38557">
        <ele>91.9</ele>
        <time>2015-04-27T18:50:18.918Z</time>
      </trkpt>
      <trkpt lat="48.83067" lon="2.38563">
        <ele>92.4</ele>
        <time>2015-04-27T18:50:19.936Z</time>
      </trkpt>
      <trkpt lat="48.83064" lon="2.38567">
        <ele>92.5</ele>
        <time>2015-04-27T18:50:20.947Z</time>
      </trkpt>
      <trkpt lat="48.8306" lon="2.38572">
        <ele>92.8</ele>
        <time>2015-04-27T18:50:21.978Z</time>
      </trkpt>
      <trkpt lat="48.83056" lon="2.38576">
        <ele>93.2</ele>
        <time>2015-04-27T18:50:22.931Z</time>
      </trkpt>
      <trkpt lat="48.83053" lon="2.3858">
        <ele>93.3</ele>
        <time>2015-04-27T18:50:23.900Z</time>
      </trkpt>
      <trkpt lat="48.83049" lon="2.38584">
        <ele>93.4</ele>
        <time>2015-04-27T18:50:24.901Z</time>
      </trkpt>
      <trkpt lat="48.83046" lon="2.38588">
        <ele>93.3</ele>
        <time>2015-04-27T18:50:25.917Z</time>
      </trkpt>
      <trkpt lat="48.83042" lon="2.38594">
        <ele>93.6</ele>
        <time>2015-04-27T18:50:26.935Z</time>
      </trkpt>
      <trkpt lat="48.83037" lon="2.38602">
        <ele>93.8</ele>
        <time>2015-04-27T18:50:27.952Z</time>
      </trkpt>
      <trkpt lat="48.83033" lon="2.38609">
        <ele>94.3</ele>
        <time>2015-04-27T18:50:28.967Z</time>
      </trkpt>
      <trkpt lat="48.83029" lon="2.38616">
        <ele>94.8</ele>
        <time>2015-04-27T18:50:29.889Z</time>
      </trkpt>
      <trkpt lat="48.83025" lon="2.38622">
        <ele>95.3</ele>
        <time>2015-04-27T18:50:30.901Z</time>
      </trkpt>
      <trkpt lat="48.83021" lon="2.38628">
        <ele>95.4</ele>
        <time>2015-04-27T18:50:31.910Z</time>
      </trkpt>
      <trkpt lat="48.83017" lon="2.38633">
        <ele>95.7</ele>
        <time>2015-04-27T18:50:32.927Z</time>
      </trkpt>
      <trkpt lat="48.83013" lon="2.38638">
        <ele>96</ele>
        <time>2015-04-27T18:50:33.983Z</time>
      </trkpt>
      <trkpt lat="48.8301" lon="2.38643">
        <ele>96.3</ele>
        <time>2015-04-27T18:50:35.002Z</time>
      </trkpt>
      <trkpt lat="48.83005" lon="2.38648">
        <ele>96.3</ele>
        <time>2015-04-27T18:50:36.011Z</time>
      </trkpt>
      <trkpt lat="48.83002" lon="2.38653">
        <ele>96.4</ele>
        <time>2015-04-27T18:50:37.006Z</time>
      </trkpt>
      <trkpt lat="48.82998" lon="2.38658">
        <ele>96.4</ele>
        <time>2015-04-27T18:50:38.011Z</time>
      </trkpt>
      <trkpt lat="48.82994" lon="2.38663">
        <ele>96.5</ele>
        <time>2015-04-27T18:50:39.052Z</time>
      </trkpt>
      <trkpt lat="48.8299" lon="2.38669">
        <ele>96.6</ele>
        <time>2015-04-27T18:50:40.057Z</time>
      </trkpt>
      <trkpt lat="48.82986" lon="2.38674">
        <ele>96.6</ele>
        <time>2015-04-27T18:50:41.080Z</time>
      </trkpt>
      <trkpt lat="48.82981" lon="2.38679">
        <ele>96.7</ele>
        <time>2015-04-27T18:50:42.083Z</time>
      </trkpt>
      <trkpt lat="48.82977" lon="2.38684">
        <ele>96.8</ele>
        <time>2015-04-27T18:50:43.002Z</time>
      </trkpt>
      <trkpt lat="48.82972" lon="2.38689">
        <ele>97</ele>
        <time>2015-04-27T18:50:43.887Z</time>
      </trkpt>
      <trkpt lat="48.82968" lon="2.38693">
        <ele>97.2</ele>
        <time>2015-04-27T18:50:44.904Z</time>
      </trkpt>
      <trkpt lat="48.82963" lon="2.38698">
        <ele>97.1</ele>
        <time>2015-04-27T18:50:45.921Z</time>
      </trkpt>
      <trkpt lat="48.82959" lon="2.38701">
        <ele>97.1</ele>
        <time>2015-04-27T18:50:46.929Z</time>
      </trkpt>
      <trkpt lat="48.82954" lon="2.38704">
        <ele>97.2</ele>
        <time>2015-04-27T18:50:47.966Z</time>
      </trkpt>
      <trkpt lat="48.82949" lon="2.38708">
        <ele>97.2</ele>
        <time>2015-04-27T18:50:48.879Z</time>
      </trkpt>
      <trkpt lat="48.82944" lon="2.38712">
        <ele>97.1</ele>
        <time>2015-04-27T18:50:49.902Z</time>
      </trkpt>
      <trkpt lat="48.82939" lon="2.38716">
        <ele>97.2</ele>
        <time>2015-04-27T18:50:50.928Z</time>
      </trkpt>
      <trkpt lat="48.82935" lon="2.38719">
        <ele>97.1</ele>
        <time>2015-04-27T18:50:51.958Z</time>
      </trkpt>
      <trkpt lat="48.8293" lon="2.38722">
        <ele>97.1</ele>
        <time>2015-04-27T18:50:52.914Z</time>
      </trkpt>
      <trkpt lat="48.82922" lon="2.38725">
        <ele>96.8</ele>
        <time>2015-04-27T18:50:54.891Z</time>
      </trkpt>
      <trkpt lat="48.82918" lon="2.38726">
        <ele>96.9</ele>
        <time>2015-04-27T18:50:55.905Z</time>
      </trkpt>
      <trkpt lat="48.82911" lon="2.38727">
        <ele>97.1</ele>
        <time>2015-04-27T18:50:58.028Z</time>
      </trkpt>
      <trkpt lat="48.82907" lon="2.3873">
        <ele>97.3</ele>
        <time>2015-04-27T18:50:58.881Z</time>
      </trkpt>
      <trkpt lat="48.829" lon="2.38736">
        <ele>97.7</ele>
        <time>2015-04-27T18:51:00.937Z</time>
      </trkpt>
      <trkpt lat="48.82896" lon="2.3874">
        <ele>97.8</ele>
        <time>2015-04-27T18:51:01.983Z</time>
      </trkpt>
      <trkpt lat="48.82889" lon="2.38747">
        <ele>97.9</ele>
        <time>2015-04-27T18:51:03.966Z</time>
      </trkpt>
      <trkpt lat="48.82885" lon="2.38749">
        <ele>97.9</ele>
        <time>2015-04-27T18:51:04.881Z</time>
      </trkpt>
      <trkpt lat="48.82881" lon="2.38752">
        <ele>97.4</ele>
        <time>2015-04-27T18:51:05.883Z</time>
      </trkpt>
      <trkpt lat="48.82876" lon="2.38755">
        <ele>96.9</ele>
        <time>2015-04-27T18:51:06.895Z</time>
      </trkpt>
      <trkpt lat="48.82872" lon="2.38759">
        <ele>96.5</ele>
        <time>2015-04-27T18:51:07.929Z</time>
      </trkpt>
      <trkpt lat="48.82867" lon="2.38763">
        <ele>96.2</ele>
        <time>2015-04-27T18:51:08.943Z</time>
      </trkpt>
      <trkpt lat="48.82863" lon="2.38767">
        <ele>95.9</ele>
        <time>2015-04-27T18:51:09.959Z</time>
      </trkpt>
      <trkpt lat="48.82859" lon="2.3877">
        <ele>95.9</ele>
        <time>2015-04-27T18:51:10.865Z</time>
      </trkpt>
      <trkpt lat="48.82852" lon="2.38779">
        <ele>95.8</ele>
        <time>2015-04-27T18:51:12.874Z</time>
      </trkpt>
      <trkpt lat="48.82834" lon="2.38805">
        <ele>95.5</ele>
        <time>2015-04-27T18:51:17.890Z</time>
      </trkpt>
      <trkpt lat="48.82829" lon="2.38809">
        <ele>95.3</ele>
        <time>2015-04-27T18:51:18.864Z</time>
      </trkpt>
      <trkpt lat="48.82825" lon="2.38813">
        <ele>95.3</ele>
        <time>2015-04-27T18:51:19.866Z</time>
      </trkpt>
      <trkpt lat="48.82818" lon="2.3882">
        <ele>94.9</ele>
        <time>2015-04-27T18:51:21.915Z</time>
      </trkpt>
      <trkpt lat="48.82815" lon="2.38824">
        <ele>94.8</ele>
        <time>2015-04-27T18:51:22.955Z</time>
      </trkpt>
      <trkpt lat="48.8281" lon="2.38832">
        <ele>94.3</ele>
        <time>2015-04-27T18:51:24.928Z</time>
      </trkpt>
      <trkpt lat="48.82807" lon="2.38836">
        <ele>94</ele>
        <time>2015-04-27T18:51:25.925Z</time>
      </trkpt>
      <trkpt lat="48.82801" lon="2.38845">
        <ele>93.4</ele>
        <time>2015-04-27T18:51:27.978Z</time>
      </trkpt>
      <trkpt lat="48.82798" lon="2.3885">
        <ele>93.1</ele>
        <time>2015-04-27T18:51:28.873Z</time>
      </trkpt>
      <trkpt lat="48.82793" lon="2.38858">
        <ele>92.8</ele>
        <time>2015-04-27T18:51:30.895Z</time>
      </trkpt>
      <trkpt lat="48.8279" lon="2.38861">
        <ele>92.8</ele>
        <time>2015-04-27T18:51:31.912Z</time>
      </trkpt>
      <trkpt lat="48.82784" lon="2.38867">
        <ele>93</ele>
        <time>2015-04-27T18:51:33.979Z</time>
      </trkpt>
      <trkpt lat="48.82782" lon="2.3887">
        <ele>93.1</ele>
        <time>2015-04-27T18:51:35.008Z</time>
      </trkpt>
      <trkpt lat="48.82776" lon="2.38878">
        <ele>93</ele>
        <time>2015-04-27T18:51:38.033Z</time>
      </trkpt>
      <trkpt lat="48.82774" lon="2.38881">
        <ele>93.2</ele>
        <time>2015-04-27T18:51:39.045Z</time>
      </trkpt>
      <trkpt lat="48.82767" lon="2.38888">
        <ele>92.5</ele>
        <time>2015-04-27T18:51:42.085Z</time>
      </trkpt>
      <trkpt lat="48.82765" lon="2.38891">
        <ele>92.2</ele>
        <time>2015-04-27T18:51:43.027Z</time>
      </trkpt>
      <trkpt lat="48.8276" lon="2.38897">
        <ele>92</ele>
        <time>2015-04-27T18:51:45.082Z</time>
      </trkpt>
      <trkpt lat="48.82758" lon="2.38901">
        <ele>91.9</ele>
        <time>2015-04-27T18:51:45.910Z</time>
      </trkpt>
      <trkpt lat="48.82753" lon="2.38908">
        <ele>91.6</ele>
        <time>2015-04-27T18:51:47.942Z</time>
      </trkpt>
      <trkpt lat="48.8275" lon="2.38911">
        <ele>91.5</ele>
        <time>2015-04-27T18:51:48.958Z</time>
      </trkpt>
      <trkpt lat="48.82746" lon="2.38918">
        <ele>91.2</ele>
        <time>2015-04-27T18:51:50.923Z</time>
      </trkpt>
      <trkpt lat="48.82743" lon="2.38921">
        <ele>91.2</ele>
        <time>2015-04-27T18:51:51.948Z</time>
      </trkpt>
      <trkpt lat="48.82738" lon="2.38927">
        <ele>91.2</ele>
        <time>2015-04-27T18:51:51.740Z</time>
      </trkpt>
      <trkpt lat="48.82735" lon="2.3893">
        <ele>91.1</ele>
        <time>2015-04-27T18:51:54.898Z</time>
      </trkpt>
      <trkpt lat="48.8273" lon="2.38938">
        <ele>91.1</ele>
        <time>2015-04-27T18:51:56.929Z</time>
      </trkpt>
      <trkpt lat="48.82727" lon="2.38942">
        <ele>91</ele>
        <time>2015-04-27T18:51:58.067Z</time>
      </trkpt>
      <trkpt lat="48.8272" lon="2.38951">
        <ele>90.9</ele>
        <time>2015-04-27T18:51:59.917Z</time>
      </trkpt>
      <trkpt lat="48.82717" lon="2.38956">
        <ele>91</ele>
        <time>2015-04-27T18:52:00.937Z</time>
      </trkpt>
      <trkpt lat="48.82713" lon="2.38961">
        <ele>91</ele>
        <time>2015-04-27T18:52:01.893Z</time>
      </trkpt>
      <trkpt lat="48.82709" lon="2.38965">
        <ele>91.1</ele>
        <time>2015-04-27T18:52:02.959Z</time>
      </trkpt>
      <trkpt lat="48.82704" lon="2.38972">
        <ele>91.7</ele>
        <time>2015-04-27T18:52:05.020Z</time>
      </trkpt>
      <trkpt lat="48.82701" lon="2.38976">
        <ele>92</ele>
        <time>2015-04-27T18:52:06.106Z</time>
      </trkpt>
      <trkpt lat="48.82695" lon="2.38982">
        <ele>92.5</ele>
        <time>2015-04-27T18:52:07.999Z</time>
      </trkpt>
      <trkpt lat="48.82691" lon="2.38986">
        <ele>92.6</ele>
        <time>2015-04-27T18:52:09.054Z</time>
      </trkpt>
      <trkpt lat="48.82688" lon="2.3899">
        <ele>92.5</ele>
        <time>2015-04-27T18:52:09.915Z</time>
      </trkpt>
      <trkpt lat="48.82684" lon="2.38995">
        <ele>92.6</ele>
        <time>2015-04-27T18:52:10.996Z</time>
      </trkpt>
      <trkpt lat="48.82681" lon="2.39">
        <ele>92.6</ele>
        <time>2015-04-27T18:52:12.033Z</time>
      </trkpt>
      <trkpt lat="48.82677" lon="2.39005">
        <ele>92.3</ele>
        <time>2015-04-27T18:52:12.845Z</time>
      </trkpt>
      <trkpt lat="48.82671" lon="2.39011">
        <ele>92.2</ele>
        <time>2015-04-27T18:52:14.074Z</time>
      </trkpt>
      <trkpt lat="48.82667" lon="2.39016">
        <ele>92.1</ele>
        <time>2015-04-27T18:52:15.162Z</time>
      </trkpt>
      <trkpt lat="48.82663" lon="2.39021">
        <ele>91.9</ele>
        <time>2015-04-27T18:52:15.849Z</time>
      </trkpt>
      <trkpt lat="48.82658" lon="2.3903">
        <ele>93.4</ele>
        <time>2015-04-27T18:52:17.065Z</time>
      </trkpt>
      <trkpt lat="48.82654" lon="2.39035">
        <ele>93.2</ele>
        <time>2015-04-27T18:52:17.876Z</time>
      </trkpt>
      <trkpt lat="48.8265" lon="2.3904">
        <ele>93.3</ele>
        <time>2015-04-27T18:52:18.968Z</time>
      </trkpt>
      <trkpt lat="48.82645" lon="2.3905">
        <ele>93.6</ele>
        <time>2015-04-27T18:52:20.933Z</time>
      </trkpt>
      <trkpt lat="48.82642" lon="2.39054">
        <ele>93.8</ele>
        <time>2015-04-27T18:52:21.958Z</time>
      </trkpt>
      <trkpt lat="48.82636" lon="2.39064">
        <ele>93.6</ele>
        <time>2015-04-27T18:52:23.924Z</time>
      </trkpt>
      <trkpt lat="48.82633" lon="2.39068">
        <ele>93.6</ele>
        <time>2015-04-27T18:52:24.920Z</time>
      </trkpt>
      <trkpt lat="48.82628" lon="2.39075">
        <ele>93.6</ele>
        <time>2015-04-27T18:52:26.971Z</time>
      </trkpt>
      <trkpt lat="48.82624" lon="2.39079">
        <ele>93.6</ele>
        <time>2015-04-27T18:52:27.986Z</time>
      </trkpt>
      <trkpt lat="48.82619" lon="2.39086">
        <ele>93.6</ele>
        <time>2015-04-27T18:52:29.912Z</time>
      </trkpt>
      <trkpt lat="48.82616" lon="2.3909">
        <ele>93.7</ele>
        <time>2015-04-27T18:52:30.901Z</time>
      </trkpt>
      <trkpt lat="48.82611" lon="2.39097">
        <ele>93.6</ele>
        <time>2015-04-27T18:52:32.861Z</time>
      </trkpt>
      <trkpt lat="48.82608" lon="2.39101">
        <ele>93.6</ele>
        <time>2015-04-27T18:52:33.922Z</time>
      </trkpt>
      <trkpt lat="48.82602" lon="2.39108">
        <ele>93.6</ele>
        <time>2015-04-27T18:52:36.009Z</time>
      </trkpt>
      <trkpt lat="48.82599" lon="2.39112">
        <ele>93.5</ele>
        <time>2015-04-27T18:52:37.025Z</time>
      </trkpt>
      <trkpt lat="48.82593" lon="2.39119">
        <ele>93.2</ele>
        <time>2015-04-27T18:52:38.916Z</time>
      </trkpt>
      <trkpt lat="48.8259" lon="2.39123">
        <ele>93.1</ele>
        <time>2015-04-27T18:52:39.977Z</time>
      </trkpt>
      <trkpt lat="48.82583" lon="2.3913">
        <ele>92.9</ele>
        <time>2015-04-27T18:52:41.918Z</time>
      </trkpt>
      <trkpt lat="48.8258" lon="2.39134">
        <ele>92.8</ele>
        <time>2015-04-27T18:52:42.926Z</time>
      </trkpt>
      <trkpt lat="48.82573" lon="2.39142">
        <ele>92.6</ele>
        <time>2015-04-27T18:52:45.763Z</time>
      </trkpt>
      <trkpt lat="48.82569" lon="2.39147">
        <ele>92.5</ele>
        <time>2015-04-27T18:52:45.946Z</time>
      </trkpt>
      <trkpt lat="48.82565" lon="2.39152">
        <ele>92.4</ele>
        <time>2015-04-27T18:52:46.863Z</time>
      </trkpt>
      <trkpt lat="48.82561" lon="2.39157">
        <ele>92.2</ele>
        <time>2015-04-27T18:52:47.882Z</time>
      </trkpt>
      <trkpt lat="48.82557" lon="2.39163">
        <ele>92.1</ele>
        <time>2015-04-27T18:52:48.903Z</time>
      </trkpt>
      <trkpt lat="48.82552" lon="2.39169">
        <ele>91.9</ele>
        <time>2015-04-27T18:52:49.913Z</time>
      </trkpt>
      <trkpt lat="48.82548" lon="2.39176">
        <ele>91.8</ele>
        <time>2015-04-27T18:52:50.937Z</time>
      </trkpt>
      <trkpt lat="48.82543" lon="2.39183">
        <ele>91.8</ele>
        <time>2015-04-27T18:52:51.958Z</time>
      </trkpt>
      <trkpt lat="48.82537" lon="2.39191">
        <ele>91.8</ele>
        <time>2015-04-27T18:52:52.958Z</time>
      </trkpt>
      <trkpt lat="48.82532" lon="2.39198">
        <ele>91.8</ele>
        <time>2015-04-27T18:52:53.968Z</time>
      </trkpt>
      <trkpt lat="48.82527" lon="2.39205">
        <ele>91.9</ele>
        <time>2015-04-27T18:52:54.882Z</time>
      </trkpt>
      <trkpt lat="48.82522" lon="2.39213">
        <ele>92</ele>
        <time>2015-04-27T18:52:56.138Z</time>
      </trkpt>
      <trkpt lat="48.82518" lon="2.3922">
        <ele>91.8</ele>
        <time>2015-04-27T18:52:56.985Z</time>
      </trkpt>
      <trkpt lat="48.82514" lon="2.39227">
        <ele>91.7</ele>
        <time>2015-04-27T18:52:57.997Z</time>
      </trkpt>
      <trkpt lat="48.82509" lon="2.39234">
        <ele>91.8</ele>
        <time>2015-04-27T18:52:58.859Z</time>
      </trkpt>
      <trkpt lat="48.82505" lon="2.39241">
        <ele>91.9</ele>
        <time>2015-04-27T18:52:59.888Z</time>
      </trkpt>
      <trkpt lat="48.82501" lon="2.39247">
        <ele>92</ele>
        <time>2015-04-27T18:53:01.022Z</time>
      </trkpt>
      <trkpt lat="48.82497" lon="2.39253">
        <ele>92.3</ele>
        <time>2015-04-27T18:53:01.943Z</time>
      </trkpt>
      <trkpt lat="48.82493" lon="2.39259">
        <ele>92.5</ele>
        <time>2015-04-27T18:53:02.952Z</time>
      </trkpt>
      <trkpt lat="48.8249" lon="2.39265">
        <ele>92.5</ele>
        <time>2015-04-27T18:53:03.990Z</time>
      </trkpt>
      <trkpt lat="48.82486" lon="2.39271">
        <ele>91.9</ele>
        <time>2015-04-27T18:53:05.009Z</time>
      </trkpt>
      <trkpt lat="48.82483" lon="2.39276">
        <ele>91.9</ele>
        <time>2015-04-27T18:53:06.068Z</time>
      </trkpt>
      <trkpt lat="48.8248" lon="2.39281">
        <ele>91.8</ele>
        <time>2015-04-27T18:53:06.972Z</time>
      </trkpt>
      <trkpt lat="48.82476" lon="2.39286">
        <ele>91.7</ele>
        <time>2015-04-27T18:53:08.018Z</time>
      </trkpt>
      <trkpt lat="48.82473" lon="2.39291">
        <ele>91.4</ele>
        <time>2015-04-27T18:53:09.034Z</time>
      </trkpt>
      <trkpt lat="48.8247" lon="2.39296">
        <ele>91.3</ele>
        <time>2015-04-27T18:53:10.041Z</time>
      </trkpt>
      <trkpt lat="48.82464" lon="2.39305">
        <ele>90.9</ele>
        <time>2015-04-27T18:53:11.840Z</time>
      </trkpt>
      <trkpt lat="48.82461" lon="2.39308">
        <ele>90.8</ele>
        <time>2015-04-27T18:53:12.869Z</time>
      </trkpt>
      <trkpt lat="48.82454" lon="2.39314">
        <ele>90.9</ele>
        <time>2015-04-27T18:53:15.048Z</time>
      </trkpt>
      <trkpt lat="48.82451" lon="2.39318">
        <ele>91</ele>
        <time>2015-04-27T18:53:15.881Z</time>
      </trkpt>
      <trkpt lat="48.82448" lon="2.39322">
        <ele>91</ele>
        <time>2015-04-27T18:53:16.911Z</time>
      </trkpt>
      <trkpt lat="48.82444" lon="2.39326">
        <ele>91</ele>
        <time>2015-04-27T18:53:17.952Z</time>
      </trkpt>
      <trkpt lat="48.8244" lon="2.39332">
        <ele>90.7</ele>
        <time>2015-04-27T18:53:18.885Z</time>
      </trkpt>
      <trkpt lat="48.82436" lon="2.39337">
        <ele>90.4</ele>
        <time>2015-04-27T18:53:19.915Z</time>
      </trkpt>
      <trkpt lat="48.82432" lon="2.39343">
        <ele>90.1</ele>
        <time>2015-04-27T18:53:20.897Z</time>
      </trkpt>
      <trkpt lat="48.82427" lon="2.39349">
        <ele>89.6</ele>
        <time>2015-04-27T18:53:21.948Z</time>
      </trkpt>
      <trkpt lat="48.82423" lon="2.39354">
        <ele>89.5</ele>
        <time>2015-04-27T18:53:22.895Z</time>
      </trkpt>
      <trkpt lat="48.82418" lon="2.3936">
        <ele>89.2</ele>
        <time>2015-04-27T18:53:23.909Z</time>
      </trkpt>
      <trkpt lat="48.82413" lon="2.39367">
        <ele>88.7</ele>
        <time>2015-04-27T18:53:24.922Z</time>
      </trkpt>
      <trkpt lat="48.82409" lon="2.39374">
        <ele>88.6</ele>
        <time>2015-04-27T18:53:25.935Z</time>
      </trkpt>
      <trkpt lat="48.82405" lon="2.3938">
        <ele>88.5</ele>
        <time>2015-04-27T18:53:26.951Z</time>
      </trkpt>
      <trkpt lat="48.82401" lon="2.39387">
        <ele>88.5</ele>
        <time>2015-04-27T18:53:27.963Z</time>
      </trkpt>
      <trkpt lat="48.82397" lon="2.39396">
        <ele>88.8</ele>
        <time>2015-04-27T18:53:28.974Z</time>
      </trkpt>
      <trkpt lat="48.82391" lon="2.39401">
        <ele>88.6</ele>
        <time>2015-04-27T18:53:29.901Z</time>
      </trkpt>
      <trkpt lat="48.82386" lon="2.39406">
        <ele>88.6</ele>
        <time>2015-04-27T18:53:30.915Z</time>
      </trkpt>
      <trkpt lat="48.82382" lon="2.3941">
        <ele>88.8</ele>
        <time>2015-04-27T18:53:31.929Z</time>
      </trkpt>
      <trkpt lat="48.82377" lon="2.39416">
        <ele>88.9</ele>
        <time>2015-04-27T18:53:32.932Z</time>
      </trkpt>
      <trkpt lat="48.82373" lon="2.39424">
        <ele>88.9</ele>
        <time>2015-04-27T18:53:33.981Z</time>
      </trkpt>
      <trkpt lat="48.82368" lon="2.39431">
        <ele>89</ele>
        <time>2015-04-27T18:53:35.016Z</time>
      </trkpt>
      <trkpt lat="48.82363" lon="2.39439">
        <ele>89.2</ele>
        <time>2015-04-27T18:53:36.025Z</time>
      </trkpt>
      <trkpt lat="48.82358" lon="2.39447">
        <ele>89.4</ele>
        <time>2015-04-27T18:53:37.035Z</time>
      </trkpt>
      <trkpt lat="48.82353" lon="2.39456">
        <ele>89.4</ele>
        <time>2015-04-27T18:53:38.051Z</time>
      </trkpt>
      <trkpt lat="48.82347" lon="2.39464">
        <ele>89.4</ele>
        <time>2015-04-27T18:53:39.036Z</time>
      </trkpt>
      <trkpt lat="48.8234" lon="2.39472">
        <ele>89.5</ele>
        <time>2015-04-27T18:53:39.929Z</time>
      </trkpt>
      <trkpt lat="48.82335" lon="2.39481">
        <ele>90</ele>
        <time>2015-04-27T18:53:40.872Z</time>
      </trkpt>
      <trkpt lat="48.8233" lon="2.39491">
        <ele>89.8</ele>
        <time>2015-04-27T18:53:41.924Z</time>
      </trkpt>
      <trkpt lat="48.82324" lon="2.395">
        <ele>90.1</ele>
        <time>2015-04-27T18:53:42.953Z</time>
      </trkpt>
      <trkpt lat="48.82316" lon="2.3951">
        <ele>88.7</ele>
        <time>2015-04-27T18:53:43.872Z</time>
      </trkpt>
      <trkpt lat="48.8231" lon="2.39519">
        <ele>88.5</ele>
        <time>2015-04-27T18:53:44.883Z</time>
      </trkpt>
      <trkpt lat="48.82305" lon="2.39528">
        <ele>88.3</ele>
        <time>2015-04-27T18:53:45.933Z</time>
      </trkpt>
      <trkpt lat="48.823" lon="2.39537">
        <ele>87.8</ele>
        <time>2015-04-27T18:53:46.977Z</time>
      </trkpt>
      <trkpt lat="48.82295" lon="2.39547">
        <ele>87.4</ele>
        <time>2015-04-27T18:53:47.885Z</time>
      </trkpt>
      <trkpt lat="48.8229" lon="2.39556">
        <ele>87</ele>
        <time>2015-04-27T18:53:48.899Z</time>
      </trkpt>
      <trkpt lat="48.82285" lon="2.39565">
        <ele>86.5</ele>
        <time>2015-04-27T18:53:49.912Z</time>
      </trkpt>
      <trkpt lat="48.8228" lon="2.39573">
        <ele>85.9</ele>
        <time>2015-04-27T18:53:50.844Z</time>
      </trkpt>
      <trkpt lat="48.82275" lon="2.39582">
        <ele>85.5</ele>
        <time>2015-04-27T18:53:51.923Z</time>
      </trkpt>
      <trkpt lat="48.8227" lon="2.39591">
        <ele>85.3</ele>
        <time>2015-04-27T18:53:52.918Z</time>
      </trkpt>
      <trkpt lat="48.82265" lon="2.396">
        <ele>85.7</ele>
        <time>2015-04-27T18:53:53.924Z</time>
      </trkpt>
      <trkpt lat="48.8226" lon="2.3961">
        <ele>86.4</ele>
        <time>2015-04-27T18:53:54.950Z</time>
      </trkpt>
      <trkpt lat="48.82254" lon="2.39619">
        <ele>86.3</ele>
        <time>2015-04-27T18:53:55.870Z</time>
      </trkpt>
      <trkpt lat="48.82249" lon="2.39627">
        <ele>86.4</ele>
        <time>2015-04-27T18:53:56.878Z</time>
      </trkpt>
      <trkpt lat="48.82244" lon="2.39636">
        <ele>86.4</ele>
        <time>2015-04-27T18:53:57.920Z</time>
      </trkpt>
      <trkpt lat="48.82239" lon="2.39644">
        <ele>86.4</ele>
        <time>2015-04-27T18:53:58.929Z</time>
      </trkpt>
      <trkpt lat="48.82234" lon="2.39653">
        <ele>86.6</ele>
        <time>2015-04-27T18:53:59.874Z</time>
      </trkpt>
      <trkpt lat="48.82229" lon="2.39661">
        <ele>86.6</ele>
        <time>2015-04-27T18:54:00.908Z</time>
      </trkpt>
      <trkpt lat="48.82225" lon="2.3967">
        <ele>86.8</ele>
        <time>2015-04-27T18:54:01.930Z</time>
      </trkpt>
      <trkpt lat="48.8222" lon="2.39678">
        <ele>86.8</ele>
        <time>2015-04-27T18:54:02.942Z</time>
      </trkpt>
      <trkpt lat="48.82216" lon="2.39686">
        <ele>86.5</ele>
        <time>2015-04-27T18:54:03.981Z</time>
      </trkpt>
      <trkpt lat="48.82211" lon="2.39694">
        <ele>86.7</ele>
        <time>2015-04-27T18:54:04.864Z</time>
      </trkpt>
      <trkpt lat="48.82207" lon="2.39702">
        <ele>86.3</ele>
        <time>2015-04-27T18:54:05.896Z</time>
      </trkpt>
      <trkpt lat="48.82202" lon="2.3971">
        <ele>85.9</ele>
        <time>2015-04-27T18:54:07.094Z</time>
      </trkpt>
      <trkpt lat="48.82197" lon="2.39718">
        <ele>85.8</ele>
        <time>2015-04-27T18:54:08.006Z</time>
      </trkpt>
      <trkpt lat="48.82193" lon="2.39727">
        <ele>86.6</ele>
        <time>2015-04-27T18:54:09.059Z</time>
      </trkpt>
      <trkpt lat="48.82189" lon="2.39735">
        <ele>86.4</ele>
        <time>2015-04-27T18:54:10.071Z</time>
      </trkpt>
      <trkpt lat="48.82185" lon="2.39744">
        <ele>86.5</ele>
        <time>2015-04-27T18:54:11.076Z</time>
      </trkpt>
      <trkpt lat="48.82181" lon="2.39752">
        <ele>86.4</ele>
        <time>2015-04-27T18:54:12.009Z</time>
      </trkpt>
      <trkpt lat="48.82177" lon="2.3976">
        <ele>86.3</ele>
        <time>2015-04-27T18:54:13.038Z</time>
      </trkpt>
      <trkpt lat="48.82173" lon="2.39768">
        <ele>85.9</ele>
        <time>2015-04-27T18:54:14.076Z</time>
      </trkpt>
      <trkpt lat="48.82169" lon="2.39776">
        <ele>85.5</ele>
        <time>2015-04-27T18:54:14.931Z</time>
      </trkpt>
      <trkpt lat="48.82165" lon="2.39784">
        <ele>85.4</ele>
        <time>2015-04-27T18:54:15.946Z</time>
      </trkpt>
      <trkpt lat="48.82161" lon="2.39792">
        <ele>85.1</ele>
        <time>2015-04-27T18:54:16.957Z</time>
      </trkpt>
      <trkpt lat="48.82157" lon="2.39799">
        <ele>84.8</ele>
        <time>2015-04-27T18:54:17.979Z</time>
      </trkpt>
      <trkpt lat="48.82153" lon="2.39807">
        <ele>84.8</ele>
        <time>2015-04-27T18:54:18.895Z</time>
      </trkpt>
      <trkpt lat="48.8215" lon="2.39815">
        <ele>85.1</ele>
        <time>2015-04-27T18:54:19.887Z</time>
      </trkpt>
      <trkpt lat="48.82146" lon="2.39823">
        <ele>85.6</ele>
        <time>2015-04-27T18:54:20.906Z</time>
      </trkpt>
      <trkpt lat="48.82143" lon="2.39832">
        <ele>85.8</ele>
        <time>2015-04-27T18:54:21.933Z</time>
      </trkpt>
      <trkpt lat="48.82139" lon="2.39841">
        <ele>86</ele>
        <time>2015-04-27T18:54:22.954Z</time>
      </trkpt>
      <trkpt lat="48.82136" lon="2.3985">
        <ele>86</ele>
        <time>2015-04-27T18:54:23.896Z</time>
      </trkpt>
      <trkpt lat="48.82132" lon="2.39859">
        <ele>85.8</ele>
        <time>2015-04-27T18:54:24.894Z</time>
      </trkpt>
      <trkpt lat="48.82129" lon="2.39867">
        <ele>85.6</ele>
        <time>2015-04-27T18:54:25.912Z</time>
      </trkpt>
      <trkpt lat="48.82125" lon="2.39875">
        <ele>85.7</ele>
        <time>2015-04-27T18:54:26.916Z</time>
      </trkpt>
      <trkpt lat="48.82121" lon="2.39883">
        <ele>86.1</ele>
        <time>2015-04-27T18:54:27.953Z</time>
      </trkpt>
      <trkpt lat="48.82118" lon="2.39891">
        <ele>86.5</ele>
        <time>2015-04-27T18:54:28.893Z</time>
      </trkpt>
      <trkpt lat="48.82114" lon="2.39899">
        <ele>87</ele>
        <time>2015-04-27T18:54:29.923Z</time>
      </trkpt>
      <trkpt lat="48.82111" lon="2.39905">
        <ele>87</ele>
        <time>2015-04-27T18:54:30.924Z</time>
      </trkpt>
      <trkpt lat="48.82108" lon="2.39914">
        <ele>87.1</ele>
        <time>2015-04-27T18:54:31.930Z</time>
      </trkpt>
      <trkpt lat="48.82104" lon="2.39922">
        <ele>86.8</ele>
        <time>2015-04-27T18:54:32.950Z</time>
      </trkpt>
      <trkpt lat="48.821" lon="2.3993">
        <ele>86.4</ele>
        <time>2015-04-27T18:54:33.956Z</time>
      </trkpt>
      <trkpt lat="48.82096" lon="2.39939">
        <ele>86.1</ele>
        <time>2015-04-27T18:54:35.012Z</time>
      </trkpt>
      <trkpt lat="48.82093" lon="2.39946">
        <ele>85.9</ele>
        <time>2015-04-27T18:54:36.026Z</time>
      </trkpt>
      <trkpt lat="48.8209" lon="2.39954">
        <ele>85.3</ele>
        <time>2015-04-27T18:54:37.044Z</time>
      </trkpt>
      <trkpt lat="48.82086" lon="2.39961">
        <ele>85</ele>
        <time>2015-04-27T18:54:38.044Z</time>
      </trkpt>
      <trkpt lat="48.82083" lon="2.3997">
        <ele>84.5</ele>
        <time>2015-04-27T18:54:39.070Z</time>
      </trkpt>
      <trkpt lat="48.8208" lon="2.39979">
        <ele>83.9</ele>
        <time>2015-04-27T18:54:39.986Z</time>
      </trkpt>
      <trkpt lat="48.82077" lon="2.39989">
        <ele>83.4</ele>
        <time>2015-04-27T18:54:40.842Z</time>
      </trkpt>
      <trkpt lat="48.82075" lon="2.39998">
        <ele>83.3</ele>
        <time>2015-04-27T18:54:41.911Z</time>
      </trkpt>
      <trkpt lat="48.82072" lon="2.40008">
        <ele>83.3</ele>
        <time>2015-04-27T18:54:42.890Z</time>
      </trkpt>
      <trkpt lat="48.82069" lon="2.40018">
        <ele>83.2</ele>
        <time>2015-04-27T18:54:43.839Z</time>
      </trkpt>
      <trkpt lat="48.82066" lon="2.40028">
        <ele>83.2</ele>
        <time>2015-04-27T18:54:44.872Z</time>
      </trkpt>
      <trkpt lat="48.82064" lon="2.40038">
        <ele>83.4</ele>
        <time>2015-04-27T18:54:45.906Z</time>
      </trkpt>
      <trkpt lat="48.82061" lon="2.40047">
        <ele>83.7</ele>
        <time>2015-04-27T18:54:46.904Z</time>
      </trkpt>
      <trkpt lat="48.82059" lon="2.40056">
        <ele>84.1</ele>
        <time>2015-04-27T18:54:47.935Z</time>
      </trkpt>
      <trkpt lat="48.82056" lon="2.40064">
        <ele>84.5</ele>
        <time>2015-04-27T18:54:48.839Z</time>
      </trkpt>
      <trkpt lat="48.82054" lon="2.40071">
        <ele>84.6</ele>
        <time>2015-04-27T18:54:49.863Z</time>
      </trkpt>
      <trkpt lat="48.82051" lon="2.40079">
        <ele>84.8</ele>
        <time>2015-04-27T18:54:51.073Z</time>
      </trkpt>
      <trkpt lat="48.82048" lon="2.40087">
        <ele>85.1</ele>
        <time>2015-04-27T18:54:51.992Z</time>
      </trkpt>
      <trkpt lat="48.82044" lon="2.40095">
        <ele>85.7</ele>
        <time>2015-04-27T18:54:53.022Z</time>
      </trkpt>
      <trkpt lat="48.8204" lon="2.40103">
        <ele>85.9</ele>
        <time>2015-04-27T18:54:54.037Z</time>
      </trkpt>
      <trkpt lat="48.82035" lon="2.40112">
        <ele>86</ele>
        <time>2015-04-27T18:54:54.849Z</time>
      </trkpt>
      <trkpt lat="48.82031" lon="2.40122">
        <ele>85.8</ele>
        <time>2015-04-27T18:54:55.920Z</time>
      </trkpt>
      <trkpt lat="48.82029" lon="2.40131">
        <ele>85.9</ele>
        <time>2015-04-27T18:54:56.942Z</time>
      </trkpt>
      <trkpt lat="48.82026" lon="2.4014">
        <ele>85.7</ele>
        <time>2015-04-27T18:54:57.961Z</time>
      </trkpt>
      <trkpt lat="48.82023" lon="2.40148">
        <ele>86.2</ele>
        <time>2015-04-27T18:54:58.873Z</time>
      </trkpt>
      <trkpt lat="48.8202" lon="2.40156">
        <ele>86.5</ele>
        <time>2015-04-27T18:54:59.873Z</time>
      </trkpt>
      <trkpt lat="48.82018" lon="2.40165">
        <ele>86.3</ele>
        <time>2015-04-27T18:55:00.921Z</time>
      </trkpt>
      <trkpt lat="48.82016" lon="2.40175">
        <ele>85.8</ele>
        <time>2015-04-27T18:55:01.955Z</time>
      </trkpt>
      <trkpt lat="48.82013" lon="2.40184">
        <ele>85.4</ele>
        <time>2015-04-27T18:55:02.878Z</time>
      </trkpt>
      <trkpt lat="48.8201" lon="2.40193">
        <ele>85</ele>
        <time>2015-04-27T18:55:03.963Z</time>
      </trkpt>
      <trkpt lat="48.82007" lon="2.40203">
        <ele>84.7</ele>
        <time>2015-04-27T18:55:04.977Z</time>
      </trkpt>
      <trkpt lat="48.82004" lon="2.40211">
        <ele>84</ele>
        <time>2015-04-27T18:55:06.022Z</time>
      </trkpt>
      <trkpt lat="48.82001" lon="2.4022">
        <ele>83.6</ele>
        <time>2015-04-27T18:55:07.039Z</time>
      </trkpt>
      <trkpt lat="48.81999" lon="2.4023">
        <ele>83.4</ele>
        <time>2015-04-27T18:55:08.068Z</time>
      </trkpt>
      <trkpt lat="48.81996" lon="2.40239">
        <ele>83.5</ele>
        <time>2015-04-27T18:55:09.081Z</time>
      </trkpt>
      <trkpt lat="48.81993" lon="2.40248">
        <ele>83.6</ele>
        <time>2015-04-27T18:55:10.089Z</time>
      </trkpt>
      <trkpt lat="48.81989" lon="2.40257">
        <ele>83.3</ele>
        <time>2015-04-27T18:55:10.993Z</time>
      </trkpt>
      <trkpt lat="48.81986" lon="2.40266">
        <ele>83.7</ele>
        <time>2015-04-27T18:55:11.997Z</time>
      </trkpt>
      <trkpt lat="48.81984" lon="2.40276">
        <ele>83.4</ele>
        <time>2015-04-27T18:55:12.882Z</time>
      </trkpt>
      <trkpt lat="48.81982" lon="2.40286">
        <ele>83.2</ele>
        <time>2015-04-27T18:55:13.987Z</time>
      </trkpt>
      <trkpt lat="48.8198" lon="2.40297">
        <ele>83.4</ele>
        <time>2015-04-27T18:55:14.873Z</time>
      </trkpt>
      <trkpt lat="48.81977" lon="2.40307">
        <ele>83.9</ele>
        <time>2015-04-27T18:55:15.910Z</time>
      </trkpt>
      <trkpt lat="48.81975" lon="2.40317">
        <ele>84.2</ele>
        <time>2015-04-27T18:55:16.907Z</time>
      </trkpt>
      <trkpt lat="48.81972" lon="2.40327">
        <ele>84.3</ele>
        <time>2015-04-27T18:55:17.916Z</time>
      </trkpt>
      <trkpt lat="48.81969" lon="2.40336">
        <ele>84.3</ele>
        <time>2015-04-27T18:55:18.927Z</time>
      </trkpt>
      <trkpt lat="48.81966" lon="2.40346">
        <ele>84.2</ele>
        <time>2015-04-27T18:55:19.992Z</time>
      </trkpt>
      <trkpt lat="48.81964" lon="2.40357">
        <ele>84.8</ele>
        <time>2015-04-27T18:55:20.879Z</time>
      </trkpt>
      <trkpt lat="48.81961" lon="2.40367">
        <ele>85.2</ele>
        <time>2015-04-27T18:55:21.926Z</time>
      </trkpt>
      <trkpt lat="48.81959" lon="2.40377">
        <ele>85.7</ele>
        <time>2015-04-27T18:55:23.001Z</time>
      </trkpt>
      <trkpt lat="48.81956" lon="2.40387">
        <ele>85.5</ele>
        <time>2015-04-27T18:55:23.886Z</time>
      </trkpt>
      <trkpt lat="48.81954" lon="2.40396">
        <ele>85.4</ele>
        <time>2015-04-27T18:55:24.929Z</time>
      </trkpt>
      <trkpt lat="48.81951" lon="2.40404">
        <ele>85.4</ele>
        <time>2015-04-27T18:55:25.945Z</time>
      </trkpt>
      <trkpt lat="48.81948" lon="2.40412">
        <ele>85.5</ele>
        <time>2015-04-27T18:55:26.954Z</time>
      </trkpt>
      <trkpt lat="48.81947" lon="2.40419">
        <ele>85.6</ele>
        <time>2015-04-27T18:55:27.987Z</time>
      </trkpt>
      <trkpt lat="48.81945" lon="2.40426">
        <ele>85.1</ele>
        <time>2015-04-27T18:55:28.892Z</time>
      </trkpt>
      <trkpt lat="48.81943" lon="2.40433">
        <ele>85.5</ele>
        <time>2015-04-27T18:55:30.151Z</time>
      </trkpt>
      <trkpt lat="48.81943" lon="2.40446">
        <ele>85.9</ele>
        <time>2015-04-27T18:55:31.884Z</time>
      </trkpt>
      <trkpt lat="48.81944" lon="2.40452">
        <ele>85.9</ele>
        <time>2015-04-27T18:55:32.939Z</time>
      </trkpt>
      <trkpt lat="48.81944" lon="2.40462">
        <ele>85.8</ele>
        <time>2015-04-27T18:55:35.004Z</time>
      </trkpt>
      <trkpt lat="48.81942" lon="2.40469">
        <ele>85.8</ele>
        <time>2015-04-27T18:55:36.052Z</time>
      </trkpt>
      <trkpt lat="48.81939" lon="2.40476">
        <ele>85.7</ele>
        <time>2015-04-27T18:55:37.005Z</time>
      </trkpt>
      <trkpt lat="48.81937" lon="2.40483">
        <ele>85.9</ele>
        <time>2015-04-27T18:55:38.025Z</time>
      </trkpt>
      <trkpt lat="48.81936" lon="2.40491">
        <ele>85.9</ele>
        <time>2015-04-27T18:55:39.116Z</time>
      </trkpt>
      <trkpt lat="48.81934" lon="2.40498">
        <ele>86.2</ele>
        <time>2015-04-27T18:55:39.929Z</time>
      </trkpt>
      <trkpt lat="48.81932" lon="2.40506">
        <ele>86.5</ele>
        <time>2015-04-27T18:55:40.990Z</time>
      </trkpt>
      <trkpt lat="48.81929" lon="2.40515">
        <ele>86.4</ele>
        <time>2015-04-27T18:55:41.956Z</time>
      </trkpt>
      <trkpt lat="48.81927" lon="2.40523">
        <ele>86.2</ele>
        <time>2015-04-27T18:55:42.861Z</time>
      </trkpt>
      <trkpt lat="48.81924" lon="2.40533">
        <ele>86.2</ele>
        <time>2015-04-27T18:55:43.895Z</time>
      </trkpt>
      <trkpt lat="48.81922" lon="2.40542">
        <ele>86</ele>
        <time>2015-04-27T18:55:45.121Z</time>
      </trkpt>
      <trkpt lat="48.81919" lon="2.40552">
        <ele>85.7</ele>
        <time>2015-04-27T18:55:45.993Z</time>
      </trkpt>
      <trkpt lat="48.81917" lon="2.40561">
        <ele>85.3</ele>
        <time>2015-04-27T18:55:46.844Z</time>
      </trkpt>
      <trkpt lat="48.81914" lon="2.40571">
        <ele>85</ele>
        <time>2015-04-27T18:55:47.885Z</time>
      </trkpt>
      <trkpt lat="48.81911" lon="2.4058">
        <ele>84.4</ele>
        <time>2015-04-27T18:55:48.908Z</time>
      </trkpt>
      <trkpt lat="48.81909" lon="2.4059">
        <ele>83.8</ele>
        <time>2015-04-27T18:55:49.913Z</time>
      </trkpt>
      <trkpt lat="48.81906" lon="2.40599">
        <ele>83.5</ele>
        <time>2015-04-27T18:55:50.931Z</time>
      </trkpt>
      <trkpt lat="48.81904" lon="2.40608">
        <ele>83.1</ele>
        <time>2015-04-27T18:55:52.013Z</time>
      </trkpt>
      <trkpt lat="48.81902" lon="2.40617">
        <ele>82.9</ele>
        <time>2015-04-27T18:55:52.864Z</time>
      </trkpt>
      <trkpt lat="48.819" lon="2.40626">
        <ele>82.7</ele>
        <time>2015-04-27T18:55:54.184Z</time>
      </trkpt>
      <trkpt lat="48.81897" lon="2.40635">
        <ele>82.5</ele>
        <time>2015-04-27T18:55:54.907Z</time>
      </trkpt>
      <trkpt lat="48.81895" lon="2.40646">
        <ele>82.6</ele>
        <time>2015-04-27T18:55:55.915Z</time>
      </trkpt>
      <trkpt lat="48.81893" lon="2.40655">
        <ele>82.7</ele>
        <time>2015-04-27T18:55:56.947Z</time>
      </trkpt>
      <trkpt lat="48.81891" lon="2.40665">
        <ele>83</ele>
        <time>2015-04-27T18:55:57.975Z</time>
      </trkpt>
      <trkpt lat="48.81888" lon="2.40674">
        <ele>83.3</ele>
        <time>2015-04-27T18:55:58.997Z</time>
      </trkpt>
      <trkpt lat="48.81886" lon="2.40682">
        <ele>83.5</ele>
        <time>2015-04-27T18:55:59.870Z</time>
      </trkpt>
      <trkpt lat="48.81884" lon="2.4069">
        <ele>83.5</ele>
        <time>2015-04-27T18:56:00.891Z</time>
      </trkpt>
      <trkpt lat="48.81882" lon="2.40698">
        <ele>84.4</ele>
        <time>2015-04-27T18:56:01.928Z</time>
      </trkpt>
      <trkpt lat="48.81879" lon="2.40705">
        <ele>85.2</ele>
        <time>2015-04-27T18:56:02.941Z</time>
      </trkpt>
      <trkpt lat="48.81877" lon="2.40713">
        <ele>85.8</ele>
        <time>2015-04-27T18:56:03.957Z</time>
      </trkpt>
      <trkpt lat="48.81875" lon="2.40721">
        <ele>86.4</ele>
        <time>2015-04-27T18:56:04.974Z</time>
      </trkpt>
      <trkpt lat="48.81874" lon="2.40729">
        <ele>86.7</ele>
        <time>2015-04-27T18:56:06.015Z</time>
      </trkpt>
      <trkpt lat="48.81872" lon="2.40738">
        <ele>86.5</ele>
        <time>2015-04-27T18:56:07.027Z</time>
      </trkpt>
      <trkpt lat="48.81869" lon="2.40746">
        <ele>86.2</ele>
        <time>2015-04-27T18:56:08.034Z</time>
      </trkpt>
      <trkpt lat="48.81867" lon="2.40754">
        <ele>86.1</ele>
        <time>2015-04-27T18:56:08.878Z</time>
      </trkpt>
      <trkpt lat="48.81864" lon="2.40764">
        <ele>86.1</ele>
        <time>2015-04-27T18:56:10.109Z</time>
      </trkpt>
      <trkpt lat="48.81861" lon="2.40772">
        <ele>86.3</ele>
        <time>2015-04-27T18:56:10.992Z</time>
      </trkpt>
      <trkpt lat="48.81858" lon="2.40779">
        <ele>86.4</ele>
        <time>2015-04-27T18:56:12.009Z</time>
      </trkpt>
      <trkpt lat="48.81856" lon="2.40788">
        <ele>87</ele>
        <time>2015-04-27T18:56:13.018Z</time>
      </trkpt>
      <trkpt lat="48.81854" lon="2.40796">
        <ele>87.4</ele>
        <time>2015-04-27T18:56:14.026Z</time>
      </trkpt>
      <trkpt lat="48.81854" lon="2.40804">
        <ele>87.2</ele>
        <time>2015-04-27T18:56:15.033Z</time>
      </trkpt>
      <trkpt lat="48.81853" lon="2.40812">
        <ele>87.3</ele>
        <time>2015-04-27T18:56:15.867Z</time>
      </trkpt>
      <trkpt lat="48.81852" lon="2.40819">
        <ele>87.2</ele>
        <time>2015-04-27T18:56:16.966Z</time>
      </trkpt>
      <trkpt lat="48.81851" lon="2.40826">
        <ele>87.3</ele>
        <time>2015-04-27T18:56:17.848Z</time>
      </trkpt>
      <trkpt lat="48.81851" lon="2.40838">
        <ele>87.3</ele>
        <time>2015-04-27T18:56:19.867Z</time>
      </trkpt>
      <trkpt lat="48.81851" lon="2.40844">
        <ele>87.7</ele>
        <time>2015-04-27T18:56:20.941Z</time>
      </trkpt>
      <trkpt lat="48.81849" lon="2.40857">
        <ele>88.1</ele>
        <time>2015-04-27T18:56:22.889Z</time>
      </trkpt>
      <trkpt lat="48.81846" lon="2.40863">
        <ele>88.4</ele>
        <time>2015-04-27T18:56:23.922Z</time>
      </trkpt>
      <trkpt lat="48.81844" lon="2.40868">
        <ele>88.8</ele>
        <time>2015-04-27T18:56:24.932Z</time>
      </trkpt>
      <trkpt lat="48.81843" lon="2.40875">
        <ele>89.1</ele>
        <time>2015-04-27T18:56:25.937Z</time>
      </trkpt>
      <trkpt lat="48.8184" lon="2.40883">
        <ele>88.8</ele>
        <time>2015-04-27T18:56:26.857Z</time>
      </trkpt>
      <trkpt lat="48.81838" lon="2.40892">
        <ele>88.8</ele>
        <time>2015-04-27T18:56:27.923Z</time>
      </trkpt>
      <trkpt lat="48.81836" lon="2.409">
        <ele>88.7</ele>
        <time>2015-04-27T18:56:28.950Z</time>
      </trkpt>
      <trkpt lat="48.81833" lon="2.40907">
        <ele>88.6</ele>
        <time>2015-04-27T18:56:29.875Z</time>
      </trkpt>
      <trkpt lat="48.8183" lon="2.40915">
        <ele>88.4</ele>
        <time>2015-04-27T18:56:30.984Z</time>
      </trkpt>
      <trkpt lat="48.81828" lon="2.40925">
        <ele>88.5</ele>
        <time>2015-04-27T18:56:31.888Z</time>
      </trkpt>
      <trkpt lat="48.81827" lon="2.40934">
        <ele>88.8</ele>
        <time>2015-04-27T18:56:32.902Z</time>
      </trkpt>
      <trkpt lat="48.81825" lon="2.40943">
        <ele>89</ele>
        <time>2015-04-27T18:56:33.977Z</time>
      </trkpt>
      <trkpt lat="48.81824" lon="2.40951">
        <ele>89</ele>
        <time>2015-04-27T18:56:34.997Z</time>
      </trkpt>
      <trkpt lat="48.81822" lon="2.4096">
        <ele>89</ele>
        <time>2015-04-27T18:56:36.015Z</time>
      </trkpt>
      <trkpt lat="48.8182" lon="2.40968">
        <ele>88.5</ele>
        <time>2015-04-27T18:56:37.041Z</time>
      </trkpt>
      <trkpt lat="48.81817" lon="2.40977">
        <ele>88.1</ele>
        <time>2015-04-27T18:56:38.053Z</time>
      </trkpt>
      <trkpt lat="48.81815" lon="2.40986">
        <ele>87.7</ele>
        <time>2015-04-27T18:56:39.074Z</time>
      </trkpt>
      <trkpt lat="48.81812" lon="2.40995">
        <ele>87.3</ele>
        <time>2015-04-27T18:56:39.996Z</time>
      </trkpt>
      <trkpt lat="48.81811" lon="2.41004">
        <ele>87.1</ele>
        <time>2015-04-27T18:56:41.002Z</time>
      </trkpt>
      <trkpt lat="48.81809" lon="2.41013">
        <ele>86.9</ele>
        <time>2015-04-27T18:56:42.025Z</time>
      </trkpt>
      <trkpt lat="48.81808" lon="2.41023">
        <ele>87.1</ele>
        <time>2015-04-27T18:56:43.036Z</time>
      </trkpt>
      <trkpt lat="48.81806" lon="2.41032">
        <ele>87.3</ele>
        <time>2015-04-27T18:56:44.045Z</time>
      </trkpt>
      <trkpt lat="48.81805" lon="2.41041">
        <ele>87.3</ele>
        <time>2015-04-27T18:56:45.064Z</time>
      </trkpt>
      <trkpt lat="48.81803" lon="2.4105">
        <ele>87.4</ele>
        <time>2015-04-27T18:56:46.080Z</time>
      </trkpt>
      <trkpt lat="48.81802" lon="2.41059">
        <ele>87.6</ele>
        <time>2015-04-27T18:56:46.889Z</time>
      </trkpt>
      <trkpt lat="48.818" lon="2.41067">
        <ele>88</ele>
        <time>2015-04-27T18:56:47.919Z</time>
      </trkpt>
      <trkpt lat="48.81799" lon="2.41075">
        <ele>88</ele>
        <time>2015-04-27T18:56:48.925Z</time>
      </trkpt>
      <trkpt lat="48.81797" lon="2.41082">
        <ele>88.2</ele>
        <time>2015-04-27T18:56:49.932Z</time>
      </trkpt>
      <trkpt lat="48.81794" lon="2.41095">
        <ele>88.8</ele>
        <time>2015-04-27T18:56:51.962Z</time>
      </trkpt>
      <trkpt lat="48.81793" lon="2.41099">
        <ele>88.9</ele>
        <time>2015-04-27T18:56:52.884Z</time>
      </trkpt>
      <trkpt lat="48.81789" lon="2.41102">
        <ele>88.8</ele>
        <time>2015-04-27T18:57:59.932Z</time>
      </trkpt>
      <trkpt lat="48.81781" lon="2.41096">
        <ele>92.5</ele>
        <time>2015-04-27T18:58:00.977Z</time>
      </trkpt>
      <trkpt lat="48.81775" lon="2.41093">
        <ele>92.6</ele>
        <time>2015-04-27T18:58:02.918Z</time>
      </trkpt>
      <trkpt lat="48.81772" lon="2.41092">
        <ele>92.7</ele>
        <time>2015-04-27T18:58:03.970Z</time>
      </trkpt>
      <trkpt lat="48.81765" lon="2.41087">
        <ele>92.6</ele>
        <time>2015-04-27T18:58:06.008Z</time>
      </trkpt>
      <trkpt lat="48.81762" lon="2.41084">
        <ele>92.6</ele>
        <time>2015-04-27T18:58:07.019Z</time>
      </trkpt>
      <trkpt lat="48.81755" lon="2.41079">
        <ele>92.6</ele>
        <time>2015-04-27T18:58:09.114Z</time>
      </trkpt>
      <trkpt lat="48.81751" lon="2.41076">
        <ele>92.6</ele>
        <time>2015-04-27T18:58:09.998Z</time>
      </trkpt>
      <trkpt lat="48.81744" lon="2.4107">
        <ele>92.7</ele>
        <time>2015-04-27T18:58:11.849Z</time>
      </trkpt>
      <trkpt lat="48.81739" lon="2.41067">
        <ele>92.7</ele>
        <time>2015-04-27T18:58:13.065Z</time>
      </trkpt>
      <trkpt lat="48.81734" lon="2.41064">
        <ele>92.8</ele>
        <time>2015-04-27T18:58:13.985Z</time>
      </trkpt>
      <trkpt lat="48.81729" lon="2.41062">
        <ele>92.8</ele>
        <time>2015-04-27T18:58:15.013Z</time>
      </trkpt>
      <trkpt lat="48.81724" lon="2.4106">
        <ele>92.8</ele>
        <time>2015-04-27T18:58:15.976Z</time>
      </trkpt>
      <trkpt lat="48.81719" lon="2.41058">
        <ele>93</ele>
        <time>2015-04-27T18:58:17.052Z</time>
      </trkpt>
      <trkpt lat="48.8171" lon="2.41056">
        <ele>92.8</ele>
        <time>2015-04-27T18:58:21.047Z</time>
      </trkpt>
      <trkpt lat="48.8171" lon="2.41056">
        <ele>92.7</ele>
        <time>2015-04-27T18:58:21.988Z</time>
      </trkpt>
      <trkpt lat="48.81706" lon="2.41068">
        <ele>91.5</ele>
        <time>2015-04-27T18:58:35.988Z</time>
      </trkpt>
      <trkpt lat="48.81705" lon="2.41071">
        <ele>91.3</ele>
        <time>2015-04-27T18:58:36.990Z</time>
      </trkpt>
      <trkpt lat="48.81701" lon="2.41082">
        <ele>90.8</ele>
        <time>2015-04-27T18:58:39.962Z</time>
      </trkpt>
      <trkpt lat="48.81699" lon="2.41087">
        <ele>90.3</ele>
        <time>2015-04-27T18:58:40.918Z</time>
      </trkpt>
      <trkpt lat="48.81696" lon="2.41092">
        <ele>90</ele>
        <time>2015-04-27T18:58:41.920Z</time>
      </trkpt>
      <trkpt lat="48.81694" lon="2.41099">
        <ele>89.7</ele>
        <time>2015-04-27T18:58:42.928Z</time>
      </trkpt>
      <trkpt lat="48.81691" lon="2.41105">
        <ele>89.5</ele>
        <time>2015-04-27T18:58:43.944Z</time>
      </trkpt>
      <trkpt lat="48.81689" lon="2.41112">
        <ele>89.5</ele>
        <time>2015-04-27T18:58:44.865Z</time>
      </trkpt>
      <trkpt lat="48.81688" lon="2.41119">
        <ele>89.6</ele>
        <time>2015-04-27T18:58:45.995Z</time>
      </trkpt>
      <trkpt lat="48.81687" lon="2.41127">
        <ele>89.6</ele>
        <time>2015-04-27T18:58:46.908Z</time>
      </trkpt>
      <trkpt lat="48.81686" lon="2.41135">
        <ele>89.6</ele>
        <time>2015-04-27T18:58:47.947Z</time>
      </trkpt>
      <trkpt lat="48.81685" lon="2.41143">
        <ele>89.5</ele>
        <time>2015-04-27T18:58:48.955Z</time>
      </trkpt>
      <trkpt lat="48.81682" lon="2.4115">
        <ele>89.2</ele>
        <time>2015-04-27T18:58:49.888Z</time>
      </trkpt>
      <trkpt lat="48.81681" lon="2.41158">
        <ele>88.8</ele>
        <time>2015-04-27T18:58:50.879Z</time>
      </trkpt>
      <trkpt lat="48.81679" lon="2.41167">
        <ele>88.7</ele>
        <time>2015-04-27T18:58:51.927Z</time>
      </trkpt>
      <trkpt lat="48.81678" lon="2.41175">
        <ele>88.7</ele>
        <time>2015-04-27T18:58:52.922Z</time>
      </trkpt>
      <trkpt lat="48.81678" lon="2.41184">
        <ele>88.2</ele>
        <time>2015-04-27T18:58:53.936Z</time>
      </trkpt>
      <trkpt lat="48.81677" lon="2.41193">
        <ele>88.1</ele>
        <time>2015-04-27T18:58:54.942Z</time>
      </trkpt>
      <trkpt lat="48.81678" lon="2.41203">
        <ele>87.8</ele>
        <time>2015-04-27T18:58:55.881Z</time>
      </trkpt>
      <trkpt lat="48.81677" lon="2.41211">
        <ele>87.7</ele>
        <time>2015-04-27T18:58:56.899Z</time>
      </trkpt>
      <trkpt lat="48.81676" lon="2.4122">
        <ele>87.3</ele>
        <time>2015-04-27T18:58:57.954Z</time>
      </trkpt>
      <trkpt lat="48.81676" lon="2.4123">
        <ele>87.2</ele>
        <time>2015-04-27T18:58:58.903Z</time>
      </trkpt>
      <trkpt lat="48.81675" lon="2.41238">
        <ele>87.1</ele>
        <time>2015-04-27T18:59:00.031Z</time>
      </trkpt>
      <trkpt lat="48.81675" lon="2.41246">
        <ele>87.2</ele>
        <time>2015-04-27T18:59:01.039Z</time>
      </trkpt>
      <trkpt lat="48.81676" lon="2.41255">
        <ele>87.3</ele>
        <time>2015-04-27T18:59:01.911Z</time>
      </trkpt>
      <trkpt lat="48.81675" lon="2.41264">
        <ele>87</ele>
        <time>2015-04-27T18:59:02.940Z</time>
      </trkpt>
      <trkpt lat="48.81674" lon="2.41273">
        <ele>86.8</ele>
        <time>2015-04-27T18:59:03.945Z</time>
      </trkpt>
      <trkpt lat="48.81674" lon="2.41282">
        <ele>86.9</ele>
        <time>2015-04-27T18:59:04.979Z</time>
      </trkpt>
      <trkpt lat="48.81674" lon="2.4129">
        <ele>86.8</ele>
        <time>2015-04-27T18:59:05.997Z</time>
      </trkpt>
      <trkpt lat="48.81673" lon="2.41299">
        <ele>86.8</ele>
        <time>2015-04-27T18:59:07.017Z</time>
      </trkpt>
      <trkpt lat="48.81672" lon="2.41307">
        <ele>86.9</ele>
        <time>2015-04-27T18:59:07.972Z</time>
      </trkpt>
      <trkpt lat="48.8167" lon="2.41315">
        <ele>87.3</ele>
        <time>2015-04-27T18:59:09.014Z</time>
      </trkpt>
      <trkpt lat="48.81669" lon="2.41322">
        <ele>87.5</ele>
        <time>2015-04-27T18:59:09.883Z</time>
      </trkpt>
      <trkpt lat="48.81666" lon="2.4133">
        <ele>87.6</ele>
        <time>2015-04-27T18:59:10.833Z</time>
      </trkpt>
      <trkpt lat="48.81663" lon="2.41338">
        <ele>87.7</ele>
        <time>2015-04-27T18:59:11.917Z</time>
      </trkpt>
      <trkpt lat="48.8166" lon="2.41347">
        <ele>87.7</ele>
        <time>2015-04-27T18:59:12.827Z</time>
      </trkpt>
      <trkpt lat="48.81658" lon="2.41356">
        <ele>87.7</ele>
        <time>2015-04-27T18:59:14.046Z</time>
      </trkpt>
      <trkpt lat="48.81659" lon="2.41367">
        <ele>88.3</ele>
        <time>2015-04-27T18:59:15.059Z</time>
      </trkpt>
      <trkpt lat="48.8166" lon="2.41377">
        <ele>88.5</ele>
        <time>2015-04-27T18:59:15.884Z</time>
      </trkpt>
      <trkpt lat="48.8166" lon="2.41387">
        <ele>88.7</ele>
        <time>2015-04-27T18:59:16.975Z</time>
      </trkpt>
      <trkpt lat="48.81662" lon="2.41397">
        <ele>89</ele>
        <time>2015-04-27T18:59:18.014Z</time>
      </trkpt>
      <trkpt lat="48.81663" lon="2.41405">
        <ele>89.3</ele>
        <time>2015-04-27T18:59:18.937Z</time>
      </trkpt>
      <trkpt lat="48.81663" lon="2.41413">
        <ele>89.5</ele>
        <time>2015-04-27T18:59:19.882Z</time>
      </trkpt>
      <trkpt lat="48.81663" lon="2.41421">
        <ele>89.7</ele>
        <time>2015-04-27T18:59:20.923Z</time>
      </trkpt>
      <trkpt lat="48.81662" lon="2.41428">
        <ele>90</ele>
        <time>2015-04-27T18:59:21.897Z</time>
      </trkpt>
      <trkpt lat="48.81663" lon="2.41436">
        <ele>90.1</ele>
        <time>2015-04-27T18:59:22.901Z</time>
      </trkpt>
      <trkpt lat="48.81662" lon="2.41444">
        <ele>90.3</ele>
        <time>2015-04-27T18:59:23.905Z</time>
      </trkpt>
      <trkpt lat="48.81662" lon="2.41452">
        <ele>90.4</ele>
        <time>2015-04-27T18:59:24.918Z</time>
      </trkpt>
      <trkpt lat="48.81662" lon="2.41461">
        <ele>90.3</ele>
        <time>2015-04-27T18:59:26.014Z</time>
      </trkpt>
      <trkpt lat="48.81663" lon="2.4147">
        <ele>90.2</ele>
        <time>2015-04-27T18:59:26.856Z</time>
      </trkpt>
      <trkpt lat="48.81663" lon="2.41479">
        <ele>90.1</ele>
        <time>2015-04-27T18:59:28.013Z</time>
      </trkpt>
      <trkpt lat="48.81663" lon="2.41488">
        <ele>89.8</ele>
        <time>2015-04-27T18:59:29.033Z</time>
      </trkpt>
      <trkpt lat="48.81663" lon="2.41495">
        <ele>89.6</ele>
        <time>2015-04-27T18:59:30.076Z</time>
      </trkpt>
      <trkpt lat="48.81663" lon="2.41503">
        <ele>89.4</ele>
        <time>2015-04-27T18:59:31.011Z</time>
      </trkpt>
      <trkpt lat="48.81664" lon="2.4151">
        <ele>89.4</ele>
        <time>2015-04-27T18:59:31.855Z</time>
      </trkpt>
      <trkpt lat="48.81666" lon="2.41516">
        <ele>89.3</ele>
        <time>2015-04-27T18:59:33.107Z</time>
      </trkpt>
      <trkpt lat="48.81666" lon="2.41522">
        <ele>89.5</ele>
        <time>2015-04-27T18:59:33.925Z</time>
      </trkpt>
      <trkpt lat="48.81667" lon="2.4153">
        <ele>89.6</ele>
        <time>2015-04-27T18:59:34.943Z</time>
      </trkpt>
      <trkpt lat="48.81667" lon="2.41539">
        <ele>89.7</ele>
        <time>2015-04-27T18:59:35.967Z</time>
      </trkpt>
      <trkpt lat="48.81667" lon="2.41546">
        <ele>89.8</ele>
        <time>2015-04-27T18:59:36.974Z</time>
      </trkpt>
      <trkpt lat="48.81668" lon="2.41554">
        <ele>89.5</ele>
        <time>2015-04-27T18:59:37.996Z</time>
      </trkpt>
      <trkpt lat="48.81669" lon="2.41562">
        <ele>89</ele>
        <time>2015-04-27T18:59:39.013Z</time>
      </trkpt>
      <trkpt lat="48.81671" lon="2.4157">
        <ele>88.5</ele>
        <time>2015-04-27T18:59:39.846Z</time>
      </trkpt>
      <trkpt lat="48.81673" lon="2.41578">
        <ele>88.1</ele>
        <time>2015-04-27T18:59:40.973Z</time>
      </trkpt>
      <trkpt lat="48.81674" lon="2.41591">
        <ele>87.1</ele>
        <time>2015-04-27T18:59:43.032Z</time>
      </trkpt>
      <trkpt lat="48.81676" lon="2.41598">
        <ele>85.9</ele>
        <time>2015-04-27T18:59:44.051Z</time>
      </trkpt>
      <trkpt lat="48.8168" lon="2.4161">
        <ele>84.2</ele>
        <time>2015-04-27T18:59:45.970Z</time>
      </trkpt>
      <trkpt lat="48.81681" lon="2.41617">
        <ele>84.4</ele>
        <time>2015-04-27T18:59:46.849Z</time>
      </trkpt>
      <trkpt lat="48.81681" lon="2.41625">
        <ele>84.1</ele>
        <time>2015-04-27T18:59:47.922Z</time>
      </trkpt>
      <trkpt lat="48.81682" lon="2.41634">
        <ele>84</ele>
        <time>2015-04-27T18:59:48.928Z</time>
      </trkpt>
      <trkpt lat="48.81683" lon="2.41642">
        <ele>84</ele>
        <time>2015-04-27T18:59:49.874Z</time>
      </trkpt>
      <trkpt lat="48.81683" lon="2.41652">
        <ele>84</ele>
        <time>2015-04-27T18:59:50.917Z</time>
      </trkpt>
      <trkpt lat="48.81683" lon="2.41662">
        <ele>84.1</ele>
        <time>2015-04-27T18:59:51.930Z</time>
      </trkpt>
      <trkpt lat="48.81684" lon="2.41673">
        <ele>84.2</ele>
        <time>2015-04-27T18:59:52.936Z</time>
      </trkpt>
      <trkpt lat="48.81685" lon="2.41683">
        <ele>84.2</ele>
        <time>2015-04-27T18:59:53.871Z</time>
      </trkpt>
      <trkpt lat="48.81685" lon="2.41695">
        <ele>84.5</ele>
        <time>2015-04-27T18:59:54.885Z</time>
      </trkpt>
      <trkpt lat="48.81686" lon="2.41706">
        <ele>84.7</ele>
        <time>2015-04-27T18:59:55.890Z</time>
      </trkpt>
      <trkpt lat="48.81688" lon="2.4172">
        <ele>84.9</ele>
        <time>2015-04-27T18:59:56.897Z</time>
      </trkpt>
      <trkpt lat="48.8169" lon="2.41732">
        <ele>84.9</ele>
        <time>2015-04-27T18:59:57.926Z</time>
      </trkpt>
      <trkpt lat="48.81692" lon="2.41742">
        <ele>85.1</ele>
        <time>2015-04-27T18:59:58.951Z</time>
      </trkpt>
      <trkpt lat="48.81694" lon="2.41751">
        <ele>84.8</ele>
        <time>2015-04-27T18:59:59.853Z</time>
      </trkpt>
      <trkpt lat="48.81696" lon="2.41761">
        <ele>84.8</ele>
        <time>2015-04-27T19:00:00.912Z</time>
      </trkpt>
      <trkpt lat="48.81698" lon="2.41773">
        <ele>84.2</ele>
        <time>2015-04-27T19:00:01.921Z</time>
      </trkpt>
      <trkpt lat="48.817" lon="2.41783">
        <ele>84.2</ele>
        <time>2015-04-27T19:00:02.931Z</time>
      </trkpt>
      <trkpt lat="48.81702" lon="2.41791">
        <ele>84.6</ele>
        <time>2015-04-27T19:00:03.941Z</time>
      </trkpt>
      <trkpt lat="48.81703" lon="2.41799">
        <ele>85.1</ele>
        <time>2015-04-27T19:00:04.949Z</time>
      </trkpt>
      <trkpt lat="48.81704" lon="2.41809">
        <ele>86</ele>
        <time>2015-04-27T19:00:05.903Z</time>
      </trkpt>
      <trkpt lat="48.81706" lon="2.41817">
        <ele>86.5</ele>
        <time>2015-04-27T19:00:06.914Z</time>
      </trkpt>
      <trkpt lat="48.81707" lon="2.41826">
        <ele>87</ele>
        <time>2015-04-27T19:00:07.963Z</time>
      </trkpt>
      <trkpt lat="48.81709" lon="2.41835">
        <ele>87.3</ele>
        <time>2015-04-27T19:00:09.015Z</time>
      </trkpt>
      <trkpt lat="48.8171" lon="2.41843">
        <ele>87.7</ele>
        <time>2015-04-27T19:00:10.038Z</time>
      </trkpt>
      <trkpt lat="48.81711" lon="2.4185">
        <ele>87.8</ele>
        <time>2015-04-27T19:00:11.047Z</time>
      </trkpt>
      <trkpt lat="48.81711" lon="2.41858">
        <ele>87.9</ele>
        <time>2015-04-27T19:00:11.975Z</time>
      </trkpt>
      <trkpt lat="48.81712" lon="2.41868">
        <ele>88.1</ele>
        <time>2015-04-27T19:00:12.883Z</time>
      </trkpt>
      <trkpt lat="48.81713" lon="2.41877">
        <ele>88.2</ele>
        <time>2015-04-27T19:00:13.914Z</time>
      </trkpt>
      <trkpt lat="48.81715" lon="2.41887">
        <ele>88</ele>
        <time>2015-04-27T19:00:14.924Z</time>
      </trkpt>
      <trkpt lat="48.81716" lon="2.41898">
        <ele>87.6</ele>
        <time>2015-04-27T19:00:15.959Z</time>
      </trkpt>
      <trkpt lat="48.81716" lon="2.41908">
        <ele>87.4</ele>
        <time>2015-04-27T19:00:16.850Z</time>
      </trkpt>
      <trkpt lat="48.81721" lon="2.41947">
        <ele>87.4</ele>
        <time>2015-04-27T19:00:21.003Z</time>
      </trkpt>
      <trkpt lat="48.81721" lon="2.41955">
        <ele>87.5</ele>
        <time>2015-04-27T19:00:22.002Z</time>
      </trkpt>
      <trkpt lat="48.81722" lon="2.41965">
        <ele>87.6</ele>
        <time>2015-04-27T19:00:23.011Z</time>
      </trkpt>
      <trkpt lat="48.81722" lon="2.41973">
        <ele>87.5</ele>
        <time>2015-04-27T19:00:24.023Z</time>
      </trkpt>
      <trkpt lat="48.81721" lon="2.41981">
        <ele>87.3</ele>
        <time>2015-04-27T19:00:24.846Z</time>
      </trkpt>
      <trkpt lat="48.81721" lon="2.41988">
        <ele>87</ele>
        <time>2015-04-27T19:00:25.866Z</time>
      </trkpt>
      <trkpt lat="48.8172" lon="2.41997">
        <ele>86.8</ele>
        <time>2015-04-27T19:00:26.918Z</time>
      </trkpt>
      <trkpt lat="48.81724" lon="2.42052">
        <ele>86.4</ele>
        <time>2015-04-27T19:00:31.846Z</time>
      </trkpt>
      <trkpt lat="48.81723" lon="2.42064">
        <ele>86.5</ele>
        <time>2015-04-27T19:00:33.090Z</time>
      </trkpt>
      <trkpt lat="48.81721" lon="2.42076">
        <ele>86.6</ele>
        <time>2015-04-27T19:00:33.989Z</time>
      </trkpt>
      <trkpt lat="48.81721" lon="2.42086">
        <ele>87.1</ele>
        <time>2015-04-27T19:00:35.030Z</time>
      </trkpt>
      <trkpt lat="48.8172" lon="2.42096">
        <ele>87.5</ele>
        <time>2015-04-27T19:00:35.957Z</time>
      </trkpt>
      <trkpt lat="48.8172" lon="2.42104">
        <ele>87.6</ele>
        <time>2015-04-27T19:00:36.952Z</time>
      </trkpt>
      <trkpt lat="48.81719" lon="2.42111">
        <ele>88.2</ele>
        <time>2015-04-27T19:00:37.818Z</time>
      </trkpt>
      <trkpt lat="48.81719" lon="2.42118">
        <ele>88.3</ele>
        <time>2015-04-27T19:00:38.825Z</time>
      </trkpt>
      <trkpt lat="48.81718" lon="2.42124">
        <ele>88.2</ele>
        <time>2015-04-27T19:00:39.983Z</time>
      </trkpt>
      <trkpt lat="48.81717" lon="2.42133">
        <ele>88.2</ele>
        <time>2015-04-27T19:00:41.030Z</time>
      </trkpt>
      <trkpt lat="48.81716" lon="2.4214">
        <ele>88.2</ele>
        <time>2015-04-27T19:00:41.979Z</time>
      </trkpt>
      <trkpt lat="48.81714" lon="2.42149">
        <ele>88.2</ele>
        <time>2015-04-27T19:00:43.963Z</time>
      </trkpt>
      <trkpt lat="48.81713" lon="2.42154">
        <ele>88.6</ele>
        <time>2015-04-27T19:00:45.112Z</time>
      </trkpt>
      <trkpt lat="48.81711" lon="2.42164">
        <ele>89.5</ele>
        <time>2015-04-27T19:00:46.976Z</time>
      </trkpt>
      <trkpt lat="48.8171" lon="2.42169">
        <ele>89.8</ele>
        <time>2015-04-27T19:00:47.880Z</time>
      </trkpt>
      <trkpt lat="48.8171" lon="2.42176">
        <ele>90.1</ele>
        <time>2015-04-27T19:00:48.899Z</time>
      </trkpt>
      <trkpt lat="48.81712" lon="2.42184">
        <ele>90</ele>
        <time>2015-04-27T19:00:49.978Z</time>
      </trkpt>
      <trkpt lat="48.81715" lon="2.42194">
        <ele>90.3</ele>
        <time>2015-04-27T19:00:50.853Z</time>
      </trkpt>
      <trkpt lat="48.81717" lon="2.42205">
        <ele>90.7</ele>
        <time>2015-04-27T19:00:51.901Z</time>
      </trkpt>
      <trkpt lat="48.8172" lon="2.42213">
        <ele>90.8</ele>
        <time>2015-04-27T19:00:52.907Z</time>
      </trkpt>
      <trkpt lat="48.81721" lon="2.42226">
        <ele>91</ele>
        <time>2015-04-27T19:00:53.884Z</time>
      </trkpt>
      <trkpt lat="48.81723" lon="2.42234">
        <ele>90.5</ele>
        <time>2015-04-27T19:00:54.913Z</time>
      </trkpt>
      <trkpt lat="48.81725" lon="2.42242">
        <ele>90.3</ele>
        <time>2015-04-27T19:00:55.934Z</time>
      </trkpt>
      <trkpt lat="48.81724" lon="2.4225">
        <ele>90</ele>
        <time>2015-04-27T19:00:57.031Z</time>
      </trkpt>
      <trkpt lat="48.81724" lon="2.42257">
        <ele>89.9</ele>
        <time>2015-04-27T19:00:58.031Z</time>
      </trkpt>
      <trkpt lat="48.81722" lon="2.42263">
        <ele>89.8</ele>
        <time>2015-04-27T19:00:58.866Z</time>
      </trkpt>
      <trkpt lat="48.81721" lon="2.4227">
        <ele>89.9</ele>
        <time>2015-04-27T19:00:59.984Z</time>
      </trkpt>
      <trkpt lat="48.8172" lon="2.42276">
        <ele>90.1</ele>
        <time>2015-04-27T19:01:00.868Z</time>
      </trkpt>
      <trkpt lat="48.81718" lon="2.42284">
        <ele>90.1</ele>
        <time>2015-04-27T19:01:01.915Z</time>
      </trkpt>
      <trkpt lat="48.81716" lon="2.42291">
        <ele>90.4</ele>
        <time>2015-04-27T19:01:02.924Z</time>
      </trkpt>
      <trkpt lat="48.81714" lon="2.42298">
        <ele>90.5</ele>
        <time>2015-04-27T19:01:03.943Z</time>
      </trkpt>
      <trkpt lat="48.81712" lon="2.42306">
        <ele>90.6</ele>
        <time>2015-04-27T19:01:05.007Z</time>
      </trkpt>
      <trkpt lat="48.81709" lon="2.42312">
        <ele>90</ele>
        <time>2015-04-27T19:01:06.011Z</time>
      </trkpt>
      <trkpt lat="48.81705" lon="2.42325">
        <ele>89.3</ele>
        <time>2015-04-27T19:01:08.053Z</time>
      </trkpt>
      <trkpt lat="48.81705" lon="2.42332">
        <ele>89.4</ele>
        <time>2015-04-27T19:01:09.050Z</time>
      </trkpt>
      <trkpt lat="48.81704" lon="2.4234">
        <ele>89.6</ele>
        <time>2015-04-27T19:01:09.970Z</time>
      </trkpt>
      <trkpt lat="48.81704" lon="2.42348">
        <ele>89.7</ele>
        <time>2015-04-27T19:01:11.003Z</time>
      </trkpt>
      <trkpt lat="48.81701" lon="2.42356">
        <ele>89.6</ele>
        <time>2015-04-27T19:01:12.035Z</time>
      </trkpt>
      <trkpt lat="48.817" lon="2.42364">
        <ele>89.7</ele>
        <time>2015-04-27T19:01:13.052Z</time>
      </trkpt>
      <trkpt lat="48.81699" lon="2.42373">
        <ele>89.8</ele>
        <time>2015-04-27T19:01:14.062Z</time>
      </trkpt>
      <trkpt lat="48.81698" lon="2.42382">
        <ele>90</ele>
        <time>2015-04-27T19:01:15.074Z</time>
      </trkpt>
      <trkpt lat="48.81697" lon="2.4239">
        <ele>90.5</ele>
        <time>2015-04-27T19:01:15.971Z</time>
      </trkpt>
      <trkpt lat="48.81696" lon="2.424">
        <ele>91</ele>
        <time>2015-04-27T19:01:16.856Z</time>
      </trkpt>
      <trkpt lat="48.81696" lon="2.42409">
        <ele>91.4</ele>
        <time>2015-04-27T19:01:17.879Z</time>
      </trkpt>
      <trkpt lat="48.81696" lon="2.42418">
        <ele>91.6</ele>
        <time>2015-04-27T19:01:18.900Z</time>
      </trkpt>
      <trkpt lat="48.81696" lon="2.42427">
        <ele>92</ele>
        <time>2015-04-27T19:01:19.909Z</time>
      </trkpt>
      <trkpt lat="48.81696" lon="2.42435">
        <ele>92.4</ele>
        <time>2015-04-27T19:01:20.945Z</time>
      </trkpt>
      <trkpt lat="48.81696" lon="2.42445">
        <ele>92.4</ele>
        <time>2015-04-27T19:01:21.915Z</time>
      </trkpt>
      <trkpt lat="48.81696" lon="2.42454">
        <ele>92.7</ele>
        <time>2015-04-27T19:01:23.005Z</time>
      </trkpt>
      <trkpt lat="48.81696" lon="2.42464">
        <ele>92.8</ele>
        <time>2015-04-27T19:01:23.879Z</time>
      </trkpt>
      <trkpt lat="48.81697" lon="2.42473">
        <ele>93</ele>
        <time>2015-04-27T19:01:24.875Z</time>
      </trkpt>
      <trkpt lat="48.81697" lon="2.42483">
        <ele>93.2</ele>
        <time>2015-04-27T19:01:25.894Z</time>
      </trkpt>
      <trkpt lat="48.81698" lon="2.42493">
        <ele>93.2</ele>
        <time>2015-04-27T19:01:26.901Z</time>
      </trkpt>
      <trkpt lat="48.81699" lon="2.42502">
        <ele>93.3</ele>
        <time>2015-04-27T19:01:27.921Z</time>
      </trkpt>
      <trkpt lat="48.81699" lon="2.42511">
        <ele>93.2</ele>
        <time>2015-04-27T19:01:28.934Z</time>
      </trkpt>
      <trkpt lat="48.81698" lon="2.4252">
        <ele>93</ele>
        <time>2015-04-27T19:01:29.940Z</time>
      </trkpt>
      <trkpt lat="48.81697" lon="2.42528">
        <ele>92.6</ele>
        <time>2015-04-27T19:01:30.946Z</time>
      </trkpt>
      <trkpt lat="48.81696" lon="2.42535">
        <ele>92.3</ele>
        <time>2015-04-27T19:01:31.955Z</time>
      </trkpt>
      <trkpt lat="48.81693" lon="2.42543">
        <ele>91.7</ele>
        <time>2015-04-27T19:01:32.857Z</time>
      </trkpt>
      <trkpt lat="48.81691" lon="2.42551">
        <ele>91.4</ele>
        <time>2015-04-27T19:01:33.962Z</time>
      </trkpt>
      <trkpt lat="48.81689" lon="2.42561">
        <ele>91.3</ele>
        <time>2015-04-27T19:01:35.007Z</time>
      </trkpt>
      <trkpt lat="48.81687" lon="2.42573">
        <ele>91</ele>
        <time>2015-04-27T19:01:36.027Z</time>
      </trkpt>
      <trkpt lat="48.81686" lon="2.42587">
        <ele>90.7</ele>
        <time>2015-04-27T19:01:37.024Z</time>
      </trkpt>
      <trkpt lat="48.81686" lon="2.42601">
        <ele>90.7</ele>
        <time>2015-04-27T19:01:38.042Z</time>
      </trkpt>
      <trkpt lat="48.81687" lon="2.42614">
        <ele>90.7</ele>
        <time>2015-04-27T19:01:39.065Z</time>
      </trkpt>
      <trkpt lat="48.81687" lon="2.42625">
        <ele>90.7</ele>
        <time>2015-04-27T19:01:40.071Z</time>
      </trkpt>
      <trkpt lat="48.81687" lon="2.42636">
        <ele>90.6</ele>
        <time>2015-04-27T19:01:40.848Z</time>
      </trkpt>
      <trkpt lat="48.81687" lon="2.42646">
        <ele>90.7</ele>
        <time>2015-04-27T19:01:41.856Z</time>
      </trkpt>
      <trkpt lat="48.81688" lon="2.42657">
        <ele>91.9</ele>
        <time>2015-04-27T19:01:42.876Z</time>
      </trkpt>
      <trkpt lat="48.81688" lon="2.42668">
        <ele>91.8</ele>
        <time>2015-04-27T19:01:43.887Z</time>
      </trkpt>
      <trkpt lat="48.81689" lon="2.42679">
        <ele>91.8</ele>
        <time>2015-04-27T19:01:44.893Z</time>
      </trkpt>
      <trkpt lat="48.8169" lon="2.42689">
        <ele>91.4</ele>
        <time>2015-04-27T19:01:45.902Z</time>
      </trkpt>
      <trkpt lat="48.81691" lon="2.427">
        <ele>91.3</ele>
        <time>2015-04-27T19:01:46.962Z</time>
      </trkpt>
      <trkpt lat="48.81692" lon="2.42711">
        <ele>91.2</ele>
        <time>2015-04-27T19:01:47.963Z</time>
      </trkpt>
      <trkpt lat="48.81693" lon="2.42722">
        <ele>90.9</ele>
        <time>2015-04-27T19:01:48.976Z</time>
      </trkpt>
      <trkpt lat="48.81695" lon="2.42733">
        <ele>91</ele>
        <time>2015-04-27T19:01:49.984Z</time>
      </trkpt>
      <trkpt lat="48.81696" lon="2.42743">
        <ele>90.9</ele>
        <time>2015-04-27T19:01:51.001Z</time>
      </trkpt>
      <trkpt lat="48.81697" lon="2.42754">
        <ele>90.8</ele>
        <time>2015-04-27T19:01:52.011Z</time>
      </trkpt>
      <trkpt lat="48.81697" lon="2.42765">
        <ele>90.5</ele>
        <time>2015-04-27T19:01:52.840Z</time>
      </trkpt>
      <trkpt lat="48.81695" lon="2.42777">
        <ele>90.5</ele>
        <time>2015-04-27T19:01:53.841Z</time>
      </trkpt>
      <trkpt lat="48.81693" lon="2.42788">
        <ele>90.8</ele>
        <time>2015-04-27T19:01:54.862Z</time>
      </trkpt>
      <trkpt lat="48.81691" lon="2.42799">
        <ele>91.1</ele>
        <time>2015-04-27T19:01:55.874Z</time>
      </trkpt>
      <trkpt lat="48.81689" lon="2.4281">
        <ele>91.1</ele>
        <time>2015-04-27T19:01:56.990Z</time>
      </trkpt>
      <trkpt lat="48.8169" lon="2.42821">
        <ele>91.1</ele>
        <time>2015-04-27T19:01:57.840Z</time>
      </trkpt>
      <trkpt lat="48.81689" lon="2.42832">
        <ele>91.2</ele>
        <time>2015-04-27T19:01:58.852Z</time>
      </trkpt>
      <trkpt lat="48.81687" lon="2.42843">
        <ele>91.4</ele>
        <time>2015-04-27T19:01:59.963Z</time>
      </trkpt>
      <trkpt lat="48.81686" lon="2.42852">
        <ele>91.7</ele>
        <time>2015-04-27T19:02:00.979Z</time>
      </trkpt>
      <trkpt lat="48.81683" lon="2.42863">
        <ele>91.8</ele>
        <time>2015-04-27T19:02:01.983Z</time>
      </trkpt>
      <trkpt lat="48.81682" lon="2.42874">
        <ele>91.8</ele>
        <time>2015-04-27T19:02:02.993Z</time>
      </trkpt>
      <trkpt lat="48.81683" lon="2.42884">
        <ele>92</ele>
        <time>2015-04-27T19:02:03.992Z</time>
      </trkpt>
      <trkpt lat="48.81684" lon="2.42894">
        <ele>92.1</ele>
        <time>2015-04-27T19:02:04.885Z</time>
      </trkpt>
      <trkpt lat="48.81686" lon="2.42904">
        <ele>92.2</ele>
        <time>2015-04-27T19:02:05.911Z</time>
      </trkpt>
      <trkpt lat="48.81689" lon="2.42912">
        <ele>92.1</ele>
        <time>2015-04-27T19:02:06.872Z</time>
      </trkpt>
      <trkpt lat="48.81691" lon="2.42921">
        <ele>91.8</ele>
        <time>2015-04-27T19:02:07.853Z</time>
      </trkpt>
      <trkpt lat="48.81692" lon="2.4293">
        <ele>91.8</ele>
        <time>2015-04-27T19:02:08.952Z</time>
      </trkpt>
      <trkpt lat="48.81692" lon="2.42939">
        <ele>92</ele>
        <time>2015-04-27T19:02:09.888Z</time>
      </trkpt>
      <trkpt lat="48.81693" lon="2.42948">
        <ele>92.1</ele>
        <time>2015-04-27T19:02:10.904Z</time>
      </trkpt>
      <trkpt lat="48.81693" lon="2.42956">
        <ele>91.9</ele>
        <time>2015-04-27T19:02:11.934Z</time>
      </trkpt>
      <trkpt lat="48.81693" lon="2.42964">
        <ele>91.3</ele>
        <time>2015-04-27T19:02:12.963Z</time>
      </trkpt>
      <trkpt lat="48.81692" lon="2.42972">
        <ele>91.2</ele>
        <time>2015-04-27T19:02:13.963Z</time>
      </trkpt>
      <trkpt lat="48.81692" lon="2.42981">
        <ele>91.2</ele>
        <time>2015-04-27T19:02:14.986Z</time>
      </trkpt>
      <trkpt lat="48.81691" lon="2.42991">
        <ele>91.1</ele>
        <time>2015-04-27T19:02:15.826Z</time>
      </trkpt>
      <trkpt lat="48.8169" lon="2.43">
        <ele>90.7</ele>
        <time>2015-04-27T19:02:16.832Z</time>
      </trkpt>
      <trkpt lat="48.8169" lon="2.4301">
        <ele>90.3</ele>
        <time>2015-04-27T19:02:17.854Z</time>
      </trkpt>
      <trkpt lat="48.81689" lon="2.4302">
        <ele>90.1</ele>
        <time>2015-04-27T19:02:18.862Z</time>
      </trkpt>
      <trkpt lat="48.81688" lon="2.4303">
        <ele>90</ele>
        <time>2015-04-27T19:02:19.871Z</time>
      </trkpt>
      <trkpt lat="48.81687" lon="2.43041">
        <ele>89.9</ele>
        <time>2015-04-27T19:02:20.885Z</time>
      </trkpt>
      <trkpt lat="48.81686" lon="2.43053">
        <ele>90.2</ele>
        <time>2015-04-27T19:02:21.905Z</time>
      </trkpt>
      <trkpt lat="48.81686" lon="2.43064">
        <ele>90.5</ele>
        <time>2015-04-27T19:02:22.913Z</time>
      </trkpt>
      <trkpt lat="48.81687" lon="2.43076">
        <ele>90.8</ele>
        <time>2015-04-27T19:02:23.974Z</time>
      </trkpt>
      <trkpt lat="48.81687" lon="2.43087">
        <ele>90.8</ele>
        <time>2015-04-27T19:02:24.990Z</time>
      </trkpt>
      <trkpt lat="48.81688" lon="2.43098">
        <ele>90.8</ele>
        <time>2015-04-27T19:02:25.999Z</time>
      </trkpt>
      <trkpt lat="48.81689" lon="2.43109">
        <ele>90.7</ele>
        <time>2015-04-27T19:02:27.003Z</time>
      </trkpt>
      <trkpt lat="48.81691" lon="2.4312">
        <ele>90.7</ele>
        <time>2015-04-27T19:02:27.867Z</time>
      </trkpt>
      <trkpt lat="48.81692" lon="2.4313">
        <ele>90.6</ele>
        <time>2015-04-27T19:02:28.967Z</time>
      </trkpt>
      <trkpt lat="48.81693" lon="2.4314">
        <ele>90.8</ele>
        <time>2015-04-27T19:02:29.868Z</time>
      </trkpt>
      <trkpt lat="48.81694" lon="2.43149">
        <ele>90.7</ele>
        <time>2015-04-27T19:02:30.881Z</time>
      </trkpt>
      <trkpt lat="48.81694" lon="2.43157">
        <ele>90.4</ele>
        <time>2015-04-27T19:02:31.891Z</time>
      </trkpt>
      <trkpt lat="48.81694" lon="2.43167">
        <ele>89.8</ele>
        <time>2015-04-27T19:02:32.892Z</time>
      </trkpt>
      <trkpt lat="48.81695" lon="2.43175">
        <ele>89.5</ele>
        <time>2015-04-27T19:02:33.898Z</time>
      </trkpt>
      <trkpt lat="48.81695" lon="2.43183">
        <ele>88.7</ele>
        <time>2015-04-27T19:02:34.920Z</time>
      </trkpt>
      <trkpt lat="48.81695" lon="2.4319">
        <ele>88.1</ele>
        <time>2015-04-27T19:02:35.926Z</time>
      </trkpt>
      <trkpt lat="48.81697" lon="2.43198">
        <ele>88.2</ele>
        <time>2015-04-27T19:02:36.962Z</time>
      </trkpt>
      <trkpt lat="48.81698" lon="2.43207">
        <ele>88.2</ele>
        <time>2015-04-27T19:02:37.976Z</time>
      </trkpt>
      <trkpt lat="48.817" lon="2.43216">
        <ele>88.3</ele>
        <time>2015-04-27T19:02:38.992Z</time>
      </trkpt>
      <trkpt lat="48.81701" lon="2.43225">
        <ele>88</ele>
        <time>2015-04-27T19:02:40.002Z</time>
      </trkpt>
      <trkpt lat="48.817" lon="2.43235">
        <ele>87.7</ele>
        <time>2015-04-27T19:02:41.014Z</time>
      </trkpt>
      <trkpt lat="48.817" lon="2.43246">
        <ele>87.5</ele>
        <time>2015-04-27T19:02:41.850Z</time>
      </trkpt>
      <trkpt lat="48.81698" lon="2.43259">
        <ele>87.4</ele>
        <time>2015-04-27T19:02:42.863Z</time>
      </trkpt>
      <trkpt lat="48.81696" lon="2.43273">
        <ele>87.5</ele>
        <time>2015-04-27T19:02:43.871Z</time>
      </trkpt>
      <trkpt lat="48.81695" lon="2.43285">
        <ele>87.2</ele>
        <time>2015-04-27T19:02:45.087Z</time>
      </trkpt>
      <trkpt lat="48.81693" lon="2.43296">
        <ele>87.1</ele>
        <time>2015-04-27T19:02:45.900Z</time>
      </trkpt>
      <trkpt lat="48.81692" lon="2.43308">
        <ele>87.2</ele>
        <time>2015-04-27T19:02:46.913Z</time>
      </trkpt>
      <trkpt lat="48.81689" lon="2.43319">
        <ele>86.9</ele>
        <time>2015-04-27T19:02:47.961Z</time>
      </trkpt>
      <trkpt lat="48.81686" lon="2.4333">
        <ele>86.7</ele>
        <time>2015-04-27T19:02:48.967Z</time>
      </trkpt>
      <trkpt lat="48.81683" lon="2.43341">
        <ele>86.4</ele>
        <time>2015-04-27T19:02:49.971Z</time>
      </trkpt>
      <trkpt lat="48.81681" lon="2.43349">
        <ele>86.5</ele>
        <time>2015-04-27T19:02:51.003Z</time>
      </trkpt>
      <trkpt lat="48.81678" lon="2.43357">
        <ele>86.7</ele>
        <time>2015-04-27T19:02:52.023Z</time>
      </trkpt>
      <trkpt lat="48.81676" lon="2.43364">
        <ele>86.8</ele>
        <time>2015-04-27T19:02:53.038Z</time>
      </trkpt>
      <trkpt lat="48.81675" lon="2.43373">
        <ele>86.9</ele>
        <time>2015-04-27T19:02:53.850Z</time>
      </trkpt>
      <trkpt lat="48.81676" lon="2.43383">
        <ele>87.1</ele>
        <time>2015-04-27T19:02:54.963Z</time>
      </trkpt>
      <trkpt lat="48.81676" lon="2.43392">
        <ele>87.2</ele>
        <time>2015-04-27T19:02:55.840Z</time>
      </trkpt>
      <trkpt lat="48.81675" lon="2.43401">
        <ele>87.1</ele>
        <time>2015-04-27T19:02:56.860Z</time>
      </trkpt>
      <trkpt lat="48.81674" lon="2.4341">
        <ele>86.7</ele>
        <time>2015-04-27T19:02:58.069Z</time>
      </trkpt>
      <trkpt lat="48.81675" lon="2.43418">
        <ele>86.9</ele>
        <time>2015-04-27T19:02:59.117Z</time>
      </trkpt>
      <trkpt lat="48.81674" lon="2.43426">
        <ele>87.1</ele>
        <time>2015-04-27T19:02:59.818Z</time>
      </trkpt>
      <trkpt lat="48.81673" lon="2.43435">
        <ele>87.2</ele>
        <time>2015-04-27T19:03:01.029Z</time>
      </trkpt>
      <trkpt lat="48.81672" lon="2.43444">
        <ele>87.4</ele>
        <time>2015-04-27T19:03:02.034Z</time>
      </trkpt>
      <trkpt lat="48.81672" lon="2.43451">
        <ele>87.7</ele>
        <time>2015-04-27T19:03:03.048Z</time>
      </trkpt>
      <trkpt lat="48.81672" lon="2.43458">
        <ele>87.6</ele>
        <time>2015-04-27T19:03:03.963Z</time>
      </trkpt>
      <trkpt lat="48.81672" lon="2.43466">
        <ele>87.7</ele>
        <time>2015-04-27T19:03:04.971Z</time>
      </trkpt>
      <trkpt lat="48.81669" lon="2.43475">
        <ele>87.5</ele>
        <time>2015-04-27T19:03:05.982Z</time>
      </trkpt>
      <trkpt lat="48.81667" lon="2.43483">
        <ele>87.4</ele>
        <time>2015-04-27T19:03:07.007Z</time>
      </trkpt>
      <trkpt lat="48.81665" lon="2.43491">
        <ele>87.4</ele>
        <time>2015-04-27T19:03:08.020Z</time>
      </trkpt>
      <trkpt lat="48.81665" lon="2.43498">
        <ele>87.5</ele>
        <time>2015-04-27T19:03:09.036Z</time>
      </trkpt>
      <trkpt lat="48.81665" lon="2.43506">
        <ele>87.9</ele>
        <time>2015-04-27T19:03:10.035Z</time>
      </trkpt>
      <trkpt lat="48.81666" lon="2.43519">
        <ele>88.4</ele>
        <time>2015-04-27T19:03:11.966Z</time>
      </trkpt>
      <trkpt lat="48.81667" lon="2.43526">
        <ele>88.8</ele>
        <time>2015-04-27T19:03:12.996Z</time>
      </trkpt>
      <trkpt lat="48.81671" lon="2.43535">
        <ele>88.6</ele>
        <time>2015-04-27T19:03:15.026Z</time>
      </trkpt>
      <trkpt lat="48.81673" lon="2.4354">
        <ele>88.6</ele>
        <time>2015-04-27T19:03:16.051Z</time>
      </trkpt>
      <trkpt lat="48.81674" lon="2.43552">
        <ele>89.1</ele>
        <time>2015-04-27T19:03:17.985Z</time>
      </trkpt>
      <trkpt lat="48.81673" lon="2.43558">
        <ele>89.3</ele>
        <time>2015-04-27T19:03:18.893Z</time>
      </trkpt>
      <trkpt lat="48.81673" lon="2.43566">
        <ele>89.6</ele>
        <time>2015-04-27T19:03:19.922Z</time>
      </trkpt>
      <trkpt lat="48.81677" lon="2.43572">
        <ele>89.8</ele>
        <time>2015-04-27T19:03:20.937Z</time>
      </trkpt>
      <trkpt lat="48.8168" lon="2.43578">
        <ele>90</ele>
        <time>2015-04-27T19:03:21.991Z</time>
      </trkpt>
      <trkpt lat="48.81682" lon="2.43584">
        <ele>90.2</ele>
        <time>2015-04-27T19:03:22.854Z</time>
      </trkpt>
      <trkpt lat="48.81684" lon="2.4359">
        <ele>90.4</ele>
        <time>2015-04-27T19:03:24.065Z</time>
      </trkpt>
      <trkpt lat="48.81686" lon="2.43597">
        <ele>90.9</ele>
        <time>2015-04-27T19:03:24.961Z</time>
      </trkpt>
      <trkpt lat="48.81688" lon="2.43604">
        <ele>91.2</ele>
        <time>2015-04-27T19:03:25.824Z</time>
      </trkpt>
      <trkpt lat="48.81691" lon="2.43611">
        <ele>91.2</ele>
        <time>2015-04-27T19:03:27.029Z</time>
      </trkpt>
      <trkpt lat="48.81693" lon="2.43619">
        <ele>91</ele>
        <time>2015-04-27T19:03:28.046Z</time>
      </trkpt>
      <trkpt lat="48.81695" lon="2.43627">
        <ele>90.9</ele>
        <time>2015-04-27T19:03:29.060Z</time>
      </trkpt>
      <trkpt lat="48.81697" lon="2.43635">
        <ele>91.1</ele>
        <time>2015-04-27T19:03:29.983Z</time>
      </trkpt>
      <trkpt lat="48.81698" lon="2.43645">
        <ele>91.2</ele>
        <time>2015-04-27T19:03:30.983Z</time>
      </trkpt>
      <trkpt lat="48.81696" lon="2.43659">
        <ele>91.2</ele>
        <time>2015-04-27T19:03:31.831Z</time>
      </trkpt>
      <trkpt lat="48.81694" lon="2.43672">
        <ele>90.8</ele>
        <time>2015-04-27T19:03:32.855Z</time>
      </trkpt>
      <trkpt lat="48.81693" lon="2.43685">
        <ele>90.2</ele>
        <time>2015-04-27T19:03:34.122Z</time>
      </trkpt>
      <trkpt lat="48.81692" lon="2.43697">
        <ele>89.9</ele>
        <time>2015-04-27T19:03:35.345Z</time>
      </trkpt>
      <trkpt lat="48.81693" lon="2.43708">
        <ele>89.7</ele>
        <time>2015-04-27T19:03:36.005Z</time>
      </trkpt>
      <trkpt lat="48.81693" lon="2.4372">
        <ele>89.4</ele>
        <time>2015-04-27T19:03:37.015Z</time>
      </trkpt>
      <trkpt lat="48.81695" lon="2.43731">
        <ele>89</ele>
        <time>2015-04-27T19:03:38.034Z</time>
      </trkpt>
      <trkpt lat="48.81696" lon="2.43742">
        <ele>88.8</ele>
        <time>2015-04-27T19:03:38.839Z</time>
      </trkpt>
      <trkpt lat="48.81697" lon="2.43754">
        <ele>88.6</ele>
        <time>2015-04-27T19:03:39.922Z</time>
      </trkpt>
      <trkpt lat="48.81698" lon="2.43764">
        <ele>88.3</ele>
        <time>2015-04-27T19:03:40.956Z</time>
      </trkpt>
      <trkpt lat="48.81699" lon="2.43776">
        <ele>88.5</ele>
        <time>2015-04-27T19:03:41.963Z</time>
      </trkpt>
      <trkpt lat="48.81701" lon="2.43788">
        <ele>88.2</ele>
        <time>2015-04-27T19:03:42.995Z</time>
      </trkpt>
      <trkpt lat="48.81702" lon="2.43799">
        <ele>87.9</ele>
        <time>2015-04-27T19:03:43.849Z</time>
      </trkpt>
      <trkpt lat="48.81704" lon="2.43811">
        <ele>87.6</ele>
        <time>2015-04-27T19:03:44.853Z</time>
      </trkpt>
      <trkpt lat="48.81705" lon="2.43822">
        <ele>87.5</ele>
        <time>2015-04-27T19:03:45.895Z</time>
      </trkpt>
      <trkpt lat="48.81706" lon="2.43833">
        <ele>87.3</ele>
        <time>2015-04-27T19:03:46.960Z</time>
      </trkpt>
      <trkpt lat="48.81706" lon="2.43847">
        <ele>87.6</ele>
        <time>2015-04-27T19:03:47.970Z</time>
      </trkpt>
      <trkpt lat="48.81706" lon="2.43859">
        <ele>88</ele>
        <time>2015-04-27T19:03:48.993Z</time>
      </trkpt>
      <trkpt lat="48.81706" lon="2.4387">
        <ele>88.2</ele>
        <time>2015-04-27T19:03:49.999Z</time>
      </trkpt>
      <trkpt lat="48.81705" lon="2.43881">
        <ele>88.4</ele>
        <time>2015-04-27T19:03:51.012Z</time>
      </trkpt>
      <trkpt lat="48.81704" lon="2.43891">
        <ele>88.9</ele>
        <time>2015-04-27T19:03:51.824Z</time>
      </trkpt>
      <trkpt lat="48.81701" lon="2.43903">
        <ele>89.6</ele>
        <time>2015-04-27T19:03:53.043Z</time>
      </trkpt>
      <trkpt lat="48.81697" lon="2.43914">
        <ele>90.1</ele>
        <time>2015-04-27T19:03:54.052Z</time>
      </trkpt>
      <trkpt lat="48.81695" lon="2.43924">
        <ele>90.7</ele>
        <time>2015-04-27T19:03:54.987Z</time>
      </trkpt>
      <trkpt lat="48.81694" lon="2.43934">
        <ele>90.9</ele>
        <time>2015-04-27T19:03:55.947Z</time>
      </trkpt>
      <trkpt lat="48.81692" lon="2.43944">
        <ele>90.9</ele>
        <time>2015-04-27T19:03:57.015Z</time>
      </trkpt>
      <trkpt lat="48.81691" lon="2.43952">
        <ele>90.8</ele>
        <time>2015-04-27T19:03:57.853Z</time>
      </trkpt>
      <trkpt lat="48.8169" lon="2.43961">
        <ele>90.8</ele>
        <time>2015-04-27T19:03:58.858Z</time>
      </trkpt>
      <trkpt lat="48.81689" lon="2.43969">
        <ele>91.1</ele>
        <time>2015-04-27T19:03:59.976Z</time>
      </trkpt>
      <trkpt lat="48.81687" lon="2.43977">
        <ele>91.6</ele>
        <time>2015-04-27T19:04:00.987Z</time>
      </trkpt>
      <trkpt lat="48.81686" lon="2.43983">
        <ele>91.9</ele>
        <time>2015-04-27T19:04:01.998Z</time>
      </trkpt>
      <trkpt lat="48.81687" lon="2.43994">
        <ele>91.8</ele>
        <time>2015-04-27T19:04:04.038Z</time>
      </trkpt>
      <trkpt lat="48.81686" lon="2.44">
        <ele>91.9</ele>
        <time>2015-04-27T19:04:05.044Z</time>
      </trkpt>
      <trkpt lat="48.81685" lon="2.4401">
        <ele>91.9</ele>
        <time>2015-04-27T19:04:06.979Z</time>
      </trkpt>
      <trkpt lat="48.81684" lon="2.44015">
        <ele>91.9</ele>
        <time>2015-04-27T19:04:07.990Z</time>
      </trkpt>
      <trkpt lat="48.81681" lon="2.44027">
        <ele>91.5</ele>
        <time>2015-04-27T19:04:11.057Z</time>
      </trkpt>
      <trkpt lat="48.8168" lon="2.44033">
        <ele>90.8</ele>
        <time>2015-04-27T19:04:12.038Z</time>
      </trkpt>
      <trkpt lat="48.81677" lon="2.44044">
        <ele>90.2</ele>
        <time>2015-04-27T19:04:15.084Z</time>
      </trkpt>
      <trkpt lat="48.81677" lon="2.44048">
        <ele>89.9</ele>
        <time>2015-04-27T19:04:16.068Z</time>
      </trkpt>
      <trkpt lat="48.81675" lon="2.44058">
        <ele>88.8</ele>
        <time>2015-04-27T19:04:17.997Z</time>
      </trkpt>
      <trkpt lat="48.81675" lon="2.44063">
        <ele>88.7</ele>
        <time>2015-04-27T19:04:19.019Z</time>
      </trkpt>
      <trkpt lat="48.81674" lon="2.4407">
        <ele>88.5</ele>
        <time>2015-04-27T19:04:19.863Z</time>
      </trkpt>
      <trkpt lat="48.81673" lon="2.44078">
        <ele>88.6</ele>
        <time>2015-04-27T19:04:20.872Z</time>
      </trkpt>
      <trkpt lat="48.81672" lon="2.44085">
        <ele>88.6</ele>
        <time>2015-04-27T19:04:21.919Z</time>
      </trkpt>
      <trkpt lat="48.81671" lon="2.44092">
        <ele>88.6</ele>
        <time>2015-04-27T19:04:22.938Z</time>
      </trkpt>
      <trkpt lat="48.81671" lon="2.44099">
        <ele>88.5</ele>
        <time>2015-04-27T19:04:23.968Z</time>
      </trkpt>
      <trkpt lat="48.81671" lon="2.44107">
        <ele>88.7</ele>
        <time>2015-04-27T19:04:24.877Z</time>
      </trkpt>
      <trkpt lat="48.8167" lon="2.44115">
        <ele>89.2</ele>
        <time>2015-04-27T19:04:26.008Z</time>
      </trkpt>
      <trkpt lat="48.81669" lon="2.44121">
        <ele>88.8</ele>
        <time>2015-04-27T19:04:27.024Z</time>
      </trkpt>
      <trkpt lat="48.81666" lon="2.44132">
        <ele>87.9</ele>
        <time>2015-04-27T19:04:29.049Z</time>
      </trkpt>
      <trkpt lat="48.81664" lon="2.4414">
        <ele>87.6</ele>
        <time>2015-04-27T19:04:30.067Z</time>
      </trkpt>
      <trkpt lat="48.81664" lon="2.44147">
        <ele>87.6</ele>
        <time>2015-04-27T19:04:30.947Z</time>
      </trkpt>
      <trkpt lat="48.81663" lon="2.44154">
        <ele>87.6</ele>
        <time>2015-04-27T19:04:31.963Z</time>
      </trkpt>
      <trkpt lat="48.81664" lon="2.44161">
        <ele>87.2</ele>
        <time>2015-04-27T19:04:32.848Z</time>
      </trkpt>
      <trkpt lat="48.81663" lon="2.44169">
        <ele>87.3</ele>
        <time>2015-04-27T19:04:33.891Z</time>
      </trkpt>
      <trkpt lat="48.81663" lon="2.44181">
        <ele>86.6</ele>
        <time>2015-04-27T19:04:35.996Z</time>
      </trkpt>
      <trkpt lat="48.81663" lon="2.44187">
        <ele>86.5</ele>
        <time>2015-04-27T19:04:36.876Z</time>
      </trkpt>
      <trkpt lat="48.81662" lon="2.44196">
        <ele>86.9</ele>
        <time>2015-04-27T19:04:37.968Z</time>
      </trkpt>
      <trkpt lat="48.81661" lon="2.44204">
        <ele>87.1</ele>
        <time>2015-04-27T19:04:39.010Z</time>
      </trkpt>
      <trkpt lat="48.81661" lon="2.44211">
        <ele>87.3</ele>
        <time>2015-04-27T19:04:40.026Z</time>
      </trkpt>
      <trkpt lat="48.81661" lon="2.44218">
        <ele>87.3</ele>
        <time>2015-04-27T19:04:41.035Z</time>
      </trkpt>
      <trkpt lat="48.8166" lon="2.44227">
        <ele>87.6</ele>
        <time>2015-04-27T19:04:41.941Z</time>
      </trkpt>
      <trkpt lat="48.8166" lon="2.44234">
        <ele>87.3</ele>
        <time>2015-04-27T19:04:42.960Z</time>
      </trkpt>
      <trkpt lat="48.8166" lon="2.44241">
        <ele>87.1</ele>
        <time>2015-04-27T19:04:43.970Z</time>
      </trkpt>
      <trkpt lat="48.8166" lon="2.44249">
        <ele>87.2</ele>
        <time>2015-04-27T19:04:44.858Z</time>
      </trkpt>
      <trkpt lat="48.81659" lon="2.44258">
        <ele>87</ele>
        <time>2015-04-27T19:04:45.894Z</time>
      </trkpt>
      <trkpt lat="48.81658" lon="2.44267">
        <ele>86.9</ele>
        <time>2015-04-27T19:04:46.905Z</time>
      </trkpt>
      <trkpt lat="48.81658" lon="2.44279">
        <ele>86.7</ele>
        <time>2015-04-27T19:04:48.944Z</time>
      </trkpt>
      <trkpt lat="48.8166" lon="2.44284">
        <ele>86.6</ele>
        <time>2015-04-27T19:04:49.843Z</time>
      </trkpt>
      <trkpt lat="48.81661" lon="2.44296">
        <ele>85.8</ele>
        <time>2015-04-27T19:04:52.040Z</time>
      </trkpt>
      <trkpt lat="48.81662" lon="2.44302">
        <ele>85.7</ele>
        <time>2015-04-27T19:04:53.053Z</time>
      </trkpt>
      <trkpt lat="48.81663" lon="2.44314">
        <ele>85.1</ele>
        <time>2015-04-27T19:04:54.961Z</time>
      </trkpt>
      <trkpt lat="48.81665" lon="2.44321">
        <ele>85.5</ele>
        <time>2015-04-27T19:04:56.033Z</time>
      </trkpt>
      <trkpt lat="48.81663" lon="2.44334">
        <ele>85.9</ele>
        <time>2015-04-27T19:04:57.908Z</time>
      </trkpt>
      <trkpt lat="48.81662" lon="2.44342">
        <ele>86.4</ele>
        <time>2015-04-27T19:04:58.932Z</time>
      </trkpt>
      <trkpt lat="48.81661" lon="2.44354">
        <ele>86.7</ele>
        <time>2015-04-27T19:05:00.954Z</time>
      </trkpt>
      <trkpt lat="48.81661" lon="2.44359">
        <ele>86.4</ele>
        <time>2015-04-27T19:05:02.006Z</time>
      </trkpt>
      <trkpt lat="48.81658" lon="2.44372">
        <ele>85.4</ele>
        <time>2015-04-27T19:05:04.085Z</time>
      </trkpt>
      <trkpt lat="48.81658" lon="2.44377">
        <ele>85.3</ele>
        <time>2015-04-27T19:05:05.015Z</time>
      </trkpt>
      <trkpt lat="48.81659" lon="2.44384">
        <ele>85.1</ele>
        <time>2015-04-27T19:05:05.950Z</time>
      </trkpt>
      <trkpt lat="48.8166" lon="2.44392">
        <ele>85.2</ele>
        <time>2015-04-27T19:05:06.976Z</time>
      </trkpt>
      <trkpt lat="48.81663" lon="2.44401">
        <ele>83.3</ele>
        <time>2015-04-27T19:05:07.983Z</time>
      </trkpt>
      <trkpt lat="48.81665" lon="2.44407">
        <ele>82.1</ele>
        <time>2015-04-27T19:05:09.070Z</time>
      </trkpt>
      <trkpt lat="48.81664" lon="2.44415">
        <ele>82.3</ele>
        <time>2015-04-27T19:07:51.044Z</time>
      </trkpt>
      <trkpt lat="48.81633" lon="2.44386">
        <ele>89.1</ele>
        <time>2015-04-27T19:07:51.967Z</time>
      </trkpt>
      <trkpt lat="48.8163" lon="2.44383">
        <ele>89.5</ele>
        <time>2015-04-27T19:09:53.009Z</time>
      </trkpt>
      <trkpt lat="48.81604" lon="2.44386">
        <ele>92.5</ele>
        <time>2015-04-27T19:09:54.023Z</time>
      </trkpt>
      <trkpt lat="48.81597" lon="2.44382">
        <ele>93.1</ele>
        <time>2015-04-27T19:09:58.010Z</time>
      </trkpt>
      <trkpt lat="48.81594" lon="2.44382">
        <ele>93.3</ele>
        <time>2015-04-27T19:09:59.022Z</time>
      </trkpt>
      <trkpt lat="48.81585" lon="2.44381">
        <ele>93.1</ele>
        <time>2015-04-27T19:10:05.107Z</time>
      </trkpt>
      <trkpt lat="48.81585" lon="2.44384">
        <ele>92.7</ele>
        <time>2015-04-27T19:10:06.110Z</time>
      </trkpt>
      <trkpt lat="48.81585" lon="2.44391">
        <ele>93</ele>
        <time>2015-04-27T19:11:13.014Z</time>
      </trkpt>
      <trkpt lat="48.81585" lon="2.44409">
        <ele>94.8</ele>
        <time>2015-04-27T19:11:14.059Z</time>
      </trkpt>
      <trkpt lat="48.81586" lon="2.44422">
        <ele>94.7</ele>
        <time>2015-04-27T19:11:24.030Z</time>
      </trkpt>
      <trkpt lat="48.81588" lon="2.44435">
        <ele>95.4</ele>
        <time>2015-04-27T19:11:25.037Z</time>
      </trkpt>
      <trkpt lat="48.81587" lon="2.44448">
        <ele>94.5</ele>
        <time>2015-04-27T19:11:28.986Z</time>
      </trkpt>
      <trkpt lat="48.81587" lon="2.44451">
        <ele>94.3</ele>
        <time>2015-04-27T19:11:29.998Z</time>
      </trkpt>
      <trkpt lat="48.81587" lon="2.44461">
        <ele>93.3</ele>
        <time>2015-04-27T19:11:33.068Z</time>
      </trkpt>
      <trkpt lat="48.81587" lon="2.44466">
        <ele>93.1</ele>
        <time>2015-04-27T19:11:34.021Z</time>
      </trkpt>
      <trkpt lat="48.81586" lon="2.44479">
        <ele>92.1</ele>
        <time>2015-04-27T19:11:37.069Z</time>
      </trkpt>
      <trkpt lat="48.81585" lon="2.44482">
        <ele>91.8</ele>
        <time>2015-04-27T19:11:37.959Z</time>
      </trkpt>
      <trkpt lat="48.81583" lon="2.44493">
        <ele>90.7</ele>
        <time>2015-04-27T19:11:41.021Z</time>
      </trkpt>
      <trkpt lat="48.81582" lon="2.44498">
        <ele>90.5</ele>
        <time>2015-04-27T19:11:42.036Z</time>
      </trkpt>
      <trkpt lat="48.81581" lon="2.44507">
        <ele>90.1</ele>
        <time>2015-04-27T19:11:44.014Z</time>
      </trkpt>
      <trkpt lat="48.8158" lon="2.44513">
        <ele>90.4</ele>
        <time>2015-04-27T19:11:45.056Z</time>
      </trkpt>
      <trkpt lat="48.81581" lon="2.44522">
        <ele>90.8</ele>
        <time>2015-04-27T19:11:47.009Z</time>
      </trkpt>
      <trkpt lat="48.81581" lon="2.44527">
        <ele>90.8</ele>
        <time>2015-04-27T19:11:48.043Z</time>
      </trkpt>
      <trkpt lat="48.81581" lon="2.44538">
        <ele>90.4</ele>
        <time>2015-04-27T19:11:49.969Z</time>
      </trkpt>
      <trkpt lat="48.81582" lon="2.44543">
        <ele>90.3</ele>
        <time>2015-04-27T19:11:51.030Z</time>
      </trkpt>
      <trkpt lat="48.81582" lon="2.44555">
        <ele>90</ele>
        <time>2015-04-27T19:11:53.940Z</time>
      </trkpt>
      <trkpt lat="48.81582" lon="2.44559">
        <ele>90</ele>
        <time>2015-04-27T19:11:54.980Z</time>
      </trkpt>
      <trkpt lat="48.81583" lon="2.44571">
        <ele>90.1</ele>
        <time>2015-04-27T19:11:59.008Z</time>
      </trkpt>
      <trkpt lat="48.81583" lon="2.44571">
        <ele>90.3</ele>
        <time>2015-04-27T19:11:59.940Z</time>
      </trkpt>
      <trkpt lat="48.81583" lon="2.44571">
        <ele>90.3</ele>
        <time>2015-04-27T19:12:29.992Z</time>
      </trkpt>
      <trkpt lat="48.81571" lon="2.44595">
        <ele>91.2</ele>
        <time>2015-04-27T19:12:30.967Z</time>
      </trkpt>
      <trkpt lat="48.81571" lon="2.44608">
        <ele>92</ele>
        <time>2015-04-27T19:12:34.036Z</time>
      </trkpt>
      <trkpt lat="48.81571" lon="2.44614">
        <ele>92</ele>
        <time>2015-04-27T19:12:35.050Z</time>
      </trkpt>
      <trkpt lat="48.81571" lon="2.44621">
        <ele>92</ele>
        <time>2015-04-27T19:12:35.976Z</time>
      </trkpt>
      <trkpt lat="48.81572" lon="2.44628">
        <ele>92.4</ele>
        <time>2015-04-27T19:12:36.978Z</time>
      </trkpt>
      <trkpt lat="48.81575" lon="2.4464">
        <ele>92.7</ele>
        <time>2015-04-27T19:12:39.016Z</time>
      </trkpt>
      <trkpt lat="48.81576" lon="2.44646">
        <ele>92.9</ele>
        <time>2015-04-27T19:12:40.050Z</time>
      </trkpt>
      <trkpt lat="48.81576" lon="2.44656">
        <ele>92.7</ele>
        <time>2015-04-27T19:12:41.987Z</time>
      </trkpt>
      <trkpt lat="48.81576" lon="2.4466">
        <ele>92.7</ele>
        <time>2015-04-27T19:12:42.999Z</time>
      </trkpt>
      <trkpt lat="48.81574" lon="2.44673">
        <ele>92.5</ele>
        <time>2015-04-27T19:12:45.025Z</time>
      </trkpt>
      <trkpt lat="48.81573" lon="2.4468">
        <ele>92.3</ele>
        <time>2015-04-27T19:12:46.032Z</time>
      </trkpt>
      <trkpt lat="48.81572" lon="2.44686">
        <ele>92</ele>
        <time>2015-04-27T19:12:47.056Z</time>
      </trkpt>
      <trkpt lat="48.81571" lon="2.44694">
        <ele>91.7</ele>
        <time>2015-04-27T19:12:48.068Z</time>
      </trkpt>
      <trkpt lat="48.81571" lon="2.44703">
        <ele>91.5</ele>
        <time>2015-04-27T19:12:48.974Z</time>
      </trkpt>
      <trkpt lat="48.81571" lon="2.44711">
        <ele>91.6</ele>
        <time>2015-04-27T19:12:49.979Z</time>
      </trkpt>
      <trkpt lat="48.81571" lon="2.44724">
        <ele>92.1</ele>
        <time>2015-04-27T19:12:52.064Z</time>
      </trkpt>
      <trkpt lat="48.81572" lon="2.44731">
        <ele>91.8</ele>
        <time>2015-04-27T19:12:52.972Z</time>
      </trkpt>
      <trkpt lat="48.81573" lon="2.44739">
        <ele>91.4</ele>
        <time>2015-04-27T19:12:53.976Z</time>
      </trkpt>
      <trkpt lat="48.81572" lon="2.44747">
        <ele>91.3</ele>
        <time>2015-04-27T19:12:55.007Z</time>
      </trkpt>
      <trkpt lat="48.81571" lon="2.44754">
        <ele>91.6</ele>
        <time>2015-04-27T19:12:56.040Z</time>
      </trkpt>
      <trkpt lat="48.81571" lon="2.44762">
        <ele>91.9</ele>
        <time>2015-04-27T19:12:57.052Z</time>
      </trkpt>
      <trkpt lat="48.81571" lon="2.44769">
        <ele>92.4</ele>
        <time>2015-04-27T19:12:58.054Z</time>
      </trkpt>
      <trkpt lat="48.8157" lon="2.44777">
        <ele>92.7</ele>
        <time>2015-04-27T19:12:59.061Z</time>
      </trkpt>
      <trkpt lat="48.81569" lon="2.44784">
        <ele>92.9</ele>
        <time>2015-04-27T19:12:59.983Z</time>
      </trkpt>
      <trkpt lat="48.81568" lon="2.44791">
        <ele>92.8</ele>
        <time>2015-04-27T19:13:00.995Z</time>
      </trkpt>
      <trkpt lat="48.81567" lon="2.44799">
        <ele>92.4</ele>
        <time>2015-04-27T19:13:02.035Z</time>
      </trkpt>
      <trkpt lat="48.81566" lon="2.44806">
        <ele>92</ele>
        <time>2015-04-27T19:13:03.070Z</time>
      </trkpt>
      <trkpt lat="48.81566" lon="2.44814">
        <ele>91.7</ele>
        <time>2015-04-27T19:13:03.991Z</time>
      </trkpt>
      <trkpt lat="48.81565" lon="2.44822">
        <ele>91.4</ele>
        <time>2015-04-27T19:13:05.014Z</time>
      </trkpt>
      <trkpt lat="48.81565" lon="2.44829">
        <ele>90.9</ele>
        <time>2015-04-27T19:13:06.029Z</time>
      </trkpt>
      <trkpt lat="48.81564" lon="2.44836">
        <ele>90.5</ele>
        <time>2015-04-27T19:13:07.042Z</time>
      </trkpt>
      <trkpt lat="48.81564" lon="2.44843">
        <ele>90.2</ele>
        <time>2015-04-27T19:13:08.058Z</time>
      </trkpt>
      <trkpt lat="48.81564" lon="2.4485">
        <ele>90.1</ele>
        <time>2015-04-27T19:13:09.073Z</time>
      </trkpt>
      <trkpt lat="48.81563" lon="2.44858">
        <ele>90.1</ele>
        <time>2015-04-27T19:13:10.070Z</time>
      </trkpt>
      <trkpt lat="48.81563" lon="2.44865">
        <ele>90.5</ele>
        <time>2015-04-27T19:13:11.007Z</time>
      </trkpt>
      <trkpt lat="48.81562" lon="2.44872">
        <ele>90.8</ele>
        <time>2015-04-27T19:13:12.004Z</time>
      </trkpt>
      <trkpt lat="48.81562" lon="2.44879">
        <ele>91.1</ele>
        <time>2015-04-27T19:13:13.006Z</time>
      </trkpt>
      <trkpt lat="48.81563" lon="2.44886">
        <ele>91.3</ele>
        <time>2015-04-27T19:13:14.021Z</time>
      </trkpt>
      <trkpt lat="48.81562" lon="2.44893">
        <ele>91.6</ele>
        <time>2015-04-27T19:13:15.109Z</time>
      </trkpt>
      <trkpt lat="48.81562" lon="2.449">
        <ele>91.8</ele>
        <time>2015-04-27T19:13:15.977Z</time>
      </trkpt>
      <trkpt lat="48.81563" lon="2.44908">
        <ele>91.9</ele>
        <time>2015-04-27T19:13:16.973Z</time>
      </trkpt>
      <trkpt lat="48.81563" lon="2.44915">
        <ele>92.1</ele>
        <time>2015-04-27T19:13:17.983Z</time>
      </trkpt>
      <trkpt lat="48.81563" lon="2.44922">
        <ele>92.1</ele>
        <time>2015-04-27T19:13:19.050Z</time>
      </trkpt>
      <trkpt lat="48.81562" lon="2.4493">
        <ele>92.1</ele>
        <time>2015-04-27T19:13:19.974Z</time>
      </trkpt>
      <trkpt lat="48.81562" lon="2.44938">
        <ele>92.2</ele>
        <time>2015-04-27T19:13:21.024Z</time>
      </trkpt>
      <trkpt lat="48.81563" lon="2.44946">
        <ele>92.3</ele>
        <time>2015-04-27T19:13:22.033Z</time>
      </trkpt>
      <trkpt lat="48.81563" lon="2.44954">
        <ele>92.4</ele>
        <time>2015-04-27T19:13:23.046Z</time>
      </trkpt>
      <trkpt lat="48.81562" lon="2.44967">
        <ele>92.1</ele>
        <time>2015-04-27T19:13:24.973Z</time>
      </trkpt>
      <trkpt lat="48.81561" lon="2.44974">
        <ele>92</ele>
        <time>2015-04-27T19:13:26.043Z</time>
      </trkpt>
      <trkpt lat="48.8156" lon="2.44981">
        <ele>92.1</ele>
        <time>2015-04-27T19:13:27.017Z</time>
      </trkpt>
      <trkpt lat="48.81559" lon="2.44989">
        <ele>92.5</ele>
        <time>2015-04-27T19:13:28.021Z</time>
      </trkpt>
      <trkpt lat="48.81558" lon="2.44997">
        <ele>92.6</ele>
        <time>2015-04-27T19:13:28.949Z</time>
      </trkpt>
      <trkpt lat="48.81557" lon="2.45005">
        <ele>92.8</ele>
        <time>2015-04-27T19:13:29.967Z</time>
      </trkpt>
      <trkpt lat="48.81556" lon="2.45013">
        <ele>93</ele>
        <time>2015-04-27T19:13:30.975Z</time>
      </trkpt>
      <trkpt lat="48.81554" lon="2.45023">
        <ele>91.6</ele>
        <time>2015-04-27T19:13:31.982Z</time>
      </trkpt>
      <trkpt lat="48.81551" lon="2.45032">
        <ele>90.7</ele>
        <time>2015-04-27T19:13:33.013Z</time>
      </trkpt>
      <trkpt lat="48.81548" lon="2.4504">
        <ele>90.2</ele>
        <time>2015-04-27T19:13:34.021Z</time>
      </trkpt>
      <trkpt lat="48.81546" lon="2.45047">
        <ele>89.9</ele>
        <time>2015-04-27T19:13:35.045Z</time>
      </trkpt>
      <trkpt lat="48.81544" lon="2.45054">
        <ele>89.5</ele>
        <time>2015-04-27T19:13:35.965Z</time>
      </trkpt>
      <trkpt lat="48.81542" lon="2.45062">
        <ele>88.6</ele>
        <time>2015-04-27T19:13:36.971Z</time>
      </trkpt>
      <trkpt lat="48.8154" lon="2.4507">
        <ele>88</ele>
        <time>2015-04-27T19:13:37.986Z</time>
      </trkpt>
      <trkpt lat="48.81538" lon="2.45081">
        <ele>87.8</ele>
        <time>2015-04-27T19:13:38.998Z</time>
      </trkpt>
      <trkpt lat="48.81537" lon="2.45089">
        <ele>87.2</ele>
        <time>2015-04-27T19:13:40.011Z</time>
      </trkpt>
      <trkpt lat="48.81534" lon="2.45097">
        <ele>87.1</ele>
        <time>2015-04-27T19:13:41.033Z</time>
      </trkpt>
      <trkpt lat="48.81531" lon="2.45105">
        <ele>87.3</ele>
        <time>2015-04-27T19:13:41.952Z</time>
      </trkpt>
      <trkpt lat="48.81528" lon="2.45111">
        <ele>87</ele>
        <time>2015-04-27T19:13:42.953Z</time>
      </trkpt>
      <trkpt lat="48.81525" lon="2.45117">
        <ele>86.7</ele>
        <time>2015-04-27T19:13:43.956Z</time>
      </trkpt>
      <trkpt lat="48.81522" lon="2.45124">
        <ele>86.6</ele>
        <time>2015-04-27T19:13:45.007Z</time>
      </trkpt>
      <trkpt lat="48.8152" lon="2.4513">
        <ele>86.6</ele>
        <time>2015-04-27T19:13:46.020Z</time>
      </trkpt>
      <trkpt lat="48.81516" lon="2.45134">
        <ele>86.6</ele>
        <time>2015-04-27T19:13:47.031Z</time>
      </trkpt>
      <trkpt lat="48.81512" lon="2.4514">
        <ele>86.7</ele>
        <time>2015-04-27T19:13:48.043Z</time>
      </trkpt>
      <trkpt lat="48.81509" lon="2.45145">
        <ele>86.8</ele>
        <time>2015-04-27T19:13:48.956Z</time>
      </trkpt>
      <trkpt lat="48.81505" lon="2.45151">
        <ele>86.5</ele>
        <time>2015-04-27T19:13:49.937Z</time>
      </trkpt>
      <trkpt lat="48.81502" lon="2.45157">
        <ele>86.3</ele>
        <time>2015-04-27T19:13:50.978Z</time>
      </trkpt>
      <trkpt lat="48.81499" lon="2.45162">
        <ele>86.1</ele>
        <time>2015-04-27T19:13:51.991Z</time>
      </trkpt>
      <trkpt lat="48.81496" lon="2.45168">
        <ele>85.8</ele>
        <time>2015-04-27T19:13:53.007Z</time>
      </trkpt>
      <trkpt lat="48.81492" lon="2.45173">
        <ele>85.8</ele>
        <time>2015-04-27T19:13:54.018Z</time>
      </trkpt>
      <trkpt lat="48.81489" lon="2.45179">
        <ele>85.8</ele>
        <time>2015-04-27T19:13:55.085Z</time>
      </trkpt>
      <trkpt lat="48.81485" lon="2.45184">
        <ele>85.7</ele>
        <time>2015-04-27T19:13:56.039Z</time>
      </trkpt>
      <trkpt lat="48.81481" lon="2.45191">
        <ele>86</ele>
        <time>2015-04-27T19:13:57.049Z</time>
      </trkpt>
      <trkpt lat="48.81477" lon="2.45197">
        <ele>86.2</ele>
        <time>2015-04-27T19:13:57.956Z</time>
      </trkpt>
      <trkpt lat="48.81473" lon="2.45202">
        <ele>86.1</ele>
        <time>2015-04-27T19:13:58.953Z</time>
      </trkpt>
      <trkpt lat="48.8147" lon="2.45207">
        <ele>85.8</ele>
        <time>2015-04-27T19:13:59.962Z</time>
      </trkpt>
      <trkpt lat="48.81466" lon="2.45212">
        <ele>86</ele>
        <time>2015-04-27T19:14:00.972Z</time>
      </trkpt>
      <trkpt lat="48.81463" lon="2.45216">
        <ele>86.2</ele>
        <time>2015-04-27T19:14:01.991Z</time>
      </trkpt>
      <trkpt lat="48.8146" lon="2.45222">
        <ele>86.5</ele>
        <time>2015-04-27T19:14:03.010Z</time>
      </trkpt>
      <trkpt lat="48.81456" lon="2.45226">
        <ele>86.6</ele>
        <time>2015-04-27T19:14:04.017Z</time>
      </trkpt>
      <trkpt lat="48.81452" lon="2.45231">
        <ele>86.7</ele>
        <time>2015-04-27T19:14:05.037Z</time>
      </trkpt>
      <trkpt lat="48.81448" lon="2.45236">
        <ele>86.9</ele>
        <time>2015-04-27T19:14:06.044Z</time>
      </trkpt>
      <trkpt lat="48.81444" lon="2.45241">
        <ele>86.9</ele>
        <time>2015-04-27T19:14:07.062Z</time>
      </trkpt>
      <trkpt lat="48.81439" lon="2.45247">
        <ele>87.1</ele>
        <time>2015-04-27T19:14:07.973Z</time>
      </trkpt>
      <trkpt lat="48.81435" lon="2.45253">
        <ele>87.1</ele>
        <time>2015-04-27T19:14:09Z</time>
      </trkpt>
      <trkpt lat="48.8143" lon="2.45259">
        <ele>87</ele>
        <time>2015-04-27T19:14:10.028Z</time>
      </trkpt>
      <trkpt lat="48.81425" lon="2.45265">
        <ele>87.2</ele>
        <time>2015-04-27T19:14:11.041Z</time>
      </trkpt>
      <trkpt lat="48.8142" lon="2.4527">
        <ele>87.1</ele>
        <time>2015-04-27T19:14:11.944Z</time>
      </trkpt>
      <trkpt lat="48.81416" lon="2.45276">
        <ele>87.1</ele>
        <time>2015-04-27T19:14:12.971Z</time>
      </trkpt>
      <trkpt lat="48.81411" lon="2.45281">
        <ele>87.2</ele>
        <time>2015-04-27T19:14:14.002Z</time>
      </trkpt>
      <trkpt lat="48.81407" lon="2.45286">
        <ele>87.2</ele>
        <time>2015-04-27T19:14:15.028Z</time>
      </trkpt>
      <trkpt lat="48.81403" lon="2.45291">
        <ele>87.1</ele>
        <time>2015-04-27T19:14:15.948Z</time>
      </trkpt>
      <trkpt lat="48.81399" lon="2.45295">
        <ele>87.4</ele>
        <time>2015-04-27T19:14:16.988Z</time>
      </trkpt>
      <trkpt lat="48.81395" lon="2.453">
        <ele>87.6</ele>
        <time>2015-04-27T19:14:18.004Z</time>
      </trkpt>
      <trkpt lat="48.81391" lon="2.45305">
        <ele>87.8</ele>
        <time>2015-04-27T19:14:19.016Z</time>
      </trkpt>
      <trkpt lat="48.81386" lon="2.45311">
        <ele>87.9</ele>
        <time>2015-04-27T19:14:20.032Z</time>
      </trkpt>
      <trkpt lat="48.81381" lon="2.45317">
        <ele>88.1</ele>
        <time>2015-04-27T19:14:21.085Z</time>
      </trkpt>
      <trkpt lat="48.81377" lon="2.45323">
        <ele>88.2</ele>
        <time>2015-04-27T19:14:21.956Z</time>
      </trkpt>
      <trkpt lat="48.81373" lon="2.45328">
        <ele>88.4</ele>
        <time>2015-04-27T19:14:22.970Z</time>
      </trkpt>
      <trkpt lat="48.81368" lon="2.45333">
        <ele>88.3</ele>
        <time>2015-04-27T19:14:23.987Z</time>
      </trkpt>
      <trkpt lat="48.81364" lon="2.45339">
        <ele>88.6</ele>
        <time>2015-04-27T19:14:25Z</time>
      </trkpt>
      <trkpt lat="48.81359" lon="2.45346">
        <ele>88.7</ele>
        <time>2015-04-27T19:14:26.011Z</time>
      </trkpt>
      <trkpt lat="48.81355" lon="2.45352">
        <ele>88.7</ele>
        <time>2015-04-27T19:14:27.043Z</time>
      </trkpt>
      <trkpt lat="48.81351" lon="2.45356">
        <ele>88.7</ele>
        <time>2015-04-27T19:14:28.041Z</time>
      </trkpt>
      <trkpt lat="48.81347" lon="2.45361">
        <ele>88.3</ele>
        <time>2015-04-27T19:14:29.068Z</time>
      </trkpt>
      <trkpt lat="48.81343" lon="2.45365">
        <ele>88.7</ele>
        <time>2015-04-27T19:14:29.981Z</time>
      </trkpt>
      <trkpt lat="48.81336" lon="2.45372">
        <ele>88.7</ele>
        <time>2015-04-27T19:14:32.026Z</time>
      </trkpt>
      <trkpt lat="48.81332" lon="2.45377">
        <ele>88.8</ele>
        <time>2015-04-27T19:14:33.079Z</time>
      </trkpt>
      <trkpt lat="48.81328" lon="2.45382">
        <ele>89</ele>
        <time>2015-04-27T19:14:33.962Z</time>
      </trkpt>
      <trkpt lat="48.81325" lon="2.45387">
        <ele>88.7</ele>
        <time>2015-04-27T19:14:34.981Z</time>
      </trkpt>
      <trkpt lat="48.81321" lon="2.45391">
        <ele>88.9</ele>
        <time>2015-04-27T19:14:36.031Z</time>
      </trkpt>
      <trkpt lat="48.81317" lon="2.45395">
        <ele>88.5</ele>
        <time>2015-04-27T19:14:37.046Z</time>
      </trkpt>
      <trkpt lat="48.81314" lon="2.45398">
        <ele>88.4</ele>
        <time>2015-04-27T19:14:38.124Z</time>
      </trkpt>
      <trkpt lat="48.81309" lon="2.45402">
        <ele>88.4</ele>
        <time>2015-04-27T19:14:39.058Z</time>
      </trkpt>
      <trkpt lat="48.81304" lon="2.45407">
        <ele>88.3</ele>
        <time>2015-04-27T19:14:40.088Z</time>
      </trkpt>
      <trkpt lat="48.81298" lon="2.45411">
        <ele>88.4</ele>
        <time>2015-04-27T19:14:40.980Z</time>
      </trkpt>
      <trkpt lat="48.81294" lon="2.45417">
        <ele>88.5</ele>
        <time>2015-04-27T19:14:41.984Z</time>
      </trkpt>
      <trkpt lat="48.81289" lon="2.45422">
        <ele>88.4</ele>
        <time>2015-04-27T19:14:42.991Z</time>
      </trkpt>
      <trkpt lat="48.81284" lon="2.45427">
        <ele>88.5</ele>
        <time>2015-04-27T19:14:44.002Z</time>
      </trkpt>
      <trkpt lat="48.81279" lon="2.45433">
        <ele>88.6</ele>
        <time>2015-04-27T19:14:45.016Z</time>
      </trkpt>
      <trkpt lat="48.81274" lon="2.45437">
        <ele>88.5</ele>
        <time>2015-04-27T19:14:46.033Z</time>
      </trkpt>
      <trkpt lat="48.81269" lon="2.45442">
        <ele>88.5</ele>
        <time>2015-04-27T19:14:47.041Z</time>
      </trkpt>
      <trkpt lat="48.81264" lon="2.45447">
        <ele>88.6</ele>
        <time>2015-04-27T19:14:47.951Z</time>
      </trkpt>
      <trkpt lat="48.81258" lon="2.45452">
        <ele>88.4</ele>
        <time>2015-04-27T19:14:49.158Z</time>
      </trkpt>
      <trkpt lat="48.81254" lon="2.45457">
        <ele>88.3</ele>
        <time>2015-04-27T19:14:49.963Z</time>
      </trkpt>
      <trkpt lat="48.8125" lon="2.45462">
        <ele>88.4</ele>
        <time>2015-04-27T19:14:51.030Z</time>
      </trkpt>
      <trkpt lat="48.81245" lon="2.45467">
        <ele>88.6</ele>
        <time>2015-04-27T19:14:52.027Z</time>
      </trkpt>
      <trkpt lat="48.81241" lon="2.4547">
        <ele>88.7</ele>
        <time>2015-04-27T19:14:53.038Z</time>
      </trkpt>
      <trkpt lat="48.81233" lon="2.45478">
        <ele>88.4</ele>
        <time>2015-04-27T19:14:54.987Z</time>
      </trkpt>
      <trkpt lat="48.8123" lon="2.45481">
        <ele>88.6</ele>
        <time>2015-04-27T19:14:56.007Z</time>
      </trkpt>
      <trkpt lat="48.81224" lon="2.45486">
        <ele>88.8</ele>
        <time>2015-04-27T19:14:58.092Z</time>
      </trkpt>
      <trkpt lat="48.8122" lon="2.45489">
        <ele>88.8</ele>
        <time>2015-04-27T19:14:58.976Z</time>
      </trkpt>
      <trkpt lat="48.81214" lon="2.45495">
        <ele>89.2</ele>
        <time>2015-04-27T19:15:01.006Z</time>
      </trkpt>
      <trkpt lat="48.81211" lon="2.45499">
        <ele>89.5</ele>
        <time>2015-04-27T19:15:02.018Z</time>
      </trkpt>
      <trkpt lat="48.81206" lon="2.45503">
        <ele>89.3</ele>
        <time>2015-04-27T19:15:03.030Z</time>
      </trkpt>
      <trkpt lat="48.81202" lon="2.45507">
        <ele>89</ele>
        <time>2015-04-27T19:15:04.051Z</time>
      </trkpt>
      <trkpt lat="48.81197" lon="2.45513">
        <ele>89</ele>
        <time>2015-04-27T19:15:04.979Z</time>
      </trkpt>
      <trkpt lat="48.81192" lon="2.45517">
        <ele>89</ele>
        <time>2015-04-27T19:15:05.975Z</time>
      </trkpt>
      <trkpt lat="48.81188" lon="2.45522">
        <ele>89</ele>
        <time>2015-04-27T19:15:06.992Z</time>
      </trkpt>
      <trkpt lat="48.81182" lon="2.45527">
        <ele>88.9</ele>
        <time>2015-04-27T19:15:08Z</time>
      </trkpt>
      <trkpt lat="48.81177" lon="2.45533">
        <ele>88.8</ele>
        <time>2015-04-27T19:15:09.023Z</time>
      </trkpt>
      <trkpt lat="48.81172" lon="2.45539">
        <ele>88.7</ele>
        <time>2015-04-27T19:15:10.027Z</time>
      </trkpt>
      <trkpt lat="48.81167" lon="2.45544">
        <ele>88.6</ele>
        <time>2015-04-27T19:15:11.045Z</time>
      </trkpt>
      <trkpt lat="48.81162" lon="2.45549">
        <ele>88.7</ele>
        <time>2015-04-27T19:15:12.056Z</time>
      </trkpt>
      <trkpt lat="48.81157" lon="2.45554">
        <ele>88.8</ele>
        <time>2015-04-27T19:15:12.982Z</time>
      </trkpt>
      <trkpt lat="48.81152" lon="2.45559">
        <ele>88.9</ele>
        <time>2015-04-27T19:15:13.988Z</time>
      </trkpt>
      <trkpt lat="48.81148" lon="2.45563">
        <ele>88.5</ele>
        <time>2015-04-27T19:15:15.055Z</time>
      </trkpt>
      <trkpt lat="48.81144" lon="2.45567">
        <ele>88.4</ele>
        <time>2015-04-27T19:15:16.071Z</time>
      </trkpt>
      <trkpt lat="48.81139" lon="2.45572">
        <ele>88.4</ele>
        <time>2015-04-27T19:15:17.081Z</time>
      </trkpt>
      <trkpt lat="48.81136" lon="2.45576">
        <ele>88.6</ele>
        <time>2015-04-27T19:15:17.996Z</time>
      </trkpt>
      <trkpt lat="48.8113" lon="2.45582">
        <ele>88.7</ele>
        <time>2015-04-27T19:15:20.010Z</time>
      </trkpt>
      <trkpt lat="48.81127" lon="2.45584">
        <ele>88.7</ele>
        <time>2015-04-27T19:15:21.083Z</time>
      </trkpt>
      <trkpt lat="48.81122" lon="2.45587">
        <ele>89.1</ele>
        <time>2015-04-27T19:15:23.004Z</time>
      </trkpt>
      <trkpt lat="48.81118" lon="2.45591">
        <ele>89</ele>
        <time>2015-04-27T19:15:24.006Z</time>
      </trkpt>
      <trkpt lat="48.81111" lon="2.45594">
        <ele>89.5</ele>
        <time>2015-04-27T19:15:28.067Z</time>
      </trkpt>
      <trkpt lat="48.81108" lon="2.45594">
        <ele>89.1</ele>
        <time>2015-04-27T19:15:29.048Z</time>
      </trkpt>
      <trkpt lat="48.81104" lon="2.45596">
        <ele>88.5</ele>
        <time>2015-04-27T19:15:33.070Z</time>
      </trkpt>
      <trkpt lat="48.81095" lon="2.45602">
        <ele>87</ele>
        <time>2015-04-27T19:15:34.085Z</time>
      </trkpt>
      <trkpt lat="48.81089" lon="2.45608">
        <ele>85.7</ele>
        <time>2015-04-27T19:15:35.020Z</time>
      </trkpt>
      <trkpt lat="48.81085" lon="2.45613">
        <ele>84.6</ele>
        <time>2015-04-27T19:15:36.043Z</time>
      </trkpt>
      <trkpt lat="48.81078" lon="2.45621">
        <ele>83.4</ele>
        <time>2015-04-27T19:15:38.002Z</time>
      </trkpt>
      <trkpt lat="48.81075" lon="2.45625">
        <ele>83.4</ele>
        <time>2015-04-27T19:15:39.010Z</time>
      </trkpt>
      <trkpt lat="48.8107" lon="2.45632">
        <ele>83.7</ele>
        <time>2015-04-27T19:15:41.050Z</time>
      </trkpt>
      <trkpt lat="48.81069" lon="2.45636">
        <ele>84.9</ele>
        <time>2015-04-27T19:15:41.957Z</time>
      </trkpt>
      <trkpt lat="48.81069" lon="2.45636">
        <ele>84.9</ele>
        <time>2015-04-27T19:16:02.071Z</time>
      </trkpt>
      <trkpt lat="48.81055" lon="2.45652">
        <ele>90.9</ele>
        <time>2015-04-27T19:16:03.269Z</time>
      </trkpt>
      <trkpt lat="48.81049" lon="2.45662">
        <ele>90.8</ele>
        <time>2015-04-27T19:16:07.019Z</time>
      </trkpt>
      <trkpt lat="48.81047" lon="2.45665">
        <ele>91.1</ele>
        <time>2015-04-27T19:16:08.034Z</time>
      </trkpt>
      <trkpt lat="48.81043" lon="2.45674">
        <ele>91.4</ele>
        <time>2015-04-27T19:16:10.060Z</time>
      </trkpt>
      <trkpt lat="48.81041" lon="2.45679">
        <ele>91.6</ele>
        <time>2015-04-27T19:16:10.987Z</time>
      </trkpt>
      <trkpt lat="48.81038" lon="2.45689">
        <ele>91.8</ele>
        <time>2015-04-27T19:16:13.034Z</time>
      </trkpt>
      <trkpt lat="48.81036" lon="2.45695">
        <ele>91.7</ele>
        <time>2015-04-27T19:16:14.047Z</time>
      </trkpt>
      <trkpt lat="48.81032" lon="2.45706">
        <ele>91.7</ele>
        <time>2015-04-27T19:16:15.988Z</time>
      </trkpt>
      <trkpt lat="48.81031" lon="2.45712">
        <ele>91.6</ele>
        <time>2015-04-27T19:16:17.002Z</time>
      </trkpt>
      <trkpt lat="48.81028" lon="2.45718">
        <ele>91.6</ele>
        <time>2015-04-27T19:16:18.018Z</time>
      </trkpt>
      <trkpt lat="48.81026" lon="2.45725">
        <ele>91.5</ele>
        <time>2015-04-27T19:16:19.042Z</time>
      </trkpt>
      <trkpt lat="48.81024" lon="2.45732">
        <ele>91.8</ele>
        <time>2015-04-27T19:16:20.064Z</time>
      </trkpt>
      <trkpt lat="48.81022" lon="2.45739">
        <ele>91.7</ele>
        <time>2015-04-27T19:16:21.081Z</time>
      </trkpt>
      <trkpt lat="48.81019" lon="2.45745">
        <ele>91.8</ele>
        <time>2015-04-27T19:16:21.984Z</time>
      </trkpt>
      <trkpt lat="48.81017" lon="2.45751">
        <ele>91.7</ele>
        <time>2015-04-27T19:16:23.008Z</time>
      </trkpt>
      <trkpt lat="48.81015" lon="2.45757">
        <ele>91.7</ele>
        <time>2015-04-27T19:16:24.016Z</time>
      </trkpt>
      <trkpt lat="48.81012" lon="2.45764">
        <ele>91.5</ele>
        <time>2015-04-27T19:16:25.021Z</time>
      </trkpt>
      <trkpt lat="48.81009" lon="2.4577">
        <ele>91.1</ele>
        <time>2015-04-27T19:16:26.039Z</time>
      </trkpt>
      <trkpt lat="48.81006" lon="2.45777">
        <ele>90.7</ele>
        <time>2015-04-27T19:16:27.047Z</time>
      </trkpt>
      <trkpt lat="48.81004" lon="2.45784">
        <ele>90.6</ele>
        <time>2015-04-27T19:16:27.977Z</time>
      </trkpt>
      <trkpt lat="48.81002" lon="2.4579">
        <ele>90.4</ele>
        <time>2015-04-27T19:16:29.028Z</time>
      </trkpt>
      <trkpt lat="48.80999" lon="2.45797">
        <ele>90.2</ele>
        <time>2015-04-27T19:16:30.093Z</time>
      </trkpt>
      <trkpt lat="48.80997" lon="2.45804">
        <ele>90.2</ele>
        <time>2015-04-27T19:16:31.081Z</time>
      </trkpt>
      <trkpt lat="48.80994" lon="2.45812">
        <ele>90.7</ele>
        <time>2015-04-27T19:16:31.978Z</time>
      </trkpt>
      <trkpt lat="48.80992" lon="2.45818">
        <ele>91</ele>
        <time>2015-04-27T19:16:33.032Z</time>
      </trkpt>
      <trkpt lat="48.8099" lon="2.45825">
        <ele>90.7</ele>
        <time>2015-04-27T19:16:34.032Z</time>
      </trkpt>
      <trkpt lat="48.80988" lon="2.45831">
        <ele>90.8</ele>
        <time>2015-04-27T19:16:35.047Z</time>
      </trkpt>
      <trkpt lat="48.80985" lon="2.4584">
        <ele>90.8</ele>
        <time>2015-04-27T19:16:35.943Z</time>
      </trkpt>
      <trkpt lat="48.80982" lon="2.45848">
        <ele>91.1</ele>
        <time>2015-04-27T19:16:36.997Z</time>
      </trkpt>
      <trkpt lat="48.8098" lon="2.45855">
        <ele>91.1</ele>
        <time>2015-04-27T19:16:38.037Z</time>
      </trkpt>
      <trkpt lat="48.80977" lon="2.45862">
        <ele>91</ele>
        <time>2015-04-27T19:16:39.043Z</time>
      </trkpt>
      <trkpt lat="48.80973" lon="2.4587">
        <ele>90.8</ele>
        <time>2015-04-27T19:16:39.942Z</time>
      </trkpt>
      <trkpt lat="48.8097" lon="2.45878">
        <ele>90.6</ele>
        <time>2015-04-27T19:16:41.013Z</time>
      </trkpt>
      <trkpt lat="48.80966" lon="2.45885">
        <ele>90.2</ele>
        <time>2015-04-27T19:16:42.018Z</time>
      </trkpt>
      <trkpt lat="48.80962" lon="2.45893">
        <ele>90.1</ele>
        <time>2015-04-27T19:16:43.030Z</time>
      </trkpt>
      <trkpt lat="48.80958" lon="2.459">
        <ele>89.7</ele>
        <time>2015-04-27T19:16:44.048Z</time>
      </trkpt>
      <trkpt lat="48.80955" lon="2.45908">
        <ele>89.7</ele>
        <time>2015-04-27T19:16:45.056Z</time>
      </trkpt>
      <trkpt lat="48.80951" lon="2.45915">
        <ele>89.7</ele>
        <time>2015-04-27T19:16:45.991Z</time>
      </trkpt>
      <trkpt lat="48.80948" lon="2.45921">
        <ele>89.5</ele>
        <time>2015-04-27T19:16:46.967Z</time>
      </trkpt>
      <trkpt lat="48.80945" lon="2.45928">
        <ele>89.3</ele>
        <time>2015-04-27T19:16:47.979Z</time>
      </trkpt>
      <trkpt lat="48.80942" lon="2.45936">
        <ele>89.5</ele>
        <time>2015-04-27T19:16:48.984Z</time>
      </trkpt>
      <trkpt lat="48.80938" lon="2.45944">
        <ele>89.6</ele>
        <time>2015-04-27T19:16:50.001Z</time>
      </trkpt>
      <trkpt lat="48.80935" lon="2.45952">
        <ele>89.6</ele>
        <time>2015-04-27T19:16:51.027Z</time>
      </trkpt>
      <trkpt lat="48.80931" lon="2.4596">
        <ele>89.2</ele>
        <time>2015-04-27T19:16:52.027Z</time>
      </trkpt>
      <trkpt lat="48.80928" lon="2.45967">
        <ele>89.3</ele>
        <time>2015-04-27T19:16:53.055Z</time>
      </trkpt>
      <trkpt lat="48.80924" lon="2.45974">
        <ele>89.5</ele>
        <time>2015-04-27T19:16:53.975Z</time>
      </trkpt>
      <trkpt lat="48.8092" lon="2.45981">
        <ele>89.5</ele>
        <time>2015-04-27T19:16:54.977Z</time>
      </trkpt>
      <trkpt lat="48.80917" lon="2.45988">
        <ele>89.4</ele>
        <time>2015-04-27T19:16:55.976Z</time>
      </trkpt>
      <trkpt lat="48.80913" lon="2.45995">
        <ele>89.5</ele>
        <time>2015-04-27T19:16:57.031Z</time>
      </trkpt>
      <trkpt lat="48.80909" lon="2.46002">
        <ele>89.6</ele>
        <time>2015-04-27T19:16:58.039Z</time>
      </trkpt>
      <trkpt lat="48.80906" lon="2.4601">
        <ele>89.1</ele>
        <time>2015-04-27T19:16:59.050Z</time>
      </trkpt>
      <trkpt lat="48.80902" lon="2.46017">
        <ele>88.8</ele>
        <time>2015-04-27T19:17:00.098Z</time>
      </trkpt>
      <trkpt lat="48.80898" lon="2.46024">
        <ele>88.7</ele>
        <time>2015-04-27T19:17:00.976Z</time>
      </trkpt>
      <trkpt lat="48.80894" lon="2.46031">
        <ele>88.5</ele>
        <time>2015-04-27T19:17:01.987Z</time>
      </trkpt>
      <trkpt lat="48.8089" lon="2.46038">
        <ele>88.1</ele>
        <time>2015-04-27T19:17:03.022Z</time>
      </trkpt>
      <trkpt lat="48.80886" lon="2.46044">
        <ele>87.9</ele>
        <time>2015-04-27T19:17:04.037Z</time>
      </trkpt>
      <trkpt lat="48.80883" lon="2.46052">
        <ele>87.6</ele>
        <time>2015-04-27T19:17:05.044Z</time>
      </trkpt>
      <trkpt lat="48.80878" lon="2.46057">
        <ele>87.3</ele>
        <time>2015-04-27T19:17:06.050Z</time>
      </trkpt>
      <trkpt lat="48.80874" lon="2.46064">
        <ele>86.9</ele>
        <time>2015-04-27T19:17:07.054Z</time>
      </trkpt>
      <trkpt lat="48.8087" lon="2.46071">
        <ele>86.8</ele>
        <time>2015-04-27T19:17:08.008Z</time>
      </trkpt>
      <trkpt lat="48.80866" lon="2.46078">
        <ele>86.8</ele>
        <time>2015-04-27T19:17:09.035Z</time>
      </trkpt>
      <trkpt lat="48.80862" lon="2.46086">
        <ele>87</ele>
        <time>2015-04-27T19:17:10.033Z</time>
      </trkpt>
      <trkpt lat="48.80858" lon="2.46095">
        <ele>87</ele>
        <time>2015-04-27T19:17:10.980Z</time>
      </trkpt>
      <trkpt lat="48.80855" lon="2.46103">
        <ele>87.2</ele>
        <time>2015-04-27T19:17:11.987Z</time>
      </trkpt>
      <trkpt lat="48.80851" lon="2.46111">
        <ele>87.4</ele>
        <time>2015-04-27T19:17:13.004Z</time>
      </trkpt>
      <trkpt lat="48.80847" lon="2.46119">
        <ele>87.2</ele>
        <time>2015-04-27T19:17:14.062Z</time>
      </trkpt>
      <trkpt lat="48.80843" lon="2.46127">
        <ele>87.1</ele>
        <time>2015-04-27T19:17:15.074Z</time>
      </trkpt>
      <trkpt lat="48.80839" lon="2.46135">
        <ele>87.1</ele>
        <time>2015-04-27T19:17:15.958Z</time>
      </trkpt>
      <trkpt lat="48.80835" lon="2.46143">
        <ele>87</ele>
        <time>2015-04-27T19:17:16.963Z</time>
      </trkpt>
      <trkpt lat="48.80831" lon="2.4615">
        <ele>86.9</ele>
        <time>2015-04-27T19:17:17.975Z</time>
      </trkpt>
      <trkpt lat="48.80827" lon="2.46158">
        <ele>87</ele>
        <time>2015-04-27T19:17:18.997Z</time>
      </trkpt>
      <trkpt lat="48.80823" lon="2.46166">
        <ele>87.1</ele>
        <time>2015-04-27T19:17:20.013Z</time>
      </trkpt>
      <trkpt lat="48.80819" lon="2.46173">
        <ele>86.9</ele>
        <time>2015-04-27T19:17:21.115Z</time>
      </trkpt>
      <trkpt lat="48.80814" lon="2.4618">
        <ele>87.2</ele>
        <time>2015-04-27T19:17:22.048Z</time>
      </trkpt>
      <trkpt lat="48.80811" lon="2.46191">
        <ele>87.4</ele>
        <time>2015-04-27T19:17:23.065Z</time>
      </trkpt>
      <trkpt lat="48.80807" lon="2.46197">
        <ele>87.5</ele>
        <time>2015-04-27T19:17:23.999Z</time>
      </trkpt>
      <trkpt lat="48.80804" lon="2.46206">
        <ele>87.4</ele>
        <time>2015-04-27T19:17:24.983Z</time>
      </trkpt>
      <trkpt lat="48.808" lon="2.46215">
        <ele>87.4</ele>
        <time>2015-04-27T19:17:26.028Z</time>
      </trkpt>
      <trkpt lat="48.80797" lon="2.46224">
        <ele>87.9</ele>
        <time>2015-04-27T19:17:27.033Z</time>
      </trkpt>
      <trkpt lat="48.80795" lon="2.46229">
        <ele>87.9</ele>
        <time>2015-04-27T19:17:28.043Z</time>
      </trkpt>
      <trkpt lat="48.80791" lon="2.46234">
        <ele>88.2</ele>
        <time>2015-04-27T19:17:29.054Z</time>
      </trkpt>
      <trkpt lat="48.80787" lon="2.4624">
        <ele>88.2</ele>
        <time>2015-04-27T19:17:30.063Z</time>
      </trkpt>
      <trkpt lat="48.80783" lon="2.46247">
        <ele>88.3</ele>
        <time>2015-04-27T19:17:30.988Z</time>
      </trkpt>
      <trkpt lat="48.8078" lon="2.46254">
        <ele>88.1</ele>
        <time>2015-04-27T19:17:31.958Z</time>
      </trkpt>
      <trkpt lat="48.80777" lon="2.4626">
        <ele>88.4</ele>
        <time>2015-04-27T19:17:32.982Z</time>
      </trkpt>
      <trkpt lat="48.80774" lon="2.46266">
        <ele>88.8</ele>
        <time>2015-04-27T19:17:34.008Z</time>
      </trkpt>
      <trkpt lat="48.8077" lon="2.46272">
        <ele>89</ele>
        <time>2015-04-27T19:17:35.015Z</time>
      </trkpt>
      <trkpt lat="48.80767" lon="2.46278">
        <ele>88.9</ele>
        <time>2015-04-27T19:17:36.023Z</time>
      </trkpt>
      <trkpt lat="48.80763" lon="2.46285">
        <ele>89</ele>
        <time>2015-04-27T19:17:36.926Z</time>
      </trkpt>
      <trkpt lat="48.80758" lon="2.46292">
        <ele>89.1</ele>
        <time>2015-04-27T19:17:37.937Z</time>
      </trkpt>
      <trkpt lat="48.80754" lon="2.46299">
        <ele>89.2</ele>
        <time>2015-04-27T19:17:38.963Z</time>
      </trkpt>
      <trkpt lat="48.80749" lon="2.46304">
        <ele>89.3</ele>
        <time>2015-04-27T19:17:40.007Z</time>
      </trkpt>
      <trkpt lat="48.80745" lon="2.4631">
        <ele>89.2</ele>
        <time>2015-04-27T19:17:41.027Z</time>
      </trkpt>
      <trkpt lat="48.8074" lon="2.46317">
        <ele>89.5</ele>
        <time>2015-04-27T19:17:42.078Z</time>
      </trkpt>
      <trkpt lat="48.80735" lon="2.46324">
        <ele>89.5</ele>
        <time>2015-04-27T19:17:42.974Z</time>
      </trkpt>
      <trkpt lat="48.80731" lon="2.4633">
        <ele>89.5</ele>
        <time>2015-04-27T19:17:44.015Z</time>
      </trkpt>
      <trkpt lat="48.80727" lon="2.46337">
        <ele>89.8</ele>
        <time>2015-04-27T19:17:45.106Z</time>
      </trkpt>
      <trkpt lat="48.80721" lon="2.46345">
        <ele>89.9</ele>
        <time>2015-04-27T19:17:45.989Z</time>
      </trkpt>
      <trkpt lat="48.80716" lon="2.46352">
        <ele>89.9</ele>
        <time>2015-04-27T19:17:47.024Z</time>
      </trkpt>
      <trkpt lat="48.80711" lon="2.46359">
        <ele>90.1</ele>
        <time>2015-04-27T19:17:48.096Z</time>
      </trkpt>
      <trkpt lat="48.80706" lon="2.46366">
        <ele>90.1</ele>
        <time>2015-04-27T19:17:48.981Z</time>
      </trkpt>
      <trkpt lat="48.80699" lon="2.46374">
        <ele>89</ele>
        <time>2015-04-27T19:17:49.994Z</time>
      </trkpt>
      <trkpt lat="48.80693" lon="2.46383">
        <ele>88.5</ele>
        <time>2015-04-27T19:17:51.066Z</time>
      </trkpt>
      <trkpt lat="48.80688" lon="2.46391">
        <ele>88.4</ele>
        <time>2015-04-27T19:17:52.012Z</time>
      </trkpt>
      <trkpt lat="48.80683" lon="2.46397">
        <ele>88.3</ele>
        <time>2015-04-27T19:17:53.054Z</time>
      </trkpt>
      <trkpt lat="48.80679" lon="2.46403">
        <ele>88.9</ele>
        <time>2015-04-27T19:17:53.949Z</time>
      </trkpt>
      <trkpt lat="48.80674" lon="2.4641">
        <ele>89.2</ele>
        <time>2015-04-27T19:17:54.990Z</time>
      </trkpt>
      <trkpt lat="48.8067" lon="2.46415">
        <ele>89.2</ele>
        <time>2015-04-27T19:17:56.020Z</time>
      </trkpt>
      <trkpt lat="48.80665" lon="2.46421">
        <ele>89.1</ele>
        <time>2015-04-27T19:17:57.060Z</time>
      </trkpt>
      <trkpt lat="48.8066" lon="2.46427">
        <ele>89.2</ele>
        <time>2015-04-27T19:17:57.986Z</time>
      </trkpt>
      <trkpt lat="48.80656" lon="2.46432">
        <ele>89.3</ele>
        <time>2015-04-27T19:17:58.991Z</time>
      </trkpt>
      <trkpt lat="48.80652" lon="2.46437">
        <ele>89.3</ele>
        <time>2015-04-27T19:18:00.009Z</time>
      </trkpt>
      <trkpt lat="48.80648" lon="2.46442">
        <ele>89.3</ele>
        <time>2015-04-27T19:18:01.033Z</time>
      </trkpt>
      <trkpt lat="48.80644" lon="2.46447">
        <ele>89.3</ele>
        <time>2015-04-27T19:18:02.057Z</time>
      </trkpt>
      <trkpt lat="48.8064" lon="2.46453">
        <ele>89.2</ele>
        <time>2015-04-27T19:18:03.091Z</time>
      </trkpt>
      <trkpt lat="48.80634" lon="2.46461">
        <ele>88.4</ele>
        <time>2015-04-27T19:18:03.973Z</time>
      </trkpt>
      <trkpt lat="48.80629" lon="2.46469">
        <ele>87.8</ele>
        <time>2015-04-27T19:18:05.010Z</time>
      </trkpt>
      <trkpt lat="48.80624" lon="2.46476">
        <ele>87.7</ele>
        <time>2015-04-27T19:18:06.039Z</time>
      </trkpt>
      <trkpt lat="48.80621" lon="2.46482">
        <ele>87.8</ele>
        <time>2015-04-27T19:18:07.044Z</time>
      </trkpt>
      <trkpt lat="48.80617" lon="2.46488">
        <ele>87.8</ele>
        <time>2015-04-27T19:18:07.945Z</time>
      </trkpt>
      <trkpt lat="48.80613" lon="2.46494">
        <ele>87.4</ele>
        <time>2015-04-27T19:18:08.998Z</time>
      </trkpt>
      <trkpt lat="48.80609" lon="2.465">
        <ele>87.3</ele>
        <time>2015-04-27T19:18:09.972Z</time>
      </trkpt>
      <trkpt lat="48.80606" lon="2.46505">
        <ele>87.1</ele>
        <time>2015-04-27T19:18:11.015Z</time>
      </trkpt>
      <trkpt lat="48.80601" lon="2.46511">
        <ele>87</ele>
        <time>2015-04-27T19:18:12.036Z</time>
      </trkpt>
      <trkpt lat="48.80597" lon="2.46517">
        <ele>86.9</ele>
        <time>2015-04-27T19:18:13.050Z</time>
      </trkpt>
      <trkpt lat="48.80592" lon="2.46523">
        <ele>86.9</ele>
        <time>2015-04-27T19:18:14.100Z</time>
      </trkpt>
      <trkpt lat="48.80588" lon="2.46529">
        <ele>86.7</ele>
        <time>2015-04-27T19:18:15.109Z</time>
      </trkpt>
      <trkpt lat="48.80584" lon="2.46535">
        <ele>86.7</ele>
        <time>2015-04-27T19:18:15.979Z</time>
      </trkpt>
      <trkpt lat="48.8058" lon="2.46542">
        <ele>86.7</ele>
        <time>2015-04-27T19:18:16.994Z</time>
      </trkpt>
      <trkpt lat="48.80575" lon="2.4655">
        <ele>86.8</ele>
        <time>2015-04-27T19:18:18.041Z</time>
      </trkpt>
      <trkpt lat="48.8057" lon="2.46557">
        <ele>87</ele>
        <time>2015-04-27T19:18:18.978Z</time>
      </trkpt>
      <trkpt lat="48.80565" lon="2.46564">
        <ele>87</ele>
        <time>2015-04-27T19:18:19.969Z</time>
      </trkpt>
      <trkpt lat="48.8056" lon="2.46571">
        <ele>86.7</ele>
        <time>2015-04-27T19:18:21.021Z</time>
      </trkpt>
      <trkpt lat="48.80555" lon="2.46578">
        <ele>86.6</ele>
        <time>2015-04-27T19:18:22.023Z</time>
      </trkpt>
      <trkpt lat="48.80551" lon="2.46584">
        <ele>86.6</ele>
        <time>2015-04-27T19:18:23.041Z</time>
      </trkpt>
      <trkpt lat="48.80546" lon="2.4659">
        <ele>86.7</ele>
        <time>2015-04-27T19:18:24.046Z</time>
      </trkpt>
      <trkpt lat="48.80541" lon="2.46597">
        <ele>86.6</ele>
        <time>2015-04-27T19:18:24.973Z</time>
      </trkpt>
      <trkpt lat="48.80537" lon="2.46604">
        <ele>86.9</ele>
        <time>2015-04-27T19:18:25.972Z</time>
      </trkpt>
      <trkpt lat="48.80533" lon="2.4661">
        <ele>87</ele>
        <time>2015-04-27T19:18:27.024Z</time>
      </trkpt>
      <trkpt lat="48.80529" lon="2.46616">
        <ele>86.9</ele>
        <time>2015-04-27T19:18:28.029Z</time>
      </trkpt>
      <trkpt lat="48.80524" lon="2.46623">
        <ele>86.7</ele>
        <time>2015-04-27T19:18:29.038Z</time>
      </trkpt>
      <trkpt lat="48.8052" lon="2.46629">
        <ele>86.6</ele>
        <time>2015-04-27T19:18:30.044Z</time>
      </trkpt>
      <trkpt lat="48.80517" lon="2.46636">
        <ele>86.4</ele>
        <time>2015-04-27T19:18:31.056Z</time>
      </trkpt>
      <trkpt lat="48.80512" lon="2.46642">
        <ele>86.4</ele>
        <time>2015-04-27T19:18:32.063Z</time>
      </trkpt>
      <trkpt lat="48.80508" lon="2.46647">
        <ele>86.2</ele>
        <time>2015-04-27T19:18:33.069Z</time>
      </trkpt>
      <trkpt lat="48.80504" lon="2.46651">
        <ele>86.2</ele>
        <time>2015-04-27T19:18:33.969Z</time>
      </trkpt>
      <trkpt lat="48.805" lon="2.46656">
        <ele>85.9</ele>
        <time>2015-04-27T19:18:35.014Z</time>
      </trkpt>
      <trkpt lat="48.80497" lon="2.46661">
        <ele>86</ele>
        <time>2015-04-27T19:18:36.027Z</time>
      </trkpt>
      <trkpt lat="48.80494" lon="2.46666">
        <ele>86.4</ele>
        <time>2015-04-27T19:18:36.944Z</time>
      </trkpt>
      <trkpt lat="48.8049" lon="2.46672">
        <ele>86.3</ele>
        <time>2015-04-27T19:18:37.949Z</time>
      </trkpt>
      <trkpt lat="48.80487" lon="2.46678">
        <ele>86.4</ele>
        <time>2015-04-27T19:18:39.007Z</time>
      </trkpt>
      <trkpt lat="48.80484" lon="2.46684">
        <ele>86.4</ele>
        <time>2015-04-27T19:18:40.007Z</time>
      </trkpt>
      <trkpt lat="48.8048" lon="2.4669">
        <ele>86.3</ele>
        <time>2015-04-27T19:18:41.032Z</time>
      </trkpt>
      <trkpt lat="48.80476" lon="2.46696">
        <ele>86.3</ele>
        <time>2015-04-27T19:18:42.043Z</time>
      </trkpt>
      <trkpt lat="48.80471" lon="2.46703">
        <ele>85.9</ele>
        <time>2015-04-27T19:18:43.063Z</time>
      </trkpt>
      <trkpt lat="48.80466" lon="2.4671">
        <ele>85.8</ele>
        <time>2015-04-27T19:18:44.069Z</time>
      </trkpt>
      <trkpt lat="48.80462" lon="2.46716">
        <ele>85.7</ele>
        <time>2015-04-27T19:18:45.019Z</time>
      </trkpt>
      <trkpt lat="48.80457" lon="2.46723">
        <ele>85.4</ele>
        <time>2015-04-27T19:18:46.010Z</time>
      </trkpt>
      <trkpt lat="48.80452" lon="2.4673">
        <ele>85.3</ele>
        <time>2015-04-27T19:18:47.015Z</time>
      </trkpt>
      <trkpt lat="48.80447" lon="2.46736">
        <ele>85.2</ele>
        <time>2015-04-27T19:18:48.036Z</time>
      </trkpt>
      <trkpt lat="48.80442" lon="2.46741">
        <ele>85.1</ele>
        <time>2015-04-27T19:18:49.089Z</time>
      </trkpt>
      <trkpt lat="48.80437" lon="2.46747">
        <ele>85.7</ele>
        <time>2015-04-27T19:18:49.980Z</time>
      </trkpt>
      <trkpt lat="48.80431" lon="2.46752">
        <ele>85.4</ele>
        <time>2015-04-27T19:18:51.029Z</time>
      </trkpt>
      <trkpt lat="48.80426" lon="2.46757">
        <ele>85.7</ele>
        <time>2015-04-27T19:18:52.019Z</time>
      </trkpt>
      <trkpt lat="48.80421" lon="2.46761">
        <ele>86</ele>
        <time>2015-04-27T19:18:53.027Z</time>
      </trkpt>
      <trkpt lat="48.80416" lon="2.46764">
        <ele>86</ele>
        <time>2015-04-27T19:18:54.036Z</time>
      </trkpt>
      <trkpt lat="48.80411" lon="2.46767">
        <ele>86.4</ele>
        <time>2015-04-27T19:18:55.052Z</time>
      </trkpt>
      <trkpt lat="48.80406" lon="2.46771">
        <ele>86.4</ele>
        <time>2015-04-27T19:18:56.064Z</time>
      </trkpt>
      <trkpt lat="48.80401" lon="2.46775">
        <ele>86.3</ele>
        <time>2015-04-27T19:18:57.082Z</time>
      </trkpt>
      <trkpt lat="48.80395" lon="2.46779">
        <ele>86.3</ele>
        <time>2015-04-27T19:18:57.969Z</time>
      </trkpt>
      <trkpt lat="48.80388" lon="2.46783">
        <ele>86.1</ele>
        <time>2015-04-27T19:18:58.971Z</time>
      </trkpt>
      <trkpt lat="48.80382" lon="2.46786">
        <ele>85.8</ele>
        <time>2015-04-27T19:18:59.983Z</time>
      </trkpt>
      <trkpt lat="48.80376" lon="2.46788">
        <ele>85.5</ele>
        <time>2015-04-27T19:19:01.026Z</time>
      </trkpt>
      <trkpt lat="48.80371" lon="2.46789">
        <ele>85.5</ele>
        <time>2015-04-27T19:19:02.031Z</time>
      </trkpt>
      <trkpt lat="48.80365" lon="2.4679">
        <ele>85.2</ele>
        <time>2015-04-27T19:19:03.023Z</time>
      </trkpt>
      <trkpt lat="48.8036" lon="2.46791">
        <ele>85.1</ele>
        <time>2015-04-27T19:19:04.034Z</time>
      </trkpt>
      <trkpt lat="48.80353" lon="2.46791">
        <ele>84.9</ele>
        <time>2015-04-27T19:19:05.057Z</time>
      </trkpt>
      <trkpt lat="48.80348" lon="2.46792">
        <ele>85.1</ele>
        <time>2015-04-27T19:19:06.072Z</time>
      </trkpt>
      <trkpt lat="48.80342" lon="2.46793">
        <ele>85.4</ele>
        <time>2015-04-27T19:19:06.974Z</time>
      </trkpt>
      <trkpt lat="48.80336" lon="2.46792">
        <ele>85.6</ele>
        <time>2015-04-27T19:19:07.988Z</time>
      </trkpt>
      <trkpt lat="48.8033" lon="2.46792">
        <ele>85.8</ele>
        <time>2015-04-27T19:19:09.017Z</time>
      </trkpt>
      <trkpt lat="48.80324" lon="2.46792">
        <ele>86</ele>
        <time>2015-04-27T19:19:10.070Z</time>
      </trkpt>
      <trkpt lat="48.80319" lon="2.46791">
        <ele>86.1</ele>
        <time>2015-04-27T19:19:10.974Z</time>
      </trkpt>
      <trkpt lat="48.80313" lon="2.46791">
        <ele>86</ele>
        <time>2015-04-27T19:19:11.979Z</time>
      </trkpt>
      <trkpt lat="48.80307" lon="2.46791">
        <ele>85.9</ele>
        <time>2015-04-27T19:19:13.015Z</time>
      </trkpt>
      <trkpt lat="48.80301" lon="2.46792">
        <ele>85.6</ele>
        <time>2015-04-27T19:19:14.016Z</time>
      </trkpt>
      <trkpt lat="48.80296" lon="2.46792">
        <ele>85.7</ele>
        <time>2015-04-27T19:19:15.032Z</time>
      </trkpt>
      <trkpt lat="48.8029" lon="2.46791">
        <ele>86.1</ele>
        <time>2015-04-27T19:19:16.050Z</time>
      </trkpt>
      <trkpt lat="48.80284" lon="2.46791">
        <ele>86.1</ele>
        <time>2015-04-27T19:19:16.975Z</time>
      </trkpt>
      <trkpt lat="48.80279" lon="2.4679">
        <ele>86</ele>
        <time>2015-04-27T19:19:17.973Z</time>
      </trkpt>
      <trkpt lat="48.80274" lon="2.4679">
        <ele>86.3</ele>
        <time>2015-04-27T19:19:18.973Z</time>
      </trkpt>
      <trkpt lat="48.80267" lon="2.46788">
        <ele>86.2</ele>
        <time>2015-04-27T19:19:19.979Z</time>
      </trkpt>
      <trkpt lat="48.80261" lon="2.46786">
        <ele>86.4</ele>
        <time>2015-04-27T19:19:21.033Z</time>
      </trkpt>
      <trkpt lat="48.80255" lon="2.46783">
        <ele>86.7</ele>
        <time>2015-04-27T19:19:22.044Z</time>
      </trkpt>
      <trkpt lat="48.80249" lon="2.4678">
        <ele>86.8</ele>
        <time>2015-04-27T19:19:23.058Z</time>
      </trkpt>
      <trkpt lat="48.80243" lon="2.46778">
        <ele>87</ele>
        <time>2015-04-27T19:19:23.952Z</time>
      </trkpt>
      <trkpt lat="48.80237" lon="2.46776">
        <ele>86.8</ele>
        <time>2015-04-27T19:19:24.996Z</time>
      </trkpt>
      <trkpt lat="48.80231" lon="2.46773">
        <ele>87</ele>
        <time>2015-04-27T19:19:26.008Z</time>
      </trkpt>
      <trkpt lat="48.80224" lon="2.46771">
        <ele>87.1</ele>
        <time>2015-04-27T19:19:27.020Z</time>
      </trkpt>
      <trkpt lat="48.80218" lon="2.46769">
        <ele>87.2</ele>
        <time>2015-04-27T19:19:28.021Z</time>
      </trkpt>
      <trkpt lat="48.80213" lon="2.46766">
        <ele>87.2</ele>
        <time>2015-04-27T19:19:29.055Z</time>
      </trkpt>
      <trkpt lat="48.80207" lon="2.46763">
        <ele>87.1</ele>
        <time>2015-04-27T19:19:30.065Z</time>
      </trkpt>
      <trkpt lat="48.80202" lon="2.46759">
        <ele>87.2</ele>
        <time>2015-04-27T19:19:30.975Z</time>
      </trkpt>
      <trkpt lat="48.80196" lon="2.46757">
        <ele>86.9</ele>
        <time>2015-04-27T19:19:31.971Z</time>
      </trkpt>
      <trkpt lat="48.8019" lon="2.46755">
        <ele>86.8</ele>
        <time>2015-04-27T19:19:33.007Z</time>
      </trkpt>
      <trkpt lat="48.80184" lon="2.46753">
        <ele>86.5</ele>
        <time>2015-04-27T19:19:34.017Z</time>
      </trkpt>
      <trkpt lat="48.80178" lon="2.4675">
        <ele>86.3</ele>
        <time>2015-04-27T19:19:35.017Z</time>
      </trkpt>
      <trkpt lat="48.80171" lon="2.46747">
        <ele>86.4</ele>
        <time>2015-04-27T19:19:36.024Z</time>
      </trkpt>
      <trkpt lat="48.80166" lon="2.46745">
        <ele>86.3</ele>
        <time>2015-04-27T19:19:37.031Z</time>
      </trkpt>
      <trkpt lat="48.80161" lon="2.46741">
        <ele>86.4</ele>
        <time>2015-04-27T19:19:37.943Z</time>
      </trkpt>
      <trkpt lat="48.80156" lon="2.46737">
        <ele>86.5</ele>
        <time>2015-04-27T19:19:39.021Z</time>
      </trkpt>
      <trkpt lat="48.80152" lon="2.46733">
        <ele>86.8</ele>
        <time>2015-04-27T19:19:39.982Z</time>
      </trkpt>
      <trkpt lat="48.80146" lon="2.4673">
        <ele>86.7</ele>
        <time>2015-04-27T19:19:40.983Z</time>
      </trkpt>
      <trkpt lat="48.8014" lon="2.46728">
        <ele>87.1</ele>
        <time>2015-04-27T19:19:42.167Z</time>
      </trkpt>
      <trkpt lat="48.80135" lon="2.46725">
        <ele>86.9</ele>
        <time>2015-04-27T19:19:42.953Z</time>
      </trkpt>
      <trkpt lat="48.8013" lon="2.46722">
        <ele>87</ele>
        <time>2015-04-27T19:19:44Z</time>
      </trkpt>
      <trkpt lat="48.80125" lon="2.46719">
        <ele>86.6</ele>
        <time>2015-04-27T19:19:45.035Z</time>
      </trkpt>
      <trkpt lat="48.8012" lon="2.46716">
        <ele>86.4</ele>
        <time>2015-04-27T19:19:45.972Z</time>
      </trkpt>
      <trkpt lat="48.80114" lon="2.46713">
        <ele>86.3</ele>
        <time>2015-04-27T19:19:46.974Z</time>
      </trkpt>
      <trkpt lat="48.80108" lon="2.4671">
        <ele>86.1</ele>
        <time>2015-04-27T19:19:47.991Z</time>
      </trkpt>
      <trkpt lat="48.80102" lon="2.46708">
        <ele>85.4</ele>
        <time>2015-04-27T19:19:49.012Z</time>
      </trkpt>
      <trkpt lat="48.80095" lon="2.46706">
        <ele>83.8</ele>
        <time>2015-04-27T19:19:50.023Z</time>
      </trkpt>
      <trkpt lat="48.80089" lon="2.46702">
        <ele>83.2</ele>
        <time>2015-04-27T19:19:51.113Z</time>
      </trkpt>
      <trkpt lat="48.80083" lon="2.46696">
        <ele>83.1</ele>
        <time>2015-04-27T19:19:51.977Z</time>
      </trkpt>
      <trkpt lat="48.80077" lon="2.46691">
        <ele>82.9</ele>
        <time>2015-04-27T19:19:53.027Z</time>
      </trkpt>
      <trkpt lat="48.80071" lon="2.46687">
        <ele>82.7</ele>
        <time>2015-04-27T19:19:54.048Z</time>
      </trkpt>
      <trkpt lat="48.80065" lon="2.46682">
        <ele>82.5</ele>
        <time>2015-04-27T19:19:55.054Z</time>
      </trkpt>
      <trkpt lat="48.8006" lon="2.46678">
        <ele>82.4</ele>
        <time>2015-04-27T19:19:56.066Z</time>
      </trkpt>
      <trkpt lat="48.80054" lon="2.46674">
        <ele>82.2</ele>
        <time>2015-04-27T19:19:57.151Z</time>
      </trkpt>
      <trkpt lat="48.80049" lon="2.46668">
        <ele>82.2</ele>
        <time>2015-04-27T19:19:57.968Z</time>
      </trkpt>
      <trkpt lat="48.80045" lon="2.46662">
        <ele>82.4</ele>
        <time>2015-04-27T19:19:59.009Z</time>
      </trkpt>
      <trkpt lat="48.80041" lon="2.46657">
        <ele>82.6</ele>
        <time>2015-04-27T19:20:00.030Z</time>
      </trkpt>
      <trkpt lat="48.80036" lon="2.46653">
        <ele>82.6</ele>
        <time>2015-04-27T19:20:01.042Z</time>
      </trkpt>
      <trkpt lat="48.80031" lon="2.46648">
        <ele>82.5</ele>
        <time>2015-04-27T19:20:02.045Z</time>
      </trkpt>
      <trkpt lat="48.80025" lon="2.46645">
        <ele>82.8</ele>
        <time>2015-04-27T19:20:03.020Z</time>
      </trkpt>
      <trkpt lat="48.8002" lon="2.46642">
        <ele>83.2</ele>
        <time>2015-04-27T19:20:04.004Z</time>
      </trkpt>
      <trkpt lat="48.80015" lon="2.46638">
        <ele>83.5</ele>
        <time>2015-04-27T19:20:04.999Z</time>
      </trkpt>
      <trkpt lat="48.8001" lon="2.46634">
        <ele>83.8</ele>
        <time>2015-04-27T19:20:06.012Z</time>
      </trkpt>
      <trkpt lat="48.80005" lon="2.46629">
        <ele>84</ele>
        <time>2015-04-27T19:20:07.017Z</time>
      </trkpt>
      <trkpt lat="48.80001" lon="2.46623">
        <ele>84.1</ele>
        <time>2015-04-27T19:20:08.029Z</time>
      </trkpt>
      <trkpt lat="48.79996" lon="2.46619">
        <ele>84.4</ele>
        <time>2015-04-27T19:20:09.005Z</time>
      </trkpt>
      <trkpt lat="48.79991" lon="2.46616">
        <ele>84.6</ele>
        <time>2015-04-27T19:20:10.024Z</time>
      </trkpt>
      <trkpt lat="48.79987" lon="2.46612">
        <ele>84.4</ele>
        <time>2015-04-27T19:20:10.990Z</time>
      </trkpt>
      <trkpt lat="48.79983" lon="2.46608">
        <ele>84.3</ele>
        <time>2015-04-27T19:20:12.015Z</time>
      </trkpt>
      <trkpt lat="48.79979" lon="2.46604">
        <ele>84.2</ele>
        <time>2015-04-27T19:20:12.979Z</time>
      </trkpt>
      <trkpt lat="48.79975" lon="2.46601">
        <ele>84.3</ele>
        <time>2015-04-27T19:20:13.968Z</time>
      </trkpt>
      <trkpt lat="48.79969" lon="2.46598">
        <ele>84.5</ele>
        <time>2015-04-27T19:20:15.006Z</time>
      </trkpt>
      <trkpt lat="48.79964" lon="2.46596">
        <ele>84.4</ele>
        <time>2015-04-27T19:20:16.010Z</time>
      </trkpt>
      <trkpt lat="48.7996" lon="2.46593">
        <ele>84.7</ele>
        <time>2015-04-27T19:20:17.019Z</time>
      </trkpt>
      <trkpt lat="48.79956" lon="2.4659">
        <ele>84.5</ele>
        <time>2015-04-27T19:20:17.998Z</time>
      </trkpt>
      <trkpt lat="48.79951" lon="2.46587">
        <ele>84.4</ele>
        <time>2015-04-27T19:20:18.939Z</time>
      </trkpt>
      <trkpt lat="48.79947" lon="2.46584">
        <ele>84.4</ele>
        <time>2015-04-27T19:20:19.953Z</time>
      </trkpt>
      <trkpt lat="48.7994" lon="2.46577">
        <ele>84.1</ele>
        <time>2015-04-27T19:20:22.021Z</time>
      </trkpt>
      <trkpt lat="48.79937" lon="2.46575">
        <ele>84.1</ele>
        <time>2015-04-27T19:20:22.943Z</time>
      </trkpt>
      <trkpt lat="48.7993" lon="2.46569">
        <ele>84.5</ele>
        <time>2015-04-27T19:20:26.025Z</time>
      </trkpt>
      <trkpt lat="48.79928" lon="2.46568">
        <ele>84.5</ele>
        <time>2015-04-27T19:20:27.081Z</time>
      </trkpt>
      <trkpt lat="48.79922" lon="2.46577">
        <ele>88.9</ele>
        <time>2015-04-27T19:21:00.942Z</time>
      </trkpt>
      <trkpt lat="48.79924" lon="2.4658">
        <ele>89</ele>
        <time>2015-04-27T19:21:01.963Z</time>
      </trkpt>
      <trkpt lat="48.79921" lon="2.46591">
        <ele>88.5</ele>
        <time>2015-04-27T19:21:06.030Z</time>
      </trkpt>
      <trkpt lat="48.79919" lon="2.46593">
        <ele>88.6</ele>
        <time>2015-04-27T19:21:06.946Z</time>
      </trkpt>
      <trkpt lat="48.79911" lon="2.466">
        <ele>88.7</ele>
        <time>2015-04-27T19:21:11.035Z</time>
      </trkpt>
      <trkpt lat="48.79908" lon="2.46602">
        <ele>88.6</ele>
        <time>2015-04-27T19:21:12.050Z</time>
      </trkpt>
      <trkpt lat="48.79901" lon="2.46605">
        <ele>88.3</ele>
        <time>2015-04-27T19:21:13.950Z</time>
      </trkpt>
      <trkpt lat="48.79897" lon="2.46608">
        <ele>88.1</ele>
        <time>2015-04-27T19:21:15.013Z</time>
      </trkpt>
      <trkpt lat="48.79892" lon="2.46611">
        <ele>87.7</ele>
        <time>2015-04-27T19:21:15.942Z</time>
      </trkpt>
      <trkpt lat="48.79888" lon="2.46615">
        <ele>87.5</ele>
        <time>2015-04-27T19:21:16.950Z</time>
      </trkpt>
      <trkpt lat="48.79883" lon="2.46618">
        <ele>87.5</ele>
        <time>2015-04-27T19:21:17.971Z</time>
      </trkpt>
      <trkpt lat="48.79878" lon="2.46622">
        <ele>87.6</ele>
        <time>2015-04-27T19:21:19.055Z</time>
      </trkpt>
      <trkpt lat="48.79874" lon="2.46625">
        <ele>87.7</ele>
        <time>2015-04-27T19:21:19.985Z</time>
      </trkpt>
      <trkpt lat="48.79869" lon="2.46627">
        <ele>87.7</ele>
        <time>2015-04-27T19:21:21.016Z</time>
      </trkpt>
      <trkpt lat="48.79865" lon="2.4663">
        <ele>87.6</ele>
        <time>2015-04-27T19:21:22.027Z</time>
      </trkpt>
      <trkpt lat="48.7986" lon="2.46632">
        <ele>87.3</ele>
        <time>2015-04-27T19:21:23.134Z</time>
      </trkpt>
      <trkpt lat="48.79856" lon="2.46635">
        <ele>86.9</ele>
        <time>2015-04-27T19:21:24.056Z</time>
      </trkpt>
      <trkpt lat="48.79851" lon="2.46638">
        <ele>86.6</ele>
        <time>2015-04-27T19:21:25.074Z</time>
      </trkpt>
      <trkpt lat="48.79847" lon="2.4664">
        <ele>86.2</ele>
        <time>2015-04-27T19:21:25.949Z</time>
      </trkpt>
      <trkpt lat="48.79843" lon="2.46643">
        <ele>86</ele>
        <time>2015-04-27T19:21:27.030Z</time>
      </trkpt>
      <trkpt lat="48.79835" lon="2.46646">
        <ele>86.2</ele>
        <time>2015-04-27T19:21:28.942Z</time>
      </trkpt>
      <trkpt lat="48.79832" lon="2.46648">
        <ele>85.9</ele>
        <time>2015-04-27T19:21:29.947Z</time>
      </trkpt>
      <trkpt lat="48.79824" lon="2.46652">
        <ele>86.1</ele>
        <time>2015-04-27T19:21:31.971Z</time>
      </trkpt>
      <trkpt lat="48.79821" lon="2.46653">
        <ele>85.8</ele>
        <time>2015-04-27T19:21:33.033Z</time>
      </trkpt>
      <trkpt lat="48.79814" lon="2.46657">
        <ele>85.6</ele>
        <time>2015-04-27T19:21:35.054Z</time>
      </trkpt>
      <trkpt lat="48.79811" lon="2.46659">
        <ele>85.7</ele>
        <time>2015-04-27T19:21:36.011Z</time>
      </trkpt>
      <trkpt lat="48.79804" lon="2.46663">
        <ele>85.9</ele>
        <time>2015-04-27T19:21:37.961Z</time>
      </trkpt>
      <trkpt lat="48.79801" lon="2.46666">
        <ele>86</ele>
        <time>2015-04-27T19:21:39.026Z</time>
      </trkpt>
      <trkpt lat="48.79794" lon="2.46671">
        <ele>85.9</ele>
        <time>2015-04-27T19:21:41.064Z</time>
      </trkpt>
      <trkpt lat="48.7979" lon="2.46673">
        <ele>86</ele>
        <time>2015-04-27T19:21:41.997Z</time>
      </trkpt>
      <trkpt lat="48.79782" lon="2.46679">
        <ele>86.2</ele>
        <time>2015-04-27T19:21:43.979Z</time>
      </trkpt>
      <trkpt lat="48.79779" lon="2.46681">
        <ele>86.4</ele>
        <time>2015-04-27T19:21:45.039Z</time>
      </trkpt>
      <trkpt lat="48.79772" lon="2.46685">
        <ele>87</ele>
        <time>2015-04-27T19:21:46.987Z</time>
      </trkpt>
      <trkpt lat="48.79768" lon="2.46688">
        <ele>87</ele>
        <time>2015-04-27T19:21:47.983Z</time>
      </trkpt>
      <trkpt lat="48.79761" lon="2.46693">
        <ele>87.4</ele>
        <time>2015-04-27T19:21:50.067Z</time>
      </trkpt>
      <trkpt lat="48.79757" lon="2.46696">
        <ele>87.5</ele>
        <time>2015-04-27T19:21:51.009Z</time>
      </trkpt>
      <trkpt lat="48.7975" lon="2.46701">
        <ele>87.6</ele>
        <time>2015-04-27T19:21:53.208Z</time>
      </trkpt>
      <trkpt lat="48.79747" lon="2.46703">
        <ele>87.6</ele>
        <time>2015-04-27T19:21:53.997Z</time>
      </trkpt>
      <trkpt lat="48.79741" lon="2.46707">
        <ele>87.6</ele>
        <time>2015-04-27T19:21:56.011Z</time>
      </trkpt>
      <trkpt lat="48.79738" lon="2.4671">
        <ele>87.6</ele>
        <time>2015-04-27T19:21:57.052Z</time>
      </trkpt>
      <trkpt lat="48.79732" lon="2.46715">
        <ele>87.4</ele>
        <time>2015-04-27T19:21:58.951Z</time>
      </trkpt>
      <trkpt lat="48.79728" lon="2.46717">
        <ele>87.3</ele>
        <time>2015-04-27T19:22:00.008Z</time>
      </trkpt>
      <trkpt lat="48.79722" lon="2.46722">
        <ele>87.2</ele>
        <time>2015-04-27T19:22:01.969Z</time>
      </trkpt>
      <trkpt lat="48.79719" lon="2.46724">
        <ele>87.3</ele>
        <time>2015-04-27T19:22:02.999Z</time>
      </trkpt>
      <trkpt lat="48.79713" lon="2.46729">
        <ele>87.5</ele>
        <time>2015-04-27T19:22:05.026Z</time>
      </trkpt>
      <trkpt lat="48.7971" lon="2.46732">
        <ele>87.6</ele>
        <time>2015-04-27T19:22:06.032Z</time>
      </trkpt>
      <trkpt lat="48.79704" lon="2.46738">
        <ele>87.9</ele>
        <time>2015-04-27T19:22:08.528Z</time>
      </trkpt>
      <trkpt lat="48.797" lon="2.46742">
        <ele>87.9</ele>
        <time>2015-04-27T19:22:09.010Z</time>
      </trkpt>
      <trkpt lat="48.79694" lon="2.46748">
        <ele>88.1</ele>
        <time>2015-04-27T19:22:11.015Z</time>
      </trkpt>
      <trkpt lat="48.79691" lon="2.46751">
        <ele>88.3</ele>
        <time>2015-04-27T19:22:12.024Z</time>
      </trkpt>
      <trkpt lat="48.79685" lon="2.46756">
        <ele>88.6</ele>
        <time>2015-04-27T19:22:14.043Z</time>
      </trkpt>
      <trkpt lat="48.79681" lon="2.4676">
        <ele>88.8</ele>
        <time>2015-04-27T19:22:15.054Z</time>
      </trkpt>
      <trkpt lat="48.79675" lon="2.46764">
        <ele>88.9</ele>
        <time>2015-04-27T19:22:16.965Z</time>
      </trkpt>
      <trkpt lat="48.79672" lon="2.46766">
        <ele>88.9</ele>
        <time>2015-04-27T19:22:18.009Z</time>
      </trkpt>
      <trkpt lat="48.79665" lon="2.46773">
        <ele>89.2</ele>
        <time>2015-04-27T19:22:21.004Z</time>
      </trkpt>
      <trkpt lat="48.79663" lon="2.46775">
        <ele>89.4</ele>
        <time>2015-04-27T19:22:22.022Z</time>
      </trkpt>
      <trkpt lat="48.79656" lon="2.46782">
        <ele>89.3</ele>
        <time>2015-04-27T19:22:30.011Z</time>
      </trkpt>
      <trkpt lat="48.79653" lon="2.46786">
        <ele>89.7</ele>
        <time>2015-04-27T19:22:31.019Z</time>
      </trkpt>
      <trkpt lat="48.79646" lon="2.46791">
        <ele>90</ele>
        <time>2015-04-27T19:22:34.033Z</time>
      </trkpt>
      <trkpt lat="48.79642" lon="2.46795">
        <ele>89.6</ele>
        <time>2015-04-27T19:22:35.050Z</time>
      </trkpt>
      <trkpt lat="48.79636" lon="2.468">
        <ele>89.2</ele>
        <time>2015-04-27T19:22:36.990Z</time>
      </trkpt>
      <trkpt lat="48.79633" lon="2.46802">
        <ele>89.2</ele>
        <time>2015-04-27T19:22:38.023Z</time>
      </trkpt>
      <trkpt lat="48.79627" lon="2.46806">
        <ele>89.1</ele>
        <time>2015-04-27T19:22:39.928Z</time>
      </trkpt>
      <trkpt lat="48.79623" lon="2.4681">
        <ele>88.6</ele>
        <time>2015-04-27T19:22:40.942Z</time>
      </trkpt>
      <trkpt lat="48.79616" lon="2.46815">
        <ele>88.9</ele>
        <time>2015-04-27T19:22:43.010Z</time>
      </trkpt>
      <trkpt lat="48.79611" lon="2.46817">
        <ele>88.5</ele>
        <time>2015-04-27T19:22:44.023Z</time>
      </trkpt>
      <trkpt lat="48.79604" lon="2.46824">
        <ele>89</ele>
        <time>2015-04-27T19:22:46.023Z</time>
      </trkpt>
      <trkpt lat="48.79602" lon="2.46826">
        <ele>89.3</ele>
        <time>2015-04-27T19:22:46.946Z</time>
      </trkpt>
      <trkpt lat="48.79594" lon="2.4683">
        <ele>88.9</ele>
        <time>2015-04-27T19:22:50.037Z</time>
      </trkpt>
      <trkpt lat="48.79591" lon="2.46831">
        <ele>88.3</ele>
        <time>2015-04-27T19:22:51.069Z</time>
      </trkpt>
      <trkpt lat="48.79587" lon="2.46833">
        <ele>88.2</ele>
        <time>2015-04-27T19:22:59.031Z</time>
      </trkpt>
      <trkpt lat="48.7958" lon="2.46841">
        <ele>88.2</ele>
        <time>2015-04-27T19:23:00.070Z</time>
      </trkpt>
      <trkpt lat="48.79576" lon="2.46852">
        <ele>89</ele>
        <time>2015-04-27T19:23:04.142Z</time>
      </trkpt>
      <trkpt lat="48.79575" lon="2.46855">
        <ele>89.4</ele>
        <time>2015-04-27T19:23:05.006Z</time>
      </trkpt>
      <trkpt lat="48.79567" lon="2.46859">
        <ele>89</ele>
        <time>2015-04-27T19:23:07.968Z</time>
      </trkpt>
      <trkpt lat="48.79565" lon="2.4686">
        <ele>88.9</ele>
        <time>2015-04-27T19:23:09.014Z</time>
      </trkpt>
      <trkpt lat="48.79557" lon="2.46863">
        <ele>88.9</ele>
        <time>2015-04-27T19:23:12.046Z</time>
      </trkpt>
      <trkpt lat="48.79555" lon="2.46865">
        <ele>88.8</ele>
        <time>2015-04-27T19:23:12.971Z</time>
      </trkpt>
      <trkpt lat="48.79548" lon="2.46871">
        <ele>88.2</ele>
        <time>2015-04-27T19:23:15.025Z</time>
      </trkpt>
      <trkpt lat="48.79544" lon="2.46873">
        <ele>87.7</ele>
        <time>2015-04-27T19:23:16.030Z</time>
      </trkpt>
      <trkpt lat="48.79536" lon="2.46877">
        <ele>86.2</ele>
        <time>2015-04-27T19:23:23.055Z</time>
      </trkpt>
      <trkpt lat="48.79526" lon="2.4688">
        <ele>85.6</ele>
        <time>2015-04-27T19:23:24.013Z</time>
      </trkpt>
      <trkpt lat="48.7952" lon="2.46884">
        <ele>85.4</ele>
        <time>2015-04-27T19:23:26.007Z</time>
      </trkpt>
      <trkpt lat="48.79518" lon="2.46886">
        <ele>85.3</ele>
        <time>2015-04-27T19:23:27.046Z</time>
      </trkpt>
      <trkpt lat="48.79511" lon="2.46887">
        <ele>84.9</ele>
        <time>2015-04-27T19:23:30.004Z</time>
      </trkpt>
      <trkpt lat="48.79509" lon="2.46887">
        <ele>84.6</ele>
        <time>2015-04-27T19:23:31Z</time>
      </trkpt>
      <trkpt lat="48.79501" lon="2.46887">
        <ele>84.3</ele>
        <time>2015-04-27T19:23:34.040Z</time>
      </trkpt>
      <trkpt lat="48.79497" lon="2.46888">
        <ele>83.3</ele>
        <time>2015-04-27T19:23:35.052Z</time>
      </trkpt>
      <trkpt lat="48.79492" lon="2.4689">
        <ele>83.6</ele>
        <time>2015-04-27T19:23:35.967Z</time>
      </trkpt>
      <trkpt lat="48.79485" lon="2.46893">
        <ele>84.7</ele>
        <time>2015-04-27T19:23:36.969Z</time>
      </trkpt>
      <trkpt lat="48.7948" lon="2.46895">
        <ele>84.7</ele>
        <time>2015-04-27T19:23:37.981Z</time>
      </trkpt>
      <trkpt lat="48.79475" lon="2.46897">
        <ele>84.4</ele>
        <time>2015-04-27T19:23:39.014Z</time>
      </trkpt>
      <trkpt lat="48.7947" lon="2.46901">
        <ele>84.2</ele>
        <time>2015-04-27T19:23:40.030Z</time>
      </trkpt>
      <trkpt lat="48.79464" lon="2.46905">
        <ele>84.2</ele>
        <time>2015-04-27T19:23:41.040Z</time>
      </trkpt>
      <trkpt lat="48.79458" lon="2.46909">
        <ele>84</ele>
        <time>2015-04-27T19:23:41.967Z</time>
      </trkpt>
      <trkpt lat="48.79453" lon="2.46913">
        <ele>83.7</ele>
        <time>2015-04-27T19:23:42.977Z</time>
      </trkpt>
      <trkpt lat="48.79448" lon="2.46916">
        <ele>83.6</ele>
        <time>2015-04-27T19:23:43.983Z</time>
      </trkpt>
      <trkpt lat="48.79443" lon="2.4692">
        <ele>83.8</ele>
        <time>2015-04-27T19:23:45.010Z</time>
      </trkpt>
      <trkpt lat="48.79436" lon="2.46924">
        <ele>84.1</ele>
        <time>2015-04-27T19:23:47.038Z</time>
      </trkpt>
      <trkpt lat="48.79432" lon="2.46925">
        <ele>84.2</ele>
        <time>2015-04-27T19:23:48.046Z</time>
      </trkpt>
      <trkpt lat="48.79424" lon="2.46931">
        <ele>84.4</ele>
        <time>2015-04-27T19:23:51.032Z</time>
      </trkpt>
      <trkpt lat="48.79423" lon="2.46931">
        <ele>84.6</ele>
        <time>2015-04-27T19:23:51.977Z</time>
      </trkpt>
      <trkpt lat="48.79423" lon="2.46931">
        <ele>84.6</ele>
        <time>2015-04-27T19:23:58.936Z</time>
      </trkpt>
      <trkpt lat="48.79412" lon="2.46937">
        <ele>86.3</ele>
        <time>2015-04-27T19:23:59.985Z</time>
      </trkpt>
      <trkpt lat="48.79405" lon="2.46934">
        <ele>86.3</ele>
        <time>2015-04-27T19:24:03.026Z</time>
      </trkpt>
      <trkpt lat="48.79402" lon="2.46932">
        <ele>86.2</ele>
        <time>2015-04-27T19:24:04.048Z</time>
      </trkpt>
      <trkpt lat="48.79395" lon="2.46929">
        <ele>85.8</ele>
        <time>2015-04-27T19:24:05.983Z</time>
      </trkpt>
      <trkpt lat="48.79392" lon="2.46926">
        <ele>85.4</ele>
        <time>2015-04-27T19:24:07.033Z</time>
      </trkpt>
      <trkpt lat="48.79387" lon="2.46922">
        <ele>84.4</ele>
        <time>2015-04-27T19:24:09.137Z</time>
      </trkpt>
      <trkpt lat="48.79384" lon="2.46921">
        <ele>84.1</ele>
        <time>2015-04-27T19:24:09.979Z</time>
      </trkpt>
      <trkpt lat="48.79376" lon="2.4692">
        <ele>84.2</ele>
        <time>2015-04-27T19:24:13.044Z</time>
      </trkpt>
      <trkpt lat="48.79374" lon="2.4692">
        <ele>84.1</ele>
        <time>2015-04-27T19:24:13.989Z</time>
      </trkpt>
      <trkpt lat="48.79368" lon="2.46921">
        <ele>83.9</ele>
        <time>2015-04-27T19:24:15.954Z</time>
      </trkpt>
      <trkpt lat="48.79365" lon="2.46922">
        <ele>83.5</ele>
        <time>2015-04-27T19:24:17.007Z</time>
      </trkpt>
      <trkpt lat="48.7936" lon="2.4692">
        <ele>83.5</ele>
        <time>2015-04-27T19:24:19.048Z</time>
      </trkpt>
      <trkpt lat="48.79356" lon="2.46919">
        <ele>83.6</ele>
        <time>2015-04-27T19:24:19.984Z</time>
      </trkpt>
      <trkpt lat="48.79348" lon="2.4692">
        <ele>83.9</ele>
        <time>2015-04-27T19:24:22.060Z</time>
      </trkpt>
      <trkpt lat="48.79346" lon="2.46918">
        <ele>84.1</ele>
        <time>2015-04-27T19:24:22.956Z</time>
      </trkpt>
      <trkpt lat="48.7934" lon="2.46915">
        <ele>84.4</ele>
        <time>2015-04-27T19:24:24.983Z</time>
      </trkpt>
      <trkpt lat="48.79336" lon="2.46913">
        <ele>84.3</ele>
        <time>2015-04-27T19:24:26.007Z</time>
      </trkpt>
      <trkpt lat="48.79329" lon="2.4691">
        <ele>84.3</ele>
        <time>2015-04-27T19:24:27.959Z</time>
      </trkpt>
      <trkpt lat="48.79326" lon="2.46909">
        <ele>84.2</ele>
        <time>2015-04-27T19:24:28.976Z</time>
      </trkpt>
      <trkpt lat="48.7932" lon="2.4691">
        <ele>84.3</ele>
        <time>2015-04-27T19:24:31.003Z</time>
      </trkpt>
      <trkpt lat="48.79316" lon="2.46909">
        <ele>84.2</ele>
        <time>2015-04-27T19:24:32.007Z</time>
      </trkpt>
      <trkpt lat="48.79308" lon="2.46908">
        <ele>84.1</ele>
        <time>2015-04-27T19:24:34.989Z</time>
      </trkpt>
      <trkpt lat="48.79305" lon="2.46908">
        <ele>83.8</ele>
        <time>2015-04-27T19:24:35.982Z</time>
      </trkpt>
      <trkpt lat="48.79297" lon="2.46908">
        <ele>83.1</ele>
        <time>2015-04-27T19:24:38.011Z</time>
      </trkpt>
      <trkpt lat="48.79293" lon="2.46909">
        <ele>83</ele>
        <time>2015-04-27T19:24:39.034Z</time>
      </trkpt>
      <trkpt lat="48.79288" lon="2.46909">
        <ele>82.5</ele>
        <time>2015-04-27T19:24:39.970Z</time>
      </trkpt>
      <trkpt lat="48.79284" lon="2.46909">
        <ele>82.8</ele>
        <time>2015-04-27T19:24:41Z</time>
      </trkpt>
      <trkpt lat="48.79276" lon="2.4691">
        <ele>83.7</ele>
        <time>2015-04-27T19:24:43.027Z</time>
      </trkpt>
      <trkpt lat="48.79273" lon="2.46911">
        <ele>83.7</ele>
        <time>2015-04-27T19:24:44.039Z</time>
      </trkpt>
      <trkpt lat="48.79266" lon="2.46913">
        <ele>83.3</ele>
        <time>2015-04-27T19:24:45.940Z</time>
      </trkpt>
      <trkpt lat="48.79263" lon="2.46913">
        <ele>83.4</ele>
        <time>2015-04-27T19:24:46.981Z</time>
      </trkpt>
      <trkpt lat="48.79256" lon="2.46913">
        <ele>82.9</ele>
        <time>2015-04-27T19:24:49.007Z</time>
      </trkpt>
      <trkpt lat="48.79253" lon="2.46914">
        <ele>83.1</ele>
        <time>2015-04-27T19:24:50.034Z</time>
      </trkpt>
      <trkpt lat="48.79246" lon="2.46911">
        <ele>84.1</ele>
        <time>2015-04-27T19:24:53.035Z</time>
      </trkpt>
      <trkpt lat="48.79243" lon="2.46911">
        <ele>84.3</ele>
        <time>2015-04-27T19:24:54.018Z</time>
      </trkpt>
      <trkpt lat="48.79236" lon="2.4691">
        <ele>84.2</ele>
        <time>2015-04-27T19:24:56.111Z</time>
      </trkpt>
      <trkpt lat="48.79232" lon="2.4691">
        <ele>84.2</ele>
        <time>2015-04-27T19:24:57.009Z</time>
      </trkpt>
      <trkpt lat="48.79224" lon="2.46913">
        <ele>84.6</ele>
        <time>2015-04-27T19:24:59.003Z</time>
      </trkpt>
      <trkpt lat="48.79218" lon="2.46917">
        <ele>84.7</ele>
        <time>2015-04-27T19:24:59.963Z</time>
      </trkpt>
      <trkpt lat="48.79215" lon="2.46919">
        <ele>84.6</ele>
        <time>2015-04-27T19:25:00.973Z</time>
      </trkpt>
      <trkpt lat="48.79209" lon="2.46922">
        <ele>83.8</ele>
        <time>2015-04-27T19:25:02.006Z</time>
      </trkpt>
      <trkpt lat="48.792" lon="2.46923">
        <ele>83.4</ele>
        <time>2015-04-27T19:25:03.937Z</time>
      </trkpt>
      <trkpt lat="48.79196" lon="2.46922">
        <ele>83</ele>
        <time>2015-04-27T19:25:05.027Z</time>
      </trkpt>
      <trkpt lat="48.79189" lon="2.46923">
        <ele>82.7</ele>
        <time>2015-04-27T19:25:06.975Z</time>
      </trkpt>
      <trkpt lat="48.79185" lon="2.46923">
        <ele>82.6</ele>
        <time>2015-04-27T19:25:08.055Z</time>
      </trkpt>
      <trkpt lat="48.79178" lon="2.46926">
        <ele>82.6</ele>
        <time>2015-04-27T19:25:10.015Z</time>
      </trkpt>
      <trkpt lat="48.79175" lon="2.46927">
        <ele>82.7</ele>
        <time>2015-04-27T19:25:10.968Z</time>
      </trkpt>
      <trkpt lat="48.79167" lon="2.46929">
        <ele>83.5</ele>
        <time>2015-04-27T19:25:14.019Z</time>
      </trkpt>
      <trkpt lat="48.79163" lon="2.46931">
        <ele>83.3</ele>
        <time>2015-04-27T19:25:15.061Z</time>
      </trkpt>
      <trkpt lat="48.79155" lon="2.46934">
        <ele>82.9</ele>
        <time>2015-04-27T19:25:16.949Z</time>
      </trkpt>
      <trkpt lat="48.79152" lon="2.46934">
        <ele>82.7</ele>
        <time>2015-04-27T19:25:18.032Z</time>
      </trkpt>
      <trkpt lat="48.79144" lon="2.46934">
        <ele>82.5</ele>
        <time>2015-04-27T19:25:20.017Z</time>
      </trkpt>
      <trkpt lat="48.79139" lon="2.46935">
        <ele>82.4</ele>
        <time>2015-04-27T19:25:21.019Z</time>
      </trkpt>
      <trkpt lat="48.79133" lon="2.46935">
        <ele>82.5</ele>
        <time>2015-04-27T19:25:23.026Z</time>
      </trkpt>
      <trkpt lat="48.79129" lon="2.46935">
        <ele>82.7</ele>
        <time>2015-04-27T19:25:24.003Z</time>
      </trkpt>
      <trkpt lat="48.79123" lon="2.46936">
        <ele>83</ele>
        <time>2015-04-27T19:25:26.136Z</time>
      </trkpt>
      <trkpt lat="48.7912" lon="2.46935">
        <ele>83</ele>
        <time>2015-04-27T19:25:27.005Z</time>
      </trkpt>
      <trkpt lat="48.79114" lon="2.46935">
        <ele>83.1</ele>
        <time>2015-04-27T19:25:29.147Z</time>
      </trkpt>
      <trkpt lat="48.7911" lon="2.46934">
        <ele>83.1</ele>
        <time>2015-04-27T19:25:30.031Z</time>
      </trkpt>
      <trkpt lat="48.79103" lon="2.46934">
        <ele>82.4</ele>
        <time>2015-04-27T19:25:32.991Z</time>
      </trkpt>
      <trkpt lat="48.791" lon="2.46934">
        <ele>82.2</ele>
        <time>2015-04-27T19:25:33.995Z</time>
      </trkpt>
      <trkpt lat="48.79093" lon="2.46937">
        <ele>82.2</ele>
        <time>2015-04-27T19:25:36.047Z</time>
      </trkpt>
      <trkpt lat="48.79089" lon="2.46939">
        <ele>82.1</ele>
        <time>2015-04-27T19:25:37.184Z</time>
      </trkpt>
      <trkpt lat="48.79085" lon="2.46943">
        <ele>82</ele>
        <time>2015-04-27T19:25:37.954Z</time>
      </trkpt>
      <trkpt lat="48.7908" lon="2.46946">
        <ele>81.6</ele>
        <time>2015-04-27T19:25:39.005Z</time>
      </trkpt>
      <trkpt lat="48.79073" lon="2.46949">
        <ele>81.1</ele>
        <time>2015-04-27T19:25:41.026Z</time>
      </trkpt>
      <trkpt lat="48.79071" lon="2.4695">
        <ele>81.4</ele>
        <time>2015-04-27T19:25:41.975Z</time>
      </trkpt>
      <trkpt lat="48.79065" lon="2.4695">
        <ele>81.3</ele>
        <time>2015-04-27T19:25:43.992Z</time>
      </trkpt>
      <trkpt lat="48.79062" lon="2.4695">
        <ele>81</ele>
        <time>2015-04-27T19:25:45.031Z</time>
      </trkpt>
      <trkpt lat="48.79055" lon="2.46949">
        <ele>80.4</ele>
        <time>2015-04-27T19:25:46.979Z</time>
      </trkpt>
      <trkpt lat="48.79052" lon="2.46949">
        <ele>80.4</ele>
        <time>2015-04-27T19:25:47.996Z</time>
      </trkpt>
      <trkpt lat="48.79043" lon="2.4695">
        <ele>80.2</ele>
        <time>2015-04-27T19:25:50.983Z</time>
      </trkpt>
      <trkpt lat="48.7904" lon="2.4695">
        <ele>80.2</ele>
        <time>2015-04-27T19:25:51.977Z</time>
      </trkpt>
      <trkpt lat="48.79033" lon="2.46951">
        <ele>80.3</ele>
        <time>2015-04-27T19:25:54.030Z</time>
      </trkpt>
      <trkpt lat="48.79028" lon="2.46953">
        <ele>80.5</ele>
        <time>2015-04-27T19:25:55.039Z</time>
      </trkpt>
      <trkpt lat="48.79023" lon="2.46956">
        <ele>80.8</ele>
        <time>2015-04-27T19:25:56.172Z</time>
      </trkpt>
      <trkpt lat="48.79018" lon="2.46959">
        <ele>80.8</ele>
        <time>2015-04-27T19:25:56.973Z</time>
      </trkpt>
      <trkpt lat="48.7901" lon="2.46962">
        <ele>80.8</ele>
        <time>2015-04-27T19:25:58.999Z</time>
      </trkpt>
      <trkpt lat="48.79007" lon="2.46962">
        <ele>80.6</ele>
        <time>2015-04-27T19:26:00.014Z</time>
      </trkpt>
      <trkpt lat="48.78999" lon="2.4696">
        <ele>80.8</ele>
        <time>2015-04-27T19:26:03.049Z</time>
      </trkpt>
      <trkpt lat="48.78996" lon="2.46958">
        <ele>80.6</ele>
        <time>2015-04-27T19:26:04.056Z</time>
      </trkpt>
      <trkpt lat="48.78989" lon="2.46959">
        <ele>80.5</ele>
        <time>2015-04-27T19:26:06.962Z</time>
      </trkpt>
      <trkpt lat="48.78986" lon="2.46959">
        <ele>80.5</ele>
        <time>2015-04-27T19:26:07.969Z</time>
      </trkpt>
      <trkpt lat="48.78978" lon="2.46961">
        <ele>80.8</ele>
        <time>2015-04-27T19:26:10.001Z</time>
      </trkpt>
      <trkpt lat="48.78975" lon="2.46962">
        <ele>80.8</ele>
        <time>2015-04-27T19:26:11.017Z</time>
      </trkpt>
      <trkpt lat="48.78967" lon="2.46963">
        <ele>80.9</ele>
        <time>2015-04-27T19:26:13.029Z</time>
      </trkpt>
      <trkpt lat="48.78962" lon="2.46964">
        <ele>81.2</ele>
        <time>2015-04-27T19:26:14.036Z</time>
      </trkpt>
      <trkpt lat="48.78957" lon="2.46966">
        <ele>81.6</ele>
        <time>2015-04-27T19:26:15.065Z</time>
      </trkpt>
      <trkpt lat="48.78953" lon="2.46968">
        <ele>81.4</ele>
        <time>2015-04-27T19:26:15.970Z</time>
      </trkpt>
      <trkpt lat="48.78948" lon="2.46969">
        <ele>81.4</ele>
        <time>2015-04-27T19:26:16.997Z</time>
      </trkpt>
      <trkpt lat="48.78943" lon="2.46971">
        <ele>81.1</ele>
        <time>2015-04-27T19:26:18.016Z</time>
      </trkpt>
      <trkpt lat="48.78937" lon="2.46973">
        <ele>80.9</ele>
        <time>2015-04-27T19:26:19.043Z</time>
      </trkpt>
      <trkpt lat="48.78932" lon="2.46976">
        <ele>80.3</ele>
        <time>2015-04-27T19:26:20.051Z</time>
      </trkpt>
      <trkpt lat="48.78927" lon="2.46978">
        <ele>80.2</ele>
        <time>2015-04-27T19:26:21.058Z</time>
      </trkpt>
      <trkpt lat="48.78923" lon="2.46979">
        <ele>80</ele>
        <time>2015-04-27T19:26:21.958Z</time>
      </trkpt>
      <trkpt lat="48.78915" lon="2.46983">
        <ele>80.4</ele>
        <time>2015-04-27T19:26:23.979Z</time>
      </trkpt>
      <trkpt lat="48.7891" lon="2.46985">
        <ele>80.7</ele>
        <time>2015-04-27T19:26:25.006Z</time>
      </trkpt>
      <trkpt lat="48.78902" lon="2.46989">
        <ele>81.2</ele>
        <time>2015-04-27T19:26:27.053Z</time>
      </trkpt>
      <trkpt lat="48.789" lon="2.46992">
        <ele>81.1</ele>
        <time>2015-04-27T19:26:27.936Z</time>
      </trkpt>
      <trkpt lat="48.78896" lon="2.46996">
        <ele>80.9</ele>
        <time>2015-04-27T19:26:32.041Z</time>
      </trkpt>
      <trkpt lat="48.78886" lon="2.47007">
        <ele>81.7</ele>
        <time>2015-04-27T19:26:33.046Z</time>
      </trkpt>
      <trkpt lat="48.7888" lon="2.47012">
        <ele>83</ele>
        <time>2015-04-27T19:26:35.716Z</time>
      </trkpt>
      <trkpt lat="48.78876" lon="2.47015">
        <ele>83.6</ele>
        <time>2015-04-27T19:26:36.009Z</time>
      </trkpt>
      <trkpt lat="48.78872" lon="2.47019">
        <ele>83.8</ele>
        <time>2015-04-27T19:26:37.039Z</time>
      </trkpt>
      <trkpt lat="48.78867" lon="2.47023">
        <ele>84.1</ele>
        <time>2015-04-27T19:26:37.938Z</time>
      </trkpt>
      <trkpt lat="48.78862" lon="2.47027">
        <ele>84.3</ele>
        <time>2015-04-27T19:26:39.018Z</time>
      </trkpt>
      <trkpt lat="48.78858" lon="2.47031">
        <ele>84.4</ele>
        <time>2015-04-27T19:26:40.034Z</time>
      </trkpt>
      <trkpt lat="48.78854" lon="2.47035">
        <ele>84.3</ele>
        <time>2015-04-27T19:26:40.953Z</time>
      </trkpt>
      <trkpt lat="48.78849" lon="2.4704">
        <ele>84.1</ele>
        <time>2015-04-27T19:26:41.967Z</time>
      </trkpt>
      <trkpt lat="48.78843" lon="2.47046">
        <ele>84.1</ele>
        <time>2015-04-27T19:26:42.968Z</time>
      </trkpt>
      <trkpt lat="48.78838" lon="2.47049">
        <ele>83.8</ele>
        <time>2015-04-27T19:26:43.975Z</time>
      </trkpt>
      <trkpt lat="48.78833" lon="2.47053">
        <ele>83.9</ele>
        <time>2015-04-27T19:26:44.991Z</time>
      </trkpt>
      <trkpt lat="48.78829" lon="2.47057">
        <ele>83.9</ele>
        <time>2015-04-27T19:26:46.006Z</time>
      </trkpt>
      <trkpt lat="48.78824" lon="2.47061">
        <ele>84.2</ele>
        <time>2015-04-27T19:26:47.019Z</time>
      </trkpt>
      <trkpt lat="48.78819" lon="2.47066">
        <ele>83.5</ele>
        <time>2015-04-27T19:26:47.937Z</time>
      </trkpt>
      <trkpt lat="48.78814" lon="2.47071">
        <ele>83.6</ele>
        <time>2015-04-27T19:26:48.967Z</time>
      </trkpt>
      <trkpt lat="48.78809" lon="2.47076">
        <ele>83.7</ele>
        <time>2015-04-27T19:26:49.980Z</time>
      </trkpt>
      <trkpt lat="48.78806" lon="2.47082">
        <ele>83.6</ele>
        <time>2015-04-27T19:26:51.042Z</time>
      </trkpt>
      <trkpt lat="48.78803" lon="2.47086">
        <ele>83.5</ele>
        <time>2015-04-27T19:26:52.007Z</time>
      </trkpt>
      <trkpt lat="48.78799" lon="2.47091">
        <ele>83.6</ele>
        <time>2015-04-27T19:26:53.046Z</time>
      </trkpt>
      <trkpt lat="48.78794" lon="2.47097">
        <ele>83.8</ele>
        <time>2015-04-27T19:26:53.929Z</time>
      </trkpt>
      <trkpt lat="48.78787" lon="2.47106">
        <ele>83.1</ele>
        <time>2015-04-27T19:26:54.956Z</time>
      </trkpt>
      <trkpt lat="48.7878" lon="2.47115">
        <ele>82.9</ele>
        <time>2015-04-27T19:26:55.969Z</time>
      </trkpt>
      <trkpt lat="48.78775" lon="2.47121">
        <ele>82.4</ele>
        <time>2015-04-27T19:26:57.011Z</time>
      </trkpt>
      <trkpt lat="48.7877" lon="2.47129">
        <ele>82.4</ele>
        <time>2015-04-27T19:26:58.017Z</time>
      </trkpt>
      <trkpt lat="48.78764" lon="2.47136">
        <ele>82.8</ele>
        <time>2015-04-27T19:26:59.034Z</time>
      </trkpt>
      <trkpt lat="48.78759" lon="2.47142">
        <ele>82.7</ele>
        <time>2015-04-27T19:26:59.930Z</time>
      </trkpt>
      <trkpt lat="48.78755" lon="2.47147">
        <ele>83.3</ele>
        <time>2015-04-27T19:27:01.129Z</time>
      </trkpt>
      <trkpt lat="48.78752" lon="2.47152">
        <ele>83.7</ele>
        <time>2015-04-27T19:27:01.999Z</time>
      </trkpt>
      <trkpt lat="48.78748" lon="2.47158">
        <ele>84.2</ele>
        <time>2015-04-27T19:27:03.013Z</time>
      </trkpt>
      <trkpt lat="48.78745" lon="2.47164">
        <ele>84.8</ele>
        <time>2015-04-27T19:27:04.021Z</time>
      </trkpt>
      <trkpt lat="48.78741" lon="2.47171">
        <ele>85.8</ele>
        <time>2015-04-27T19:27:05.030Z</time>
      </trkpt>
      <trkpt lat="48.78738" lon="2.47177">
        <ele>85.9</ele>
        <time>2015-04-27T19:27:06.049Z</time>
      </trkpt>
      <trkpt lat="48.78735" lon="2.47183">
        <ele>86.1</ele>
        <time>2015-04-27T19:27:06.972Z</time>
      </trkpt>
      <trkpt lat="48.78733" lon="2.47188">
        <ele>86.1</ele>
        <time>2015-04-27T19:27:07.973Z</time>
      </trkpt>
      <trkpt lat="48.78728" lon="2.47198">
        <ele>86.2</ele>
        <time>2015-04-27T19:27:09.930Z</time>
      </trkpt>
      <trkpt lat="48.78725" lon="2.47203">
        <ele>86.3</ele>
        <time>2015-04-27T19:27:10.957Z</time>
      </trkpt>
      <trkpt lat="48.78722" lon="2.47212">
        <ele>86</ele>
        <time>2015-04-27T19:27:13.022Z</time>
      </trkpt>
      <trkpt lat="48.7872" lon="2.47218">
        <ele>86.1</ele>
        <time>2015-04-27T19:27:14.029Z</time>
      </trkpt>
      <trkpt lat="48.78716" lon="2.47227">
        <ele>86.4</ele>
        <time>2015-04-27T19:27:16.510Z</time>
      </trkpt>
      <trkpt lat="48.78713" lon="2.47231">
        <ele>86.4</ele>
        <time>2015-04-27T19:27:16.960Z</time>
      </trkpt>
      <trkpt lat="48.7871" lon="2.47239">
        <ele>86.6</ele>
        <time>2015-04-27T19:27:18.970Z</time>
      </trkpt>
      <trkpt lat="48.78709" lon="2.47245">
        <ele>86.8</ele>
        <time>2015-04-27T19:27:19.981Z</time>
      </trkpt>
      <trkpt lat="48.78707" lon="2.47255">
        <ele>87</ele>
        <time>2015-04-27T19:27:22.034Z</time>
      </trkpt>
      <trkpt lat="48.78706" lon="2.4726">
        <ele>87.2</ele>
        <time>2015-04-27T19:27:23.044Z</time>
      </trkpt>
      <trkpt lat="48.78703" lon="2.47271">
        <ele>88.1</ele>
        <time>2015-04-27T19:27:26.709Z</time>
      </trkpt>
      <trkpt lat="48.78701" lon="2.47273">
        <ele>88.4</ele>
        <time>2015-04-27T19:27:26.972Z</time>
      </trkpt>
      <trkpt lat="48.78701" lon="2.47273">
        <ele>88.4</ele>
        <time>2015-04-27T19:27:57.985Z</time>
      </trkpt>
      <trkpt lat="48.787" lon="2.47296">
        <ele>96.4</ele>
        <time>2015-04-27T19:27:59.025Z</time>
      </trkpt>
      <trkpt lat="48.78699" lon="2.47302">
        <ele>97</ele>
        <time>2015-04-27T19:28:04.947Z</time>
      </trkpt>
      <trkpt lat="48.78693" lon="2.47311">
        <ele>96.9</ele>
        <time>2015-04-27T19:28:05.964Z</time>
      </trkpt>
      <trkpt lat="48.78686" lon="2.47318">
        <ele>96.9</ele>
        <time>2015-04-27T19:28:09.030Z</time>
      </trkpt>
      <trkpt lat="48.78684" lon="2.4732">
        <ele>97.2</ele>
        <time>2015-04-27T19:28:10.040Z</time>
      </trkpt>
      <trkpt lat="48.78679" lon="2.47325">
        <ele>97.7</ele>
        <time>2015-04-27T19:28:11.980Z</time>
      </trkpt>
      <trkpt lat="48.78676" lon="2.47329">
        <ele>98</ele>
        <time>2015-04-27T19:28:13.010Z</time>
      </trkpt>
      <trkpt lat="48.78671" lon="2.47334">
        <ele>98.8</ele>
        <time>2015-04-27T19:28:14.983Z</time>
      </trkpt>
      <trkpt lat="48.78667" lon="2.47335">
        <ele>98.2</ele>
        <time>2015-04-27T19:28:15.995Z</time>
      </trkpt>
      <trkpt lat="48.78661" lon="2.47337">
        <ele>97.8</ele>
        <time>2015-04-27T19:28:18.006Z</time>
      </trkpt>
      <trkpt lat="48.78657" lon="2.4734">
        <ele>97.8</ele>
        <time>2015-04-27T19:28:19.017Z</time>
      </trkpt>
      <trkpt lat="48.7865" lon="2.47344">
        <ele>97.2</ele>
        <time>2015-04-27T19:28:21.572Z</time>
      </trkpt>
      <trkpt lat="48.78646" lon="2.47347">
        <ele>96.9</ele>
        <time>2015-04-27T19:28:21.964Z</time>
      </trkpt>
      <trkpt lat="48.78639" lon="2.4735">
        <ele>96.5</ele>
        <time>2015-04-27T19:28:23.958Z</time>
      </trkpt>
      <trkpt lat="48.78636" lon="2.47351">
        <ele>96.6</ele>
        <time>2015-04-27T19:28:24.984Z</time>
      </trkpt>
      <trkpt lat="48.7863" lon="2.47354">
        <ele>96.1</ele>
        <time>2015-04-27T19:28:27.021Z</time>
      </trkpt>
      <trkpt lat="48.78626" lon="2.47356">
        <ele>95.9</ele>
        <time>2015-04-27T19:28:28.015Z</time>
      </trkpt>
      <trkpt lat="48.78619" lon="2.47359">
        <ele>95.2</ele>
        <time>2015-04-27T19:28:29.963Z</time>
      </trkpt>
      <trkpt lat="48.78615" lon="2.4736">
        <ele>95</ele>
        <time>2015-04-27T19:28:30.980Z</time>
      </trkpt>
      <trkpt lat="48.78608" lon="2.47363">
        <ele>94.6</ele>
        <time>2015-04-27T19:28:33.009Z</time>
      </trkpt>
      <trkpt lat="48.78604" lon="2.47365">
        <ele>94.3</ele>
        <time>2015-04-27T19:28:34.020Z</time>
      </trkpt>
      <trkpt lat="48.78597" lon="2.47369">
        <ele>93.9</ele>
        <time>2015-04-27T19:28:36.026Z</time>
      </trkpt>
      <trkpt lat="48.78593" lon="2.4737">
        <ele>93.9</ele>
        <time>2015-04-27T19:28:37.040Z</time>
      </trkpt>
      <trkpt lat="48.78586" lon="2.47367">
        <ele>93.3</ele>
        <time>2015-04-27T19:28:38.976Z</time>
      </trkpt>
      <trkpt lat="48.78584" lon="2.47363">
        <ele>93.3</ele>
        <time>2015-04-27T19:28:40.016Z</time>
      </trkpt>
      <trkpt lat="48.78579" lon="2.47355">
        <ele>92.8</ele>
        <time>2015-04-27T19:28:42.036Z</time>
      </trkpt>
      <trkpt lat="48.78577" lon="2.47351">
        <ele>92.4</ele>
        <time>2015-04-27T19:28:43.047Z</time>
      </trkpt>
      <trkpt lat="48.78573" lon="2.47343">
        <ele>91.7</ele>
        <time>2015-04-27T19:28:45.872Z</time>
      </trkpt>
      <trkpt lat="48.78571" lon="2.4734">
        <ele>91.6</ele>
        <time>2015-04-27T19:28:45.951Z</time>
      </trkpt>
      <trkpt lat="48.78567" lon="2.47332">
        <ele>91.8</ele>
        <time>2015-04-27T19:28:47.977Z</time>
      </trkpt>
      <trkpt lat="48.78565" lon="2.47329">
        <ele>92</ele>
        <time>2015-04-27T19:28:49.007Z</time>
      </trkpt>
      <trkpt lat="48.78559" lon="2.47319">
        <ele>92.4</ele>
        <time>2015-04-27T19:28:51.981Z</time>
      </trkpt>
      <trkpt lat="48.78557" lon="2.47315">
        <ele>92.7</ele>
        <time>2015-04-27T19:28:52.996Z</time>
      </trkpt>
      <trkpt lat="48.78555" lon="2.4731">
        <ele>91.8</ele>
        <time>2015-04-27T19:30:31.207Z</time>
      </trkpt>
      <trkpt lat="48.78545" lon="2.47287">
        <ele>93.6</ele>
        <time>2015-04-27T19:30:32.007Z</time>
      </trkpt>
      <trkpt lat="48.7854" lon="2.47278">
        <ele>92.5</ele>
        <time>2015-04-27T19:30:36.948Z</time>
      </trkpt>
      <trkpt lat="48.78539" lon="2.47277">
        <ele>92.4</ele>
        <time>2015-04-27T19:30:37.969Z</time>
      </trkpt>
      <trkpt lat="48.78533" lon="2.47268">
        <ele>92.4</ele>
        <time>2015-04-27T19:30:40.961Z</time>
      </trkpt>
      <trkpt lat="48.78533" lon="2.47265">
        <ele>92.3</ele>
        <time>2015-04-27T19:30:41.968Z</time>
      </trkpt>
      <trkpt lat="48.78531" lon="2.47256">
        <ele>93.3</ele>
        <time>2015-04-27T19:31:09.021Z</time>
      </trkpt>
      <trkpt lat="48.78506" lon="2.47217">
        <ele>97.6</ele>
        <time>2015-04-27T19:31:10.004Z</time>
      </trkpt>
      <trkpt lat="48.78505" lon="2.47216">
        <ele>97.8</ele>
        <time>2015-04-27T19:36:03.044Z</time>
      </trkpt>
      <trkpt lat="48.78496" lon="2.47228">
        <ele>104.5</ele>
        <time>2015-04-27T19:36:04.071Z</time>
      </trkpt>
      <trkpt lat="48.78491" lon="2.47239">
        <ele>103.8</ele>
        <time>2015-04-27T19:36:08.017Z</time>
      </trkpt>
      <trkpt lat="48.7849" lon="2.47242">
        <ele>103.6</ele>
        <time>2015-04-27T19:36:09.139Z</time>
      </trkpt>
      <trkpt lat="48.78486" lon="2.4725">
        <ele>103.3</ele>
        <time>2015-04-27T19:36:11.180Z</time>
      </trkpt>
      <trkpt lat="48.78484" lon="2.47254">
        <ele>103</ele>
        <time>2015-04-27T19:36:12.094Z</time>
      </trkpt>
      <trkpt lat="48.7848" lon="2.47262">
        <ele>102.6</ele>
        <time>2015-04-27T19:36:13.961Z</time>
      </trkpt>
      <trkpt lat="48.78478" lon="2.47266">
        <ele>102.5</ele>
        <time>2015-04-27T19:36:14.976Z</time>
      </trkpt>
      <trkpt lat="48.78473" lon="2.47274">
        <ele>102.3</ele>
        <time>2015-04-27T19:36:16.999Z</time>
      </trkpt>
      <trkpt lat="48.78471" lon="2.47278">
        <ele>102.2</ele>
        <time>2015-04-27T19:36:18.004Z</time>
      </trkpt>
      <trkpt lat="48.78467" lon="2.47286">
        <ele>101.7</ele>
        <time>2015-04-27T19:36:19.963Z</time>
      </trkpt>
      <trkpt lat="48.78464" lon="2.4729">
        <ele>101.5</ele>
        <time>2015-04-27T19:36:21.059Z</time>
      </trkpt>
      <trkpt lat="48.7846" lon="2.47298">
        <ele>101.1</ele>
        <time>2015-04-27T19:36:22.985Z</time>
      </trkpt>
      <trkpt lat="48.78458" lon="2.47303">
        <ele>100.8</ele>
        <time>2015-04-27T19:36:24Z</time>
      </trkpt>
      <trkpt lat="48.78454" lon="2.47313">
        <ele>99.4</ele>
        <time>2015-04-27T19:36:25.940Z</time>
      </trkpt>
      <trkpt lat="48.78452" lon="2.47317">
        <ele>99</ele>
        <time>2015-04-27T19:36:27.025Z</time>
      </trkpt>
      <trkpt lat="48.78448" lon="2.47324">
        <ele>97.6</ele>
        <time>2015-04-27T19:36:28.955Z</time>
      </trkpt>
      <trkpt lat="48.78446" lon="2.47328">
        <ele>97.4</ele>
        <time>2015-04-27T19:36:29.957Z</time>
      </trkpt>
      <trkpt lat="48.7844" lon="2.47338">
        <ele>96.7</ele>
        <time>2015-04-27T19:36:32.050Z</time>
      </trkpt>
      <trkpt lat="48.78438" lon="2.47343">
        <ele>96.1</ele>
        <time>2015-04-27T19:36:33.059Z</time>
      </trkpt>
      <trkpt lat="48.78433" lon="2.47353">
        <ele>95.6</ele>
        <time>2015-04-27T19:36:34.973Z</time>
      </trkpt>
      <trkpt lat="48.7843" lon="2.47359">
        <ele>95.3</ele>
        <time>2015-04-27T19:36:36.026Z</time>
      </trkpt>
      <trkpt lat="48.78427" lon="2.47365">
        <ele>95.2</ele>
        <time>2015-04-27T19:36:36.916Z</time>
      </trkpt>
      <trkpt lat="48.78424" lon="2.47371">
        <ele>94.6</ele>
        <time>2015-04-27T19:36:37.949Z</time>
      </trkpt>
      <trkpt lat="48.7842" lon="2.47377">
        <ele>94.5</ele>
        <time>2015-04-27T19:36:38.982Z</time>
      </trkpt>
      <trkpt lat="48.78417" lon="2.47385">
        <ele>94.3</ele>
        <time>2015-04-27T19:36:40.002Z</time>
      </trkpt>
      <trkpt lat="48.78414" lon="2.47393">
        <ele>93.5</ele>
        <time>2015-04-27T19:36:40.948Z</time>
      </trkpt>
      <trkpt lat="48.78411" lon="2.47399">
        <ele>93.1</ele>
        <time>2015-04-27T19:36:41.948Z</time>
      </trkpt>
      <trkpt lat="48.78408" lon="2.47405">
        <ele>92.7</ele>
        <time>2015-04-27T19:36:42.967Z</time>
      </trkpt>
      <trkpt lat="48.78404" lon="2.47411">
        <ele>92.7</ele>
        <time>2015-04-27T19:36:43.981Z</time>
      </trkpt>
      <trkpt lat="48.78401" lon="2.47417">
        <ele>92.5</ele>
        <time>2015-04-27T19:36:44.997Z</time>
      </trkpt>
      <trkpt lat="48.78397" lon="2.47424">
        <ele>92.3</ele>
        <time>2015-04-27T19:36:46.011Z</time>
      </trkpt>
      <trkpt lat="48.78393" lon="2.47429">
        <ele>92.1</ele>
        <time>2015-04-27T19:36:46.945Z</time>
      </trkpt>
      <trkpt lat="48.78389" lon="2.47434">
        <ele>91.8</ele>
        <time>2015-04-27T19:36:47.941Z</time>
      </trkpt>
      <trkpt lat="48.78381" lon="2.47439">
        <ele>91.1</ele>
        <time>2015-04-27T19:36:50.023Z</time>
      </trkpt>
      <trkpt lat="48.78377" lon="2.47441">
        <ele>90.9</ele>
        <time>2015-04-27T19:36:50.962Z</time>
      </trkpt>
      <trkpt lat="48.78368" lon="2.47443">
        <ele>91</ele>
        <time>2015-04-27T19:36:52.998Z</time>
      </trkpt>
      <trkpt lat="48.78364" lon="2.47443">
        <ele>90.7</ele>
        <time>2015-04-27T19:36:54.005Z</time>
      </trkpt>
      <trkpt lat="48.78356" lon="2.47442">
        <ele>90.4</ele>
        <time>2015-04-27T19:36:56.012Z</time>
      </trkpt>
      <trkpt lat="48.78353" lon="2.47442">
        <ele>90.4</ele>
        <time>2015-04-27T19:36:57.024Z</time>
      </trkpt>
      <trkpt lat="48.78345" lon="2.47443">
        <ele>89.6</ele>
        <time>2015-04-27T19:36:59.040Z</time>
      </trkpt>
      <trkpt lat="48.78342" lon="2.47444">
        <ele>89.2</ele>
        <time>2015-04-27T19:37:00.057Z</time>
      </trkpt>
      <trkpt lat="48.78334" lon="2.47445">
        <ele>89.9</ele>
        <time>2015-04-27T19:37:03.032Z</time>
      </trkpt>
      <trkpt lat="48.78332" lon="2.47447">
        <ele>90.6</ele>
        <time>2015-04-27T19:37:03.984Z</time>
      </trkpt>
      <trkpt lat="48.78331" lon="2.47448">
        <ele>90.8</ele>
        <time>2015-04-27T19:37:13.997Z</time>
      </trkpt>
      <trkpt lat="48.78325" lon="2.47456">
        <ele>92.4</ele>
        <time>2015-04-27T19:37:15.015Z</time>
      </trkpt>
      <trkpt lat="48.78318" lon="2.47463">
        <ele>92</ele>
        <time>2015-04-27T19:37:19.059Z</time>
      </trkpt>
      <trkpt lat="48.78315" lon="2.47465">
        <ele>91.6</ele>
        <time>2015-04-27T19:37:19.958Z</time>
      </trkpt>
      <trkpt lat="48.78309" lon="2.47471">
        <ele>91.2</ele>
        <time>2015-04-27T19:37:22.119Z</time>
      </trkpt>
      <trkpt lat="48.78306" lon="2.47474">
        <ele>90.8</ele>
        <time>2015-04-27T19:37:22.969Z</time>
      </trkpt>
      <trkpt lat="48.78299" lon="2.4748">
        <ele>90.8</ele>
        <time>2015-04-27T19:37:24.944Z</time>
      </trkpt>
      <trkpt lat="48.78295" lon="2.47483">
        <ele>90.8</ele>
        <time>2015-04-27T19:37:25.969Z</time>
      </trkpt>
      <trkpt lat="48.78291" lon="2.47487">
        <ele>90.2</ele>
        <time>2015-04-27T19:37:27.029Z</time>
      </trkpt>
      <trkpt lat="48.78287" lon="2.47491">
        <ele>90.2</ele>
        <time>2015-04-27T19:37:28.027Z</time>
      </trkpt>
      <trkpt lat="48.7828" lon="2.47497">
        <ele>89.9</ele>
        <time>2015-04-27T19:37:29.943Z</time>
      </trkpt>
      <trkpt lat="48.78276" lon="2.47501">
        <ele>90</ele>
        <time>2015-04-27T19:37:30.963Z</time>
      </trkpt>
      <trkpt lat="48.78269" lon="2.47507">
        <ele>89.5</ele>
        <time>2015-04-27T19:37:32.990Z</time>
      </trkpt>
      <trkpt lat="48.78265" lon="2.47511">
        <ele>89.3</ele>
        <time>2015-04-27T19:37:33.948Z</time>
      </trkpt>
      <trkpt lat="48.78258" lon="2.47516">
        <ele>89</ele>
        <time>2015-04-27T19:37:36.011Z</time>
      </trkpt>
      <trkpt lat="48.78254" lon="2.47519">
        <ele>88.9</ele>
        <time>2015-04-27T19:37:36.961Z</time>
      </trkpt>
      <trkpt lat="48.78248" lon="2.47526">
        <ele>88.6</ele>
        <time>2015-04-27T19:37:38.990Z</time>
      </trkpt>
      <trkpt lat="48.78244" lon="2.47531">
        <ele>88.4</ele>
        <time>2015-04-27T19:37:40Z</time>
      </trkpt>
      <trkpt lat="48.78241" lon="2.47535">
        <ele>88.1</ele>
        <time>2015-04-27T19:37:40.939Z</time>
      </trkpt>
      <trkpt lat="48.78236" lon="2.47539">
        <ele>87.9</ele>
        <time>2015-04-27T19:37:41.939Z</time>
      </trkpt>
      <trkpt lat="48.7823" lon="2.47543">
        <ele>87.4</ele>
        <time>2015-04-27T19:37:43.983Z</time>
      </trkpt>
      <trkpt lat="48.78227" lon="2.47545">
        <ele>87.5</ele>
        <time>2015-04-27T19:37:44.992Z</time>
      </trkpt>
      <trkpt lat="48.7822" lon="2.47551">
        <ele>87.4</ele>
        <time>2015-04-27T19:37:47.916Z</time>
      </trkpt>
      <trkpt lat="48.78218" lon="2.47553">
        <ele>87</ele>
        <time>2015-04-27T19:37:48.971Z</time>
      </trkpt>
      <trkpt lat="48.78212" lon="2.47559">
        <ele>87.1</ele>
        <time>2015-04-27T19:37:51.033Z</time>
      </trkpt>
      <trkpt lat="48.78207" lon="2.47561">
        <ele>86.9</ele>
        <time>2015-04-27T19:37:51.927Z</time>
      </trkpt>
      <trkpt lat="48.782" lon="2.47567">
        <ele>87</ele>
        <time>2015-04-27T19:37:53.943Z</time>
      </trkpt>
      <trkpt lat="48.78196" lon="2.47571">
        <ele>86.9</ele>
        <time>2015-04-27T19:37:54.940Z</time>
      </trkpt>
      <trkpt lat="48.78192" lon="2.47575">
        <ele>87</ele>
        <time>2015-04-27T19:37:55.946Z</time>
      </trkpt>
      <trkpt lat="48.78188" lon="2.4758">
        <ele>86.6</ele>
        <time>2015-04-27T19:37:56.984Z</time>
      </trkpt>
      <trkpt lat="48.7818" lon="2.47587">
        <ele>86.4</ele>
        <time>2015-04-27T19:37:58.941Z</time>
      </trkpt>
      <trkpt lat="48.78175" lon="2.47591">
        <ele>85.9</ele>
        <time>2015-04-27T19:37:59.985Z</time>
      </trkpt>
      <trkpt lat="48.78168" lon="2.47597">
        <ele>85.7</ele>
        <time>2015-04-27T19:38:02.022Z</time>
      </trkpt>
      <trkpt lat="48.78165" lon="2.47599">
        <ele>85.6</ele>
        <time>2015-04-27T19:38:03.068Z</time>
      </trkpt>
      <trkpt lat="48.78159" lon="2.47604">
        <ele>85.1</ele>
        <time>2015-04-27T19:38:04.951Z</time>
      </trkpt>
      <trkpt lat="48.78155" lon="2.47607">
        <ele>85</ele>
        <time>2015-04-27T19:38:05.940Z</time>
      </trkpt>
      <trkpt lat="48.78148" lon="2.47613">
        <ele>85.1</ele>
        <time>2015-04-27T19:38:07.944Z</time>
      </trkpt>
      <trkpt lat="48.78145" lon="2.47617">
        <ele>85.1</ele>
        <time>2015-04-27T19:38:09.008Z</time>
      </trkpt>
      <trkpt lat="48.7814" lon="2.47622">
        <ele>85.3</ele>
        <time>2015-04-27T19:38:10.942Z</time>
      </trkpt>
      <trkpt lat="48.78136" lon="2.47626">
        <ele>85.8</ele>
        <time>2015-04-27T19:38:11.987Z</time>
      </trkpt>
      <trkpt lat="48.78128" lon="2.47633">
        <ele>86.7</ele>
        <time>2015-04-27T19:38:15.129Z</time>
      </trkpt>
      <trkpt lat="48.78127" lon="2.47634">
        <ele>86.6</ele>
        <time>2015-04-27T19:38:15.979Z</time>
      </trkpt>
      <trkpt lat="48.78133" lon="2.47628">
        <ele>88.3</ele>
        <time>2015-04-27T19:38:32.982Z</time>
      </trkpt>
      <trkpt lat="48.78135" lon="2.47626">
        <ele>88.4</ele>
        <time>2015-04-27T19:38:34.112Z</time>
      </trkpt>
      <trkpt lat="48.78142" lon="2.47621">
        <ele>88.6</ele>
        <time>2015-04-27T19:38:36.996Z</time>
      </trkpt>
      <trkpt lat="48.78145" lon="2.47619">
        <ele>88.7</ele>
        <time>2015-04-27T19:38:38.007Z</time>
      </trkpt>
      <trkpt lat="48.78151" lon="2.47615">
        <ele>88.7</ele>
        <time>2015-04-27T19:38:39.931Z</time>
      </trkpt>
      <trkpt lat="48.78154" lon="2.47613">
        <ele>88.9</ele>
        <time>2015-04-27T19:38:40.947Z</time>
      </trkpt>
      <trkpt lat="48.7816" lon="2.47607">
        <ele>88.9</ele>
        <time>2015-04-27T19:38:42.947Z</time>
      </trkpt>
      <trkpt lat="48.78162" lon="2.47603">
        <ele>88.8</ele>
        <time>2015-04-27T19:38:43.961Z</time>
      </trkpt>
      <trkpt lat="48.78167" lon="2.47598">
        <ele>89</ele>
        <time>2015-04-27T19:38:45.966Z</time>
      </trkpt>
      <trkpt lat="48.78169" lon="2.47594">
        <ele>89.1</ele>
        <time>2015-04-27T19:38:46.947Z</time>
      </trkpt>
      <trkpt lat="48.78175" lon="2.47585">
        <ele>89.4</ele>
        <time>2015-04-27T19:38:50.018Z</time>
      </trkpt>
      <trkpt lat="48.78178" lon="2.47582">
        <ele>89.5</ele>
        <time>2015-04-27T19:38:51.320Z</time>
      </trkpt>
      <trkpt lat="48.78183" lon="2.47579">
        <ele>90.2</ele>
        <time>2015-04-27T19:38:52.927Z</time>
      </trkpt>
      <trkpt lat="48.78186" lon="2.47577">
        <ele>90.1</ele>
        <time>2015-04-27T19:38:54.009Z</time>
      </trkpt>
      <trkpt lat="48.78193" lon="2.47573">
        <ele>90.1</ele>
        <time>2015-04-27T19:38:55.954Z</time>
      </trkpt>
      <trkpt lat="48.78196" lon="2.47571">
        <ele>90.3</ele>
        <time>2015-04-27T19:38:56.961Z</time>
      </trkpt>
      <trkpt lat="48.78201" lon="2.47566">
        <ele>90.6</ele>
        <time>2015-04-27T19:38:59.022Z</time>
      </trkpt>
      <trkpt lat="48.78204" lon="2.47562">
        <ele>90.6</ele>
        <time>2015-04-27T19:38:59.929Z</time>
      </trkpt>
      <trkpt lat="48.78212" lon="2.47558">
        <ele>90.4</ele>
        <time>2015-04-27T19:39:01.954Z</time>
      </trkpt>
      <trkpt lat="48.78216" lon="2.47555">
        <ele>90.5</ele>
        <time>2015-04-27T19:39:03.309Z</time>
      </trkpt>
      <trkpt lat="48.7822" lon="2.47551">
        <ele>90.4</ele>
        <time>2015-04-27T19:39:03.976Z</time>
      </trkpt>
      <trkpt lat="48.78224" lon="2.47547">
        <ele>90.3</ele>
        <time>2015-04-27T19:39:04.985Z</time>
      </trkpt>
      <trkpt lat="48.78231" lon="2.4754">
        <ele>89.8</ele>
        <time>2015-04-27T19:39:06.918Z</time>
      </trkpt>
      <trkpt lat="48.78234" lon="2.47537">
        <ele>89.7</ele>
        <time>2015-04-27T19:39:07.926Z</time>
      </trkpt>
      <trkpt lat="48.78239" lon="2.4753">
        <ele>89.8</ele>
        <time>2015-04-27T19:39:10.024Z</time>
      </trkpt>
      <trkpt lat="48.78242" lon="2.47526">
        <ele>90.1</ele>
        <time>2015-04-27T19:39:10.942Z</time>
      </trkpt>
      <trkpt lat="48.78248" lon="2.4752">
        <ele>90.4</ele>
        <time>2015-04-27T19:39:12.956Z</time>
      </trkpt>
      <trkpt lat="48.78251" lon="2.47518">
        <ele>90.4</ele>
        <time>2015-04-27T19:39:13.944Z</time>
      </trkpt>
      <trkpt lat="48.78257" lon="2.47513">
        <ele>90.4</ele>
        <time>2015-04-27T19:39:16.011Z</time>
      </trkpt>
      <trkpt lat="48.7826" lon="2.4751">
        <ele>90.6</ele>
        <time>2015-04-27T19:39:16.932Z</time>
      </trkpt>
      <trkpt lat="48.78267" lon="2.47504">
        <ele>90.3</ele>
        <time>2015-04-27T19:39:19.002Z</time>
      </trkpt>
      <trkpt lat="48.78271" lon="2.47501">
        <ele>90.3</ele>
        <time>2015-04-27T19:39:20.015Z</time>
      </trkpt>
      <trkpt lat="48.78278" lon="2.47495">
        <ele>90.9</ele>
        <time>2015-04-27T19:39:22.689Z</time>
      </trkpt>
      <trkpt lat="48.78281" lon="2.47493">
        <ele>91</ele>
        <time>2015-04-27T19:39:22.962Z</time>
      </trkpt>
      <trkpt lat="48.78287" lon="2.47485">
        <ele>92.2</ele>
        <time>2015-04-27T19:39:24.985Z</time>
      </trkpt>
      <trkpt lat="48.7829" lon="2.47482">
        <ele>92.5</ele>
        <time>2015-04-27T19:39:26.012Z</time>
      </trkpt>
      <trkpt lat="48.78297" lon="2.47478">
        <ele>93.3</ele>
        <time>2015-04-27T19:39:27.925Z</time>
      </trkpt>
      <trkpt lat="48.783" lon="2.47475">
        <ele>93.3</ele>
        <time>2015-04-27T19:39:28.949Z</time>
      </trkpt>
      <trkpt lat="48.78306" lon="2.47469">
        <ele>93</ele>
        <time>2015-04-27T19:39:30.978Z</time>
      </trkpt>
      <trkpt lat="48.78308" lon="2.47466">
        <ele>92.7</ele>
        <time>2015-04-27T19:39:31.989Z</time>
      </trkpt>
      <trkpt lat="48.78315" lon="2.4746">
        <ele>93.2</ele>
        <time>2015-04-27T19:39:35.717Z</time>
      </trkpt>
      <trkpt lat="48.78318" lon="2.47458">
        <ele>93.2</ele>
        <time>2015-04-27T19:39:35.956Z</time>
      </trkpt>
      <trkpt lat="48.78324" lon="2.47449">
        <ele>93.5</ele>
        <time>2015-04-27T19:39:40.834Z</time>
      </trkpt>
      <trkpt lat="48.78324" lon="2.47447">
        <ele>93.4</ele>
        <time>2015-04-27T19:39:40.929Z</time>
      </trkpt>
      <trkpt lat="48.78323" lon="2.47438">
        <ele>93.9</ele>
        <time>2015-04-27T19:39:49.036Z</time>
      </trkpt>
      <trkpt lat="48.78315" lon="2.47437">
        <ele>94.7</ele>
        <time>2015-04-27T19:39:49.945Z</time>
      </trkpt>
      <trkpt lat="48.78307" lon="2.47436">
        <ele>95.5</ele>
        <time>2015-04-27T19:39:54.007Z</time>
      </trkpt>
      <trkpt lat="48.78304" lon="2.47436">
        <ele>95.5</ele>
        <time>2015-04-27T19:39:54.966Z</time>
      </trkpt>
      <trkpt lat="48.78297" lon="2.47437">
        <ele>95.5</ele>
        <time>2015-04-27T19:39:58.001Z</time>
      </trkpt>
      <trkpt lat="48.78294" lon="2.47438">
        <ele>96.1</ele>
        <time>2015-04-27T19:39:59.036Z</time>
      </trkpt>
      <trkpt lat="48.78286" lon="2.47442">
        <ele>97.1</ele>
        <time>2015-04-27T19:40:01.975Z</time>
      </trkpt>
      <trkpt lat="48.78283" lon="2.47442">
        <ele>97.3</ele>
        <time>2015-04-27T19:40:03.028Z</time>
      </trkpt>
      <trkpt lat="48.78276" lon="2.47444">
        <ele>97.4</ele>
        <time>2015-04-27T19:40:04.954Z</time>
      </trkpt>
      <trkpt lat="48.78273" lon="2.47445">
        <ele>97.5</ele>
        <time>2015-04-27T19:40:05.958Z</time>
      </trkpt>
      <trkpt lat="48.78265" lon="2.47448">
        <ele>97.6</ele>
        <time>2015-04-27T19:40:07.973Z</time>
      </trkpt>
      <trkpt lat="48.78262" lon="2.47449">
        <ele>98</ele>
        <time>2015-04-27T19:40:09.032Z</time>
      </trkpt>
      <trkpt lat="48.78254" lon="2.4745">
        <ele>97.4</ele>
        <time>2015-04-27T19:40:11.304Z</time>
      </trkpt>
      <trkpt lat="48.78251" lon="2.47452">
        <ele>97.4</ele>
        <time>2015-04-27T19:40:11.915Z</time>
      </trkpt>
      <trkpt lat="48.78245" lon="2.47455">
        <ele>97.6</ele>
        <time>2015-04-27T19:40:13.930Z</time>
      </trkpt>
      <trkpt lat="48.78243" lon="2.47456">
        <ele>97.3</ele>
        <time>2015-04-27T19:40:14.947Z</time>
      </trkpt>
      <trkpt lat="48.78235" lon="2.47459">
        <ele>97.2</ele>
        <time>2015-04-27T19:40:18.097Z</time>
      </trkpt>
      <trkpt lat="48.78232" lon="2.4746">
        <ele>97.5</ele>
        <time>2015-04-27T19:40:18.927Z</time>
      </trkpt>
      <trkpt lat="48.78225" lon="2.47464">
        <ele>98.9</ele>
        <time>2015-04-27T19:40:23.005Z</time>
      </trkpt>
      <trkpt lat="48.78222" lon="2.47463">
        <ele>99.2</ele>
        <time>2015-04-27T19:40:24.010Z</time>
      </trkpt>
      <trkpt lat="48.78216" lon="2.47456">
        <ele>99.8</ele>
        <time>2015-04-27T19:40:28.038Z</time>
      </trkpt>
      <trkpt lat="48.78214" lon="2.47453">
        <ele>99.8</ele>
        <time>2015-04-27T19:40:29.007Z</time>
      </trkpt>
      <trkpt lat="48.78209" lon="2.47443">
        <ele>101.3</ele>
        <time>2015-04-27T19:40:34.042Z</time>
      </trkpt>
      <trkpt lat="48.78208" lon="2.47441">
        <ele>101.3</ele>
        <time>2015-04-27T19:40:34.971Z</time>
      </trkpt>
      <trkpt lat="48.78206" lon="2.4743">
        <ele>102.2</ele>
        <time>2015-04-27T19:40:39.004Z</time>
      </trkpt>
      <trkpt lat="48.78205" lon="2.47426">
        <ele>102.2</ele>
        <time>2015-04-27T19:40:40.031Z</time>
      </trkpt>
      <trkpt lat="48.782" lon="2.47421">
        <ele>102.4</ele>
        <time>2015-04-27T19:44:05.934Z</time>
      </trkpt>
      <trkpt lat="48.78175" lon="2.47408">
        <ele>113.2</ele>
        <time>2015-04-27T19:44:06.946Z</time>
      </trkpt>
      <trkpt lat="48.78168" lon="2.47414">
        <ele>112.6</ele>
        <time>2015-04-27T19:44:09.977Z</time>
      </trkpt>
      <trkpt lat="48.78164" lon="2.47418">
        <ele>111.9</ele>
        <time>2015-04-27T19:44:10.987Z</time>
      </trkpt>
      <trkpt lat="48.78161" lon="2.47423">
        <ele>111.9</ele>
        <time>2015-04-27T19:44:11.900Z</time>
      </trkpt>
      <trkpt lat="48.78157" lon="2.47427">
        <ele>111.7</ele>
        <time>2015-04-27T19:44:12.955Z</time>
      </trkpt>
      <trkpt lat="48.78153" lon="2.47432">
        <ele>111.3</ele>
        <time>2015-04-27T19:44:13.942Z</time>
      </trkpt>
      <trkpt lat="48.7815" lon="2.47437">
        <ele>110.5</ele>
        <time>2015-04-27T19:44:14.981Z</time>
      </trkpt>
      <trkpt lat="48.78147" lon="2.47441">
        <ele>109.7</ele>
        <time>2015-04-27T19:44:15.968Z</time>
      </trkpt>
      <trkpt lat="48.78143" lon="2.47445">
        <ele>109.4</ele>
        <time>2015-04-27T19:44:16.987Z</time>
      </trkpt>
      <trkpt lat="48.78139" lon="2.4745">
        <ele>108.8</ele>
        <time>2015-04-27T19:44:18.053Z</time>
      </trkpt>
      <trkpt lat="48.78135" lon="2.47453">
        <ele>108.5</ele>
        <time>2015-04-27T19:44:19.024Z</time>
      </trkpt>
      <trkpt lat="48.78127" lon="2.47461">
        <ele>108.1</ele>
        <time>2015-04-27T19:44:21.048Z</time>
      </trkpt>
      <trkpt lat="48.78123" lon="2.47464">
        <ele>108.3</ele>
        <time>2015-04-27T19:44:21.968Z</time>
      </trkpt>
      <trkpt lat="48.78119" lon="2.47468">
        <ele>108.6</ele>
        <time>2015-04-27T19:44:23.073Z</time>
      </trkpt>
      <trkpt lat="48.78115" lon="2.47472">
        <ele>108.6</ele>
        <time>2015-04-27T19:44:24Z</time>
      </trkpt>
      <trkpt lat="48.78108" lon="2.47479">
        <ele>108.7</ele>
        <time>2015-04-27T19:44:26.019Z</time>
      </trkpt>
      <trkpt lat="48.78105" lon="2.47482">
        <ele>108.5</ele>
        <time>2015-04-27T19:44:27.042Z</time>
      </trkpt>
      <trkpt lat="48.78098" lon="2.4749">
        <ele>108.2</ele>
        <time>2015-04-27T19:44:28.999Z</time>
      </trkpt>
      <trkpt lat="48.78094" lon="2.47494">
        <ele>108.1</ele>
        <time>2015-04-27T19:44:30.017Z</time>
      </trkpt>
      <trkpt lat="48.7809" lon="2.47498">
        <ele>108.3</ele>
        <time>2015-04-27T19:44:31.025Z</time>
      </trkpt>
      <trkpt lat="48.78086" lon="2.47501">
        <ele>108.1</ele>
        <time>2015-04-27T19:44:32.054Z</time>
      </trkpt>
      <trkpt lat="48.78079" lon="2.47509">
        <ele>108.1</ele>
        <time>2015-04-27T19:44:34.003Z</time>
      </trkpt>
      <trkpt lat="48.78075" lon="2.47513">
        <ele>108.2</ele>
        <time>2015-04-27T19:44:35.029Z</time>
      </trkpt>
      <trkpt lat="48.78068" lon="2.47521">
        <ele>108</ele>
        <time>2015-04-27T19:44:36.948Z</time>
      </trkpt>
      <trkpt lat="48.78064" lon="2.47525">
        <ele>108</ele>
        <time>2015-04-27T19:44:37.957Z</time>
      </trkpt>
      <trkpt lat="48.7806" lon="2.4753">
        <ele>107.8</ele>
        <time>2015-04-27T19:44:38.980Z</time>
      </trkpt>
      <trkpt lat="48.78056" lon="2.47534">
        <ele>107.5</ele>
        <time>2015-04-27T19:44:39.990Z</time>
      </trkpt>
      <trkpt lat="48.78052" lon="2.47539">
        <ele>107.4</ele>
        <time>2015-04-27T19:44:40.999Z</time>
      </trkpt>
      <trkpt lat="48.78047" lon="2.47544">
        <ele>107.6</ele>
        <time>2015-04-27T19:44:42.015Z</time>
      </trkpt>
      <trkpt lat="48.78043" lon="2.47548">
        <ele>107.8</ele>
        <time>2015-04-27T19:44:43.026Z</time>
      </trkpt>
      <trkpt lat="48.78039" lon="2.47553">
        <ele>108.4</ele>
        <time>2015-04-27T19:44:44.036Z</time>
      </trkpt>
      <trkpt lat="48.78035" lon="2.47557">
        <ele>108.7</ele>
        <time>2015-04-27T19:44:44.983Z</time>
      </trkpt>
      <trkpt lat="48.78031" lon="2.47561">
        <ele>108.7</ele>
        <time>2015-04-27T19:44:45.960Z</time>
      </trkpt>
      <trkpt lat="48.78028" lon="2.47564">
        <ele>108.5</ele>
        <time>2015-04-27T19:44:46.972Z</time>
      </trkpt>
      <trkpt lat="48.78023" lon="2.47567">
        <ele>108.6</ele>
        <time>2015-04-27T19:44:47.978Z</time>
      </trkpt>
      <trkpt lat="48.78019" lon="2.4757">
        <ele>108.7</ele>
        <time>2015-04-27T19:44:48.989Z</time>
      </trkpt>
      <trkpt lat="48.78014" lon="2.47573">
        <ele>108.6</ele>
        <time>2015-04-27T19:44:49.999Z</time>
      </trkpt>
      <trkpt lat="48.78006" lon="2.47579">
        <ele>108.4</ele>
        <time>2015-04-27T19:44:51.960Z</time>
      </trkpt>
      <trkpt lat="48.78003" lon="2.47584">
        <ele>108.3</ele>
        <time>2015-04-27T19:44:52.966Z</time>
      </trkpt>
      <trkpt lat="48.77999" lon="2.47588">
        <ele>108.1</ele>
        <time>2015-04-27T19:44:53.992Z</time>
      </trkpt>
      <trkpt lat="48.77996" lon="2.47593">
        <ele>108.1</ele>
        <time>2015-04-27T19:44:54.990Z</time>
      </trkpt>
      <trkpt lat="48.77992" lon="2.47597">
        <ele>107.8</ele>
        <time>2015-04-27T19:44:56.021Z</time>
      </trkpt>
      <trkpt lat="48.77989" lon="2.47602">
        <ele>107.8</ele>
        <time>2015-04-27T19:44:57.019Z</time>
      </trkpt>
      <trkpt lat="48.77985" lon="2.47606">
        <ele>107.6</ele>
        <time>2015-04-27T19:44:58.031Z</time>
      </trkpt>
      <trkpt lat="48.77981" lon="2.47609">
        <ele>107.5</ele>
        <time>2015-04-27T19:44:58.943Z</time>
      </trkpt>
      <trkpt lat="48.77973" lon="2.47616">
        <ele>107.5</ele>
        <time>2015-04-27T19:45:00.969Z</time>
      </trkpt>
      <trkpt lat="48.77969" lon="2.4762">
        <ele>107.4</ele>
        <time>2015-04-27T19:45:02.025Z</time>
      </trkpt>
      <trkpt lat="48.77965" lon="2.47625">
        <ele>107.3</ele>
        <time>2015-04-27T19:45:03.075Z</time>
      </trkpt>
      <trkpt lat="48.77961" lon="2.47629">
        <ele>107.2</ele>
        <time>2015-04-27T19:45:03.963Z</time>
      </trkpt>
      <trkpt lat="48.77957" lon="2.47633">
        <ele>107.3</ele>
        <time>2015-04-27T19:45:04.953Z</time>
      </trkpt>
      <trkpt lat="48.77953" lon="2.47638">
        <ele>107.5</ele>
        <time>2015-04-27T19:45:05.970Z</time>
      </trkpt>
      <trkpt lat="48.77949" lon="2.47642">
        <ele>107.4</ele>
        <time>2015-04-27T19:45:06.988Z</time>
      </trkpt>
      <trkpt lat="48.77945" lon="2.47646">
        <ele>107.5</ele>
        <time>2015-04-27T19:45:07.999Z</time>
      </trkpt>
      <trkpt lat="48.77941" lon="2.4765">
        <ele>107.3</ele>
        <time>2015-04-27T19:45:09.003Z</time>
      </trkpt>
      <trkpt lat="48.77937" lon="2.47655">
        <ele>107.3</ele>
        <time>2015-04-27T19:45:10.012Z</time>
      </trkpt>
      <trkpt lat="48.77933" lon="2.47659">
        <ele>107.4</ele>
        <time>2015-04-27T19:45:11.025Z</time>
      </trkpt>
      <trkpt lat="48.77929" lon="2.47663">
        <ele>107.7</ele>
        <time>2015-04-27T19:45:11.916Z</time>
      </trkpt>
      <trkpt lat="48.77925" lon="2.47667">
        <ele>108.1</ele>
        <time>2015-04-27T19:45:12.940Z</time>
      </trkpt>
      <trkpt lat="48.7792" lon="2.47671">
        <ele>108.3</ele>
        <time>2015-04-27T19:45:13.952Z</time>
      </trkpt>
      <trkpt lat="48.77916" lon="2.47675">
        <ele>108.1</ele>
        <time>2015-04-27T19:45:14.978Z</time>
      </trkpt>
      <trkpt lat="48.77911" lon="2.4768">
        <ele>108</ele>
        <time>2015-04-27T19:45:15.992Z</time>
      </trkpt>
      <trkpt lat="48.77908" lon="2.47685">
        <ele>108.5</ele>
        <time>2015-04-27T19:45:17.003Z</time>
      </trkpt>
      <trkpt lat="48.77904" lon="2.4769">
        <ele>108.6</ele>
        <time>2015-04-27T19:45:18.004Z</time>
      </trkpt>
      <trkpt lat="48.77899" lon="2.47694">
        <ele>109.2</ele>
        <time>2015-04-27T19:45:19.016Z</time>
      </trkpt>
      <trkpt lat="48.77895" lon="2.47699">
        <ele>109.5</ele>
        <time>2015-04-27T19:45:19.921Z</time>
      </trkpt>
      <trkpt lat="48.77891" lon="2.47703">
        <ele>109.8</ele>
        <time>2015-04-27T19:45:20.973Z</time>
      </trkpt>
      <trkpt lat="48.77886" lon="2.47707">
        <ele>110</ele>
        <time>2015-04-27T19:45:21.973Z</time>
      </trkpt>
      <trkpt lat="48.77882" lon="2.47711">
        <ele>110.1</ele>
        <time>2015-04-27T19:45:22.986Z</time>
      </trkpt>
      <trkpt lat="48.77877" lon="2.47715">
        <ele>110.4</ele>
        <time>2015-04-27T19:45:23.991Z</time>
      </trkpt>
      <trkpt lat="48.77873" lon="2.47719">
        <ele>110.6</ele>
        <time>2015-04-27T19:45:25.001Z</time>
      </trkpt>
      <trkpt lat="48.77869" lon="2.47723">
        <ele>110.7</ele>
        <time>2015-04-27T19:45:26.011Z</time>
      </trkpt>
      <trkpt lat="48.77864" lon="2.47727">
        <ele>110.7</ele>
        <time>2015-04-27T19:45:27.030Z</time>
      </trkpt>
      <trkpt lat="48.77859" lon="2.47732">
        <ele>110.6</ele>
        <time>2015-04-27T19:45:28.043Z</time>
      </trkpt>
      <trkpt lat="48.77855" lon="2.47737">
        <ele>110.7</ele>
        <time>2015-04-27T19:45:28.955Z</time>
      </trkpt>
      <trkpt lat="48.77851" lon="2.47742">
        <ele>110.8</ele>
        <time>2015-04-27T19:45:29.961Z</time>
      </trkpt>
      <trkpt lat="48.77846" lon="2.47748">
        <ele>110.9</ele>
        <time>2015-04-27T19:45:30.971Z</time>
      </trkpt>
      <trkpt lat="48.77841" lon="2.47753">
        <ele>110.9</ele>
        <time>2015-04-27T19:45:31.985Z</time>
      </trkpt>
      <trkpt lat="48.77837" lon="2.47759">
        <ele>111.2</ele>
        <time>2015-04-27T19:45:32.999Z</time>
      </trkpt>
      <trkpt lat="48.77833" lon="2.47764">
        <ele>111.4</ele>
        <time>2015-04-27T19:45:34.014Z</time>
      </trkpt>
      <trkpt lat="48.77828" lon="2.4777">
        <ele>111.6</ele>
        <time>2015-04-27T19:45:35.018Z</time>
      </trkpt>
      <trkpt lat="48.77823" lon="2.47775">
        <ele>111.3</ele>
        <time>2015-04-27T19:45:35.928Z</time>
      </trkpt>
      <trkpt lat="48.77818" lon="2.4778">
        <ele>111.3</ele>
        <time>2015-04-27T19:45:36.932Z</time>
      </trkpt>
      <trkpt lat="48.77813" lon="2.47785">
        <ele>111.1</ele>
        <time>2015-04-27T19:45:37.942Z</time>
      </trkpt>
      <trkpt lat="48.77808" lon="2.47791">
        <ele>110.8</ele>
        <time>2015-04-27T19:45:38.963Z</time>
      </trkpt>
      <trkpt lat="48.77804" lon="2.47796">
        <ele>110.9</ele>
        <time>2015-04-27T19:45:39.979Z</time>
      </trkpt>
      <trkpt lat="48.77799" lon="2.478">
        <ele>110.7</ele>
        <time>2015-04-27T19:45:40.984Z</time>
      </trkpt>
      <trkpt lat="48.77794" lon="2.47805">
        <ele>110.6</ele>
        <time>2015-04-27T19:45:41.997Z</time>
      </trkpt>
      <trkpt lat="48.77789" lon="2.47809">
        <ele>110.6</ele>
        <time>2015-04-27T19:45:43.015Z</time>
      </trkpt>
      <trkpt lat="48.77785" lon="2.47814">
        <ele>110.7</ele>
        <time>2015-04-27T19:45:43.948Z</time>
      </trkpt>
      <trkpt lat="48.7778" lon="2.47819">
        <ele>110.8</ele>
        <time>2015-04-27T19:45:45.076Z</time>
      </trkpt>
      <trkpt lat="48.77775" lon="2.47825">
        <ele>110.7</ele>
        <time>2015-04-27T19:45:45.920Z</time>
      </trkpt>
      <trkpt lat="48.77771" lon="2.4783">
        <ele>110.5</ele>
        <time>2015-04-27T19:45:46.956Z</time>
      </trkpt>
      <trkpt lat="48.77766" lon="2.47834">
        <ele>110.6</ele>
        <time>2015-04-27T19:45:48.109Z</time>
      </trkpt>
      <trkpt lat="48.77761" lon="2.47839">
        <ele>111</ele>
        <time>2015-04-27T19:45:48.987Z</time>
      </trkpt>
      <trkpt lat="48.77756" lon="2.47844">
        <ele>111.7</ele>
        <time>2015-04-27T19:45:49.994Z</time>
      </trkpt>
      <trkpt lat="48.7775" lon="2.47848">
        <ele>112</ele>
        <time>2015-04-27T19:45:51.010Z</time>
      </trkpt>
      <trkpt lat="48.77745" lon="2.47853">
        <ele>112.3</ele>
        <time>2015-04-27T19:45:52.032Z</time>
      </trkpt>
      <trkpt lat="48.7774" lon="2.47857">
        <ele>112.2</ele>
        <time>2015-04-27T19:45:52.973Z</time>
      </trkpt>
      <trkpt lat="48.77734" lon="2.47861">
        <ele>112.5</ele>
        <time>2015-04-27T19:45:53.983Z</time>
      </trkpt>
      <trkpt lat="48.7773" lon="2.47866">
        <ele>112.6</ele>
        <time>2015-04-27T19:45:55.015Z</time>
      </trkpt>
      <trkpt lat="48.77725" lon="2.47871">
        <ele>112.5</ele>
        <time>2015-04-27T19:45:55.960Z</time>
      </trkpt>
      <trkpt lat="48.7772" lon="2.47875">
        <ele>112.4</ele>
        <time>2015-04-27T19:45:56.993Z</time>
      </trkpt>
      <trkpt lat="48.77715" lon="2.4788">
        <ele>112.6</ele>
        <time>2015-04-27T19:45:58.001Z</time>
      </trkpt>
      <trkpt lat="48.77711" lon="2.47885">
        <ele>112.5</ele>
        <time>2015-04-27T19:45:59.009Z</time>
      </trkpt>
      <trkpt lat="48.77706" lon="2.4789">
        <ele>112.6</ele>
        <time>2015-04-27T19:46:00.022Z</time>
      </trkpt>
      <trkpt lat="48.77702" lon="2.47895">
        <ele>112.7</ele>
        <time>2015-04-27T19:46:00.907Z</time>
      </trkpt>
      <trkpt lat="48.77698" lon="2.47899">
        <ele>113</ele>
        <time>2015-04-27T19:46:01.935Z</time>
      </trkpt>
      <trkpt lat="48.77694" lon="2.47904">
        <ele>113.2</ele>
        <time>2015-04-27T19:46:02.986Z</time>
      </trkpt>
      <trkpt lat="48.77689" lon="2.47908">
        <ele>113.3</ele>
        <time>2015-04-27T19:46:03.994Z</time>
      </trkpt>
      <trkpt lat="48.77685" lon="2.47912">
        <ele>113.2</ele>
        <time>2015-04-27T19:46:05.003Z</time>
      </trkpt>
      <trkpt lat="48.77681" lon="2.47916">
        <ele>113.3</ele>
        <time>2015-04-27T19:46:06.024Z</time>
      </trkpt>
      <trkpt lat="48.77674" lon="2.47924">
        <ele>113</ele>
        <time>2015-04-27T19:46:07.931Z</time>
      </trkpt>
      <trkpt lat="48.77673" lon="2.47927">
        <ele>111.6</ele>
        <time>2015-04-27T19:46:08.997Z</time>
      </trkpt>
      <trkpt lat="48.77667" lon="2.47935">
        <ele>111.2</ele>
        <time>2015-04-27T19:46:10.947Z</time>
      </trkpt>
      <trkpt lat="48.77665" lon="2.47937">
        <ele>111</ele>
        <time>2015-04-27T19:46:11.959Z</time>
      </trkpt>
      <trkpt lat="48.77658" lon="2.47944">
        <ele>110.7</ele>
        <time>2015-04-27T19:46:15.011Z</time>
      </trkpt>
      <trkpt lat="48.77656" lon="2.47946">
        <ele>110.6</ele>
        <time>2015-04-27T19:46:16.024Z</time>
      </trkpt>
      <trkpt lat="48.7765" lon="2.47951">
        <ele>111.5</ele>
        <time>2015-04-27T19:46:32.976Z</time>
      </trkpt>
      <trkpt lat="48.7764" lon="2.47961">
        <ele>111.8</ele>
        <time>2015-04-27T19:46:33.973Z</time>
      </trkpt>
      <trkpt lat="48.77633" lon="2.47965">
        <ele>111.1</ele>
        <time>2015-04-27T19:46:35.980Z</time>
      </trkpt>
      <trkpt lat="48.77631" lon="2.47967">
        <ele>110.9</ele>
        <time>2015-04-27T19:46:37.022Z</time>
      </trkpt>
      <trkpt lat="48.77625" lon="2.47973">
        <ele>110.8</ele>
        <time>2015-04-27T19:46:38.966Z</time>
      </trkpt>
      <trkpt lat="48.77622" lon="2.47977">
        <ele>110.2</ele>
        <time>2015-04-27T19:46:39.968Z</time>
      </trkpt>
      <trkpt lat="48.77616" lon="2.47984">
        <ele>109</ele>
        <time>2015-04-27T19:46:41.932Z</time>
      </trkpt>
      <trkpt lat="48.77614" lon="2.47988">
        <ele>108.3</ele>
        <time>2015-04-27T19:46:42.928Z</time>
      </trkpt>
      <trkpt lat="48.77608" lon="2.47996">
        <ele>107.2</ele>
        <time>2015-04-27T19:46:44.982Z</time>
      </trkpt>
      <trkpt lat="48.77604" lon="2.48">
        <ele>106.9</ele>
        <time>2015-04-27T19:46:46.002Z</time>
      </trkpt>
      <trkpt lat="48.776" lon="2.48003">
        <ele>106</ele>
        <time>2015-04-27T19:46:47.031Z</time>
      </trkpt>
      <trkpt lat="48.77596" lon="2.48007">
        <ele>105.8</ele>
        <time>2015-04-27T19:46:47.942Z</time>
      </trkpt>
      <trkpt lat="48.77592" lon="2.48011">
        <ele>105.9</ele>
        <time>2015-04-27T19:46:48.951Z</time>
      </trkpt>
      <trkpt lat="48.77589" lon="2.48016">
        <ele>106.1</ele>
        <time>2015-04-27T19:46:49.957Z</time>
      </trkpt>
      <trkpt lat="48.77585" lon="2.48022">
        <ele>106.3</ele>
        <time>2015-04-27T19:46:50.972Z</time>
      </trkpt>
      <trkpt lat="48.77581" lon="2.48026">
        <ele>106.8</ele>
        <time>2015-04-27T19:46:51.979Z</time>
      </trkpt>
      <trkpt lat="48.77577" lon="2.4803">
        <ele>107</ele>
        <time>2015-04-27T19:46:53.432Z</time>
      </trkpt>
      <trkpt lat="48.77573" lon="2.48034">
        <ele>107.3</ele>
        <time>2015-04-27T19:46:53.934Z</time>
      </trkpt>
      <trkpt lat="48.77569" lon="2.48038">
        <ele>107.5</ele>
        <time>2015-04-27T19:46:54.932Z</time>
      </trkpt>
      <trkpt lat="48.77565" lon="2.48042">
        <ele>107.6</ele>
        <time>2015-04-27T19:46:55.943Z</time>
      </trkpt>
      <trkpt lat="48.7756" lon="2.48046">
        <ele>107.8</ele>
        <time>2015-04-27T19:46:56.967Z</time>
      </trkpt>
      <trkpt lat="48.77556" lon="2.4805">
        <ele>108</ele>
        <time>2015-04-27T19:46:57.977Z</time>
      </trkpt>
      <trkpt lat="48.77552" lon="2.48053">
        <ele>108.1</ele>
        <time>2015-04-27T19:46:59.001Z</time>
      </trkpt>
      <trkpt lat="48.77547" lon="2.48057">
        <ele>108.5</ele>
        <time>2015-04-27T19:47:00.014Z</time>
      </trkpt>
      <trkpt lat="48.77543" lon="2.48061">
        <ele>108.8</ele>
        <time>2015-04-27T19:47:01.028Z</time>
      </trkpt>
      <trkpt lat="48.77539" lon="2.48066">
        <ele>109</ele>
        <time>2015-04-27T19:47:01.925Z</time>
      </trkpt>
      <trkpt lat="48.77534" lon="2.4807">
        <ele>108.8</ele>
        <time>2015-04-27T19:47:02.936Z</time>
      </trkpt>
      <trkpt lat="48.7753" lon="2.48075">
        <ele>109</ele>
        <time>2015-04-27T19:47:03.939Z</time>
      </trkpt>
      <trkpt lat="48.77525" lon="2.48079">
        <ele>108.9</ele>
        <time>2015-04-27T19:47:04.949Z</time>
      </trkpt>
      <trkpt lat="48.77521" lon="2.48083">
        <ele>108.7</ele>
        <time>2015-04-27T19:47:05.961Z</time>
      </trkpt>
      <trkpt lat="48.77517" lon="2.48087">
        <ele>108.6</ele>
        <time>2015-04-27T19:47:06.930Z</time>
      </trkpt>
      <trkpt lat="48.77512" lon="2.48092">
        <ele>108.6</ele>
        <time>2015-04-27T19:47:07.994Z</time>
      </trkpt>
      <trkpt lat="48.77506" lon="2.48098">
        <ele>108.9</ele>
        <time>2015-04-27T19:47:09.008Z</time>
      </trkpt>
      <trkpt lat="48.77501" lon="2.48103">
        <ele>109</ele>
        <time>2015-04-27T19:47:09.927Z</time>
      </trkpt>
      <trkpt lat="48.77495" lon="2.48109">
        <ele>109.5</ele>
        <time>2015-04-27T19:47:10.925Z</time>
      </trkpt>
      <trkpt lat="48.7749" lon="2.48115">
        <ele>109.8</ele>
        <time>2015-04-27T19:47:12.010Z</time>
      </trkpt>
      <trkpt lat="48.77484" lon="2.4812">
        <ele>110.2</ele>
        <time>2015-04-27T19:47:12.932Z</time>
      </trkpt>
      <trkpt lat="48.77479" lon="2.48125">
        <ele>110.5</ele>
        <time>2015-04-27T19:47:13.942Z</time>
      </trkpt>
      <trkpt lat="48.77474" lon="2.4813">
        <ele>110.4</ele>
        <time>2015-04-27T19:47:14.979Z</time>
      </trkpt>
      <trkpt lat="48.77469" lon="2.48135">
        <ele>110</ele>
        <time>2015-04-27T19:47:16.158Z</time>
      </trkpt>
      <trkpt lat="48.77464" lon="2.4814">
        <ele>109.8</ele>
        <time>2015-04-27T19:47:17.015Z</time>
      </trkpt>
      <trkpt lat="48.77459" lon="2.48146">
        <ele>109.9</ele>
        <time>2015-04-27T19:47:18.028Z</time>
      </trkpt>
      <trkpt lat="48.77454" lon="2.48151">
        <ele>110</ele>
        <time>2015-04-27T19:47:18.929Z</time>
      </trkpt>
      <trkpt lat="48.7745" lon="2.48156">
        <ele>110.1</ele>
        <time>2015-04-27T19:47:19.937Z</time>
      </trkpt>
      <trkpt lat="48.77446" lon="2.48161">
        <ele>110.5</ele>
        <time>2015-04-27T19:47:20.966Z</time>
      </trkpt>
      <trkpt lat="48.77443" lon="2.48165">
        <ele>110.7</ele>
        <time>2015-04-27T19:47:21.961Z</time>
      </trkpt>
      <trkpt lat="48.77437" lon="2.48171">
        <ele>111</ele>
        <time>2015-04-27T19:47:23.931Z</time>
      </trkpt>
      <trkpt lat="48.77435" lon="2.48173">
        <ele>110.7</ele>
        <time>2015-04-27T19:47:24.939Z</time>
      </trkpt>
      <trkpt lat="48.77427" lon="2.48177">
        <ele>110.1</ele>
        <time>2015-04-27T19:47:27.915Z</time>
      </trkpt>
      <trkpt lat="48.77425" lon="2.48178">
        <ele>109.9</ele>
        <time>2015-04-27T19:47:28.939Z</time>
      </trkpt>
      <trkpt lat="48.77418" lon="2.48184">
        <ele>109.7</ele>
        <time>2015-04-27T19:47:32.942Z</time>
      </trkpt>
      <trkpt lat="48.77416" lon="2.48186">
        <ele>109.6</ele>
        <time>2015-04-27T19:47:33.950Z</time>
      </trkpt>
      <trkpt lat="48.77412" lon="2.48197">
        <ele>109.1</ele>
        <time>2015-04-27T19:47:37.935Z</time>
      </trkpt>
      <trkpt lat="48.77414" lon="2.48202">
        <ele>108.6</ele>
        <time>2015-04-27T19:47:38.960Z</time>
      </trkpt>
      <trkpt lat="48.77417" lon="2.4821">
        <ele>108.7</ele>
        <time>2015-04-27T19:47:40.930Z</time>
      </trkpt>
      <trkpt lat="48.7742" lon="2.48216">
        <ele>108.8</ele>
        <time>2015-04-27T19:47:41.961Z</time>
      </trkpt>
      <trkpt lat="48.77422" lon="2.48229">
        <ele>108.9</ele>
        <time>2015-04-27T19:47:43.920Z</time>
      </trkpt>
      <trkpt lat="48.77423" lon="2.48236">
        <ele>108.5</ele>
        <time>2015-04-27T19:47:44.965Z</time>
      </trkpt>
      <trkpt lat="48.77423" lon="2.48244">
        <ele>108.5</ele>
        <time>2015-04-27T19:47:46.135Z</time>
      </trkpt>
      <trkpt lat="48.77422" lon="2.48252">
        <ele>108.3</ele>
        <time>2015-04-27T19:47:47.008Z</time>
      </trkpt>
      <trkpt lat="48.77423" lon="2.4826">
        <ele>108.4</ele>
        <time>2015-04-27T19:47:47.919Z</time>
      </trkpt>
      <trkpt lat="48.77423" lon="2.48269">
        <ele>108.7</ele>
        <time>2015-04-27T19:47:48.912Z</time>
      </trkpt>
      <trkpt lat="48.77423" lon="2.48278">
        <ele>108.9</ele>
        <time>2015-04-27T19:47:49.918Z</time>
      </trkpt>
      <trkpt lat="48.77422" lon="2.48287">
        <ele>109.2</ele>
        <time>2015-04-27T19:47:50.936Z</time>
      </trkpt>
      <trkpt lat="48.77422" lon="2.48296">
        <ele>109.5</ele>
        <time>2015-04-27T19:47:51.957Z</time>
      </trkpt>
      <trkpt lat="48.77421" lon="2.48306">
        <ele>109.7</ele>
        <time>2015-04-27T19:47:53.014Z</time>
      </trkpt>
      <trkpt lat="48.7742" lon="2.48315">
        <ele>109.6</ele>
        <time>2015-04-27T19:47:53.964Z</time>
      </trkpt>
      <trkpt lat="48.77419" lon="2.48325">
        <ele>109.4</ele>
        <time>2015-04-27T19:47:54.972Z</time>
      </trkpt>
      <trkpt lat="48.77419" lon="2.48334">
        <ele>109.3</ele>
        <time>2015-04-27T19:47:55.996Z</time>
      </trkpt>
      <trkpt lat="48.77417" lon="2.48344">
        <ele>109.3</ele>
        <time>2015-04-27T19:47:57.003Z</time>
      </trkpt>
      <trkpt lat="48.77416" lon="2.48353">
        <ele>109.1</ele>
        <time>2015-04-27T19:47:57.934Z</time>
      </trkpt>
      <trkpt lat="48.77415" lon="2.48363">
        <ele>108.9</ele>
        <time>2015-04-27T19:47:58.919Z</time>
      </trkpt>
      <trkpt lat="48.77414" lon="2.48372">
        <ele>108.5</ele>
        <time>2015-04-27T19:47:59.935Z</time>
      </trkpt>
      <trkpt lat="48.77413" lon="2.48382">
        <ele>108.1</ele>
        <time>2015-04-27T19:48:00.951Z</time>
      </trkpt>
      <trkpt lat="48.77413" lon="2.48391">
        <ele>107.9</ele>
        <time>2015-04-27T19:48:01.976Z</time>
      </trkpt>
      <trkpt lat="48.77412" lon="2.484">
        <ele>107.9</ele>
        <time>2015-04-27T19:48:02.992Z</time>
      </trkpt>
      <trkpt lat="48.77411" lon="2.48409">
        <ele>107.8</ele>
        <time>2015-04-27T19:48:03.919Z</time>
      </trkpt>
      <trkpt lat="48.77411" lon="2.48418">
        <ele>107.8</ele>
        <time>2015-04-27T19:48:04.934Z</time>
      </trkpt>
      <trkpt lat="48.7741" lon="2.48427">
        <ele>107.8</ele>
        <time>2015-04-27T19:48:05.972Z</time>
      </trkpt>
      <trkpt lat="48.7741" lon="2.48435">
        <ele>107.6</ele>
        <time>2015-04-27T19:48:06.981Z</time>
      </trkpt>
      <trkpt lat="48.7741" lon="2.48444">
        <ele>107.6</ele>
        <time>2015-04-27T19:48:07.992Z</time>
      </trkpt>
      <trkpt lat="48.77409" lon="2.48452">
        <ele>107.4</ele>
        <time>2015-04-27T19:48:09.007Z</time>
      </trkpt>
      <trkpt lat="48.77409" lon="2.48461">
        <ele>107.3</ele>
        <time>2015-04-27T19:48:10.251Z</time>
      </trkpt>
      <trkpt lat="48.77409" lon="2.48469">
        <ele>107</ele>
        <time>2015-04-27T19:48:10.929Z</time>
      </trkpt>
      <trkpt lat="48.77408" lon="2.48478">
        <ele>107.3</ele>
        <time>2015-04-27T19:48:11.974Z</time>
      </trkpt>
      <trkpt lat="48.77407" lon="2.48487">
        <ele>106.9</ele>
        <time>2015-04-27T19:48:12.978Z</time>
      </trkpt>
      <trkpt lat="48.77407" lon="2.48496">
        <ele>106.4</ele>
        <time>2015-04-27T19:48:13.983Z</time>
      </trkpt>
      <trkpt lat="48.77406" lon="2.48505">
        <ele>106.6</ele>
        <time>2015-04-27T19:48:15.001Z</time>
      </trkpt>
      <trkpt lat="48.77405" lon="2.48514">
        <ele>106.2</ele>
        <time>2015-04-27T19:48:15.900Z</time>
      </trkpt>
      <trkpt lat="48.77404" lon="2.48523">
        <ele>105.6</ele>
        <time>2015-04-27T19:48:16.920Z</time>
      </trkpt>
      <trkpt lat="48.77403" lon="2.48533">
        <ele>105.3</ele>
        <time>2015-04-27T19:48:17.935Z</time>
      </trkpt>
      <trkpt lat="48.77403" lon="2.48542">
        <ele>104.9</ele>
        <time>2015-04-27T19:48:18.949Z</time>
      </trkpt>
      <trkpt lat="48.77404" lon="2.4855">
        <ele>104.7</ele>
        <time>2015-04-27T19:48:19.984Z</time>
      </trkpt>
      <trkpt lat="48.77404" lon="2.48559">
        <ele>104.7</ele>
        <time>2015-04-27T19:48:20.998Z</time>
      </trkpt>
      <trkpt lat="48.77403" lon="2.48569">
        <ele>104.8</ele>
        <time>2015-04-27T19:48:21.925Z</time>
      </trkpt>
      <trkpt lat="48.77404" lon="2.48579">
        <ele>105.6</ele>
        <time>2015-04-27T19:48:22.935Z</time>
      </trkpt>
      <trkpt lat="48.77404" lon="2.48589">
        <ele>106.1</ele>
        <time>2015-04-27T19:48:23.944Z</time>
      </trkpt>
      <trkpt lat="48.77403" lon="2.48598">
        <ele>106.3</ele>
        <time>2015-04-27T19:48:24.951Z</time>
      </trkpt>
      <trkpt lat="48.77403" lon="2.48607">
        <ele>106.4</ele>
        <time>2015-04-27T19:48:25.959Z</time>
      </trkpt>
      <trkpt lat="48.77403" lon="2.48616">
        <ele>106.8</ele>
        <time>2015-04-27T19:48:26.965Z</time>
      </trkpt>
      <trkpt lat="48.77402" lon="2.48624">
        <ele>107</ele>
        <time>2015-04-27T19:48:27.974Z</time>
      </trkpt>
      <trkpt lat="48.77402" lon="2.48633">
        <ele>106.9</ele>
        <time>2015-04-27T19:48:28.980Z</time>
      </trkpt>
      <trkpt lat="48.77401" lon="2.48641">
        <ele>106.8</ele>
        <time>2015-04-27T19:48:29.993Z</time>
      </trkpt>
      <trkpt lat="48.77401" lon="2.4865">
        <ele>106.5</ele>
        <time>2015-04-27T19:48:31.005Z</time>
      </trkpt>
      <trkpt lat="48.77399" lon="2.48658">
        <ele>106.2</ele>
        <time>2015-04-27T19:48:32.016Z</time>
      </trkpt>
      <trkpt lat="48.77398" lon="2.48666">
        <ele>106.1</ele>
        <time>2015-04-27T19:48:33.032Z</time>
      </trkpt>
      <trkpt lat="48.77398" lon="2.48674">
        <ele>105.8</ele>
        <time>2015-04-27T19:48:33.920Z</time>
      </trkpt>
      <trkpt lat="48.77398" lon="2.48682">
        <ele>105.6</ele>
        <time>2015-04-27T19:48:34.920Z</time>
      </trkpt>
      <trkpt lat="48.77397" lon="2.4869">
        <ele>105.3</ele>
        <time>2015-04-27T19:48:35.939Z</time>
      </trkpt>
      <trkpt lat="48.77396" lon="2.48698">
        <ele>105.2</ele>
        <time>2015-04-27T19:48:36.953Z</time>
      </trkpt>
      <trkpt lat="48.77396" lon="2.48706">
        <ele>105.2</ele>
        <time>2015-04-27T19:48:37.962Z</time>
      </trkpt>
      <trkpt lat="48.77396" lon="2.48714">
        <ele>105.3</ele>
        <time>2015-04-27T19:48:38.973Z</time>
      </trkpt>
      <trkpt lat="48.77395" lon="2.48721">
        <ele>105.2</ele>
        <time>2015-04-27T19:48:39.997Z</time>
      </trkpt>
      <trkpt lat="48.77395" lon="2.48728">
        <ele>105.2</ele>
        <time>2015-04-27T19:48:41.003Z</time>
      </trkpt>
      <trkpt lat="48.77394" lon="2.4874">
        <ele>105.3</ele>
        <time>2015-04-27T19:48:42.919Z</time>
      </trkpt>
      <trkpt lat="48.77393" lon="2.48746">
        <ele>105.2</ele>
        <time>2015-04-27T19:48:43.940Z</time>
      </trkpt>
      <trkpt lat="48.77392" lon="2.48753">
        <ele>105.3</ele>
        <time>2015-04-27T19:48:44.982Z</time>
      </trkpt>
      <trkpt lat="48.77391" lon="2.4876">
        <ele>105.4</ele>
        <time>2015-04-27T19:48:46Z</time>
      </trkpt>
      <trkpt lat="48.7739" lon="2.48767">
        <ele>105.2</ele>
        <time>2015-04-27T19:48:47.045Z</time>
      </trkpt>
      <trkpt lat="48.77389" lon="2.48774">
        <ele>104.9</ele>
        <time>2015-04-27T19:48:47.929Z</time>
      </trkpt>
      <trkpt lat="48.77388" lon="2.48782">
        <ele>104.8</ele>
        <time>2015-04-27T19:48:48.933Z</time>
      </trkpt>
      <trkpt lat="48.77388" lon="2.4879">
        <ele>104.8</ele>
        <time>2015-04-27T19:48:49.949Z</time>
      </trkpt>
      <trkpt lat="48.77387" lon="2.48799">
        <ele>104.5</ele>
        <time>2015-04-27T19:48:50.977Z</time>
      </trkpt>
      <trkpt lat="48.77386" lon="2.48808">
        <ele>104.1</ele>
        <time>2015-04-27T19:48:51.983Z</time>
      </trkpt>
      <trkpt lat="48.77385" lon="2.48816">
        <ele>104.1</ele>
        <time>2015-04-27T19:48:52.911Z</time>
      </trkpt>
      <trkpt lat="48.77384" lon="2.48825">
        <ele>104.3</ele>
        <time>2015-04-27T19:48:53.911Z</time>
      </trkpt>
      <trkpt lat="48.77384" lon="2.48834">
        <ele>104.1</ele>
        <time>2015-04-27T19:48:54.919Z</time>
      </trkpt>
      <trkpt lat="48.77383" lon="2.48842">
        <ele>104.2</ele>
        <time>2015-04-27T19:48:55.923Z</time>
      </trkpt>
      <trkpt lat="48.77382" lon="2.48851">
        <ele>104.3</ele>
        <time>2015-04-27T19:48:56.947Z</time>
      </trkpt>
      <trkpt lat="48.77381" lon="2.48859">
        <ele>104</ele>
        <time>2015-04-27T19:48:57.955Z</time>
      </trkpt>
      <trkpt lat="48.7738" lon="2.48868">
        <ele>103.9</ele>
        <time>2015-04-27T19:48:58.966Z</time>
      </trkpt>
      <trkpt lat="48.7738" lon="2.48876">
        <ele>104</ele>
        <time>2015-04-27T19:48:59.984Z</time>
      </trkpt>
      <trkpt lat="48.77379" lon="2.48884">
        <ele>103.9</ele>
        <time>2015-04-27T19:49:00.902Z</time>
      </trkpt>
      <trkpt lat="48.7738" lon="2.48892">
        <ele>104.2</ele>
        <time>2015-04-27T19:49:01.940Z</time>
      </trkpt>
      <trkpt lat="48.77379" lon="2.489">
        <ele>104.3</ele>
        <time>2015-04-27T19:49:02.980Z</time>
      </trkpt>
      <trkpt lat="48.77379" lon="2.48907">
        <ele>104.3</ele>
        <time>2015-04-27T19:49:03.994Z</time>
      </trkpt>
      <trkpt lat="48.77378" lon="2.48913">
        <ele>104.4</ele>
        <time>2015-04-27T19:49:04.928Z</time>
      </trkpt>
      <trkpt lat="48.77376" lon="2.4892">
        <ele>104.4</ele>
        <time>2015-04-27T19:49:05.941Z</time>
      </trkpt>
      <trkpt lat="48.77375" lon="2.48928">
        <ele>104.2</ele>
        <time>2015-04-27T19:49:06.953Z</time>
      </trkpt>
      <trkpt lat="48.77376" lon="2.48937">
        <ele>104.1</ele>
        <time>2015-04-27T19:49:07.959Z</time>
      </trkpt>
      <trkpt lat="48.77375" lon="2.48945">
        <ele>103.9</ele>
        <time>2015-04-27T19:49:08.980Z</time>
      </trkpt>
      <trkpt lat="48.77378" lon="2.48954">
        <ele>103.9</ele>
        <time>2015-04-27T19:49:09.990Z</time>
      </trkpt>
      <trkpt lat="48.77378" lon="2.48961">
        <ele>103.7</ele>
        <time>2015-04-27T19:49:10.909Z</time>
      </trkpt>
      <trkpt lat="48.77377" lon="2.48967">
        <ele>103.6</ele>
        <time>2015-04-27T19:49:11.934Z</time>
      </trkpt>
      <trkpt lat="48.77373" lon="2.48979">
        <ele>103.1</ele>
        <time>2015-04-27T19:49:13.953Z</time>
      </trkpt>
      <trkpt lat="48.7737" lon="2.48983">
        <ele>102.6</ele>
        <time>2015-04-27T19:49:15.015Z</time>
      </trkpt>
      <trkpt lat="48.77366" lon="2.48991">
        <ele>102.6</ele>
        <time>2015-04-27T19:49:16.975Z</time>
      </trkpt>
      <trkpt lat="48.77363" lon="2.48995">
        <ele>102.8</ele>
        <time>2015-04-27T19:49:18.016Z</time>
      </trkpt>
      <trkpt lat="48.77359" lon="2.49004">
        <ele>102.5</ele>
        <time>2015-04-27T19:49:19.991Z</time>
      </trkpt>
      <trkpt lat="48.77357" lon="2.49008">
        <ele>102.6</ele>
        <time>2015-04-27T19:49:21.050Z</time>
      </trkpt>
      <trkpt lat="48.77352" lon="2.49016">
        <ele>102.3</ele>
        <time>2015-04-27T19:49:22.978Z</time>
      </trkpt>
      <trkpt lat="48.77347" lon="2.49019">
        <ele>100.8</ele>
        <time>2015-04-27T19:49:24.051Z</time>
      </trkpt>
      <trkpt lat="48.77341" lon="2.49029">
        <ele>99.3</ele>
        <time>2015-04-27T19:49:25.928Z</time>
      </trkpt>
      <trkpt lat="48.77338" lon="2.49033">
        <ele>98.8</ele>
        <time>2015-04-27T19:49:26.927Z</time>
      </trkpt>
      <trkpt lat="48.77335" lon="2.49042">
        <ele>98.4</ele>
        <time>2015-04-27T19:49:29.169Z</time>
      </trkpt>
      <trkpt lat="48.77333" lon="2.49045">
        <ele>98.3</ele>
        <time>2015-04-27T19:49:29.954Z</time>
      </trkpt>
      <trkpt lat="48.77328" lon="2.49054">
        <ele>98</ele>
        <time>2015-04-27T19:49:33.008Z</time>
      </trkpt>
      <trkpt lat="48.77327" lon="2.49056">
        <ele>97.7</ele>
        <time>2015-04-27T19:49:33.911Z</time>
      </trkpt>
      <trkpt lat="48.77322" lon="2.49066">
        <ele>97</ele>
        <time>2015-04-27T19:49:38.939Z</time>
      </trkpt>
      <trkpt lat="48.77321" lon="2.49067">
        <ele>97.1</ele>
        <time>2015-04-27T19:49:40.047Z</time>
      </trkpt>
      <trkpt lat="48.77326" lon="2.49077">
        <ele>95.6</ele>
        <time>2015-04-27T19:49:46.928Z</time>
      </trkpt>
      <trkpt lat="48.77328" lon="2.49075">
        <ele>95.3</ele>
        <time>2015-04-27T19:49:47.984Z</time>
      </trkpt>
      <trkpt lat="48.77334" lon="2.49069">
        <ele>94.7</ele>
        <time>2015-04-27T19:49:49.937Z</time>
      </trkpt>
      <trkpt lat="48.77336" lon="2.49065">
        <ele>94.5</ele>
        <time>2015-04-27T19:49:51.023Z</time>
      </trkpt>
      <trkpt lat="48.7734" lon="2.49054">
        <ele>94.5</ele>
        <time>2015-04-27T19:49:52.992Z</time>
      </trkpt>
      <trkpt lat="48.77342" lon="2.49048">
        <ele>94.5</ele>
        <time>2015-04-27T19:49:53.988Z</time>
      </trkpt>
      <trkpt lat="48.77346" lon="2.49038">
        <ele>94.5</ele>
        <time>2015-04-27T19:49:55.923Z</time>
      </trkpt>
      <trkpt lat="48.77347" lon="2.49033">
        <ele>94.8</ele>
        <time>2015-04-27T19:49:56.929Z</time>
      </trkpt>
      <trkpt lat="48.77351" lon="2.49025">
        <ele>95.2</ele>
        <time>2015-04-27T19:49:58.958Z</time>
      </trkpt>
      <trkpt lat="48.77353" lon="2.49021">
        <ele>95.1</ele>
        <time>2015-04-27T19:49:59.919Z</time>
      </trkpt>
      <trkpt lat="48.77356" lon="2.49013">
        <ele>95.8</ele>
        <time>2015-04-27T19:50:02.006Z</time>
      </trkpt>
      <trkpt lat="48.77357" lon="2.49009">
        <ele>96.4</ele>
        <time>2015-04-27T19:50:03.225Z</time>
      </trkpt>
      <trkpt lat="48.77363" lon="2.48998">
        <ele>97.5</ele>
        <time>2015-04-27T19:50:05.945Z</time>
      </trkpt>
      <trkpt lat="48.77365" lon="2.48994">
        <ele>98.1</ele>
        <time>2015-04-27T19:50:06.953Z</time>
      </trkpt>
      <trkpt lat="48.77371" lon="2.4899">
        <ele>99</ele>
        <time>2015-04-27T19:50:08.954Z</time>
      </trkpt>
      <trkpt lat="48.77374" lon="2.48989">
        <ele>99.2</ele>
        <time>2015-04-27T19:50:09.990Z</time>
      </trkpt>
      <trkpt lat="48.77381" lon="2.48986">
        <ele>99.8</ele>
        <time>2015-04-27T19:50:11.933Z</time>
      </trkpt>
      <trkpt lat="48.77384" lon="2.48986">
        <ele>99.7</ele>
        <time>2015-04-27T19:50:12.958Z</time>
      </trkpt>
      <trkpt lat="48.77392" lon="2.48987">
        <ele>99.9</ele>
        <time>2015-04-27T19:50:15.026Z</time>
      </trkpt>
      <trkpt lat="48.77397" lon="2.48987">
        <ele>99.7</ele>
        <time>2015-04-27T19:50:15.930Z</time>
      </trkpt>
      <trkpt lat="48.77404" lon="2.48985">
        <ele>100.4</ele>
        <time>2015-04-27T19:50:17.939Z</time>
      </trkpt>
      <trkpt lat="48.77407" lon="2.48985">
        <ele>100.6</ele>
        <time>2015-04-27T19:50:18.948Z</time>
      </trkpt>
      <trkpt lat="48.77413" lon="2.48982">
        <ele>101.3</ele>
        <time>2015-04-27T19:50:21.004Z</time>
      </trkpt>
      <trkpt lat="48.77416" lon="2.48981">
        <ele>102.1</ele>
        <time>2015-04-27T19:50:21.955Z</time>
      </trkpt>
      <trkpt lat="48.77423" lon="2.48982">
        <ele>103.4</ele>
        <time>2015-04-27T19:50:23.914Z</time>
      </trkpt>
      <trkpt lat="48.77427" lon="2.48982">
        <ele>103.8</ele>
        <time>2015-04-27T19:50:24.994Z</time>
      </trkpt>
      <trkpt lat="48.77433" lon="2.48983">
        <ele>104.4</ele>
        <time>2015-04-27T19:50:26.926Z</time>
      </trkpt>
      <trkpt lat="48.77436" lon="2.48983">
        <ele>104.7</ele>
        <time>2015-04-27T19:50:27.934Z</time>
      </trkpt>
      <trkpt lat="48.77442" lon="2.48984">
        <ele>105</ele>
        <time>2015-04-27T19:50:29.891Z</time>
      </trkpt>
      <trkpt lat="48.77446" lon="2.48984">
        <ele>105.5</ele>
        <time>2015-04-27T19:50:30.911Z</time>
      </trkpt>
      <trkpt lat="48.77453" lon="2.48984">
        <ele>105.9</ele>
        <time>2015-04-27T19:50:32.955Z</time>
      </trkpt>
      <trkpt lat="48.77457" lon="2.48983">
        <ele>106.1</ele>
        <time>2015-04-27T19:50:33.980Z</time>
      </trkpt>
      <trkpt lat="48.77465" lon="2.48982">
        <ele>106.8</ele>
        <time>2015-04-27T19:50:35.900Z</time>
      </trkpt>
      <trkpt lat="48.77469" lon="2.48982">
        <ele>107.3</ele>
        <time>2015-04-27T19:50:36.966Z</time>
      </trkpt>
      <trkpt lat="48.77477" lon="2.48982">
        <ele>107.8</ele>
        <time>2015-04-27T19:50:38.990Z</time>
      </trkpt>
      <trkpt lat="48.77481" lon="2.48982">
        <ele>107.9</ele>
        <time>2015-04-27T19:50:39.931Z</time>
      </trkpt>
      <trkpt lat="48.77486" lon="2.48983">
        <ele>107.9</ele>
        <time>2015-04-27T19:50:40.933Z</time>
      </trkpt>
      <trkpt lat="48.77491" lon="2.48984">
        <ele>107.1</ele>
        <time>2015-04-27T19:50:41.945Z</time>
      </trkpt>
      <trkpt lat="48.77497" lon="2.48986">
        <ele>106.4</ele>
        <time>2015-04-27T19:50:42.967Z</time>
      </trkpt>
      <trkpt lat="48.77501" lon="2.48987">
        <ele>106.4</ele>
        <time>2015-04-27T19:50:43.980Z</time>
      </trkpt>
      <trkpt lat="48.7751" lon="2.48988">
        <ele>106.5</ele>
        <time>2015-04-27T19:50:46.019Z</time>
      </trkpt>
      <trkpt lat="48.77514" lon="2.48988">
        <ele>106.2</ele>
        <time>2015-04-27T19:50:47.156Z</time>
      </trkpt>
      <trkpt lat="48.77518" lon="2.48989">
        <ele>106.5</ele>
        <time>2015-04-27T19:50:47.950Z</time>
      </trkpt>
      <trkpt lat="48.77524" lon="2.4899">
        <ele>106.2</ele>
        <time>2015-04-27T19:50:48.958Z</time>
      </trkpt>
      <trkpt lat="48.7753" lon="2.48992">
        <ele>105.1</ele>
        <time>2015-04-27T19:50:50.003Z</time>
      </trkpt>
      <trkpt lat="48.77536" lon="2.48994">
        <ele>104.3</ele>
        <time>2015-04-27T19:50:51.012Z</time>
      </trkpt>
      <trkpt lat="48.77542" lon="2.48995">
        <ele>103.8</ele>
        <time>2015-04-27T19:50:51.935Z</time>
      </trkpt>
      <trkpt lat="48.77546" lon="2.48996">
        <ele>103.6</ele>
        <time>2015-04-27T19:50:52.921Z</time>
      </trkpt>
      <trkpt lat="48.77553" lon="2.48997">
        <ele>103.1</ele>
        <time>2015-04-27T19:50:53.945Z</time>
      </trkpt>
      <trkpt lat="48.77558" lon="2.48999">
        <ele>102.5</ele>
        <time>2015-04-27T19:50:54.955Z</time>
      </trkpt>
      <trkpt lat="48.77564" lon="2.49001">
        <ele>101.9</ele>
        <time>2015-04-27T19:50:55.982Z</time>
      </trkpt>
      <trkpt lat="48.7757" lon="2.49003">
        <ele>101.5</ele>
        <time>2015-04-27T19:50:57.029Z</time>
      </trkpt>
      <trkpt lat="48.77575" lon="2.49004">
        <ele>101.2</ele>
        <time>2015-04-27T19:50:57.924Z</time>
      </trkpt>
      <trkpt lat="48.77581" lon="2.49005">
        <ele>100.8</ele>
        <time>2015-04-27T19:50:58.922Z</time>
      </trkpt>
      <trkpt lat="48.77586" lon="2.49006">
        <ele>100.5</ele>
        <time>2015-04-27T19:50:59.944Z</time>
      </trkpt>
      <trkpt lat="48.77591" lon="2.49007">
        <ele>100.5</ele>
        <time>2015-04-27T19:51:00.949Z</time>
      </trkpt>
      <trkpt lat="48.77599" lon="2.4901">
        <ele>100.5</ele>
        <time>2015-04-27T19:51:02.970Z</time>
      </trkpt>
      <trkpt lat="48.77602" lon="2.49013">
        <ele>100.3</ele>
        <time>2015-04-27T19:51:03.982Z</time>
      </trkpt>
      <trkpt lat="48.7761" lon="2.49016">
        <ele>99.6</ele>
        <time>2015-04-27T19:51:05.941Z</time>
      </trkpt>
      <trkpt lat="48.77614" lon="2.49017">
        <ele>99.2</ele>
        <time>2015-04-27T19:51:06.951Z</time>
      </trkpt>
      <trkpt lat="48.77622" lon="2.49019">
        <ele>98.7</ele>
        <time>2015-04-27T19:51:08.964Z</time>
      </trkpt>
      <trkpt lat="48.77627" lon="2.4902">
        <ele>98.5</ele>
        <time>2015-04-27T19:51:09.976Z</time>
      </trkpt>
      <trkpt lat="48.77635" lon="2.49023">
        <ele>97.6</ele>
        <time>2015-04-27T19:51:11.904Z</time>
      </trkpt>
      <trkpt lat="48.77639" lon="2.49024">
        <ele>97.4</ele>
        <time>2015-04-27T19:51:12.969Z</time>
      </trkpt>
      <trkpt lat="48.77647" lon="2.49027">
        <ele>97.6</ele>
        <time>2015-04-27T19:51:14.951Z</time>
      </trkpt>
      <trkpt lat="48.77652" lon="2.49028">
        <ele>97.5</ele>
        <time>2015-04-27T19:51:15.955Z</time>
      </trkpt>
      <trkpt lat="48.77656" lon="2.4903">
        <ele>97.3</ele>
        <time>2015-04-27T19:51:16.980Z</time>
      </trkpt>
      <trkpt lat="48.77661" lon="2.49032">
        <ele>96.9</ele>
        <time>2015-04-27T19:51:17.993Z</time>
      </trkpt>
      <trkpt lat="48.77669" lon="2.49036">
        <ele>97.1</ele>
        <time>2015-04-27T19:51:19.913Z</time>
      </trkpt>
      <trkpt lat="48.77673" lon="2.49038">
        <ele>96.7</ele>
        <time>2015-04-27T19:51:21.015Z</time>
      </trkpt>
      <trkpt lat="48.77681" lon="2.49041">
        <ele>95.8</ele>
        <time>2015-04-27T19:51:22.993Z</time>
      </trkpt>
      <trkpt lat="48.77685" lon="2.49044">
        <ele>96</ele>
        <time>2015-04-27T19:51:23.940Z</time>
      </trkpt>
      <trkpt lat="48.77689" lon="2.49047">
        <ele>96.4</ele>
        <time>2015-04-27T19:51:24.922Z</time>
      </trkpt>
      <trkpt lat="48.77694" lon="2.49049">
        <ele>96.4</ele>
        <time>2015-04-27T19:51:25.927Z</time>
      </trkpt>
      <trkpt lat="48.77699" lon="2.49051">
        <ele>96.3</ele>
        <time>2015-04-27T19:51:26.947Z</time>
      </trkpt>
      <trkpt lat="48.77704" lon="2.49054">
        <ele>96.3</ele>
        <time>2015-04-27T19:51:27.962Z</time>
      </trkpt>
      <trkpt lat="48.77709" lon="2.49056">
        <ele>96.6</ele>
        <time>2015-04-27T19:51:28.976Z</time>
      </trkpt>
      <trkpt lat="48.77715" lon="2.49059">
        <ele>96.6</ele>
        <time>2015-04-27T19:51:29.979Z</time>
      </trkpt>
      <trkpt lat="48.7772" lon="2.49062">
        <ele>96.7</ele>
        <time>2015-04-27T19:51:30.997Z</time>
      </trkpt>
      <trkpt lat="48.77726" lon="2.49063">
        <ele>96.5</ele>
        <time>2015-04-27T19:51:32.009Z</time>
      </trkpt>
      <trkpt lat="48.77731" lon="2.49065">
        <ele>96.3</ele>
        <time>2015-04-27T19:51:33.029Z</time>
      </trkpt>
      <trkpt lat="48.77737" lon="2.49067">
        <ele>96</ele>
        <time>2015-04-27T19:51:33.921Z</time>
      </trkpt>
      <trkpt lat="48.77742" lon="2.49069">
        <ele>95.6</ele>
        <time>2015-04-27T19:51:34.916Z</time>
      </trkpt>
      <trkpt lat="48.77747" lon="2.49072">
        <ele>95.6</ele>
        <time>2015-04-27T19:51:35.950Z</time>
      </trkpt>
      <trkpt lat="48.77753" lon="2.49075">
        <ele>95.5</ele>
        <time>2015-04-27T19:51:36.971Z</time>
      </trkpt>
      <trkpt lat="48.77759" lon="2.49078">
        <ele>95.5</ele>
        <time>2015-04-27T19:51:37.972Z</time>
      </trkpt>
      <trkpt lat="48.77765" lon="2.49081">
        <ele>95.8</ele>
        <time>2015-04-27T19:51:38.986Z</time>
      </trkpt>
      <trkpt lat="48.7777" lon="2.49084">
        <ele>96.1</ele>
        <time>2015-04-27T19:51:39.988Z</time>
      </trkpt>
      <trkpt lat="48.77776" lon="2.49088">
        <ele>96</ele>
        <time>2015-04-27T19:51:40.913Z</time>
      </trkpt>
      <trkpt lat="48.77781" lon="2.49092">
        <ele>96</ele>
        <time>2015-04-27T19:51:41.913Z</time>
      </trkpt>
      <trkpt lat="48.77787" lon="2.49096">
        <ele>96.1</ele>
        <time>2015-04-27T19:51:42.922Z</time>
      </trkpt>
      <trkpt lat="48.77792" lon="2.491">
        <ele>95.7</ele>
        <time>2015-04-27T19:51:43.927Z</time>
      </trkpt>
      <trkpt lat="48.77798" lon="2.49104">
        <ele>95.6</ele>
        <time>2015-04-27T19:51:44.959Z</time>
      </trkpt>
      <trkpt lat="48.77804" lon="2.49108">
        <ele>95.6</ele>
        <time>2015-04-27T19:51:45.974Z</time>
      </trkpt>
      <trkpt lat="48.7781" lon="2.49113">
        <ele>95.7</ele>
        <time>2015-04-27T19:51:46.991Z</time>
      </trkpt>
      <trkpt lat="48.77815" lon="2.49117">
        <ele>95.7</ele>
        <time>2015-04-27T19:51:48.004Z</time>
      </trkpt>
      <trkpt lat="48.77821" lon="2.49122">
        <ele>95.7</ele>
        <time>2015-04-27T19:51:48.911Z</time>
      </trkpt>
      <trkpt lat="48.77826" lon="2.49127">
        <ele>95.8</ele>
        <time>2015-04-27T19:51:49.915Z</time>
      </trkpt>
      <trkpt lat="48.77831" lon="2.49132">
        <ele>95.4</ele>
        <time>2015-04-27T19:51:50.940Z</time>
      </trkpt>
      <trkpt lat="48.77837" lon="2.49136">
        <ele>95.4</ele>
        <time>2015-04-27T19:51:51.964Z</time>
      </trkpt>
      <trkpt lat="48.77843" lon="2.49141">
        <ele>95.3</ele>
        <time>2015-04-27T19:51:52.987Z</time>
      </trkpt>
      <trkpt lat="48.77848" lon="2.49146">
        <ele>95</ele>
        <time>2015-04-27T19:51:53.913Z</time>
      </trkpt>
      <trkpt lat="48.77853" lon="2.49152">
        <ele>94.9</ele>
        <time>2015-04-27T19:51:54.922Z</time>
      </trkpt>
      <trkpt lat="48.77858" lon="2.49157">
        <ele>94.9</ele>
        <time>2015-04-27T19:51:55.913Z</time>
      </trkpt>
      <trkpt lat="48.77864" lon="2.49162">
        <ele>94.8</ele>
        <time>2015-04-27T19:51:56.922Z</time>
      </trkpt>
      <trkpt lat="48.77869" lon="2.49167">
        <ele>94.5</ele>
        <time>2015-04-27T19:51:57.940Z</time>
      </trkpt>
      <trkpt lat="48.77874" lon="2.49172">
        <ele>94</ele>
        <time>2015-04-27T19:51:58.950Z</time>
      </trkpt>
      <trkpt lat="48.77879" lon="2.49177">
        <ele>93.2</ele>
        <time>2015-04-27T19:51:59.963Z</time>
      </trkpt>
      <trkpt lat="48.77884" lon="2.49182">
        <ele>92.5</ele>
        <time>2015-04-27T19:52:00.887Z</time>
      </trkpt>
      <trkpt lat="48.77889" lon="2.49187">
        <ele>92.4</ele>
        <time>2015-04-27T19:52:01.936Z</time>
      </trkpt>
      <trkpt lat="48.77894" lon="2.49192">
        <ele>92.5</ele>
        <time>2015-04-27T19:52:02.957Z</time>
      </trkpt>
      <trkpt lat="48.77898" lon="2.49196">
        <ele>92.2</ele>
        <time>2015-04-27T19:52:03.952Z</time>
      </trkpt>
      <trkpt lat="48.77903" lon="2.49201">
        <ele>92</ele>
        <time>2015-04-27T19:52:04.961Z</time>
      </trkpt>
      <trkpt lat="48.77908" lon="2.49206">
        <ele>91.9</ele>
        <time>2015-04-27T19:52:05.970Z</time>
      </trkpt>
      <trkpt lat="48.77912" lon="2.49211">
        <ele>92</ele>
        <time>2015-04-27T19:52:07.002Z</time>
      </trkpt>
      <trkpt lat="48.77916" lon="2.49216">
        <ele>92.1</ele>
        <time>2015-04-27T19:52:07.902Z</time>
      </trkpt>
      <trkpt lat="48.77921" lon="2.49221">
        <ele>92.1</ele>
        <time>2015-04-27T19:52:08.932Z</time>
      </trkpt>
      <trkpt lat="48.77925" lon="2.49226">
        <ele>92.6</ele>
        <time>2015-04-27T19:52:09.933Z</time>
      </trkpt>
      <trkpt lat="48.77929" lon="2.4923">
        <ele>92.5</ele>
        <time>2015-04-27T19:52:10.936Z</time>
      </trkpt>
      <trkpt lat="48.77934" lon="2.49233">
        <ele>92.5</ele>
        <time>2015-04-27T19:52:11.947Z</time>
      </trkpt>
      <trkpt lat="48.7794" lon="2.49235">
        <ele>92.4</ele>
        <time>2015-04-27T19:52:12.959Z</time>
      </trkpt>
      <trkpt lat="48.77945" lon="2.49239">
        <ele>92.8</ele>
        <time>2015-04-27T19:52:13.963Z</time>
      </trkpt>
      <trkpt lat="48.7795" lon="2.49243">
        <ele>93</ele>
        <time>2015-04-27T19:52:14.988Z</time>
      </trkpt>
      <trkpt lat="48.77955" lon="2.49247">
        <ele>93.2</ele>
        <time>2015-04-27T19:52:16Z</time>
      </trkpt>
      <trkpt lat="48.7796" lon="2.49252">
        <ele>93.7</ele>
        <time>2015-04-27T19:52:16.912Z</time>
      </trkpt>
      <trkpt lat="48.77965" lon="2.49257">
        <ele>93.4</ele>
        <time>2015-04-27T19:52:17.933Z</time>
      </trkpt>
      <trkpt lat="48.77969" lon="2.49262">
        <ele>93.4</ele>
        <time>2015-04-27T19:52:18.938Z</time>
      </trkpt>
      <trkpt lat="48.77973" lon="2.49266">
        <ele>93.5</ele>
        <time>2015-04-27T19:52:19.947Z</time>
      </trkpt>
      <trkpt lat="48.77978" lon="2.49275">
        <ele>93.3</ele>
        <time>2015-04-27T19:52:21.991Z</time>
      </trkpt>
      <trkpt lat="48.77981" lon="2.49279">
        <ele>93.3</ele>
        <time>2015-04-27T19:52:23.009Z</time>
      </trkpt>
      <trkpt lat="48.77985" lon="2.49282">
        <ele>93.4</ele>
        <time>2015-04-27T19:52:23.919Z</time>
      </trkpt>
      <trkpt lat="48.7799" lon="2.49286">
        <ele>93.3</ele>
        <time>2015-04-27T19:52:24.922Z</time>
      </trkpt>
      <trkpt lat="48.77994" lon="2.4929">
        <ele>93.4</ele>
        <time>2015-04-27T19:52:25.961Z</time>
      </trkpt>
      <trkpt lat="48.77999" lon="2.49293">
        <ele>93.6</ele>
        <time>2015-04-27T19:52:26.991Z</time>
      </trkpt>
      <trkpt lat="48.78003" lon="2.49298">
        <ele>93.4</ele>
        <time>2015-04-27T19:52:28.013Z</time>
      </trkpt>
      <trkpt lat="48.78008" lon="2.49302">
        <ele>93.3</ele>
        <time>2015-04-27T19:52:28.912Z</time>
      </trkpt>
      <trkpt lat="48.78012" lon="2.49306">
        <ele>93.1</ele>
        <time>2015-04-27T19:52:29.932Z</time>
      </trkpt>
      <trkpt lat="48.78017" lon="2.4931">
        <ele>93.3</ele>
        <time>2015-04-27T19:52:30.938Z</time>
      </trkpt>
      <trkpt lat="48.78022" lon="2.49314">
        <ele>93.4</ele>
        <time>2015-04-27T19:52:31.953Z</time>
      </trkpt>
      <trkpt lat="48.78027" lon="2.49319">
        <ele>93.7</ele>
        <time>2015-04-27T19:52:32.965Z</time>
      </trkpt>
      <trkpt lat="48.78031" lon="2.49324">
        <ele>94</ele>
        <time>2015-04-27T19:52:33.973Z</time>
      </trkpt>
      <trkpt lat="48.78036" lon="2.49328">
        <ele>93.9</ele>
        <time>2015-04-27T19:52:34.888Z</time>
      </trkpt>
      <trkpt lat="48.78041" lon="2.49332">
        <ele>93.8</ele>
        <time>2015-04-27T19:52:35.912Z</time>
      </trkpt>
      <trkpt lat="48.78046" lon="2.49337">
        <ele>93.6</ele>
        <time>2015-04-27T19:52:36.956Z</time>
      </trkpt>
      <trkpt lat="48.7805" lon="2.49341">
        <ele>93.6</ele>
        <time>2015-04-27T19:52:37.970Z</time>
      </trkpt>
      <trkpt lat="48.78056" lon="2.49346">
        <ele>93.3</ele>
        <time>2015-04-27T19:52:38.988Z</time>
      </trkpt>
      <trkpt lat="48.78061" lon="2.4935">
        <ele>93.1</ele>
        <time>2015-04-27T19:52:40Z</time>
      </trkpt>
      <trkpt lat="48.78066" lon="2.49354">
        <ele>93.1</ele>
        <time>2015-04-27T19:52:40.927Z</time>
      </trkpt>
      <trkpt lat="48.78071" lon="2.49359">
        <ele>93</ele>
        <time>2015-04-27T19:52:41.917Z</time>
      </trkpt>
      <trkpt lat="48.78076" lon="2.49364">
        <ele>93</ele>
        <time>2015-04-27T19:52:42.921Z</time>
      </trkpt>
      <trkpt lat="48.78081" lon="2.49368">
        <ele>92.9</ele>
        <time>2015-04-27T19:52:43.939Z</time>
      </trkpt>
      <trkpt lat="48.78087" lon="2.49373">
        <ele>92.7</ele>
        <time>2015-04-27T19:52:44.949Z</time>
      </trkpt>
      <trkpt lat="48.78093" lon="2.49377">
        <ele>92.8</ele>
        <time>2015-04-27T19:52:45.970Z</time>
      </trkpt>
      <trkpt lat="48.78099" lon="2.49382">
        <ele>92.7</ele>
        <time>2015-04-27T19:52:46.981Z</time>
      </trkpt>
      <trkpt lat="48.78104" lon="2.49386">
        <ele>92.5</ele>
        <time>2015-04-27T19:52:47.997Z</time>
      </trkpt>
      <trkpt lat="48.78109" lon="2.49392">
        <ele>92.5</ele>
        <time>2015-04-27T19:52:48.951Z</time>
      </trkpt>
      <trkpt lat="48.78114" lon="2.49397">
        <ele>92.5</ele>
        <time>2015-04-27T19:52:49.915Z</time>
      </trkpt>
      <trkpt lat="48.78119" lon="2.49403">
        <ele>92.3</ele>
        <time>2015-04-27T19:52:50.934Z</time>
      </trkpt>
      <trkpt lat="48.78125" lon="2.49408">
        <ele>92</ele>
        <time>2015-04-27T19:52:51.950Z</time>
      </trkpt>
      <trkpt lat="48.7813" lon="2.49413">
        <ele>91.5</ele>
        <time>2015-04-27T19:52:52.968Z</time>
      </trkpt>
      <trkpt lat="48.78136" lon="2.49418">
        <ele>91</ele>
        <time>2015-04-27T19:52:54.011Z</time>
      </trkpt>
      <trkpt lat="48.78141" lon="2.49423">
        <ele>90.5</ele>
        <time>2015-04-27T19:52:54.910Z</time>
      </trkpt>
      <trkpt lat="48.78147" lon="2.49428">
        <ele>90.1</ele>
        <time>2015-04-27T19:52:55.944Z</time>
      </trkpt>
      <trkpt lat="48.78152" lon="2.49433">
        <ele>89.7</ele>
        <time>2015-04-27T19:52:56.965Z</time>
      </trkpt>
      <trkpt lat="48.78158" lon="2.49438">
        <ele>89.2</ele>
        <time>2015-04-27T19:52:57.987Z</time>
      </trkpt>
      <trkpt lat="48.78163" lon="2.49443">
        <ele>88.6</ele>
        <time>2015-04-27T19:52:58.996Z</time>
      </trkpt>
      <trkpt lat="48.78168" lon="2.49448">
        <ele>88.2</ele>
        <time>2015-04-27T19:52:59.922Z</time>
      </trkpt>
      <trkpt lat="48.78173" lon="2.49453">
        <ele>88.3</ele>
        <time>2015-04-27T19:53:00.937Z</time>
      </trkpt>
      <trkpt lat="48.78178" lon="2.4946">
        <ele>88.1</ele>
        <time>2015-04-27T19:53:01.965Z</time>
      </trkpt>
      <trkpt lat="48.78183" lon="2.49465">
        <ele>88.1</ele>
        <time>2015-04-27T19:53:02.973Z</time>
      </trkpt>
      <trkpt lat="48.78187" lon="2.4947">
        <ele>88.1</ele>
        <time>2015-04-27T19:53:03.981Z</time>
      </trkpt>
      <trkpt lat="48.78192" lon="2.49475">
        <ele>88.1</ele>
        <time>2015-04-27T19:53:04.986Z</time>
      </trkpt>
      <trkpt lat="48.78197" lon="2.4948">
        <ele>88.3</ele>
        <time>2015-04-27T19:53:05.880Z</time>
      </trkpt>
      <trkpt lat="48.78202" lon="2.49484">
        <ele>88.3</ele>
        <time>2015-04-27T19:53:06.903Z</time>
      </trkpt>
      <trkpt lat="48.78207" lon="2.49488">
        <ele>88.2</ele>
        <time>2015-04-27T19:53:07.929Z</time>
      </trkpt>
      <trkpt lat="48.78212" lon="2.49493">
        <ele>88.4</ele>
        <time>2015-04-27T19:53:08.973Z</time>
      </trkpt>
      <trkpt lat="48.78216" lon="2.49497">
        <ele>88.7</ele>
        <time>2015-04-27T19:53:09.928Z</time>
      </trkpt>
      <trkpt lat="48.78221" lon="2.49501">
        <ele>88.7</ele>
        <time>2015-04-27T19:53:10.951Z</time>
      </trkpt>
      <trkpt lat="48.78225" lon="2.49504">
        <ele>88.2</ele>
        <time>2015-04-27T19:53:11.962Z</time>
      </trkpt>
      <trkpt lat="48.78229" lon="2.49507">
        <ele>88</ele>
        <time>2015-04-27T19:53:12.985Z</time>
      </trkpt>
      <trkpt lat="48.78237" lon="2.4951">
        <ele>87.8</ele>
        <time>2015-04-27T19:53:14.925Z</time>
      </trkpt>
      <trkpt lat="48.78241" lon="2.49511">
        <ele>87.7</ele>
        <time>2015-04-27T19:53:15.951Z</time>
      </trkpt>
      <trkpt lat="48.7825" lon="2.49514">
        <ele>88</ele>
        <time>2015-04-27T19:53:17.918Z</time>
      </trkpt>
      <trkpt lat="48.78254" lon="2.49515">
        <ele>88.3</ele>
        <time>2015-04-27T19:53:18.933Z</time>
      </trkpt>
      <trkpt lat="48.78262" lon="2.49518">
        <ele>88.6</ele>
        <time>2015-04-27T19:53:20.987Z</time>
      </trkpt>
      <trkpt lat="48.78266" lon="2.49519">
        <ele>88.9</ele>
        <time>2015-04-27T19:53:22.020Z</time>
      </trkpt>
      <trkpt lat="48.78274" lon="2.49522">
        <ele>88.7</ele>
        <time>2015-04-27T19:53:25.001Z</time>
      </trkpt>
      <trkpt lat="48.78274" lon="2.49523">
        <ele>88.3</ele>
        <time>2015-04-27T19:53:25.892Z</time>
      </trkpt>
      <trkpt lat="48.78273" lon="2.49523">
        <ele>88.1</ele>
        <time>2015-04-27T19:54:36.901Z</time>
      </trkpt>
      <trkpt lat="48.78267" lon="2.49521">
        <ele>94</ele>
        <time>2015-04-27T19:54:37.915Z</time>
      </trkpt>
      <trkpt lat="48.78275" lon="2.4952">
        <ele>93.8</ele>
        <time>2015-04-27T19:54:40.958Z</time>
      </trkpt>
      <trkpt lat="48.78278" lon="2.49519">
        <ele>93.6</ele>
        <time>2015-04-27T19:54:41.966Z</time>
      </trkpt>
      <trkpt lat="48.78284" lon="2.4952">
        <ele>93.9</ele>
        <time>2015-04-27T19:54:44.006Z</time>
      </trkpt>
      <trkpt lat="48.78288" lon="2.49521">
        <ele>93.8</ele>
        <time>2015-04-27T19:54:44.974Z</time>
      </trkpt>
      <trkpt lat="48.78295" lon="2.49524">
        <ele>94</ele>
        <time>2015-04-27T19:54:46.949Z</time>
      </trkpt>
      <trkpt lat="48.78299" lon="2.49525">
        <ele>94.1</ele>
        <time>2015-04-27T19:54:47.983Z</time>
      </trkpt>
      <trkpt lat="48.78308" lon="2.49526">
        <ele>94.3</ele>
        <time>2015-04-27T19:54:49.922Z</time>
      </trkpt>
      <trkpt lat="48.78312" lon="2.49526">
        <ele>94.4</ele>
        <time>2015-04-27T19:54:51.001Z</time>
      </trkpt>
      <trkpt lat="48.7832" lon="2.49528">
        <ele>94</ele>
        <time>2015-04-27T19:54:53.941Z</time>
      </trkpt>
      <trkpt lat="48.78323" lon="2.49529">
        <ele>94.1</ele>
        <time>2015-04-27T19:54:54.958Z</time>
      </trkpt>
      <trkpt lat="48.78331" lon="2.4953">
        <ele>93.6</ele>
        <time>2015-04-27T19:54:57.929Z</time>
      </trkpt>
      <trkpt lat="48.78333" lon="2.49531">
        <ele>93.6</ele>
        <time>2015-04-27T19:54:58.919Z</time>
      </trkpt>
      <trkpt lat="48.78341" lon="2.49532">
        <ele>93.4</ele>
        <time>2015-04-27T19:55:01.962Z</time>
      </trkpt>
      <trkpt lat="48.78343" lon="2.49532">
        <ele>92.9</ele>
        <time>2015-04-27T19:55:02.974Z</time>
      </trkpt>
      <trkpt lat="48.7835" lon="2.49536">
        <ele>91.9</ele>
        <time>2015-04-27T19:55:07.966Z</time>
      </trkpt>
      <trkpt lat="48.78352" lon="2.49537">
        <ele>91.8</ele>
        <time>2015-04-27T19:55:08.988Z</time>
      </trkpt>
      <trkpt lat="48.78359" lon="2.49539">
        <ele>91</ele>
        <time>2015-04-27T19:55:11.956Z</time>
      </trkpt>
      <trkpt lat="48.78362" lon="2.4954">
        <ele>91</ele>
        <time>2015-04-27T19:55:12.924Z</time>
      </trkpt>
      <trkpt lat="48.78368" lon="2.4954">
        <ele>91</ele>
        <time>2015-04-27T19:55:15.980Z</time>
      </trkpt>
      <trkpt lat="48.78371" lon="2.4954">
        <ele>91.2</ele>
        <time>2015-04-27T19:55:16.988Z</time>
      </trkpt>
      <trkpt lat="48.78377" lon="2.4954">
        <ele>91.3</ele>
        <time>2015-04-27T19:55:19.041Z</time>
      </trkpt>
      <trkpt lat="48.7838" lon="2.49539">
        <ele>91.1</ele>
        <time>2015-04-27T19:55:19.936Z</time>
      </trkpt>
      <trkpt lat="48.78387" lon="2.4954">
        <ele>90.9</ele>
        <time>2015-04-27T19:55:23.221Z</time>
      </trkpt>
      <trkpt lat="48.7839" lon="2.4954">
        <ele>90.7</ele>
        <time>2015-04-27T19:55:24.003Z</time>
      </trkpt>
      <trkpt lat="48.78396" lon="2.49541">
        <ele>91.5</ele>
        <time>2015-04-27T19:55:26.929Z</time>
      </trkpt>
      <trkpt lat="48.78399" lon="2.49541">
        <ele>91.8</ele>
        <time>2015-04-27T19:55:27.954Z</time>
      </trkpt>
      <trkpt lat="48.78407" lon="2.4954">
        <ele>92</ele>
        <time>2015-04-27T19:55:30.977Z</time>
      </trkpt>
      <trkpt lat="48.78409" lon="2.4954">
        <ele>92.2</ele>
        <time>2015-04-27T19:55:31.981Z</time>
      </trkpt>
      <trkpt lat="48.78416" lon="2.49541">
        <ele>92.8</ele>
        <time>2015-04-27T19:55:35.665Z</time>
      </trkpt>
      <trkpt lat="48.78419" lon="2.49542">
        <ele>92.9</ele>
        <time>2015-04-27T19:55:35.976Z</time>
      </trkpt>
      <trkpt lat="48.78428" lon="2.49542">
        <ele>93.1</ele>
        <time>2015-04-27T19:55:38.925Z</time>
      </trkpt>
      <trkpt lat="48.78431" lon="2.49541">
        <ele>92.9</ele>
        <time>2015-04-27T19:55:39.947Z</time>
      </trkpt>
      <trkpt lat="48.78437" lon="2.49541">
        <ele>92.9</ele>
        <time>2015-04-27T19:55:41.964Z</time>
      </trkpt>
      <trkpt lat="48.78441" lon="2.49541">
        <ele>92.7</ele>
        <time>2015-04-27T19:55:42.989Z</time>
      </trkpt>
      <trkpt lat="48.78447" lon="2.49542">
        <ele>92.9</ele>
        <time>2015-04-27T19:55:45.868Z</time>
      </trkpt>
      <trkpt lat="48.7845" lon="2.49542">
        <ele>92.8</ele>
        <time>2015-04-27T19:55:45.918Z</time>
      </trkpt>
      <trkpt lat="48.78456" lon="2.49542">
        <ele>92.9</ele>
        <time>2015-04-27T19:55:48.003Z</time>
      </trkpt>
      <trkpt lat="48.78459" lon="2.49542">
        <ele>92.7</ele>
        <time>2015-04-27T19:55:48.926Z</time>
      </trkpt>
      <trkpt lat="48.78467" lon="2.49542">
        <ele>92.9</ele>
        <time>2015-04-27T19:55:51.925Z</time>
      </trkpt>
      <trkpt lat="48.78469" lon="2.49542">
        <ele>93</ele>
        <time>2015-04-27T19:55:52.967Z</time>
      </trkpt>
      <trkpt lat="48.78474" lon="2.49541">
        <ele>93</ele>
        <time>2015-04-27T19:56:45.996Z</time>
      </trkpt>
      <trkpt lat="48.78486" lon="2.49536">
        <ele>93.5</ele>
        <time>2015-04-27T19:56:47.023Z</time>
      </trkpt>
      <trkpt lat="48.78493" lon="2.49535">
        <ele>93.7</ele>
        <time>2015-04-27T19:56:49.956Z</time>
      </trkpt>
      <trkpt lat="48.78496" lon="2.49534">
        <ele>93.7</ele>
        <time>2015-04-27T19:56:51.002Z</time>
      </trkpt>
      <trkpt lat="48.78504" lon="2.49533">
        <ele>94.4</ele>
        <time>2015-04-27T19:56:53.952Z</time>
      </trkpt>
      <trkpt lat="48.78507" lon="2.49532">
        <ele>94.5</ele>
        <time>2015-04-27T19:56:54.961Z</time>
      </trkpt>
      <trkpt lat="48.78515" lon="2.49531">
        <ele>94.8</ele>
        <time>2015-04-27T19:56:56.981Z</time>
      </trkpt>
      <trkpt lat="48.78519" lon="2.49531">
        <ele>94.9</ele>
        <time>2015-04-27T19:56:58.035Z</time>
      </trkpt>
      <trkpt lat="48.78527" lon="2.49529">
        <ele>95.1</ele>
        <time>2015-04-27T19:56:59.921Z</time>
      </trkpt>
      <trkpt lat="48.78532" lon="2.49528">
        <ele>95</ele>
        <time>2015-04-27T19:57:00.928Z</time>
      </trkpt>
      <trkpt lat="48.78536" lon="2.49527">
        <ele>95.2</ele>
        <time>2015-04-27T19:57:01.938Z</time>
      </trkpt>
      <trkpt lat="48.78541" lon="2.49524">
        <ele>95.9</ele>
        <time>2015-04-27T19:57:02.952Z</time>
      </trkpt>
      <trkpt lat="48.78546" lon="2.49524">
        <ele>96</ele>
        <time>2015-04-27T19:57:03.961Z</time>
      </trkpt>
      <trkpt lat="48.78552" lon="2.49523">
        <ele>96.1</ele>
        <time>2015-04-27T19:57:04.878Z</time>
      </trkpt>
      <trkpt lat="48.78557" lon="2.49522">
        <ele>96.1</ele>
        <time>2015-04-27T19:57:06.345Z</time>
      </trkpt>
      <trkpt lat="48.78561" lon="2.49522">
        <ele>96.2</ele>
        <time>2015-04-27T19:57:07Z</time>
      </trkpt>
      <trkpt lat="48.78565" lon="2.49522">
        <ele>96.1</ele>
        <time>2015-04-27T19:57:07.883Z</time>
      </trkpt>
      <trkpt lat="48.7857" lon="2.49522">
        <ele>96.5</ele>
        <time>2015-04-27T19:57:08.921Z</time>
      </trkpt>
      <trkpt lat="48.78576" lon="2.49521">
        <ele>96.8</ele>
        <time>2015-04-27T19:57:09.933Z</time>
      </trkpt>
      <trkpt lat="48.78581" lon="2.49521">
        <ele>96.9</ele>
        <time>2015-04-27T19:57:10.936Z</time>
      </trkpt>
      <trkpt lat="48.78586" lon="2.49523">
        <ele>97.1</ele>
        <time>2015-04-27T19:57:11.956Z</time>
      </trkpt>
      <trkpt lat="48.78591" lon="2.49524">
        <ele>97.8</ele>
        <time>2015-04-27T19:57:12.964Z</time>
      </trkpt>
      <trkpt lat="48.78597" lon="2.49526">
        <ele>98.3</ele>
        <time>2015-04-27T19:57:13.984Z</time>
      </trkpt>
      <trkpt lat="48.78602" lon="2.49525">
        <ele>98.2</ele>
        <time>2015-04-27T19:57:14.992Z</time>
      </trkpt>
      <trkpt lat="48.78608" lon="2.49525">
        <ele>98.1</ele>
        <time>2015-04-27T19:57:15.908Z</time>
      </trkpt>
      <trkpt lat="48.78614" lon="2.49525">
        <ele>97.9</ele>
        <time>2015-04-27T19:57:16.910Z</time>
      </trkpt>
      <trkpt lat="48.78622" lon="2.49524">
        <ele>97.6</ele>
        <time>2015-04-27T19:57:18.975Z</time>
      </trkpt>
      <trkpt lat="48.78626" lon="2.49524">
        <ele>97.2</ele>
        <time>2015-04-27T19:57:19.982Z</time>
      </trkpt>
      <trkpt lat="48.78634" lon="2.49522">
        <ele>96.4</ele>
        <time>2015-04-27T19:57:21.955Z</time>
      </trkpt>
      <trkpt lat="48.78638" lon="2.49522">
        <ele>96.3</ele>
        <time>2015-04-27T19:57:22.973Z</time>
      </trkpt>
      <trkpt lat="48.78642" lon="2.49523">
        <ele>96.3</ele>
        <time>2015-04-27T19:57:23.916Z</time>
      </trkpt>
      <trkpt lat="48.78647" lon="2.49523">
        <ele>96.5</ele>
        <time>2015-04-27T19:57:24.922Z</time>
      </trkpt>
      <trkpt lat="48.78656" lon="2.49523">
        <ele>96.7</ele>
        <time>2015-04-27T19:57:26.940Z</time>
      </trkpt>
      <trkpt lat="48.78659" lon="2.49523">
        <ele>96.6</ele>
        <time>2015-04-27T19:57:27.958Z</time>
      </trkpt>
      <trkpt lat="48.78666" lon="2.49524">
        <ele>96.6</ele>
        <time>2015-04-27T19:57:29.876Z</time>
      </trkpt>
      <trkpt lat="48.7867" lon="2.49524">
        <ele>96.4</ele>
        <time>2015-04-27T19:57:30.983Z</time>
      </trkpt>
      <trkpt lat="48.78679" lon="2.49524">
        <ele>96.2</ele>
        <time>2015-04-27T19:57:32.999Z</time>
      </trkpt>
      <trkpt lat="48.78681" lon="2.49524">
        <ele>96</ele>
        <time>2015-04-27T19:57:33.923Z</time>
      </trkpt>
      <trkpt lat="48.78689" lon="2.49524">
        <ele>96.2</ele>
        <time>2015-04-27T19:57:35.908Z</time>
      </trkpt>
      <trkpt lat="48.78693" lon="2.49524">
        <ele>96.2</ele>
        <time>2015-04-27T19:57:36.909Z</time>
      </trkpt>
      <trkpt lat="48.78696" lon="2.49525">
        <ele>96.2</ele>
        <time>2015-04-27T19:57:37.915Z</time>
      </trkpt>
      <trkpt lat="48.78704" lon="2.49525">
        <ele>96.7</ele>
        <time>2015-04-27T19:57:38.928Z</time>
      </trkpt>
      <trkpt lat="48.78712" lon="2.49527">
        <ele>96.9</ele>
        <time>2015-04-27T19:57:40.885Z</time>
      </trkpt>
      <trkpt lat="48.78715" lon="2.49524">
        <ele>97.9</ele>
        <time>2015-04-27T19:57:41.925Z</time>
      </trkpt>
      <trkpt lat="48.78723" lon="2.49522">
        <ele>98.4</ele>
        <time>2015-04-27T19:57:43.930Z</time>
      </trkpt>
      <trkpt lat="48.78728" lon="2.49523">
        <ele>98.5</ele>
        <time>2015-04-27T19:57:44.946Z</time>
      </trkpt>
      <trkpt lat="48.78737" lon="2.49524">
        <ele>98.4</ele>
        <time>2015-04-27T19:57:46.993Z</time>
      </trkpt>
      <trkpt lat="48.78742" lon="2.49523">
        <ele>98.1</ele>
        <time>2015-04-27T19:57:47.911Z</time>
      </trkpt>
      <trkpt lat="48.78746" lon="2.49522">
        <ele>98</ele>
        <time>2015-04-27T19:57:48.907Z</time>
      </trkpt>
      <trkpt lat="48.78751" lon="2.49523">
        <ele>98.3</ele>
        <time>2015-04-27T19:57:49.918Z</time>
      </trkpt>
      <trkpt lat="48.78756" lon="2.49523">
        <ele>98.4</ele>
        <time>2015-04-27T19:57:50.947Z</time>
      </trkpt>
      <trkpt lat="48.78761" lon="2.49523">
        <ele>98.3</ele>
        <time>2015-04-27T19:57:51.982Z</time>
      </trkpt>
      <trkpt lat="48.78766" lon="2.49523">
        <ele>98.4</ele>
        <time>2015-04-27T19:57:52.963Z</time>
      </trkpt>
      <trkpt lat="48.78772" lon="2.49522">
        <ele>98.5</ele>
        <time>2015-04-27T19:57:53.974Z</time>
      </trkpt>
      <trkpt lat="48.78777" lon="2.49522">
        <ele>98.4</ele>
        <time>2015-04-27T19:57:55.094Z</time>
      </trkpt>
      <trkpt lat="48.78782" lon="2.49523">
        <ele>98.5</ele>
        <time>2015-04-27T19:57:55.902Z</time>
      </trkpt>
      <trkpt lat="48.78788" lon="2.49525">
        <ele>97.9</ele>
        <time>2015-04-27T19:57:57.030Z</time>
      </trkpt>
      <trkpt lat="48.78795" lon="2.49526">
        <ele>97</ele>
        <time>2015-04-27T19:57:57.942Z</time>
      </trkpt>
      <trkpt lat="48.78801" lon="2.49526">
        <ele>96.9</ele>
        <time>2015-04-27T19:57:58.935Z</time>
      </trkpt>
      <trkpt lat="48.78806" lon="2.49526">
        <ele>96.8</ele>
        <time>2015-04-27T19:57:59.942Z</time>
      </trkpt>
      <trkpt lat="48.78811" lon="2.49526">
        <ele>96.9</ele>
        <time>2015-04-27T19:58:00.948Z</time>
      </trkpt>
      <trkpt lat="48.78816" lon="2.49527">
        <ele>97</ele>
        <time>2015-04-27T19:58:01.971Z</time>
      </trkpt>
      <trkpt lat="48.7882" lon="2.49526">
        <ele>97.2</ele>
        <time>2015-04-27T19:58:02.981Z</time>
      </trkpt>
      <trkpt lat="48.78825" lon="2.49526">
        <ele>97.6</ele>
        <time>2015-04-27T19:58:04.083Z</time>
      </trkpt>
      <trkpt lat="48.78833" lon="2.49524">
        <ele>97.9</ele>
        <time>2015-04-27T19:58:06.005Z</time>
      </trkpt>
      <trkpt lat="48.78836" lon="2.49522">
        <ele>97.8</ele>
        <time>2015-04-27T19:58:06.917Z</time>
      </trkpt>
      <trkpt lat="48.78841" lon="2.49522">
        <ele>98.4</ele>
        <time>2015-04-27T19:58:07.949Z</time>
      </trkpt>
      <trkpt lat="48.78846" lon="2.49523">
        <ele>98.7</ele>
        <time>2015-04-27T19:58:08.952Z</time>
      </trkpt>
      <trkpt lat="48.78851" lon="2.49522">
        <ele>98.6</ele>
        <time>2015-04-27T19:58:09.927Z</time>
      </trkpt>
      <trkpt lat="48.78857" lon="2.49523">
        <ele>98.8</ele>
        <time>2015-04-27T19:58:10.898Z</time>
      </trkpt>
      <trkpt lat="48.78863" lon="2.49524">
        <ele>98.8</ele>
        <time>2015-04-27T19:58:11.931Z</time>
      </trkpt>
      <trkpt lat="48.78868" lon="2.49525">
        <ele>98.9</ele>
        <time>2015-04-27T19:58:12.940Z</time>
      </trkpt>
      <trkpt lat="48.78873" lon="2.49526">
        <ele>99</ele>
        <time>2015-04-27T19:58:13.946Z</time>
      </trkpt>
      <trkpt lat="48.78879" lon="2.49526">
        <ele>99.3</ele>
        <time>2015-04-27T19:58:14.952Z</time>
      </trkpt>
      <trkpt lat="48.78884" lon="2.49526">
        <ele>99.2</ele>
        <time>2015-04-27T19:58:15.961Z</time>
      </trkpt>
      <trkpt lat="48.78889" lon="2.49527">
        <ele>99.5</ele>
        <time>2015-04-27T19:58:16.964Z</time>
      </trkpt>
      <trkpt lat="48.78893" lon="2.49528">
        <ele>99.5</ele>
        <time>2015-04-27T19:58:17.932Z</time>
      </trkpt>
      <trkpt lat="48.78898" lon="2.49528">
        <ele>99.2</ele>
        <time>2015-04-27T19:58:18.917Z</time>
      </trkpt>
      <trkpt lat="48.78902" lon="2.49529">
        <ele>99</ele>
        <time>2015-04-27T19:58:19.930Z</time>
      </trkpt>
      <trkpt lat="48.78907" lon="2.49531">
        <ele>98.9</ele>
        <time>2015-04-27T19:58:20.935Z</time>
      </trkpt>
      <trkpt lat="48.78913" lon="2.49532">
        <ele>98.5</ele>
        <time>2015-04-27T19:58:21.985Z</time>
      </trkpt>
      <trkpt lat="48.78917" lon="2.49534">
        <ele>98.7</ele>
        <time>2015-04-27T19:58:22.952Z</time>
      </trkpt>
      <trkpt lat="48.78924" lon="2.49538">
        <ele>99.4</ele>
        <time>2015-04-27T19:58:25.002Z</time>
      </trkpt>
      <trkpt lat="48.7893" lon="2.49542">
        <ele>98.7</ele>
        <time>2015-04-27T19:58:25.928Z</time>
      </trkpt>
      <trkpt lat="48.78936" lon="2.49545">
        <ele>97.7</ele>
        <time>2015-04-27T19:58:26.949Z</time>
      </trkpt>
      <trkpt lat="48.78942" lon="2.49548">
        <ele>97</ele>
        <time>2015-04-27T19:58:27.966Z</time>
      </trkpt>
      <trkpt lat="48.78947" lon="2.49552">
        <ele>96.7</ele>
        <time>2015-04-27T19:58:29.582Z</time>
      </trkpt>
      <trkpt lat="48.78952" lon="2.49555">
        <ele>96.5</ele>
        <time>2015-04-27T19:58:29.963Z</time>
      </trkpt>
      <trkpt lat="48.78956" lon="2.49559">
        <ele>96.5</ele>
        <time>2015-04-27T19:58:30.973Z</time>
      </trkpt>
      <trkpt lat="48.7896" lon="2.49562">
        <ele>96.5</ele>
        <time>2015-04-27T19:58:31.978Z</time>
      </trkpt>
      <trkpt lat="48.78969" lon="2.49566">
        <ele>96</ele>
        <time>2015-04-27T19:58:34.714Z</time>
      </trkpt>
      <trkpt lat="48.78973" lon="2.49568">
        <ele>95.7</ele>
        <time>2015-04-27T19:58:34.882Z</time>
      </trkpt>
      <trkpt lat="48.78977" lon="2.49571">
        <ele>95.7</ele>
        <time>2015-04-27T19:58:35.956Z</time>
      </trkpt>
      <trkpt lat="48.78981" lon="2.49574">
        <ele>95.3</ele>
        <time>2015-04-27T19:58:36.947Z</time>
      </trkpt>
      <trkpt lat="48.78986" lon="2.49578">
        <ele>95.4</ele>
        <time>2015-04-27T19:58:37.959Z</time>
      </trkpt>
      <trkpt lat="48.7899" lon="2.49581">
        <ele>95.2</ele>
        <time>2015-04-27T19:58:38.963Z</time>
      </trkpt>
      <trkpt lat="48.78994" lon="2.49583">
        <ele>94.9</ele>
        <time>2015-04-27T19:58:40.802Z</time>
      </trkpt>
      <trkpt lat="48.78999" lon="2.49586">
        <ele>95.1</ele>
        <time>2015-04-27T19:58:40.875Z</time>
      </trkpt>
      <trkpt lat="48.79004" lon="2.49589">
        <ele>94.9</ele>
        <time>2015-04-27T19:58:41.901Z</time>
      </trkpt>
      <trkpt lat="48.79009" lon="2.49593">
        <ele>94.9</ele>
        <time>2015-04-27T19:58:42.905Z</time>
      </trkpt>
      <trkpt lat="48.79014" lon="2.49596">
        <ele>95</ele>
        <time>2015-04-27T19:58:43.926Z</time>
      </trkpt>
      <trkpt lat="48.7902" lon="2.49599">
        <ele>94.8</ele>
        <time>2015-04-27T19:58:44.936Z</time>
      </trkpt>
      <trkpt lat="48.79026" lon="2.49602">
        <ele>94.4</ele>
        <time>2015-04-27T19:58:45.947Z</time>
      </trkpt>
      <trkpt lat="48.79031" lon="2.49605">
        <ele>94.5</ele>
        <time>2015-04-27T19:58:46.953Z</time>
      </trkpt>
      <trkpt lat="48.79037" lon="2.49608">
        <ele>94.5</ele>
        <time>2015-04-27T19:58:47.966Z</time>
      </trkpt>
      <trkpt lat="48.79044" lon="2.4961">
        <ele>94.6</ele>
        <time>2015-04-27T19:58:48.974Z</time>
      </trkpt>
      <trkpt lat="48.7905" lon="2.49613">
        <ele>95.1</ele>
        <time>2015-04-27T19:58:49.988Z</time>
      </trkpt>
      <trkpt lat="48.79056" lon="2.49617">
        <ele>95.1</ele>
        <time>2015-04-27T19:58:50.998Z</time>
      </trkpt>
      <trkpt lat="48.79062" lon="2.4962">
        <ele>95.1</ele>
        <time>2015-04-27T19:58:51.927Z</time>
      </trkpt>
      <trkpt lat="48.79067" lon="2.49624">
        <ele>94.6</ele>
        <time>2015-04-27T19:58:52.921Z</time>
      </trkpt>
      <trkpt lat="48.79072" lon="2.49627">
        <ele>93.8</ele>
        <time>2015-04-27T19:58:54Z</time>
      </trkpt>
      <trkpt lat="48.79078" lon="2.4963">
        <ele>93.3</ele>
        <time>2015-04-27T19:58:54.905Z</time>
      </trkpt>
      <trkpt lat="48.79083" lon="2.49635">
        <ele>93.3</ele>
        <time>2015-04-27T19:58:55.935Z</time>
      </trkpt>
      <trkpt lat="48.79089" lon="2.49638">
        <ele>93.1</ele>
        <time>2015-04-27T19:58:56.948Z</time>
      </trkpt>
      <trkpt lat="48.79093" lon="2.49643">
        <ele>93.1</ele>
        <time>2015-04-27T19:58:57.953Z</time>
      </trkpt>
      <trkpt lat="48.79099" lon="2.49647">
        <ele>93.3</ele>
        <time>2015-04-27T19:58:58.936Z</time>
      </trkpt>
      <trkpt lat="48.79105" lon="2.4965">
        <ele>93.5</ele>
        <time>2015-04-27T19:58:59.908Z</time>
      </trkpt>
      <trkpt lat="48.79111" lon="2.49653">
        <ele>93.6</ele>
        <time>2015-04-27T19:59:00.926Z</time>
      </trkpt>
      <trkpt lat="48.79117" lon="2.49657">
        <ele>93.8</ele>
        <time>2015-04-27T19:59:01.942Z</time>
      </trkpt>
      <trkpt lat="48.79123" lon="2.4966">
        <ele>93.4</ele>
        <time>2015-04-27T19:59:03.008Z</time>
      </trkpt>
      <trkpt lat="48.79129" lon="2.49663">
        <ele>93.2</ele>
        <time>2015-04-27T19:59:04.024Z</time>
      </trkpt>
      <trkpt lat="48.79135" lon="2.49666">
        <ele>92.5</ele>
        <time>2015-04-27T19:59:04.902Z</time>
      </trkpt>
      <trkpt lat="48.79142" lon="2.49669">
        <ele>92.7</ele>
        <time>2015-04-27T19:59:05.925Z</time>
      </trkpt>
      <trkpt lat="48.79149" lon="2.49672">
        <ele>92.6</ele>
        <time>2015-04-27T19:59:06.933Z</time>
      </trkpt>
      <trkpt lat="48.79155" lon="2.49675">
        <ele>92.5</ele>
        <time>2015-04-27T19:59:07.961Z</time>
      </trkpt>
      <trkpt lat="48.79162" lon="2.49679">
        <ele>92.2</ele>
        <time>2015-04-27T19:59:08.976Z</time>
      </trkpt>
      <trkpt lat="48.79169" lon="2.49683">
        <ele>92</ele>
        <time>2015-04-27T19:59:10.003Z</time>
      </trkpt>
      <trkpt lat="48.79176" lon="2.49685">
        <ele>92</ele>
        <time>2015-04-27T19:59:10.901Z</time>
      </trkpt>
      <trkpt lat="48.79182" lon="2.49689">
        <ele>91.8</ele>
        <time>2015-04-27T19:59:11.916Z</time>
      </trkpt>
      <trkpt lat="48.79188" lon="2.49692">
        <ele>91.6</ele>
        <time>2015-04-27T19:59:12.927Z</time>
      </trkpt>
      <trkpt lat="48.79193" lon="2.49695">
        <ele>92</ele>
        <time>2015-04-27T19:59:13.873Z</time>
      </trkpt>
      <trkpt lat="48.79197" lon="2.49699">
        <ele>92</ele>
        <time>2015-04-27T19:59:14.923Z</time>
      </trkpt>
      <trkpt lat="48.79201" lon="2.49704">
        <ele>92.4</ele>
        <time>2015-04-27T19:59:15.926Z</time>
      </trkpt>
      <trkpt lat="48.79209" lon="2.49707">
        <ele>92.7</ele>
        <time>2015-04-27T19:59:16.957Z</time>
      </trkpt>
      <trkpt lat="48.79214" lon="2.49711">
        <ele>92.5</ele>
        <time>2015-04-27T19:59:18.144Z</time>
      </trkpt>
      <trkpt lat="48.79219" lon="2.49716">
        <ele>92.4</ele>
        <time>2015-04-27T19:59:18.898Z</time>
      </trkpt>
      <trkpt lat="48.79223" lon="2.4972">
        <ele>92.2</ele>
        <time>2015-04-27T19:59:19.901Z</time>
      </trkpt>
      <trkpt lat="48.79228" lon="2.49723">
        <ele>92.4</ele>
        <time>2015-04-27T19:59:20.981Z</time>
      </trkpt>
      <trkpt lat="48.79234" lon="2.49726">
        <ele>92.5</ele>
        <time>2015-04-27T19:59:22.003Z</time>
      </trkpt>
      <trkpt lat="48.79239" lon="2.49729">
        <ele>92.6</ele>
        <time>2015-04-27T19:59:22.894Z</time>
      </trkpt>
      <trkpt lat="48.79244" lon="2.49732">
        <ele>93.1</ele>
        <time>2015-04-27T19:59:23.908Z</time>
      </trkpt>
      <trkpt lat="48.79251" lon="2.49736">
        <ele>93.4</ele>
        <time>2015-04-27T19:59:24.918Z</time>
      </trkpt>
      <trkpt lat="48.79256" lon="2.49739">
        <ele>93.5</ele>
        <time>2015-04-27T19:59:25.996Z</time>
      </trkpt>
      <trkpt lat="48.79261" lon="2.49742">
        <ele>93.4</ele>
        <time>2015-04-27T19:59:26.916Z</time>
      </trkpt>
      <trkpt lat="48.79265" lon="2.49744">
        <ele>93.4</ele>
        <time>2015-04-27T19:59:27.916Z</time>
      </trkpt>
      <trkpt lat="48.79272" lon="2.49747">
        <ele>93.1</ele>
        <time>2015-04-27T19:59:28.919Z</time>
      </trkpt>
      <trkpt lat="48.79277" lon="2.4975">
        <ele>92.9</ele>
        <time>2015-04-27T19:59:29.947Z</time>
      </trkpt>
      <trkpt lat="48.79281" lon="2.49752">
        <ele>92.6</ele>
        <time>2015-04-27T19:59:30.956Z</time>
      </trkpt>
      <trkpt lat="48.79289" lon="2.49757">
        <ele>92.4</ele>
        <time>2015-04-27T19:59:32.993Z</time>
      </trkpt>
      <trkpt lat="48.79293" lon="2.4976">
        <ele>92.3</ele>
        <time>2015-04-27T19:59:34.014Z</time>
      </trkpt>
      <trkpt lat="48.79297" lon="2.49764">
        <ele>92</ele>
        <time>2015-04-27T19:59:34.910Z</time>
      </trkpt>
      <trkpt lat="48.79301" lon="2.49767">
        <ele>91.5</ele>
        <time>2015-04-27T19:59:35.921Z</time>
      </trkpt>
      <trkpt lat="48.79308" lon="2.49774">
        <ele>91.3</ele>
        <time>2015-04-27T19:59:37.940Z</time>
      </trkpt>
      <trkpt lat="48.7931" lon="2.49777">
        <ele>91</ele>
        <time>2015-04-27T19:59:38.946Z</time>
      </trkpt>
      <trkpt lat="48.79317" lon="2.49781">
        <ele>91</ele>
        <time>2015-04-27T19:59:40.922Z</time>
      </trkpt>
      <trkpt lat="48.7932" lon="2.49783">
        <ele>91.1</ele>
        <time>2015-04-27T19:59:41.943Z</time>
      </trkpt>
      <trkpt lat="48.79327" lon="2.49786">
        <ele>91.7</ele>
        <time>2015-04-27T19:59:44.939Z</time>
      </trkpt>
      <trkpt lat="48.79329" lon="2.49786">
        <ele>92.5</ele>
        <time>2015-04-27T19:59:45.937Z</time>
      </trkpt>
      <trkpt lat="48.79334" lon="2.49796">
        <ele>91.1</ele>
        <time>2015-04-27T20:00:04.967Z</time>
      </trkpt>
      <trkpt lat="48.79336" lon="2.49798">
        <ele>91.6</ele>
        <time>2015-04-27T20:00:05.974Z</time>
      </trkpt>
      <trkpt lat="48.79343" lon="2.49803">
        <ele>92.2</ele>
        <time>2015-04-27T20:00:07.994Z</time>
      </trkpt>
      <trkpt lat="48.79348" lon="2.49805">
        <ele>92.1</ele>
        <time>2015-04-27T20:00:09.018Z</time>
      </trkpt>
      <trkpt lat="48.79353" lon="2.49807">
        <ele>92</ele>
        <time>2015-04-27T20:00:09.940Z</time>
      </trkpt>
      <trkpt lat="48.79357" lon="2.49809">
        <ele>92</ele>
        <time>2015-04-27T20:00:10.946Z</time>
      </trkpt>
      <trkpt lat="48.79362" lon="2.49811">
        <ele>92.2</ele>
        <time>2015-04-27T20:00:11.950Z</time>
      </trkpt>
      <trkpt lat="48.79367" lon="2.49812">
        <ele>92.4</ele>
        <time>2015-04-27T20:00:12.959Z</time>
      </trkpt>
      <trkpt lat="48.79372" lon="2.49814">
        <ele>92.2</ele>
        <time>2015-04-27T20:00:13.966Z</time>
      </trkpt>
      <trkpt lat="48.79377" lon="2.49816">
        <ele>92</ele>
        <time>2015-04-27T20:00:14.977Z</time>
      </trkpt>
      <trkpt lat="48.79384" lon="2.49821">
        <ele>92.2</ele>
        <time>2015-04-27T20:00:16.908Z</time>
      </trkpt>
      <trkpt lat="48.79388" lon="2.49824">
        <ele>92.1</ele>
        <time>2015-04-27T20:00:17.942Z</time>
      </trkpt>
      <trkpt lat="48.79396" lon="2.49828">
        <ele>91.9</ele>
        <time>2015-04-27T20:00:19.913Z</time>
      </trkpt>
      <trkpt lat="48.794" lon="2.49831">
        <ele>91.8</ele>
        <time>2015-04-27T20:00:20.923Z</time>
      </trkpt>
      <trkpt lat="48.79408" lon="2.49836">
        <ele>91.7</ele>
        <time>2015-04-27T20:00:22.933Z</time>
      </trkpt>
      <trkpt lat="48.79412" lon="2.49839">
        <ele>91.8</ele>
        <time>2015-04-27T20:00:23.930Z</time>
      </trkpt>
      <trkpt lat="48.79416" lon="2.49842">
        <ele>91.8</ele>
        <time>2015-04-27T20:00:24.937Z</time>
      </trkpt>
      <trkpt lat="48.79421" lon="2.49845">
        <ele>91.8</ele>
        <time>2015-04-27T20:00:25.947Z</time>
      </trkpt>
      <trkpt lat="48.79425" lon="2.49847">
        <ele>92.2</ele>
        <time>2015-04-27T20:00:26.971Z</time>
      </trkpt>
      <trkpt lat="48.79429" lon="2.4985">
        <ele>92.8</ele>
        <time>2015-04-27T20:00:27.985Z</time>
      </trkpt>
      <trkpt lat="48.79437" lon="2.49856">
        <ele>93.3</ele>
        <time>2015-04-27T20:00:29.903Z</time>
      </trkpt>
      <trkpt lat="48.79441" lon="2.49859">
        <ele>93.6</ele>
        <time>2015-04-27T20:00:30.937Z</time>
      </trkpt>
      <trkpt lat="48.79449" lon="2.49864">
        <ele>93.6</ele>
        <time>2015-04-27T20:00:32.994Z</time>
      </trkpt>
      <trkpt lat="48.79452" lon="2.49868">
        <ele>93.7</ele>
        <time>2015-04-27T20:00:34.004Z</time>
      </trkpt>
      <trkpt lat="48.79458" lon="2.49873">
        <ele>93.6</ele>
        <time>2015-04-27T20:00:35.880Z</time>
      </trkpt>
      <trkpt lat="48.79462" lon="2.49876">
        <ele>93.9</ele>
        <time>2015-04-27T20:00:36.911Z</time>
      </trkpt>
      <trkpt lat="48.79468" lon="2.49879">
        <ele>94</ele>
        <time>2015-04-27T20:00:38.934Z</time>
      </trkpt>
      <trkpt lat="48.79471" lon="2.49881">
        <ele>93.9</ele>
        <time>2015-04-27T20:00:39.944Z</time>
      </trkpt>
      <trkpt lat="48.79475" lon="2.49885">
        <ele>93.6</ele>
        <time>2015-04-27T20:00:40.946Z</time>
      </trkpt>
      <trkpt lat="48.79479" lon="2.49887">
        <ele>93.9</ele>
        <time>2015-04-27T20:00:41.979Z</time>
      </trkpt>
      <trkpt lat="48.79484" lon="2.4989">
        <ele>93.7</ele>
        <time>2015-04-27T20:00:43.086Z</time>
      </trkpt>
      <trkpt lat="48.79489" lon="2.49894">
        <ele>93.6</ele>
        <time>2015-04-27T20:00:43.916Z</time>
      </trkpt>
      <trkpt lat="48.79493" lon="2.49897">
        <ele>93.6</ele>
        <time>2015-04-27T20:00:44.931Z</time>
      </trkpt>
      <trkpt lat="48.79498" lon="2.499">
        <ele>93.6</ele>
        <time>2015-04-27T20:00:45.994Z</time>
      </trkpt>
      <trkpt lat="48.79503" lon="2.49903">
        <ele>93.6</ele>
        <time>2015-04-27T20:00:46.920Z</time>
      </trkpt>
      <trkpt lat="48.79507" lon="2.49905">
        <ele>93.6</ele>
        <time>2015-04-27T20:00:47.919Z</time>
      </trkpt>
      <trkpt lat="48.79515" lon="2.49909">
        <ele>93.8</ele>
        <time>2015-04-27T20:00:49.957Z</time>
      </trkpt>
      <trkpt lat="48.79518" lon="2.49911">
        <ele>93.7</ele>
        <time>2015-04-27T20:00:50.910Z</time>
      </trkpt>
      <trkpt lat="48.79524" lon="2.49916">
        <ele>94.1</ele>
        <time>2015-04-27T20:00:52.960Z</time>
      </trkpt>
      <trkpt lat="48.79531" lon="2.4992">
        <ele>94.3</ele>
        <time>2015-04-27T20:00:53.950Z</time>
      </trkpt>
      <trkpt lat="48.79537" lon="2.49924">
        <ele>94.8</ele>
        <time>2015-04-27T20:00:54.969Z</time>
      </trkpt>
      <trkpt lat="48.79542" lon="2.49927">
        <ele>95.4</ele>
        <time>2015-04-27T20:00:55.930Z</time>
      </trkpt>
      <trkpt lat="48.79546" lon="2.4993">
        <ele>95.5</ele>
        <time>2015-04-27T20:00:57.220Z</time>
      </trkpt>
      <trkpt lat="48.79551" lon="2.49931">
        <ele>95.5</ele>
        <time>2015-04-27T20:00:57.932Z</time>
      </trkpt>
      <trkpt lat="48.79555" lon="2.49933">
        <ele>96</ele>
        <time>2015-04-27T20:00:58.920Z</time>
      </trkpt>
      <trkpt lat="48.7956" lon="2.49936">
        <ele>96.5</ele>
        <time>2015-04-27T20:00:59.931Z</time>
      </trkpt>
      <trkpt lat="48.79566" lon="2.49939">
        <ele>97.7</ele>
        <time>2015-04-27T20:01:00.987Z</time>
      </trkpt>
      <trkpt lat="48.79571" lon="2.49942">
        <ele>98.8</ele>
        <time>2015-04-27T20:01:01.959Z</time>
      </trkpt>
      <trkpt lat="48.79576" lon="2.49945">
        <ele>99.1</ele>
        <time>2015-04-27T20:01:02.908Z</time>
      </trkpt>
      <trkpt lat="48.7958" lon="2.49949">
        <ele>99.4</ele>
        <time>2015-04-27T20:01:03.995Z</time>
      </trkpt>
      <trkpt lat="48.79584" lon="2.49953">
        <ele>99.6</ele>
        <time>2015-04-27T20:01:04.908Z</time>
      </trkpt>
      <trkpt lat="48.79588" lon="2.49957">
        <ele>99.9</ele>
        <time>2015-04-27T20:01:05.902Z</time>
      </trkpt>
      <trkpt lat="48.79594" lon="2.49962">
        <ele>101.3</ele>
        <time>2015-04-27T20:01:07.515Z</time>
      </trkpt>
      <trkpt lat="48.79598" lon="2.49968">
        <ele>101.6</ele>
        <time>2015-04-27T20:01:07.957Z</time>
      </trkpt>
      <trkpt lat="48.79602" lon="2.49979">
        <ele>101.5</ele>
        <time>2015-04-27T20:01:09.999Z</time>
      </trkpt>
      <trkpt lat="48.79605" lon="2.49983">
        <ele>101.4</ele>
        <time>2015-04-27T20:01:10.910Z</time>
      </trkpt>
      <trkpt lat="48.79609" lon="2.49991">
        <ele>101.2</ele>
        <time>2015-04-27T20:01:12.934Z</time>
      </trkpt>
      <trkpt lat="48.79612" lon="2.49996">
        <ele>101.1</ele>
        <time>2015-04-27T20:01:13.954Z</time>
      </trkpt>
      <trkpt lat="48.79615" lon="2.50001">
        <ele>101.1</ele>
        <time>2015-04-27T20:01:15.005Z</time>
      </trkpt>
      <trkpt lat="48.79618" lon="2.50007">
        <ele>100.7</ele>
        <time>2015-04-27T20:01:15.929Z</time>
      </trkpt>
      <trkpt lat="48.79622" lon="2.50012">
        <ele>100.6</ele>
        <time>2015-04-27T20:01:17.662Z</time>
      </trkpt>
      <trkpt lat="48.79625" lon="2.50017">
        <ele>100.5</ele>
        <time>2015-04-27T20:01:17.881Z</time>
      </trkpt>
      <trkpt lat="48.79628" lon="2.50027">
        <ele>100.5</ele>
        <time>2015-04-27T20:01:19.930Z</time>
      </trkpt>
      <trkpt lat="48.79629" lon="2.50032">
        <ele>100.5</ele>
        <time>2015-04-27T20:01:20.939Z</time>
      </trkpt>
      <trkpt lat="48.79636" lon="2.50038">
        <ele>101.9</ele>
        <time>2015-04-27T20:01:22.665Z</time>
      </trkpt>
      <trkpt lat="48.79639" lon="2.50043">
        <ele>102</ele>
        <time>2015-04-27T20:01:22.883Z</time>
      </trkpt>
      <trkpt lat="48.79644" lon="2.50054">
        <ele>102.2</ele>
        <time>2015-04-27T20:01:24.914Z</time>
      </trkpt>
      <trkpt lat="48.79646" lon="2.50061">
        <ele>102.1</ele>
        <time>2015-04-27T20:01:25.935Z</time>
      </trkpt>
      <trkpt lat="48.79649" lon="2.50067">
        <ele>102.2</ele>
        <time>2015-04-27T20:01:26.957Z</time>
      </trkpt>
      <trkpt lat="48.79651" lon="2.50073">
        <ele>102.1</ele>
        <time>2015-04-27T20:01:28.151Z</time>
      </trkpt>
      <trkpt lat="48.79654" lon="2.5008">
        <ele>102.1</ele>
        <time>2015-04-27T20:01:28.984Z</time>
      </trkpt>
      <trkpt lat="48.79659" lon="2.50086">
        <ele>102.3</ele>
        <time>2015-04-27T20:01:29.903Z</time>
      </trkpt>
      <trkpt lat="48.79662" lon="2.50093">
        <ele>102.2</ele>
        <time>2015-04-27T20:01:30.908Z</time>
      </trkpt>
      <trkpt lat="48.79666" lon="2.501">
        <ele>102.3</ele>
        <time>2015-04-27T20:01:31.901Z</time>
      </trkpt>
      <trkpt lat="48.7967" lon="2.50105">
        <ele>102</ele>
        <time>2015-04-27T20:01:32.929Z</time>
      </trkpt>
      <trkpt lat="48.79675" lon="2.5011">
        <ele>101.8</ele>
        <time>2015-04-27T20:01:33.941Z</time>
      </trkpt>
      <trkpt lat="48.7968" lon="2.50115">
        <ele>101.7</ele>
        <time>2015-04-27T20:01:34.960Z</time>
      </trkpt>
      <trkpt lat="48.79684" lon="2.5012">
        <ele>101.6</ele>
        <time>2015-04-27T20:01:35.980Z</time>
      </trkpt>
      <trkpt lat="48.79689" lon="2.50128">
        <ele>101.6</ele>
        <time>2015-04-27T20:01:36.969Z</time>
      </trkpt>
      <trkpt lat="48.79697" lon="2.50134">
        <ele>101.2</ele>
        <time>2015-04-27T20:01:37.927Z</time>
      </trkpt>
      <trkpt lat="48.79703" lon="2.5014">
        <ele>101.1</ele>
        <time>2015-04-27T20:01:38.948Z</time>
      </trkpt>
      <trkpt lat="48.79709" lon="2.50146">
        <ele>101</ele>
        <time>2015-04-27T20:01:39.955Z</time>
      </trkpt>
      <trkpt lat="48.79715" lon="2.50152">
        <ele>100.8</ele>
        <time>2015-04-27T20:01:40.957Z</time>
      </trkpt>
      <trkpt lat="48.79721" lon="2.50159">
        <ele>100.3</ele>
        <time>2015-04-27T20:01:41.964Z</time>
      </trkpt>
      <trkpt lat="48.79728" lon="2.50167">
        <ele>100.4</ele>
        <time>2015-04-27T20:01:42.981Z</time>
      </trkpt>
      <trkpt lat="48.79732" lon="2.50173">
        <ele>100.1</ele>
        <time>2015-04-27T20:01:43.987Z</time>
      </trkpt>
      <trkpt lat="48.79736" lon="2.5018">
        <ele>99.8</ele>
        <time>2015-04-27T20:01:44.999Z</time>
      </trkpt>
      <trkpt lat="48.79739" lon="2.50186">
        <ele>99.9</ele>
        <time>2015-04-27T20:01:46.001Z</time>
      </trkpt>
      <trkpt lat="48.79742" lon="2.50191">
        <ele>100</ele>
        <time>2015-04-27T20:01:46.898Z</time>
      </trkpt>
      <trkpt lat="48.79744" lon="2.50197">
        <ele>99.9</ele>
        <time>2015-04-27T20:01:47.899Z</time>
      </trkpt>
      <trkpt lat="48.79749" lon="2.50207">
        <ele>100.3</ele>
        <time>2015-04-27T20:01:49.907Z</time>
      </trkpt>
      <trkpt lat="48.79751" lon="2.50212">
        <ele>100.4</ele>
        <time>2015-04-27T20:01:50.951Z</time>
      </trkpt>
      <trkpt lat="48.79755" lon="2.50222">
        <ele>101</ele>
        <time>2015-04-27T20:01:52.915Z</time>
      </trkpt>
      <trkpt lat="48.79758" lon="2.50227">
        <ele>100.8</ele>
        <time>2015-04-27T20:01:53.963Z</time>
      </trkpt>
      <trkpt lat="48.79762" lon="2.50236">
        <ele>100.5</ele>
        <time>2015-04-27T20:01:55.996Z</time>
      </trkpt>
      <trkpt lat="48.79766" lon="2.50241">
        <ele>101.5</ele>
        <time>2015-04-27T20:01:57.016Z</time>
      </trkpt>
      <trkpt lat="48.79772" lon="2.50249">
        <ele>100.5</ele>
        <time>2015-04-27T20:01:58.945Z</time>
      </trkpt>
      <trkpt lat="48.79775" lon="2.50252">
        <ele>100</ele>
        <time>2015-04-27T20:01:59.963Z</time>
      </trkpt>
      <trkpt lat="48.7978" lon="2.50258">
        <ele>99.5</ele>
        <time>2015-04-27T20:02:01.898Z</time>
      </trkpt>
      <trkpt lat="48.79783" lon="2.50261">
        <ele>99.4</ele>
        <time>2015-04-27T20:02:02.929Z</time>
      </trkpt>
      <trkpt lat="48.79791" lon="2.50268">
        <ele>98.6</ele>
        <time>2015-04-27T20:02:06.988Z</time>
      </trkpt>
      <trkpt lat="48.79792" lon="2.50269">
        <ele>98.7</ele>
        <time>2015-04-27T20:02:07.929Z</time>
      </trkpt>
      <trkpt lat="48.79799" lon="2.50264">
        <ele>99.1</ele>
        <time>2015-04-27T20:02:24.992Z</time>
      </trkpt>
      <trkpt lat="48.79799" lon="2.50262">
        <ele>99</ele>
        <time>2015-04-27T20:02:25.936Z</time>
      </trkpt>
      <trkpt lat="48.79802" lon="2.5025">
        <ele>99.4</ele>
        <time>2015-04-27T20:02:29.934Z</time>
      </trkpt>
      <trkpt lat="48.79802" lon="2.50247">
        <ele>99.2</ele>
        <time>2015-04-27T20:02:30.956Z</time>
      </trkpt>
      <trkpt lat="48.79806" lon="2.50237">
        <ele>99.6</ele>
        <time>2015-04-27T20:02:34.977Z</time>
      </trkpt>
      <trkpt lat="48.79807" lon="2.50234">
        <ele>99.8</ele>
        <time>2015-04-27T20:02:36.003Z</time>
      </trkpt>
      <trkpt lat="48.7981" lon="2.50223">
        <ele>101</ele>
        <time>2015-04-27T20:02:38.968Z</time>
      </trkpt>
      <trkpt lat="48.79811" lon="2.50219">
        <ele>101.4</ele>
        <time>2015-04-27T20:02:39.991Z</time>
      </trkpt>
      <trkpt lat="48.79812" lon="2.5021">
        <ele>101.8</ele>
        <time>2015-04-27T20:02:41.913Z</time>
      </trkpt>
      <trkpt lat="48.79814" lon="2.50206">
        <ele>102.1</ele>
        <time>2015-04-27T20:02:42.930Z</time>
      </trkpt>
      <trkpt lat="48.79819" lon="2.50196">
        <ele>101.9</ele>
        <time>2015-04-27T20:02:44.975Z</time>
      </trkpt>
      <trkpt lat="48.79821" lon="2.5019">
        <ele>102.1</ele>
        <time>2015-04-27T20:02:45.984Z</time>
      </trkpt>
      <trkpt lat="48.79825" lon="2.50179">
        <ele>102.8</ele>
        <time>2015-04-27T20:02:48.215Z</time>
      </trkpt>
      <trkpt lat="48.79829" lon="2.50171">
        <ele>103.7</ele>
        <time>2015-04-27T20:02:48.985Z</time>
      </trkpt>
      <trkpt lat="48.79834" lon="2.50163">
        <ele>104.3</ele>
        <time>2015-04-27T20:02:50.003Z</time>
      </trkpt>
      <trkpt lat="48.79836" lon="2.50156">
        <ele>104.9</ele>
        <time>2015-04-27T20:02:50.971Z</time>
      </trkpt>
      <trkpt lat="48.79839" lon="2.50149">
        <ele>105.3</ele>
        <time>2015-04-27T20:02:51.958Z</time>
      </trkpt>
      <trkpt lat="48.79842" lon="2.50142">
        <ele>105.6</ele>
        <time>2015-04-27T20:02:52.954Z</time>
      </trkpt>
      <trkpt lat="48.79844" lon="2.50135">
        <ele>105.8</ele>
        <time>2015-04-27T20:02:53.980Z</time>
      </trkpt>
      <trkpt lat="48.79846" lon="2.50128">
        <ele>106.2</ele>
        <time>2015-04-27T20:02:54.998Z</time>
      </trkpt>
      <trkpt lat="48.79848" lon="2.50121">
        <ele>106.6</ele>
        <time>2015-04-27T20:02:56.012Z</time>
      </trkpt>
      <trkpt lat="48.7985" lon="2.50115">
        <ele>106.8</ele>
        <time>2015-04-27T20:02:57.049Z</time>
      </trkpt>
      <trkpt lat="48.79853" lon="2.50109">
        <ele>106.6</ele>
        <time>2015-04-27T20:02:57.930Z</time>
      </trkpt>
      <trkpt lat="48.79857" lon="2.50103">
        <ele>106.5</ele>
        <time>2015-04-27T20:02:58.949Z</time>
      </trkpt>
      <trkpt lat="48.79859" lon="2.50097">
        <ele>106.4</ele>
        <time>2015-04-27T20:02:59.982Z</time>
      </trkpt>
      <trkpt lat="48.79862" lon="2.50091">
        <ele>106.3</ele>
        <time>2015-04-27T20:03:00.894Z</time>
      </trkpt>
      <trkpt lat="48.79866" lon="2.50084">
        <ele>105.8</ele>
        <time>2015-04-27T20:03:01.922Z</time>
      </trkpt>
      <trkpt lat="48.79868" lon="2.50078">
        <ele>105.5</ele>
        <time>2015-04-27T20:03:02.949Z</time>
      </trkpt>
      <trkpt lat="48.79871" lon="2.50072">
        <ele>105.3</ele>
        <time>2015-04-27T20:03:03.962Z</time>
      </trkpt>
      <trkpt lat="48.79874" lon="2.50066">
        <ele>104.9</ele>
        <time>2015-04-27T20:03:05.029Z</time>
      </trkpt>
      <trkpt lat="48.79878" lon="2.5006">
        <ele>104.2</ele>
        <time>2015-04-27T20:03:06.486Z</time>
      </trkpt>
      <trkpt lat="48.7988" lon="2.50054">
        <ele>103.7</ele>
        <time>2015-04-27T20:03:06.930Z</time>
      </trkpt>
      <trkpt lat="48.79883" lon="2.50048">
        <ele>103.1</ele>
        <time>2015-04-27T20:03:07.949Z</time>
      </trkpt>
      <trkpt lat="48.79886" lon="2.50042">
        <ele>102.8</ele>
        <time>2015-04-27T20:03:08.967Z</time>
      </trkpt>
      <trkpt lat="48.79889" lon="2.50035">
        <ele>102.5</ele>
        <time>2015-04-27T20:03:09.925Z</time>
      </trkpt>
      <trkpt lat="48.79891" lon="2.50029">
        <ele>102</ele>
        <time>2015-04-27T20:03:10.931Z</time>
      </trkpt>
      <trkpt lat="48.79894" lon="2.50023">
        <ele>101.5</ele>
        <time>2015-04-27T20:03:11.973Z</time>
      </trkpt>
      <trkpt lat="48.79898" lon="2.50017">
        <ele>101.3</ele>
        <time>2015-04-27T20:03:12.981Z</time>
      </trkpt>
      <trkpt lat="48.79901" lon="2.5001">
        <ele>101</ele>
        <time>2015-04-27T20:03:13.991Z</time>
      </trkpt>
      <trkpt lat="48.79905" lon="2.50002">
        <ele>100.9</ele>
        <time>2015-04-27T20:03:14.990Z</time>
      </trkpt>
      <trkpt lat="48.79908" lon="2.49993">
        <ele>101.1</ele>
        <time>2015-04-27T20:03:15.920Z</time>
      </trkpt>
      <trkpt lat="48.79911" lon="2.49982">
        <ele>102.2</ele>
        <time>2015-04-27T20:03:16.936Z</time>
      </trkpt>
      <trkpt lat="48.79913" lon="2.49972">
        <ele>103.2</ele>
        <time>2015-04-27T20:03:17.950Z</time>
      </trkpt>
      <trkpt lat="48.79915" lon="2.49964">
        <ele>103.5</ele>
        <time>2015-04-27T20:03:18.965Z</time>
      </trkpt>
      <trkpt lat="48.79916" lon="2.49957">
        <ele>103.5</ele>
        <time>2015-04-27T20:03:19.899Z</time>
      </trkpt>
      <trkpt lat="48.79919" lon="2.49948">
        <ele>103.6</ele>
        <time>2015-04-27T20:03:20.928Z</time>
      </trkpt>
      <trkpt lat="48.79922" lon="2.49941">
        <ele>103.7</ele>
        <time>2015-04-27T20:03:21.949Z</time>
      </trkpt>
      <trkpt lat="48.79927" lon="2.49932">
        <ele>103.8</ele>
        <time>2015-04-27T20:03:22.920Z</time>
      </trkpt>
      <trkpt lat="48.79931" lon="2.49923">
        <ele>104.2</ele>
        <time>2015-04-27T20:03:23.901Z</time>
      </trkpt>
      <trkpt lat="48.79935" lon="2.49913">
        <ele>104.2</ele>
        <time>2015-04-27T20:03:24.912Z</time>
      </trkpt>
      <trkpt lat="48.79938" lon="2.49904">
        <ele>104</ele>
        <time>2015-04-27T20:03:25.912Z</time>
      </trkpt>
      <trkpt lat="48.79942" lon="2.49895">
        <ele>103.7</ele>
        <time>2015-04-27T20:03:26.946Z</time>
      </trkpt>
      <trkpt lat="48.79946" lon="2.49885">
        <ele>103.6</ele>
        <time>2015-04-27T20:03:27.968Z</time>
      </trkpt>
      <trkpt lat="48.79949" lon="2.49876">
        <ele>103.5</ele>
        <time>2015-04-27T20:03:28.887Z</time>
      </trkpt>
      <trkpt lat="48.79952" lon="2.49867">
        <ele>103.2</ele>
        <time>2015-04-27T20:03:29.887Z</time>
      </trkpt>
      <trkpt lat="48.79957" lon="2.49858">
        <ele>103.4</ele>
        <time>2015-04-27T20:03:30.891Z</time>
      </trkpt>
      <trkpt lat="48.79962" lon="2.49848">
        <ele>103.5</ele>
        <time>2015-04-27T20:03:31.895Z</time>
      </trkpt>
      <trkpt lat="48.79967" lon="2.4984">
        <ele>103.5</ele>
        <time>2015-04-27T20:03:32.917Z</time>
      </trkpt>
      <trkpt lat="48.79971" lon="2.49831">
        <ele>103.4</ele>
        <time>2015-04-27T20:03:33.945Z</time>
      </trkpt>
      <trkpt lat="48.79975" lon="2.49822">
        <ele>103.2</ele>
        <time>2015-04-27T20:03:34.953Z</time>
      </trkpt>
      <trkpt lat="48.79978" lon="2.49812">
        <ele>103.2</ele>
        <time>2015-04-27T20:03:35.970Z</time>
      </trkpt>
      <trkpt lat="48.79981" lon="2.49802">
        <ele>103.1</ele>
        <time>2015-04-27T20:03:36.974Z</time>
      </trkpt>
      <trkpt lat="48.79985" lon="2.49792">
        <ele>102.9</ele>
        <time>2015-04-27T20:03:37.898Z</time>
      </trkpt>
      <trkpt lat="48.79988" lon="2.49783">
        <ele>102.8</ele>
        <time>2015-04-27T20:03:38.911Z</time>
      </trkpt>
      <trkpt lat="48.79991" lon="2.49774">
        <ele>102.9</ele>
        <time>2015-04-27T20:03:39.941Z</time>
      </trkpt>
      <trkpt lat="48.79995" lon="2.49765">
        <ele>102.8</ele>
        <time>2015-04-27T20:03:40.953Z</time>
      </trkpt>
      <trkpt lat="48.79999" lon="2.49757">
        <ele>103</ele>
        <time>2015-04-27T20:03:41.961Z</time>
      </trkpt>
      <trkpt lat="48.80002" lon="2.49749">
        <ele>103.4</ele>
        <time>2015-04-27T20:03:42.966Z</time>
      </trkpt>
      <trkpt lat="48.80005" lon="2.49741">
        <ele>103.6</ele>
        <time>2015-04-27T20:03:43.886Z</time>
      </trkpt>
      <trkpt lat="48.80009" lon="2.49732">
        <ele>104</ele>
        <time>2015-04-27T20:03:45.026Z</time>
      </trkpt>
      <trkpt lat="48.80011" lon="2.49724">
        <ele>104.5</ele>
        <time>2015-04-27T20:03:45.909Z</time>
      </trkpt>
      <trkpt lat="48.80014" lon="2.49715">
        <ele>105.1</ele>
        <time>2015-04-27T20:03:46.886Z</time>
      </trkpt>
      <trkpt lat="48.80016" lon="2.49706">
        <ele>106</ele>
        <time>2015-04-27T20:03:47.903Z</time>
      </trkpt>
      <trkpt lat="48.80018" lon="2.49697">
        <ele>106.5</ele>
        <time>2015-04-27T20:03:48.912Z</time>
      </trkpt>
      <trkpt lat="48.80021" lon="2.49688">
        <ele>107</ele>
        <time>2015-04-27T20:03:49.927Z</time>
      </trkpt>
      <trkpt lat="48.80023" lon="2.49678">
        <ele>107.5</ele>
        <time>2015-04-27T20:03:50.935Z</time>
      </trkpt>
      <trkpt lat="48.80026" lon="2.49669">
        <ele>108</ele>
        <time>2015-04-27T20:03:51.952Z</time>
      </trkpt>
      <trkpt lat="48.80029" lon="2.4966">
        <ele>108</ele>
        <time>2015-04-27T20:03:52.972Z</time>
      </trkpt>
      <trkpt lat="48.80032" lon="2.49652">
        <ele>108.1</ele>
        <time>2015-04-27T20:03:53.885Z</time>
      </trkpt>
      <trkpt lat="48.80036" lon="2.49644">
        <ele>108</ele>
        <time>2015-04-27T20:03:54.894Z</time>
      </trkpt>
      <trkpt lat="48.80041" lon="2.49637">
        <ele>107.6</ele>
        <time>2015-04-27T20:03:55.915Z</time>
      </trkpt>
      <trkpt lat="48.80044" lon="2.49629">
        <ele>107.4</ele>
        <time>2015-04-27T20:03:56.921Z</time>
      </trkpt>
      <trkpt lat="48.80049" lon="2.49621">
        <ele>106.9</ele>
        <time>2015-04-27T20:03:57.935Z</time>
      </trkpt>
      <trkpt lat="48.80053" lon="2.49612">
        <ele>106.7</ele>
        <time>2015-04-27T20:03:58.965Z</time>
      </trkpt>
      <trkpt lat="48.80058" lon="2.49604">
        <ele>106.6</ele>
        <time>2015-04-27T20:03:59.898Z</time>
      </trkpt>
      <trkpt lat="48.80061" lon="2.49595">
        <ele>106.6</ele>
        <time>2015-04-27T20:04:00.891Z</time>
      </trkpt>
      <trkpt lat="48.80066" lon="2.49586">
        <ele>106.4</ele>
        <time>2015-04-27T20:04:01.905Z</time>
      </trkpt>
      <trkpt lat="48.80072" lon="2.49578">
        <ele>106.1</ele>
        <time>2015-04-27T20:04:02.921Z</time>
      </trkpt>
      <trkpt lat="48.80077" lon="2.49569">
        <ele>106.1</ele>
        <time>2015-04-27T20:04:03.941Z</time>
      </trkpt>
      <trkpt lat="48.80082" lon="2.4956">
        <ele>105.7</ele>
        <time>2015-04-27T20:04:04.951Z</time>
      </trkpt>
      <trkpt lat="48.80087" lon="2.49552">
        <ele>105.3</ele>
        <time>2015-04-27T20:04:05.868Z</time>
      </trkpt>
      <trkpt lat="48.80091" lon="2.49542">
        <ele>104.9</ele>
        <time>2015-04-27T20:04:06.891Z</time>
      </trkpt>
      <trkpt lat="48.80096" lon="2.49533">
        <ele>104.4</ele>
        <time>2015-04-27T20:04:07.895Z</time>
      </trkpt>
      <trkpt lat="48.801" lon="2.49525">
        <ele>104</ele>
        <time>2015-04-27T20:04:08.910Z</time>
      </trkpt>
      <trkpt lat="48.80104" lon="2.49516">
        <ele>103.1</ele>
        <time>2015-04-27T20:04:09.927Z</time>
      </trkpt>
      <trkpt lat="48.80108" lon="2.49508">
        <ele>102.7</ele>
        <time>2015-04-27T20:04:10.932Z</time>
      </trkpt>
      <trkpt lat="48.80113" lon="2.49499">
        <ele>102.1</ele>
        <time>2015-04-27T20:04:11.939Z</time>
      </trkpt>
      <trkpt lat="48.80117" lon="2.49489">
        <ele>101.9</ele>
        <time>2015-04-27T20:04:12.901Z</time>
      </trkpt>
      <trkpt lat="48.80119" lon="2.49479">
        <ele>101.6</ele>
        <time>2015-04-27T20:04:13.883Z</time>
      </trkpt>
      <trkpt lat="48.80122" lon="2.4947">
        <ele>101.4</ele>
        <time>2015-04-27T20:04:14.899Z</time>
      </trkpt>
      <trkpt lat="48.80125" lon="2.49462">
        <ele>101</ele>
        <time>2015-04-27T20:04:15.911Z</time>
      </trkpt>
      <trkpt lat="48.8013" lon="2.49457">
        <ele>99.2</ele>
        <time>2015-04-27T20:04:16.927Z</time>
      </trkpt>
      <trkpt lat="48.80135" lon="2.4945">
        <ele>98.4</ele>
        <time>2015-04-27T20:04:17.935Z</time>
      </trkpt>
      <trkpt lat="48.80139" lon="2.49443">
        <ele>97.7</ele>
        <time>2015-04-27T20:04:18.948Z</time>
      </trkpt>
      <trkpt lat="48.80143" lon="2.49434">
        <ele>97.8</ele>
        <time>2015-04-27T20:04:19.960Z</time>
      </trkpt>
      <trkpt lat="48.80147" lon="2.49426">
        <ele>98.2</ele>
        <time>2015-04-27T20:04:20.967Z</time>
      </trkpt>
      <trkpt lat="48.8015" lon="2.49417">
        <ele>98.3</ele>
        <time>2015-04-27T20:04:21.918Z</time>
      </trkpt>
      <trkpt lat="48.80152" lon="2.49408">
        <ele>98.7</ele>
        <time>2015-04-27T20:04:22.943Z</time>
      </trkpt>
      <trkpt lat="48.80154" lon="2.49398">
        <ele>98.9</ele>
        <time>2015-04-27T20:04:23.953Z</time>
      </trkpt>
      <trkpt lat="48.80156" lon="2.49387">
        <ele>99</ele>
        <time>2015-04-27T20:04:24.972Z</time>
      </trkpt>
      <trkpt lat="48.80159" lon="2.49378">
        <ele>99.2</ele>
        <time>2015-04-27T20:04:25.984Z</time>
      </trkpt>
      <trkpt lat="48.80163" lon="2.49369">
        <ele>99.4</ele>
        <time>2015-04-27T20:04:26.993Z</time>
      </trkpt>
      <trkpt lat="48.80166" lon="2.4936">
        <ele>99.6</ele>
        <time>2015-04-27T20:04:28.021Z</time>
      </trkpt>
      <trkpt lat="48.8017" lon="2.49351">
        <ele>100</ele>
        <time>2015-04-27T20:04:28.905Z</time>
      </trkpt>
      <trkpt lat="48.80173" lon="2.49343">
        <ele>100.1</ele>
        <time>2015-04-27T20:04:29.925Z</time>
      </trkpt>
      <trkpt lat="48.80176" lon="2.49335">
        <ele>100.3</ele>
        <time>2015-04-27T20:04:30.941Z</time>
      </trkpt>
      <trkpt lat="48.80179" lon="2.49326">
        <ele>100.5</ele>
        <time>2015-04-27T20:04:31.946Z</time>
      </trkpt>
      <trkpt lat="48.80182" lon="2.49316">
        <ele>100.9</ele>
        <time>2015-04-27T20:04:32.965Z</time>
      </trkpt>
      <trkpt lat="48.80186" lon="2.49307">
        <ele>101.2</ele>
        <time>2015-04-27T20:04:33.966Z</time>
      </trkpt>
      <trkpt lat="48.80192" lon="2.49299">
        <ele>101.4</ele>
        <time>2015-04-27T20:04:34.980Z</time>
      </trkpt>
      <trkpt lat="48.80195" lon="2.49291">
        <ele>101.1</ele>
        <time>2015-04-27T20:04:35.894Z</time>
      </trkpt>
      <trkpt lat="48.80196" lon="2.49282">
        <ele>101.5</ele>
        <time>2015-04-27T20:04:36.895Z</time>
      </trkpt>
      <trkpt lat="48.80199" lon="2.49275">
        <ele>101.1</ele>
        <time>2015-04-27T20:04:37.912Z</time>
      </trkpt>
      <trkpt lat="48.80201" lon="2.49268">
        <ele>101.3</ele>
        <time>2015-04-27T20:04:38.929Z</time>
      </trkpt>
      <trkpt lat="48.80203" lon="2.4926">
        <ele>101.4</ele>
        <time>2015-04-27T20:04:39.945Z</time>
      </trkpt>
      <trkpt lat="48.80205" lon="2.49254">
        <ele>101.6</ele>
        <time>2015-04-27T20:04:40.958Z</time>
      </trkpt>
      <trkpt lat="48.80208" lon="2.49248">
        <ele>101.8</ele>
        <time>2015-04-27T20:04:41.978Z</time>
      </trkpt>
      <trkpt lat="48.80211" lon="2.49242">
        <ele>101.7</ele>
        <time>2015-04-27T20:04:42.868Z</time>
      </trkpt>
      <trkpt lat="48.80214" lon="2.49236">
        <ele>101.5</ele>
        <time>2015-04-27T20:04:43.932Z</time>
      </trkpt>
      <trkpt lat="48.80217" lon="2.4923">
        <ele>101.4</ele>
        <time>2015-04-27T20:04:44.945Z</time>
      </trkpt>
      <trkpt lat="48.80221" lon="2.49225">
        <ele>101.1</ele>
        <time>2015-04-27T20:04:45.978Z</time>
      </trkpt>
      <trkpt lat="48.80224" lon="2.4922">
        <ele>100.9</ele>
        <time>2015-04-27T20:04:46.994Z</time>
      </trkpt>
      <trkpt lat="48.80229" lon="2.4921">
        <ele>100.8</ele>
        <time>2015-04-27T20:04:48.913Z</time>
      </trkpt>
      <trkpt lat="48.80231" lon="2.49204">
        <ele>100.7</ele>
        <time>2015-04-27T20:04:50.037Z</time>
      </trkpt>
      <trkpt lat="48.80235" lon="2.49193">
        <ele>100.9</ele>
        <time>2015-04-27T20:04:51.907Z</time>
      </trkpt>
      <trkpt lat="48.80236" lon="2.49188">
        <ele>101.2</ele>
        <time>2015-04-27T20:04:52.960Z</time>
      </trkpt>
      <trkpt lat="48.80238" lon="2.49177">
        <ele>101.3</ele>
        <time>2015-04-27T20:04:54.985Z</time>
      </trkpt>
      <trkpt lat="48.80239" lon="2.49171">
        <ele>101.2</ele>
        <time>2015-04-27T20:04:55.929Z</time>
      </trkpt>
      <trkpt lat="48.80241" lon="2.4916">
        <ele>101.4</ele>
        <time>2015-04-27T20:04:57.930Z</time>
      </trkpt>
      <trkpt lat="48.8024" lon="2.49152">
        <ele>103.3</ele>
        <time>2015-04-27T20:04:59.014Z</time>
      </trkpt>
      <trkpt lat="48.80245" lon="2.49143">
        <ele>103.8</ele>
        <time>2015-04-27T20:05:00.946Z</time>
      </trkpt>
      <trkpt lat="48.80246" lon="2.49138">
        <ele>103.9</ele>
        <time>2015-04-27T20:05:02.007Z</time>
      </trkpt>
      <trkpt lat="48.8025" lon="2.49129">
        <ele>104.1</ele>
        <time>2015-04-27T20:05:04.002Z</time>
      </trkpt>
      <trkpt lat="48.80251" lon="2.49124">
        <ele>104.1</ele>
        <time>2015-04-27T20:05:04.901Z</time>
      </trkpt>
      <trkpt lat="48.80255" lon="2.49114">
        <ele>103.8</ele>
        <time>2015-04-27T20:05:06.932Z</time>
      </trkpt>
      <trkpt lat="48.80256" lon="2.49108">
        <ele>103.7</ele>
        <time>2015-04-27T20:05:07.969Z</time>
      </trkpt>
      <trkpt lat="48.8026" lon="2.49098">
        <ele>103.8</ele>
        <time>2015-04-27T20:05:09.910Z</time>
      </trkpt>
      <trkpt lat="48.80262" lon="2.49092">
        <ele>103.9</ele>
        <time>2015-04-27T20:05:10.917Z</time>
      </trkpt>
      <trkpt lat="48.80266" lon="2.49086">
        <ele>103.8</ele>
        <time>2015-04-27T20:05:11.969Z</time>
      </trkpt>
      <trkpt lat="48.80269" lon="2.49079">
        <ele>103.6</ele>
        <time>2015-04-27T20:05:12.879Z</time>
      </trkpt>
      <trkpt lat="48.80272" lon="2.49072">
        <ele>103.6</ele>
        <time>2015-04-27T20:05:13.897Z</time>
      </trkpt>
      <trkpt lat="48.80275" lon="2.49065">
        <ele>103.4</ele>
        <time>2015-04-27T20:05:14.916Z</time>
      </trkpt>
      <trkpt lat="48.80278" lon="2.49059">
        <ele>103.2</ele>
        <time>2015-04-27T20:05:15.954Z</time>
      </trkpt>
      <trkpt lat="48.80281" lon="2.49053">
        <ele>102.9</ele>
        <time>2015-04-27T20:05:16.965Z</time>
      </trkpt>
      <trkpt lat="48.80283" lon="2.49046">
        <ele>102.7</ele>
        <time>2015-04-27T20:05:17.894Z</time>
      </trkpt>
      <trkpt lat="48.80286" lon="2.4904">
        <ele>102.4</ele>
        <time>2015-04-27T20:05:18.903Z</time>
      </trkpt>
      <trkpt lat="48.8029" lon="2.49033">
        <ele>102.1</ele>
        <time>2015-04-27T20:05:19.937Z</time>
      </trkpt>
      <trkpt lat="48.80293" lon="2.49026">
        <ele>102.1</ele>
        <time>2015-04-27T20:05:20.969Z</time>
      </trkpt>
      <trkpt lat="48.80296" lon="2.49019">
        <ele>102.1</ele>
        <time>2015-04-27T20:05:21.980Z</time>
      </trkpt>
      <trkpt lat="48.80299" lon="2.49011">
        <ele>102.2</ele>
        <time>2015-04-27T20:05:22.996Z</time>
      </trkpt>
      <trkpt lat="48.80302" lon="2.49002">
        <ele>102.5</ele>
        <time>2015-04-27T20:05:23.907Z</time>
      </trkpt>
      <trkpt lat="48.80305" lon="2.48993">
        <ele>102.7</ele>
        <time>2015-04-27T20:05:24.943Z</time>
      </trkpt>
      <trkpt lat="48.80308" lon="2.48984">
        <ele>102.8</ele>
        <time>2015-04-27T20:05:25.933Z</time>
      </trkpt>
      <trkpt lat="48.80312" lon="2.48976">
        <ele>103</ele>
        <time>2015-04-27T20:05:27.004Z</time>
      </trkpt>
      <trkpt lat="48.80315" lon="2.48967">
        <ele>103.1</ele>
        <time>2015-04-27T20:05:28.115Z</time>
      </trkpt>
      <trkpt lat="48.80318" lon="2.48957">
        <ele>103.1</ele>
        <time>2015-04-27T20:05:28.956Z</time>
      </trkpt>
      <trkpt lat="48.80322" lon="2.48949">
        <ele>102.7</ele>
        <time>2015-04-27T20:05:29.922Z</time>
      </trkpt>
      <trkpt lat="48.80326" lon="2.48941">
        <ele>102.4</ele>
        <time>2015-04-27T20:05:30.906Z</time>
      </trkpt>
      <trkpt lat="48.80329" lon="2.48933">
        <ele>102</ele>
        <time>2015-04-27T20:05:31.939Z</time>
      </trkpt>
      <trkpt lat="48.80333" lon="2.48924">
        <ele>101.5</ele>
        <time>2015-04-27T20:05:33.008Z</time>
      </trkpt>
      <trkpt lat="48.80337" lon="2.48915">
        <ele>101.2</ele>
        <time>2015-04-27T20:05:34.035Z</time>
      </trkpt>
      <trkpt lat="48.80343" lon="2.48906">
        <ele>101</ele>
        <time>2015-04-27T20:05:34.921Z</time>
      </trkpt>
      <trkpt lat="48.80347" lon="2.48896">
        <ele>100.9</ele>
        <time>2015-04-27T20:05:35.957Z</time>
      </trkpt>
      <trkpt lat="48.8035" lon="2.48886">
        <ele>100.7</ele>
        <time>2015-04-27T20:05:36.965Z</time>
      </trkpt>
      <trkpt lat="48.80354" lon="2.48876">
        <ele>100.3</ele>
        <time>2015-04-27T20:05:37.879Z</time>
      </trkpt>
      <trkpt lat="48.80357" lon="2.48866">
        <ele>100</ele>
        <time>2015-04-27T20:05:38.917Z</time>
      </trkpt>
      <trkpt lat="48.80361" lon="2.48856">
        <ele>99.7</ele>
        <time>2015-04-27T20:05:39.933Z</time>
      </trkpt>
      <trkpt lat="48.80365" lon="2.48846">
        <ele>99.5</ele>
        <time>2015-04-27T20:05:40.871Z</time>
      </trkpt>
      <trkpt lat="48.8037" lon="2.48836">
        <ele>99</ele>
        <time>2015-04-27T20:05:41.885Z</time>
      </trkpt>
      <trkpt lat="48.80374" lon="2.48825">
        <ele>98.8</ele>
        <time>2015-04-27T20:05:42.890Z</time>
      </trkpt>
      <trkpt lat="48.80378" lon="2.48816">
        <ele>98.5</ele>
        <time>2015-04-27T20:05:43.907Z</time>
      </trkpt>
      <trkpt lat="48.80382" lon="2.48806">
        <ele>97.9</ele>
        <time>2015-04-27T20:05:44.912Z</time>
      </trkpt>
      <trkpt lat="48.80387" lon="2.48796">
        <ele>97.5</ele>
        <time>2015-04-27T20:05:45.922Z</time>
      </trkpt>
      <trkpt lat="48.8039" lon="2.48786">
        <ele>97.6</ele>
        <time>2015-04-27T20:05:46.942Z</time>
      </trkpt>
      <trkpt lat="48.80395" lon="2.48777">
        <ele>97.6</ele>
        <time>2015-04-27T20:05:47.966Z</time>
      </trkpt>
      <trkpt lat="48.804" lon="2.48768">
        <ele>97.7</ele>
        <time>2015-04-27T20:05:48.972Z</time>
      </trkpt>
      <trkpt lat="48.80405" lon="2.48759">
        <ele>97.3</ele>
        <time>2015-04-27T20:05:49.997Z</time>
      </trkpt>
      <trkpt lat="48.80408" lon="2.4875">
        <ele>97.1</ele>
        <time>2015-04-27T20:05:51.001Z</time>
      </trkpt>
      <trkpt lat="48.80411" lon="2.48741">
        <ele>96.9</ele>
        <time>2015-04-27T20:05:51.916Z</time>
      </trkpt>
      <trkpt lat="48.80413" lon="2.48733">
        <ele>96.9</ele>
        <time>2015-04-27T20:05:52.895Z</time>
      </trkpt>
      <trkpt lat="48.80415" lon="2.48725">
        <ele>96.7</ele>
        <time>2015-04-27T20:05:53.911Z</time>
      </trkpt>
      <trkpt lat="48.80418" lon="2.48718">
        <ele>96.5</ele>
        <time>2015-04-27T20:05:54.913Z</time>
      </trkpt>
      <trkpt lat="48.80421" lon="2.48709">
        <ele>96</ele>
        <time>2015-04-27T20:05:55.930Z</time>
      </trkpt>
      <trkpt lat="48.80423" lon="2.48701">
        <ele>96</ele>
        <time>2015-04-27T20:05:56.937Z</time>
      </trkpt>
      <trkpt lat="48.80425" lon="2.48692">
        <ele>96</ele>
        <time>2015-04-27T20:05:57.947Z</time>
      </trkpt>
      <trkpt lat="48.80428" lon="2.48685">
        <ele>96</ele>
        <time>2015-04-27T20:05:58.955Z</time>
      </trkpt>
      <trkpt lat="48.8043" lon="2.48678">
        <ele>96</ele>
        <time>2015-04-27T20:05:59.962Z</time>
      </trkpt>
      <trkpt lat="48.80432" lon="2.4867">
        <ele>95.9</ele>
        <time>2015-04-27T20:06:00.973Z</time>
      </trkpt>
      <trkpt lat="48.80435" lon="2.48663">
        <ele>96.2</ele>
        <time>2015-04-27T20:06:01.888Z</time>
      </trkpt>
      <trkpt lat="48.80436" lon="2.48656">
        <ele>96.3</ele>
        <time>2015-04-27T20:06:02.907Z</time>
      </trkpt>
      <trkpt lat="48.80437" lon="2.48647">
        <ele>96.2</ele>
        <time>2015-04-27T20:06:03.934Z</time>
      </trkpt>
      <trkpt lat="48.80437" lon="2.4864">
        <ele>96.3</ele>
        <time>2015-04-27T20:06:04.939Z</time>
      </trkpt>
      <trkpt lat="48.8044" lon="2.48629">
        <ele>96.7</ele>
        <time>2015-04-27T20:06:06.885Z</time>
      </trkpt>
      <trkpt lat="48.80442" lon="2.48624">
        <ele>97</ele>
        <time>2015-04-27T20:06:07.917Z</time>
      </trkpt>
      <trkpt lat="48.80446" lon="2.48615">
        <ele>97.3</ele>
        <time>2015-04-27T20:06:09.962Z</time>
      </trkpt>
      <trkpt lat="48.80448" lon="2.4861">
        <ele>97.2</ele>
        <time>2015-04-27T20:06:10.980Z</time>
      </trkpt>
      <trkpt lat="48.8045" lon="2.48597">
        <ele>97.8</ele>
        <time>2015-04-27T20:06:13.928Z</time>
      </trkpt>
      <trkpt lat="48.80452" lon="2.48593">
        <ele>98.1</ele>
        <time>2015-04-27T20:06:14.931Z</time>
      </trkpt>
      <trkpt lat="48.80457" lon="2.48584">
        <ele>97.8</ele>
        <time>2015-04-27T20:06:16.860Z</time>
      </trkpt>
      <trkpt lat="48.8046" lon="2.4858">
        <ele>98</ele>
        <time>2015-04-27T20:06:17.921Z</time>
      </trkpt>
      <trkpt lat="48.80464" lon="2.48576">
        <ele>97.7</ele>
        <time>2015-04-27T20:06:18.904Z</time>
      </trkpt>
      <trkpt lat="48.80468" lon="2.48572">
        <ele>97.8</ele>
        <time>2015-04-27T20:06:19.911Z</time>
      </trkpt>
      <trkpt lat="48.80476" lon="2.48566">
        <ele>97.7</ele>
        <time>2015-04-27T20:06:21.923Z</time>
      </trkpt>
      <trkpt lat="48.80479" lon="2.48562">
        <ele>97.4</ele>
        <time>2015-04-27T20:06:22.929Z</time>
      </trkpt>
      <trkpt lat="48.80486" lon="2.48557">
        <ele>97.5</ele>
        <time>2015-04-27T20:06:25.913Z</time>
      </trkpt>
      <trkpt lat="48.80488" lon="2.48558">
        <ele>96.8</ele>
        <time>2015-04-27T20:06:26.929Z</time>
      </trkpt>
      <trkpt lat="48.80494" lon="2.48555">
        <ele>99.1</ele>
        <time>2015-04-27T20:07:06.989Z</time>
      </trkpt>
      <trkpt lat="48.80496" lon="2.4855">
        <ele>99</ele>
        <time>2015-04-27T20:07:07.898Z</time>
      </trkpt>
      <trkpt lat="48.805" lon="2.48538">
        <ele>98.8</ele>
        <time>2015-04-27T20:07:09.911Z</time>
      </trkpt>
      <trkpt lat="48.80502" lon="2.48533">
        <ele>98.7</ele>
        <time>2015-04-27T20:07:10.919Z</time>
      </trkpt>
      <trkpt lat="48.80505" lon="2.48523">
        <ele>98.1</ele>
        <time>2015-04-27T20:07:12.938Z</time>
      </trkpt>
      <trkpt lat="48.80506" lon="2.48519">
        <ele>97.9</ele>
        <time>2015-04-27T20:07:13.958Z</time>
      </trkpt>
      <trkpt lat="48.80508" lon="2.48507">
        <ele>97.9</ele>
        <time>2015-04-27T20:07:16.891Z</time>
      </trkpt>
      <trkpt lat="48.8051" lon="2.48503">
        <ele>97.9</ele>
        <time>2015-04-27T20:07:17.907Z</time>
      </trkpt>
      <trkpt lat="48.80512" lon="2.48493">
        <ele>98.1</ele>
        <time>2015-04-27T20:07:20.107Z</time>
      </trkpt>
      <trkpt lat="48.80514" lon="2.48489">
        <ele>98.1</ele>
        <time>2015-04-27T20:07:20.940Z</time>
      </trkpt>
      <trkpt lat="48.80515" lon="2.48478">
        <ele>98.6</ele>
        <time>2015-04-27T20:07:22.958Z</time>
      </trkpt>
      <trkpt lat="48.80515" lon="2.48473">
        <ele>98.8</ele>
        <time>2015-04-27T20:07:23.897Z</time>
      </trkpt>
      <trkpt lat="48.80516" lon="2.48467">
        <ele>99</ele>
        <time>2015-04-27T20:07:24.924Z</time>
      </trkpt>
      <trkpt lat="48.80515" lon="2.48458">
        <ele>100.1</ele>
        <time>2015-04-27T20:07:25.948Z</time>
      </trkpt>
      <trkpt lat="48.80518" lon="2.48447">
        <ele>99.8</ele>
        <time>2015-04-27T20:07:27.979Z</time>
      </trkpt>
      <trkpt lat="48.8052" lon="2.48442">
        <ele>99.6</ele>
        <time>2015-04-27T20:07:28.992Z</time>
      </trkpt>
      <trkpt lat="48.80523" lon="2.48431">
        <ele>99.1</ele>
        <time>2015-04-27T20:07:31.617Z</time>
      </trkpt>
      <trkpt lat="48.80525" lon="2.48426">
        <ele>98.8</ele>
        <time>2015-04-27T20:07:31.910Z</time>
      </trkpt>
      <trkpt lat="48.80529" lon="2.48415">
        <ele>98.1</ele>
        <time>2015-04-27T20:07:33.950Z</time>
      </trkpt>
      <trkpt lat="48.80531" lon="2.4841">
        <ele>97.9</ele>
        <time>2015-04-27T20:07:34.998Z</time>
      </trkpt>
      <trkpt lat="48.80533" lon="2.48401">
        <ele>97.8</ele>
        <time>2015-04-27T20:07:36.892Z</time>
      </trkpt>
      <trkpt lat="48.80534" lon="2.48397">
        <ele>97.8</ele>
        <time>2015-04-27T20:07:37.895Z</time>
      </trkpt>
      <trkpt lat="48.80539" lon="2.48385">
        <ele>97.7</ele>
        <time>2015-04-27T20:10:43.935Z</time>
      </trkpt>
      <trkpt lat="48.8054" lon="2.48385">
        <ele>94.5</ele>
        <time>2015-04-27T20:10:44.983Z</time>
      </trkpt>
      <trkpt lat="48.80538" lon="2.48375">
        <ele>94.8</ele>
        <time>2015-04-27T20:10:47.918Z</time>
      </trkpt>
      <trkpt lat="48.80537" lon="2.48371">
        <ele>94.8</ele>
        <time>2015-04-27T20:10:48.911Z</time>
      </trkpt>
      <trkpt lat="48.80537" lon="2.48358">
        <ele>94.9</ele>
        <time>2015-04-27T20:10:51.986Z</time>
      </trkpt>
      <trkpt lat="48.80537" lon="2.48352">
        <ele>95</ele>
        <time>2015-04-27T20:10:52.996Z</time>
      </trkpt>
      <trkpt lat="48.8054" lon="2.4834">
        <ele>95</ele>
        <time>2015-04-27T20:10:55.010Z</time>
      </trkpt>
      <trkpt lat="48.80541" lon="2.48332">
        <ele>94.9</ele>
        <time>2015-04-27T20:10:55.921Z</time>
      </trkpt>
      <trkpt lat="48.80542" lon="2.48324">
        <ele>94.7</ele>
        <time>2015-04-27T20:10:56.937Z</time>
      </trkpt>
      <trkpt lat="48.80543" lon="2.48315">
        <ele>94.5</ele>
        <time>2015-04-27T20:10:58Z</time>
      </trkpt>
      <trkpt lat="48.80544" lon="2.48307">
        <ele>94.3</ele>
        <time>2015-04-27T20:10:58.921Z</time>
      </trkpt>
      <trkpt lat="48.80547" lon="2.483">
        <ele>94.3</ele>
        <time>2015-04-27T20:10:59.929Z</time>
      </trkpt>
      <trkpt lat="48.80548" lon="2.48293">
        <ele>94.2</ele>
        <time>2015-04-27T20:11:00.948Z</time>
      </trkpt>
      <trkpt lat="48.8055" lon="2.48285">
        <ele>94.1</ele>
        <time>2015-04-27T20:11:01.960Z</time>
      </trkpt>
      <trkpt lat="48.80551" lon="2.48276">
        <ele>94.3</ele>
        <time>2015-04-27T20:11:02.992Z</time>
      </trkpt>
      <trkpt lat="48.80553" lon="2.48269">
        <ele>94.5</ele>
        <time>2015-04-27T20:11:04.006Z</time>
      </trkpt>
      <trkpt lat="48.80555" lon="2.48261">
        <ele>94.5</ele>
        <time>2015-04-27T20:11:04.923Z</time>
      </trkpt>
      <trkpt lat="48.80557" lon="2.48253">
        <ele>94.2</ele>
        <time>2015-04-27T20:11:05.928Z</time>
      </trkpt>
      <trkpt lat="48.80557" lon="2.48245">
        <ele>94</ele>
        <time>2015-04-27T20:11:07.003Z</time>
      </trkpt>
      <trkpt lat="48.8056" lon="2.48238">
        <ele>94.1</ele>
        <time>2015-04-27T20:11:07.888Z</time>
      </trkpt>
      <trkpt lat="48.80561" lon="2.48229">
        <ele>94.3</ele>
        <time>2015-04-27T20:11:08.903Z</time>
      </trkpt>
      <trkpt lat="48.80561" lon="2.48221">
        <ele>94.4</ele>
        <time>2015-04-27T20:11:09.907Z</time>
      </trkpt>
      <trkpt lat="48.80561" lon="2.48212">
        <ele>94.5</ele>
        <time>2015-04-27T20:11:10.928Z</time>
      </trkpt>
      <trkpt lat="48.80561" lon="2.48204">
        <ele>94.8</ele>
        <time>2015-04-27T20:11:11.926Z</time>
      </trkpt>
      <trkpt lat="48.80561" lon="2.48196">
        <ele>95</ele>
        <time>2015-04-27T20:11:13.169Z</time>
      </trkpt>
      <trkpt lat="48.80563" lon="2.48188">
        <ele>95.1</ele>
        <time>2015-04-27T20:11:13.960Z</time>
      </trkpt>
      <trkpt lat="48.80564" lon="2.48181">
        <ele>95.2</ele>
        <time>2015-04-27T20:11:14.969Z</time>
      </trkpt>
      <trkpt lat="48.80566" lon="2.48173">
        <ele>95.1</ele>
        <time>2015-04-27T20:11:16.106Z</time>
      </trkpt>
      <trkpt lat="48.80567" lon="2.48166">
        <ele>95.2</ele>
        <time>2015-04-27T20:11:16.895Z</time>
      </trkpt>
      <trkpt lat="48.80573" lon="2.48157">
        <ele>95.9</ele>
        <time>2015-04-27T20:11:17.904Z</time>
      </trkpt>
      <trkpt lat="48.80581" lon="2.48148">
        <ele>96.9</ele>
        <time>2015-04-27T20:11:18.920Z</time>
      </trkpt>
      <trkpt lat="48.80584" lon="2.48141">
        <ele>97.1</ele>
        <time>2015-04-27T20:11:19.935Z</time>
      </trkpt>
      <trkpt lat="48.80585" lon="2.48133">
        <ele>97.3</ele>
        <time>2015-04-27T20:11:20.947Z</time>
      </trkpt>
      <trkpt lat="48.80587" lon="2.48124">
        <ele>97.5</ele>
        <time>2015-04-27T20:11:21.983Z</time>
      </trkpt>
      <trkpt lat="48.8059" lon="2.48118">
        <ele>97.5</ele>
        <time>2015-04-27T20:11:22.905Z</time>
      </trkpt>
      <trkpt lat="48.80593" lon="2.48105">
        <ele>97.5</ele>
        <time>2015-04-27T20:11:24.964Z</time>
      </trkpt>
      <trkpt lat="48.80594" lon="2.48097">
        <ele>97.3</ele>
        <time>2015-04-27T20:11:25.897Z</time>
      </trkpt>
      <trkpt lat="48.80595" lon="2.48089">
        <ele>97.4</ele>
        <time>2015-04-27T20:11:26.912Z</time>
      </trkpt>
      <trkpt lat="48.80597" lon="2.48082">
        <ele>97.3</ele>
        <time>2015-04-27T20:11:27.922Z</time>
      </trkpt>
      <trkpt lat="48.80599" lon="2.48075">
        <ele>97.4</ele>
        <time>2015-04-27T20:11:28.935Z</time>
      </trkpt>
      <trkpt lat="48.806" lon="2.48067">
        <ele>97.4</ele>
        <time>2015-04-27T20:11:29.935Z</time>
      </trkpt>
      <trkpt lat="48.806" lon="2.4806">
        <ele>97.3</ele>
        <time>2015-04-27T20:11:30.864Z</time>
      </trkpt>
      <trkpt lat="48.80599" lon="2.48051">
        <ele>97.6</ele>
        <time>2015-04-27T20:11:31.876Z</time>
      </trkpt>
      <trkpt lat="48.806" lon="2.48042">
        <ele>97.4</ele>
        <time>2015-04-27T20:11:32.883Z</time>
      </trkpt>
      <trkpt lat="48.80601" lon="2.48034">
        <ele>97.2</ele>
        <time>2015-04-27T20:11:33.891Z</time>
      </trkpt>
      <trkpt lat="48.80602" lon="2.48026">
        <ele>97</ele>
        <time>2015-04-27T20:11:34.900Z</time>
      </trkpt>
      <trkpt lat="48.80605" lon="2.48019">
        <ele>96.9</ele>
        <time>2015-04-27T20:11:35.926Z</time>
      </trkpt>
      <trkpt lat="48.80608" lon="2.48013">
        <ele>96.7</ele>
        <time>2015-04-27T20:11:36.936Z</time>
      </trkpt>
      <trkpt lat="48.80612" lon="2.48006">
        <ele>96.5</ele>
        <time>2015-04-27T20:11:37.846Z</time>
      </trkpt>
      <trkpt lat="48.80617" lon="2.47999">
        <ele>96.2</ele>
        <time>2015-04-27T20:11:38.898Z</time>
      </trkpt>
      <trkpt lat="48.80621" lon="2.47991">
        <ele>95.6</ele>
        <time>2015-04-27T20:11:39.913Z</time>
      </trkpt>
      <trkpt lat="48.80624" lon="2.47984">
        <ele>95.4</ele>
        <time>2015-04-27T20:11:40.921Z</time>
      </trkpt>
      <trkpt lat="48.80627" lon="2.47976">
        <ele>95.3</ele>
        <time>2015-04-27T20:11:41.929Z</time>
      </trkpt>
      <trkpt lat="48.8063" lon="2.47969">
        <ele>94.9</ele>
        <time>2015-04-27T20:11:42.938Z</time>
      </trkpt>
      <trkpt lat="48.80634" lon="2.47963">
        <ele>94.6</ele>
        <time>2015-04-27T20:11:43.942Z</time>
      </trkpt>
      <trkpt lat="48.80636" lon="2.47955">
        <ele>94</ele>
        <time>2015-04-27T20:11:44.951Z</time>
      </trkpt>
      <trkpt lat="48.80638" lon="2.47947">
        <ele>93.7</ele>
        <time>2015-04-27T20:11:45.964Z</time>
      </trkpt>
      <trkpt lat="48.80641" lon="2.47939">
        <ele>93.3</ele>
        <time>2015-04-27T20:11:46.981Z</time>
      </trkpt>
      <trkpt lat="48.80643" lon="2.47931">
        <ele>93.2</ele>
        <time>2015-04-27T20:11:47.901Z</time>
      </trkpt>
      <trkpt lat="48.80645" lon="2.47921">
        <ele>93</ele>
        <time>2015-04-27T20:11:48.898Z</time>
      </trkpt>
      <trkpt lat="48.80646" lon="2.47913">
        <ele>93</ele>
        <time>2015-04-27T20:11:49.904Z</time>
      </trkpt>
      <trkpt lat="48.80647" lon="2.47905">
        <ele>92.8</ele>
        <time>2015-04-27T20:11:50.905Z</time>
      </trkpt>
      <trkpt lat="48.80649" lon="2.47897">
        <ele>92.8</ele>
        <time>2015-04-27T20:11:51.938Z</time>
      </trkpt>
      <trkpt lat="48.80651" lon="2.47888">
        <ele>92.9</ele>
        <time>2015-04-27T20:11:52.945Z</time>
      </trkpt>
      <trkpt lat="48.80653" lon="2.4788">
        <ele>92.7</ele>
        <time>2015-04-27T20:11:53.953Z</time>
      </trkpt>
      <trkpt lat="48.8066" lon="2.47875">
        <ele>92</ele>
        <time>2015-04-27T20:11:54.967Z</time>
      </trkpt>
      <trkpt lat="48.80663" lon="2.47867">
        <ele>91.6</ele>
        <time>2015-04-27T20:11:55.897Z</time>
      </trkpt>
      <trkpt lat="48.80665" lon="2.47859">
        <ele>91.4</ele>
        <time>2015-04-27T20:11:56.910Z</time>
      </trkpt>
      <trkpt lat="48.80667" lon="2.4785">
        <ele>91</ele>
        <time>2015-04-27T20:11:57.934Z</time>
      </trkpt>
      <trkpt lat="48.80669" lon="2.47841">
        <ele>90.5</ele>
        <time>2015-04-27T20:11:58.952Z</time>
      </trkpt>
      <trkpt lat="48.80671" lon="2.47832">
        <ele>90</ele>
        <time>2015-04-27T20:11:59.957Z</time>
      </trkpt>
      <trkpt lat="48.80674" lon="2.47825">
        <ele>89.6</ele>
        <time>2015-04-27T20:12:00.900Z</time>
      </trkpt>
      <trkpt lat="48.80675" lon="2.47815">
        <ele>89.4</ele>
        <time>2015-04-27T20:12:01.902Z</time>
      </trkpt>
      <trkpt lat="48.80678" lon="2.47807">
        <ele>89.2</ele>
        <time>2015-04-27T20:12:02.916Z</time>
      </trkpt>
      <trkpt lat="48.80681" lon="2.47799">
        <ele>89</ele>
        <time>2015-04-27T20:12:03.966Z</time>
      </trkpt>
      <trkpt lat="48.80682" lon="2.4779">
        <ele>89.3</ele>
        <time>2015-04-27T20:12:04.968Z</time>
      </trkpt>
      <trkpt lat="48.80684" lon="2.47781">
        <ele>89.7</ele>
        <time>2015-04-27T20:12:05.980Z</time>
      </trkpt>
      <trkpt lat="48.80686" lon="2.47773">
        <ele>89.5</ele>
        <time>2015-04-27T20:12:06.891Z</time>
      </trkpt>
      <trkpt lat="48.80688" lon="2.47765">
        <ele>89.2</ele>
        <time>2015-04-27T20:12:07.892Z</time>
      </trkpt>
      <trkpt lat="48.80688" lon="2.47754">
        <ele>89.5</ele>
        <time>2015-04-27T20:12:08.917Z</time>
      </trkpt>
      <trkpt lat="48.80688" lon="2.47745">
        <ele>89.4</ele>
        <time>2015-04-27T20:12:09.979Z</time>
      </trkpt>
      <trkpt lat="48.80688" lon="2.47737">
        <ele>89.5</ele>
        <time>2015-04-27T20:12:10.967Z</time>
      </trkpt>
      <trkpt lat="48.80688" lon="2.47727">
        <ele>89.5</ele>
        <time>2015-04-27T20:12:11.984Z</time>
      </trkpt>
      <trkpt lat="48.80688" lon="2.47717">
        <ele>89.3</ele>
        <time>2015-04-27T20:12:12.894Z</time>
      </trkpt>
      <trkpt lat="48.80688" lon="2.47707">
        <ele>89.4</ele>
        <time>2015-04-27T20:12:13.867Z</time>
      </trkpt>
      <trkpt lat="48.80687" lon="2.47696">
        <ele>88.9</ele>
        <time>2015-04-27T20:12:14.977Z</time>
      </trkpt>
      <trkpt lat="48.80687" lon="2.47686">
        <ele>89.3</ele>
        <time>2015-04-27T20:12:15.984Z</time>
      </trkpt>
      <trkpt lat="48.80687" lon="2.47676">
        <ele>89.4</ele>
        <time>2015-04-27T20:12:16.899Z</time>
      </trkpt>
      <trkpt lat="48.80689" lon="2.47665">
        <ele>89.5</ele>
        <time>2015-04-27T20:12:17.915Z</time>
      </trkpt>
      <trkpt lat="48.80691" lon="2.47656">
        <ele>89.6</ele>
        <time>2015-04-27T20:12:18.928Z</time>
      </trkpt>
      <trkpt lat="48.80693" lon="2.47647">
        <ele>89.7</ele>
        <time>2015-04-27T20:12:19.981Z</time>
      </trkpt>
      <trkpt lat="48.80696" lon="2.47637">
        <ele>89.7</ele>
        <time>2015-04-27T20:12:20.998Z</time>
      </trkpt>
      <trkpt lat="48.80699" lon="2.47629">
        <ele>89.5</ele>
        <time>2015-04-27T20:12:21.996Z</time>
      </trkpt>
      <trkpt lat="48.80703" lon="2.47621">
        <ele>89.3</ele>
        <time>2015-04-27T20:12:22.901Z</time>
      </trkpt>
      <trkpt lat="48.80706" lon="2.47612">
        <ele>89.5</ele>
        <time>2015-04-27T20:12:23.903Z</time>
      </trkpt>
      <trkpt lat="48.8071" lon="2.47605">
        <ele>89</ele>
        <time>2015-04-27T20:12:24.898Z</time>
      </trkpt>
      <trkpt lat="48.80714" lon="2.47597">
        <ele>88.6</ele>
        <time>2015-04-27T20:12:25.910Z</time>
      </trkpt>
      <trkpt lat="48.80717" lon="2.47588">
        <ele>88.4</ele>
        <time>2015-04-27T20:12:26.923Z</time>
      </trkpt>
      <trkpt lat="48.80719" lon="2.4758">
        <ele>88.2</ele>
        <time>2015-04-27T20:12:27.932Z</time>
      </trkpt>
      <trkpt lat="48.80723" lon="2.47573">
        <ele>87.9</ele>
        <time>2015-04-27T20:12:28.949Z</time>
      </trkpt>
      <trkpt lat="48.80725" lon="2.47565">
        <ele>87.9</ele>
        <time>2015-04-27T20:12:29.952Z</time>
      </trkpt>
      <trkpt lat="48.80726" lon="2.47556">
        <ele>88</ele>
        <time>2015-04-27T20:12:30.964Z</time>
      </trkpt>
      <trkpt lat="48.80727" lon="2.47548">
        <ele>88.1</ele>
        <time>2015-04-27T20:12:31.969Z</time>
      </trkpt>
      <trkpt lat="48.80727" lon="2.47539">
        <ele>88.3</ele>
        <time>2015-04-27T20:12:32.982Z</time>
      </trkpt>
      <trkpt lat="48.80728" lon="2.47531">
        <ele>88.3</ele>
        <time>2015-04-27T20:12:33.989Z</time>
      </trkpt>
      <trkpt lat="48.8073" lon="2.47523">
        <ele>88.8</ele>
        <time>2015-04-27T20:12:34.894Z</time>
      </trkpt>
      <trkpt lat="48.80732" lon="2.47514">
        <ele>88.8</ele>
        <time>2015-04-27T20:12:35.901Z</time>
      </trkpt>
      <trkpt lat="48.80734" lon="2.47506">
        <ele>89.2</ele>
        <time>2015-04-27T20:12:36.902Z</time>
      </trkpt>
      <trkpt lat="48.80736" lon="2.47498">
        <ele>89.9</ele>
        <time>2015-04-27T20:12:37.910Z</time>
      </trkpt>
      <trkpt lat="48.80737" lon="2.47489">
        <ele>90.6</ele>
        <time>2015-04-27T20:12:38.921Z</time>
      </trkpt>
      <trkpt lat="48.80738" lon="2.4748">
        <ele>91.2</ele>
        <time>2015-04-27T20:12:39.932Z</time>
      </trkpt>
      <trkpt lat="48.8074" lon="2.47471">
        <ele>91.6</ele>
        <time>2015-04-27T20:12:40.941Z</time>
      </trkpt>
      <trkpt lat="48.80741" lon="2.47463">
        <ele>91.8</ele>
        <time>2015-04-27T20:12:41.980Z</time>
      </trkpt>
      <trkpt lat="48.80743" lon="2.47454">
        <ele>92.5</ele>
        <time>2015-04-27T20:12:42.894Z</time>
      </trkpt>
      <trkpt lat="48.80743" lon="2.47446">
        <ele>93.1</ele>
        <time>2015-04-27T20:12:43.899Z</time>
      </trkpt>
      <trkpt lat="48.80744" lon="2.47438">
        <ele>93.3</ele>
        <time>2015-04-27T20:12:44.918Z</time>
      </trkpt>
      <trkpt lat="48.80746" lon="2.47431">
        <ele>93.8</ele>
        <time>2015-04-27T20:12:45.925Z</time>
      </trkpt>
      <trkpt lat="48.80748" lon="2.47424">
        <ele>94.3</ele>
        <time>2015-04-27T20:12:46.931Z</time>
      </trkpt>
      <trkpt lat="48.8075" lon="2.47417">
        <ele>94.5</ele>
        <time>2015-04-27T20:12:47.936Z</time>
      </trkpt>
      <trkpt lat="48.80751" lon="2.47409">
        <ele>94.9</ele>
        <time>2015-04-27T20:12:48.995Z</time>
      </trkpt>
      <trkpt lat="48.80752" lon="2.47402">
        <ele>95.2</ele>
        <time>2015-04-27T20:12:49.974Z</time>
      </trkpt>
      <trkpt lat="48.80754" lon="2.47395">
        <ele>95.7</ele>
        <time>2015-04-27T20:12:50.990Z</time>
      </trkpt>
      <trkpt lat="48.80756" lon="2.47388">
        <ele>96.3</ele>
        <time>2015-04-27T20:12:51.996Z</time>
      </trkpt>
      <trkpt lat="48.80758" lon="2.47382">
        <ele>96.7</ele>
        <time>2015-04-27T20:12:52.899Z</time>
      </trkpt>
      <trkpt lat="48.8076" lon="2.47376">
        <ele>97.1</ele>
        <time>2015-04-27T20:12:53.906Z</time>
      </trkpt>
      <trkpt lat="48.80764" lon="2.47371">
        <ele>97.3</ele>
        <time>2015-04-27T20:12:54.919Z</time>
      </trkpt>
      <trkpt lat="48.80768" lon="2.47367">
        <ele>97.7</ele>
        <time>2015-04-27T20:12:55.932Z</time>
      </trkpt>
      <trkpt lat="48.80772" lon="2.47362">
        <ele>98.5</ele>
        <time>2015-04-27T20:12:56.963Z</time>
      </trkpt>
      <trkpt lat="48.80776" lon="2.47358">
        <ele>98.9</ele>
        <time>2015-04-27T20:12:57.973Z</time>
      </trkpt>
      <trkpt lat="48.80784" lon="2.47352">
        <ele>99.3</ele>
        <time>2015-04-27T20:12:59.900Z</time>
      </trkpt>
      <trkpt lat="48.8079" lon="2.47349">
        <ele>99.5</ele>
        <time>2015-04-27T20:13:00.916Z</time>
      </trkpt>
      <trkpt lat="48.80795" lon="2.47346">
        <ele>99.4</ele>
        <time>2015-04-27T20:13:01.930Z</time>
      </trkpt>
      <trkpt lat="48.808" lon="2.47342">
        <ele>99.4</ele>
        <time>2015-04-27T20:13:02.945Z</time>
      </trkpt>
      <trkpt lat="48.80805" lon="2.4734">
        <ele>99.7</ele>
        <time>2015-04-27T20:13:03.949Z</time>
      </trkpt>
      <trkpt lat="48.80811" lon="2.47336">
        <ele>100</ele>
        <time>2015-04-27T20:13:04.896Z</time>
      </trkpt>
      <trkpt lat="48.80817" lon="2.47333">
        <ele>100.5</ele>
        <time>2015-04-27T20:13:05.917Z</time>
      </trkpt>
      <trkpt lat="48.80821" lon="2.4733">
        <ele>100.9</ele>
        <time>2015-04-27T20:13:06.928Z</time>
      </trkpt>
      <trkpt lat="48.80826" lon="2.47328">
        <ele>101</ele>
        <time>2015-04-27T20:13:07.940Z</time>
      </trkpt>
      <trkpt lat="48.8083" lon="2.47325">
        <ele>101.2</ele>
        <time>2015-04-27T20:13:08.945Z</time>
      </trkpt>
      <trkpt lat="48.80836" lon="2.47321">
        <ele>101.3</ele>
        <time>2015-04-27T20:13:09.972Z</time>
      </trkpt>
      <trkpt lat="48.80841" lon="2.47316">
        <ele>101.5</ele>
        <time>2015-04-27T20:13:10.981Z</time>
      </trkpt>
      <trkpt lat="48.80845" lon="2.47311">
        <ele>101.5</ele>
        <time>2015-04-27T20:13:11.900Z</time>
      </trkpt>
      <trkpt lat="48.80848" lon="2.47306">
        <ele>101.7</ele>
        <time>2015-04-27T20:13:12.870Z</time>
      </trkpt>
      <trkpt lat="48.80852" lon="2.47301">
        <ele>101.6</ele>
        <time>2015-04-27T20:13:13.881Z</time>
      </trkpt>
      <trkpt lat="48.80856" lon="2.47296">
        <ele>101.7</ele>
        <time>2015-04-27T20:13:14.912Z</time>
      </trkpt>
      <trkpt lat="48.80862" lon="2.4729">
        <ele>101.7</ele>
        <time>2015-04-27T20:13:15.936Z</time>
      </trkpt>
      <trkpt lat="48.80868" lon="2.47284">
        <ele>101.7</ele>
        <time>2015-04-27T20:13:16.932Z</time>
      </trkpt>
      <trkpt lat="48.80873" lon="2.47278">
        <ele>101.7</ele>
        <time>2015-04-27T20:13:17.946Z</time>
      </trkpt>
      <trkpt lat="48.80877" lon="2.47273">
        <ele>101.4</ele>
        <time>2015-04-27T20:13:18.969Z</time>
      </trkpt>
      <trkpt lat="48.80882" lon="2.47267">
        <ele>101.4</ele>
        <time>2015-04-27T20:13:19.972Z</time>
      </trkpt>
      <trkpt lat="48.80886" lon="2.47261">
        <ele>101.3</ele>
        <time>2015-04-27T20:13:20.978Z</time>
      </trkpt>
      <trkpt lat="48.80889" lon="2.47256">
        <ele>101.2</ele>
        <time>2015-04-27T20:13:21.983Z</time>
      </trkpt>
      <trkpt lat="48.80893" lon="2.4725">
        <ele>101</ele>
        <time>2015-04-27T20:13:22.891Z</time>
      </trkpt>
      <trkpt lat="48.80898" lon="2.47244">
        <ele>100.5</ele>
        <time>2015-04-27T20:13:23.897Z</time>
      </trkpt>
      <trkpt lat="48.80902" lon="2.47238">
        <ele>100.1</ele>
        <time>2015-04-27T20:13:24.898Z</time>
      </trkpt>
      <trkpt lat="48.80906" lon="2.47233">
        <ele>100</ele>
        <time>2015-04-27T20:13:25.907Z</time>
      </trkpt>
      <trkpt lat="48.80911" lon="2.47228">
        <ele>100</ele>
        <time>2015-04-27T20:13:26.932Z</time>
      </trkpt>
      <trkpt lat="48.80916" lon="2.47223">
        <ele>100</ele>
        <time>2015-04-27T20:13:27.951Z</time>
      </trkpt>
      <trkpt lat="48.80918" lon="2.47218">
        <ele>100.1</ele>
        <time>2015-04-27T20:13:28.957Z</time>
      </trkpt>
      <trkpt lat="48.8092" lon="2.47212">
        <ele>100</ele>
        <time>2015-04-27T20:13:29.960Z</time>
      </trkpt>
      <trkpt lat="48.80925" lon="2.47207">
        <ele>100.2</ele>
        <time>2015-04-27T20:13:30.966Z</time>
      </trkpt>
      <trkpt lat="48.80929" lon="2.47202">
        <ele>100.3</ele>
        <time>2015-04-27T20:13:31.981Z</time>
      </trkpt>
      <trkpt lat="48.80932" lon="2.47197">
        <ele>100.4</ele>
        <time>2015-04-27T20:13:32.993Z</time>
      </trkpt>
      <trkpt lat="48.80936" lon="2.47193">
        <ele>100.1</ele>
        <time>2015-04-27T20:13:34.003Z</time>
      </trkpt>
      <trkpt lat="48.80941" lon="2.47188">
        <ele>99.7</ele>
        <time>2015-04-27T20:13:34.906Z</time>
      </trkpt>
      <trkpt lat="48.80946" lon="2.47184">
        <ele>99.7</ele>
        <time>2015-04-27T20:13:35.917Z</time>
      </trkpt>
      <trkpt lat="48.80951" lon="2.47179">
        <ele>99.7</ele>
        <time>2015-04-27T20:13:36.925Z</time>
      </trkpt>
      <trkpt lat="48.80958" lon="2.47171">
        <ele>100</ele>
        <time>2015-04-27T20:13:38.961Z</time>
      </trkpt>
      <trkpt lat="48.80962" lon="2.47168">
        <ele>100.2</ele>
        <time>2015-04-27T20:13:39.992Z</time>
      </trkpt>
      <trkpt lat="48.80966" lon="2.47164">
        <ele>100</ele>
        <time>2015-04-27T20:13:40.892Z</time>
      </trkpt>
      <trkpt lat="48.8097" lon="2.47158">
        <ele>99.6</ele>
        <time>2015-04-27T20:13:41.876Z</time>
      </trkpt>
      <trkpt lat="48.80976" lon="2.47152">
        <ele>98.5</ele>
        <time>2015-04-27T20:13:43.940Z</time>
      </trkpt>
      <trkpt lat="48.80979" lon="2.47149">
        <ele>98</ele>
        <time>2015-04-27T20:13:44.944Z</time>
      </trkpt>
      <trkpt lat="48.80981" lon="2.47141">
        <ele>97.3</ele>
        <time>2015-04-27T20:13:47Z</time>
      </trkpt>
      <trkpt lat="48.80984" lon="2.47137">
        <ele>97.6</ele>
        <time>2015-04-27T20:13:47.866Z</time>
      </trkpt>
      <trkpt lat="48.80987" lon="2.47126">
        <ele>97.9</ele>
        <time>2015-04-27T20:13:50.947Z</time>
      </trkpt>
      <trkpt lat="48.80989" lon="2.47122">
        <ele>98.2</ele>
        <time>2015-04-27T20:13:51.901Z</time>
      </trkpt>
      <trkpt lat="48.80994" lon="2.47113">
        <ele>99.3</ele>
        <time>2015-04-27T20:13:55.954Z</time>
      </trkpt>
      <trkpt lat="48.80995" lon="2.47111">
        <ele>99.7</ele>
        <time>2015-04-27T20:13:56.942Z</time>
      </trkpt>
      <trkpt lat="48.80995" lon="2.47105">
        <ele>102.2</ele>
        <time>2015-04-27T20:14:57.059Z</time>
      </trkpt>
      <trkpt lat="48.80989" lon="2.47073">
        <ele>119.1</ele>
        <time>2015-04-27T20:14:57.938Z</time>
      </trkpt>
      <trkpt lat="48.8099" lon="2.47067">
        <ele>119.5</ele>
        <time>2015-04-27T20:15:06.003Z</time>
      </trkpt>
      <trkpt lat="48.80992" lon="2.4705">
        <ele>119</ele>
        <time>2015-04-27T20:15:06.997Z</time>
      </trkpt>
      <trkpt lat="48.80999" lon="2.47045">
        <ele>118.1</ele>
        <time>2015-04-27T20:15:10.952Z</time>
      </trkpt>
      <trkpt lat="48.81001" lon="2.47044">
        <ele>117.6</ele>
        <time>2015-04-27T20:15:11.937Z</time>
      </trkpt>
      <trkpt lat="48.81005" lon="2.47041">
        <ele>117</ele>
        <time>2015-04-27T20:17:44.914Z</time>
      </trkpt>
      <trkpt lat="48.81021" lon="2.47034">
        <ele>121.7</ele>
        <time>2015-04-27T20:17:45.924Z</time>
      </trkpt>
      <trkpt lat="48.81028" lon="2.47032">
        <ele>120.7</ele>
        <time>2015-04-27T20:17:48.908Z</time>
      </trkpt>
      <trkpt lat="48.8103" lon="2.4703">
        <ele>120.2</ele>
        <time>2015-04-27T20:17:49.948Z</time>
      </trkpt>
      <trkpt lat="48.81035" lon="2.47022">
        <ele>119.6</ele>
        <time>2015-04-27T20:17:52.940Z</time>
      </trkpt>
      <trkpt lat="48.81036" lon="2.47019">
        <ele>119.4</ele>
        <time>2015-04-27T20:17:53.949Z</time>
      </trkpt>
      <trkpt lat="48.81042" lon="2.47011">
        <ele>118.7</ele>
        <time>2015-04-27T20:17:56.960Z</time>
      </trkpt>
      <trkpt lat="48.81044" lon="2.47008">
        <ele>118.5</ele>
        <time>2015-04-27T20:17:58.001Z</time>
      </trkpt>
      <trkpt lat="48.81048" lon="2.47002">
        <ele>118.6</ele>
        <time>2015-04-27T20:17:59.932Z</time>
      </trkpt>
      <trkpt lat="48.81051" lon="2.46998">
        <ele>118.3</ele>
        <time>2015-04-27T20:18:00.872Z</time>
      </trkpt>
      <trkpt lat="48.81055" lon="2.46989">
        <ele>118.4</ele>
        <time>2015-04-27T20:18:02.909Z</time>
      </trkpt>
      <trkpt lat="48.81058" lon="2.46986">
        <ele>118.5</ele>
        <time>2015-04-27T20:18:03.915Z</time>
      </trkpt>
      <trkpt lat="48.81063" lon="2.46979">
        <ele>118.2</ele>
        <time>2015-04-27T20:18:05.868Z</time>
      </trkpt>
      <trkpt lat="48.81065" lon="2.46976">
        <ele>118.2</ele>
        <time>2015-04-27T20:18:06.906Z</time>
      </trkpt>
      <trkpt lat="48.81068" lon="2.46968">
        <ele>118.2</ele>
        <time>2015-04-27T20:18:08.920Z</time>
      </trkpt>
      <trkpt lat="48.81071" lon="2.46963">
        <ele>118</ele>
        <time>2015-04-27T20:18:09.926Z</time>
      </trkpt>
      <trkpt lat="48.81074" lon="2.46956">
        <ele>117.7</ele>
        <time>2015-04-27T20:18:12.008Z</time>
      </trkpt>
      <trkpt lat="48.81077" lon="2.46951">
        <ele>117.5</ele>
        <time>2015-04-27T20:18:12.878Z</time>
      </trkpt>
      <trkpt lat="48.81082" lon="2.46947">
        <ele>117.3</ele>
        <time>2015-04-27T20:18:13.895Z</time>
      </trkpt>
      <trkpt lat="48.81084" lon="2.46943">
        <ele>117.1</ele>
        <time>2015-04-27T20:18:14.901Z</time>
      </trkpt>
      <trkpt lat="48.81089" lon="2.46933">
        <ele>117</ele>
        <time>2015-04-27T20:18:17.203Z</time>
      </trkpt>
      <trkpt lat="48.81092" lon="2.46929">
        <ele>117.1</ele>
        <time>2015-04-27T20:18:17.941Z</time>
      </trkpt>
      <trkpt lat="48.81097" lon="2.46925">
        <ele>116.9</ele>
        <time>2015-04-27T20:18:18.955Z</time>
      </trkpt>
      <trkpt lat="48.811" lon="2.46921">
        <ele>116.5</ele>
        <time>2015-04-27T20:18:19.844Z</time>
      </trkpt>
      <trkpt lat="48.81106" lon="2.46913">
        <ele>116.2</ele>
        <time>2015-04-27T20:18:22.260Z</time>
      </trkpt>
      <trkpt lat="48.81107" lon="2.46908">
        <ele>116.3</ele>
        <time>2015-04-27T20:18:22.920Z</time>
      </trkpt>
      <trkpt lat="48.81115" lon="2.46902">
        <ele>116.5</ele>
        <time>2015-04-27T20:18:24.954Z</time>
      </trkpt>
      <trkpt lat="48.8112" lon="2.469">
        <ele>116.6</ele>
        <time>2015-04-27T20:18:25.893Z</time>
      </trkpt>
      <trkpt lat="48.81126" lon="2.46899">
        <ele>116.4</ele>
        <time>2015-04-27T20:18:26.898Z</time>
      </trkpt>
      <trkpt lat="48.81132" lon="2.46898">
        <ele>116.4</ele>
        <time>2015-04-27T20:18:27.932Z</time>
      </trkpt>
      <trkpt lat="48.81138" lon="2.46896">
        <ele>116.3</ele>
        <time>2015-04-27T20:18:28.950Z</time>
      </trkpt>
      <trkpt lat="48.81143" lon="2.46894">
        <ele>116.2</ele>
        <time>2015-04-27T20:18:29.959Z</time>
      </trkpt>
      <trkpt lat="48.81147" lon="2.46891">
        <ele>116.2</ele>
        <time>2015-04-27T20:18:30.856Z</time>
      </trkpt>
      <trkpt lat="48.81153" lon="2.46889">
        <ele>116.1</ele>
        <time>2015-04-27T20:18:31.882Z</time>
      </trkpt>
      <trkpt lat="48.81157" lon="2.46886">
        <ele>116.3</ele>
        <time>2015-04-27T20:18:32.898Z</time>
      </trkpt>
      <trkpt lat="48.81162" lon="2.46883">
        <ele>116.4</ele>
        <time>2015-04-27T20:18:33.906Z</time>
      </trkpt>
      <trkpt lat="48.8117" lon="2.46876">
        <ele>116.6</ele>
        <time>2015-04-27T20:18:35.957Z</time>
      </trkpt>
      <trkpt lat="48.81174" lon="2.46872">
        <ele>116.9</ele>
        <time>2015-04-27T20:18:36.973Z</time>
      </trkpt>
      <trkpt lat="48.81181" lon="2.46865">
        <ele>117.5</ele>
        <time>2015-04-27T20:18:38.936Z</time>
      </trkpt>
      <trkpt lat="48.81183" lon="2.4686">
        <ele>118</ele>
        <time>2015-04-27T20:18:39.953Z</time>
      </trkpt>
      <trkpt lat="48.81189" lon="2.46852">
        <ele>118.3</ele>
        <time>2015-04-27T20:18:41.913Z</time>
      </trkpt>
      <trkpt lat="48.8119" lon="2.46846">
        <ele>118.3</ele>
        <time>2015-04-27T20:18:42.960Z</time>
      </trkpt>
      <trkpt lat="48.81191" lon="2.46835">
        <ele>118.6</ele>
        <time>2015-04-27T20:18:45.793Z</time>
      </trkpt>
      <trkpt lat="48.81192" lon="2.46829">
        <ele>118.5</ele>
        <time>2015-04-27T20:18:45.981Z</time>
      </trkpt>
      <trkpt lat="48.81197" lon="2.46818">
        <ele>118.6</ele>
        <time>2015-04-27T20:18:47.890Z</time>
      </trkpt>
      <trkpt lat="48.812" lon="2.46812">
        <ele>118.7</ele>
        <time>2015-04-27T20:18:48.917Z</time>
      </trkpt>
      <trkpt lat="48.81202" lon="2.46806">
        <ele>118.9</ele>
        <time>2015-04-27T20:18:50.813Z</time>
      </trkpt>
      <trkpt lat="48.81205" lon="2.468">
        <ele>118.9</ele>
        <time>2015-04-27T20:18:50.898Z</time>
      </trkpt>
      <trkpt lat="48.81209" lon="2.46789">
        <ele>119</ele>
        <time>2015-04-27T20:18:52.915Z</time>
      </trkpt>
      <trkpt lat="48.81211" lon="2.46784">
        <ele>118.9</ele>
        <time>2015-04-27T20:18:54.018Z</time>
      </trkpt>
      <trkpt lat="48.81217" lon="2.46774">
        <ele>118.6</ele>
        <time>2015-04-27T20:18:55.906Z</time>
      </trkpt>
      <trkpt lat="48.81219" lon="2.46768">
        <ele>118.6</ele>
        <time>2015-04-27T20:18:56.942Z</time>
      </trkpt>
      <trkpt lat="48.81221" lon="2.46762">
        <ele>118.6</ele>
        <time>2015-04-27T20:18:57.950Z</time>
      </trkpt>
      <trkpt lat="48.81224" lon="2.46757">
        <ele>118.5</ele>
        <time>2015-04-27T20:18:58.970Z</time>
      </trkpt>
      <trkpt lat="48.81229" lon="2.46747">
        <ele>118.5</ele>
        <time>2015-04-27T20:19:00.900Z</time>
      </trkpt>
      <trkpt lat="48.81232" lon="2.46742">
        <ele>118.5</ele>
        <time>2015-04-27T20:19:01.927Z</time>
      </trkpt>
      <trkpt lat="48.81235" lon="2.46737">
        <ele>118.3</ele>
        <time>2015-04-27T20:19:02.983Z</time>
      </trkpt>
      <trkpt lat="48.81239" lon="2.46733">
        <ele>118.2</ele>
        <time>2015-04-27T20:19:03.986Z</time>
      </trkpt>
      <trkpt lat="48.81243" lon="2.46728">
        <ele>118</ele>
        <time>2015-04-27T20:19:04.864Z</time>
      </trkpt>
      <trkpt lat="48.81246" lon="2.46723">
        <ele>117.7</ele>
        <time>2015-04-27T20:19:05.895Z</time>
      </trkpt>
      <trkpt lat="48.81253" lon="2.46714">
        <ele>117.4</ele>
        <time>2015-04-27T20:19:07.928Z</time>
      </trkpt>
      <trkpt lat="48.81256" lon="2.4671">
        <ele>117.2</ele>
        <time>2015-04-27T20:19:09.011Z</time>
      </trkpt>
      <trkpt lat="48.81262" lon="2.46699">
        <ele>116.9</ele>
        <time>2015-04-27T20:19:10.906Z</time>
      </trkpt>
      <trkpt lat="48.81264" lon="2.46694">
        <ele>116.9</ele>
        <time>2015-04-27T20:19:11.916Z</time>
      </trkpt>
      <trkpt lat="48.81267" lon="2.46689">
        <ele>117</ele>
        <time>2015-04-27T20:19:12.959Z</time>
      </trkpt>
      <trkpt lat="48.81271" lon="2.46684">
        <ele>117.3</ele>
        <time>2015-04-27T20:19:13.970Z</time>
      </trkpt>
      <trkpt lat="48.81274" lon="2.46678">
        <ele>117.5</ele>
        <time>2015-04-27T20:19:14.912Z</time>
      </trkpt>
      <trkpt lat="48.81278" lon="2.46673">
        <ele>117.6</ele>
        <time>2015-04-27T20:19:15.930Z</time>
      </trkpt>
      <trkpt lat="48.81282" lon="2.46668">
        <ele>117.9</ele>
        <time>2015-04-27T20:19:16.953Z</time>
      </trkpt>
      <trkpt lat="48.81286" lon="2.46662">
        <ele>117.9</ele>
        <time>2015-04-27T20:19:17.970Z</time>
      </trkpt>
      <trkpt lat="48.81289" lon="2.46658">
        <ele>117.8</ele>
        <time>2015-04-27T20:19:18.866Z</time>
      </trkpt>
      <trkpt lat="48.81292" lon="2.46653">
        <ele>117.7</ele>
        <time>2015-04-27T20:19:19.892Z</time>
      </trkpt>
      <trkpt lat="48.81296" lon="2.46648">
        <ele>117.3</ele>
        <time>2015-04-27T20:19:20.912Z</time>
      </trkpt>
      <trkpt lat="48.813" lon="2.46644">
        <ele>117.1</ele>
        <time>2015-04-27T20:19:21.928Z</time>
      </trkpt>
      <trkpt lat="48.81305" lon="2.4664">
        <ele>116.9</ele>
        <time>2015-04-27T20:19:23.209Z</time>
      </trkpt>
      <trkpt lat="48.81308" lon="2.46635">
        <ele>116.9</ele>
        <time>2015-04-27T20:19:23.950Z</time>
      </trkpt>
      <trkpt lat="48.81311" lon="2.46629">
        <ele>116.6</ele>
        <time>2015-04-27T20:19:24.963Z</time>
      </trkpt>
      <trkpt lat="48.81315" lon="2.46623">
        <ele>116.5</ele>
        <time>2015-04-27T20:19:25.973Z</time>
      </trkpt>
      <trkpt lat="48.81318" lon="2.46617">
        <ele>116.5</ele>
        <time>2015-04-27T20:19:26.992Z</time>
      </trkpt>
      <trkpt lat="48.8132" lon="2.46612">
        <ele>116.7</ele>
        <time>2015-04-27T20:19:28.011Z</time>
      </trkpt>
      <trkpt lat="48.81322" lon="2.46606">
        <ele>116.6</ele>
        <time>2015-04-27T20:19:28.909Z</time>
      </trkpt>
      <trkpt lat="48.81325" lon="2.466">
        <ele>116.5</ele>
        <time>2015-04-27T20:19:29.925Z</time>
      </trkpt>
      <trkpt lat="48.81329" lon="2.46595">
        <ele>116.4</ele>
        <time>2015-04-27T20:19:31.048Z</time>
      </trkpt>
      <trkpt lat="48.81331" lon="2.4659">
        <ele>116.5</ele>
        <time>2015-04-27T20:19:31.935Z</time>
      </trkpt>
      <trkpt lat="48.81336" lon="2.46584">
        <ele>116.5</ele>
        <time>2015-04-27T20:19:32.922Z</time>
      </trkpt>
      <trkpt lat="48.81339" lon="2.46578">
        <ele>116.6</ele>
        <time>2015-04-27T20:19:33.937Z</time>
      </trkpt>
      <trkpt lat="48.81341" lon="2.46572">
        <ele>116.3</ele>
        <time>2015-04-27T20:19:34.956Z</time>
      </trkpt>
      <trkpt lat="48.81345" lon="2.46565">
        <ele>116.2</ele>
        <time>2015-04-27T20:19:35.979Z</time>
      </trkpt>
      <trkpt lat="48.81349" lon="2.4656">
        <ele>116.1</ele>
        <time>2015-04-27T20:19:36.898Z</time>
      </trkpt>
      <trkpt lat="48.81352" lon="2.46555">
        <ele>115.9</ele>
        <time>2015-04-27T20:19:37.901Z</time>
      </trkpt>
      <trkpt lat="48.81354" lon="2.46548">
        <ele>115.6</ele>
        <time>2015-04-27T20:19:38.905Z</time>
      </trkpt>
      <trkpt lat="48.81357" lon="2.46542">
        <ele>115.4</ele>
        <time>2015-04-27T20:19:39.917Z</time>
      </trkpt>
      <trkpt lat="48.81359" lon="2.46536">
        <ele>115.4</ele>
        <time>2015-04-27T20:19:40.932Z</time>
      </trkpt>
      <trkpt lat="48.81363" lon="2.46531">
        <ele>115.2</ele>
        <time>2015-04-27T20:19:41.952Z</time>
      </trkpt>
      <trkpt lat="48.81366" lon="2.46524">
        <ele>115.1</ele>
        <time>2015-04-27T20:19:42.972Z</time>
      </trkpt>
      <trkpt lat="48.81369" lon="2.46517">
        <ele>115</ele>
        <time>2015-04-27T20:19:43.979Z</time>
      </trkpt>
      <trkpt lat="48.81372" lon="2.46512">
        <ele>114.6</ele>
        <time>2015-04-27T20:19:44.904Z</time>
      </trkpt>
      <trkpt lat="48.81375" lon="2.46507">
        <ele>114.4</ele>
        <time>2015-04-27T20:19:45.940Z</time>
      </trkpt>
      <trkpt lat="48.81381" lon="2.46498">
        <ele>114.4</ele>
        <time>2015-04-27T20:19:47.982Z</time>
      </trkpt>
      <trkpt lat="48.81384" lon="2.46493">
        <ele>114.2</ele>
        <time>2015-04-27T20:19:48.879Z</time>
      </trkpt>
      <trkpt lat="48.81388" lon="2.46488">
        <ele>113.4</ele>
        <time>2015-04-27T20:19:49.960Z</time>
      </trkpt>
      <trkpt lat="48.81392" lon="2.46482">
        <ele>112.8</ele>
        <time>2015-04-27T20:19:50.965Z</time>
      </trkpt>
      <trkpt lat="48.81394" lon="2.46475">
        <ele>112.4</ele>
        <time>2015-04-27T20:19:51.996Z</time>
      </trkpt>
      <trkpt lat="48.81398" lon="2.46467">
        <ele>112</ele>
        <time>2015-04-27T20:19:52.983Z</time>
      </trkpt>
      <trkpt lat="48.81401" lon="2.4646">
        <ele>112.4</ele>
        <time>2015-04-27T20:19:53.905Z</time>
      </trkpt>
      <trkpt lat="48.81403" lon="2.46451">
        <ele>112.9</ele>
        <time>2015-04-27T20:19:54.906Z</time>
      </trkpt>
      <trkpt lat="48.81406" lon="2.46443">
        <ele>113.2</ele>
        <time>2015-04-27T20:19:55.942Z</time>
      </trkpt>
      <trkpt lat="48.81408" lon="2.46434">
        <ele>113.4</ele>
        <time>2015-04-27T20:19:56.956Z</time>
      </trkpt>
      <trkpt lat="48.81409" lon="2.46426">
        <ele>113.3</ele>
        <time>2015-04-27T20:19:57.962Z</time>
      </trkpt>
      <trkpt lat="48.81411" lon="2.46418">
        <ele>113.1</ele>
        <time>2015-04-27T20:19:58.977Z</time>
      </trkpt>
      <trkpt lat="48.81413" lon="2.4641">
        <ele>113.1</ele>
        <time>2015-04-27T20:20:00.142Z</time>
      </trkpt>
      <trkpt lat="48.81415" lon="2.46403">
        <ele>113.3</ele>
        <time>2015-04-27T20:20:00.899Z</time>
      </trkpt>
      <trkpt lat="48.81418" lon="2.46398">
        <ele>113.4</ele>
        <time>2015-04-27T20:20:01.920Z</time>
      </trkpt>
      <trkpt lat="48.81423" lon="2.46393">
        <ele>113.5</ele>
        <time>2015-04-27T20:20:02.929Z</time>
      </trkpt>
      <trkpt lat="48.81427" lon="2.46387">
        <ele>113.6</ele>
        <time>2015-04-27T20:20:03.944Z</time>
      </trkpt>
      <trkpt lat="48.8143" lon="2.46382">
        <ele>113.5</ele>
        <time>2015-04-27T20:20:04.962Z</time>
      </trkpt>
      <trkpt lat="48.81437" lon="2.46374">
        <ele>113.6</ele>
        <time>2015-04-27T20:20:06.985Z</time>
      </trkpt>
      <trkpt lat="48.81442" lon="2.46368">
        <ele>113.4</ele>
        <time>2015-04-27T20:20:07.913Z</time>
      </trkpt>
      <trkpt lat="48.81447" lon="2.46364">
        <ele>113.1</ele>
        <time>2015-04-27T20:20:08.898Z</time>
      </trkpt>
      <trkpt lat="48.81452" lon="2.46361">
        <ele>112.7</ele>
        <time>2015-04-27T20:20:09.931Z</time>
      </trkpt>
      <trkpt lat="48.81457" lon="2.46357">
        <ele>112.6</ele>
        <time>2015-04-27T20:20:10.907Z</time>
      </trkpt>
      <trkpt lat="48.81461" lon="2.46353">
        <ele>113.2</ele>
        <time>2015-04-27T20:20:11.911Z</time>
      </trkpt>
      <trkpt lat="48.81467" lon="2.46345">
        <ele>113</ele>
        <time>2015-04-27T20:20:13.935Z</time>
      </trkpt>
      <trkpt lat="48.8147" lon="2.46342">
        <ele>113.1</ele>
        <time>2015-04-27T20:20:14.947Z</time>
      </trkpt>
      <trkpt lat="48.81476" lon="2.46336">
        <ele>112.5</ele>
        <time>2015-04-27T20:20:16.871Z</time>
      </trkpt>
      <trkpt lat="48.81479" lon="2.46333">
        <ele>112.1</ele>
        <time>2015-04-27T20:20:17.876Z</time>
      </trkpt>
      <trkpt lat="48.81484" lon="2.46325">
        <ele>112.6</ele>
        <time>2015-04-27T20:20:19.923Z</time>
      </trkpt>
      <trkpt lat="48.81485" lon="2.46321">
        <ele>112.7</ele>
        <time>2015-04-27T20:20:20.939Z</time>
      </trkpt>
      <trkpt lat="48.81492" lon="2.46318">
        <ele>113.3</ele>
        <time>2015-04-27T20:20:22.906Z</time>
      </trkpt>
      <trkpt lat="48.81493" lon="2.46316">
        <ele>113.2</ele>
        <time>2015-04-27T20:20:23.938Z</time>
      </trkpt>
      <trkpt lat="48.81495" lon="2.4631">
        <ele>112.9</ele>
        <time>2015-04-27T20:20:53.924Z</time>
      </trkpt>
      <trkpt lat="48.81487" lon="2.46302">
        <ele>111.9</ele>
        <time>2015-04-27T20:20:54.939Z</time>
      </trkpt>
      <trkpt lat="48.81481" lon="2.46295">
        <ele>111.7</ele>
        <time>2015-04-27T20:20:57.948Z</time>
      </trkpt>
      <trkpt lat="48.81478" lon="2.46292">
        <ele>111.6</ele>
        <time>2015-04-27T20:20:59.018Z</time>
      </trkpt>
      <trkpt lat="48.81472" lon="2.46285">
        <ele>111.1</ele>
        <time>2015-04-27T20:21:00.906Z</time>
      </trkpt>
      <trkpt lat="48.81469" lon="2.46281">
        <ele>111</ele>
        <time>2015-04-27T20:21:01.916Z</time>
      </trkpt>
      <trkpt lat="48.81462" lon="2.46273">
        <ele>110.5</ele>
        <time>2015-04-27T20:21:03.981Z</time>
      </trkpt>
      <trkpt lat="48.81458" lon="2.46269">
        <ele>110.4</ele>
        <time>2015-04-27T20:21:04.889Z</time>
      </trkpt>
      <trkpt lat="48.81455" lon="2.46265">
        <ele>110.3</ele>
        <time>2015-04-27T20:21:05.930Z</time>
      </trkpt>
      <trkpt lat="48.81451" lon="2.46261">
        <ele>110.2</ele>
        <time>2015-04-27T20:21:06.958Z</time>
      </trkpt>
      <trkpt lat="48.81444" lon="2.46255">
        <ele>109.7</ele>
        <time>2015-04-27T20:21:08.906Z</time>
      </trkpt>
      <trkpt lat="48.8144" lon="2.46252">
        <ele>109.4</ele>
        <time>2015-04-27T20:21:09.937Z</time>
      </trkpt>
      <trkpt lat="48.81438" lon="2.4624">
        <ele>108.7</ele>
        <time>2015-04-27T20:21:11.958Z</time>
      </trkpt>
      <trkpt lat="48.81439" lon="2.46233">
        <ele>108.3</ele>
        <time>2015-04-27T20:21:12.988Z</time>
      </trkpt>
      <trkpt lat="48.81442" lon="2.46227">
        <ele>107.8</ele>
        <time>2015-04-27T20:21:13.894Z</time>
      </trkpt>
      <trkpt lat="48.81444" lon="2.46222">
        <ele>107.6</ele>
        <time>2015-04-27T20:21:14.905Z</time>
      </trkpt>
      <trkpt lat="48.81447" lon="2.46218">
        <ele>107.5</ele>
        <time>2015-04-27T20:21:15.978Z</time>
      </trkpt>
      <trkpt lat="48.81451" lon="2.46213">
        <ele>107.5</ele>
        <time>2015-04-27T20:21:16.988Z</time>
      </trkpt>
      <trkpt lat="48.81454" lon="2.46207">
        <ele>107.5</ele>
        <time>2015-04-27T20:21:17.863Z</time>
      </trkpt>
      <trkpt lat="48.81457" lon="2.46201">
        <ele>107.6</ele>
        <time>2015-04-27T20:21:18.908Z</time>
      </trkpt>
      <trkpt lat="48.81461" lon="2.46197">
        <ele>107.5</ele>
        <time>2015-04-27T20:21:19.966Z</time>
      </trkpt>
      <trkpt lat="48.81464" lon="2.46191">
        <ele>107.4</ele>
        <time>2015-04-27T20:21:20.991Z</time>
      </trkpt>
      <trkpt lat="48.81466" lon="2.46184">
        <ele>108</ele>
        <time>2015-04-27T20:21:22.001Z</time>
      </trkpt>
      <trkpt lat="48.81469" lon="2.46175">
        <ele>108.3</ele>
        <time>2015-04-27T20:21:22.968Z</time>
      </trkpt>
      <trkpt lat="48.81471" lon="2.46166">
        <ele>108.9</ele>
        <time>2015-04-27T20:21:23.903Z</time>
      </trkpt>
      <trkpt lat="48.81474" lon="2.46158">
        <ele>109.1</ele>
        <time>2015-04-27T20:21:24.911Z</time>
      </trkpt>
      <trkpt lat="48.81477" lon="2.46152">
        <ele>109.1</ele>
        <time>2015-04-27T20:21:25.915Z</time>
      </trkpt>
      <trkpt lat="48.8148" lon="2.46145">
        <ele>109.4</ele>
        <time>2015-04-27T20:21:26.931Z</time>
      </trkpt>
      <trkpt lat="48.81484" lon="2.46139">
        <ele>109.4</ele>
        <time>2015-04-27T20:21:27.955Z</time>
      </trkpt>
      <trkpt lat="48.81488" lon="2.46132">
        <ele>109.5</ele>
        <time>2015-04-27T20:21:28.962Z</time>
      </trkpt>
      <trkpt lat="48.81494" lon="2.46127">
        <ele>109.3</ele>
        <time>2015-04-27T20:21:29.967Z</time>
      </trkpt>
      <trkpt lat="48.81499" lon="2.46122">
        <ele>109.5</ele>
        <time>2015-04-27T20:21:30.983Z</time>
      </trkpt>
      <trkpt lat="48.81504" lon="2.46118">
        <ele>109.3</ele>
        <time>2015-04-27T20:21:31.889Z</time>
      </trkpt>
      <trkpt lat="48.8151" lon="2.46115">
        <ele>109.2</ele>
        <time>2015-04-27T20:21:32.905Z</time>
      </trkpt>
      <trkpt lat="48.81513" lon="2.4611">
        <ele>109</ele>
        <time>2015-04-27T20:21:33.930Z</time>
      </trkpt>
      <trkpt lat="48.81519" lon="2.46107">
        <ele>108.8</ele>
        <time>2015-04-27T20:21:34.941Z</time>
      </trkpt>
      <trkpt lat="48.81524" lon="2.46103">
        <ele>108.1</ele>
        <time>2015-04-27T20:21:35.951Z</time>
      </trkpt>
      <trkpt lat="48.81529" lon="2.461">
        <ele>108</ele>
        <time>2015-04-27T20:21:36.955Z</time>
      </trkpt>
      <trkpt lat="48.81536" lon="2.46098">
        <ele>108.1</ele>
        <time>2015-04-27T20:21:37.880Z</time>
      </trkpt>
      <trkpt lat="48.81541" lon="2.46095">
        <ele>108.2</ele>
        <time>2015-04-27T20:21:38.895Z</time>
      </trkpt>
      <trkpt lat="48.81545" lon="2.46092">
        <ele>108.5</ele>
        <time>2015-04-27T20:21:39.903Z</time>
      </trkpt>
      <trkpt lat="48.81553" lon="2.46089">
        <ele>108.7</ele>
        <time>2015-04-27T20:21:40.915Z</time>
      </trkpt>
      <trkpt lat="48.81559" lon="2.46085">
        <ele>108.9</ele>
        <time>2015-04-27T20:21:41.928Z</time>
      </trkpt>
      <trkpt lat="48.81562" lon="2.4608">
        <ele>109.2</ele>
        <time>2015-04-27T20:21:42.935Z</time>
      </trkpt>
      <trkpt lat="48.81564" lon="2.46074">
        <ele>109.4</ele>
        <time>2015-04-27T20:21:43.962Z</time>
      </trkpt>
      <trkpt lat="48.81564" lon="2.46066">
        <ele>109.3</ele>
        <time>2015-04-27T20:21:44.974Z</time>
      </trkpt>
      <trkpt lat="48.81567" lon="2.46058">
        <ele>109.2</ele>
        <time>2015-04-27T20:21:45.906Z</time>
      </trkpt>
      <trkpt lat="48.81571" lon="2.46051">
        <ele>108.9</ele>
        <time>2015-04-27T20:21:46.895Z</time>
      </trkpt>
      <trkpt lat="48.81576" lon="2.46044">
        <ele>108.6</ele>
        <time>2015-04-27T20:21:47.909Z</time>
      </trkpt>
      <trkpt lat="48.81579" lon="2.46037">
        <ele>108.3</ele>
        <time>2015-04-27T20:21:48.921Z</time>
      </trkpt>
      <trkpt lat="48.81581" lon="2.46029">
        <ele>108.1</ele>
        <time>2015-04-27T20:21:49.954Z</time>
      </trkpt>
      <trkpt lat="48.81585" lon="2.46022">
        <ele>107.9</ele>
        <time>2015-04-27T20:21:50.960Z</time>
      </trkpt>
      <trkpt lat="48.81587" lon="2.46014">
        <ele>107.7</ele>
        <time>2015-04-27T20:21:51.877Z</time>
      </trkpt>
      <trkpt lat="48.8159" lon="2.46007">
        <ele>107.3</ele>
        <time>2015-04-27T20:21:52.892Z</time>
      </trkpt>
      <trkpt lat="48.81591" lon="2.45998">
        <ele>107.1</ele>
        <time>2015-04-27T20:21:53.918Z</time>
      </trkpt>
      <trkpt lat="48.81593" lon="2.45991">
        <ele>107.1</ele>
        <time>2015-04-27T20:21:54.938Z</time>
      </trkpt>
      <trkpt lat="48.81595" lon="2.45984">
        <ele>106.8</ele>
        <time>2015-04-27T20:21:55.857Z</time>
      </trkpt>
      <trkpt lat="48.81597" lon="2.45977">
        <ele>106.5</ele>
        <time>2015-04-27T20:21:56.913Z</time>
      </trkpt>
      <trkpt lat="48.81599" lon="2.4597">
        <ele>106.5</ele>
        <time>2015-04-27T20:21:57.886Z</time>
      </trkpt>
      <trkpt lat="48.816" lon="2.45961">
        <ele>106.2</ele>
        <time>2015-04-27T20:21:58.914Z</time>
      </trkpt>
      <trkpt lat="48.81603" lon="2.45953">
        <ele>106.1</ele>
        <time>2015-04-27T20:21:59.920Z</time>
      </trkpt>
      <trkpt lat="48.81604" lon="2.45944">
        <ele>105.8</ele>
        <time>2015-04-27T20:22:00.835Z</time>
      </trkpt>
      <trkpt lat="48.81603" lon="2.45933">
        <ele>105.4</ele>
        <time>2015-04-27T20:22:01.846Z</time>
      </trkpt>
      <trkpt lat="48.81604" lon="2.45924">
        <ele>105.2</ele>
        <time>2015-04-27T20:22:02.860Z</time>
      </trkpt>
      <trkpt lat="48.81607" lon="2.45915">
        <ele>104.9</ele>
        <time>2015-04-27T20:22:03.889Z</time>
      </trkpt>
      <trkpt lat="48.81609" lon="2.45907">
        <ele>104.4</ele>
        <time>2015-04-27T20:22:04.892Z</time>
      </trkpt>
      <trkpt lat="48.81611" lon="2.45898">
        <ele>103.9</ele>
        <time>2015-04-27T20:22:05.911Z</time>
      </trkpt>
      <trkpt lat="48.81612" lon="2.45889">
        <ele>103.6</ele>
        <time>2015-04-27T20:22:06.864Z</time>
      </trkpt>
      <trkpt lat="48.81617" lon="2.45883">
        <ele>103.6</ele>
        <time>2015-04-27T20:22:07.889Z</time>
      </trkpt>
      <trkpt lat="48.81617" lon="2.45874">
        <ele>103.5</ele>
        <time>2015-04-27T20:22:08.909Z</time>
      </trkpt>
      <trkpt lat="48.81619" lon="2.45866">
        <ele>103.5</ele>
        <time>2015-04-27T20:22:09.915Z</time>
      </trkpt>
      <trkpt lat="48.81618" lon="2.45856">
        <ele>103.3</ele>
        <time>2015-04-27T20:22:10.839Z</time>
      </trkpt>
      <trkpt lat="48.81616" lon="2.45844">
        <ele>103.1</ele>
        <time>2015-04-27T20:22:11.847Z</time>
      </trkpt>
      <trkpt lat="48.81614" lon="2.45832">
        <ele>102.9</ele>
        <time>2015-04-27T20:22:12.882Z</time>
      </trkpt>
      <trkpt lat="48.81618" lon="2.45823">
        <ele>102.8</ele>
        <time>2015-04-27T20:22:13.898Z</time>
      </trkpt>
      <trkpt lat="48.81621" lon="2.45815">
        <ele>102.7</ele>
        <time>2015-04-27T20:22:14.851Z</time>
      </trkpt>
      <trkpt lat="48.81625" lon="2.45808">
        <ele>102.8</ele>
        <time>2015-04-27T20:22:15.859Z</time>
      </trkpt>
      <trkpt lat="48.81628" lon="2.45801">
        <ele>103</ele>
        <time>2015-04-27T20:22:16.864Z</time>
      </trkpt>
      <trkpt lat="48.81631" lon="2.45794">
        <ele>103.1</ele>
        <time>2015-04-27T20:22:17.877Z</time>
      </trkpt>
      <trkpt lat="48.81634" lon="2.45786">
        <ele>103</ele>
        <time>2015-04-27T20:22:18.899Z</time>
      </trkpt>
      <trkpt lat="48.81637" lon="2.45778">
        <ele>102.8</ele>
        <time>2015-04-27T20:22:19.925Z</time>
      </trkpt>
      <trkpt lat="48.81639" lon="2.4577">
        <ele>102.8</ele>
        <time>2015-04-27T20:22:20.853Z</time>
      </trkpt>
      <trkpt lat="48.81642" lon="2.45762">
        <ele>102.9</ele>
        <time>2015-04-27T20:22:21.854Z</time>
      </trkpt>
      <trkpt lat="48.81644" lon="2.45755">
        <ele>103</ele>
        <time>2015-04-27T20:22:22.870Z</time>
      </trkpt>
      <trkpt lat="48.81647" lon="2.45748">
        <ele>102.8</ele>
        <time>2015-04-27T20:22:23.901Z</time>
      </trkpt>
      <trkpt lat="48.81648" lon="2.4574">
        <ele>102.6</ele>
        <time>2015-04-27T20:22:24.837Z</time>
      </trkpt>
      <trkpt lat="48.81649" lon="2.45733">
        <ele>102.5</ele>
        <time>2015-04-27T20:22:25.837Z</time>
      </trkpt>
      <trkpt lat="48.8165" lon="2.45726">
        <ele>102.5</ele>
        <time>2015-04-27T20:22:26.873Z</time>
      </trkpt>
      <trkpt lat="48.81651" lon="2.45718">
        <ele>102.3</ele>
        <time>2015-04-27T20:22:27.883Z</time>
      </trkpt>
      <trkpt lat="48.81654" lon="2.45711">
        <ele>102.3</ele>
        <time>2015-04-27T20:22:28.901Z</time>
      </trkpt>
      <trkpt lat="48.81655" lon="2.45703">
        <ele>102.5</ele>
        <time>2015-04-27T20:22:29.910Z</time>
      </trkpt>
      <trkpt lat="48.81656" lon="2.45695">
        <ele>102.5</ele>
        <time>2015-04-27T20:22:30.923Z</time>
      </trkpt>
      <trkpt lat="48.8166" lon="2.45687">
        <ele>102.5</ele>
        <time>2015-04-27T20:22:31.833Z</time>
      </trkpt>
      <trkpt lat="48.81662" lon="2.4568">
        <ele>102.2</ele>
        <time>2015-04-27T20:22:32.848Z</time>
      </trkpt>
      <trkpt lat="48.81664" lon="2.45673">
        <ele>102</ele>
        <time>2015-04-27T20:22:33.868Z</time>
      </trkpt>
      <trkpt lat="48.81665" lon="2.45666">
        <ele>101.8</ele>
        <time>2015-04-27T20:22:34.870Z</time>
      </trkpt>
      <trkpt lat="48.81668" lon="2.45659">
        <ele>101.4</ele>
        <time>2015-04-27T20:22:35.883Z</time>
      </trkpt>
      <trkpt lat="48.81669" lon="2.45651">
        <ele>100.8</ele>
        <time>2015-04-27T20:22:36.912Z</time>
      </trkpt>
      <trkpt lat="48.8167" lon="2.45643">
        <ele>100.6</ele>
        <time>2015-04-27T20:22:37.942Z</time>
      </trkpt>
      <trkpt lat="48.81671" lon="2.45636">
        <ele>100.5</ele>
        <time>2015-04-27T20:22:38.879Z</time>
      </trkpt>
      <trkpt lat="48.81671" lon="2.45628">
        <ele>100.5</ele>
        <time>2015-04-27T20:22:39.879Z</time>
      </trkpt>
      <trkpt lat="48.81672" lon="2.45619">
        <ele>100.5</ele>
        <time>2015-04-27T20:22:40.881Z</time>
      </trkpt>
      <trkpt lat="48.81673" lon="2.45609">
        <ele>100.6</ele>
        <time>2015-04-27T20:22:41.897Z</time>
      </trkpt>
      <trkpt lat="48.81673" lon="2.45599">
        <ele>100.8</ele>
        <time>2015-04-27T20:22:42.910Z</time>
      </trkpt>
      <trkpt lat="48.81677" lon="2.4559">
        <ele>101.5</ele>
        <time>2015-04-27T20:22:43.834Z</time>
      </trkpt>
      <trkpt lat="48.8168" lon="2.4558">
        <ele>102.9</ele>
        <time>2015-04-27T20:22:44.880Z</time>
      </trkpt>
      <trkpt lat="48.81681" lon="2.45569">
        <ele>103.7</ele>
        <time>2015-04-27T20:22:45.898Z</time>
      </trkpt>
      <trkpt lat="48.81681" lon="2.45561">
        <ele>103.9</ele>
        <time>2015-04-27T20:22:46.919Z</time>
      </trkpt>
      <trkpt lat="48.81683" lon="2.45553">
        <ele>103.9</ele>
        <time>2015-04-27T20:22:47.937Z</time>
      </trkpt>
      <trkpt lat="48.81683" lon="2.45544">
        <ele>103.8</ele>
        <time>2015-04-27T20:22:48.941Z</time>
      </trkpt>
      <trkpt lat="48.81685" lon="2.45536">
        <ele>103.7</ele>
        <time>2015-04-27T20:22:49.856Z</time>
      </trkpt>
      <trkpt lat="48.81687" lon="2.4553">
        <ele>103.6</ele>
        <time>2015-04-27T20:22:50.871Z</time>
      </trkpt>
      <trkpt lat="48.81689" lon="2.45522">
        <ele>103.5</ele>
        <time>2015-04-27T20:22:51.905Z</time>
      </trkpt>
      <trkpt lat="48.8169" lon="2.45514">
        <ele>103</ele>
        <time>2015-04-27T20:22:52.915Z</time>
      </trkpt>
      <trkpt lat="48.81691" lon="2.45507">
        <ele>102.6</ele>
        <time>2015-04-27T20:22:53.829Z</time>
      </trkpt>
      <trkpt lat="48.81698" lon="2.45488">
        <ele>102</ele>
        <time>2015-04-27T20:22:56.946Z</time>
      </trkpt>
      <trkpt lat="48.81729" lon="2.45193">
        <ele>105</ele>
        <time>2015-04-27T20:23:27.901Z</time>
      </trkpt>
      <trkpt lat="48.81734" lon="2.45183">
        <ele>110.8</ele>
        <time>2015-04-27T20:23:28.937Z</time>
      </trkpt>
      <trkpt lat="48.81737" lon="2.4517">
        <ele>117.8</ele>
        <time>2015-04-27T20:23:29.951Z</time>
      </trkpt>
      <trkpt lat="48.81739" lon="2.45164">
        <ele>117</ele>
        <time>2015-04-27T20:23:30.866Z</time>
      </trkpt>
      <trkpt lat="48.81743" lon="2.45158">
        <ele>114.7</ele>
        <time>2015-04-27T20:23:31.875Z</time>
      </trkpt>
      <trkpt lat="48.81747" lon="2.45153">
        <ele>111.4</ele>
        <time>2015-04-27T20:23:32.875Z</time>
      </trkpt>
      <trkpt lat="48.81751" lon="2.45146">
        <ele>110</ele>
        <time>2015-04-27T20:23:33.895Z</time>
      </trkpt>
      <trkpt lat="48.81755" lon="2.4514">
        <ele>109.3</ele>
        <time>2015-04-27T20:23:34.978Z</time>
      </trkpt>
      <trkpt lat="48.81755" lon="2.45131">
        <ele>106.6</ele>
        <time>2015-04-27T20:23:35.862Z</time>
      </trkpt>
      <trkpt lat="48.81757" lon="2.45122">
        <ele>104.5</ele>
        <time>2015-04-27T20:23:36.899Z</time>
      </trkpt>
      <trkpt lat="48.81759" lon="2.45113">
        <ele>103.1</ele>
        <time>2015-04-27T20:23:37.867Z</time>
      </trkpt>
      <trkpt lat="48.8176" lon="2.45103">
        <ele>102.1</ele>
        <time>2015-04-27T20:23:38.876Z</time>
      </trkpt>
      <trkpt lat="48.81762" lon="2.45095">
        <ele>100.9</ele>
        <time>2015-04-27T20:23:39.898Z</time>
      </trkpt>
      <trkpt lat="48.81765" lon="2.45087">
        <ele>98.6</ele>
        <time>2015-04-27T20:23:40.935Z</time>
      </trkpt>
      <trkpt lat="48.81769" lon="2.45079">
        <ele>97.4</ele>
        <time>2015-04-27T20:23:41.942Z</time>
      </trkpt>
      <trkpt lat="48.8177" lon="2.4507">
        <ele>95.8</ele>
        <time>2015-04-27T20:23:42.852Z</time>
      </trkpt>
      <trkpt lat="48.81775" lon="2.45063">
        <ele>92.6</ele>
        <time>2015-04-27T20:23:43.863Z</time>
      </trkpt>
      <trkpt lat="48.81777" lon="2.45055">
        <ele>89.9</ele>
        <time>2015-04-27T20:23:44.881Z</time>
      </trkpt>
      <trkpt lat="48.81778" lon="2.45046">
        <ele>88.7</ele>
        <time>2015-04-27T20:23:45.891Z</time>
      </trkpt>
      <trkpt lat="48.81782" lon="2.45038">
        <ele>87.5</ele>
        <time>2015-04-27T20:23:46.901Z</time>
      </trkpt>
      <trkpt lat="48.81784" lon="2.45027">
        <ele>89.5</ele>
        <time>2015-04-27T20:23:47.907Z</time>
      </trkpt>
      <trkpt lat="48.81786" lon="2.45016">
        <ele>89.1</ele>
        <time>2015-04-27T20:23:48.912Z</time>
      </trkpt>
      <trkpt lat="48.81787" lon="2.45005">
        <ele>89.3</ele>
        <time>2015-04-27T20:23:49.918Z</time>
      </trkpt>
      <trkpt lat="48.81789" lon="2.44994">
        <ele>88.2</ele>
        <time>2015-04-27T20:23:50.936Z</time>
      </trkpt>
      <trkpt lat="48.8179" lon="2.44984">
        <ele>88.4</ele>
        <time>2015-04-27T20:23:51.942Z</time>
      </trkpt>
      <trkpt lat="48.81793" lon="2.44975">
        <ele>88.7</ele>
        <time>2015-04-27T20:23:52.831Z</time>
      </trkpt>
      <trkpt lat="48.81794" lon="2.44965">
        <ele>88.9</ele>
        <time>2015-04-27T20:23:53.844Z</time>
      </trkpt>
      <trkpt lat="48.81797" lon="2.44957">
        <ele>88.2</ele>
        <time>2015-04-27T20:23:54.855Z</time>
      </trkpt>
      <trkpt lat="48.81799" lon="2.44949">
        <ele>88.6</ele>
        <time>2015-04-27T20:23:55.866Z</time>
      </trkpt>
      <trkpt lat="48.81801" lon="2.44939">
        <ele>88.4</ele>
        <time>2015-04-27T20:23:56.889Z</time>
      </trkpt>
      <trkpt lat="48.818" lon="2.44927">
        <ele>88.7</ele>
        <time>2015-04-27T20:23:57.896Z</time>
      </trkpt>
      <trkpt lat="48.818" lon="2.44918">
        <ele>88.8</ele>
        <time>2015-04-27T20:23:58.913Z</time>
      </trkpt>
      <trkpt lat="48.818" lon="2.44906">
        <ele>88.1</ele>
        <time>2015-04-27T20:23:59.919Z</time>
      </trkpt>
      <trkpt lat="48.818" lon="2.44896">
        <ele>88.1</ele>
        <time>2015-04-27T20:24:00.937Z</time>
      </trkpt>
      <trkpt lat="48.818" lon="2.44885">
        <ele>88.3</ele>
        <time>2015-04-27T20:24:01.950Z</time>
      </trkpt>
      <trkpt lat="48.818" lon="2.44875">
        <ele>88.2</ele>
        <time>2015-04-27T20:24:02.867Z</time>
      </trkpt>
      <trkpt lat="48.81801" lon="2.44865">
        <ele>88.9</ele>
        <time>2015-04-27T20:24:03.988Z</time>
      </trkpt>
      <trkpt lat="48.81801" lon="2.44854">
        <ele>88.6</ele>
        <time>2015-04-27T20:24:04.858Z</time>
      </trkpt>
      <trkpt lat="48.81801" lon="2.44846">
        <ele>88.1</ele>
        <time>2015-04-27T20:24:05.881Z</time>
      </trkpt>
      <trkpt lat="48.81801" lon="2.44835">
        <ele>87.8</ele>
        <time>2015-04-27T20:24:06.891Z</time>
      </trkpt>
      <trkpt lat="48.818" lon="2.44825">
        <ele>87.7</ele>
        <time>2015-04-27T20:24:07.901Z</time>
      </trkpt>
      <trkpt lat="48.818" lon="2.44816">
        <ele>87.6</ele>
        <time>2015-04-27T20:24:08.913Z</time>
      </trkpt>
      <trkpt lat="48.81801" lon="2.44805">
        <ele>87.7</ele>
        <time>2015-04-27T20:24:09.919Z</time>
      </trkpt>
      <trkpt lat="48.81802" lon="2.44795">
        <ele>87.7</ele>
        <time>2015-04-27T20:24:10.942Z</time>
      </trkpt>
      <trkpt lat="48.81803" lon="2.44786">
        <ele>87.2</ele>
        <time>2015-04-27T20:24:11.955Z</time>
      </trkpt>
      <trkpt lat="48.81805" lon="2.44778">
        <ele>87.5</ele>
        <time>2015-04-27T20:24:12.955Z</time>
      </trkpt>
      <trkpt lat="48.81808" lon="2.4477">
        <ele>87.6</ele>
        <time>2015-04-27T20:24:13.963Z</time>
      </trkpt>
      <trkpt lat="48.81805" lon="2.44758">
        <ele>88.6</ele>
        <time>2015-04-27T20:24:14.862Z</time>
      </trkpt>
      <trkpt lat="48.81802" lon="2.44747">
        <ele>89.5</ele>
        <time>2015-04-27T20:24:15.902Z</time>
      </trkpt>
      <trkpt lat="48.818" lon="2.44734">
        <ele>90.5</ele>
        <time>2015-04-27T20:24:16.922Z</time>
      </trkpt>
      <trkpt lat="48.81798" lon="2.44723">
        <ele>91</ele>
        <time>2015-04-27T20:24:17.939Z</time>
      </trkpt>
      <trkpt lat="48.81797" lon="2.44713">
        <ele>91.3</ele>
        <time>2015-04-27T20:24:18.959Z</time>
      </trkpt>
      <trkpt lat="48.81799" lon="2.44704">
        <ele>91.5</ele>
        <time>2015-04-27T20:24:19.904Z</time>
      </trkpt>
      <trkpt lat="48.818" lon="2.44696">
        <ele>91.3</ele>
        <time>2015-04-27T20:24:20.894Z</time>
      </trkpt>
      <trkpt lat="48.81801" lon="2.44688">
        <ele>91.4</ele>
        <time>2015-04-27T20:24:21.898Z</time>
      </trkpt>
      <trkpt lat="48.81802" lon="2.44679">
        <ele>91.1</ele>
        <time>2015-04-27T20:24:22.919Z</time>
      </trkpt>
      <trkpt lat="48.81803" lon="2.44671">
        <ele>91.7</ele>
        <time>2015-04-27T20:24:23.924Z</time>
      </trkpt>
      <trkpt lat="48.81803" lon="2.44662">
        <ele>92.2</ele>
        <time>2015-04-27T20:24:24.906Z</time>
      </trkpt>
      <trkpt lat="48.81804" lon="2.44653">
        <ele>92.4</ele>
        <time>2015-04-27T20:24:25.910Z</time>
      </trkpt>
      <trkpt lat="48.81804" lon="2.44644">
        <ele>92.7</ele>
        <time>2015-04-27T20:24:26.925Z</time>
      </trkpt>
      <trkpt lat="48.81804" lon="2.44634">
        <ele>92.6</ele>
        <time>2015-04-27T20:24:27.966Z</time>
      </trkpt>
      <trkpt lat="48.81804" lon="2.44623">
        <ele>92.8</ele>
        <time>2015-04-27T20:24:28.869Z</time>
      </trkpt>
      <trkpt lat="48.81805" lon="2.44612">
        <ele>92.9</ele>
        <time>2015-04-27T20:24:29.864Z</time>
      </trkpt>
      <trkpt lat="48.81806" lon="2.44601">
        <ele>93.3</ele>
        <time>2015-04-27T20:24:30.874Z</time>
      </trkpt>
      <trkpt lat="48.81806" lon="2.44591">
        <ele>93.2</ele>
        <time>2015-04-27T20:24:31.878Z</time>
      </trkpt>
      <trkpt lat="48.81807" lon="2.44581">
        <ele>92.5</ele>
        <time>2015-04-27T20:24:32.918Z</time>
      </trkpt>
      <trkpt lat="48.81808" lon="2.44571">
        <ele>92.5</ele>
        <time>2015-04-27T20:24:33.928Z</time>
      </trkpt>
      <trkpt lat="48.81808" lon="2.44561">
        <ele>92.5</ele>
        <time>2015-04-27T20:24:34.945Z</time>
      </trkpt>
      <trkpt lat="48.81808" lon="2.4455">
        <ele>92.3</ele>
        <time>2015-04-27T20:24:35.886Z</time>
      </trkpt>
      <trkpt lat="48.81808" lon="2.44539">
        <ele>92.3</ele>
        <time>2015-04-27T20:24:36.857Z</time>
      </trkpt>
      <trkpt lat="48.81808" lon="2.44527">
        <ele>91.7</ele>
        <time>2015-04-27T20:24:38.145Z</time>
      </trkpt>
      <trkpt lat="48.81808" lon="2.44516">
        <ele>91.4</ele>
        <time>2015-04-27T20:24:38.874Z</time>
      </trkpt>
      <trkpt lat="48.81807" lon="2.44503">
        <ele>91.4</ele>
        <time>2015-04-27T20:24:39.892Z</time>
      </trkpt>
      <trkpt lat="48.81806" lon="2.4449">
        <ele>91.5</ele>
        <time>2015-04-27T20:24:40.906Z</time>
      </trkpt>
      <trkpt lat="48.81806" lon="2.44479">
        <ele>91.9</ele>
        <time>2015-04-27T20:24:41.916Z</time>
      </trkpt>
      <trkpt lat="48.81805" lon="2.44468">
        <ele>91.7</ele>
        <time>2015-04-27T20:24:42.923Z</time>
      </trkpt>
      <trkpt lat="48.81805" lon="2.44458">
        <ele>91.7</ele>
        <time>2015-04-27T20:24:43.937Z</time>
      </trkpt>
      <trkpt lat="48.81805" lon="2.44448">
        <ele>92</ele>
        <time>2015-04-27T20:24:44.946Z</time>
      </trkpt>
      <trkpt lat="48.8181" lon="2.44437">
        <ele>93.1</ele>
        <time>2015-04-27T20:24:45.958Z</time>
      </trkpt>
      <trkpt lat="48.81811" lon="2.44426">
        <ele>93.7</ele>
        <time>2015-04-27T20:24:46.875Z</time>
      </trkpt>
      <trkpt lat="48.81812" lon="2.44416">
        <ele>93.4</ele>
        <time>2015-04-27T20:24:47.873Z</time>
      </trkpt>
      <trkpt lat="48.81813" lon="2.44405">
        <ele>93.4</ele>
        <time>2015-04-27T20:24:48.892Z</time>
      </trkpt>
      <trkpt lat="48.81813" lon="2.44395">
        <ele>93.3</ele>
        <time>2015-04-27T20:24:49.896Z</time>
      </trkpt>
      <trkpt lat="48.81813" lon="2.44384">
        <ele>93.5</ele>
        <time>2015-04-27T20:24:50.904Z</time>
      </trkpt>
      <trkpt lat="48.81812" lon="2.44373">
        <ele>93.7</ele>
        <time>2015-04-27T20:24:51.927Z</time>
      </trkpt>
      <trkpt lat="48.81812" lon="2.44363">
        <ele>93.4</ele>
        <time>2015-04-27T20:24:52.941Z</time>
      </trkpt>
      <trkpt lat="48.81813" lon="2.44354">
        <ele>93.1</ele>
        <time>2015-04-27T20:24:53.958Z</time>
      </trkpt>
      <trkpt lat="48.81812" lon="2.44344">
        <ele>92.7</ele>
        <time>2015-04-27T20:24:54.849Z</time>
      </trkpt>
      <trkpt lat="48.81812" lon="2.44334">
        <ele>92.1</ele>
        <time>2015-04-27T20:24:55.848Z</time>
      </trkpt>
      <trkpt lat="48.81813" lon="2.44325">
        <ele>91.5</ele>
        <time>2015-04-27T20:24:56.890Z</time>
      </trkpt>
      <trkpt lat="48.81812" lon="2.44316">
        <ele>91.1</ele>
        <time>2015-04-27T20:24:57.890Z</time>
      </trkpt>
      <trkpt lat="48.81812" lon="2.44307">
        <ele>90.5</ele>
        <time>2015-04-27T20:24:58.910Z</time>
      </trkpt>
      <trkpt lat="48.81812" lon="2.443">
        <ele>90.3</ele>
        <time>2015-04-27T20:24:59.915Z</time>
      </trkpt>
      <trkpt lat="48.8181" lon="2.44291">
        <ele>90</ele>
        <time>2015-04-27T20:25:00.925Z</time>
      </trkpt>
      <trkpt lat="48.81809" lon="2.44281">
        <ele>89.6</ele>
        <time>2015-04-27T20:25:01.935Z</time>
      </trkpt>
      <trkpt lat="48.81806" lon="2.44272">
        <ele>89.4</ele>
        <time>2015-04-27T20:25:02.966Z</time>
      </trkpt>
      <trkpt lat="48.81804" lon="2.44262">
        <ele>89</ele>
        <time>2015-04-27T20:25:03.977Z</time>
      </trkpt>
      <trkpt lat="48.81801" lon="2.44252">
        <ele>88.3</ele>
        <time>2015-04-27T20:25:04.868Z</time>
      </trkpt>
      <trkpt lat="48.81799" lon="2.44242">
        <ele>87.8</ele>
        <time>2015-04-27T20:25:05.888Z</time>
      </trkpt>
      <trkpt lat="48.81798" lon="2.44233">
        <ele>87.7</ele>
        <time>2015-04-27T20:25:06.917Z</time>
      </trkpt>
      <trkpt lat="48.81797" lon="2.44223">
        <ele>87.9</ele>
        <time>2015-04-27T20:25:07.927Z</time>
      </trkpt>
      <trkpt lat="48.81797" lon="2.44213">
        <ele>88.1</ele>
        <time>2015-04-27T20:25:08.941Z</time>
      </trkpt>
      <trkpt lat="48.81797" lon="2.44203">
        <ele>88.2</ele>
        <time>2015-04-27T20:25:09.945Z</time>
      </trkpt>
      <trkpt lat="48.81798" lon="2.44192">
        <ele>87.9</ele>
        <time>2015-04-27T20:25:10.846Z</time>
      </trkpt>
      <trkpt lat="48.81799" lon="2.44183">
        <ele>88.2</ele>
        <time>2015-04-27T20:25:11.867Z</time>
      </trkpt>
      <trkpt lat="48.818" lon="2.44174">
        <ele>88.2</ele>
        <time>2015-04-27T20:25:12.890Z</time>
      </trkpt>
      <trkpt lat="48.81803" lon="2.44167">
        <ele>88.3</ele>
        <time>2015-04-27T20:25:13.894Z</time>
      </trkpt>
      <trkpt lat="48.81806" lon="2.44159">
        <ele>88.3</ele>
        <time>2015-04-27T20:25:14.904Z</time>
      </trkpt>
      <trkpt lat="48.81808" lon="2.44151">
        <ele>88.2</ele>
        <time>2015-04-27T20:25:15.911Z</time>
      </trkpt>
      <trkpt lat="48.81811" lon="2.44144">
        <ele>88</ele>
        <time>2015-04-27T20:25:16.929Z</time>
      </trkpt>
      <trkpt lat="48.81813" lon="2.44136">
        <ele>88.1</ele>
        <time>2015-04-27T20:25:17.964Z</time>
      </trkpt>
      <trkpt lat="48.81816" lon="2.44129">
        <ele>88.6</ele>
        <time>2015-04-27T20:25:18.864Z</time>
      </trkpt>
      <trkpt lat="48.81818" lon="2.44122">
        <ele>88.8</ele>
        <time>2015-04-27T20:25:20Z</time>
      </trkpt>
      <trkpt lat="48.8182" lon="2.44115">
        <ele>89.3</ele>
        <time>2015-04-27T20:25:20.915Z</time>
      </trkpt>
      <trkpt lat="48.81821" lon="2.44107">
        <ele>89.5</ele>
        <time>2015-04-27T20:25:21.928Z</time>
      </trkpt>
      <trkpt lat="48.81823" lon="2.44099">
        <ele>89.3</ele>
        <time>2015-04-27T20:25:22.946Z</time>
      </trkpt>
      <trkpt lat="48.81825" lon="2.44091">
        <ele>89.4</ele>
        <time>2015-04-27T20:25:23.954Z</time>
      </trkpt>
      <trkpt lat="48.81826" lon="2.44082">
        <ele>88.9</ele>
        <time>2015-04-27T20:25:24.963Z</time>
      </trkpt>
      <trkpt lat="48.81827" lon="2.44074">
        <ele>88.6</ele>
        <time>2015-04-27T20:25:25.976Z</time>
      </trkpt>
      <trkpt lat="48.81829" lon="2.44067">
        <ele>88.5</ele>
        <time>2015-04-27T20:25:27.025Z</time>
      </trkpt>
      <trkpt lat="48.81833" lon="2.44061">
        <ele>88.5</ele>
        <time>2015-04-27T20:25:27.998Z</time>
      </trkpt>
      <trkpt lat="48.81835" lon="2.44054">
        <ele>88.1</ele>
        <time>2015-04-27T20:25:28.882Z</time>
      </trkpt>
      <trkpt lat="48.81837" lon="2.44046">
        <ele>87.9</ele>
        <time>2015-04-27T20:25:29.882Z</time>
      </trkpt>
      <trkpt lat="48.81839" lon="2.44039">
        <ele>87.9</ele>
        <time>2015-04-27T20:25:30.910Z</time>
      </trkpt>
      <trkpt lat="48.81841" lon="2.44031">
        <ele>87.8</ele>
        <time>2015-04-27T20:25:31.920Z</time>
      </trkpt>
      <trkpt lat="48.81841" lon="2.44021">
        <ele>87.9</ele>
        <time>2015-04-27T20:25:32.929Z</time>
      </trkpt>
      <trkpt lat="48.81843" lon="2.44012">
        <ele>88.1</ele>
        <time>2015-04-27T20:25:33.933Z</time>
      </trkpt>
      <trkpt lat="48.81845" lon="2.44005">
        <ele>88.4</ele>
        <time>2015-04-27T20:25:34.957Z</time>
      </trkpt>
      <trkpt lat="48.81847" lon="2.43998">
        <ele>88.8</ele>
        <time>2015-04-27T20:25:35.966Z</time>
      </trkpt>
      <trkpt lat="48.81848" lon="2.4399">
        <ele>89.1</ele>
        <time>2015-04-27T20:25:36.877Z</time>
      </trkpt>
      <trkpt lat="48.81849" lon="2.43982">
        <ele>89.6</ele>
        <time>2015-04-27T20:25:37.906Z</time>
      </trkpt>
      <trkpt lat="48.81848" lon="2.43974">
        <ele>90.1</ele>
        <time>2015-04-27T20:25:38.908Z</time>
      </trkpt>
      <trkpt lat="48.81847" lon="2.43965">
        <ele>89.9</ele>
        <time>2015-04-27T20:25:39.935Z</time>
      </trkpt>
      <trkpt lat="48.81849" lon="2.43958">
        <ele>90.2</ele>
        <time>2015-04-27T20:25:40.952Z</time>
      </trkpt>
      <trkpt lat="48.8185" lon="2.43951">
        <ele>90.3</ele>
        <time>2015-04-27T20:25:41.957Z</time>
      </trkpt>
      <trkpt lat="48.81849" lon="2.43942">
        <ele>90.2</ele>
        <time>2015-04-27T20:25:42.869Z</time>
      </trkpt>
      <trkpt lat="48.81848" lon="2.43933">
        <ele>90.1</ele>
        <time>2015-04-27T20:25:43.873Z</time>
      </trkpt>
      <trkpt lat="48.81847" lon="2.43923">
        <ele>90.2</ele>
        <time>2015-04-27T20:25:44.978Z</time>
      </trkpt>
      <trkpt lat="48.81847" lon="2.43913">
        <ele>90.2</ele>
        <time>2015-04-27T20:25:45.982Z</time>
      </trkpt>
      <trkpt lat="48.81846" lon="2.43902">
        <ele>90.5</ele>
        <time>2015-04-27T20:25:46.878Z</time>
      </trkpt>
      <trkpt lat="48.81845" lon="2.43891">
        <ele>91</ele>
        <time>2015-04-27T20:25:47.883Z</time>
      </trkpt>
      <trkpt lat="48.81844" lon="2.43881">
        <ele>91.2</ele>
        <time>2015-04-27T20:25:48.899Z</time>
      </trkpt>
      <trkpt lat="48.81842" lon="2.43872">
        <ele>91.2</ele>
        <time>2015-04-27T20:25:49.933Z</time>
      </trkpt>
      <trkpt lat="48.8184" lon="2.43861">
        <ele>91.2</ele>
        <time>2015-04-27T20:25:50.933Z</time>
      </trkpt>
      <trkpt lat="48.81838" lon="2.43851">
        <ele>91.5</ele>
        <time>2015-04-27T20:25:51.946Z</time>
      </trkpt>
      <trkpt lat="48.81838" lon="2.43841">
        <ele>91.6</ele>
        <time>2015-04-27T20:25:52.965Z</time>
      </trkpt>
      <trkpt lat="48.81838" lon="2.4383">
        <ele>91.6</ele>
        <time>2015-04-27T20:25:53.859Z</time>
      </trkpt>
      <trkpt lat="48.81837" lon="2.43819">
        <ele>91.6</ele>
        <time>2015-04-27T20:25:54.890Z</time>
      </trkpt>
      <trkpt lat="48.81837" lon="2.43809">
        <ele>91.3</ele>
        <time>2015-04-27T20:25:55.894Z</time>
      </trkpt>
      <trkpt lat="48.81838" lon="2.43799">
        <ele>91.3</ele>
        <time>2015-04-27T20:25:56.896Z</time>
      </trkpt>
      <trkpt lat="48.81837" lon="2.43788">
        <ele>91.1</ele>
        <time>2015-04-27T20:25:57.901Z</time>
      </trkpt>
      <trkpt lat="48.81839" lon="2.43779">
        <ele>91.3</ele>
        <time>2015-04-27T20:25:58.922Z</time>
      </trkpt>
      <trkpt lat="48.81838" lon="2.43768">
        <ele>91.7</ele>
        <time>2015-04-27T20:25:59.931Z</time>
      </trkpt>
      <trkpt lat="48.81837" lon="2.43756">
        <ele>91.6</ele>
        <time>2015-04-27T20:26:00.935Z</time>
      </trkpt>
      <trkpt lat="48.81834" lon="2.43743">
        <ele>91.7</ele>
        <time>2015-04-27T20:26:01.876Z</time>
      </trkpt>
      <trkpt lat="48.81832" lon="2.4373">
        <ele>91.6</ele>
        <time>2015-04-27T20:26:02.885Z</time>
      </trkpt>
      <trkpt lat="48.81829" lon="2.43717">
        <ele>91.7</ele>
        <time>2015-04-27T20:26:03.921Z</time>
      </trkpt>
      <trkpt lat="48.81829" lon="2.43707">
        <ele>91.7</ele>
        <time>2015-04-27T20:26:05.007Z</time>
      </trkpt>
      <trkpt lat="48.81826" lon="2.43693">
        <ele>91.6</ele>
        <time>2015-04-27T20:26:05.967Z</time>
      </trkpt>
      <trkpt lat="48.81824" lon="2.43681">
        <ele>91.5</ele>
        <time>2015-04-27T20:26:06.869Z</time>
      </trkpt>
      <trkpt lat="48.81823" lon="2.4367">
        <ele>91.4</ele>
        <time>2015-04-27T20:26:07.921Z</time>
      </trkpt>
      <trkpt lat="48.81822" lon="2.4366">
        <ele>91.2</ele>
        <time>2015-04-27T20:26:08.902Z</time>
      </trkpt>
      <trkpt lat="48.8182" lon="2.43649">
        <ele>90.8</ele>
        <time>2015-04-27T20:26:09.899Z</time>
      </trkpt>
      <trkpt lat="48.81821" lon="2.4364">
        <ele>91</ele>
        <time>2015-04-27T20:26:10.925Z</time>
      </trkpt>
      <trkpt lat="48.81821" lon="2.43629">
        <ele>90.8</ele>
        <time>2015-04-27T20:26:11.937Z</time>
      </trkpt>
      <trkpt lat="48.8182" lon="2.4362">
        <ele>90.6</ele>
        <time>2015-04-27T20:26:12.949Z</time>
      </trkpt>
      <trkpt lat="48.8182" lon="2.4361">
        <ele>90.6</ele>
        <time>2015-04-27T20:26:13.960Z</time>
      </trkpt>
      <trkpt lat="48.81819" lon="2.43601">
        <ele>90.8</ele>
        <time>2015-04-27T20:26:14.970Z</time>
      </trkpt>
      <trkpt lat="48.81819" lon="2.43592">
        <ele>90.5</ele>
        <time>2015-04-27T20:26:15.894Z</time>
      </trkpt>
      <trkpt lat="48.81819" lon="2.43583">
        <ele>90.4</ele>
        <time>2015-04-27T20:26:16.910Z</time>
      </trkpt>
      <trkpt lat="48.81819" lon="2.43573">
        <ele>90.7</ele>
        <time>2015-04-27T20:26:17.914Z</time>
      </trkpt>
      <trkpt lat="48.8182" lon="2.43564">
        <ele>91.4</ele>
        <time>2015-04-27T20:26:18.931Z</time>
      </trkpt>
      <trkpt lat="48.81819" lon="2.43554">
        <ele>91.5</ele>
        <time>2015-04-27T20:26:19.936Z</time>
      </trkpt>
      <trkpt lat="48.81818" lon="2.43546">
        <ele>91.3</ele>
        <time>2015-04-27T20:26:20.962Z</time>
      </trkpt>
      <trkpt lat="48.81817" lon="2.43536">
        <ele>91.1</ele>
        <time>2015-04-27T20:26:21.969Z</time>
      </trkpt>
      <trkpt lat="48.81815" lon="2.43527">
        <ele>91</ele>
        <time>2015-04-27T20:26:22.855Z</time>
      </trkpt>
      <trkpt lat="48.81815" lon="2.43519">
        <ele>90.8</ele>
        <time>2015-04-27T20:26:23.864Z</time>
      </trkpt>
      <trkpt lat="48.81815" lon="2.43511">
        <ele>90.5</ele>
        <time>2015-04-27T20:26:24.897Z</time>
      </trkpt>
      <trkpt lat="48.81815" lon="2.43503">
        <ele>90</ele>
        <time>2015-04-27T20:26:25.906Z</time>
      </trkpt>
      <trkpt lat="48.81815" lon="2.43494">
        <ele>90.2</ele>
        <time>2015-04-27T20:26:26.922Z</time>
      </trkpt>
      <trkpt lat="48.81815" lon="2.43487">
        <ele>90.3</ele>
        <time>2015-04-27T20:26:27.931Z</time>
      </trkpt>
      <trkpt lat="48.81814" lon="2.43478">
        <ele>90.3</ele>
        <time>2015-04-27T20:26:28.855Z</time>
      </trkpt>
      <trkpt lat="48.81814" lon="2.4347">
        <ele>89.9</ele>
        <time>2015-04-27T20:26:29.868Z</time>
      </trkpt>
      <trkpt lat="48.81812" lon="2.43462">
        <ele>89.3</ele>
        <time>2015-04-27T20:26:30.880Z</time>
      </trkpt>
      <trkpt lat="48.81813" lon="2.43454">
        <ele>89.3</ele>
        <time>2015-04-27T20:26:31.897Z</time>
      </trkpt>
      <trkpt lat="48.81815" lon="2.43448">
        <ele>89</ele>
        <time>2015-04-27T20:26:32.906Z</time>
      </trkpt>
      <trkpt lat="48.81817" lon="2.4344">
        <ele>89.2</ele>
        <time>2015-04-27T20:26:33.926Z</time>
      </trkpt>
      <trkpt lat="48.8182" lon="2.43428">
        <ele>88.7</ele>
        <time>2015-04-27T20:26:35.859Z</time>
      </trkpt>
      <trkpt lat="48.81822" lon="2.43423">
        <ele>88.2</ele>
        <time>2015-04-27T20:26:36.871Z</time>
      </trkpt>
      <trkpt lat="48.81823" lon="2.43409">
        <ele>88</ele>
        <time>2015-04-27T20:26:39.126Z</time>
      </trkpt>
      <trkpt lat="48.81821" lon="2.43401">
        <ele>88.1</ele>
        <time>2015-04-27T20:26:39.927Z</time>
      </trkpt>
      <trkpt lat="48.8182" lon="2.43393">
        <ele>88.1</ele>
        <time>2015-04-27T20:26:40.935Z</time>
      </trkpt>
      <trkpt lat="48.81818" lon="2.43385">
        <ele>88.2</ele>
        <time>2015-04-27T20:26:41.944Z</time>
      </trkpt>
      <trkpt lat="48.81818" lon="2.43378">
        <ele>88.1</ele>
        <time>2015-04-27T20:26:42.896Z</time>
      </trkpt>
      <trkpt lat="48.81818" lon="2.4337">
        <ele>88.1</ele>
        <time>2015-04-27T20:26:43.891Z</time>
      </trkpt>
      <trkpt lat="48.81817" lon="2.43364">
        <ele>87.8</ele>
        <time>2015-04-27T20:26:44.903Z</time>
      </trkpt>
      <trkpt lat="48.81818" lon="2.43356">
        <ele>87.8</ele>
        <time>2015-04-27T20:26:45.924Z</time>
      </trkpt>
      <trkpt lat="48.81816" lon="2.43348">
        <ele>88.1</ele>
        <time>2015-04-27T20:26:46.865Z</time>
      </trkpt>
      <trkpt lat="48.81814" lon="2.4334">
        <ele>88.3</ele>
        <time>2015-04-27T20:26:47.889Z</time>
      </trkpt>
      <trkpt lat="48.81813" lon="2.43328">
        <ele>88.4</ele>
        <time>2015-04-27T20:26:49.930Z</time>
      </trkpt>
      <trkpt lat="48.81813" lon="2.43321">
        <ele>88.4</ele>
        <time>2015-04-27T20:26:50.947Z</time>
      </trkpt>
      <trkpt lat="48.8181" lon="2.43309">
        <ele>87.9</ele>
        <time>2015-04-27T20:26:52.917Z</time>
      </trkpt>
      <trkpt lat="48.81809" lon="2.43303">
        <ele>87.9</ele>
        <time>2015-04-27T20:26:54.008Z</time>
      </trkpt>
      <trkpt lat="48.8181" lon="2.43291">
        <ele>87.7</ele>
        <time>2015-04-27T20:26:55.915Z</time>
      </trkpt>
      <trkpt lat="48.81809" lon="2.43284">
        <ele>87.7</ele>
        <time>2015-04-27T20:26:56.959Z</time>
      </trkpt>
      <trkpt lat="48.81809" lon="2.43277">
        <ele>87.6</ele>
        <time>2015-04-27T20:26:57.984Z</time>
      </trkpt>
      <trkpt lat="48.81808" lon="2.43271">
        <ele>87.7</ele>
        <time>2015-04-27T20:26:58.881Z</time>
      </trkpt>
      <trkpt lat="48.81807" lon="2.43257">
        <ele>87.5</ele>
        <time>2015-04-27T20:27:00.876Z</time>
      </trkpt>
      <trkpt lat="48.81807" lon="2.43251">
        <ele>87.2</ele>
        <time>2015-04-27T20:27:01.906Z</time>
      </trkpt>
      <trkpt lat="48.81808" lon="2.43238">
        <ele>87.2</ele>
        <time>2015-04-27T20:27:03.892Z</time>
      </trkpt>
      <trkpt lat="48.81808" lon="2.43231">
        <ele>87.2</ele>
        <time>2015-04-27T20:27:04.899Z</time>
      </trkpt>
      <trkpt lat="48.81808" lon="2.43225">
        <ele>87.5</ele>
        <time>2015-04-27T20:27:06.001Z</time>
      </trkpt>
      <trkpt lat="48.81808" lon="2.43217">
        <ele>87.7</ele>
        <time>2015-04-27T20:27:06.890Z</time>
      </trkpt>
      <trkpt lat="48.8181" lon="2.43205">
        <ele>87.6</ele>
        <time>2015-04-27T20:27:08.951Z</time>
      </trkpt>
      <trkpt lat="48.8181" lon="2.432">
        <ele>87.7</ele>
        <time>2015-04-27T20:27:09.958Z</time>
      </trkpt>
      <trkpt lat="48.81811" lon="2.43188">
        <ele>87.8</ele>
        <time>2015-04-27T20:27:11.901Z</time>
      </trkpt>
      <trkpt lat="48.81813" lon="2.43183">
        <ele>88</ele>
        <time>2015-04-27T20:27:12.902Z</time>
      </trkpt>
      <trkpt lat="48.81815" lon="2.43172">
        <ele>87.9</ele>
        <time>2015-04-27T20:27:14.947Z</time>
      </trkpt>
      <trkpt lat="48.81814" lon="2.43165">
        <ele>87.7</ele>
        <time>2015-04-27T20:27:15.951Z</time>
      </trkpt>
      <trkpt lat="48.81814" lon="2.43158">
        <ele>87.7</ele>
        <time>2015-04-27T20:27:17.548Z</time>
      </trkpt>
      <trkpt lat="48.81814" lon="2.43151">
        <ele>87.5</ele>
        <time>2015-04-27T20:27:17.904Z</time>
      </trkpt>
      <trkpt lat="48.81815" lon="2.43141">
        <ele>87.2</ele>
        <time>2015-04-27T20:27:19.935Z</time>
      </trkpt>
      <trkpt lat="48.81815" lon="2.43135">
        <ele>87</ele>
        <time>2015-04-27T20:27:20.943Z</time>
      </trkpt>
      <trkpt lat="48.81814" lon="2.43121">
        <ele>86.9</ele>
        <time>2015-04-27T20:27:22.836Z</time>
      </trkpt>
      <trkpt lat="48.81813" lon="2.43113">
        <ele>86.6</ele>
        <time>2015-04-27T20:27:23.867Z</time>
      </trkpt>
      <trkpt lat="48.81811" lon="2.43104">
        <ele>86.4</ele>
        <time>2015-04-27T20:27:24.867Z</time>
      </trkpt>
      <trkpt lat="48.81809" lon="2.43098">
        <ele>86.1</ele>
        <time>2015-04-27T20:27:25.867Z</time>
      </trkpt>
      <trkpt lat="48.81807" lon="2.43085">
        <ele>85.9</ele>
        <time>2015-04-27T20:27:27.886Z</time>
      </trkpt>
      <trkpt lat="48.81808" lon="2.4308">
        <ele>85.7</ele>
        <time>2015-04-27T20:27:28.904Z</time>
      </trkpt>
      <trkpt lat="48.81806" lon="2.43072">
        <ele>85.7</ele>
        <time>2015-04-27T20:27:29.917Z</time>
      </trkpt>
      <trkpt lat="48.81808" lon="2.43064">
        <ele>85.5</ele>
        <time>2015-04-27T20:27:30.930Z</time>
      </trkpt>
      <trkpt lat="48.81811" lon="2.43053">
        <ele>85.8</ele>
        <time>2015-04-27T20:27:32.999Z</time>
      </trkpt>
      <trkpt lat="48.81813" lon="2.43047">
        <ele>85.9</ele>
        <time>2015-04-27T20:27:33.895Z</time>
      </trkpt>
      <trkpt lat="48.81814" lon="2.43035">
        <ele>86.1</ele>
        <time>2015-04-27T20:27:35.929Z</time>
      </trkpt>
      <trkpt lat="48.81813" lon="2.43028">
        <ele>86.3</ele>
        <time>2015-04-27T20:27:37.068Z</time>
      </trkpt>
      <trkpt lat="48.81811" lon="2.43021">
        <ele>86.3</ele>
        <time>2015-04-27T20:27:37.951Z</time>
      </trkpt>
      <trkpt lat="48.8181" lon="2.43014">
        <ele>86.1</ele>
        <time>2015-04-27T20:27:38.879Z</time>
      </trkpt>
      <trkpt lat="48.8181" lon="2.43008">
        <ele>86.2</ele>
        <time>2015-04-27T20:27:40.802Z</time>
      </trkpt>
      <trkpt lat="48.81807" lon="2.42999">
        <ele>86.3</ele>
        <time>2015-04-27T20:27:40.899Z</time>
      </trkpt>
      <trkpt lat="48.81805" lon="2.42989">
        <ele>86.4</ele>
        <time>2015-04-27T20:27:41.917Z</time>
      </trkpt>
      <trkpt lat="48.818" lon="2.42978">
        <ele>86.5</ele>
        <time>2015-04-27T20:27:42.927Z</time>
      </trkpt>
      <trkpt lat="48.81798" lon="2.4297">
        <ele>86.7</ele>
        <time>2015-04-27T20:27:43.955Z</time>
      </trkpt>
      <trkpt lat="48.81795" lon="2.4296">
        <ele>86.6</ele>
        <time>2015-04-27T20:27:44.967Z</time>
      </trkpt>
      <trkpt lat="48.81794" lon="2.42952">
        <ele>87</ele>
        <time>2015-04-27T20:27:45.906Z</time>
      </trkpt>
      <trkpt lat="48.81793" lon="2.42944">
        <ele>87.1</ele>
        <time>2015-04-27T20:27:46.918Z</time>
      </trkpt>
      <trkpt lat="48.81794" lon="2.42932">
        <ele>87.5</ele>
        <time>2015-04-27T20:27:48.852Z</time>
      </trkpt>
      <trkpt lat="48.81792" lon="2.42925">
        <ele>87.5</ele>
        <time>2015-04-27T20:27:49.877Z</time>
      </trkpt>
      <trkpt lat="48.8179" lon="2.42916">
        <ele>87.5</ele>
        <time>2015-04-27T20:27:50.883Z</time>
      </trkpt>
      <trkpt lat="48.8179" lon="2.4291">
        <ele>87.5</ele>
        <time>2015-04-27T20:27:51.927Z</time>
      </trkpt>
      <trkpt lat="48.8179" lon="2.42903">
        <ele>87.3</ele>
        <time>2015-04-27T20:27:52.959Z</time>
      </trkpt>
      <trkpt lat="48.81791" lon="2.42896">
        <ele>87.2</ele>
        <time>2015-04-27T20:27:53.881Z</time>
      </trkpt>
      <trkpt lat="48.81791" lon="2.42889">
        <ele>87.3</ele>
        <time>2015-04-27T20:27:54.981Z</time>
      </trkpt>
      <trkpt lat="48.81791" lon="2.42882">
        <ele>87.1</ele>
        <time>2015-04-27T20:27:55.893Z</time>
      </trkpt>
      <trkpt lat="48.81791" lon="2.42874">
        <ele>86.1</ele>
        <time>2015-04-27T20:27:56.912Z</time>
      </trkpt>
      <trkpt lat="48.81791" lon="2.42867">
        <ele>85.7</ele>
        <time>2015-04-27T20:27:57.917Z</time>
      </trkpt>
      <trkpt lat="48.81792" lon="2.4286">
        <ele>86.4</ele>
        <time>2015-04-27T20:27:58.928Z</time>
      </trkpt>
      <trkpt lat="48.81792" lon="2.42853">
        <ele>86.6</ele>
        <time>2015-04-27T20:27:59.941Z</time>
      </trkpt>
      <trkpt lat="48.81792" lon="2.42844">
        <ele>86.2</ele>
        <time>2015-04-27T20:28:01.431Z</time>
      </trkpt>
      <trkpt lat="48.81791" lon="2.42835">
        <ele>86.1</ele>
        <time>2015-04-27T20:28:01.879Z</time>
      </trkpt>
      <trkpt lat="48.8179" lon="2.42827">
        <ele>85.9</ele>
        <time>2015-04-27T20:28:02.900Z</time>
      </trkpt>
      <trkpt lat="48.8179" lon="2.42819">
        <ele>85.9</ele>
        <time>2015-04-27T20:28:03.936Z</time>
      </trkpt>
      <trkpt lat="48.81789" lon="2.42811">
        <ele>86</ele>
        <time>2015-04-27T20:28:04.942Z</time>
      </trkpt>
      <trkpt lat="48.8179" lon="2.42803">
        <ele>86</ele>
        <time>2015-04-27T20:28:05.940Z</time>
      </trkpt>
      <trkpt lat="48.8179" lon="2.42795">
        <ele>85.8</ele>
        <time>2015-04-27T20:28:06.851Z</time>
      </trkpt>
      <trkpt lat="48.81791" lon="2.42787">
        <ele>85.6</ele>
        <time>2015-04-27T20:28:07.940Z</time>
      </trkpt>
      <trkpt lat="48.81792" lon="2.4278">
        <ele>85.3</ele>
        <time>2015-04-27T20:28:08.896Z</time>
      </trkpt>
      <trkpt lat="48.81792" lon="2.42772">
        <ele>85.1</ele>
        <time>2015-04-27T20:28:09.902Z</time>
      </trkpt>
      <trkpt lat="48.81792" lon="2.42763">
        <ele>85.2</ele>
        <time>2015-04-27T20:28:10.900Z</time>
      </trkpt>
      <trkpt lat="48.81792" lon="2.42754">
        <ele>85.4</ele>
        <time>2015-04-27T20:28:11.908Z</time>
      </trkpt>
      <trkpt lat="48.81792" lon="2.42746">
        <ele>85.5</ele>
        <time>2015-04-27T20:28:12.920Z</time>
      </trkpt>
      <trkpt lat="48.81792" lon="2.42737">
        <ele>85.6</ele>
        <time>2015-04-27T20:28:13.939Z</time>
      </trkpt>
      <trkpt lat="48.81792" lon="2.42727">
        <ele>86</ele>
        <time>2015-04-27T20:28:14.969Z</time>
      </trkpt>
      <trkpt lat="48.81793" lon="2.42718">
        <ele>86.6</ele>
        <time>2015-04-27T20:28:15.983Z</time>
      </trkpt>
      <trkpt lat="48.81791" lon="2.42707">
        <ele>87.6</ele>
        <time>2015-04-27T20:28:16.877Z</time>
      </trkpt>
      <trkpt lat="48.8179" lon="2.42697">
        <ele>88.3</ele>
        <time>2015-04-27T20:28:17.880Z</time>
      </trkpt>
      <trkpt lat="48.81788" lon="2.42687">
        <ele>89</ele>
        <time>2015-04-27T20:28:18.903Z</time>
      </trkpt>
      <trkpt lat="48.81787" lon="2.42678">
        <ele>89.5</ele>
        <time>2015-04-27T20:28:19.919Z</time>
      </trkpt>
      <trkpt lat="48.81785" lon="2.42669">
        <ele>89.8</ele>
        <time>2015-04-27T20:28:20.956Z</time>
      </trkpt>
      <trkpt lat="48.81785" lon="2.42661">
        <ele>90.1</ele>
        <time>2015-04-27T20:28:21.969Z</time>
      </trkpt>
      <trkpt lat="48.81784" lon="2.42653">
        <ele>90.4</ele>
        <time>2015-04-27T20:28:22.877Z</time>
      </trkpt>
      <trkpt lat="48.81784" lon="2.42646">
        <ele>90.8</ele>
        <time>2015-04-27T20:28:23.892Z</time>
      </trkpt>
      <trkpt lat="48.81787" lon="2.4264">
        <ele>90.7</ele>
        <time>2015-04-27T20:28:24.931Z</time>
      </trkpt>
      <trkpt lat="48.81787" lon="2.42632">
        <ele>91.3</ele>
        <time>2015-04-27T20:28:25.942Z</time>
      </trkpt>
      <trkpt lat="48.81786" lon="2.42624">
        <ele>91.8</ele>
        <time>2015-04-27T20:28:26.896Z</time>
      </trkpt>
      <trkpt lat="48.81784" lon="2.42613">
        <ele>93.6</ele>
        <time>2015-04-27T20:28:27.908Z</time>
      </trkpt>
      <trkpt lat="48.81785" lon="2.42606">
        <ele>94.1</ele>
        <time>2015-04-27T20:28:28.917Z</time>
      </trkpt>
      <trkpt lat="48.81785" lon="2.42598">
        <ele>94.1</ele>
        <time>2015-04-27T20:28:29.916Z</time>
      </trkpt>
      <trkpt lat="48.81785" lon="2.4259">
        <ele>94.1</ele>
        <time>2015-04-27T20:28:30.929Z</time>
      </trkpt>
      <trkpt lat="48.81787" lon="2.42584">
        <ele>94.3</ele>
        <time>2015-04-27T20:28:31.960Z</time>
      </trkpt>
      <trkpt lat="48.81788" lon="2.42573">
        <ele>94.7</ele>
        <time>2015-04-27T20:28:34.004Z</time>
      </trkpt>
      <trkpt lat="48.81788" lon="2.42566">
        <ele>94.6</ele>
        <time>2015-04-27T20:28:34.855Z</time>
      </trkpt>
      <trkpt lat="48.81786" lon="2.42559">
        <ele>94.7</ele>
        <time>2015-04-27T20:28:35.860Z</time>
      </trkpt>
      <trkpt lat="48.81786" lon="2.42551">
        <ele>94.8</ele>
        <time>2015-04-27T20:28:36.882Z</time>
      </trkpt>
      <trkpt lat="48.81785" lon="2.42538">
        <ele>94.5</ele>
        <time>2015-04-27T20:28:38.899Z</time>
      </trkpt>
      <trkpt lat="48.81784" lon="2.42532">
        <ele>94.3</ele>
        <time>2015-04-27T20:28:39.921Z</time>
      </trkpt>
      <trkpt lat="48.81785" lon="2.42525">
        <ele>94</ele>
        <time>2015-04-27T20:28:40.842Z</time>
      </trkpt>
      <trkpt lat="48.81787" lon="2.42518">
        <ele>93.9</ele>
        <time>2015-04-27T20:28:41.846Z</time>
      </trkpt>
      <trkpt lat="48.81789" lon="2.42506">
        <ele>93.4</ele>
        <time>2015-04-27T20:28:43.875Z</time>
      </trkpt>
      <trkpt lat="48.8179" lon="2.425">
        <ele>93.3</ele>
        <time>2015-04-27T20:28:44.904Z</time>
      </trkpt>
      <trkpt lat="48.81794" lon="2.42488">
        <ele>93.1</ele>
        <time>2015-04-27T20:28:46.860Z</time>
      </trkpt>
      <trkpt lat="48.81795" lon="2.42481">
        <ele>93.2</ele>
        <time>2015-04-27T20:28:47.878Z</time>
      </trkpt>
      <trkpt lat="48.81797" lon="2.42468">
        <ele>93.8</ele>
        <time>2015-04-27T20:28:49.872Z</time>
      </trkpt>
      <trkpt lat="48.81799" lon="2.42462">
        <ele>94.6</ele>
        <time>2015-04-27T20:28:50.927Z</time>
      </trkpt>
      <trkpt lat="48.81801" lon="2.42452">
        <ele>95.8</ele>
        <time>2015-04-27T20:28:52.885Z</time>
      </trkpt>
      <trkpt lat="48.81802" lon="2.42446">
        <ele>96.4</ele>
        <time>2015-04-27T20:28:53.893Z</time>
      </trkpt>
      <trkpt lat="48.81802" lon="2.42435">
        <ele>97.8</ele>
        <time>2015-04-27T20:33:35.855Z</time>
      </trkpt>
      <trkpt lat="48.81815" lon="2.42448">
        <ele>98.7</ele>
        <time>2015-04-27T20:33:36.883Z</time>
      </trkpt>
      <trkpt lat="48.81814" lon="2.42437">
        <ele>97.5</ele>
        <time>2015-04-27T20:33:39.959Z</time>
      </trkpt>
      <trkpt lat="48.81813" lon="2.42432">
        <ele>96.7</ele>
        <time>2015-04-27T20:33:40.885Z</time>
      </trkpt>
      <trkpt lat="48.81812" lon="2.42421">
        <ele>95.4</ele>
        <time>2015-04-27T20:33:42.858Z</time>
      </trkpt>
      <trkpt lat="48.81812" lon="2.42415">
        <ele>95.1</ele>
        <time>2015-04-27T20:33:43.887Z</time>
      </trkpt>
      <trkpt lat="48.81812" lon="2.42402">
        <ele>94.3</ele>
        <time>2015-04-27T20:33:45.892Z</time>
      </trkpt>
      <trkpt lat="48.81812" lon="2.42395">
        <ele>94.1</ele>
        <time>2015-04-27T20:33:46.907Z</time>
      </trkpt>
      <trkpt lat="48.81811" lon="2.42382">
        <ele>93.6</ele>
        <time>2015-04-27T20:33:48.871Z</time>
      </trkpt>
      <trkpt lat="48.81811" lon="2.42377">
        <ele>93.4</ele>
        <time>2015-04-27T20:33:49.896Z</time>
      </trkpt>
      <trkpt lat="48.8181" lon="2.42365">
        <ele>93.2</ele>
        <time>2015-04-27T20:33:51.977Z</time>
      </trkpt>
      <trkpt lat="48.8181" lon="2.4236">
        <ele>92.9</ele>
        <time>2015-04-27T20:33:52.907Z</time>
      </trkpt>
      <trkpt lat="48.81811" lon="2.42349">
        <ele>92.6</ele>
        <time>2015-04-27T20:33:54.901Z</time>
      </trkpt>
      <trkpt lat="48.8181" lon="2.42343">
        <ele>92.6</ele>
        <time>2015-04-27T20:33:55.924Z</time>
      </trkpt>
      <trkpt lat="48.8181" lon="2.42333">
        <ele>92.6</ele>
        <time>2015-04-27T20:33:57.982Z</time>
      </trkpt>
      <trkpt lat="48.8181" lon="2.42328">
        <ele>92.7</ele>
        <time>2015-04-27T20:33:58.905Z</time>
      </trkpt>
      <trkpt lat="48.81811" lon="2.42316">
        <ele>92.8</ele>
        <time>2015-04-27T20:34:01.899Z</time>
      </trkpt>
      <trkpt lat="48.81811" lon="2.42311">
        <ele>93</ele>
        <time>2015-04-27T20:34:02.911Z</time>
      </trkpt>
      <trkpt lat="48.81809" lon="2.42301">
        <ele>93.5</ele>
        <time>2015-04-27T20:34:04.894Z</time>
      </trkpt>
      <trkpt lat="48.81809" lon="2.42296">
        <ele>93.8</ele>
        <time>2015-04-27T20:34:05.876Z</time>
      </trkpt>
      <trkpt lat="48.81809" lon="2.42286">
        <ele>93.3</ele>
        <time>2015-04-27T20:34:07.902Z</time>
      </trkpt>
      <trkpt lat="48.81809" lon="2.42281">
        <ele>93.1</ele>
        <time>2015-04-27T20:34:08.906Z</time>
      </trkpt>
      <trkpt lat="48.8181" lon="2.42269">
        <ele>93</ele>
        <time>2015-04-27T20:34:10.945Z</time>
      </trkpt>
      <trkpt lat="48.81811" lon="2.42264">
        <ele>92.9</ele>
        <time>2015-04-27T20:34:11.860Z</time>
      </trkpt>
      <trkpt lat="48.81812" lon="2.42253">
        <ele>92.7</ele>
        <time>2015-04-27T20:34:13.886Z</time>
      </trkpt>
      <trkpt lat="48.81812" lon="2.42246">
        <ele>92.2</ele>
        <time>2015-04-27T20:34:14.898Z</time>
      </trkpt>
      <trkpt lat="48.81812" lon="2.42239">
        <ele>92</ele>
        <time>2015-04-27T20:34:15.922Z</time>
      </trkpt>
      <trkpt lat="48.81811" lon="2.42232">
        <ele>92.1</ele>
        <time>2015-04-27T20:34:16.931Z</time>
      </trkpt>
      <trkpt lat="48.8181" lon="2.42225">
        <ele>91.8</ele>
        <time>2015-04-27T20:34:17.943Z</time>
      </trkpt>
      <trkpt lat="48.81809" lon="2.42218">
        <ele>91.8</ele>
        <time>2015-04-27T20:34:18.951Z</time>
      </trkpt>
      <trkpt lat="48.81809" lon="2.42206">
        <ele>91.8</ele>
        <time>2015-04-27T20:34:21.137Z</time>
      </trkpt>
      <trkpt lat="48.8181" lon="2.422">
        <ele>91.7</ele>
        <time>2015-04-27T20:34:21.907Z</time>
      </trkpt>
      <trkpt lat="48.81812" lon="2.42188">
        <ele>91.8</ele>
        <time>2015-04-27T20:34:23.824Z</time>
      </trkpt>
      <trkpt lat="48.81813" lon="2.42182">
        <ele>92</ele>
        <time>2015-04-27T20:34:24.850Z</time>
      </trkpt>
      <trkpt lat="48.81816" lon="2.4217">
        <ele>92.1</ele>
        <time>2015-04-27T20:34:26.864Z</time>
      </trkpt>
      <trkpt lat="48.81818" lon="2.42166">
        <ele>92.2</ele>
        <time>2015-04-27T20:34:27.860Z</time>
      </trkpt>
      <trkpt lat="48.81821" lon="2.42161">
        <ele>92.4</ele>
        <time>2015-04-27T20:34:28.868Z</time>
      </trkpt>
      <trkpt lat="48.81824" lon="2.42154">
        <ele>92.9</ele>
        <time>2015-04-27T20:34:29.868Z</time>
      </trkpt>
      <trkpt lat="48.81826" lon="2.42144">
        <ele>94</ele>
        <time>2015-04-27T20:34:30.945Z</time>
      </trkpt>
      <trkpt lat="48.81827" lon="2.42134">
        <ele>94.4</ele>
        <time>2015-04-27T20:34:31.857Z</time>
      </trkpt>
      <trkpt lat="48.81827" lon="2.42127">
        <ele>94.3</ele>
        <time>2015-04-27T20:34:32.596Z</time>
      </trkpt>
      <trkpt lat="48.81826" lon="2.4212">
        <ele>93.8</ele>
        <time>2015-04-27T20:34:33.905Z</time>
      </trkpt>
      <trkpt lat="48.81826" lon="2.42113">
        <ele>93.6</ele>
        <time>2015-04-27T20:34:35.804Z</time>
      </trkpt>
      <trkpt lat="48.81826" lon="2.42106">
        <ele>93.5</ele>
        <time>2015-04-27T20:34:35.924Z</time>
      </trkpt>
      <trkpt lat="48.81826" lon="2.42094">
        <ele>93.2</ele>
        <time>2015-04-27T20:34:37.861Z</time>
      </trkpt>
      <trkpt lat="48.81827" lon="2.42088">
        <ele>93.2</ele>
        <time>2015-04-27T20:34:38.855Z</time>
      </trkpt>
      <trkpt lat="48.8183" lon="2.42076">
        <ele>93.1</ele>
        <time>2015-04-27T20:34:40.934Z</time>
      </trkpt>
      <trkpt lat="48.8183" lon="2.4207">
        <ele>93.1</ele>
        <time>2015-04-27T20:34:41.925Z</time>
      </trkpt>
      <trkpt lat="48.81831" lon="2.42064">
        <ele>92.9</ele>
        <time>2015-04-27T20:34:42.842Z</time>
      </trkpt>
      <trkpt lat="48.81832" lon="2.42056">
        <ele>93.6</ele>
        <time>2015-04-27T20:34:43.856Z</time>
      </trkpt>
      <trkpt lat="48.81832" lon="2.42048">
        <ele>94</ele>
        <time>2015-04-27T20:34:44.872Z</time>
      </trkpt>
      <trkpt lat="48.81833" lon="2.42041">
        <ele>94.2</ele>
        <time>2015-04-27T20:34:45.885Z</time>
      </trkpt>
      <trkpt lat="48.81832" lon="2.42029">
        <ele>94.8</ele>
        <time>2015-04-27T20:34:47.925Z</time>
      </trkpt>
      <trkpt lat="48.81832" lon="2.42022">
        <ele>95.1</ele>
        <time>2015-04-27T20:34:48.923Z</time>
      </trkpt>
      <trkpt lat="48.81832" lon="2.4201">
        <ele>95.5</ele>
        <time>2015-04-27T20:34:51.161Z</time>
      </trkpt>
      <trkpt lat="48.81831" lon="2.42005">
        <ele>95.6</ele>
        <time>2015-04-27T20:34:51.894Z</time>
      </trkpt>
      <trkpt lat="48.8183" lon="2.41995">
        <ele>96.6</ele>
        <time>2015-04-27T20:34:53.944Z</time>
      </trkpt>
      <trkpt lat="48.81831" lon="2.41991">
        <ele>96.8</ele>
        <time>2015-04-27T20:34:54.855Z</time>
      </trkpt>
      <trkpt lat="48.81835" lon="2.41979">
        <ele>96.5</ele>
        <time>2015-04-27T20:34:59.905Z</time>
      </trkpt>
      <trkpt lat="48.81835" lon="2.41977">
        <ele>96.3</ele>
        <time>2015-04-27T20:35:00.913Z</time>
      </trkpt>
      <trkpt lat="48.81841" lon="2.41968">
        <ele>96</ele>
        <time>2015-04-27T20:35:04.863Z</time>
      </trkpt>
      <trkpt lat="48.81843" lon="2.41967">
        <ele>96</ele>
        <time>2015-04-27T20:35:05.919Z</time>
      </trkpt>
      <trkpt lat="48.81843" lon="2.41963">
        <ele>96.4</ele>
        <time>2015-04-27T20:37:25.894Z</time>
      </trkpt>
      <trkpt lat="48.81844" lon="2.41944">
        <ele>100.5</ele>
        <time>2015-04-27T20:37:26.903Z</time>
      </trkpt>
      <trkpt lat="48.81845" lon="2.41933">
        <ele>98.9</ele>
        <time>2015-04-27T20:37:30.955Z</time>
      </trkpt>
      <trkpt lat="48.81846" lon="2.4193">
        <ele>98.9</ele>
        <time>2015-04-27T20:37:31.879Z</time>
      </trkpt>
      <trkpt lat="48.81847" lon="2.41918">
        <ele>99.2</ele>
        <time>2015-04-27T20:37:35.732Z</time>
      </trkpt>
      <trkpt lat="48.81847" lon="2.41914">
        <ele>99.2</ele>
        <time>2015-04-27T20:37:35.912Z</time>
      </trkpt>
      <trkpt lat="48.81848" lon="2.41904">
        <ele>99.6</ele>
        <time>2015-04-27T20:37:38.875Z</time>
      </trkpt>
      <trkpt lat="48.81848" lon="2.419">
        <ele>99.6</ele>
        <time>2015-04-27T20:37:39.939Z</time>
      </trkpt>
      <trkpt lat="48.81854" lon="2.4189">
        <ele>99.3</ele>
        <time>2015-04-27T20:37:42.957Z</time>
      </trkpt>
      <trkpt lat="48.81855" lon="2.41886">
        <ele>99.3</ele>
        <time>2015-04-27T20:37:43.936Z</time>
      </trkpt>
      <trkpt lat="48.81858" lon="2.41875">
        <ele>99.6</ele>
        <time>2015-04-27T20:37:46.838Z</time>
      </trkpt>
      <trkpt lat="48.81859" lon="2.41872">
        <ele>99.7</ele>
        <time>2015-04-27T20:37:47.933Z</time>
      </trkpt>
      <trkpt lat="48.81863" lon="2.41862">
        <ele>99.8</ele>
        <time>2015-04-27T20:37:50.957Z</time>
      </trkpt>
      <trkpt lat="48.81864" lon="2.4186">
        <ele>99.9</ele>
        <time>2015-04-27T20:37:51.896Z</time>
      </trkpt>
      <trkpt lat="48.81869" lon="2.41851">
        <ele>99.9</ele>
        <time>2015-04-27T20:37:56.076Z</time>
      </trkpt>
      <trkpt lat="48.81869" lon="2.41847">
        <ele>100</ele>
        <time>2015-04-27T20:37:56.848Z</time>
      </trkpt>
      <trkpt lat="48.81874" lon="2.41837">
        <ele>99.6</ele>
        <time>2015-04-27T20:38:01.138Z</time>
      </trkpt>
      <trkpt lat="48.81874" lon="2.41834">
        <ele>99.8</ele>
        <time>2015-04-27T20:38:01.869Z</time>
      </trkpt>
      <trkpt lat="48.81879" lon="2.41823">
        <ele>100.1</ele>
        <time>2015-04-27T20:38:08Z</time>
      </trkpt>
      <trkpt lat="48.81878" lon="2.4182">
        <ele>100.5</ele>
        <time>2015-04-27T20:38:08.938Z</time>
      </trkpt>
      <trkpt lat="48.81882" lon="2.41812">
        <ele>101</ele>
        <time>2015-04-27T20:38:11.878Z</time>
      </trkpt>
      <trkpt lat="48.81881" lon="2.41807">
        <ele>101.5</ele>
        <time>2015-04-27T20:38:12.884Z</time>
      </trkpt>
      <trkpt lat="48.81886" lon="2.41798">
        <ele>102</ele>
        <time>2015-04-27T20:38:16.433Z</time>
      </trkpt>
      <trkpt lat="48.81888" lon="2.41795">
        <ele>102.1</ele>
        <time>2015-04-27T20:38:16.859Z</time>
      </trkpt>
      <trkpt lat="48.8189" lon="2.41784">
        <ele>102.1</ele>
        <time>2015-04-27T20:38:21.514Z</time>
      </trkpt>
      <trkpt lat="48.81891" lon="2.41781">
        <ele>102.2</ele>
        <time>2015-04-27T20:38:22.095Z</time>
      </trkpt>
      <trkpt lat="48.81895" lon="2.41774">
        <ele>102.6</ele>
        <time>2015-04-27T20:38:23.868Z</time>
      </trkpt>
      <trkpt lat="48.81898" lon="2.41771">
        <ele>102.7</ele>
        <time>2015-04-27T20:38:24.879Z</time>
      </trkpt>
      <trkpt lat="48.81901" lon="2.41759">
        <ele>102.8</ele>
        <time>2015-04-27T20:38:27.960Z</time>
      </trkpt>
      <trkpt lat="48.81901" lon="2.41755">
        <ele>103</ele>
        <time>2015-04-27T20:38:28.871Z</time>
      </trkpt>
      <trkpt lat="48.819" lon="2.41741">
        <ele>102.5</ele>
        <time>2015-04-27T20:38:31.892Z</time>
      </trkpt>
      <trkpt lat="48.819" lon="2.41737">
        <ele>102.4</ele>
        <time>2015-04-27T20:38:32.914Z</time>
      </trkpt>
      <trkpt lat="48.81902" lon="2.41728">
        <ele>102.5</ele>
        <time>2015-04-27T20:38:35.742Z</time>
      </trkpt>
      <trkpt lat="48.81903" lon="2.41723">
        <ele>102.3</ele>
        <time>2015-04-27T20:38:35.820Z</time>
      </trkpt>
      <trkpt lat="48.81904" lon="2.41714">
        <ele>101.8</ele>
        <time>2015-04-27T20:38:37.899Z</time>
      </trkpt>
      <trkpt lat="48.81905" lon="2.4171">
        <ele>101.5</ele>
        <time>2015-04-27T20:38:38.835Z</time>
      </trkpt>
      <trkpt lat="48.81906" lon="2.417">
        <ele>102.3</ele>
        <time>2015-04-27T20:38:40.857Z</time>
      </trkpt>
      <trkpt lat="48.81908" lon="2.41696">
        <ele>102.2</ele>
        <time>2015-04-27T20:38:41.846Z</time>
      </trkpt>
      <trkpt lat="48.81912" lon="2.41688">
        <ele>102.7</ele>
        <time>2015-04-27T20:38:43.896Z</time>
      </trkpt>
      <trkpt lat="48.81913" lon="2.41684">
        <ele>102.8</ele>
        <time>2015-04-27T20:38:44.911Z</time>
      </trkpt>
      <trkpt lat="48.81916" lon="2.41674">
        <ele>102.7</ele>
        <time>2015-04-27T20:38:46.925Z</time>
      </trkpt>
      <trkpt lat="48.81918" lon="2.4167">
        <ele>102.5</ele>
        <time>2015-04-27T20:38:47.944Z</time>
      </trkpt>
      <trkpt lat="48.8192" lon="2.41658">
        <ele>102.7</ele>
        <time>2015-04-27T20:38:50.992Z</time>
      </trkpt>
      <trkpt lat="48.81921" lon="2.41653">
        <ele>102.7</ele>
        <time>2015-04-27T20:38:51.983Z</time>
      </trkpt>
      <trkpt lat="48.81924" lon="2.41641">
        <ele>102.6</ele>
        <time>2015-04-27T20:38:53.841Z</time>
      </trkpt>
      <trkpt lat="48.81924" lon="2.41636">
        <ele>103.5</ele>
        <time>2015-04-27T20:38:54.878Z</time>
      </trkpt>
      <trkpt lat="48.81924" lon="2.41624">
        <ele>105.7</ele>
        <time>2015-04-27T20:38:57.924Z</time>
      </trkpt>
      <trkpt lat="48.81928" lon="2.41622">
        <ele>105.9</ele>
        <time>2015-04-27T20:38:58.940Z</time>
      </trkpt>
      <trkpt lat="48.81936" lon="2.41616">
        <ele>106.7</ele>
        <time>2015-04-27T20:39:01.897Z</time>
      </trkpt>
      <trkpt lat="48.81938" lon="2.41614">
        <ele>106.8</ele>
        <time>2015-04-27T20:39:02.914Z</time>
      </trkpt>
      <trkpt lat="48.81942" lon="2.41602">
        <ele>106.6</ele>
        <time>2015-04-27T20:39:06.900Z</time>
      </trkpt>
      <trkpt lat="48.81944" lon="2.41599">
        <ele>106.3</ele>
        <time>2015-04-27T20:39:07.924Z</time>
      </trkpt>
      <trkpt lat="48.8195" lon="2.41591">
        <ele>106.1</ele>
        <time>2015-04-27T20:39:11.187Z</time>
      </trkpt>
      <trkpt lat="48.81951" lon="2.41588">
        <ele>106.6</ele>
        <time>2015-04-27T20:39:11.903Z</time>
      </trkpt>
      <trkpt lat="48.81954" lon="2.4158">
        <ele>107.8</ele>
        <time>2015-04-27T20:39:13.905Z</time>
      </trkpt>
      <trkpt lat="48.81956" lon="2.41575">
        <ele>108.3</ele>
        <time>2015-04-27T20:39:14.921Z</time>
      </trkpt>
      <trkpt lat="48.81964" lon="2.4157">
        <ele>109.1</ele>
        <time>2015-04-27T20:39:16.958Z</time>
      </trkpt>
      <trkpt lat="48.81968" lon="2.41568">
        <ele>109.5</ele>
        <time>2015-04-27T20:39:17.838Z</time>
      </trkpt>
      <trkpt lat="48.81975" lon="2.41565">
        <ele>110.2</ele>
        <time>2015-04-27T20:39:19.888Z</time>
      </trkpt>
      <trkpt lat="48.81977" lon="2.41562">
        <ele>110.4</ele>
        <time>2015-04-27T20:39:20.895Z</time>
      </trkpt>
      <trkpt lat="48.81984" lon="2.41557">
        <ele>110.6</ele>
        <time>2015-04-27T20:39:22.942Z</time>
      </trkpt>
      <trkpt lat="48.81986" lon="2.41554">
        <ele>110.7</ele>
        <time>2015-04-27T20:39:23.979Z</time>
      </trkpt>
      <trkpt lat="48.81992" lon="2.41548">
        <ele>111.1</ele>
        <time>2015-04-27T20:39:26.643Z</time>
      </trkpt>
      <trkpt lat="48.81995" lon="2.41545">
        <ele>111.6</ele>
        <time>2015-04-27T20:39:26.934Z</time>
      </trkpt>
      <trkpt lat="48.81999" lon="2.41537">
        <ele>111.7</ele>
        <time>2015-04-27T20:39:28.947Z</time>
      </trkpt>
      <trkpt lat="48.82001" lon="2.41533">
        <ele>111.9</ele>
        <time>2015-04-27T20:39:29.862Z</time>
      </trkpt>
      <trkpt lat="48.82007" lon="2.41531">
        <ele>112.3</ele>
        <time>2015-04-27T20:39:31.886Z</time>
      </trkpt>
      <trkpt lat="48.82011" lon="2.41532">
        <ele>112.6</ele>
        <time>2015-04-27T20:39:32.908Z</time>
      </trkpt>
      <trkpt lat="48.82018" lon="2.41527">
        <ele>112.9</ele>
        <time>2015-04-27T20:39:35.811Z</time>
      </trkpt>
      <trkpt lat="48.82022" lon="2.41523">
        <ele>113.2</ele>
        <time>2015-04-27T20:39:35.853Z</time>
      </trkpt>
      <trkpt lat="48.8203" lon="2.41518">
        <ele>113.6</ele>
        <time>2015-04-27T20:39:37.879Z</time>
      </trkpt>
      <trkpt lat="48.82035" lon="2.41516">
        <ele>113.5</ele>
        <time>2015-04-27T20:39:38.887Z</time>
      </trkpt>
      <trkpt lat="48.82043" lon="2.41512">
        <ele>113.8</ele>
        <time>2015-04-27T20:39:40.950Z</time>
      </trkpt>
      <trkpt lat="48.82047" lon="2.41509">
        <ele>113.8</ele>
        <time>2015-04-27T20:39:41.839Z</time>
      </trkpt>
      <trkpt lat="48.82052" lon="2.41502">
        <ele>114.4</ele>
        <time>2015-04-27T20:39:43.924Z</time>
      </trkpt>
      <trkpt lat="48.82054" lon="2.41497">
        <ele>114.7</ele>
        <time>2015-04-27T20:39:44.931Z</time>
      </trkpt>
      <trkpt lat="48.8206" lon="2.41489">
        <ele>114.9</ele>
        <time>2015-04-27T20:39:46.880Z</time>
      </trkpt>
      <trkpt lat="48.82064" lon="2.41488">
        <ele>115.1</ele>
        <time>2015-04-27T20:39:47.870Z</time>
      </trkpt>
      <trkpt lat="48.8207" lon="2.41482">
        <ele>115.7</ele>
        <time>2015-04-27T20:39:50.187Z</time>
      </trkpt>
      <trkpt lat="48.82073" lon="2.4148">
        <ele>115.7</ele>
        <time>2015-04-27T20:39:51.004Z</time>
      </trkpt>
      <trkpt lat="48.82078" lon="2.41473">
        <ele>115.6</ele>
        <time>2015-04-27T20:39:52.896Z</time>
      </trkpt>
      <trkpt lat="48.82081" lon="2.41471">
        <ele>115.6</ele>
        <time>2015-04-27T20:39:54.001Z</time>
      </trkpt>
      <trkpt lat="48.82087" lon="2.41467">
        <ele>115.1</ele>
        <time>2015-04-27T20:39:56.398Z</time>
      </trkpt>
      <trkpt lat="48.8209" lon="2.41464">
        <ele>115</ele>
        <time>2015-04-27T20:39:56.870Z</time>
      </trkpt>
      <trkpt lat="48.82093" lon="2.41455">
        <ele>114.9</ele>
        <time>2015-04-27T20:39:58.887Z</time>
      </trkpt>
      <trkpt lat="48.82094" lon="2.4145">
        <ele>114.7</ele>
        <time>2015-04-27T20:39:59.902Z</time>
      </trkpt>
      <trkpt lat="48.82099" lon="2.41442">
        <ele>114.5</ele>
        <time>2015-04-27T20:40:01.850Z</time>
      </trkpt>
      <trkpt lat="48.82102" lon="2.41439">
        <ele>114</ele>
        <time>2015-04-27T20:40:02.860Z</time>
      </trkpt>
      <trkpt lat="48.82108" lon="2.41431">
        <ele>113.9</ele>
        <time>2015-04-27T20:40:04.899Z</time>
      </trkpt>
      <trkpt lat="48.82111" lon="2.41425">
        <ele>113.9</ele>
        <time>2015-04-27T20:40:05.920Z</time>
      </trkpt>
      <trkpt lat="48.82117" lon="2.41417">
        <ele>113.5</ele>
        <time>2015-04-27T20:40:07.875Z</time>
      </trkpt>
      <trkpt lat="48.8212" lon="2.41413">
        <ele>113.2</ele>
        <time>2015-04-27T20:40:08.900Z</time>
      </trkpt>
      <trkpt lat="48.82125" lon="2.41403">
        <ele>112.4</ele>
        <time>2015-04-27T20:40:10.848Z</time>
      </trkpt>
      <trkpt lat="48.82127" lon="2.41398">
        <ele>112.6</ele>
        <time>2015-04-27T20:40:11.902Z</time>
      </trkpt>
      <trkpt lat="48.82132" lon="2.41387">
        <ele>112.9</ele>
        <time>2015-04-27T20:40:13.894Z</time>
      </trkpt>
      <trkpt lat="48.82137" lon="2.41382">
        <ele>113.1</ele>
        <time>2015-04-27T20:40:14.869Z</time>
      </trkpt>
      <trkpt lat="48.82141" lon="2.41378">
        <ele>113.4</ele>
        <time>2015-04-27T20:40:15.879Z</time>
      </trkpt>
      <trkpt lat="48.82144" lon="2.41372">
        <ele>113.6</ele>
        <time>2015-04-27T20:40:16.893Z</time>
      </trkpt>
      <trkpt lat="48.82147" lon="2.41367">
        <ele>113.8</ele>
        <time>2015-04-27T20:40:17.930Z</time>
      </trkpt>
      <trkpt lat="48.82152" lon="2.41364">
        <ele>113.9</ele>
        <time>2015-04-27T20:40:18.827Z</time>
      </trkpt>
      <trkpt lat="48.82156" lon="2.41359">
        <ele>113.9</ele>
        <time>2015-04-27T20:40:19.835Z</time>
      </trkpt>
      <trkpt lat="48.8216" lon="2.41354">
        <ele>113.9</ele>
        <time>2015-04-27T20:40:20.849Z</time>
      </trkpt>
      <trkpt lat="48.82163" lon="2.41349">
        <ele>114.1</ele>
        <time>2015-04-27T20:40:22.050Z</time>
      </trkpt>
      <trkpt lat="48.82167" lon="2.41344">
        <ele>114</ele>
        <time>2015-04-27T20:40:22.902Z</time>
      </trkpt>
      <trkpt lat="48.82174" lon="2.41335">
        <ele>114.1</ele>
        <time>2015-04-27T20:40:24.918Z</time>
      </trkpt>
      <trkpt lat="48.82177" lon="2.41331">
        <ele>113.9</ele>
        <time>2015-04-27T20:40:25.926Z</time>
      </trkpt>
      <trkpt lat="48.82182" lon="2.41322">
        <ele>113.8</ele>
        <time>2015-04-27T20:40:27.948Z</time>
      </trkpt>
      <trkpt lat="48.82186" lon="2.41319">
        <ele>113.4</ele>
        <time>2015-04-27T20:40:28.924Z</time>
      </trkpt>
      <trkpt lat="48.8219" lon="2.41309">
        <ele>113.2</ele>
        <time>2015-04-27T20:40:30.890Z</time>
      </trkpt>
      <trkpt lat="48.82193" lon="2.41304">
        <ele>113.2</ele>
        <time>2015-04-27T20:40:31.917Z</time>
      </trkpt>
      <trkpt lat="48.82198" lon="2.413">
        <ele>113.4</ele>
        <time>2015-04-27T20:40:32.864Z</time>
      </trkpt>
      <trkpt lat="48.82202" lon="2.41295">
        <ele>113.6</ele>
        <time>2015-04-27T20:40:33.904Z</time>
      </trkpt>
      <trkpt lat="48.82205" lon="2.41291">
        <ele>113.7</ele>
        <time>2015-04-27T20:40:34.911Z</time>
      </trkpt>
      <trkpt lat="48.82209" lon="2.41288">
        <ele>114.1</ele>
        <time>2015-04-27T20:40:35.931Z</time>
      </trkpt>
      <trkpt lat="48.82213" lon="2.41284">
        <ele>114.5</ele>
        <time>2015-04-27T20:40:36.999Z</time>
      </trkpt>
      <trkpt lat="48.82217" lon="2.4128">
        <ele>114.7</ele>
        <time>2015-04-27T20:40:37.853Z</time>
      </trkpt>
      <trkpt lat="48.82225" lon="2.41274">
        <ele>114.8</ele>
        <time>2015-04-27T20:40:39.880Z</time>
      </trkpt>
      <trkpt lat="48.82228" lon="2.4127">
        <ele>115.2</ele>
        <time>2015-04-27T20:40:40.916Z</time>
      </trkpt>
      <trkpt lat="48.82235" lon="2.41262">
        <ele>115.7</ele>
        <time>2015-04-27T20:40:42.851Z</time>
      </trkpt>
      <trkpt lat="48.82237" lon="2.41257">
        <ele>116</ele>
        <time>2015-04-27T20:40:43.871Z</time>
      </trkpt>
      <trkpt lat="48.8224" lon="2.41245">
        <ele>116.5</ele>
        <time>2015-04-27T20:40:45.872Z</time>
      </trkpt>
      <trkpt lat="48.82241" lon="2.41239">
        <ele>116.6</ele>
        <time>2015-04-27T20:40:46.921Z</time>
      </trkpt>
      <trkpt lat="48.82245" lon="2.4123">
        <ele>116.7</ele>
        <time>2015-04-27T20:40:48.852Z</time>
      </trkpt>
      <trkpt lat="48.82249" lon="2.41226">
        <ele>116.5</ele>
        <time>2015-04-27T20:40:49.872Z</time>
      </trkpt>
      <trkpt lat="48.82255" lon="2.41219">
        <ele>116.3</ele>
        <time>2015-04-27T20:40:51.941Z</time>
      </trkpt>
      <trkpt lat="48.82258" lon="2.41215">
        <ele>116.3</ele>
        <time>2015-04-27T20:40:52.901Z</time>
      </trkpt>
      <trkpt lat="48.82265" lon="2.41207">
        <ele>116</ele>
        <time>2015-04-27T20:40:54.846Z</time>
      </trkpt>
      <trkpt lat="48.82267" lon="2.41203">
        <ele>115.5</ele>
        <time>2015-04-27T20:40:55.858Z</time>
      </trkpt>
      <trkpt lat="48.82272" lon="2.41195">
        <ele>115.3</ele>
        <time>2015-04-27T20:40:57.907Z</time>
      </trkpt>
      <trkpt lat="48.82274" lon="2.4119">
        <ele>115.2</ele>
        <time>2015-04-27T20:40:59.017Z</time>
      </trkpt>
      <trkpt lat="48.8228" lon="2.41182">
        <ele>114.8</ele>
        <time>2015-04-27T20:41:00.900Z</time>
      </trkpt>
      <trkpt lat="48.82283" lon="2.41179">
        <ele>114.6</ele>
        <time>2015-04-27T20:41:01.913Z</time>
      </trkpt>
      <trkpt lat="48.82289" lon="2.41171">
        <ele>114.2</ele>
        <time>2015-04-27T20:41:03.892Z</time>
      </trkpt>
      <trkpt lat="48.82293" lon="2.41168">
        <ele>114.4</ele>
        <time>2015-04-27T20:41:04.906Z</time>
      </trkpt>
      <trkpt lat="48.82299" lon="2.41159">
        <ele>114.9</ele>
        <time>2015-04-27T20:41:06.843Z</time>
      </trkpt>
      <trkpt lat="48.82303" lon="2.41155">
        <ele>115.2</ele>
        <time>2015-04-27T20:41:07.870Z</time>
      </trkpt>
      <trkpt lat="48.82307" lon="2.41151">
        <ele>115.7</ele>
        <time>2015-04-27T20:41:08.914Z</time>
      </trkpt>
      <trkpt lat="48.82311" lon="2.41147">
        <ele>116.4</ele>
        <time>2015-04-27T20:41:09.923Z</time>
      </trkpt>
      <trkpt lat="48.82314" lon="2.41143">
        <ele>116.7</ele>
        <time>2015-04-27T20:41:10.937Z</time>
      </trkpt>
      <trkpt lat="48.82319" lon="2.41141">
        <ele>116.8</ele>
        <time>2015-04-27T20:41:11.845Z</time>
      </trkpt>
      <trkpt lat="48.82324" lon="2.41138">
        <ele>117.1</ele>
        <time>2015-04-27T20:41:12.874Z</time>
      </trkpt>
      <trkpt lat="48.82328" lon="2.41135">
        <ele>117.4</ele>
        <time>2015-04-27T20:41:13.887Z</time>
      </trkpt>
      <trkpt lat="48.82333" lon="2.41132">
        <ele>117.5</ele>
        <time>2015-04-27T20:41:14.891Z</time>
      </trkpt>
      <trkpt lat="48.82337" lon="2.41129">
        <ele>118</ele>
        <time>2015-04-27T20:41:15.901Z</time>
      </trkpt>
      <trkpt lat="48.82341" lon="2.41125">
        <ele>118.2</ele>
        <time>2015-04-27T20:41:16.911Z</time>
      </trkpt>
      <trkpt lat="48.82345" lon="2.4112">
        <ele>118.4</ele>
        <time>2015-04-27T20:41:17.924Z</time>
      </trkpt>
      <trkpt lat="48.82348" lon="2.41115">
        <ele>118.8</ele>
        <time>2015-04-27T20:41:18.846Z</time>
      </trkpt>
      <trkpt lat="48.82352" lon="2.4111">
        <ele>118.8</ele>
        <time>2015-04-27T20:41:19.856Z</time>
      </trkpt>
      <trkpt lat="48.82357" lon="2.41106">
        <ele>118.8</ele>
        <time>2015-04-27T20:41:20.880Z</time>
      </trkpt>
      <trkpt lat="48.8236" lon="2.41101">
        <ele>118.5</ele>
        <time>2015-04-27T20:41:21.898Z</time>
      </trkpt>
      <trkpt lat="48.82364" lon="2.41095">
        <ele>118.3</ele>
        <time>2015-04-27T20:41:22.904Z</time>
      </trkpt>
      <trkpt lat="48.82367" lon="2.41088">
        <ele>118</ele>
        <time>2015-04-27T20:41:23.968Z</time>
      </trkpt>
      <trkpt lat="48.82369" lon="2.41081">
        <ele>117.5</ele>
        <time>2015-04-27T20:41:24.854Z</time>
      </trkpt>
      <trkpt lat="48.82372" lon="2.41075">
        <ele>117.1</ele>
        <time>2015-04-27T20:41:25.887Z</time>
      </trkpt>
      <trkpt lat="48.82375" lon="2.41062">
        <ele>116.1</ele>
        <time>2015-04-27T20:41:27.904Z</time>
      </trkpt>
      <trkpt lat="48.82377" lon="2.41056">
        <ele>115.5</ele>
        <time>2015-04-27T20:41:28.830Z</time>
      </trkpt>
      <trkpt lat="48.8238" lon="2.41051">
        <ele>115.4</ele>
        <time>2015-04-27T20:41:29.869Z</time>
      </trkpt>
      <trkpt lat="48.82384" lon="2.41045">
        <ele>115.6</ele>
        <time>2015-04-27T20:41:30.874Z</time>
      </trkpt>
      <trkpt lat="48.82389" lon="2.4104">
        <ele>115.4</ele>
        <time>2015-04-27T20:41:31.888Z</time>
      </trkpt>
      <trkpt lat="48.82395" lon="2.41035">
        <ele>115.7</ele>
        <time>2015-04-27T20:41:32.901Z</time>
      </trkpt>
      <trkpt lat="48.82401" lon="2.41029">
        <ele>115.5</ele>
        <time>2015-04-27T20:41:33.923Z</time>
      </trkpt>
      <trkpt lat="48.82405" lon="2.41023">
        <ele>115.7</ele>
        <time>2015-04-27T20:41:34.931Z</time>
      </trkpt>
      <trkpt lat="48.82408" lon="2.41015">
        <ele>115.8</ele>
        <time>2015-04-27T20:41:35.848Z</time>
      </trkpt>
      <trkpt lat="48.82412" lon="2.41009">
        <ele>116</ele>
        <time>2015-04-27T20:41:36.824Z</time>
      </trkpt>
      <trkpt lat="48.82414" lon="2.41">
        <ele>116.2</ele>
        <time>2015-04-27T20:41:37.854Z</time>
      </trkpt>
      <trkpt lat="48.82417" lon="2.40993">
        <ele>116.6</ele>
        <time>2015-04-27T20:41:38.861Z</time>
      </trkpt>
      <trkpt lat="48.8242" lon="2.40987">
        <ele>116.9</ele>
        <time>2015-04-27T20:41:39.884Z</time>
      </trkpt>
      <trkpt lat="48.82423" lon="2.4098">
        <ele>117.1</ele>
        <time>2015-04-27T20:41:40.895Z</time>
      </trkpt>
      <trkpt lat="48.82425" lon="2.40973">
        <ele>117.3</ele>
        <time>2015-04-27T20:41:41.917Z</time>
      </trkpt>
      <trkpt lat="48.82428" lon="2.40967">
        <ele>117.5</ele>
        <time>2015-04-27T20:41:42.920Z</time>
      </trkpt>
      <trkpt lat="48.82431" lon="2.40959">
        <ele>117.4</ele>
        <time>2015-04-27T20:41:43.937Z</time>
      </trkpt>
      <trkpt lat="48.82435" lon="2.40954">
        <ele>117.5</ele>
        <time>2015-04-27T20:41:44.946Z</time>
      </trkpt>
      <trkpt lat="48.82439" lon="2.40948">
        <ele>117.6</ele>
        <time>2015-04-27T20:41:45.870Z</time>
      </trkpt>
      <trkpt lat="48.82443" lon="2.40941">
        <ele>117.4</ele>
        <time>2015-04-27T20:41:46.864Z</time>
      </trkpt>
      <trkpt lat="48.82446" lon="2.40934">
        <ele>117.4</ele>
        <time>2015-04-27T20:41:47.908Z</time>
      </trkpt>
      <trkpt lat="48.82449" lon="2.40927">
        <ele>117.6</ele>
        <time>2015-04-27T20:41:48.911Z</time>
      </trkpt>
      <trkpt lat="48.82452" lon="2.40919">
        <ele>117.3</ele>
        <time>2015-04-27T20:41:49.920Z</time>
      </trkpt>
      <trkpt lat="48.82457" lon="2.40913">
        <ele>117</ele>
        <time>2015-04-27T20:41:50.844Z</time>
      </trkpt>
      <trkpt lat="48.82462" lon="2.40907">
        <ele>116.7</ele>
        <time>2015-04-27T20:41:51.950Z</time>
      </trkpt>
      <trkpt lat="48.82468" lon="2.409">
        <ele>116.4</ele>
        <time>2015-04-27T20:41:52.855Z</time>
      </trkpt>
      <trkpt lat="48.82473" lon="2.40894">
        <ele>116.4</ele>
        <time>2015-04-27T20:41:53.855Z</time>
      </trkpt>
      <trkpt lat="48.82478" lon="2.40888">
        <ele>116.4</ele>
        <time>2015-04-27T20:41:54.861Z</time>
      </trkpt>
      <trkpt lat="48.82482" lon="2.40882">
        <ele>116.6</ele>
        <time>2015-04-27T20:41:55.876Z</time>
      </trkpt>
      <trkpt lat="48.82487" lon="2.40876">
        <ele>116.9</ele>
        <time>2015-04-27T20:41:56.889Z</time>
      </trkpt>
      <trkpt lat="48.82494" lon="2.40871">
        <ele>116.6</ele>
        <time>2015-04-27T20:41:57.911Z</time>
      </trkpt>
      <trkpt lat="48.825" lon="2.40864">
        <ele>115.7</ele>
        <time>2015-04-27T20:41:58.915Z</time>
      </trkpt>
      <trkpt lat="48.82506" lon="2.40858">
        <ele>115.4</ele>
        <time>2015-04-27T20:41:59.847Z</time>
      </trkpt>
      <trkpt lat="48.82511" lon="2.40852">
        <ele>115.2</ele>
        <time>2015-04-27T20:42:00.848Z</time>
      </trkpt>
      <trkpt lat="48.82517" lon="2.40846">
        <ele>114.6</ele>
        <time>2015-04-27T20:42:01.871Z</time>
      </trkpt>
      <trkpt lat="48.82521" lon="2.4084">
        <ele>113.8</ele>
        <time>2015-04-27T20:42:02.887Z</time>
      </trkpt>
      <trkpt lat="48.82525" lon="2.40832">
        <ele>113.2</ele>
        <time>2015-04-27T20:42:03.887Z</time>
      </trkpt>
      <trkpt lat="48.8253" lon="2.40826">
        <ele>113.4</ele>
        <time>2015-04-27T20:42:04.896Z</time>
      </trkpt>
      <trkpt lat="48.82536" lon="2.40819">
        <ele>113.8</ele>
        <time>2015-04-27T20:42:05.914Z</time>
      </trkpt>
      <trkpt lat="48.82539" lon="2.40809">
        <ele>114.2</ele>
        <time>2015-04-27T20:42:06.935Z</time>
      </trkpt>
      <trkpt lat="48.82543" lon="2.40799">
        <ele>114.6</ele>
        <time>2015-04-27T20:42:07.848Z</time>
      </trkpt>
      <trkpt lat="48.82545" lon="2.4079">
        <ele>115</ele>
        <time>2015-04-27T20:42:08.858Z</time>
      </trkpt>
      <trkpt lat="48.82548" lon="2.40779">
        <ele>115.6</ele>
        <time>2015-04-27T20:42:09.885Z</time>
      </trkpt>
      <trkpt lat="48.8255" lon="2.40767">
        <ele>115.9</ele>
        <time>2015-04-27T20:42:10.896Z</time>
      </trkpt>
      <trkpt lat="48.82551" lon="2.40755">
        <ele>116</ele>
        <time>2015-04-27T20:42:11.909Z</time>
      </trkpt>
      <trkpt lat="48.82553" lon="2.40744">
        <ele>116.2</ele>
        <time>2015-04-27T20:42:12.911Z</time>
      </trkpt>
      <trkpt lat="48.82555" lon="2.40732">
        <ele>116.1</ele>
        <time>2015-04-27T20:42:13.935Z</time>
      </trkpt>
      <trkpt lat="48.82557" lon="2.40721">
        <ele>115.9</ele>
        <time>2015-04-27T20:42:14.852Z</time>
      </trkpt>
      <trkpt lat="48.82561" lon="2.40715">
        <ele>115.7</ele>
        <time>2015-04-27T20:42:15.880Z</time>
      </trkpt>
      <trkpt lat="48.82565" lon="2.40707">
        <ele>115.8</ele>
        <time>2015-04-27T20:42:16.886Z</time>
      </trkpt>
      <trkpt lat="48.82567" lon="2.40699">
        <ele>116.1</ele>
        <time>2015-04-27T20:42:17.902Z</time>
      </trkpt>
      <trkpt lat="48.82572" lon="2.40693">
        <ele>116.3</ele>
        <time>2015-04-27T20:42:18.924Z</time>
      </trkpt>
      <trkpt lat="48.82577" lon="2.40689">
        <ele>116.4</ele>
        <time>2015-04-27T20:42:19.930Z</time>
      </trkpt>
      <trkpt lat="48.82581" lon="2.40684">
        <ele>116.9</ele>
        <time>2015-04-27T20:42:20.945Z</time>
      </trkpt>
      <trkpt lat="48.82585" lon="2.40679">
        <ele>117.2</ele>
        <time>2015-04-27T20:42:21.950Z</time>
      </trkpt>
      <trkpt lat="48.82589" lon="2.40675">
        <ele>117.6</ele>
        <time>2015-04-27T20:42:22.847Z</time>
      </trkpt>
      <trkpt lat="48.82594" lon="2.40673">
        <ele>118.1</ele>
        <time>2015-04-27T20:42:23.866Z</time>
      </trkpt>
      <trkpt lat="48.82599" lon="2.4067">
        <ele>118.5</ele>
        <time>2015-04-27T20:42:24.874Z</time>
      </trkpt>
      <trkpt lat="48.82605" lon="2.40667">
        <ele>118.8</ele>
        <time>2015-04-27T20:42:25.897Z</time>
      </trkpt>
      <trkpt lat="48.8261" lon="2.40665">
        <ele>119.3</ele>
        <time>2015-04-27T20:42:26.904Z</time>
      </trkpt>
      <trkpt lat="48.82618" lon="2.40658">
        <ele>119.7</ele>
        <time>2015-04-27T20:42:28.849Z</time>
      </trkpt>
      <trkpt lat="48.82621" lon="2.40655">
        <ele>119.9</ele>
        <time>2015-04-27T20:42:29.881Z</time>
      </trkpt>
      <trkpt lat="48.82625" lon="2.40651">
        <ele>119.9</ele>
        <time>2015-04-27T20:42:30.917Z</time>
      </trkpt>
      <trkpt lat="48.82629" lon="2.40647">
        <ele>120</ele>
        <time>2015-04-27T20:42:31.929Z</time>
      </trkpt>
      <trkpt lat="48.82633" lon="2.40643">
        <ele>119.9</ele>
        <time>2015-04-27T20:42:32.939Z</time>
      </trkpt>
      <trkpt lat="48.82636" lon="2.40639">
        <ele>120.3</ele>
        <time>2015-04-27T20:42:33.951Z</time>
      </trkpt>
      <trkpt lat="48.82643" lon="2.40631">
        <ele>119.8</ele>
        <time>2015-04-27T20:42:35.854Z</time>
      </trkpt>
      <trkpt lat="48.82646" lon="2.40626">
        <ele>119.8</ele>
        <time>2015-04-27T20:42:36.877Z</time>
      </trkpt>
      <trkpt lat="48.82649" lon="2.40615">
        <ele>119.2</ele>
        <time>2015-04-27T20:42:38.865Z</time>
      </trkpt>
      <trkpt lat="48.8265" lon="2.4061">
        <ele>119.2</ele>
        <time>2015-04-27T20:42:39.906Z</time>
      </trkpt>
      <trkpt lat="48.82654" lon="2.406">
        <ele>118.7</ele>
        <time>2015-04-27T20:42:41.938Z</time>
      </trkpt>
      <trkpt lat="48.82655" lon="2.40594">
        <ele>118.6</ele>
        <time>2015-04-27T20:42:42.827Z</time>
      </trkpt>
      <trkpt lat="48.82655" lon="2.40587">
        <ele>118.8</ele>
        <time>2015-04-27T20:42:43.830Z</time>
      </trkpt>
      <trkpt lat="48.82655" lon="2.40578">
        <ele>119.5</ele>
        <time>2015-04-27T20:42:44.883Z</time>
      </trkpt>
      <trkpt lat="48.82657" lon="2.40568">
        <ele>119.9</ele>
        <time>2015-04-27T20:42:46.922Z</time>
      </trkpt>
      <trkpt lat="48.82659" lon="2.40565">
        <ele>120</ele>
        <time>2015-04-27T20:42:47.923Z</time>
      </trkpt>
      <trkpt lat="48.82664" lon="2.40557">
        <ele>121</ele>
        <time>2015-04-27T20:42:49.867Z</time>
      </trkpt>
      <trkpt lat="48.82666" lon="2.40555">
        <ele>121.6</ele>
        <time>2015-04-27T20:42:50.895Z</time>
      </trkpt>
      <trkpt lat="48.82673" lon="2.4055">
        <ele>122.4</ele>
        <time>2015-04-27T20:42:52.912Z</time>
      </trkpt>
      <trkpt lat="48.82678" lon="2.40548">
        <ele>123</ele>
        <time>2015-04-27T20:42:53.937Z</time>
      </trkpt>
      <trkpt lat="48.82686" lon="2.40543">
        <ele>123.5</ele>
        <time>2015-04-27T20:42:55.926Z</time>
      </trkpt>
      <trkpt lat="48.8269" lon="2.40541">
        <ele>123.8</ele>
        <time>2015-04-27T20:42:56.921Z</time>
      </trkpt>
      <trkpt lat="48.82697" lon="2.40535">
        <ele>124.7</ele>
        <time>2015-04-27T20:42:58.860Z</time>
      </trkpt>
      <trkpt lat="48.82699" lon="2.40532">
        <ele>125.3</ele>
        <time>2015-04-27T20:42:59.918Z</time>
      </trkpt>
      <trkpt lat="48.82704" lon="2.40521">
        <ele>125.4</ele>
        <time>2015-04-27T20:43:02.876Z</time>
      </trkpt>
      <trkpt lat="48.82705" lon="2.40516">
        <ele>125.2</ele>
        <time>2015-04-27T20:43:03.940Z</time>
      </trkpt>
      <trkpt lat="48.82706" lon="2.40506">
        <ele>125</ele>
        <time>2015-04-27T20:43:05.869Z</time>
      </trkpt>
      <trkpt lat="48.82707" lon="2.40502">
        <ele>125.3</ele>
        <time>2015-04-27T20:43:06.899Z</time>
      </trkpt>
      <trkpt lat="48.8271" lon="2.40493">
        <ele>126.2</ele>
        <time>2015-04-27T20:43:08.897Z</time>
      </trkpt>
      <trkpt lat="48.82712" lon="2.40489">
        <ele>126.6</ele>
        <time>2015-04-27T20:43:09.951Z</time>
      </trkpt>
      <trkpt lat="48.82716" lon="2.4048">
        <ele>127.9</ele>
        <time>2015-04-27T20:43:11.910Z</time>
      </trkpt>
      <trkpt lat="48.82718" lon="2.40477">
        <ele>128.1</ele>
        <time>2015-04-27T20:43:12.844Z</time>
      </trkpt>
      <trkpt lat="48.82725" lon="2.40469">
        <ele>128.3</ele>
        <time>2015-04-27T20:43:15.900Z</time>
      </trkpt>
      <trkpt lat="48.82727" lon="2.40466">
        <ele>128.3</ele>
        <time>2015-04-27T20:43:16.911Z</time>
      </trkpt>
      <trkpt lat="48.82733" lon="2.40458">
        <ele>128.4</ele>
        <time>2015-04-27T20:43:19.907Z</time>
      </trkpt>
      <trkpt lat="48.82734" lon="2.40456">
        <ele>128.3</ele>
        <time>2015-04-27T20:43:20.962Z</time>
      </trkpt>
      <trkpt lat="48.8274" lon="2.40446">
        <ele>128.6</ele>
        <time>2015-04-27T20:43:23.910Z</time>
      </trkpt>
      <trkpt lat="48.82743" lon="2.40443">
        <ele>128.6</ele>
        <time>2015-04-27T20:43:24.871Z</time>
      </trkpt>
      <trkpt lat="48.82749" lon="2.40437">
        <ele>128.1</ele>
        <time>2015-04-27T20:43:26.894Z</time>
      </trkpt>
      <trkpt lat="48.82753" lon="2.40435">
        <ele>128</ele>
        <time>2015-04-27T20:43:27.906Z</time>
      </trkpt>
      <trkpt lat="48.82761" lon="2.40431">
        <ele>126.8</ele>
        <time>2015-04-27T20:43:29.927Z</time>
      </trkpt>
      <trkpt lat="48.82764" lon="2.40428">
        <ele>126.4</ele>
        <time>2015-04-27T20:43:31.016Z</time>
      </trkpt>
      <trkpt lat="48.8277" lon="2.40422">
        <ele>125.8</ele>
        <time>2015-04-27T20:43:32.895Z</time>
      </trkpt>
      <trkpt lat="48.82771" lon="2.40417">
        <ele>125.6</ele>
        <time>2015-04-27T20:43:33.931Z</time>
      </trkpt>
      <trkpt lat="48.82775" lon="2.40407">
        <ele>125.1</ele>
        <time>2015-04-27T20:43:36.850Z</time>
      </trkpt>
      <trkpt lat="48.82776" lon="2.40403">
        <ele>125.1</ele>
        <time>2015-04-27T20:43:37.842Z</time>
      </trkpt>
      <trkpt lat="48.82782" lon="2.40395">
        <ele>124.8</ele>
        <time>2015-04-27T20:43:41.116Z</time>
      </trkpt>
      <trkpt lat="48.82786" lon="2.40393">
        <ele>124.9</ele>
        <time>2015-04-27T20:43:41.874Z</time>
      </trkpt>
      <trkpt lat="48.82792" lon="2.40391">
        <ele>125</ele>
        <time>2015-04-27T20:43:43.878Z</time>
      </trkpt>
      <trkpt lat="48.82795" lon="2.40391">
        <ele>124.9</ele>
        <time>2015-04-27T20:43:44.894Z</time>
      </trkpt>
      <trkpt lat="48.82801" lon="2.40387">
        <ele>125.4</ele>
        <time>2015-04-27T20:43:46.929Z</time>
      </trkpt>
      <trkpt lat="48.82805" lon="2.40385">
        <ele>125.6</ele>
        <time>2015-04-27T20:43:47.960Z</time>
      </trkpt>
      <trkpt lat="48.82811" lon="2.40381">
        <ele>125.7</ele>
        <time>2015-04-27T20:43:49.851Z</time>
      </trkpt>
      <trkpt lat="48.82814" lon="2.40379">
        <ele>125.7</ele>
        <time>2015-04-27T20:43:50.882Z</time>
      </trkpt>
      <trkpt lat="48.82813" lon="2.40372">
        <ele>123.1</ele>
        <time>2015-04-27T20:47:11.399Z</time>
      </trkpt>
      <trkpt lat="48.82793" lon="2.4036">
        <ele>118.9</ele>
        <time>2015-04-27T20:47:11.898Z</time>
      </trkpt>
      <trkpt lat="48.82799" lon="2.40353">
        <ele>118.5</ele>
        <time>2015-04-27T20:47:14.855Z</time>
      </trkpt>
      <trkpt lat="48.82801" lon="2.40351">
        <ele>118.2</ele>
        <time>2015-04-27T20:47:15.894Z</time>
      </trkpt>
      <trkpt lat="48.82807" lon="2.40347">
        <ele>117.5</ele>
        <time>2015-04-27T20:47:17.838Z</time>
      </trkpt>
      <trkpt lat="48.82811" lon="2.40344">
        <ele>117.3</ele>
        <time>2015-04-27T20:47:18.855Z</time>
      </trkpt>
      <trkpt lat="48.82818" lon="2.40337">
        <ele>117.5</ele>
        <time>2015-04-27T20:47:21.485Z</time>
      </trkpt>
      <trkpt lat="48.82822" lon="2.40333">
        <ele>118</ele>
        <time>2015-04-27T20:47:21.880Z</time>
      </trkpt>
      <trkpt lat="48.82826" lon="2.40329">
        <ele>118.2</ele>
        <time>2015-04-27T20:47:22.900Z</time>
      </trkpt>
      <trkpt lat="48.82829" lon="2.40323">
        <ele>118.4</ele>
        <time>2015-04-27T20:47:23.941Z</time>
      </trkpt>
      <trkpt lat="48.82833" lon="2.40317">
        <ele>118.3</ele>
        <time>2015-04-27T20:47:24.863Z</time>
      </trkpt>
      <trkpt lat="48.82838" lon="2.40312">
        <ele>118</ele>
        <time>2015-04-27T20:47:25.862Z</time>
      </trkpt>
      <trkpt lat="48.82841" lon="2.40306">
        <ele>117.4</ele>
        <time>2015-04-27T20:47:26.873Z</time>
      </trkpt>
      <trkpt lat="48.82845" lon="2.403">
        <ele>116.8</ele>
        <time>2015-04-27T20:47:27.884Z</time>
      </trkpt>
      <trkpt lat="48.82849" lon="2.40295">
        <ele>116.4</ele>
        <time>2015-04-27T20:47:28.912Z</time>
      </trkpt>
      <trkpt lat="48.82851" lon="2.40288">
        <ele>115.8</ele>
        <time>2015-04-27T20:47:29.932Z</time>
      </trkpt>
      <trkpt lat="48.82855" lon="2.40282">
        <ele>115.5</ele>
        <time>2015-04-27T20:47:30.829Z</time>
      </trkpt>
      <trkpt lat="48.82859" lon="2.40276">
        <ele>115.4</ele>
        <time>2015-04-27T20:47:31.843Z</time>
      </trkpt>
      <trkpt lat="48.82863" lon="2.40271">
        <ele>115.4</ele>
        <time>2015-04-27T20:47:32.863Z</time>
      </trkpt>
      <trkpt lat="48.82866" lon="2.40263">
        <ele>115.6</ele>
        <time>2015-04-27T20:47:33.879Z</time>
      </trkpt>
      <trkpt lat="48.82869" lon="2.40255">
        <ele>115.8</ele>
        <time>2015-04-27T20:47:34.890Z</time>
      </trkpt>
      <trkpt lat="48.82872" lon="2.40246">
        <ele>116</ele>
        <time>2015-04-27T20:47:35.891Z</time>
      </trkpt>
      <trkpt lat="48.82876" lon="2.4024">
        <ele>116</ele>
        <time>2015-04-27T20:47:36.909Z</time>
      </trkpt>
      <trkpt lat="48.8288" lon="2.40232">
        <ele>116</ele>
        <time>2015-04-27T20:47:37.941Z</time>
      </trkpt>
      <trkpt lat="48.82883" lon="2.40227">
        <ele>115.9</ele>
        <time>2015-04-27T20:47:38.842Z</time>
      </trkpt>
      <trkpt lat="48.82887" lon="2.40221">
        <ele>115.9</ele>
        <time>2015-04-27T20:47:39.883Z</time>
      </trkpt>
      <trkpt lat="48.82892" lon="2.40215">
        <ele>115.6</ele>
        <time>2015-04-27T20:47:40.892Z</time>
      </trkpt>
      <trkpt lat="48.82898" lon="2.4021">
        <ele>114.9</ele>
        <time>2015-04-27T20:47:41.900Z</time>
      </trkpt>
      <trkpt lat="48.82904" lon="2.40206">
        <ele>114.9</ele>
        <time>2015-04-27T20:47:42.910Z</time>
      </trkpt>
      <trkpt lat="48.8291" lon="2.402">
        <ele>114.8</ele>
        <time>2015-04-27T20:47:43.916Z</time>
      </trkpt>
      <trkpt lat="48.82915" lon="2.40195">
        <ele>115.2</ele>
        <time>2015-04-27T20:47:44.927Z</time>
      </trkpt>
      <trkpt lat="48.8292" lon="2.40189">
        <ele>115.1</ele>
        <time>2015-04-27T20:47:45.937Z</time>
      </trkpt>
      <trkpt lat="48.82926" lon="2.40186">
        <ele>114.6</ele>
        <time>2015-04-27T20:47:46.837Z</time>
      </trkpt>
      <trkpt lat="48.8293" lon="2.4018">
        <ele>114.4</ele>
        <time>2015-04-27T20:47:47.850Z</time>
      </trkpt>
      <trkpt lat="48.82934" lon="2.40173">
        <ele>114.3</ele>
        <time>2015-04-27T20:47:48.851Z</time>
      </trkpt>
      <trkpt lat="48.82938" lon="2.40166">
        <ele>113.8</ele>
        <time>2015-04-27T20:47:49.861Z</time>
      </trkpt>
      <trkpt lat="48.82942" lon="2.40159">
        <ele>113.4</ele>
        <time>2015-04-27T20:47:50.876Z</time>
      </trkpt>
      <trkpt lat="48.82945" lon="2.40153">
        <ele>112.9</ele>
        <time>2015-04-27T20:47:51.898Z</time>
      </trkpt>
      <trkpt lat="48.82949" lon="2.40147">
        <ele>112.2</ele>
        <time>2015-04-27T20:47:52.911Z</time>
      </trkpt>
      <trkpt lat="48.82953" lon="2.40141">
        <ele>111.9</ele>
        <time>2015-04-27T20:47:53.918Z</time>
      </trkpt>
      <trkpt lat="48.82957" lon="2.40138">
        <ele>112.1</ele>
        <time>2015-04-27T20:47:54.809Z</time>
      </trkpt>
      <trkpt lat="48.82961" lon="2.40134">
        <ele>112.1</ele>
        <time>2015-04-27T20:47:55.831Z</time>
      </trkpt>
      <trkpt lat="48.82967" lon="2.40124">
        <ele>111.8</ele>
        <time>2015-04-27T20:47:57.861Z</time>
      </trkpt>
      <trkpt lat="48.8297" lon="2.40118">
        <ele>111.4</ele>
        <time>2015-04-27T20:47:59.127Z</time>
      </trkpt>
      <trkpt lat="48.82972" lon="2.40112">
        <ele>111.2</ele>
        <time>2015-04-27T20:47:59.850Z</time>
      </trkpt>
      <trkpt lat="48.82975" lon="2.40106">
        <ele>110.8</ele>
        <time>2015-04-27T20:48:00.866Z</time>
      </trkpt>
      <trkpt lat="48.82979" lon="2.401">
        <ele>110.5</ele>
        <time>2015-04-27T20:48:01.891Z</time>
      </trkpt>
      <trkpt lat="48.82982" lon="2.40093">
        <ele>109.7</ele>
        <time>2015-04-27T20:48:02.901Z</time>
      </trkpt>
      <trkpt lat="48.82984" lon="2.40085">
        <ele>109.3</ele>
        <time>2015-04-27T20:48:03.919Z</time>
      </trkpt>
      <trkpt lat="48.82988" lon="2.40078">
        <ele>109.4</ele>
        <time>2015-04-27T20:48:04.868Z</time>
      </trkpt>
      <trkpt lat="48.82991" lon="2.40071">
        <ele>109.4</ele>
        <time>2015-04-27T20:48:05.848Z</time>
      </trkpt>
      <trkpt lat="48.82994" lon="2.40064">
        <ele>109.4</ele>
        <time>2015-04-27T20:48:06.842Z</time>
      </trkpt>
      <trkpt lat="48.82999" lon="2.40057">
        <ele>109.7</ele>
        <time>2015-04-27T20:48:07.855Z</time>
      </trkpt>
      <trkpt lat="48.83003" lon="2.40052">
        <ele>109.5</ele>
        <time>2015-04-27T20:48:08.854Z</time>
      </trkpt>
      <trkpt lat="48.83007" lon="2.40046">
        <ele>109.1</ele>
        <time>2015-04-27T20:48:09.872Z</time>
      </trkpt>
      <trkpt lat="48.83012" lon="2.4004">
        <ele>109.1</ele>
        <time>2015-04-27T20:48:11.005Z</time>
      </trkpt>
      <trkpt lat="48.83016" lon="2.40034">
        <ele>109.5</ele>
        <time>2015-04-27T20:48:11.843Z</time>
      </trkpt>
      <trkpt lat="48.8302" lon="2.40027">
        <ele>109.6</ele>
        <time>2015-04-27T20:48:12.853Z</time>
      </trkpt>
      <trkpt lat="48.83023" lon="2.40019">
        <ele>109.8</ele>
        <time>2015-04-27T20:48:13.866Z</time>
      </trkpt>
      <trkpt lat="48.83027" lon="2.40013">
        <ele>110</ele>
        <time>2015-04-27T20:48:14.876Z</time>
      </trkpt>
      <trkpt lat="48.83031" lon="2.40006">
        <ele>110.3</ele>
        <time>2015-04-27T20:48:15.896Z</time>
      </trkpt>
      <trkpt lat="48.83036" lon="2.4">
        <ele>110.2</ele>
        <time>2015-04-27T20:48:16.910Z</time>
      </trkpt>
      <trkpt lat="48.8304" lon="2.39993">
        <ele>110</ele>
        <time>2015-04-27T20:48:17.859Z</time>
      </trkpt>
      <trkpt lat="48.83044" lon="2.39987">
        <ele>110.1</ele>
        <time>2015-04-27T20:48:18.873Z</time>
      </trkpt>
      <trkpt lat="48.83048" lon="2.3998">
        <ele>110.2</ele>
        <time>2015-04-27T20:48:19.893Z</time>
      </trkpt>
      <trkpt lat="48.83051" lon="2.39973">
        <ele>110.1</ele>
        <time>2015-04-27T20:48:20.900Z</time>
      </trkpt>
      <trkpt lat="48.83054" lon="2.39967">
        <ele>109.8</ele>
        <time>2015-04-27T20:48:21.921Z</time>
      </trkpt>
      <trkpt lat="48.83057" lon="2.39961">
        <ele>109.5</ele>
        <time>2015-04-27T20:48:22.922Z</time>
      </trkpt>
      <trkpt lat="48.83061" lon="2.39956">
        <ele>109.3</ele>
        <time>2015-04-27T20:48:23.958Z</time>
      </trkpt>
      <trkpt lat="48.83065" lon="2.39951">
        <ele>109.1</ele>
        <time>2015-04-27T20:48:24.874Z</time>
      </trkpt>
      <trkpt lat="48.83069" lon="2.39947">
        <ele>108.9</ele>
        <time>2015-04-27T20:48:25.897Z</time>
      </trkpt>
      <trkpt lat="48.83073" lon="2.39942">
        <ele>108.9</ele>
        <time>2015-04-27T20:48:26.896Z</time>
      </trkpt>
      <trkpt lat="48.83077" lon="2.39937">
        <ele>108.7</ele>
        <time>2015-04-27T20:48:27.906Z</time>
      </trkpt>
      <trkpt lat="48.83082" lon="2.39931">
        <ele>108.5</ele>
        <time>2015-04-27T20:48:28.922Z</time>
      </trkpt>
      <trkpt lat="48.83086" lon="2.39923">
        <ele>108.4</ele>
        <time>2015-04-27T20:48:29.837Z</time>
      </trkpt>
      <trkpt lat="48.83091" lon="2.39918">
        <ele>108</ele>
        <time>2015-04-27T20:48:30.844Z</time>
      </trkpt>
      <trkpt lat="48.83095" lon="2.3991">
        <ele>107.9</ele>
        <time>2015-04-27T20:48:31.858Z</time>
      </trkpt>
      <trkpt lat="48.831" lon="2.39904">
        <ele>107.9</ele>
        <time>2015-04-27T20:48:32.865Z</time>
      </trkpt>
      <trkpt lat="48.83104" lon="2.39896">
        <ele>107.9</ele>
        <time>2015-04-27T20:48:33.888Z</time>
      </trkpt>
      <trkpt lat="48.83109" lon="2.39889">
        <ele>107.8</ele>
        <time>2015-04-27T20:48:34.902Z</time>
      </trkpt>
      <trkpt lat="48.83113" lon="2.39882">
        <ele>107.6</ele>
        <time>2015-04-27T20:48:35.816Z</time>
      </trkpt>
      <trkpt lat="48.83117" lon="2.39875">
        <ele>107.6</ele>
        <time>2015-04-27T20:48:36.848Z</time>
      </trkpt>
      <trkpt lat="48.83121" lon="2.39868">
        <ele>107.6</ele>
        <time>2015-04-27T20:48:37.868Z</time>
      </trkpt>
      <trkpt lat="48.83124" lon="2.3986">
        <ele>107.5</ele>
        <time>2015-04-27T20:48:38.882Z</time>
      </trkpt>
      <trkpt lat="48.83129" lon="2.39853">
        <ele>107.1</ele>
        <time>2015-04-27T20:48:39.899Z</time>
      </trkpt>
      <trkpt lat="48.83133" lon="2.39846">
        <ele>106.8</ele>
        <time>2015-04-27T20:48:40.910Z</time>
      </trkpt>
      <trkpt lat="48.83137" lon="2.39839">
        <ele>106.6</ele>
        <time>2015-04-27T20:48:41.920Z</time>
      </trkpt>
      <trkpt lat="48.83141" lon="2.39833">
        <ele>106.4</ele>
        <time>2015-04-27T20:48:42.918Z</time>
      </trkpt>
      <trkpt lat="48.83145" lon="2.39827">
        <ele>106</ele>
        <time>2015-04-27T20:48:43.837Z</time>
      </trkpt>
      <trkpt lat="48.83148" lon="2.3982">
        <ele>105.8</ele>
        <time>2015-04-27T20:48:44.840Z</time>
      </trkpt>
      <trkpt lat="48.83152" lon="2.39814">
        <ele>105.6</ele>
        <time>2015-04-27T20:48:45.892Z</time>
      </trkpt>
      <trkpt lat="48.83155" lon="2.39809">
        <ele>105.6</ele>
        <time>2015-04-27T20:48:46.897Z</time>
      </trkpt>
      <trkpt lat="48.83161" lon="2.39803">
        <ele>105.3</ele>
        <time>2015-04-27T20:48:48.919Z</time>
      </trkpt>
      <trkpt lat="48.83164" lon="2.39801">
        <ele>105</ele>
        <time>2015-04-27T20:48:49.988Z</time>
      </trkpt>
      <trkpt lat="48.8317" lon="2.39795">
        <ele>104.6</ele>
        <time>2015-04-27T20:48:51.904Z</time>
      </trkpt>
      <trkpt lat="48.83173" lon="2.39793">
        <ele>104.3</ele>
        <time>2015-04-27T20:48:52.913Z</time>
      </trkpt>
      <trkpt lat="48.83179" lon="2.39786">
        <ele>103.9</ele>
        <time>2015-04-27T20:48:55.854Z</time>
      </trkpt>
      <trkpt lat="48.83182" lon="2.39784">
        <ele>104</ele>
        <time>2015-04-27T20:48:56.901Z</time>
      </trkpt>
      <trkpt lat="48.8319" lon="2.39778">
        <ele>104.3</ele>
        <time>2015-04-27T20:49:10.906Z</time>
      </trkpt>
      <trkpt lat="48.8319" lon="2.39774">
        <ele>104.2</ele>
        <time>2015-04-27T20:49:11.937Z</time>
      </trkpt>
      <trkpt lat="48.83193" lon="2.39766">
        <ele>104.2</ele>
        <time>2015-04-27T20:49:13.863Z</time>
      </trkpt>
      <trkpt lat="48.83194" lon="2.39761">
        <ele>104.2</ele>
        <time>2015-04-27T20:49:14.871Z</time>
      </trkpt>
      <trkpt lat="48.83197" lon="2.39751">
        <ele>104.1</ele>
        <time>2015-04-27T20:49:16.891Z</time>
      </trkpt>
      <trkpt lat="48.83199" lon="2.39746">
        <ele>104</ele>
        <time>2015-04-27T20:49:17.925Z</time>
      </trkpt>
      <trkpt lat="48.83203" lon="2.39737">
        <ele>104.3</ele>
        <time>2015-04-27T20:49:19.842Z</time>
      </trkpt>
      <trkpt lat="48.83206" lon="2.39732">
        <ele>104.3</ele>
        <time>2015-04-27T20:49:20.877Z</time>
      </trkpt>
      <trkpt lat="48.83211" lon="2.39721">
        <ele>104.7</ele>
        <time>2015-04-27T20:49:22.936Z</time>
      </trkpt>
      <trkpt lat="48.83213" lon="2.39717">
        <ele>104.3</ele>
        <time>2015-04-27T20:49:23.872Z</time>
      </trkpt>
      <trkpt lat="48.8322" lon="2.39709">
        <ele>104</ele>
        <time>2015-04-27T20:49:25.916Z</time>
      </trkpt>
      <trkpt lat="48.83223" lon="2.39703">
        <ele>104.3</ele>
        <time>2015-04-27T20:49:26.825Z</time>
      </trkpt>
      <trkpt lat="48.83227" lon="2.39698">
        <ele>104.2</ele>
        <time>2015-04-27T20:49:27.932Z</time>
      </trkpt>
      <trkpt lat="48.8323" lon="2.39693">
        <ele>104.3</ele>
        <time>2015-04-27T20:49:28.842Z</time>
      </trkpt>
      <trkpt lat="48.83233" lon="2.39688">
        <ele>104.2</ele>
        <time>2015-04-27T20:49:29.851Z</time>
      </trkpt>
      <trkpt lat="48.83237" lon="2.39683">
        <ele>104.4</ele>
        <time>2015-04-27T20:49:30.877Z</time>
      </trkpt>
      <trkpt lat="48.8324" lon="2.39678">
        <ele>104.4</ele>
        <time>2015-04-27T20:49:31.895Z</time>
      </trkpt>
      <trkpt lat="48.83243" lon="2.39671">
        <ele>104.7</ele>
        <time>2015-04-27T20:49:32.910Z</time>
      </trkpt>
      <trkpt lat="48.83245" lon="2.39665">
        <ele>105.1</ele>
        <time>2015-04-27T20:49:33.930Z</time>
      </trkpt>
      <trkpt lat="48.83249" lon="2.3966">
        <ele>105.1</ele>
        <time>2015-04-27T20:49:34.827Z</time>
      </trkpt>
      <trkpt lat="48.83253" lon="2.39655">
        <ele>105.3</ele>
        <time>2015-04-27T20:49:35.830Z</time>
      </trkpt>
      <trkpt lat="48.83258" lon="2.39651">
        <ele>105.3</ele>
        <time>2015-04-27T20:49:36.842Z</time>
      </trkpt>
      <trkpt lat="48.83262" lon="2.39647">
        <ele>105.1</ele>
        <time>2015-04-27T20:49:37.854Z</time>
      </trkpt>
      <trkpt lat="48.83266" lon="2.39642">
        <ele>105</ele>
        <time>2015-04-27T20:49:38.862Z</time>
      </trkpt>
      <trkpt lat="48.83269" lon="2.39637">
        <ele>104.7</ele>
        <time>2015-04-27T20:49:39.889Z</time>
      </trkpt>
      <trkpt lat="48.83273" lon="2.39633">
        <ele>104.4</ele>
        <time>2015-04-27T20:49:40.896Z</time>
      </trkpt>
      <trkpt lat="48.83278" lon="2.39628">
        <ele>104.3</ele>
        <time>2015-04-27T20:49:41.909Z</time>
      </trkpt>
      <trkpt lat="48.83281" lon="2.39622">
        <ele>104.3</ele>
        <time>2015-04-27T20:49:42.848Z</time>
      </trkpt>
      <trkpt lat="48.83285" lon="2.39617">
        <ele>104.1</ele>
        <time>2015-04-27T20:49:43.857Z</time>
      </trkpt>
      <trkpt lat="48.83289" lon="2.39612">
        <ele>104.3</ele>
        <time>2015-04-27T20:49:44.877Z</time>
      </trkpt>
      <trkpt lat="48.83293" lon="2.39606">
        <ele>104.4</ele>
        <time>2015-04-27T20:49:45.902Z</time>
      </trkpt>
      <trkpt lat="48.83296" lon="2.396">
        <ele>104.4</ele>
        <time>2015-04-27T20:49:46.926Z</time>
      </trkpt>
      <trkpt lat="48.833" lon="2.39595">
        <ele>104.5</ele>
        <time>2015-04-27T20:49:47.837Z</time>
      </trkpt>
      <trkpt lat="48.83303" lon="2.39589">
        <ele>104.8</ele>
        <time>2015-04-27T20:49:48.843Z</time>
      </trkpt>
      <trkpt lat="48.83306" lon="2.39584">
        <ele>104.8</ele>
        <time>2015-04-27T20:49:49.857Z</time>
      </trkpt>
      <trkpt lat="48.8331" lon="2.39578">
        <ele>105.1</ele>
        <time>2015-04-27T20:49:50.903Z</time>
      </trkpt>
      <trkpt lat="48.83314" lon="2.39573">
        <ele>105.2</ele>
        <time>2015-04-27T20:49:51.921Z</time>
      </trkpt>
      <trkpt lat="48.83317" lon="2.39567">
        <ele>105.4</ele>
        <time>2015-04-27T20:49:52.931Z</time>
      </trkpt>
      <trkpt lat="48.8332" lon="2.39561">
        <ele>105.4</ele>
        <time>2015-04-27T20:49:53.849Z</time>
      </trkpt>
      <trkpt lat="48.83324" lon="2.39555">
        <ele>105.3</ele>
        <time>2015-04-27T20:49:54.841Z</time>
      </trkpt>
      <trkpt lat="48.83328" lon="2.39549">
        <ele>105.2</ele>
        <time>2015-04-27T20:49:55.856Z</time>
      </trkpt>
      <trkpt lat="48.83331" lon="2.39541">
        <ele>104.8</ele>
        <time>2015-04-27T20:49:56.862Z</time>
      </trkpt>
      <trkpt lat="48.83334" lon="2.39535">
        <ele>104.8</ele>
        <time>2015-04-27T20:49:57.887Z</time>
      </trkpt>
      <trkpt lat="48.83337" lon="2.39529">
        <ele>104.8</ele>
        <time>2015-04-27T20:49:58.895Z</time>
      </trkpt>
      <trkpt lat="48.83341" lon="2.39523">
        <ele>105.1</ele>
        <time>2015-04-27T20:49:59.906Z</time>
      </trkpt>
      <trkpt lat="48.83346" lon="2.39517">
        <ele>105.4</ele>
        <time>2015-04-27T20:50:00.915Z</time>
      </trkpt>
      <trkpt lat="48.83349" lon="2.3951">
        <ele>105.3</ele>
        <time>2015-04-27T20:50:01.923Z</time>
      </trkpt>
      <trkpt lat="48.83352" lon="2.39503">
        <ele>105.5</ele>
        <time>2015-04-27T20:50:02.859Z</time>
      </trkpt>
      <trkpt lat="48.83356" lon="2.39496">
        <ele>105.8</ele>
        <time>2015-04-27T20:50:03.876Z</time>
      </trkpt>
      <trkpt lat="48.8336" lon="2.3949">
        <ele>106.1</ele>
        <time>2015-04-27T20:50:04.894Z</time>
      </trkpt>
      <trkpt lat="48.83363" lon="2.39483">
        <ele>106.3</ele>
        <time>2015-04-27T20:50:05.915Z</time>
      </trkpt>
      <trkpt lat="48.83367" lon="2.39476">
        <ele>106.2</ele>
        <time>2015-04-27T20:50:06.923Z</time>
      </trkpt>
      <trkpt lat="48.83371" lon="2.3947">
        <ele>106.1</ele>
        <time>2015-04-27T20:50:07.839Z</time>
      </trkpt>
      <trkpt lat="48.83375" lon="2.39465">
        <ele>106</ele>
        <time>2015-04-27T20:50:08.854Z</time>
      </trkpt>
      <trkpt lat="48.8338" lon="2.39461">
        <ele>106.3</ele>
        <time>2015-04-27T20:50:09.875Z</time>
      </trkpt>
      <trkpt lat="48.83383" lon="2.39455">
        <ele>106.5</ele>
        <time>2015-04-27T20:50:10.893Z</time>
      </trkpt>
      <trkpt lat="48.83387" lon="2.3945">
        <ele>106.5</ele>
        <time>2015-04-27T20:50:11.910Z</time>
      </trkpt>
      <trkpt lat="48.83391" lon="2.39445">
        <ele>106.4</ele>
        <time>2015-04-27T20:50:12.920Z</time>
      </trkpt>
      <trkpt lat="48.83394" lon="2.3944">
        <ele>106.4</ele>
        <time>2015-04-27T20:50:13.838Z</time>
      </trkpt>
      <trkpt lat="48.83398" lon="2.39434">
        <ele>106.3</ele>
        <time>2015-04-27T20:50:14.843Z</time>
      </trkpt>
      <trkpt lat="48.83402" lon="2.39428">
        <ele>106.1</ele>
        <time>2015-04-27T20:50:15.904Z</time>
      </trkpt>
      <trkpt lat="48.83406" lon="2.39423">
        <ele>105.9</ele>
        <time>2015-04-27T20:50:16.913Z</time>
      </trkpt>
      <trkpt lat="48.83409" lon="2.39418">
        <ele>106</ele>
        <time>2015-04-27T20:50:18.001Z</time>
      </trkpt>
      <trkpt lat="48.83413" lon="2.39413">
        <ele>106</ele>
        <time>2015-04-27T20:50:18.842Z</time>
      </trkpt>
      <trkpt lat="48.83417" lon="2.39407">
        <ele>106.1</ele>
        <time>2015-04-27T20:50:19.876Z</time>
      </trkpt>
      <trkpt lat="48.83421" lon="2.39403">
        <ele>106.2</ele>
        <time>2015-04-27T20:50:20.885Z</time>
      </trkpt>
      <trkpt lat="48.83426" lon="2.394">
        <ele>106.4</ele>
        <time>2015-04-27T20:50:22.180Z</time>
      </trkpt>
      <trkpt lat="48.8343" lon="2.39397">
        <ele>106.5</ele>
        <time>2015-04-27T20:50:22.916Z</time>
      </trkpt>
      <trkpt lat="48.83435" lon="2.39393">
        <ele>106.7</ele>
        <time>2015-04-27T20:50:23.927Z</time>
      </trkpt>
      <trkpt lat="48.8344" lon="2.39388">
        <ele>106.8</ele>
        <time>2015-04-27T20:50:24.846Z</time>
      </trkpt>
      <trkpt lat="48.83445" lon="2.39385">
        <ele>107.1</ele>
        <time>2015-04-27T20:50:25.846Z</time>
      </trkpt>
      <trkpt lat="48.8345" lon="2.3938">
        <ele>107.2</ele>
        <time>2015-04-27T20:50:26.852Z</time>
      </trkpt>
      <trkpt lat="48.83454" lon="2.39376">
        <ele>107.1</ele>
        <time>2015-04-27T20:50:27.879Z</time>
      </trkpt>
      <trkpt lat="48.83459" lon="2.39372">
        <ele>107</ele>
        <time>2015-04-27T20:50:28.887Z</time>
      </trkpt>
      <trkpt lat="48.83465" lon="2.39368">
        <ele>107</ele>
        <time>2015-04-27T20:50:29.902Z</time>
      </trkpt>
      <trkpt lat="48.8347" lon="2.39364">
        <ele>107.3</ele>
        <time>2015-04-27T20:50:30.841Z</time>
      </trkpt>
      <trkpt lat="48.83475" lon="2.39359">
        <ele>107.3</ele>
        <time>2015-04-27T20:50:31.889Z</time>
      </trkpt>
      <trkpt lat="48.8348" lon="2.39354">
        <ele>107.1</ele>
        <time>2015-04-27T20:50:32.902Z</time>
      </trkpt>
      <trkpt lat="48.83485" lon="2.39347">
        <ele>107.2</ele>
        <time>2015-04-27T20:50:33.905Z</time>
      </trkpt>
      <trkpt lat="48.8349" lon="2.39341">
        <ele>107.3</ele>
        <time>2015-04-27T20:50:34.911Z</time>
      </trkpt>
      <trkpt lat="48.83495" lon="2.39333">
        <ele>107.5</ele>
        <time>2015-04-27T20:50:35.812Z</time>
      </trkpt>
      <trkpt lat="48.835" lon="2.39328">
        <ele>107.3</ele>
        <time>2015-04-27T20:50:36.838Z</time>
      </trkpt>
      <trkpt lat="48.83504" lon="2.39322">
        <ele>107.1</ele>
        <time>2015-04-27T20:50:37.853Z</time>
      </trkpt>
      <trkpt lat="48.83509" lon="2.39317">
        <ele>106.7</ele>
        <time>2015-04-27T20:50:38.867Z</time>
      </trkpt>
      <trkpt lat="48.83514" lon="2.39311">
        <ele>106.4</ele>
        <time>2015-04-27T20:50:39.889Z</time>
      </trkpt>
      <trkpt lat="48.83518" lon="2.39304">
        <ele>106.4</ele>
        <time>2015-04-27T20:50:40.897Z</time>
      </trkpt>
      <trkpt lat="48.83523" lon="2.39298">
        <ele>106.3</ele>
        <time>2015-04-27T20:50:41.905Z</time>
      </trkpt>
      <trkpt lat="48.83528" lon="2.39291">
        <ele>106.2</ele>
        <time>2015-04-27T20:50:42.912Z</time>
      </trkpt>
      <trkpt lat="48.83533" lon="2.39284">
        <ele>106.6</ele>
        <time>2015-04-27T20:50:43.917Z</time>
      </trkpt>
      <trkpt lat="48.83537" lon="2.39277">
        <ele>106.5</ele>
        <time>2015-04-27T20:50:44.926Z</time>
      </trkpt>
      <trkpt lat="48.83542" lon="2.39269">
        <ele>106.4</ele>
        <time>2015-04-27T20:50:45.930Z</time>
      </trkpt>
      <trkpt lat="48.83546" lon="2.39261">
        <ele>105.7</ele>
        <time>2015-04-27T20:50:46.842Z</time>
      </trkpt>
      <trkpt lat="48.83549" lon="2.39252">
        <ele>104.9</ele>
        <time>2015-04-27T20:50:47.840Z</time>
      </trkpt>
      <trkpt lat="48.83554" lon="2.39248">
        <ele>104.4</ele>
        <time>2015-04-27T20:50:48.847Z</time>
      </trkpt>
      <trkpt lat="48.83561" lon="2.39246">
        <ele>103.9</ele>
        <time>2015-04-27T20:50:49.858Z</time>
      </trkpt>
      <trkpt lat="48.83567" lon="2.39244">
        <ele>103.3</ele>
        <time>2015-04-27T20:50:50.876Z</time>
      </trkpt>
      <trkpt lat="48.83574" lon="2.3924">
        <ele>103</ele>
        <time>2015-04-27T20:50:51.884Z</time>
      </trkpt>
      <trkpt lat="48.8358" lon="2.39236">
        <ele>102.5</ele>
        <time>2015-04-27T20:50:52.895Z</time>
      </trkpt>
      <trkpt lat="48.83586" lon="2.39232">
        <ele>102.2</ele>
        <time>2015-04-27T20:50:53.909Z</time>
      </trkpt>
      <trkpt lat="48.83592" lon="2.39228">
        <ele>101.9</ele>
        <time>2015-04-27T20:50:54.914Z</time>
      </trkpt>
      <trkpt lat="48.83599" lon="2.39226">
        <ele>101.8</ele>
        <time>2015-04-27T20:50:55.935Z</time>
      </trkpt>
      <trkpt lat="48.83605" lon="2.39222">
        <ele>101.7</ele>
        <time>2015-04-27T20:50:56.834Z</time>
      </trkpt>
      <trkpt lat="48.83612" lon="2.39219">
        <ele>101.8</ele>
        <time>2015-04-27T20:50:57.872Z</time>
      </trkpt>
      <trkpt lat="48.83618" lon="2.39215">
        <ele>101.6</ele>
        <time>2015-04-27T20:50:58.887Z</time>
      </trkpt>
      <trkpt lat="48.83624" lon="2.3921">
        <ele>101</ele>
        <time>2015-04-27T20:50:59.927Z</time>
      </trkpt>
      <trkpt lat="48.83629" lon="2.39205">
        <ele>100.7</ele>
        <time>2015-04-27T20:51:00.938Z</time>
      </trkpt>
      <trkpt lat="48.83634" lon="2.39199">
        <ele>100.1</ele>
        <time>2015-04-27T20:51:01.840Z</time>
      </trkpt>
      <trkpt lat="48.8364" lon="2.39193">
        <ele>99.5</ele>
        <time>2015-04-27T20:51:02.839Z</time>
      </trkpt>
      <trkpt lat="48.83647" lon="2.39188">
        <ele>99.1</ele>
        <time>2015-04-27T20:51:03.873Z</time>
      </trkpt>
      <trkpt lat="48.83654" lon="2.39185">
        <ele>99.1</ele>
        <time>2015-04-27T20:51:04.882Z</time>
      </trkpt>
      <trkpt lat="48.8366" lon="2.3918">
        <ele>98.5</ele>
        <time>2015-04-27T20:51:05.892Z</time>
      </trkpt>
      <trkpt lat="48.83665" lon="2.39176">
        <ele>98.3</ele>
        <time>2015-04-27T20:51:06.902Z</time>
      </trkpt>
      <trkpt lat="48.83672" lon="2.39173">
        <ele>98.2</ele>
        <time>2015-04-27T20:51:07.907Z</time>
      </trkpt>
      <trkpt lat="48.83679" lon="2.3917">
        <ele>97.1</ele>
        <time>2015-04-27T20:51:08.913Z</time>
      </trkpt>
      <trkpt lat="48.83686" lon="2.39167">
        <ele>96.4</ele>
        <time>2015-04-27T20:51:09.921Z</time>
      </trkpt>
      <trkpt lat="48.83693" lon="2.39163">
        <ele>96.2</ele>
        <time>2015-04-27T20:51:10.926Z</time>
      </trkpt>
      <trkpt lat="48.837" lon="2.39161">
        <ele>96</ele>
        <time>2015-04-27T20:51:11.839Z</time>
      </trkpt>
      <trkpt lat="48.83706" lon="2.39156">
        <ele>95.5</ele>
        <time>2015-04-27T20:51:12.848Z</time>
      </trkpt>
      <trkpt lat="48.83711" lon="2.39149">
        <ele>94.7</ele>
        <time>2015-04-27T20:51:13.862Z</time>
      </trkpt>
      <trkpt lat="48.83716" lon="2.39143">
        <ele>94</ele>
        <time>2015-04-27T20:51:14.892Z</time>
      </trkpt>
      <trkpt lat="48.83721" lon="2.39137">
        <ele>93.5</ele>
        <time>2015-04-27T20:51:15.903Z</time>
      </trkpt>
      <trkpt lat="48.83725" lon="2.39132">
        <ele>93</ele>
        <time>2015-04-27T20:51:16.923Z</time>
      </trkpt>
      <trkpt lat="48.83729" lon="2.39127">
        <ele>92.6</ele>
        <time>2015-04-27T20:51:17.837Z</time>
      </trkpt>
      <trkpt lat="48.83734" lon="2.39122">
        <ele>92.4</ele>
        <time>2015-04-27T20:51:18.847Z</time>
      </trkpt>
      <trkpt lat="48.83738" lon="2.39114">
        <ele>92.7</ele>
        <time>2015-04-27T20:51:19.851Z</time>
      </trkpt>
      <trkpt lat="48.83742" lon="2.39107">
        <ele>93</ele>
        <time>2015-04-27T20:51:20.860Z</time>
      </trkpt>
      <trkpt lat="48.83746" lon="2.39102">
        <ele>93</ele>
        <time>2015-04-27T20:51:21.894Z</time>
      </trkpt>
      <trkpt lat="48.83751" lon="2.39097">
        <ele>92.7</ele>
        <time>2015-04-27T20:51:22.910Z</time>
      </trkpt>
      <trkpt lat="48.83755" lon="2.39092">
        <ele>92.7</ele>
        <time>2015-04-27T20:51:23.921Z</time>
      </trkpt>
      <trkpt lat="48.83759" lon="2.39087">
        <ele>92.5</ele>
        <time>2015-04-27T20:51:24.841Z</time>
      </trkpt>
      <trkpt lat="48.83764" lon="2.3908">
        <ele>92.6</ele>
        <time>2015-04-27T20:51:25.842Z</time>
      </trkpt>
      <trkpt lat="48.83769" lon="2.39075">
        <ele>92.5</ele>
        <time>2015-04-27T20:51:26.849Z</time>
      </trkpt>
      <trkpt lat="48.83774" lon="2.3907">
        <ele>92.7</ele>
        <time>2015-04-27T20:51:27.879Z</time>
      </trkpt>
      <trkpt lat="48.83778" lon="2.39065">
        <ele>92.8</ele>
        <time>2015-04-27T20:51:28.883Z</time>
      </trkpt>
      <trkpt lat="48.83783" lon="2.39061">
        <ele>92.8</ele>
        <time>2015-04-27T20:51:29.897Z</time>
      </trkpt>
      <trkpt lat="48.83788" lon="2.39056">
        <ele>92.7</ele>
        <time>2015-04-27T20:51:30.901Z</time>
      </trkpt>
      <trkpt lat="48.83794" lon="2.39052">
        <ele>92.7</ele>
        <time>2015-04-27T20:51:31.912Z</time>
      </trkpt>
      <trkpt lat="48.83798" lon="2.39048">
        <ele>92.9</ele>
        <time>2015-04-27T20:51:32.935Z</time>
      </trkpt>
      <trkpt lat="48.83802" lon="2.39042">
        <ele>92.9</ele>
        <time>2015-04-27T20:51:33.951Z</time>
      </trkpt>
      <trkpt lat="48.83806" lon="2.39036">
        <ele>92.7</ele>
        <time>2015-04-27T20:51:34.835Z</time>
      </trkpt>
      <trkpt lat="48.83809" lon="2.39029">
        <ele>92.6</ele>
        <time>2015-04-27T20:51:35.848Z</time>
      </trkpt>
      <trkpt lat="48.83813" lon="2.39021">
        <ele>92.6</ele>
        <time>2015-04-27T20:51:36.873Z</time>
      </trkpt>
      <trkpt lat="48.83816" lon="2.39013">
        <ele>92.4</ele>
        <time>2015-04-27T20:51:37.896Z</time>
      </trkpt>
      <trkpt lat="48.8382" lon="2.39005">
        <ele>92.1</ele>
        <time>2015-04-27T20:51:38.900Z</time>
      </trkpt>
      <trkpt lat="48.83824" lon="2.38998">
        <ele>91.8</ele>
        <time>2015-04-27T20:51:39.905Z</time>
      </trkpt>
      <trkpt lat="48.83829" lon="2.38991">
        <ele>91.8</ele>
        <time>2015-04-27T20:51:40.909Z</time>
      </trkpt>
      <trkpt lat="48.83833" lon="2.38985">
        <ele>92</ele>
        <time>2015-04-27T20:51:41.916Z</time>
      </trkpt>
      <trkpt lat="48.83838" lon="2.38981">
        <ele>91.9</ele>
        <time>2015-04-27T20:51:42.837Z</time>
      </trkpt>
      <trkpt lat="48.83843" lon="2.38977">
        <ele>91.9</ele>
        <time>2015-04-27T20:51:43.837Z</time>
      </trkpt>
      <trkpt lat="48.83847" lon="2.38973">
        <ele>91.9</ele>
        <time>2015-04-27T20:51:44.844Z</time>
      </trkpt>
      <trkpt lat="48.83852" lon="2.38969">
        <ele>91.9</ele>
        <time>2015-04-27T20:51:45.878Z</time>
      </trkpt>
      <trkpt lat="48.83856" lon="2.38964">
        <ele>91.9</ele>
        <time>2015-04-27T20:51:46.878Z</time>
      </trkpt>
      <trkpt lat="48.83859" lon="2.38958">
        <ele>92</ele>
        <time>2015-04-27T20:51:47.892Z</time>
      </trkpt>
      <trkpt lat="48.83863" lon="2.38953">
        <ele>92.1</ele>
        <time>2015-04-27T20:51:48.904Z</time>
      </trkpt>
      <trkpt lat="48.83869" lon="2.38945">
        <ele>92.6</ele>
        <time>2015-04-27T20:51:50.818Z</time>
      </trkpt>
      <trkpt lat="48.83872" lon="2.38943">
        <ele>92.6</ele>
        <time>2015-04-27T20:51:51.958Z</time>
      </trkpt>
      <trkpt lat="48.83879" lon="2.38937">
        <ele>92.6</ele>
        <time>2015-04-27T20:51:54.866Z</time>
      </trkpt>
      <trkpt lat="48.83881" lon="2.38936">
        <ele>92.6</ele>
        <time>2015-04-27T20:51:55.875Z</time>
      </trkpt>
      <trkpt lat="48.83889" lon="2.38933">
        <ele>94.5</ele>
        <time>2015-04-27T20:51:58.820Z</time>
      </trkpt>
      <trkpt lat="48.83892" lon="2.38932">
        <ele>95</ele>
        <time>2015-04-27T20:51:59.831Z</time>
      </trkpt>
      <trkpt lat="48.83897" lon="2.38933">
        <ele>96.9</ele>
        <time>2015-04-27T20:53:33.902Z</time>
      </trkpt>
      <trkpt lat="48.83907" lon="2.38928">
        <ele>108.5</ele>
        <time>2015-04-27T20:53:34.956Z</time>
      </trkpt>
      <trkpt lat="48.8391" lon="2.38918">
        <ele>107.6</ele>
        <time>2015-04-27T20:53:38.924Z</time>
      </trkpt>
      <trkpt lat="48.8391" lon="2.38915">
        <ele>107.7</ele>
        <time>2015-04-27T20:53:39.934Z</time>
      </trkpt>
      <trkpt lat="48.8391" lon="2.38902">
        <ele>107.5</ele>
        <time>2015-04-27T20:53:42.843Z</time>
      </trkpt>
      <trkpt lat="48.8391" lon="2.38898">
        <ele>107.2</ele>
        <time>2015-04-27T20:53:43.880Z</time>
      </trkpt>
      <trkpt lat="48.83907" lon="2.38886">
        <ele>105.9</ele>
        <time>2015-04-27T20:53:45.922Z</time>
      </trkpt>
      <trkpt lat="48.83904" lon="2.38878">
        <ele>105.4</ele>
        <time>2015-04-27T20:53:46.839Z</time>
      </trkpt>
      <trkpt lat="48.83903" lon="2.3887">
        <ele>105.3</ele>
        <time>2015-04-27T20:53:47.857Z</time>
      </trkpt>
      <trkpt lat="48.83902" lon="2.38862">
        <ele>105.5</ele>
        <time>2015-04-27T20:53:48.864Z</time>
      </trkpt>
      <trkpt lat="48.83901" lon="2.38854">
        <ele>105.8</ele>
        <time>2015-04-27T20:53:49.901Z</time>
      </trkpt>
      <trkpt lat="48.839" lon="2.38848">
        <ele>106</ele>
        <time>2015-04-27T20:53:50.906Z</time>
      </trkpt>
      <trkpt lat="48.83899" lon="2.38841">
        <ele>105.5</ele>
        <time>2015-04-27T20:53:51.927Z</time>
      </trkpt>
      <trkpt lat="48.83899" lon="2.38833">
        <ele>105.3</ele>
        <time>2015-04-27T20:53:52.808Z</time>
      </trkpt>
      <trkpt lat="48.83898" lon="2.38826">
        <ele>104.9</ele>
        <time>2015-04-27T20:53:53.841Z</time>
      </trkpt>
      <trkpt lat="48.83897" lon="2.38819">
        <ele>104.3</ele>
        <time>2015-04-27T20:53:54.850Z</time>
      </trkpt>
      <trkpt lat="48.83899" lon="2.38806">
        <ele>103.3</ele>
        <time>2015-04-27T20:53:56.885Z</time>
      </trkpt>
      <trkpt lat="48.839" lon="2.38799">
        <ele>102.5</ele>
        <time>2015-04-27T20:53:57.896Z</time>
      </trkpt>
      <trkpt lat="48.83901" lon="2.38791">
        <ele>102.4</ele>
        <time>2015-04-27T20:53:58.920Z</time>
      </trkpt>
      <trkpt lat="48.83902" lon="2.38784">
        <ele>102.1</ele>
        <time>2015-04-27T20:53:59.831Z</time>
      </trkpt>
      <trkpt lat="48.83903" lon="2.38776">
        <ele>101.6</ele>
        <time>2015-04-27T20:54:00.806Z</time>
      </trkpt>
      <trkpt lat="48.83904" lon="2.38768">
        <ele>101.4</ele>
        <time>2015-04-27T20:54:01.825Z</time>
      </trkpt>
      <trkpt lat="48.83904" lon="2.38759">
        <ele>101.1</ele>
        <time>2015-04-27T20:54:02.838Z</time>
      </trkpt>
      <trkpt lat="48.83905" lon="2.3875">
        <ele>101</ele>
        <time>2015-04-27T20:54:03.871Z</time>
      </trkpt>
      <trkpt lat="48.83905" lon="2.38741">
        <ele>100.8</ele>
        <time>2015-04-27T20:54:04.896Z</time>
      </trkpt>
      <trkpt lat="48.83906" lon="2.38732">
        <ele>100.6</ele>
        <time>2015-04-27T20:54:05.911Z</time>
      </trkpt>
      <trkpt lat="48.83906" lon="2.38722">
        <ele>100.6</ele>
        <time>2015-04-27T20:54:06.835Z</time>
      </trkpt>
      <trkpt lat="48.83908" lon="2.38713">
        <ele>100.3</ele>
        <time>2015-04-27T20:54:07.858Z</time>
      </trkpt>
      <trkpt lat="48.8391" lon="2.38705">
        <ele>100.1</ele>
        <time>2015-04-27T20:54:08.853Z</time>
      </trkpt>
      <trkpt lat="48.83913" lon="2.38697">
        <ele>100</ele>
        <time>2015-04-27T20:54:09.872Z</time>
      </trkpt>
      <trkpt lat="48.83917" lon="2.3869">
        <ele>99.3</ele>
        <time>2015-04-27T20:54:10.892Z</time>
      </trkpt>
      <trkpt lat="48.8392" lon="2.38684">
        <ele>99.4</ele>
        <time>2015-04-27T20:54:11.896Z</time>
      </trkpt>
      <trkpt lat="48.83924" lon="2.38661">
        <ele>99.4</ele>
        <time>2015-04-27T20:54:15.855Z</time>
      </trkpt>
      <trkpt lat="48.83921" lon="2.38655">
        <ele>99</ele>
        <time>2015-04-27T20:54:16.910Z</time>
      </trkpt>
      <trkpt lat="48.83915" lon="2.38648">
        <ele>98.5</ele>
        <time>2015-04-27T20:54:17.923Z</time>
      </trkpt>
      <trkpt lat="48.83903" lon="2.38624">
        <ele>97.6</ele>
        <time>2015-04-27T20:54:20.962Z</time>
      </trkpt>
      <trkpt lat="48.83905" lon="2.38613">
        <ele>95.9</ele>
        <time>2015-04-27T20:54:22.855Z</time>
      </trkpt>
      <trkpt lat="48.83908" lon="2.38607">
        <ele>95.1</ele>
        <time>2015-04-27T20:54:23.934Z</time>
      </trkpt>
      <trkpt lat="48.83907" lon="2.38597">
        <ele>94.2</ele>
        <time>2015-04-27T20:54:24.923Z</time>
      </trkpt>
      <trkpt lat="48.83917" lon="2.38576">
        <ele>92</ele>
        <time>2015-04-27T20:54:26.945Z</time>
      </trkpt>
      <trkpt lat="48.83921" lon="2.38562">
        <ele>91.2</ele>
        <time>2015-04-27T20:54:27.902Z</time>
      </trkpt>
      <trkpt lat="48.83925" lon="2.38549">
        <ele>90.8</ele>
        <time>2015-04-27T20:54:28.914Z</time>
      </trkpt>
      <trkpt lat="48.83928" lon="2.38534">
        <ele>91.2</ele>
        <time>2015-04-27T20:54:29.907Z</time>
      </trkpt>
      <trkpt lat="48.83937" lon="2.38522">
        <ele>94.2</ele>
        <time>2015-04-27T20:54:30.928Z</time>
      </trkpt>
      <trkpt lat="48.83938" lon="2.38509">
        <ele>93.1</ele>
        <time>2015-04-27T20:54:31.831Z</time>
      </trkpt>
      <trkpt lat="48.83941" lon="2.38499">
        <ele>94.4</ele>
        <time>2015-04-27T20:54:32.838Z</time>
      </trkpt>
      <trkpt lat="48.83943" lon="2.3849">
        <ele>93.9</ele>
        <time>2015-04-27T20:54:33.862Z</time>
      </trkpt>
      <trkpt lat="48.83945" lon="2.38482">
        <ele>93.2</ele>
        <time>2015-04-27T20:54:34.870Z</time>
      </trkpt>
      <trkpt lat="48.83946" lon="2.38473">
        <ele>93.2</ele>
        <time>2015-04-27T20:54:35.900Z</time>
      </trkpt>
      <trkpt lat="48.83948" lon="2.38465">
        <ele>91.6</ele>
        <time>2015-04-27T20:54:36.833Z</time>
      </trkpt>
      <trkpt lat="48.83953" lon="2.38459">
        <ele>89.7</ele>
        <time>2015-04-27T20:54:37.852Z</time>
      </trkpt>
      <trkpt lat="48.83956" lon="2.38451">
        <ele>88.2</ele>
        <time>2015-04-27T20:54:38.833Z</time>
      </trkpt>
      <trkpt lat="48.83958" lon="2.38444">
        <ele>87.8</ele>
        <time>2015-04-27T20:54:39.872Z</time>
      </trkpt>
      <trkpt lat="48.83961" lon="2.38435">
        <ele>88.4</ele>
        <time>2015-04-27T20:54:40.864Z</time>
      </trkpt>
      <trkpt lat="48.83963" lon="2.38427">
        <ele>88.9</ele>
        <time>2015-04-27T20:54:41.886Z</time>
      </trkpt>
      <trkpt lat="48.83964" lon="2.38419">
        <ele>88.3</ele>
        <time>2015-04-27T20:54:42.890Z</time>
      </trkpt>
      <trkpt lat="48.83966" lon="2.38412">
        <ele>87.8</ele>
        <time>2015-04-27T20:54:43.907Z</time>
      </trkpt>
      <trkpt lat="48.83968" lon="2.38404">
        <ele>88.2</ele>
        <time>2015-04-27T20:54:44.919Z</time>
      </trkpt>
      <trkpt lat="48.8397" lon="2.38397">
        <ele>88.1</ele>
        <time>2015-04-27T20:54:45.933Z</time>
      </trkpt>
      <trkpt lat="48.83972" lon="2.38389">
        <ele>87.9</ele>
        <time>2015-04-27T20:54:46.829Z</time>
      </trkpt>
      <trkpt lat="48.83986" lon="2.38326">
        <ele>87.3</ele>
        <time>2015-04-27T20:54:54.844Z</time>
      </trkpt>
      <trkpt lat="48.83987" lon="2.38318">
        <ele>87.3</ele>
        <time>2015-04-27T20:54:55.834Z</time>
      </trkpt>
      <trkpt lat="48.83988" lon="2.3831">
        <ele>86.9</ele>
        <time>2015-04-27T20:54:56.857Z</time>
      </trkpt>
      <trkpt lat="48.83988" lon="2.38299">
        <ele>86.2</ele>
        <time>2015-04-27T20:54:57.942Z</time>
      </trkpt>
      <trkpt lat="48.83991" lon="2.38287">
        <ele>85</ele>
        <time>2015-04-27T20:54:58.832Z</time>
      </trkpt>
      <trkpt lat="48.83992" lon="2.38277">
        <ele>85.8</ele>
        <time>2015-04-27T20:54:59.838Z</time>
      </trkpt>
      <trkpt lat="48.83993" lon="2.38267">
        <ele>87.4</ele>
        <time>2015-04-27T20:55:00.858Z</time>
      </trkpt>
      <trkpt lat="48.83994" lon="2.38258">
        <ele>87.8</ele>
        <time>2015-04-27T20:55:01.862Z</time>
      </trkpt>
      <trkpt lat="48.83996" lon="2.3825">
        <ele>88.4</ele>
        <time>2015-04-27T20:55:02.878Z</time>
      </trkpt>
      <trkpt lat="48.83998" lon="2.3824">
        <ele>89.9</ele>
        <time>2015-04-27T20:55:03.893Z</time>
      </trkpt>
      <trkpt lat="48.83999" lon="2.38231">
        <ele>90.2</ele>
        <time>2015-04-27T20:55:04.918Z</time>
      </trkpt>
      <trkpt lat="48.83999" lon="2.38222">
        <ele>90.8</ele>
        <time>2015-04-27T20:55:05.832Z</time>
      </trkpt>
      <trkpt lat="48.84" lon="2.38213">
        <ele>90.5</ele>
        <time>2015-04-27T20:55:06.846Z</time>
      </trkpt>
      <trkpt lat="48.84001" lon="2.38204">
        <ele>90.9</ele>
        <time>2015-04-27T20:55:07.861Z</time>
      </trkpt>
      <trkpt lat="48.84002" lon="2.38197">
        <ele>90.7</ele>
        <time>2015-04-27T20:55:08.872Z</time>
      </trkpt>
      <trkpt lat="48.84003" lon="2.38189">
        <ele>90.4</ele>
        <time>2015-04-27T20:55:09.879Z</time>
      </trkpt>
      <trkpt lat="48.84003" lon="2.38181">
        <ele>90.7</ele>
        <time>2015-04-27T20:55:10.883Z</time>
      </trkpt>
      <trkpt lat="48.84006" lon="2.38174">
        <ele>89.3</ele>
        <time>2015-04-27T20:55:11.896Z</time>
      </trkpt>
      <trkpt lat="48.84007" lon="2.38167">
        <ele>89.3</ele>
        <time>2015-04-27T20:55:12.915Z</time>
      </trkpt>
      <trkpt lat="48.84008" lon="2.3816">
        <ele>88.9</ele>
        <time>2015-04-27T20:55:13.827Z</time>
      </trkpt>
      <trkpt lat="48.84009" lon="2.38153">
        <ele>88.1</ele>
        <time>2015-04-27T20:55:14.844Z</time>
      </trkpt>
      <trkpt lat="48.84011" lon="2.38147">
        <ele>87.6</ele>
        <time>2015-04-27T20:55:15.870Z</time>
      </trkpt>
      <trkpt lat="48.84013" lon="2.38141">
        <ele>86.8</ele>
        <time>2015-04-27T20:55:16.884Z</time>
      </trkpt>
      <trkpt lat="48.84014" lon="2.38133">
        <ele>85.9</ele>
        <time>2015-04-27T20:55:17.895Z</time>
      </trkpt>
      <trkpt lat="48.84014" lon="2.38125">
        <ele>85.7</ele>
        <time>2015-04-27T20:55:18.912Z</time>
      </trkpt>
      <trkpt lat="48.84015" lon="2.38117">
        <ele>86</ele>
        <time>2015-04-27T20:55:19.833Z</time>
      </trkpt>
      <trkpt lat="48.84016" lon="2.38109">
        <ele>87.1</ele>
        <time>2015-04-27T20:55:20.842Z</time>
      </trkpt>
      <trkpt lat="48.84018" lon="2.38101">
        <ele>87.2</ele>
        <time>2015-04-27T20:55:21.862Z</time>
      </trkpt>
      <trkpt lat="48.8402" lon="2.38094">
        <ele>87.2</ele>
        <time>2015-04-27T20:55:22.867Z</time>
      </trkpt>
      <trkpt lat="48.84021" lon="2.38087">
        <ele>87.1</ele>
        <time>2015-04-27T20:55:23.892Z</time>
      </trkpt>
      <trkpt lat="48.84023" lon="2.38079">
        <ele>87.1</ele>
        <time>2015-04-27T20:55:24.903Z</time>
      </trkpt>
      <trkpt lat="48.84025" lon="2.38072">
        <ele>86.9</ele>
        <time>2015-04-27T20:55:25.815Z</time>
      </trkpt>
      <trkpt lat="48.84026" lon="2.38064">
        <ele>87.1</ele>
        <time>2015-04-27T20:55:26.836Z</time>
      </trkpt>
      <trkpt lat="48.84027" lon="2.38057">
        <ele>87</ele>
        <time>2015-04-27T20:55:27.853Z</time>
      </trkpt>
      <trkpt lat="48.84028" lon="2.3805">
        <ele>87.2</ele>
        <time>2015-04-27T20:55:28.888Z</time>
      </trkpt>
      <trkpt lat="48.84029" lon="2.38043">
        <ele>87.6</ele>
        <time>2015-04-27T20:55:29.889Z</time>
      </trkpt>
      <trkpt lat="48.84029" lon="2.38036">
        <ele>88.3</ele>
        <time>2015-04-27T20:55:30.903Z</time>
      </trkpt>
      <trkpt lat="48.84031" lon="2.38029">
        <ele>88.7</ele>
        <time>2015-04-27T20:55:31.823Z</time>
      </trkpt>
      <trkpt lat="48.84032" lon="2.38022">
        <ele>88.9</ele>
        <time>2015-04-27T20:55:32.841Z</time>
      </trkpt>
      <trkpt lat="48.84032" lon="2.38015">
        <ele>89.1</ele>
        <time>2015-04-27T20:55:33.958Z</time>
      </trkpt>
      <trkpt lat="48.84033" lon="2.38008">
        <ele>89</ele>
        <time>2015-04-27T20:55:34.824Z</time>
      </trkpt>
      <trkpt lat="48.84033" lon="2.38001">
        <ele>89</ele>
        <time>2015-04-27T20:55:35.838Z</time>
      </trkpt>
      <trkpt lat="48.84033" lon="2.37994">
        <ele>89</ele>
        <time>2015-04-27T20:55:36.850Z</time>
      </trkpt>
      <trkpt lat="48.84037" lon="2.37982">
        <ele>88.9</ele>
        <time>2015-04-27T20:55:38.872Z</time>
      </trkpt>
      <trkpt lat="48.84038" lon="2.37974">
        <ele>89.2</ele>
        <time>2015-04-27T20:55:39.878Z</time>
      </trkpt>
      <trkpt lat="48.84039" lon="2.37967">
        <ele>89.3</ele>
        <time>2015-04-27T20:55:40.828Z</time>
      </trkpt>
      <trkpt lat="48.8404" lon="2.3796">
        <ele>89.1</ele>
        <time>2015-04-27T20:55:41.835Z</time>
      </trkpt>
      <trkpt lat="48.84041" lon="2.37953">
        <ele>88.7</ele>
        <time>2015-04-27T20:55:42.867Z</time>
      </trkpt>
      <trkpt lat="48.84042" lon="2.37947">
        <ele>88.7</ele>
        <time>2015-04-27T20:55:43.878Z</time>
      </trkpt>
      <trkpt lat="48.84043" lon="2.3794">
        <ele>88.5</ele>
        <time>2015-04-27T20:55:44.901Z</time>
      </trkpt>
      <trkpt lat="48.84044" lon="2.37933">
        <ele>88.6</ele>
        <time>2015-04-27T20:55:45.910Z</time>
      </trkpt>
      <trkpt lat="48.84046" lon="2.37922">
        <ele>88.5</ele>
        <time>2015-04-27T20:55:47.828Z</time>
      </trkpt>
      <trkpt lat="48.84047" lon="2.37917">
        <ele>88.5</ele>
        <time>2015-04-27T20:55:48.843Z</time>
      </trkpt>
      <trkpt lat="48.8405" lon="2.37909">
        <ele>88.7</ele>
        <time>2015-04-27T20:55:50.866Z</time>
      </trkpt>
      <trkpt lat="48.84052" lon="2.37905">
        <ele>88.9</ele>
        <time>2015-04-27T20:55:51.903Z</time>
      </trkpt>
      <trkpt lat="48.84056" lon="2.37898">
        <ele>89.7</ele>
        <time>2015-04-27T20:55:53.854Z</time>
      </trkpt>
      <trkpt lat="48.84057" lon="2.37894">
        <ele>90.2</ele>
        <time>2015-04-27T20:55:54.862Z</time>
      </trkpt>
      <trkpt lat="48.8406" lon="2.37884">
        <ele>90.8</ele>
        <time>2015-04-27T20:55:56.933Z</time>
      </trkpt>
      <trkpt lat="48.84063" lon="2.37879">
        <ele>89.9</ele>
        <time>2015-04-27T20:55:57.942Z</time>
      </trkpt>
      <trkpt lat="48.84066" lon="2.37874">
        <ele>89.2</ele>
        <time>2015-04-27T20:55:58.806Z</time>
      </trkpt>
      <trkpt lat="48.84068" lon="2.37866">
        <ele>88.9</ele>
        <time>2015-04-27T20:55:59.849Z</time>
      </trkpt>
      <trkpt lat="48.84076" lon="2.37859">
        <ele>89</ele>
        <time>2015-04-27T20:56:01.879Z</time>
      </trkpt>
      <trkpt lat="48.84079" lon="2.37857">
        <ele>88.7</ele>
        <time>2015-04-27T20:56:02.885Z</time>
      </trkpt>
      <trkpt lat="48.84083" lon="2.37852">
        <ele>86.5</ele>
        <time>2015-04-27T20:56:04.835Z</time>
      </trkpt>
      <trkpt lat="48.84086" lon="2.37847">
        <ele>86</ele>
        <time>2015-04-27T20:56:05.869Z</time>
      </trkpt>
      <trkpt lat="48.84091" lon="2.3784">
        <ele>86.3</ele>
        <time>2015-04-27T20:56:07.898Z</time>
      </trkpt>
      <trkpt lat="48.84094" lon="2.37837">
        <ele>86.1</ele>
        <time>2015-04-27T20:56:08.915Z</time>
      </trkpt>
      <trkpt lat="48.84101" lon="2.37832">
        <ele>86.7</ele>
        <time>2015-04-27T20:56:10.870Z</time>
      </trkpt>
      <trkpt lat="48.84105" lon="2.37831">
        <ele>87.1</ele>
        <time>2015-04-27T20:56:11.881Z</time>
      </trkpt>
      <trkpt lat="48.84111" lon="2.37825">
        <ele>87.5</ele>
        <time>2015-04-27T20:56:13.845Z</time>
      </trkpt>
      <trkpt lat="48.84114" lon="2.37821">
        <ele>87.5</ele>
        <time>2015-04-27T20:56:14.860Z</time>
      </trkpt>
      <trkpt lat="48.84117" lon="2.37816">
        <ele>87.3</ele>
        <time>2015-04-27T20:56:15.953Z</time>
      </trkpt>
      <trkpt lat="48.8412" lon="2.3781">
        <ele>87.2</ele>
        <time>2015-04-27T20:56:16.830Z</time>
      </trkpt>
      <trkpt lat="48.84123" lon="2.37805">
        <ele>87.2</ele>
        <time>2015-04-27T20:56:17.850Z</time>
      </trkpt>
      <trkpt lat="48.84126" lon="2.37798">
        <ele>87.4</ele>
        <time>2015-04-27T20:56:18.864Z</time>
      </trkpt>
      <trkpt lat="48.84129" lon="2.37793">
        <ele>87.7</ele>
        <time>2015-04-27T20:56:19.870Z</time>
      </trkpt>
      <trkpt lat="48.84132" lon="2.37787">
        <ele>87.7</ele>
        <time>2015-04-27T20:56:20.888Z</time>
      </trkpt>
      <trkpt lat="48.84135" lon="2.37781">
        <ele>87.6</ele>
        <time>2015-04-27T20:56:21.902Z</time>
      </trkpt>
      <trkpt lat="48.84138" lon="2.37775">
        <ele>87.6</ele>
        <time>2015-04-27T20:56:22.917Z</time>
      </trkpt>
      <trkpt lat="48.84141" lon="2.37769">
        <ele>87.8</ele>
        <time>2015-04-27T20:56:23.835Z</time>
      </trkpt>
      <trkpt lat="48.84144" lon="2.37763">
        <ele>87.8</ele>
        <time>2015-04-27T20:56:24.842Z</time>
      </trkpt>
      <trkpt lat="48.84147" lon="2.37758">
        <ele>87.9</ele>
        <time>2015-04-27T20:56:25.857Z</time>
      </trkpt>
      <trkpt lat="48.8415" lon="2.37753">
        <ele>88.1</ele>
        <time>2015-04-27T20:56:26.901Z</time>
      </trkpt>
      <trkpt lat="48.84153" lon="2.37747">
        <ele>88.3</ele>
        <time>2015-04-27T20:56:27.922Z</time>
      </trkpt>
      <trkpt lat="48.84156" lon="2.3774">
        <ele>88.5</ele>
        <time>2015-04-27T20:56:28.839Z</time>
      </trkpt>
      <trkpt lat="48.84159" lon="2.37734">
        <ele>88.8</ele>
        <time>2015-04-27T20:56:29.856Z</time>
      </trkpt>
      <trkpt lat="48.84161" lon="2.37728">
        <ele>89.2</ele>
        <time>2015-04-27T20:56:30.868Z</time>
      </trkpt>
      <trkpt lat="48.84164" lon="2.37723">
        <ele>89.5</ele>
        <time>2015-04-27T20:56:31.894Z</time>
      </trkpt>
      <trkpt lat="48.84167" lon="2.37718">
        <ele>89.5</ele>
        <time>2015-04-27T20:56:32.896Z</time>
      </trkpt>
      <trkpt lat="48.84171" lon="2.37712">
        <ele>89.4</ele>
        <time>2015-04-27T20:56:33.904Z</time>
      </trkpt>
      <trkpt lat="48.84174" lon="2.37707">
        <ele>89.6</ele>
        <time>2015-04-27T20:56:34.908Z</time>
      </trkpt>
      <trkpt lat="48.84177" lon="2.37701">
        <ele>89.8</ele>
        <time>2015-04-27T20:56:36.087Z</time>
      </trkpt>
      <trkpt lat="48.8418" lon="2.37695">
        <ele>90.1</ele>
        <time>2015-04-27T20:56:36.829Z</time>
      </trkpt>
      <trkpt lat="48.84182" lon="2.37689">
        <ele>90.3</ele>
        <time>2015-04-27T20:56:37.855Z</time>
      </trkpt>
      <trkpt lat="48.84184" lon="2.37682">
        <ele>90.4</ele>
        <time>2015-04-27T20:56:38.895Z</time>
      </trkpt>
      <trkpt lat="48.84186" lon="2.37675">
        <ele>90.8</ele>
        <time>2015-04-27T20:56:39.913Z</time>
      </trkpt>
      <trkpt lat="48.84189" lon="2.37669">
        <ele>91.4</ele>
        <time>2015-04-27T20:56:40.853Z</time>
      </trkpt>
      <trkpt lat="48.84194" lon="2.37659">
        <ele>92.6</ele>
        <time>2015-04-27T20:56:42.862Z</time>
      </trkpt>
      <trkpt lat="48.84197" lon="2.37654">
        <ele>92.9</ele>
        <time>2015-04-27T20:56:43.878Z</time>
      </trkpt>
      <trkpt lat="48.84202" lon="2.37645">
        <ele>93.8</ele>
        <time>2015-04-27T20:56:45.874Z</time>
      </trkpt>
      <trkpt lat="48.84205" lon="2.37642">
        <ele>94.2</ele>
        <time>2015-04-27T20:56:46.879Z</time>
      </trkpt>
      <trkpt lat="48.84211" lon="2.37633">
        <ele>94.8</ele>
        <time>2015-04-27T20:56:49.886Z</time>
      </trkpt>
      <trkpt lat="48.84213" lon="2.3763">
        <ele>95.3</ele>
        <time>2015-04-27T20:56:50.911Z</time>
      </trkpt>
      <trkpt lat="48.84217" lon="2.37623">
        <ele>95.8</ele>
        <time>2015-04-27T20:56:52.850Z</time>
      </trkpt>
      <trkpt lat="48.84218" lon="2.37617">
        <ele>95.6</ele>
        <time>2015-04-27T20:56:53.868Z</time>
      </trkpt>
      <trkpt lat="48.84222" lon="2.37608">
        <ele>95.6</ele>
        <time>2015-04-27T20:56:55.836Z</time>
      </trkpt>
      <trkpt lat="48.84222" lon="2.37601">
        <ele>95.5</ele>
        <time>2015-04-27T20:56:56.848Z</time>
      </trkpt>
      <trkpt lat="48.84225" lon="2.37589">
        <ele>95.2</ele>
        <time>2015-04-27T20:56:58.930Z</time>
      </trkpt>
      <trkpt lat="48.84227" lon="2.37584">
        <ele>95.2</ele>
        <time>2015-04-27T20:56:59.832Z</time>
      </trkpt>
      <trkpt lat="48.84233" lon="2.37575">
        <ele>94.8</ele>
        <time>2015-04-27T20:57:01.850Z</time>
      </trkpt>
      <trkpt lat="48.84236" lon="2.3757">
        <ele>94.6</ele>
        <time>2015-04-27T20:57:02.863Z</time>
      </trkpt>
      <trkpt lat="48.84242" lon="2.37561">
        <ele>94.5</ele>
        <time>2015-04-27T20:57:04.870Z</time>
      </trkpt>
      <trkpt lat="48.84246" lon="2.37557">
        <ele>94.6</ele>
        <time>2015-04-27T20:57:05.885Z</time>
      </trkpt>
      <trkpt lat="48.8425" lon="2.37553">
        <ele>94.9</ele>
        <time>2015-04-27T20:57:06.838Z</time>
      </trkpt>
      <trkpt lat="48.84255" lon="2.37551">
        <ele>95.1</ele>
        <time>2015-04-27T20:57:07.841Z</time>
      </trkpt>
      <trkpt lat="48.84258" lon="2.37546">
        <ele>95.3</ele>
        <time>2015-04-27T20:57:08.905Z</time>
      </trkpt>
      <trkpt lat="48.84262" lon="2.37542">
        <ele>95.8</ele>
        <time>2015-04-27T20:57:09.920Z</time>
      </trkpt>
      <trkpt lat="48.84267" lon="2.37541">
        <ele>95.8</ele>
        <time>2015-04-27T20:57:10.867Z</time>
      </trkpt>
      <trkpt lat="48.84271" lon="2.37537">
        <ele>95.9</ele>
        <time>2015-04-27T20:57:11.876Z</time>
      </trkpt>
      <trkpt lat="48.84275" lon="2.37533">
        <ele>96.1</ele>
        <time>2015-04-27T20:57:12.863Z</time>
      </trkpt>
      <trkpt lat="48.8428" lon="2.37528">
        <ele>96.6</ele>
        <time>2015-04-27T20:57:13.900Z</time>
      </trkpt>
      <trkpt lat="48.84284" lon="2.37523">
        <ele>96.9</ele>
        <time>2015-04-27T20:57:14.923Z</time>
      </trkpt>
      <trkpt lat="48.84286" lon="2.37514">
        <ele>96.1</ele>
        <time>2015-04-27T20:57:15.939Z</time>
      </trkpt>
      <trkpt lat="48.84289" lon="2.37507">
        <ele>96.2</ele>
        <time>2015-04-27T20:57:16.942Z</time>
      </trkpt>
      <trkpt lat="48.84291" lon="2.375">
        <ele>96.5</ele>
        <time>2015-04-27T20:57:17.827Z</time>
      </trkpt>
      <trkpt lat="48.84294" lon="2.37494">
        <ele>96.9</ele>
        <time>2015-04-27T20:57:18.830Z</time>
      </trkpt>
      <trkpt lat="48.84298" lon="2.3749">
        <ele>97.4</ele>
        <time>2015-04-27T20:57:19.838Z</time>
      </trkpt>
      <trkpt lat="48.843" lon="2.37484">
        <ele>97.8</ele>
        <time>2015-04-27T20:57:20.863Z</time>
      </trkpt>
      <trkpt lat="48.84302" lon="2.37476">
        <ele>98.5</ele>
        <time>2015-04-27T20:57:21.879Z</time>
      </trkpt>
      <trkpt lat="48.84304" lon="2.37466">
        <ele>100</ele>
        <time>2015-04-27T20:57:22.912Z</time>
      </trkpt>
      <trkpt lat="48.84304" lon="2.37456">
        <ele>100.6</ele>
        <time>2015-04-27T20:57:23.862Z</time>
      </trkpt>
      <trkpt lat="48.84307" lon="2.37446">
        <ele>101.4</ele>
        <time>2015-04-27T20:57:24.873Z</time>
      </trkpt>
      <trkpt lat="48.8431" lon="2.3744">
        <ele>102.2</ele>
        <time>2015-04-27T20:57:25.921Z</time>
      </trkpt>
      <trkpt lat="48.84315" lon="2.37436">
        <ele>102.8</ele>
        <time>2015-04-27T20:57:26.917Z</time>
      </trkpt>
      <trkpt lat="48.84319" lon="2.37432">
        <ele>103</ele>
        <time>2015-04-27T20:57:27.929Z</time>
      </trkpt>
      <trkpt lat="48.84325" lon="2.37429">
        <ele>102.4</ele>
        <time>2015-04-27T20:57:28.827Z</time>
      </trkpt>
      <trkpt lat="48.84329" lon="2.37423">
        <ele>101.3</ele>
        <time>2015-04-27T20:57:29.827Z</time>
      </trkpt>
      <trkpt lat="48.84333" lon="2.37417">
        <ele>100.5</ele>
        <time>2015-04-27T20:57:30.831Z</time>
      </trkpt>
      <trkpt lat="48.84338" lon="2.3741">
        <ele>100.4</ele>
        <time>2015-04-27T20:57:31.837Z</time>
      </trkpt>
      <trkpt lat="48.84344" lon="2.37404">
        <ele>100.9</ele>
        <time>2015-04-27T20:57:32.851Z</time>
      </trkpt>
      <trkpt lat="48.84347" lon="2.374">
        <ele>100.8</ele>
        <time>2015-04-27T20:57:33.879Z</time>
      </trkpt>
      <trkpt lat="48.84351" lon="2.37397">
        <ele>101.8</ele>
        <time>2015-04-27T20:57:34.873Z</time>
      </trkpt>
      <trkpt lat="48.84356" lon="2.37393">
        <ele>102.6</ele>
        <time>2015-04-27T20:57:35.890Z</time>
      </trkpt>
      <trkpt lat="48.84361" lon="2.3739">
        <ele>102.6</ele>
        <time>2015-04-27T20:57:36.900Z</time>
      </trkpt>
      <trkpt lat="48.84367" lon="2.37387">
        <ele>102.6</ele>
        <time>2015-04-27T20:57:37.908Z</time>
      </trkpt>
      <trkpt lat="48.84371" lon="2.37385">
        <ele>102.6</ele>
        <time>2015-04-27T20:57:38.923Z</time>
      </trkpt>
      <trkpt lat="48.84376" lon="2.37382">
        <ele>102.3</ele>
        <time>2015-04-27T20:57:39.931Z</time>
      </trkpt>
      <trkpt lat="48.84381" lon="2.37379">
        <ele>102.4</ele>
        <time>2015-04-27T20:57:40.821Z</time>
      </trkpt>
      <trkpt lat="48.84384" lon="2.37376">
        <ele>102.3</ele>
        <time>2015-04-27T20:57:41.824Z</time>
      </trkpt>
      <trkpt lat="48.84388" lon="2.37371">
        <ele>102.4</ele>
        <time>2015-04-27T20:57:42.853Z</time>
      </trkpt>
      <trkpt lat="48.84391" lon="2.37366">
        <ele>102.4</ele>
        <time>2015-04-27T20:57:43.863Z</time>
      </trkpt>
      <trkpt lat="48.84395" lon="2.3736">
        <ele>102.7</ele>
        <time>2015-04-27T20:57:44.880Z</time>
      </trkpt>
      <trkpt lat="48.84398" lon="2.37355">
        <ele>102.8</ele>
        <time>2015-04-27T20:57:45.920Z</time>
      </trkpt>
      <trkpt lat="48.844" lon="2.37351">
        <ele>102.6</ele>
        <time>2015-04-27T20:57:46.846Z</time>
      </trkpt>
      <trkpt lat="48.84405" lon="2.37346">
        <ele>102.7</ele>
        <time>2015-04-27T20:57:47.861Z</time>
      </trkpt>
      <trkpt lat="48.84408" lon="2.37338">
        <ele>102.8</ele>
        <time>2015-04-27T20:57:48.897Z</time>
      </trkpt>
      <trkpt lat="48.84409" lon="2.37329">
        <ele>102.5</ele>
        <time>2015-04-27T20:57:49.848Z</time>
      </trkpt>
      <trkpt lat="48.84412" lon="2.37323">
        <ele>102.9</ele>
        <time>2015-04-27T20:57:50.884Z</time>
      </trkpt>
      <trkpt lat="48.84416" lon="2.37318">
        <ele>103.2</ele>
        <time>2015-04-27T20:57:51.889Z</time>
      </trkpt>
      <trkpt lat="48.84419" lon="2.37312">
        <ele>103.6</ele>
        <time>2015-04-27T20:57:52.916Z</time>
      </trkpt>
      <trkpt lat="48.84424" lon="2.37307">
        <ele>102.2</ele>
        <time>2015-04-27T20:57:53.871Z</time>
      </trkpt>
      <trkpt lat="48.84427" lon="2.37302">
        <ele>101.8</ele>
        <time>2015-04-27T20:57:54.885Z</time>
      </trkpt>
      <trkpt lat="48.84431" lon="2.37296">
        <ele>101.9</ele>
        <time>2015-04-27T20:57:55.915Z</time>
      </trkpt>
      <trkpt lat="48.84435" lon="2.37289">
        <ele>102.8</ele>
        <time>2015-04-27T20:57:56.840Z</time>
      </trkpt>
      <trkpt lat="48.84438" lon="2.37281">
        <ele>103.1</ele>
        <time>2015-04-27T20:57:57.861Z</time>
      </trkpt>
      <trkpt lat="48.84442" lon="2.37275">
        <ele>104</ele>
        <time>2015-04-27T20:57:58.872Z</time>
      </trkpt>
      <trkpt lat="48.84444" lon="2.37267">
        <ele>104.5</ele>
        <time>2015-04-27T20:57:59.880Z</time>
      </trkpt>
      <trkpt lat="48.84447" lon="2.37254">
        <ele>104.4</ele>
        <time>2015-04-27T20:58:01.832Z</time>
      </trkpt>
      <trkpt lat="48.84449" lon="2.37246">
        <ele>105</ele>
        <time>2015-04-27T20:58:02.853Z</time>
      </trkpt>
      <trkpt lat="48.84451" lon="2.37241">
        <ele>105</ele>
        <time>2015-04-27T20:58:03.874Z</time>
      </trkpt>
      <trkpt lat="48.8445" lon="2.37231">
        <ele>104</ele>
        <time>2015-04-27T20:58:04.910Z</time>
      </trkpt>
      <trkpt lat="48.8445" lon="2.37219">
        <ele>101.9</ele>
        <time>2015-04-27T20:58:06.834Z</time>
      </trkpt>
      <trkpt lat="48.84451" lon="2.37216">
        <ele>101.7</ele>
        <time>2015-04-27T20:58:07.857Z</time>
      </trkpt>
      <trkpt lat="48.84458" lon="2.37214">
        <ele>101.6</ele>
        <time>2015-04-27T20:58:09.883Z</time>
      </trkpt>
      <trkpt lat="48.84462" lon="2.37212">
        <ele>101.8</ele>
        <time>2015-04-27T20:58:10.852Z</time>
      </trkpt>
      <trkpt lat="48.8447" lon="2.37209">
        <ele>102.4</ele>
        <time>2015-04-27T20:58:12.897Z</time>
      </trkpt>
      <trkpt lat="48.84475" lon="2.37207">
        <ele>102.9</ele>
        <time>2015-04-27T20:58:13.906Z</time>
      </trkpt>
      <trkpt lat="48.8448" lon="2.37202">
        <ele>103.6</ele>
        <time>2015-04-27T20:58:14.954Z</time>
      </trkpt>
      <trkpt lat="48.84484" lon="2.37198">
        <ele>104</ele>
        <time>2015-04-27T20:58:15.932Z</time>
      </trkpt>
      <trkpt lat="48.84489" lon="2.37194">
        <ele>104.4</ele>
        <time>2015-04-27T20:58:16.805Z</time>
      </trkpt>
      <trkpt lat="48.84495" lon="2.37191">
        <ele>104.5</ele>
        <time>2015-04-27T20:58:17.840Z</time>
      </trkpt>
      <trkpt lat="48.84499" lon="2.37187">
        <ele>104.9</ele>
        <time>2015-04-27T20:58:18.849Z</time>
      </trkpt>
      <trkpt lat="48.84503" lon="2.37182">
        <ele>104.6</ele>
        <time>2015-04-27T20:58:19.857Z</time>
      </trkpt>
      <trkpt lat="48.84507" lon="2.37175">
        <ele>104.3</ele>
        <time>2015-04-27T20:58:20.878Z</time>
      </trkpt>
      <trkpt lat="48.84507" lon="2.37166">
        <ele>103</ele>
        <time>2015-04-27T20:58:21.890Z</time>
      </trkpt>
      <trkpt lat="48.84512" lon="2.37156">
        <ele>101.8</ele>
        <time>2015-04-27T20:58:23.819Z</time>
      </trkpt>
      <trkpt lat="48.84516" lon="2.37151">
        <ele>101.7</ele>
        <time>2015-04-27T20:58:24.844Z</time>
      </trkpt>
      <trkpt lat="48.84521" lon="2.37145">
        <ele>100.6</ele>
        <time>2015-04-27T20:58:26.924Z</time>
      </trkpt>
      <trkpt lat="48.84522" lon="2.37142">
        <ele>99.5</ele>
        <time>2015-04-27T20:58:27.919Z</time>
      </trkpt>
      <trkpt lat="48.84527" lon="2.37135">
        <ele>98.2</ele>
        <time>2015-04-27T20:58:29.828Z</time>
      </trkpt>
      <trkpt lat="48.8453" lon="2.37132">
        <ele>97.8</ele>
        <time>2015-04-27T20:58:30.815Z</time>
      </trkpt>
      <trkpt lat="48.84535" lon="2.37127">
        <ele>97.1</ele>
        <time>2015-04-27T20:58:32.835Z</time>
      </trkpt>
      <trkpt lat="48.84538" lon="2.37124">
        <ele>96.8</ele>
        <time>2015-04-27T20:58:33.999Z</time>
      </trkpt>
      <trkpt lat="48.84543" lon="2.37117">
        <ele>96.2</ele>
        <time>2015-04-27T20:58:35.858Z</time>
      </trkpt>
      <trkpt lat="48.84546" lon="2.37115">
        <ele>95.9</ele>
        <time>2015-04-27T20:58:36.876Z</time>
      </trkpt>
      <trkpt lat="48.84552" lon="2.37112">
        <ele>95.5</ele>
        <time>2015-04-27T20:58:38.875Z</time>
      </trkpt>
      <trkpt lat="48.84555" lon="2.37111">
        <ele>95.5</ele>
        <time>2015-04-27T20:58:39.904Z</time>
      </trkpt>
      <trkpt lat="48.84563" lon="2.37109">
        <ele>97</ele>
        <time>2015-04-27T20:58:42.832Z</time>
      </trkpt>
      <trkpt lat="48.84565" lon="2.37113">
        <ele>97.2</ele>
        <time>2015-04-27T20:58:43.838Z</time>
      </trkpt>
      <trkpt lat="48.84572" lon="2.37114">
        <ele>94.7</ele>
        <time>2015-04-27T20:59:33.884Z</time>
      </trkpt>
      <trkpt lat="48.84574" lon="2.37112">
        <ele>94.8</ele>
        <time>2015-04-27T20:59:34.910Z</time>
      </trkpt>
      <trkpt lat="48.84581" lon="2.37106">
        <ele>95.5</ele>
        <time>2015-04-27T20:59:37.877Z</time>
      </trkpt>
      <trkpt lat="48.84584" lon="2.37105">
        <ele>95.6</ele>
        <time>2015-04-27T20:59:38.936Z</time>
      </trkpt>
      <trkpt lat="48.84589" lon="2.37101">
        <ele>96</ele>
        <time>2015-04-27T20:59:41.860Z</time>
      </trkpt>
      <trkpt lat="48.84592" lon="2.37099">
        <ele>96.4</ele>
        <time>2015-04-27T20:59:42.875Z</time>
      </trkpt>
      <trkpt lat="48.84597" lon="2.37095">
        <ele>97.2</ele>
        <time>2015-04-27T20:59:44.921Z</time>
      </trkpt>
      <trkpt lat="48.846" lon="2.37093">
        <ele>97.4</ele>
        <time>2015-04-27T20:59:45.925Z</time>
      </trkpt>
      <trkpt lat="48.84607" lon="2.37087">
        <ele>98.1</ele>
        <time>2015-04-27T20:59:48.859Z</time>
      </trkpt>
      <trkpt lat="48.84609" lon="2.37084">
        <ele>97.9</ele>
        <time>2015-04-27T20:59:49.802Z</time>
      </trkpt>
      <trkpt lat="48.84614" lon="2.37077">
        <ele>98.1</ele>
        <time>2015-04-27T20:59:51.880Z</time>
      </trkpt>
      <trkpt lat="48.84616" lon="2.37074">
        <ele>98.1</ele>
        <time>2015-04-27T20:59:52.899Z</time>
      </trkpt>
      <trkpt lat="48.84622" lon="2.37069">
        <ele>98.5</ele>
        <time>2015-04-27T20:59:54.818Z</time>
      </trkpt>
      <trkpt lat="48.84625" lon="2.37066">
        <ele>98.5</ele>
        <time>2015-04-27T20:59:55.824Z</time>
      </trkpt>
      <trkpt lat="48.84631" lon="2.37059">
        <ele>98.6</ele>
        <time>2015-04-27T20:59:57.883Z</time>
      </trkpt>
      <trkpt lat="48.84633" lon="2.37054">
        <ele>98.6</ele>
        <time>2015-04-27T20:59:58.896Z</time>
      </trkpt>
      <trkpt lat="48.84635" lon="2.37047">
        <ele>98.2</ele>
        <time>2015-04-27T20:59:59.901Z</time>
      </trkpt>
      <trkpt lat="48.84639" lon="2.37043">
        <ele>99.1</ele>
        <time>2015-04-27T21:00:00.838Z</time>
      </trkpt>
      <trkpt lat="48.84643" lon="2.37038">
        <ele>100.4</ele>
        <time>2015-04-27T21:00:01.840Z</time>
      </trkpt>
      <trkpt lat="48.84647" lon="2.37034">
        <ele>101.5</ele>
        <time>2015-04-27T21:00:02.810Z</time>
      </trkpt>
      <trkpt lat="48.8465" lon="2.37028">
        <ele>101.8</ele>
        <time>2015-04-27T21:00:03.880Z</time>
      </trkpt>
      <trkpt lat="48.84652" lon="2.37022">
        <ele>101.8</ele>
        <time>2015-04-27T21:00:04.897Z</time>
      </trkpt>
      <trkpt lat="48.84657" lon="2.37012">
        <ele>101.4</ele>
        <time>2015-04-27T21:00:06.926Z</time>
      </trkpt>
      <trkpt lat="48.8466" lon="2.37008">
        <ele>101.8</ele>
        <time>2015-04-27T21:00:07.835Z</time>
      </trkpt>
      <trkpt lat="48.84665" lon="2.36999">
        <ele>102.4</ele>
        <time>2015-04-27T21:00:09.899Z</time>
      </trkpt>
      <trkpt lat="48.84667" lon="2.36994">
        <ele>102.1</ele>
        <time>2015-04-27T21:00:10.917Z</time>
      </trkpt>
      <trkpt lat="48.84671" lon="2.36985">
        <ele>101.7</ele>
        <time>2015-04-27T21:00:12.838Z</time>
      </trkpt>
      <trkpt lat="48.84674" lon="2.36979">
        <ele>101.6</ele>
        <time>2015-04-27T21:00:13.866Z</time>
      </trkpt>
      <trkpt lat="48.84679" lon="2.3697">
        <ele>101.8</ele>
        <time>2015-04-27T21:00:15.897Z</time>
      </trkpt>
      <trkpt lat="48.84681" lon="2.36965">
        <ele>101.9</ele>
        <time>2015-04-27T21:00:16.908Z</time>
      </trkpt>
      <trkpt lat="48.84686" lon="2.36956">
        <ele>102.2</ele>
        <time>2015-04-27T21:00:18.823Z</time>
      </trkpt>
      <trkpt lat="48.84687" lon="2.36953">
        <ele>102.1</ele>
        <time>2015-04-27T21:00:19.844Z</time>
      </trkpt>
      <trkpt lat="48.84691" lon="2.3695">
        <ele>103</ele>
        <time>2015-04-27T21:00:34.890Z</time>
      </trkpt>
      <trkpt lat="48.84699" lon="2.36936">
        <ele>104.9</ele>
        <time>2015-04-27T21:00:35.813Z</time>
      </trkpt>
      <trkpt lat="48.84706" lon="2.36929">
        <ele>105.1</ele>
        <time>2015-04-27T21:00:39.915Z</time>
      </trkpt>
      <trkpt lat="48.84707" lon="2.36928">
        <ele>104.8</ele>
        <time>2015-04-27T21:00:40.920Z</time>
      </trkpt>
      <trkpt lat="48.84713" lon="2.36924">
        <ele>105.3</ele>
        <time>2015-04-27T21:00:44.840Z</time>
      </trkpt>
      <trkpt lat="48.84715" lon="2.36922">
        <ele>105.3</ele>
        <time>2015-04-27T21:00:45.940Z</time>
      </trkpt>
      <trkpt lat="48.84721" lon="2.36915">
        <ele>105.3</ele>
        <time>2015-04-27T21:00:48.875Z</time>
      </trkpt>
      <trkpt lat="48.84723" lon="2.36911">
        <ele>105.6</ele>
        <time>2015-04-27T21:00:49.884Z</time>
      </trkpt>
      <trkpt lat="48.8473" lon="2.36902">
        <ele>107.3</ele>
        <time>2015-04-27T21:00:52.838Z</time>
      </trkpt>
      <trkpt lat="48.84732" lon="2.369">
        <ele>107.9</ele>
        <time>2015-04-27T21:00:53.856Z</time>
      </trkpt>
      <trkpt lat="48.84738" lon="2.36894">
        <ele>108.3</ele>
        <time>2015-04-27T21:00:56.889Z</time>
      </trkpt>
      <trkpt lat="48.8474" lon="2.36892">
        <ele>108.3</ele>
        <time>2015-04-27T21:00:57.901Z</time>
      </trkpt>
      <trkpt lat="48.84744" lon="2.36884">
        <ele>108.3</ele>
        <time>2015-04-27T21:01:01.187Z</time>
      </trkpt>
      <trkpt lat="48.84746" lon="2.36881">
        <ele>108.2</ele>
        <time>2015-04-27T21:01:01.835Z</time>
      </trkpt>
      <trkpt lat="48.84748" lon="2.36871">
        <ele>107.3</ele>
        <time>2015-04-27T21:01:04.864Z</time>
      </trkpt>
      <trkpt lat="48.84749" lon="2.36868">
        <ele>107</ele>
        <time>2015-04-27T21:01:05.876Z</time>
      </trkpt>
      <trkpt lat="48.84754" lon="2.36857">
        <ele>107</ele>
        <time>2015-04-27T21:01:08.910Z</time>
      </trkpt>
      <trkpt lat="48.84755" lon="2.36853">
        <ele>106.4</ele>
        <time>2015-04-27T21:01:09.908Z</time>
      </trkpt>
      <trkpt lat="48.84759" lon="2.36843">
        <ele>106</ele>
        <time>2015-04-27T21:01:11.881Z</time>
      </trkpt>
      <trkpt lat="48.84761" lon="2.36838">
        <ele>105.8</ele>
        <time>2015-04-27T21:01:12.839Z</time>
      </trkpt>
      <trkpt lat="48.84765" lon="2.36829">
        <ele>105.2</ele>
        <time>2015-04-27T21:01:14.896Z</time>
      </trkpt>
      <trkpt lat="48.84766" lon="2.36824">
        <ele>105</ele>
        <time>2015-04-27T21:01:15.852Z</time>
      </trkpt>
      <trkpt lat="48.84771" lon="2.36817">
        <ele>104.4</ele>
        <time>2015-04-27T21:01:17.842Z</time>
      </trkpt>
      <trkpt lat="48.84775" lon="2.36816">
        <ele>103.7</ele>
        <time>2015-04-27T21:01:18.845Z</time>
      </trkpt>
      <trkpt lat="48.84782" lon="2.36811">
        <ele>102.5</ele>
        <time>2015-04-27T21:01:21.577Z</time>
      </trkpt>
      <trkpt lat="48.84785" lon="2.36808">
        <ele>102.2</ele>
        <time>2015-04-27T21:01:21.865Z</time>
      </trkpt>
      <trkpt lat="48.8479" lon="2.36802">
        <ele>101.4</ele>
        <time>2015-04-27T21:01:23.803Z</time>
      </trkpt>
      <trkpt lat="48.84792" lon="2.36798">
        <ele>100.9</ele>
        <time>2015-04-27T21:01:24.830Z</time>
      </trkpt>
      <trkpt lat="48.84797" lon="2.36791">
        <ele>100.2</ele>
        <time>2015-04-27T21:01:26.842Z</time>
      </trkpt>
      <trkpt lat="48.84799" lon="2.36788">
        <ele>99.9</ele>
        <time>2015-04-27T21:01:27.870Z</time>
      </trkpt>
      <trkpt lat="48.84805" lon="2.36778">
        <ele>98.4</ele>
        <time>2015-04-27T21:01:31.798Z</time>
      </trkpt>
      <trkpt lat="48.84807" lon="2.36776">
        <ele>97.8</ele>
        <time>2015-04-27T21:01:32.812Z</time>
      </trkpt>
      <trkpt lat="48.84811" lon="2.36764">
        <ele>95.4</ele>
        <time>2015-04-27T21:01:45.878Z</time>
      </trkpt>
      <trkpt lat="48.84814" lon="2.36766">
        <ele>95</ele>
        <time>2015-04-27T21:01:46.887Z</time>
      </trkpt>
      <trkpt lat="48.84822" lon="2.36769">
        <ele>95.1</ele>
        <time>2015-04-27T21:01:49.860Z</time>
      </trkpt>
      <trkpt lat="48.84824" lon="2.3677">
        <ele>95.1</ele>
        <time>2015-04-27T21:01:50.875Z</time>
      </trkpt>
      <trkpt lat="48.84829" lon="2.36775">
        <ele>94.9</ele>
        <time>2015-04-27T21:01:52.865Z</time>
      </trkpt>
      <trkpt lat="48.84833" lon="2.36779">
        <ele>94.9</ele>
        <time>2015-04-27T21:01:53.872Z</time>
      </trkpt>
      <trkpt lat="48.84837" lon="2.36789">
        <ele>95.1</ele>
        <time>2015-04-27T21:01:55.922Z</time>
      </trkpt>
      <trkpt lat="48.84839" lon="2.36792">
        <ele>94.9</ele>
        <time>2015-04-27T21:01:56.835Z</time>
      </trkpt>
      <trkpt lat="48.84845" lon="2.36796">
        <ele>94.4</ele>
        <time>2015-04-27T21:01:58.881Z</time>
      </trkpt>
      <trkpt lat="48.84847" lon="2.36797">
        <ele>94.3</ele>
        <time>2015-04-27T21:01:59.889Z</time>
      </trkpt>
      <trkpt lat="48.84854" lon="2.36801">
        <ele>94.4</ele>
        <time>2015-04-27T21:02:02.969Z</time>
      </trkpt>
      <trkpt lat="48.84857" lon="2.36803">
        <ele>94.3</ele>
        <time>2015-04-27T21:02:03.855Z</time>
      </trkpt>
      <trkpt lat="48.84863" lon="2.36806">
        <ele>94.3</ele>
        <time>2015-04-27T21:02:05.878Z</time>
      </trkpt>
      <trkpt lat="48.84867" lon="2.36808">
        <ele>94.6</ele>
        <time>2015-04-27T21:02:06.880Z</time>
      </trkpt>
      <trkpt lat="48.84874" lon="2.3681">
        <ele>94.8</ele>
        <time>2015-04-27T21:02:08.897Z</time>
      </trkpt>
      <trkpt lat="48.84878" lon="2.3681">
        <ele>94.8</ele>
        <time>2015-04-27T21:02:09.930Z</time>
      </trkpt>
      <trkpt lat="48.84884" lon="2.3681">
        <ele>94</ele>
        <time>2015-04-27T21:02:10.813Z</time>
      </trkpt>
      <trkpt lat="48.84888" lon="2.3681">
        <ele>93.9</ele>
        <time>2015-04-27T21:02:11.824Z</time>
      </trkpt>
      <trkpt lat="48.84896" lon="2.36807">
        <ele>92.5</ele>
        <time>2015-04-27T21:02:13.965Z</time>
      </trkpt>
      <trkpt lat="48.84898" lon="2.36805">
        <ele>92.4</ele>
        <time>2015-04-27T21:02:14.850Z</time>
      </trkpt>
      <trkpt lat="48.84898" lon="2.36804">
        <ele>92.8</ele>
        <time>2015-04-27T21:02:26.825Z</time>
      </trkpt>
      <trkpt lat="48.84903" lon="2.36788">
        <ele>91.1</ele>
        <time>2015-04-27T21:02:27.863Z</time>
      </trkpt>
      <trkpt lat="48.84907" lon="2.36776">
        <ele>90.9</ele>
        <time>2015-04-27T21:02:31.887Z</time>
      </trkpt>
      <trkpt lat="48.84908" lon="2.36773">
        <ele>90.7</ele>
        <time>2015-04-27T21:02:32.901Z</time>
      </trkpt>
      <trkpt lat="48.84911" lon="2.36763">
        <ele>90</ele>
        <time>2015-04-27T21:02:35.854Z</time>
      </trkpt>
      <trkpt lat="48.84912" lon="2.36759">
        <ele>89.7</ele>
        <time>2015-04-27T21:02:36.851Z</time>
      </trkpt>
      <trkpt lat="48.84914" lon="2.36748">
        <ele>89</ele>
        <time>2015-04-27T21:02:39.875Z</time>
      </trkpt>
      <trkpt lat="48.84914" lon="2.36744">
        <ele>89.4</ele>
        <time>2015-04-27T21:02:40.926Z</time>
      </trkpt>
      <trkpt lat="48.84915" lon="2.3673">
        <ele>90.7</ele>
        <time>2015-04-27T21:02:43.867Z</time>
      </trkpt>
      <trkpt lat="48.84914" lon="2.36724">
        <ele>91.4</ele>
        <time>2015-04-27T21:02:44.888Z</time>
      </trkpt>
      <trkpt lat="48.84912" lon="2.36713">
        <ele>92.8</ele>
        <time>2015-04-27T21:02:46.802Z</time>
      </trkpt>
      <trkpt lat="48.84912" lon="2.36709">
        <ele>93.4</ele>
        <time>2015-04-27T21:02:47.805Z</time>
      </trkpt>
      <trkpt lat="48.84912" lon="2.36698">
        <ele>94.3</ele>
        <time>2015-04-27T21:02:51.499Z</time>
      </trkpt>
      <trkpt lat="48.84912" lon="2.36694">
        <ele>94.6</ele>
        <time>2015-04-27T21:02:51.861Z</time>
      </trkpt>
      <trkpt lat="48.84915" lon="2.36685">
        <ele>95</ele>
        <time>2015-04-27T21:02:54.923Z</time>
      </trkpt>
      <trkpt lat="48.84917" lon="2.36682">
        <ele>95</ele>
        <time>2015-04-27T21:02:55.868Z</time>
      </trkpt>
      <trkpt lat="48.84922" lon="2.36673">
        <ele>95.1</ele>
        <time>2015-04-27T21:02:59.837Z</time>
      </trkpt>
      <trkpt lat="48.84923" lon="2.36671">
        <ele>95.4</ele>
        <time>2015-04-27T21:03:00.846Z</time>
      </trkpt>
      <trkpt lat="48.84924" lon="2.36659">
        <ele>98</ele>
        <time>2015-04-27T21:03:04.913Z</time>
      </trkpt>
      <trkpt lat="48.84925" lon="2.36656">
        <ele>98.3</ele>
        <time>2015-04-27T21:03:05.822Z</time>
      </trkpt>
      <trkpt lat="48.84927" lon="2.36643">
        <ele>100.1</ele>
        <time>2015-04-27T21:03:09.897Z</time>
      </trkpt>
      <trkpt lat="48.84928" lon="2.36641">
        <ele>100</ele>
        <time>2015-04-27T21:03:10.920Z</time>
      </trkpt>
      <trkpt lat="48.84931" lon="2.36632">
        <ele>99.9</ele>
        <time>2015-04-27T21:03:13.829Z</time>
      </trkpt>
      <trkpt lat="48.84932" lon="2.36628">
        <ele>99.8</ele>
        <time>2015-04-27T21:03:14.849Z</time>
      </trkpt>
      <trkpt lat="48.84934" lon="2.36616">
        <ele>99.6</ele>
        <time>2015-04-27T21:03:17.879Z</time>
      </trkpt>
      <trkpt lat="48.84935" lon="2.36611">
        <ele>99.5</ele>
        <time>2015-04-27T21:03:18.892Z</time>
      </trkpt>
      <trkpt lat="48.84936" lon="2.36599">
        <ele>99.9</ele>
        <time>2015-04-27T21:03:20.915Z</time>
      </trkpt>
      <trkpt lat="48.84937" lon="2.36593">
        <ele>100.1</ele>
        <time>2015-04-27T21:03:21.941Z</time>
      </trkpt>
      <trkpt lat="48.84939" lon="2.36581">
        <ele>100.5</ele>
        <time>2015-04-27T21:03:23.839Z</time>
      </trkpt>
      <trkpt lat="48.8494" lon="2.36575">
        <ele>100.6</ele>
        <time>2015-04-27T21:03:24.859Z</time>
      </trkpt>
      <trkpt lat="48.84942" lon="2.36565">
        <ele>101</ele>
        <time>2015-04-27T21:03:26.944Z</time>
      </trkpt>
      <trkpt lat="48.84943" lon="2.3656">
        <ele>101.2</ele>
        <time>2015-04-27T21:03:27.894Z</time>
      </trkpt>
      <trkpt lat="48.84943" lon="2.36551">
        <ele>101</ele>
        <time>2015-04-27T21:03:29.832Z</time>
      </trkpt>
      <trkpt lat="48.84944" lon="2.36546">
        <ele>100.9</ele>
        <time>2015-04-27T21:03:30.834Z</time>
      </trkpt>
      <trkpt lat="48.84945" lon="2.36535">
        <ele>100.5</ele>
        <time>2015-04-27T21:03:32.857Z</time>
      </trkpt>
      <trkpt lat="48.84946" lon="2.36528">
        <ele>100.5</ele>
        <time>2015-04-27T21:03:33.915Z</time>
      </trkpt>
      <trkpt lat="48.84947" lon="2.3652">
        <ele>100.8</ele>
        <time>2015-04-27T21:03:34.833Z</time>
      </trkpt>
      <trkpt lat="48.84948" lon="2.36513">
        <ele>100.9</ele>
        <time>2015-04-27T21:03:35.824Z</time>
      </trkpt>
      <trkpt lat="48.84949" lon="2.36506">
        <ele>100.9</ele>
        <time>2015-04-27T21:03:36.853Z</time>
      </trkpt>
      <trkpt lat="48.84951" lon="2.365">
        <ele>100.8</ele>
        <time>2015-04-27T21:03:37.860Z</time>
      </trkpt>
      <trkpt lat="48.84954" lon="2.36488">
        <ele>100.4</ele>
        <time>2015-04-27T21:03:35.820Z</time>
      </trkpt>
      <trkpt lat="48.84957" lon="2.36481">
        <ele>100.2</ele>
        <time>2015-04-27T21:03:40.900Z</time>
      </trkpt>
      <trkpt lat="48.8496" lon="2.36475">
        <ele>100</ele>
        <time>2015-04-27T21:03:41.909Z</time>
      </trkpt>
      <trkpt lat="48.84962" lon="2.3647">
        <ele>99.8</ele>
        <time>2015-04-27T21:03:42.819Z</time>
      </trkpt>
      <trkpt lat="48.84965" lon="2.3646">
        <ele>99.3</ele>
        <time>2015-04-27T21:03:44.909Z</time>
      </trkpt>
      <trkpt lat="48.84967" lon="2.36455">
        <ele>99</ele>
        <time>2015-04-27T21:03:45.931Z</time>
      </trkpt>
      <trkpt lat="48.84972" lon="2.36451">
        <ele>98.1</ele>
        <time>2015-04-27T21:03:46.805Z</time>
      </trkpt>
      <trkpt lat="48.84976" lon="2.36448">
        <ele>97.4</ele>
        <time>2015-04-27T21:03:47.801Z</time>
      </trkpt>
      <trkpt lat="48.84982" lon="2.36444">
        <ele>97.1</ele>
        <time>2015-04-27T21:03:49.891Z</time>
      </trkpt>
      <trkpt lat="48.84984" lon="2.36442">
        <ele>97.3</ele>
        <time>2015-04-27T21:03:50.884Z</time>
      </trkpt>
      <trkpt lat="48.84991" lon="2.36441">
        <ele>96.8</ele>
        <time>2015-04-27T21:03:54.881Z</time>
      </trkpt>
      <trkpt lat="48.84994" lon="2.36439">
        <ele>96.7</ele>
        <time>2015-04-27T21:03:55.848Z</time>
      </trkpt>
      <trkpt lat="48.84999" lon="2.36434">
        <ele>96.8</ele>
        <time>2015-04-27T21:03:57.886Z</time>
      </trkpt>
      <trkpt lat="48.85002" lon="2.36432">
        <ele>96.8</ele>
        <time>2015-04-27T21:03:58.937Z</time>
      </trkpt>
      <trkpt lat="48.85009" lon="2.36425">
        <ele>98.1</ele>
        <time>2015-04-27T21:04:00.833Z</time>
      </trkpt>
      <trkpt lat="48.85012" lon="2.36422">
        <ele>98.5</ele>
        <time>2015-04-27T21:04:01.874Z</time>
      </trkpt>
      <trkpt lat="48.85018" lon="2.36415">
        <ele>98.7</ele>
        <time>2015-04-27T21:04:03.869Z</time>
      </trkpt>
      <trkpt lat="48.8502" lon="2.36411">
        <ele>98.5</ele>
        <time>2015-04-27T21:04:04.894Z</time>
      </trkpt>
      <trkpt lat="48.85025" lon="2.36403">
        <ele>98</ele>
        <time>2015-04-27T21:04:06.897Z</time>
      </trkpt>
      <trkpt lat="48.85028" lon="2.36399">
        <ele>97.9</ele>
        <time>2015-04-27T21:04:07.814Z</time>
      </trkpt>
      <trkpt lat="48.85035" lon="2.36393">
        <ele>98.3</ele>
        <time>2015-04-27T21:04:09.896Z</time>
      </trkpt>
      <trkpt lat="48.85038" lon="2.3639">
        <ele>98.5</ele>
        <time>2015-04-27T21:04:10.819Z</time>
      </trkpt>
      <trkpt lat="48.85045" lon="2.36385">
        <ele>98.3</ele>
        <time>2015-04-27T21:04:12.859Z</time>
      </trkpt>
      <trkpt lat="48.85047" lon="2.3638">
        <ele>98.2</ele>
        <time>2015-04-27T21:04:13.936Z</time>
      </trkpt>
      <trkpt lat="48.85054" lon="2.36373">
        <ele>98.4</ele>
        <time>2015-04-27T21:04:15.905Z</time>
      </trkpt>
      <trkpt lat="48.85057" lon="2.36369">
        <ele>98.4</ele>
        <time>2015-04-27T21:04:16.919Z</time>
      </trkpt>
      <trkpt lat="48.85063" lon="2.36362">
        <ele>98.4</ele>
        <time>2015-04-27T21:04:18.860Z</time>
      </trkpt>
      <trkpt lat="48.85066" lon="2.36358">
        <ele>98.4</ele>
        <time>2015-04-27T21:04:19.878Z</time>
      </trkpt>
      <trkpt lat="48.85073" lon="2.36353">
        <ele>98.9</ele>
        <time>2015-04-27T21:04:21.930Z</time>
      </trkpt>
      <trkpt lat="48.85076" lon="2.3635">
        <ele>99.1</ele>
        <time>2015-04-27T21:04:22.897Z</time>
      </trkpt>
      <trkpt lat="48.85083" lon="2.36343">
        <ele>98.8</ele>
        <time>2015-04-27T21:04:24.854Z</time>
      </trkpt>
      <trkpt lat="48.85085" lon="2.36339">
        <ele>98.4</ele>
        <time>2015-04-27T21:04:25.865Z</time>
      </trkpt>
      <trkpt lat="48.85088" lon="2.36327">
        <ele>97.5</ele>
        <time>2015-04-27T21:04:27.880Z</time>
      </trkpt>
      <trkpt lat="48.85091" lon="2.36322">
        <ele>97.4</ele>
        <time>2015-04-27T21:04:28.871Z</time>
      </trkpt>
      <trkpt lat="48.85094" lon="2.36312">
        <ele>96.8</ele>
        <time>2015-04-27T21:04:30.827Z</time>
      </trkpt>
      <trkpt lat="48.85095" lon="2.36307">
        <ele>96.1</ele>
        <time>2015-04-27T21:04:31.922Z</time>
      </trkpt>
      <trkpt lat="48.85101" lon="2.36298">
        <ele>94.6</ele>
        <time>2015-04-27T21:04:34.878Z</time>
      </trkpt>
      <trkpt lat="48.85103" lon="2.36294">
        <ele>94.2</ele>
        <time>2015-04-27T21:04:35.884Z</time>
      </trkpt>
      <trkpt lat="48.85109" lon="2.36284">
        <ele>93</ele>
        <time>2015-04-27T21:04:38.859Z</time>
      </trkpt>
      <trkpt lat="48.8511" lon="2.36281">
        <ele>92.8</ele>
        <time>2015-04-27T21:04:39.876Z</time>
      </trkpt>
      <trkpt lat="48.85114" lon="2.3627">
        <ele>93.1</ele>
        <time>2015-04-27T21:04:42.799Z</time>
      </trkpt>
      <trkpt lat="48.85116" lon="2.36268">
        <ele>92.9</ele>
        <time>2015-04-27T21:04:43.825Z</time>
      </trkpt>
      <trkpt lat="48.85115" lon="2.36269">
        <ele>91.2</ele>
        <time>2015-04-27T21:05:26.816Z</time>
      </trkpt>
      <trkpt lat="48.85124" lon="2.36253">
        <ele>88.2</ele>
        <time>2015-04-27T21:05:27.839Z</time>
      </trkpt>
      <trkpt lat="48.85127" lon="2.36241">
        <ele>88.4</ele>
        <time>2015-04-27T21:05:30.832Z</time>
      </trkpt>
      <trkpt lat="48.85129" lon="2.36237">
        <ele>88.4</ele>
        <time>2015-04-27T21:05:31.852Z</time>
      </trkpt>
      <trkpt lat="48.85133" lon="2.36227">
        <ele>88.2</ele>
        <time>2015-04-27T21:05:33.854Z</time>
      </trkpt>
      <trkpt lat="48.85135" lon="2.36221">
        <ele>88.2</ele>
        <time>2015-04-27T21:05:34.883Z</time>
      </trkpt>
      <trkpt lat="48.8514" lon="2.3621">
        <ele>87.7</ele>
        <time>2015-04-27T21:05:36.819Z</time>
      </trkpt>
      <trkpt lat="48.85143" lon="2.36205">
        <ele>87.5</ele>
        <time>2015-04-27T21:05:37.820Z</time>
      </trkpt>
      <trkpt lat="48.85148" lon="2.36196">
        <ele>87.5</ele>
        <time>2015-04-27T21:05:39.880Z</time>
      </trkpt>
      <trkpt lat="48.85151" lon="2.36192">
        <ele>87.5</ele>
        <time>2015-04-27T21:05:40.794Z</time>
      </trkpt>
      <trkpt lat="48.85155" lon="2.36188">
        <ele>87.8</ele>
        <time>2015-04-27T21:05:41.901Z</time>
      </trkpt>
      <trkpt lat="48.85158" lon="2.36182">
        <ele>87.8</ele>
        <time>2015-04-27T21:05:42.829Z</time>
      </trkpt>
      <trkpt lat="48.85164" lon="2.36173">
        <ele>87.8</ele>
        <time>2015-04-27T21:05:44.835Z</time>
      </trkpt>
      <trkpt lat="48.85166" lon="2.36167">
        <ele>87.6</ele>
        <time>2015-04-27T21:05:45.863Z</time>
      </trkpt>
      <trkpt lat="48.85173" lon="2.36159">
        <ele>87.8</ele>
        <time>2015-04-27T21:05:47.886Z</time>
      </trkpt>
      <trkpt lat="48.85176" lon="2.36156">
        <ele>87.9</ele>
        <time>2015-04-27T21:05:48.914Z</time>
      </trkpt>
      <trkpt lat="48.85182" lon="2.36152">
        <ele>87.8</ele>
        <time>2015-04-27T21:05:50.893Z</time>
      </trkpt>
      <trkpt lat="48.85186" lon="2.36151">
        <ele>88</ele>
        <time>2015-04-27T21:05:51.864Z</time>
      </trkpt>
      <trkpt lat="48.85193" lon="2.36145">
        <ele>88.2</ele>
        <time>2015-04-27T21:05:53.883Z</time>
      </trkpt>
      <trkpt lat="48.85195" lon="2.3614">
        <ele>87.9</ele>
        <time>2015-04-27T21:05:54.814Z</time>
      </trkpt>
      <trkpt lat="48.852" lon="2.36131">
        <ele>87.5</ele>
        <time>2015-04-27T21:05:56.843Z</time>
      </trkpt>
      <trkpt lat="48.85203" lon="2.36126">
        <ele>87.7</ele>
        <time>2015-04-27T21:05:57.873Z</time>
      </trkpt>
      <trkpt lat="48.85206" lon="2.36119">
        <ele>87.6</ele>
        <time>2015-04-27T21:05:58.884Z</time>
      </trkpt>
      <trkpt lat="48.85208" lon="2.36113">
        <ele>87.6</ele>
        <time>2015-04-27T21:05:59.804Z</time>
      </trkpt>
      <trkpt lat="48.85211" lon="2.36107">
        <ele>87.7</ele>
        <time>2015-04-27T21:06:00.953Z</time>
      </trkpt>
      <trkpt lat="48.85212" lon="2.361">
        <ele>87.7</ele>
        <time>2015-04-27T21:06:01.829Z</time>
      </trkpt>
      <trkpt lat="48.85214" lon="2.36093">
        <ele>87.9</ele>
        <time>2015-04-27T21:06:02.838Z</time>
      </trkpt>
      <trkpt lat="48.85215" lon="2.36087">
        <ele>88.1</ele>
        <time>2015-04-27T21:06:03.930Z</time>
      </trkpt>
      <trkpt lat="48.85219" lon="2.36075">
        <ele>88.6</ele>
        <time>2015-04-27T21:06:05.965Z</time>
      </trkpt>
      <trkpt lat="48.8522" lon="2.36069">
        <ele>88.7</ele>
        <time>2015-04-27T21:06:06.827Z</time>
      </trkpt>
      <trkpt lat="48.85223" lon="2.36057">
        <ele>89.4</ele>
        <time>2015-04-27T21:06:08.867Z</time>
      </trkpt>
      <trkpt lat="48.85224" lon="2.36051">
        <ele>89.9</ele>
        <time>2015-04-27T21:06:09.881Z</time>
      </trkpt>
      <trkpt lat="48.85225" lon="2.36043">
        <ele>91</ele>
        <time>2015-04-27T21:06:11.208Z</time>
      </trkpt>
      <trkpt lat="48.85227" lon="2.36038">
        <ele>91.6</ele>
        <time>2015-04-27T21:06:11.905Z</time>
      </trkpt>
      <trkpt lat="48.85233" lon="2.36028">
        <ele>92.5</ele>
        <time>2015-04-27T21:06:14.908Z</time>
      </trkpt>
      <trkpt lat="48.85235" lon="2.36025">
        <ele>92.3</ele>
        <time>2015-04-27T21:06:15.924Z</time>
      </trkpt>
      <trkpt lat="48.8524" lon="2.36018">
        <ele>92.3</ele>
        <time>2015-04-27T21:06:17.816Z</time>
      </trkpt>
      <trkpt lat="48.85241" lon="2.36013">
        <ele>92.5</ele>
        <time>2015-04-27T21:06:18.835Z</time>
      </trkpt>
      <trkpt lat="48.85244" lon="2.36002">
        <ele>92.8</ele>
        <time>2015-04-27T21:06:21.484Z</time>
      </trkpt>
      <trkpt lat="48.85246" lon="2.35998">
        <ele>93.1</ele>
        <time>2015-04-27T21:06:21.868Z</time>
      </trkpt>
      <trkpt lat="48.8525" lon="2.35988">
        <ele>93.4</ele>
        <time>2015-04-27T21:06:23.882Z</time>
      </trkpt>
      <trkpt lat="48.85251" lon="2.35984">
        <ele>93.6</ele>
        <time>2015-04-27T21:06:24.799Z</time>
      </trkpt>
      <trkpt lat="48.85254" lon="2.35975">
        <ele>94.1</ele>
        <time>2015-04-27T21:06:26.814Z</time>
      </trkpt>
      <trkpt lat="48.85255" lon="2.3597">
        <ele>94.4</ele>
        <time>2015-04-27T21:06:27.833Z</time>
      </trkpt>
      <trkpt lat="48.85258" lon="2.3596">
        <ele>94.7</ele>
        <time>2015-04-27T21:06:29.927Z</time>
      </trkpt>
      <trkpt lat="48.8526" lon="2.35954">
        <ele>95.1</ele>
        <time>2015-04-27T21:06:30.803Z</time>
      </trkpt>
      <trkpt lat="48.85262" lon="2.35941">
        <ele>95.5</ele>
        <time>2015-04-27T21:06:32.824Z</time>
      </trkpt>
      <trkpt lat="48.85264" lon="2.35937">
        <ele>95.6</ele>
        <time>2015-04-27T21:06:33.901Z</time>
      </trkpt>
      <trkpt lat="48.85268" lon="2.35929">
        <ele>95.5</ele>
        <time>2015-04-27T21:06:35.938Z</time>
      </trkpt>
      <trkpt lat="48.85271" lon="2.35924">
        <ele>95.6</ele>
        <time>2015-04-27T21:06:36.823Z</time>
      </trkpt>
      <trkpt lat="48.85274" lon="2.35915">
        <ele>96.1</ele>
        <time>2015-04-27T21:06:38.843Z</time>
      </trkpt>
      <trkpt lat="48.85276" lon="2.35911">
        <ele>96.1</ele>
        <time>2015-04-27T21:06:39.868Z</time>
      </trkpt>
      <trkpt lat="48.85278" lon="2.35902">
        <ele>96.1</ele>
        <time>2015-04-27T21:06:41.848Z</time>
      </trkpt>
      <trkpt lat="48.8528" lon="2.35897">
        <ele>96.6</ele>
        <time>2015-04-27T21:06:42.832Z</time>
      </trkpt>
      <trkpt lat="48.85285" lon="2.35889">
        <ele>97.3</ele>
        <time>2015-04-27T21:06:44.795Z</time>
      </trkpt>
      <trkpt lat="48.85287" lon="2.35885">
        <ele>97.4</ele>
        <time>2015-04-27T21:06:45.847Z</time>
      </trkpt>
      <trkpt lat="48.8529" lon="2.35874">
        <ele>97.9</ele>
        <time>2015-04-27T21:06:47.802Z</time>
      </trkpt>
      <trkpt lat="48.85291" lon="2.35869">
        <ele>97.9</ele>
        <time>2015-04-27T21:06:48.853Z</time>
      </trkpt>
      <trkpt lat="48.85293" lon="2.3586">
        <ele>98.6</ele>
        <time>2015-04-27T21:06:51.519Z</time>
      </trkpt>
      <trkpt lat="48.85293" lon="2.35854">
        <ele>99</ele>
        <time>2015-04-27T21:06:51.865Z</time>
      </trkpt>
      <trkpt lat="48.85296" lon="2.35845">
        <ele>98.9</ele>
        <time>2015-04-27T21:06:53.855Z</time>
      </trkpt>
      <trkpt lat="48.85298" lon="2.35841">
        <ele>98.4</ele>
        <time>2015-04-27T21:06:55.026Z</time>
      </trkpt>
      <trkpt lat="48.85301" lon="2.35832">
        <ele>98</ele>
        <time>2015-04-27T21:06:56.678Z</time>
      </trkpt>
      <trkpt lat="48.85303" lon="2.35827">
        <ele>98.1</ele>
        <time>2015-04-27T21:06:57.900Z</time>
      </trkpt>
      <trkpt lat="48.85307" lon="2.35815">
        <ele>98.1</ele>
        <time>2015-04-27T21:07:01.801Z</time>
      </trkpt>
      <trkpt lat="48.85308" lon="2.35812">
        <ele>98</ele>
        <time>2015-04-27T21:07:01.871Z</time>
      </trkpt>
      <trkpt lat="48.85315" lon="2.35809">
        <ele>96.2</ele>
        <time>2015-04-27T21:07:03.923Z</time>
      </trkpt>
      <trkpt lat="48.85318" lon="2.35807">
        <ele>95.5</ele>
        <time>2015-04-27T21:07:04.837Z</time>
      </trkpt>
      <trkpt lat="48.85322" lon="2.358">
        <ele>94.4</ele>
        <time>2015-04-27T21:07:06.932Z</time>
      </trkpt>
      <trkpt lat="48.85324" lon="2.35796">
        <ele>94.6</ele>
        <time>2015-04-27T21:07:07.858Z</time>
      </trkpt>
      <trkpt lat="48.85326" lon="2.35786">
        <ele>94.9</ele>
        <time>2015-04-27T21:07:10.858Z</time>
      </trkpt>
      <trkpt lat="48.85327" lon="2.35782">
        <ele>95.2</ele>
        <time>2015-04-27T21:07:11.880Z</time>
      </trkpt>
      <trkpt lat="48.8533" lon="2.3577">
        <ele>96.2</ele>
        <time>2015-04-27T21:07:15.903Z</time>
      </trkpt>
      <trkpt lat="48.85331" lon="2.35768">
        <ele>96.1</ele>
        <time>2015-04-27T21:07:16.802Z</time>
      </trkpt>
      <trkpt lat="48.85336" lon="2.35756">
        <ele>95.6</ele>
        <time>2015-04-27T21:07:22.308Z</time>
      </trkpt>
      <trkpt lat="48.85337" lon="2.35754">
        <ele>95.4</ele>
        <time>2015-04-27T21:07:22.929Z</time>
      </trkpt>
      <trkpt lat="48.85339" lon="2.35746">
        <ele>94.7</ele>
        <time>2015-04-27T21:07:25.832Z</time>
      </trkpt>
      <trkpt lat="48.85341" lon="2.35742">
        <ele>94.7</ele>
        <time>2015-04-27T21:07:26.844Z</time>
      </trkpt>
      <trkpt lat="48.85344" lon="2.35734">
        <ele>94.7</ele>
        <time>2015-04-27T21:07:28.864Z</time>
      </trkpt>
      <trkpt lat="48.85346" lon="2.3573">
        <ele>94.6</ele>
        <time>2015-04-27T21:07:29.872Z</time>
      </trkpt>
      <trkpt lat="48.8535" lon="2.35721">
        <ele>94.5</ele>
        <time>2015-04-27T21:07:32.502Z</time>
      </trkpt>
      <trkpt lat="48.85352" lon="2.35716">
        <ele>94.4</ele>
        <time>2015-04-27T21:07:32.833Z</time>
      </trkpt>
      <trkpt lat="48.85357" lon="2.35706">
        <ele>94.3</ele>
        <time>2015-04-27T21:07:34.870Z</time>
      </trkpt>
      <trkpt lat="48.85359" lon="2.357">
        <ele>94.5</ele>
        <time>2015-04-27T21:07:35.903Z</time>
      </trkpt>
      <trkpt lat="48.85363" lon="2.35688">
        <ele>94.7</ele>
        <time>2015-04-27T21:07:37.832Z</time>
      </trkpt>
      <trkpt lat="48.85365" lon="2.35683">
        <ele>94.7</ele>
        <time>2015-04-27T21:07:38.835Z</time>
      </trkpt>
      <trkpt lat="48.85371" lon="2.35676">
        <ele>94</ele>
        <time>2015-04-27T21:07:41.241Z</time>
      </trkpt>
      <trkpt lat="48.85373" lon="2.35673">
        <ele>94.3</ele>
        <time>2015-04-27T21:07:41.833Z</time>
      </trkpt>
      <trkpt lat="48.85379" lon="2.35666">
        <ele>93.8</ele>
        <time>2015-04-27T21:07:43.853Z</time>
      </trkpt>
      <trkpt lat="48.85381" lon="2.35664">
        <ele>93.6</ele>
        <time>2015-04-27T21:07:44.860Z</time>
      </trkpt>
      <trkpt lat="48.85383" lon="2.35653">
        <ele>93.8</ele>
        <time>2015-04-27T21:07:46.897Z</time>
      </trkpt>
      <trkpt lat="48.85383" lon="2.35643">
        <ele>93.5</ele>
        <time>2015-04-27T21:07:47.904Z</time>
      </trkpt>
      <trkpt lat="48.85384" lon="2.35636">
        <ele>93.4</ele>
        <time>2015-04-27T21:07:48.802Z</time>
      </trkpt>
      <trkpt lat="48.85386" lon="2.3563">
        <ele>93.4</ele>
        <time>2015-04-27T21:07:49.833Z</time>
      </trkpt>
      <trkpt lat="48.85391" lon="2.3562">
        <ele>92.8</ele>
        <time>2015-04-27T21:07:51.866Z</time>
      </trkpt>
      <trkpt lat="48.85393" lon="2.35615">
        <ele>92.2</ele>
        <time>2015-04-27T21:07:52.932Z</time>
      </trkpt>
      <trkpt lat="48.85399" lon="2.35605">
        <ele>91.3</ele>
        <time>2015-04-27T21:07:55.055Z</time>
      </trkpt>
      <trkpt lat="48.85401" lon="2.35599">
        <ele>91.1</ele>
        <time>2015-04-27T21:07:55.895Z</time>
      </trkpt>
      <trkpt lat="48.85404" lon="2.35587">
        <ele>90.5</ele>
        <time>2015-04-27T21:07:57.919Z</time>
      </trkpt>
      <trkpt lat="48.85405" lon="2.35581">
        <ele>90.4</ele>
        <time>2015-04-27T21:07:58.793Z</time>
      </trkpt>
      <trkpt lat="48.85407" lon="2.35574">
        <ele>90.7</ele>
        <time>2015-04-27T21:07:59.861Z</time>
      </trkpt>
      <trkpt lat="48.85409" lon="2.35567">
        <ele>90.6</ele>
        <time>2015-04-27T21:08:00.883Z</time>
      </trkpt>
      <trkpt lat="48.85415" lon="2.35558">
        <ele>90.1</ele>
        <time>2015-04-27T21:08:02.830Z</time>
      </trkpt>
      <trkpt lat="48.85417" lon="2.35552">
        <ele>90.1</ele>
        <time>2015-04-27T21:08:03.871Z</time>
      </trkpt>
      <trkpt lat="48.85422" lon="2.35542">
        <ele>89.9</ele>
        <time>2015-04-27T21:08:06.783Z</time>
      </trkpt>
      <trkpt lat="48.85424" lon="2.35537">
        <ele>89.8</ele>
        <time>2015-04-27T21:08:06.891Z</time>
      </trkpt>
      <trkpt lat="48.85429" lon="2.35526">
        <ele>89.6</ele>
        <time>2015-04-27T21:08:08.818Z</time>
      </trkpt>
      <trkpt lat="48.85431" lon="2.35521">
        <ele>89.6</ele>
        <time>2015-04-27T21:08:09.866Z</time>
      </trkpt>
      <trkpt lat="48.85435" lon="2.35512">
        <ele>89.7</ele>
        <time>2015-04-27T21:08:11.846Z</time>
      </trkpt>
      <trkpt lat="48.85436" lon="2.35507">
        <ele>89.8</ele>
        <time>2015-04-27T21:08:12.830Z</time>
      </trkpt>
      <trkpt lat="48.85439" lon="2.35496">
        <ele>90.5</ele>
        <time>2015-04-27T21:08:14.898Z</time>
      </trkpt>
      <trkpt lat="48.85441" lon="2.3549">
        <ele>91</ele>
        <time>2015-04-27T21:08:15.937Z</time>
      </trkpt>
      <trkpt lat="48.85444" lon="2.3548">
        <ele>91.1</ele>
        <time>2015-04-27T21:08:17.832Z</time>
      </trkpt>
      <trkpt lat="48.85447" lon="2.35476">
        <ele>91.1</ele>
        <time>2015-04-27T21:08:18.837Z</time>
      </trkpt>
      <trkpt lat="48.85451" lon="2.35465">
        <ele>91.1</ele>
        <time>2015-04-27T21:08:20.861Z</time>
      </trkpt>
      <trkpt lat="48.85453" lon="2.35459">
        <ele>91.1</ele>
        <time>2015-04-27T21:08:22.002Z</time>
      </trkpt>
      <trkpt lat="48.85455" lon="2.35453">
        <ele>91.3</ele>
        <time>2015-04-27T21:08:22.802Z</time>
      </trkpt>
      <trkpt lat="48.85457" lon="2.35447">
        <ele>91.3</ele>
        <time>2015-04-27T21:08:23.814Z</time>
      </trkpt>
      <trkpt lat="48.85462" lon="2.35436">
        <ele>91</ele>
        <time>2015-04-27T21:08:25.835Z</time>
      </trkpt>
      <trkpt lat="48.85464" lon="2.35431">
        <ele>91</ele>
        <time>2015-04-27T21:08:26.845Z</time>
      </trkpt>
      <trkpt lat="48.85467" lon="2.35425">
        <ele>91</ele>
        <time>2015-04-27T21:08:27.936Z</time>
      </trkpt>
      <trkpt lat="48.8547" lon="2.35419">
        <ele>91.3</ele>
        <time>2015-04-27T21:08:28.798Z</time>
      </trkpt>
      <trkpt lat="48.85472" lon="2.35412">
        <ele>91.5</ele>
        <time>2015-04-27T21:08:29.808Z</time>
      </trkpt>
      <trkpt lat="48.85474" lon="2.35405">
        <ele>91.5</ele>
        <time>2015-04-27T21:08:30.832Z</time>
      </trkpt>
      <trkpt lat="48.8548" lon="2.35394">
        <ele>91.5</ele>
        <time>2015-04-27T21:08:32.833Z</time>
      </trkpt>
      <trkpt lat="48.85482" lon="2.35389">
        <ele>91.3</ele>
        <time>2015-04-27T21:08:33.869Z</time>
      </trkpt>
      <trkpt lat="48.85486" lon="2.35377">
        <ele>92</ele>
        <time>2015-04-27T21:08:35.828Z</time>
      </trkpt>
      <trkpt lat="48.85488" lon="2.35371">
        <ele>92.1</ele>
        <time>2015-04-27T21:08:36.869Z</time>
      </trkpt>
      <trkpt lat="48.8549" lon="2.35365">
        <ele>92.3</ele>
        <time>2015-04-27T21:08:37.869Z</time>
      </trkpt>
      <trkpt lat="48.85492" lon="2.35359">
        <ele>92.4</ele>
        <time>2015-04-27T21:08:38.895Z</time>
      </trkpt>
      <trkpt lat="48.85496" lon="2.35349">
        <ele>92.6</ele>
        <time>2015-04-27T21:08:40.808Z</time>
      </trkpt>
      <trkpt lat="48.85498" lon="2.35343">
        <ele>92.9</ele>
        <time>2015-04-27T21:08:41.834Z</time>
      </trkpt>
      <trkpt lat="48.85502" lon="2.35332">
        <ele>93.5</ele>
        <time>2015-04-27T21:08:43.875Z</time>
      </trkpt>
      <trkpt lat="48.85505" lon="2.35326">
        <ele>93.6</ele>
        <time>2015-04-27T21:08:44.924Z</time>
      </trkpt>
      <trkpt lat="48.85508" lon="2.35315">
        <ele>93.4</ele>
        <time>2015-04-27T21:08:46.898Z</time>
      </trkpt>
      <trkpt lat="48.85512" lon="2.35312">
        <ele>92.7</ele>
        <time>2015-04-27T21:08:47.817Z</time>
      </trkpt>
      <trkpt lat="48.85517" lon="2.35302">
        <ele>92.1</ele>
        <time>2015-04-27T21:08:49.849Z</time>
      </trkpt>
      <trkpt lat="48.85521" lon="2.353">
        <ele>90.9</ele>
        <time>2015-04-27T21:08:50.863Z</time>
      </trkpt>
      <trkpt lat="48.85526" lon="2.35291">
        <ele>90.8</ele>
        <time>2015-04-27T21:08:52.922Z</time>
      </trkpt>
      <trkpt lat="48.85528" lon="2.35286">
        <ele>90.7</ele>
        <time>2015-04-27T21:08:53.944Z</time>
      </trkpt>
      <trkpt lat="48.85532" lon="2.35277">
        <ele>91.5</ele>
        <time>2015-04-27T21:08:55.824Z</time>
      </trkpt>
      <trkpt lat="48.85534" lon="2.35272">
        <ele>91.7</ele>
        <time>2015-04-27T21:08:56.850Z</time>
      </trkpt>
      <trkpt lat="48.85537" lon="2.35263">
        <ele>91.8</ele>
        <time>2015-04-27T21:08:58.877Z</time>
      </trkpt>
      <trkpt lat="48.85538" lon="2.35256">
        <ele>91.9</ele>
        <time>2015-04-27T21:08:59.843Z</time>
      </trkpt>
      <trkpt lat="48.8554" lon="2.35244">
        <ele>91.6</ele>
        <time>2015-04-27T21:09:01.874Z</time>
      </trkpt>
      <trkpt lat="48.8554" lon="2.35236">
        <ele>91.7</ele>
        <time>2015-04-27T21:09:02.897Z</time>
      </trkpt>
      <trkpt lat="48.85541" lon="2.35228">
        <ele>91.9</ele>
        <time>2015-04-27T21:09:03.933Z</time>
      </trkpt>
      <trkpt lat="48.85544" lon="2.35222">
        <ele>92</ele>
        <time>2015-04-27T21:09:04.811Z</time>
      </trkpt>
      <trkpt lat="48.85546" lon="2.35216">
        <ele>92.2</ele>
        <time>2015-04-27T21:09:05.835Z</time>
      </trkpt>
      <trkpt lat="48.85549" lon="2.3521">
        <ele>92.1</ele>
        <time>2015-04-27T21:09:06.827Z</time>
      </trkpt>
      <trkpt lat="48.85552" lon="2.35204">
        <ele>92.2</ele>
        <time>2015-04-27T21:09:07.850Z</time>
      </trkpt>
      <trkpt lat="48.85555" lon="2.35197">
        <ele>92.4</ele>
        <time>2015-04-27T21:09:08.854Z</time>
      </trkpt>
      <trkpt lat="48.85557" lon="2.35189">
        <ele>92.9</ele>
        <time>2015-04-27T21:09:09.870Z</time>
      </trkpt>
      <trkpt lat="48.85559" lon="2.35182">
        <ele>93.1</ele>
        <time>2015-04-27T21:09:10.892Z</time>
      </trkpt>
      <trkpt lat="48.85562" lon="2.35176">
        <ele>93.4</ele>
        <time>2015-04-27T21:09:11.821Z</time>
      </trkpt>
      <trkpt lat="48.85564" lon="2.3517">
        <ele>93.6</ele>
        <time>2015-04-27T21:09:12.827Z</time>
      </trkpt>
      <trkpt lat="48.85567" lon="2.35163">
        <ele>93.3</ele>
        <time>2015-04-27T21:09:13.900Z</time>
      </trkpt>
      <trkpt lat="48.8557" lon="2.35157">
        <ele>93</ele>
        <time>2015-04-27T21:09:14.807Z</time>
      </trkpt>
      <trkpt lat="48.85572" lon="2.3515">
        <ele>92.7</ele>
        <time>2015-04-27T21:09:15.836Z</time>
      </trkpt>
      <trkpt lat="48.85574" lon="2.35144">
        <ele>92.6</ele>
        <time>2015-04-27T21:09:16.840Z</time>
      </trkpt>
      <trkpt lat="48.85579" lon="2.35133">
        <ele>92</ele>
        <time>2015-04-27T21:09:18.857Z</time>
      </trkpt>
      <trkpt lat="48.85581" lon="2.35126">
        <ele>92.1</ele>
        <time>2015-04-27T21:09:19.862Z</time>
      </trkpt>
      <trkpt lat="48.85582" lon="2.3512">
        <ele>92.4</ele>
        <time>2015-04-27T21:09:20.881Z</time>
      </trkpt>
      <trkpt lat="48.85584" lon="2.35113">
        <ele>92.6</ele>
        <time>2015-04-27T21:09:21.903Z</time>
      </trkpt>
      <trkpt lat="48.85587" lon="2.35101">
        <ele>92.5</ele>
        <time>2015-04-27T21:09:23.840Z</time>
      </trkpt>
      <trkpt lat="48.85588" lon="2.35095">
        <ele>92.6</ele>
        <time>2015-04-27T21:09:24.848Z</time>
      </trkpt>
      <trkpt lat="48.85591" lon="2.35084">
        <ele>92.9</ele>
        <time>2015-04-27T21:09:26.842Z</time>
      </trkpt>
      <trkpt lat="48.85594" lon="2.35079">
        <ele>93.4</ele>
        <time>2015-04-27T21:09:27.881Z</time>
      </trkpt>
      <trkpt lat="48.85599" lon="2.3507">
        <ele>93.8</ele>
        <time>2015-04-27T21:09:29.826Z</time>
      </trkpt>
      <trkpt lat="48.85601" lon="2.35066">
        <ele>94.1</ele>
        <time>2015-04-27T21:09:30.835Z</time>
      </trkpt>
      <trkpt lat="48.85607" lon="2.35061">
        <ele>94.8</ele>
        <time>2015-04-27T21:09:32.819Z</time>
      </trkpt>
      <trkpt lat="48.85612" lon="2.35067">
        <ele>94.8</ele>
        <time>2015-04-27T21:09:33.835Z</time>
      </trkpt>
      <trkpt lat="48.85618" lon="2.35074">
        <ele>94.6</ele>
        <time>2015-04-27T21:09:34.796Z</time>
      </trkpt>
      <trkpt lat="48.85622" lon="2.35078">
        <ele>94.6</ele>
        <time>2015-04-27T21:09:35.818Z</time>
      </trkpt>
      <trkpt lat="48.85628" lon="2.35082">
        <ele>94.6</ele>
        <time>2015-04-27T21:09:36.849Z</time>
      </trkpt>
      <trkpt lat="48.85632" lon="2.35084">
        <ele>94.7</ele>
        <time>2015-04-27T21:09:37.859Z</time>
      </trkpt>
      <trkpt lat="48.85638" lon="2.35085">
        <ele>94.8</ele>
        <time>2015-04-27T21:09:38.866Z</time>
      </trkpt>
      <trkpt lat="48.85642" lon="2.35086">
        <ele>94.8</ele>
        <time>2015-04-27T21:09:39.893Z</time>
      </trkpt>
      <trkpt lat="48.85646" lon="2.35087">
        <ele>94.8</ele>
        <time>2015-04-27T21:09:40.815Z</time>
      </trkpt>
      <trkpt lat="48.85651" lon="2.35089">
        <ele>94.9</ele>
        <time>2015-04-27T21:09:41.829Z</time>
      </trkpt>
      <trkpt lat="48.85656" lon="2.35091">
        <ele>95</ele>
        <time>2015-04-27T21:09:42.836Z</time>
      </trkpt>
      <trkpt lat="48.85661" lon="2.35093">
        <ele>95.1</ele>
        <time>2015-04-27T21:09:43.840Z</time>
      </trkpt>
      <trkpt lat="48.85668" lon="2.35094">
        <ele>94.9</ele>
        <time>2015-04-27T21:09:44.842Z</time>
      </trkpt>
      <trkpt lat="48.85672" lon="2.35094">
        <ele>94.9</ele>
        <time>2015-04-27T21:09:45.858Z</time>
      </trkpt>
      <trkpt lat="48.85678" lon="2.35089">
        <ele>94</ele>
        <time>2015-04-27T21:09:47.891Z</time>
      </trkpt>
      <trkpt lat="48.8568" lon="2.35085">
        <ele>93.9</ele>
        <time>2015-04-27T21:09:48.919Z</time>
      </trkpt>
      <trkpt lat="48.85684" lon="2.35075">
        <ele>93.8</ele>
        <time>2015-04-27T21:09:51.054Z</time>
      </trkpt>
      <trkpt lat="48.85687" lon="2.35069">
        <ele>93.4</ele>
        <time>2015-04-27T21:09:51.832Z</time>
      </trkpt>
      <trkpt lat="48.85691" lon="2.35058">
        <ele>92.8</ele>
        <time>2015-04-27T21:09:53.874Z</time>
      </trkpt>
      <trkpt lat="48.85692" lon="2.35052">
        <ele>92.9</ele>
        <time>2015-04-27T21:09:54.898Z</time>
      </trkpt>
      <trkpt lat="48.85693" lon="2.35045">
        <ele>93</ele>
        <time>2015-04-27T21:09:55.824Z</time>
      </trkpt>
      <trkpt lat="48.85695" lon="2.35038">
        <ele>93.1</ele>
        <time>2015-04-27T21:09:56.834Z</time>
      </trkpt>
      <trkpt lat="48.85695" lon="2.35031">
        <ele>93.5</ele>
        <time>2015-04-27T21:09:57.857Z</time>
      </trkpt>
      <trkpt lat="48.85695" lon="2.35024">
        <ele>93.6</ele>
        <time>2015-04-27T21:09:58.868Z</time>
      </trkpt>
      <trkpt lat="48.85698" lon="2.35011">
        <ele>94.1</ele>
        <time>2015-04-27T21:10:00.818Z</time>
      </trkpt>
      <trkpt lat="48.85699" lon="2.35004">
        <ele>94.2</ele>
        <time>2015-04-27T21:10:01.822Z</time>
      </trkpt>
      <trkpt lat="48.857" lon="2.34998">
        <ele>94.3</ele>
        <time>2015-04-27T21:10:02.877Z</time>
      </trkpt>
      <trkpt lat="48.85701" lon="2.34991">
        <ele>94.7</ele>
        <time>2015-04-27T21:10:03.891Z</time>
      </trkpt>
      <trkpt lat="48.85703" lon="2.34978">
        <ele>95.3</ele>
        <time>2015-04-27T21:10:05.822Z</time>
      </trkpt>
      <trkpt lat="48.85705" lon="2.34972">
        <ele>95.5</ele>
        <time>2015-04-27T21:10:06.862Z</time>
      </trkpt>
      <trkpt lat="48.85708" lon="2.34962">
        <ele>96</ele>
        <time>2015-04-27T21:10:08.824Z</time>
      </trkpt>
      <trkpt lat="48.85711" lon="2.34959">
        <ele>96.3</ele>
        <time>2015-04-27T21:10:09.846Z</time>
      </trkpt>
      <trkpt lat="48.85717" lon="2.34961">
        <ele>96.1</ele>
        <time>2015-04-27T21:10:11.853Z</time>
      </trkpt>
      <trkpt lat="48.8572" lon="2.34966">
        <ele>95.7</ele>
        <time>2015-04-27T21:10:12.888Z</time>
      </trkpt>
      <trkpt lat="48.85725" lon="2.34957">
        <ele>93.8</ele>
        <time>2015-04-27T21:10:36.819Z</time>
      </trkpt>
      <trkpt lat="48.85726" lon="2.34953">
        <ele>93.9</ele>
        <time>2015-04-27T21:10:37.857Z</time>
      </trkpt>
      <trkpt lat="48.85729" lon="2.34944">
        <ele>93</ele>
        <time>2015-04-27T21:10:39.828Z</time>
      </trkpt>
      <trkpt lat="48.85732" lon="2.34938">
        <ele>91.9</ele>
        <time>2015-04-27T21:10:40.886Z</time>
      </trkpt>
      <trkpt lat="48.85734" lon="2.34926">
        <ele>91.4</ele>
        <time>2015-04-27T21:10:42.821Z</time>
      </trkpt>
      <trkpt lat="48.85735" lon="2.34919">
        <ele>91.2</ele>
        <time>2015-04-27T21:10:43.847Z</time>
      </trkpt>
      <trkpt lat="48.85736" lon="2.34906">
        <ele>91.4</ele>
        <time>2015-04-27T21:10:45.902Z</time>
      </trkpt>
      <trkpt lat="48.85737" lon="2.34901">
        <ele>91.4</ele>
        <time>2015-04-27T21:10:46.918Z</time>
      </trkpt>
      <trkpt lat="48.8574" lon="2.34892">
        <ele>92.1</ele>
        <time>2015-04-27T21:10:48.818Z</time>
      </trkpt>
      <trkpt lat="48.85742" lon="2.34887">
        <ele>92.4</ele>
        <time>2015-04-27T21:10:49.823Z</time>
      </trkpt>
      <trkpt lat="48.85746" lon="2.34877">
        <ele>92.8</ele>
        <time>2015-04-27T21:10:51.921Z</time>
      </trkpt>
      <trkpt lat="48.85747" lon="2.3487">
        <ele>93</ele>
        <time>2015-04-27T21:10:52.814Z</time>
      </trkpt>
      <trkpt lat="48.85748" lon="2.34864">
        <ele>93.2</ele>
        <time>2015-04-27T21:10:53.870Z</time>
      </trkpt>
      <trkpt lat="48.85748" lon="2.34857">
        <ele>93.3</ele>
        <time>2015-04-27T21:10:54.886Z</time>
      </trkpt>
      <trkpt lat="48.85749" lon="2.3485">
        <ele>93.4</ele>
        <time>2015-04-27T21:10:55.797Z</time>
      </trkpt>
      <trkpt lat="48.85749" lon="2.34842">
        <ele>93.1</ele>
        <time>2015-04-27T21:10:56.817Z</time>
      </trkpt>
      <trkpt lat="48.8575" lon="2.34835">
        <ele>93</ele>
        <time>2015-04-27T21:10:57.876Z</time>
      </trkpt>
      <trkpt lat="48.8575" lon="2.34828">
        <ele>93</ele>
        <time>2015-04-27T21:10:58.892Z</time>
      </trkpt>
      <trkpt lat="48.85753" lon="2.34816">
        <ele>93.1</ele>
        <time>2015-04-27T21:11:00.813Z</time>
      </trkpt>
      <trkpt lat="48.85754" lon="2.34809">
        <ele>93.1</ele>
        <time>2015-04-27T21:11:01.840Z</time>
      </trkpt>
      <trkpt lat="48.85756" lon="2.34798">
        <ele>92.8</ele>
        <time>2015-04-27T21:11:03.916Z</time>
      </trkpt>
      <trkpt lat="48.85757" lon="2.34793">
        <ele>92.8</ele>
        <time>2015-04-27T21:11:04.793Z</time>
      </trkpt>
      <trkpt lat="48.85761" lon="2.34783">
        <ele>93.2</ele>
        <time>2015-04-27T21:11:06.818Z</time>
      </trkpt>
      <trkpt lat="48.85763" lon="2.34777">
        <ele>93.6</ele>
        <time>2015-04-27T21:11:07.910Z</time>
      </trkpt>
      <trkpt lat="48.85766" lon="2.34767">
        <ele>93.6</ele>
        <time>2015-04-27T21:11:09.852Z</time>
      </trkpt>
      <trkpt lat="48.85768" lon="2.34763">
        <ele>93.2</ele>
        <time>2015-04-27T21:11:10.855Z</time>
      </trkpt>
      <trkpt lat="48.85772" lon="2.34755">
        <ele>93</ele>
        <time>2015-04-27T21:11:12.867Z</time>
      </trkpt>
      <trkpt lat="48.85774" lon="2.34751">
        <ele>92.9</ele>
        <time>2015-04-27T21:11:13.871Z</time>
      </trkpt>
      <trkpt lat="48.85776" lon="2.34741">
        <ele>93.4</ele>
        <time>2015-04-27T21:11:15.826Z</time>
      </trkpt>
      <trkpt lat="48.85778" lon="2.34736">
        <ele>93.6</ele>
        <time>2015-04-27T21:11:16.851Z</time>
      </trkpt>
      <trkpt lat="48.85781" lon="2.34724">
        <ele>94.6</ele>
        <time>2015-04-27T21:11:18.878Z</time>
      </trkpt>
      <trkpt lat="48.85783" lon="2.34719">
        <ele>95</ele>
        <time>2015-04-27T21:11:19.890Z</time>
      </trkpt>
      <trkpt lat="48.8579" lon="2.34715">
        <ele>95.8</ele>
        <time>2015-04-27T21:11:21.909Z</time>
      </trkpt>
      <trkpt lat="48.85794" lon="2.34715">
        <ele>96</ele>
        <time>2015-04-27T21:11:22.923Z</time>
      </trkpt>
      <trkpt lat="48.85803" lon="2.34716">
        <ele>97.2</ele>
        <time>2015-04-27T21:11:25.867Z</time>
      </trkpt>
      <trkpt lat="48.85805" lon="2.34716">
        <ele>97.5</ele>
        <time>2015-04-27T21:11:26.900Z</time>
      </trkpt>
      <trkpt lat="48.85814" lon="2.34718">
        <ele>98.8</ele>
        <time>2015-04-27T21:11:30.877Z</time>
      </trkpt>
      <trkpt lat="48.85816" lon="2.34719">
        <ele>99</ele>
        <time>2015-04-27T21:11:31.973Z</time>
      </trkpt>
      <trkpt lat="48.85821" lon="2.34722">
        <ele>99.6</ele>
        <time>2015-04-27T21:11:33.849Z</time>
      </trkpt>
      <trkpt lat="48.85825" lon="2.34724">
        <ele>99.6</ele>
        <time>2015-04-27T21:11:34.854Z</time>
      </trkpt>
      <trkpt lat="48.85833" lon="2.34731">
        <ele>99.4</ele>
        <time>2015-04-27T21:11:36.864Z</time>
      </trkpt>
      <trkpt lat="48.85839" lon="2.34734">
        <ele>98.5</ele>
        <time>2015-04-27T21:11:37.815Z</time>
      </trkpt>
      <trkpt lat="48.85846" lon="2.34737">
        <ele>97.3</ele>
        <time>2015-04-27T21:11:38.869Z</time>
      </trkpt>
      <trkpt lat="48.85851" lon="2.34737">
        <ele>96.5</ele>
        <time>2015-04-27T21:11:39.880Z</time>
      </trkpt>
      <trkpt lat="48.85858" lon="2.34739">
        <ele>95.6</ele>
        <time>2015-04-27T21:11:41.788Z</time>
      </trkpt>
      <trkpt lat="48.85861" lon="2.34742">
        <ele>96</ele>
        <time>2015-04-27T21:11:42.801Z</time>
      </trkpt>
      <trkpt lat="48.85862" lon="2.34744">
        <ele>96.2</ele>
        <time>2015-04-27T21:11:43.909Z</time>
      </trkpt>
      <trkpt lat="48.85863" lon="2.34745">
        <ele>96.7</ele>
        <time>2015-04-27T21:11:46.898Z</time>
      </trkpt>
      <trkpt lat="48.85868" lon="2.34747">
        <ele>98.1</ele>
        <time>2015-04-27T21:11:47.796Z</time>
      </trkpt>
      <trkpt lat="48.85873" lon="2.34748">
        <ele>98.8</ele>
        <time>2015-04-27T21:11:51.850Z</time>
      </trkpt>
      <trkpt lat="48.85877" lon="2.34745">
        <ele>98.4</ele>
        <time>2015-04-27T21:11:52.795Z</time>
      </trkpt>
      <trkpt lat="48.85885" lon="2.34741">
        <ele>99.3</ele>
        <time>2015-04-27T21:11:55.859Z</time>
      </trkpt>
      <trkpt lat="48.85889" lon="2.3474">
        <ele>99.4</ele>
        <time>2015-04-27T21:11:56.890Z</time>
      </trkpt>
      <trkpt lat="48.85897" lon="2.34737">
        <ele>99.6</ele>
        <time>2015-04-27T21:11:59.835Z</time>
      </trkpt>
      <trkpt lat="48.85899" lon="2.34736">
        <ele>99.5</ele>
        <time>2015-04-27T21:12:00.872Z</time>
      </trkpt>
      <trkpt lat="48.85905" lon="2.34732">
        <ele>98.9</ele>
        <time>2015-04-27T21:12:02.911Z</time>
      </trkpt>
      <trkpt lat="48.85908" lon="2.34728">
        <ele>99.2</ele>
        <time>2015-04-27T21:12:03.875Z</time>
      </trkpt>
      <trkpt lat="48.85915" lon="2.3472">
        <ele>99.4</ele>
        <time>2015-04-27T21:12:06.813Z</time>
      </trkpt>
      <trkpt lat="48.85917" lon="2.34718">
        <ele>99.6</ele>
        <time>2015-04-27T21:12:07.856Z</time>
      </trkpt>
      <trkpt lat="48.85924" lon="2.3471">
        <ele>99.5</ele>
        <time>2015-04-27T21:12:10.809Z</time>
      </trkpt>
      <trkpt lat="48.85925" lon="2.34706">
        <ele>99.2</ele>
        <time>2015-04-27T21:12:11.812Z</time>
      </trkpt>
      <trkpt lat="48.85932" lon="2.34698">
        <ele>100</ele>
        <time>2015-04-27T21:12:14.858Z</time>
      </trkpt>
      <trkpt lat="48.85935" lon="2.34698">
        <ele>100.1</ele>
        <time>2015-04-27T21:12:15.851Z</time>
      </trkpt>
      <trkpt lat="48.85942" lon="2.34703">
        <ele>98.7</ele>
        <time>2015-04-27T21:12:18.833Z</time>
      </trkpt>
      <trkpt lat="48.85946" lon="2.34709">
        <ele>97.8</ele>
        <time>2015-04-27T21:12:19.851Z</time>
      </trkpt>
      <trkpt lat="48.85952" lon="2.34719">
        <ele>98</ele>
        <time>2015-04-27T21:12:21.904Z</time>
      </trkpt>
      <trkpt lat="48.85954" lon="2.34721">
        <ele>98.3</ele>
        <time>2015-04-27T21:12:22.842Z</time>
      </trkpt>
      <trkpt lat="48.85955" lon="2.34721">
        <ele>98.6</ele>
        <time>2015-04-27T21:12:23.814Z</time>
      </trkpt>
      <trkpt lat="48.85955" lon="2.34721">
        <ele>98.9</ele>
        <time>2015-04-27T21:13:57.105Z</time>
      </trkpt>
    </trkseg>
  </trk>
  <trk>
    <name><![CDATA[85 Quai de la Mégisserie]]></name>
    <extensions>
      <line xmlns="http://www.topografix.com/GPX/gpx_style/0/2">
        <color>000000</color>
      </line>
    </extensions>
    <trkseg>
      <trkpt lat="48.85743" lon="2.34724">
        <ele>95.8</ele>
        <time>2015-04-20T18:20:29.682Z</time>
      </trkpt>
      <trkpt lat="48.8574" lon="2.34712">
        <ele>95.4</ele>
        <time>2015-04-20T18:20:39.146Z</time>
      </trkpt>
      <trkpt lat="48.8574" lon="2.34711">
        <ele>95.5</ele>
        <time>2015-04-20T18:20:40.045Z</time>
      </trkpt>
      <trkpt lat="48.85741" lon="2.34711">
        <ele>95.5</ele>
        <time>2015-04-20T18:20:47.098Z</time>
      </trkpt>
      <trkpt lat="48.85741" lon="2.3471">
        <ele>95.9</ele>
        <time>2015-04-20T18:20:48.124Z</time>
      </trkpt>
      <trkpt lat="48.85737" lon="2.34701">
        <ele>95.8</ele>
        <time>2015-04-20T18:20:53.034Z</time>
      </trkpt>
      <trkpt lat="48.85734" lon="2.347">
        <ele>95.6</ele>
        <time>2015-04-20T18:20:54.069Z</time>
      </trkpt>
      <trkpt lat="48.85727" lon="2.34699">
        <ele>95.2</ele>
        <time>2015-04-20T18:20:57.109Z</time>
      </trkpt>
      <trkpt lat="48.85725" lon="2.34698">
        <ele>95.2</ele>
        <time>2015-04-20T18:20:58.201Z</time>
      </trkpt>
      <trkpt lat="48.85716" lon="2.34694">
        <ele>95.4</ele>
        <time>2015-04-20T18:21:02.063Z</time>
      </trkpt>
      <trkpt lat="48.85714" lon="2.34693">
        <ele>95.4</ele>
        <time>2015-04-20T18:21:03.454Z</time>
      </trkpt>
      <trkpt lat="48.85707" lon="2.3469">
        <ele>95.3</ele>
        <time>2015-04-20T18:21:06.049Z</time>
      </trkpt>
      <trkpt lat="48.85705" lon="2.34689">
        <ele>95.3</ele>
        <time>2015-04-20T18:21:07.054Z</time>
      </trkpt>
      <trkpt lat="48.85697" lon="2.34685">
        <ele>94.3</ele>
        <time>2015-04-20T18:21:11.100Z</time>
      </trkpt>
      <trkpt lat="48.85695" lon="2.34685">
        <ele>94.1</ele>
        <time>2015-04-20T18:21:12.044Z</time>
      </trkpt>
      <trkpt lat="48.85687" lon="2.34682">
        <ele>93.7</ele>
        <time>2015-04-20T18:21:16.037Z</time>
      </trkpt>
      <trkpt lat="48.85685" lon="2.34681">
        <ele>93.6</ele>
        <time>2015-04-20T18:21:17.062Z</time>
      </trkpt>
      <trkpt lat="48.85678" lon="2.34677">
        <ele>93.8</ele>
        <time>2015-04-20T18:21:20.073Z</time>
      </trkpt>
      <trkpt lat="48.85676" lon="2.34676">
        <ele>93.9</ele>
        <time>2015-04-20T18:21:21.135Z</time>
      </trkpt>
      <trkpt lat="48.8567" lon="2.34671">
        <ele>94.3</ele>
        <time>2015-04-20T18:21:24.341Z</time>
      </trkpt>
      <trkpt lat="48.85668" lon="2.34669">
        <ele>94.4</ele>
        <time>2015-04-20T18:21:25.059Z</time>
      </trkpt>
      <trkpt lat="48.85661" lon="2.34664">
        <ele>94.6</ele>
        <time>2015-04-20T18:21:28.063Z</time>
      </trkpt>
      <trkpt lat="48.85658" lon="2.34663">
        <ele>94.5</ele>
        <time>2015-04-20T18:21:29.089Z</time>
      </trkpt>
      <trkpt lat="48.8565" lon="2.34658">
        <ele>94.8</ele>
        <time>2015-04-20T18:21:32.104Z</time>
      </trkpt>
      <trkpt lat="48.85647" lon="2.34656">
        <ele>94.9</ele>
        <time>2015-04-20T18:21:33.148Z</time>
      </trkpt>
      <trkpt lat="48.85642" lon="2.34653">
        <ele>95.2</ele>
        <time>2015-04-20T18:21:35.072Z</time>
      </trkpt>
      <trkpt lat="48.85638" lon="2.34652">
        <ele>95.2</ele>
        <time>2015-04-20T18:21:36.161Z</time>
      </trkpt>
      <trkpt lat="48.85631" lon="2.34645">
        <ele>95.3</ele>
        <time>2015-04-20T18:21:39.222Z</time>
      </trkpt>
      <trkpt lat="48.85628" lon="2.34644">
        <ele>95.3</ele>
        <time>2015-04-20T18:21:40.078Z</time>
      </trkpt>
      <trkpt lat="48.8562" lon="2.34639">
        <ele>94.9</ele>
        <time>2015-04-20T18:21:43.109Z</time>
      </trkpt>
      <trkpt lat="48.85617" lon="2.34638">
        <ele>94.9</ele>
        <time>2015-04-20T18:21:44.120Z</time>
      </trkpt>
      <trkpt lat="48.85611" lon="2.34634">
        <ele>95</ele>
        <time>2015-04-20T18:21:47.078Z</time>
      </trkpt>
      <trkpt lat="48.85608" lon="2.34632">
        <ele>95.1</ele>
        <time>2015-04-20T18:21:48.080Z</time>
      </trkpt>
      <trkpt lat="48.85602" lon="2.34628">
        <ele>95.4</ele>
        <time>2015-04-20T18:21:50.119Z</time>
      </trkpt>
      <trkpt lat="48.85598" lon="2.34626">
        <ele>95.5</ele>
        <time>2015-04-20T18:21:51.162Z</time>
      </trkpt>
      <trkpt lat="48.85591" lon="2.34622">
        <ele>95.5</ele>
        <time>2015-04-20T18:21:53.145Z</time>
      </trkpt>
      <trkpt lat="48.85587" lon="2.34618">
        <ele>95.4</ele>
        <time>2015-04-20T18:21:54.048Z</time>
      </trkpt>
      <trkpt lat="48.85583" lon="2.34614">
        <ele>95.2</ele>
        <time>2015-04-20T18:21:55.131Z</time>
      </trkpt>
      <trkpt lat="48.85574" lon="2.34608">
        <ele>95.1</ele>
        <time>2015-04-20T18:21:57.162Z</time>
      </trkpt>
      <trkpt lat="48.85569" lon="2.34604">
        <ele>95</ele>
        <time>2015-04-20T18:21:58.078Z</time>
      </trkpt>
      <trkpt lat="48.85565" lon="2.34599">
        <ele>95</ele>
        <time>2015-04-20T18:21:59.086Z</time>
      </trkpt>
      <trkpt lat="48.85561" lon="2.34595">
        <ele>95</ele>
        <time>2015-04-20T18:22:00.120Z</time>
      </trkpt>
      <trkpt lat="48.85553" lon="2.34587">
        <ele>94.9</ele>
        <time>2015-04-20T18:22:02.146Z</time>
      </trkpt>
      <trkpt lat="48.85546" lon="2.34578">
        <ele>95</ele>
        <time>2015-04-20T18:22:04.118Z</time>
      </trkpt>
      <trkpt lat="48.85542" lon="2.34574">
        <ele>95</ele>
        <time>2015-04-20T18:22:05.029Z</time>
      </trkpt>
      <trkpt lat="48.85462" lon="2.34507">
        <ele>94.8</ele>
        <time>2015-04-20T18:22:23.294Z</time>
      </trkpt>
      <trkpt lat="48.85457" lon="2.34503">
        <ele>94.8</ele>
        <time>2015-04-20T18:22:24.026Z</time>
      </trkpt>
      <trkpt lat="48.85451" lon="2.34496">
        <ele>94.7</ele>
        <time>2015-04-20T18:22:25.049Z</time>
      </trkpt>
      <trkpt lat="48.85445" lon="2.34489">
        <ele>94.7</ele>
        <time>2015-04-20T18:22:26.070Z</time>
      </trkpt>
      <trkpt lat="48.85439" lon="2.34483">
        <ele>95</ele>
        <time>2015-04-20T18:22:27.143Z</time>
      </trkpt>
      <trkpt lat="48.85434" lon="2.34479">
        <ele>95.2</ele>
        <time>2015-04-20T18:22:28.029Z</time>
      </trkpt>
      <trkpt lat="48.85428" lon="2.34473">
        <ele>95.5</ele>
        <time>2015-04-20T18:22:29.061Z</time>
      </trkpt>
      <trkpt lat="48.85422" lon="2.34468">
        <ele>95.7</ele>
        <time>2015-04-20T18:22:30.086Z</time>
      </trkpt>
      <trkpt lat="48.85418" lon="2.34464">
        <ele>96.2</ele>
        <time>2015-04-20T18:22:31.103Z</time>
      </trkpt>
      <trkpt lat="48.85413" lon="2.3446">
        <ele>96.9</ele>
        <time>2015-04-20T18:22:32.125Z</time>
      </trkpt>
      <trkpt lat="48.85408" lon="2.34456">
        <ele>97.5</ele>
        <time>2015-04-20T18:22:33.197Z</time>
      </trkpt>
      <trkpt lat="48.85401" lon="2.34452">
        <ele>98.2</ele>
        <time>2015-04-20T18:22:35.077Z</time>
      </trkpt>
      <trkpt lat="48.85398" lon="2.34449">
        <ele>98.5</ele>
        <time>2015-04-20T18:22:36.130Z</time>
      </trkpt>
      <trkpt lat="48.8539" lon="2.34444">
        <ele>99.2</ele>
        <time>2015-04-20T18:22:40.129Z</time>
      </trkpt>
      <trkpt lat="48.85389" lon="2.34444">
        <ele>99.3</ele>
        <time>2015-04-20T18:22:41.139Z</time>
      </trkpt>
      <trkpt lat="48.85381" lon="2.34439">
        <ele>99.9</ele>
        <time>2015-04-20T18:22:47.094Z</time>
      </trkpt>
      <trkpt lat="48.8538" lon="2.34436">
        <ele>99.8</ele>
        <time>2015-04-20T18:22:48.060Z</time>
      </trkpt>
      <trkpt lat="48.85373" lon="2.34428">
        <ele>100.1</ele>
        <time>2015-04-20T18:22:53.172Z</time>
      </trkpt>
      <trkpt lat="48.8537" lon="2.34424">
        <ele>100.2</ele>
        <time>2015-04-20T18:22:54.163Z</time>
      </trkpt>
      <trkpt lat="48.85364" lon="2.34415">
        <ele>100.5</ele>
        <time>2015-04-20T18:22:56.130Z</time>
      </trkpt>
      <trkpt lat="48.8536" lon="2.34409">
        <ele>100.6</ele>
        <time>2015-04-20T18:22:57.127Z</time>
      </trkpt>
      <trkpt lat="48.85356" lon="2.34405">
        <ele>101.1</ele>
        <time>2015-04-20T18:22:58.125Z</time>
      </trkpt>
      <trkpt lat="48.85352" lon="2.344">
        <ele>101.8</ele>
        <time>2015-04-20T18:22:59.492Z</time>
      </trkpt>
      <trkpt lat="48.85349" lon="2.34394">
        <ele>102.2</ele>
        <time>2015-04-20T18:23:00.054Z</time>
      </trkpt>
      <trkpt lat="48.85346" lon="2.34389">
        <ele>102.6</ele>
        <time>2015-04-20T18:23:01.082Z</time>
      </trkpt>
      <trkpt lat="48.8534" lon="2.34378">
        <ele>103.1</ele>
        <time>2015-04-20T18:23:03.171Z</time>
      </trkpt>
      <trkpt lat="48.85338" lon="2.34373">
        <ele>103.3</ele>
        <time>2015-04-20T18:23:04.133Z</time>
      </trkpt>
      <trkpt lat="48.85337" lon="2.34365">
        <ele>103.3</ele>
        <time>2015-04-20T18:23:05.138Z</time>
      </trkpt>
      <trkpt lat="48.85336" lon="2.34359">
        <ele>103.5</ele>
        <time>2015-04-20T18:23:06.109Z</time>
      </trkpt>
      <trkpt lat="48.85335" lon="2.34347">
        <ele>103.9</ele>
        <time>2015-04-20T18:23:08.119Z</time>
      </trkpt>
      <trkpt lat="48.85328" lon="2.34344">
        <ele>103.7</ele>
        <time>2015-04-20T18:23:09.101Z</time>
      </trkpt>
      <trkpt lat="48.85322" lon="2.34337">
        <ele>103.9</ele>
        <time>2015-04-20T18:23:11.118Z</time>
      </trkpt>
      <trkpt lat="48.85319" lon="2.34333">
        <ele>103.9</ele>
        <time>2015-04-20T18:23:12.131Z</time>
      </trkpt>
      <trkpt lat="48.85315" lon="2.3433">
        <ele>103.8</ele>
        <time>2015-04-20T18:23:13.040Z</time>
      </trkpt>
      <trkpt lat="48.85312" lon="2.34324">
        <ele>103.5</ele>
        <time>2015-04-20T18:23:14.043Z</time>
      </trkpt>
      <trkpt lat="48.85309" lon="2.34315">
        <ele>103.4</ele>
        <time>2015-04-20T18:23:16.067Z</time>
      </trkpt>
      <trkpt lat="48.85309" lon="2.34287">
        <ele>103.1</ele>
        <time>2015-04-20T18:23:21.137Z</time>
      </trkpt>
      <trkpt lat="48.85311" lon="2.34274">
        <ele>102.8</ele>
        <time>2015-04-20T18:23:23.050Z</time>
      </trkpt>
      <trkpt lat="48.85312" lon="2.3427">
        <ele>102.8</ele>
        <time>2015-04-20T18:23:24.063Z</time>
      </trkpt>
      <trkpt lat="48.8531" lon="2.34262">
        <ele>102.7</ele>
        <time>2015-04-20T18:23:26.106Z</time>
      </trkpt>
      <trkpt lat="48.85305" lon="2.34253">
        <ele>102.7</ele>
        <time>2015-04-20T18:23:28.096Z</time>
      </trkpt>
      <trkpt lat="48.85302" lon="2.34249">
        <ele>102.7</ele>
        <time>2015-04-20T18:23:29.052Z</time>
      </trkpt>
      <trkpt lat="48.85302" lon="2.3424">
        <ele>102.7</ele>
        <time>2015-04-20T18:23:30.076Z</time>
      </trkpt>
      <trkpt lat="48.85298" lon="2.34235">
        <ele>102.7</ele>
        <time>2015-04-20T18:23:31.088Z</time>
      </trkpt>
      <trkpt lat="48.85294" lon="2.3423">
        <ele>102.8</ele>
        <time>2015-04-20T18:23:32.099Z</time>
      </trkpt>
      <trkpt lat="48.85287" lon="2.34227">
        <ele>102.9</ele>
        <time>2015-04-20T18:23:33.131Z</time>
      </trkpt>
      <trkpt lat="48.85283" lon="2.34222">
        <ele>102.9</ele>
        <time>2015-04-20T18:23:34.060Z</time>
      </trkpt>
      <trkpt lat="48.85279" lon="2.34218">
        <ele>103</ele>
        <time>2015-04-20T18:23:35.057Z</time>
      </trkpt>
      <trkpt lat="48.85275" lon="2.34214">
        <ele>103.1</ele>
        <time>2015-04-20T18:23:36.065Z</time>
      </trkpt>
      <trkpt lat="48.85271" lon="2.34206">
        <ele>102.8</ele>
        <time>2015-04-20T18:23:37.094Z</time>
      </trkpt>
      <trkpt lat="48.85271" lon="2.342">
        <ele>102.9</ele>
        <time>2015-04-20T18:23:38.105Z</time>
      </trkpt>
      <trkpt lat="48.85273" lon="2.34192">
        <ele>102.8</ele>
        <time>2015-04-20T18:23:39.114Z</time>
      </trkpt>
      <trkpt lat="48.85274" lon="2.34184">
        <ele>102.7</ele>
        <time>2015-04-20T18:23:40.130Z</time>
      </trkpt>
      <trkpt lat="48.85274" lon="2.34147">
        <ele>102.7</ele>
        <time>2015-04-20T18:23:46.093Z</time>
      </trkpt>
      <trkpt lat="48.85268" lon="2.34109">
        <ele>101.8</ele>
        <time>2015-04-20T18:23:54.047Z</time>
      </trkpt>
      <trkpt lat="48.85234" lon="2.34046">
        <ele>97.4</ele>
        <time>2015-04-20T18:24:07.031Z</time>
      </trkpt>
      <trkpt lat="48.85234" lon="2.34035">
        <ele>97.5</ele>
        <time>2015-04-20T18:24:09.131Z</time>
      </trkpt>
      <trkpt lat="48.85234" lon="2.34029">
        <ele>97.5</ele>
        <time>2015-04-20T18:24:10.027Z</time>
      </trkpt>
      <trkpt lat="48.85232" lon="2.34019">
        <ele>97.7</ele>
        <time>2015-04-20T18:24:12.072Z</time>
      </trkpt>
      <trkpt lat="48.85226" lon="2.34013">
        <ele>97.9</ele>
        <time>2015-04-20T18:24:13.097Z</time>
      </trkpt>
      <trkpt lat="48.85222" lon="2.34008">
        <ele>98.2</ele>
        <time>2015-04-20T18:24:14.059Z</time>
      </trkpt>
      <trkpt lat="48.8522" lon="2.34003">
        <ele>98.5</ele>
        <time>2015-04-20T18:24:15.078Z</time>
      </trkpt>
      <trkpt lat="48.85219" lon="2.33991">
        <ele>99.1</ele>
        <time>2015-04-20T18:24:18.136Z</time>
      </trkpt>
      <trkpt lat="48.8522" lon="2.33988">
        <ele>99.3</ele>
        <time>2015-04-20T18:24:19.046Z</time>
      </trkpt>
      <trkpt lat="48.85222" lon="2.33976">
        <ele>99.8</ele>
        <time>2015-04-20T18:24:21.094Z</time>
      </trkpt>
      <trkpt lat="48.85225" lon="2.33967">
        <ele>100</ele>
        <time>2015-04-20T18:24:22.097Z</time>
      </trkpt>
      <trkpt lat="48.85227" lon="2.3396">
        <ele>100.2</ele>
        <time>2015-04-20T18:24:23.113Z</time>
      </trkpt>
      <trkpt lat="48.85229" lon="2.33954">
        <ele>100.4</ele>
        <time>2015-04-20T18:24:24.125Z</time>
      </trkpt>
      <trkpt lat="48.85232" lon="2.33946">
        <ele>100.6</ele>
        <time>2015-04-20T18:24:25.079Z</time>
      </trkpt>
      <trkpt lat="48.85236" lon="2.3394">
        <ele>100.7</ele>
        <time>2015-04-20T18:24:26.087Z</time>
      </trkpt>
      <trkpt lat="48.85238" lon="2.33934">
        <ele>100.8</ele>
        <time>2015-04-20T18:24:27.124Z</time>
      </trkpt>
      <trkpt lat="48.85242" lon="2.33924">
        <ele>100.8</ele>
        <time>2015-04-20T18:24:28.137Z</time>
      </trkpt>
      <trkpt lat="48.85244" lon="2.33916">
        <ele>100.8</ele>
        <time>2015-04-20T18:24:29.174Z</time>
      </trkpt>
      <trkpt lat="48.85246" lon="2.33909">
        <ele>100.7</ele>
        <time>2015-04-20T18:24:30.060Z</time>
      </trkpt>
      <trkpt lat="48.85249" lon="2.33903">
        <ele>100.7</ele>
        <time>2015-04-20T18:24:31.065Z</time>
      </trkpt>
      <trkpt lat="48.85234" lon="2.33894">
        <ele>100.3</ele>
        <time>2015-04-20T18:24:32.076Z</time>
      </trkpt>
      <trkpt lat="48.85221" lon="2.33892">
        <ele>99.9</ele>
        <time>2015-04-20T18:24:33.115Z</time>
      </trkpt>
      <trkpt lat="48.85214" lon="2.33892">
        <ele>99.8</ele>
        <time>2015-04-20T18:24:34.102Z</time>
      </trkpt>
      <trkpt lat="48.85208" lon="2.33892">
        <ele>99.9</ele>
        <time>2015-04-20T18:24:35.123Z</time>
      </trkpt>
      <trkpt lat="48.85203" lon="2.33891">
        <ele>100</ele>
        <time>2015-04-20T18:24:36.008Z</time>
      </trkpt>
      <trkpt lat="48.85198" lon="2.3389">
        <ele>100</ele>
        <time>2015-04-20T18:24:37.039Z</time>
      </trkpt>
      <trkpt lat="48.8519" lon="2.33884">
        <ele>100.4</ele>
        <time>2015-04-20T18:24:39.073Z</time>
      </trkpt>
      <trkpt lat="48.85188" lon="2.33882">
        <ele>100.5</ele>
        <time>2015-04-20T18:24:40.130Z</time>
      </trkpt>
      <trkpt lat="48.85181" lon="2.33874">
        <ele>100.8</ele>
        <time>2015-04-20T18:24:43.042Z</time>
      </trkpt>
      <trkpt lat="48.85178" lon="2.33868">
        <ele>100.7</ele>
        <time>2015-04-20T18:24:44.127Z</time>
      </trkpt>
      <trkpt lat="48.85174" lon="2.33859">
        <ele>100.6</ele>
        <time>2015-04-20T18:24:46.073Z</time>
      </trkpt>
      <trkpt lat="48.8517" lon="2.33856">
        <ele>100.6</ele>
        <time>2015-04-20T18:24:47.086Z</time>
      </trkpt>
      <trkpt lat="48.85164" lon="2.33848">
        <ele>100.5</ele>
        <time>2015-04-20T18:24:49.007Z</time>
      </trkpt>
      <trkpt lat="48.85162" lon="2.33842">
        <ele>100.4</ele>
        <time>2015-04-20T18:24:50.027Z</time>
      </trkpt>
      <trkpt lat="48.8516" lon="2.33838">
        <ele>100.4</ele>
        <time>2015-04-20T18:24:51.060Z</time>
      </trkpt>
      <trkpt lat="48.85058" lon="2.33264">
        <ele>100.3</ele>
        <time>2015-04-20T18:26:15.148Z</time>
      </trkpt>
      <trkpt lat="48.85052" lon="2.33263">
        <ele>100.4</ele>
        <time>2015-04-20T18:26:16.160Z</time>
      </trkpt>
      <trkpt lat="48.85047" lon="2.33262">
        <ele>100.3</ele>
        <time>2015-04-20T18:26:17.022Z</time>
      </trkpt>
      <trkpt lat="48.85043" lon="2.3326">
        <ele>100.4</ele>
        <time>2015-04-20T18:26:18.036Z</time>
      </trkpt>
      <trkpt lat="48.85038" lon="2.33259">
        <ele>100.5</ele>
        <time>2015-04-20T18:26:19.049Z</time>
      </trkpt>
      <trkpt lat="48.85033" lon="2.33258">
        <ele>100.5</ele>
        <time>2015-04-20T18:26:20.057Z</time>
      </trkpt>
      <trkpt lat="48.85027" lon="2.3326">
        <ele>100.6</ele>
        <time>2015-04-20T18:26:21.073Z</time>
      </trkpt>
      <trkpt lat="48.85022" lon="2.3326">
        <ele>100.6</ele>
        <time>2015-04-20T18:26:22.086Z</time>
      </trkpt>
      <trkpt lat="48.85017" lon="2.3326">
        <ele>100.8</ele>
        <time>2015-04-20T18:26:23.099Z</time>
      </trkpt>
      <trkpt lat="48.85011" lon="2.33259">
        <ele>100.8</ele>
        <time>2015-04-20T18:26:24.006Z</time>
      </trkpt>
      <trkpt lat="48.85006" lon="2.33259">
        <ele>101</ele>
        <time>2015-04-20T18:26:25.066Z</time>
      </trkpt>
      <trkpt lat="48.85001" lon="2.3326">
        <ele>101</ele>
        <time>2015-04-20T18:26:26.075Z</time>
      </trkpt>
      <trkpt lat="48.84996" lon="2.3326">
        <ele>101.1</ele>
        <time>2015-04-20T18:26:27.144Z</time>
      </trkpt>
      <trkpt lat="48.8499" lon="2.3326">
        <ele>101.2</ele>
        <time>2015-04-20T18:26:28.013Z</time>
      </trkpt>
      <trkpt lat="48.84878" lon="2.33258">
        <ele>100.5</ele>
        <time>2015-04-20T18:26:58.119Z</time>
      </trkpt>
      <trkpt lat="48.84879" lon="2.33259">
        <ele>100.6</ele>
        <time>2015-04-20T18:27:00.062Z</time>
      </trkpt>
      <trkpt lat="48.84879" lon="2.33259">
        <ele>100.6</ele>
        <time>2015-04-20T18:27:01.065Z</time>
      </trkpt>
      <trkpt lat="48.84878" lon="2.33259">
        <ele>100.6</ele>
        <time>2015-04-20T18:27:02.118Z</time>
      </trkpt>
      <trkpt lat="48.84878" lon="2.33259">
        <ele>100.5</ele>
        <time>2015-04-20T18:27:03.138Z</time>
      </trkpt>
      <trkpt lat="48.84879" lon="2.3326">
        <ele>100.4</ele>
        <time>2015-04-20T18:27:07.067Z</time>
      </trkpt>
      <trkpt lat="48.84878" lon="2.33263">
        <ele>100.5</ele>
        <time>2015-04-20T18:27:08.054Z</time>
      </trkpt>
      <trkpt lat="48.8487" lon="2.33268">
        <ele>100.7</ele>
        <time>2015-04-20T18:27:14.067Z</time>
      </trkpt>
      <trkpt lat="48.84868" lon="2.33266">
        <ele>100.8</ele>
        <time>2015-04-20T18:27:15.081Z</time>
      </trkpt>
      <trkpt lat="48.84864" lon="2.33256">
        <ele>101.2</ele>
        <time>2015-04-20T18:27:18.057Z</time>
      </trkpt>
      <trkpt lat="48.84862" lon="2.33251">
        <ele>101.3</ele>
        <time>2015-04-20T18:27:19.061Z</time>
      </trkpt>
      <trkpt lat="48.84862" lon="2.33238">
        <ele>101.5</ele>
        <time>2015-04-20T18:27:22.079Z</time>
      </trkpt>
      <trkpt lat="48.84862" lon="2.33212">
        <ele>101.6</ele>
        <time>2015-04-20T18:27:28.115Z</time>
      </trkpt>
      <trkpt lat="48.84861" lon="2.33208">
        <ele>101.5</ele>
        <time>2015-04-20T18:27:29.034Z</time>
      </trkpt>
      <trkpt lat="48.84584" lon="2.32898">
        <ele>101.5</ele>
        <time>2015-04-20T18:29:04.104Z</time>
      </trkpt>
      <trkpt lat="48.84582" lon="2.3289">
        <ele>101.6</ele>
        <time>2015-04-20T18:29:05.439Z</time>
      </trkpt>
      <trkpt lat="48.84575" lon="2.32887">
        <ele>101.7</ele>
        <time>2015-04-20T18:29:06.042Z</time>
      </trkpt>
      <trkpt lat="48.84571" lon="2.32881">
        <ele>101.7</ele>
        <time>2015-04-20T18:29:07.069Z</time>
      </trkpt>
      <trkpt lat="48.84568" lon="2.32875">
        <ele>101.8</ele>
        <time>2015-04-20T18:29:08.068Z</time>
      </trkpt>
      <trkpt lat="48.84565" lon="2.3287">
        <ele>101.9</ele>
        <time>2015-04-20T18:29:09.062Z</time>
      </trkpt>
      <trkpt lat="48.84555" lon="2.32864">
        <ele>101.9</ele>
        <time>2015-04-20T18:29:10.081Z</time>
      </trkpt>
      <trkpt lat="48.84549" lon="2.32853">
        <ele>101.9</ele>
        <time>2015-04-20T18:29:12.104Z</time>
      </trkpt>
      <trkpt lat="48.84546" lon="2.3285">
        <ele>101.9</ele>
        <time>2015-04-20T18:29:13.122Z</time>
      </trkpt>
      <trkpt lat="48.8454" lon="2.32844">
        <ele>102</ele>
        <time>2015-04-20T18:29:16.036Z</time>
      </trkpt>
      <trkpt lat="48.84538" lon="2.32843">
        <ele>102</ele>
        <time>2015-04-20T18:29:17.062Z</time>
      </trkpt>
      <trkpt lat="48.84531" lon="2.32836">
        <ele>102.3</ele>
        <time>2015-04-20T18:29:23.086Z</time>
      </trkpt>
      <trkpt lat="48.8453" lon="2.32835">
        <ele>102.5</ele>
        <time>2015-04-20T18:29:24.098Z</time>
      </trkpt>
      <trkpt lat="48.84527" lon="2.32834">
        <ele>102.9</ele>
        <time>2015-04-20T18:29:30.150Z</time>
      </trkpt>
      <trkpt lat="48.84527" lon="2.32833">
        <ele>103</ele>
        <time>2015-04-20T18:29:31.045Z</time>
      </trkpt>
      <trkpt lat="48.84526" lon="2.32833">
        <ele>103</ele>
        <time>2015-04-20T18:29:32.077Z</time>
      </trkpt>
      <trkpt lat="48.84522" lon="2.32821">
        <ele>103.5</ele>
        <time>2015-04-20T18:29:39.826Z</time>
      </trkpt>
      <trkpt lat="48.84522" lon="2.32819">
        <ele>103.6</ele>
        <time>2015-04-20T18:29:40.011Z</time>
      </trkpt>
      <trkpt lat="48.8452" lon="2.32808">
        <ele>103.6</ele>
        <time>2015-04-20T18:29:45.105Z</time>
      </trkpt>
      <trkpt lat="48.84386" lon="2.32713">
        <ele>102.4</ele>
        <time>2015-04-20T18:30:18.122Z</time>
      </trkpt>
      <trkpt lat="48.84381" lon="2.32708">
        <ele>102.4</ele>
        <time>2015-04-20T18:30:19.011Z</time>
      </trkpt>
      <trkpt lat="48.84375" lon="2.32703">
        <ele>102.4</ele>
        <time>2015-04-20T18:30:20.037Z</time>
      </trkpt>
      <trkpt lat="48.8437" lon="2.32699">
        <ele>102.5</ele>
        <time>2015-04-20T18:30:21.064Z</time>
      </trkpt>
      <trkpt lat="48.84365" lon="2.32694">
        <ele>102.5</ele>
        <time>2015-04-20T18:30:22.080Z</time>
      </trkpt>
      <trkpt lat="48.84361" lon="2.32689">
        <ele>102.6</ele>
        <time>2015-04-20T18:30:23.144Z</time>
      </trkpt>
      <trkpt lat="48.84357" lon="2.32685">
        <ele>102.7</ele>
        <time>2015-04-20T18:30:24.018Z</time>
      </trkpt>
      <trkpt lat="48.84354" lon="2.3268">
        <ele>102.8</ele>
        <time>2015-04-20T18:30:25.705Z</time>
      </trkpt>
      <trkpt lat="48.84352" lon="2.32672">
        <ele>103</ele>
        <time>2015-04-20T18:30:26.075Z</time>
      </trkpt>
      <trkpt lat="48.84348" lon="2.32668">
        <ele>103.2</ele>
        <time>2015-04-20T18:30:27.104Z</time>
      </trkpt>
      <trkpt lat="48.84343" lon="2.32666">
        <ele>103.4</ele>
        <time>2015-04-20T18:30:28.103Z</time>
      </trkpt>
      <trkpt lat="48.84339" lon="2.32662">
        <ele>103.7</ele>
        <time>2015-04-20T18:30:29.831Z</time>
      </trkpt>
      <trkpt lat="48.84335" lon="2.32659">
        <ele>103.9</ele>
        <time>2015-04-20T18:30:30.012Z</time>
      </trkpt>
      <trkpt lat="48.84332" lon="2.32657">
        <ele>104.5</ele>
        <time>2015-04-20T18:30:31.037Z</time>
      </trkpt>
      <trkpt lat="48.84331" lon="2.32658">
        <ele>104.7</ele>
        <time>2015-04-20T18:30:32.045Z</time>
      </trkpt>
      <trkpt lat="48.84328" lon="2.32659">
        <ele>104.8</ele>
        <time>2015-04-20T18:30:37.075Z</time>
      </trkpt>
      <trkpt lat="48.84328" lon="2.32659">
        <ele>104.9</ele>
        <time>2015-04-20T18:30:38.075Z</time>
      </trkpt>
      <trkpt lat="48.84328" lon="2.32659">
        <ele>104.8</ele>
        <time>2015-04-20T18:31:03.273Z</time>
      </trkpt>
      <trkpt lat="48.8432" lon="2.32651">
        <ele>106.2</ele>
        <time>2015-04-20T18:31:04.244Z</time>
      </trkpt>
      <trkpt lat="48.84313" lon="2.32644">
        <ele>106.1</ele>
        <time>2015-04-20T18:31:09.244Z</time>
      </trkpt>
      <trkpt lat="48.84311" lon="2.32642">
        <ele>106.1</ele>
        <time>2015-04-20T18:31:10.146Z</time>
      </trkpt>
      <trkpt lat="48.84306" lon="2.32638">
        <ele>106</ele>
        <time>2015-04-20T18:31:13.398Z</time>
      </trkpt>
      <trkpt lat="48.84302" lon="2.32635">
        <ele>106</ele>
        <time>2015-04-20T18:31:15.040Z</time>
      </trkpt>
      <trkpt lat="48.84298" lon="2.32624">
        <ele>105.8</ele>
        <time>2015-04-20T18:31:22.082Z</time>
      </trkpt>
      <trkpt lat="48.84296" lon="2.32622">
        <ele>105.7</ele>
        <time>2015-04-20T18:31:23.084Z</time>
      </trkpt>
      <trkpt lat="48.8429" lon="2.32616">
        <ele>105.4</ele>
        <time>2015-04-20T18:31:27.086Z</time>
      </trkpt>
      <trkpt lat="48.84288" lon="2.32614">
        <ele>105.3</ele>
        <time>2015-04-20T18:31:28.077Z</time>
      </trkpt>
      <trkpt lat="48.8428" lon="2.32609">
        <ele>104.9</ele>
        <time>2015-04-20T18:31:31Z</time>
      </trkpt>
      <trkpt lat="48.84276" lon="2.32607">
        <ele>104.8</ele>
        <time>2015-04-20T18:31:32.031Z</time>
      </trkpt>
      <trkpt lat="48.84269" lon="2.32603">
        <ele>104.8</ele>
        <time>2015-04-20T18:31:34.860Z</time>
      </trkpt>
      <trkpt lat="48.84266" lon="2.32602">
        <ele>104.8</ele>
        <time>2015-04-20T18:31:35.041Z</time>
      </trkpt>
      <trkpt lat="48.84192" lon="2.32542">
        <ele>104.7</ele>
        <time>2015-04-20T18:31:58.074Z</time>
      </trkpt>
      <trkpt lat="48.84183" lon="2.3254">
        <ele>104.7</ele>
        <time>2015-04-20T18:32:00.677Z</time>
      </trkpt>
      <trkpt lat="48.84162" lon="2.32531">
        <ele>104.5</ele>
        <time>2015-04-20T18:32:05.030Z</time>
      </trkpt>
      <trkpt lat="48.84155" lon="2.32525">
        <ele>104.6</ele>
        <time>2015-04-20T18:32:07.048Z</time>
      </trkpt>
      <trkpt lat="48.84152" lon="2.32522">
        <ele>104.7</ele>
        <time>2015-04-20T18:32:08.052Z</time>
      </trkpt>
      <trkpt lat="48.84147" lon="2.32515">
        <ele>104.9</ele>
        <time>2015-04-20T18:32:10.711Z</time>
      </trkpt>
      <trkpt lat="48.84144" lon="2.32512">
        <ele>104.9</ele>
        <time>2015-04-20T18:32:11.090Z</time>
      </trkpt>
      <trkpt lat="48.84139" lon="2.32504">
        <ele>105.1</ele>
        <time>2015-04-20T18:32:13.034Z</time>
      </trkpt>
      <trkpt lat="48.84136" lon="2.32502">
        <ele>105.2</ele>
        <time>2015-04-20T18:32:14.116Z</time>
      </trkpt>
      <trkpt lat="48.84131" lon="2.32495">
        <ele>105.3</ele>
        <time>2015-04-20T18:32:16.065Z</time>
      </trkpt>
      <trkpt lat="48.84129" lon="2.32492">
        <ele>105.4</ele>
        <time>2015-04-20T18:32:17.073Z</time>
      </trkpt>
      <trkpt lat="48.84123" lon="2.32484">
        <ele>105.5</ele>
        <time>2015-04-20T18:32:20.746Z</time>
      </trkpt>
      <trkpt lat="48.84122" lon="2.32482">
        <ele>105.5</ele>
        <time>2015-04-20T18:32:21.106Z</time>
      </trkpt>
      <trkpt lat="48.84115" lon="2.32474">
        <ele>105.9</ele>
        <time>2015-04-20T18:32:26.103Z</time>
      </trkpt>
      <trkpt lat="48.84113" lon="2.32471">
        <ele>106</ele>
        <time>2015-04-20T18:32:27.044Z</time>
      </trkpt>
      <trkpt lat="48.84108" lon="2.32463">
        <ele>106.1</ele>
        <time>2015-04-20T18:32:30.119Z</time>
      </trkpt>
      <trkpt lat="48.84105" lon="2.3246">
        <ele>106.1</ele>
        <time>2015-04-20T18:32:31.131Z</time>
      </trkpt>
      <trkpt lat="48.84095" lon="2.32452">
        <ele>106.2</ele>
        <time>2015-04-20T18:32:34.149Z</time>
      </trkpt>
      <trkpt lat="48.84091" lon="2.32449">
        <ele>106.2</ele>
        <time>2015-04-20T18:32:34.979Z</time>
      </trkpt>
      <trkpt lat="48.84086" lon="2.32446">
        <ele>106.3</ele>
        <time>2015-04-20T18:32:36.030Z</time>
      </trkpt>
      <trkpt lat="48.84081" lon="2.32444">
        <ele>106.3</ele>
        <time>2015-04-20T18:32:37.050Z</time>
      </trkpt>
      <trkpt lat="48.84077" lon="2.32441">
        <ele>106.3</ele>
        <time>2015-04-20T18:32:38.054Z</time>
      </trkpt>
      <trkpt lat="48.8407" lon="2.32436">
        <ele>106.2</ele>
        <time>2015-04-20T18:32:40.074Z</time>
      </trkpt>
      <trkpt lat="48.84067" lon="2.32434">
        <ele>106.2</ele>
        <time>2015-04-20T18:32:41.092Z</time>
      </trkpt>
      <trkpt lat="48.84061" lon="2.32428">
        <ele>106.2</ele>
        <time>2015-04-20T18:32:44.070Z</time>
      </trkpt>
      <trkpt lat="48.8406" lon="2.32426">
        <ele>106.2</ele>
        <time>2015-04-20T18:32:45.139Z</time>
      </trkpt>
      <trkpt lat="48.84052" lon="2.32419">
        <ele>106.4</ele>
        <time>2015-04-20T18:32:48.061Z</time>
      </trkpt>
      <trkpt lat="48.8405" lon="2.32417">
        <ele>106.5</ele>
        <time>2015-04-20T18:32:49.073Z</time>
      </trkpt>
      <trkpt lat="48.84044" lon="2.32413">
        <ele>106.7</ele>
        <time>2015-04-20T18:32:51.153Z</time>
      </trkpt>
      <trkpt lat="48.84041" lon="2.32411">
        <ele>106.8</ele>
        <time>2015-04-20T18:32:52.052Z</time>
      </trkpt>
      <trkpt lat="48.84036" lon="2.32405">
        <ele>107.1</ele>
        <time>2015-04-20T18:32:54.095Z</time>
      </trkpt>
      <trkpt lat="48.84033" lon="2.32403">
        <ele>107.2</ele>
        <time>2015-04-20T18:32:55.063Z</time>
      </trkpt>
      <trkpt lat="48.8403" lon="2.32401">
        <ele>107.4</ele>
        <time>2015-04-20T18:32:56.075Z</time>
      </trkpt>
      <trkpt lat="48.83922" lon="2.32307">
        <ele>106.2</ele>
        <time>2015-04-20T18:33:32.041Z</time>
      </trkpt>
      <trkpt lat="48.83916" lon="2.32301">
        <ele>106.4</ele>
        <time>2015-04-20T18:33:34.097Z</time>
      </trkpt>
      <trkpt lat="48.83914" lon="2.32298">
        <ele>106.4</ele>
        <time>2015-04-20T18:33:35.034Z</time>
      </trkpt>
      <trkpt lat="48.83908" lon="2.32291">
        <ele>106.4</ele>
        <time>2015-04-20T18:33:37.139Z</time>
      </trkpt>
      <trkpt lat="48.83906" lon="2.32288">
        <ele>106.5</ele>
        <time>2015-04-20T18:33:38.059Z</time>
      </trkpt>
      <trkpt lat="48.839" lon="2.32285">
        <ele>106.5</ele>
        <time>2015-04-20T18:33:40.360Z</time>
      </trkpt>
      <trkpt lat="48.83897" lon="2.32283">
        <ele>106.6</ele>
        <time>2015-04-20T18:33:41.142Z</time>
      </trkpt>
      <trkpt lat="48.83888" lon="2.32279">
        <ele>106.6</ele>
        <time>2015-04-20T18:33:43.032Z</time>
      </trkpt>
      <trkpt lat="48.83882" lon="2.32278">
        <ele>106.7</ele>
        <time>2015-04-20T18:33:44.082Z</time>
      </trkpt>
      <trkpt lat="48.83873" lon="2.32274">
        <ele>106.7</ele>
        <time>2015-04-20T18:33:46.133Z</time>
      </trkpt>
      <trkpt lat="48.83871" lon="2.32275">
        <ele>106.7</ele>
        <time>2015-04-20T18:33:47.055Z</time>
      </trkpt>
      <trkpt lat="48.83864" lon="2.32271">
        <ele>107.6</ele>
        <time>2015-04-20T18:33:50.106Z</time>
      </trkpt>
      <trkpt lat="48.83861" lon="2.32269">
        <ele>107.8</ele>
        <time>2015-04-20T18:33:51.124Z</time>
      </trkpt>
      <trkpt lat="48.83854" lon="2.32268">
        <ele>108.6</ele>
        <time>2015-04-20T18:33:54.068Z</time>
      </trkpt>
      <trkpt lat="48.83851" lon="2.32268">
        <ele>108.9</ele>
        <time>2015-04-20T18:33:55.063Z</time>
      </trkpt>
      <trkpt lat="48.83843" lon="2.32268">
        <ele>109.7</ele>
        <time>2015-04-20T18:33:57.077Z</time>
      </trkpt>
      <trkpt lat="48.8384" lon="2.32268">
        <ele>110.2</ele>
        <time>2015-04-20T18:33:58.018Z</time>
      </trkpt>
      <trkpt lat="48.83832" lon="2.32269">
        <ele>111.1</ele>
        <time>2015-04-20T18:34:00.827Z</time>
      </trkpt>
      <trkpt lat="48.83828" lon="2.3227">
        <ele>111.4</ele>
        <time>2015-04-20T18:34:01.076Z</time>
      </trkpt>
      <trkpt lat="48.83823" lon="2.32272">
        <ele>111.8</ele>
        <time>2015-04-20T18:34:02.127Z</time>
      </trkpt>
      <trkpt lat="48.83819" lon="2.32275">
        <ele>112.1</ele>
        <time>2015-04-20T18:34:03.099Z</time>
      </trkpt>
      <trkpt lat="48.83811" lon="2.32275">
        <ele>112.7</ele>
        <time>2015-04-20T18:34:05.833Z</time>
      </trkpt>
      <trkpt lat="48.83806" lon="2.32275">
        <ele>113</ele>
        <time>2015-04-20T18:34:06.052Z</time>
      </trkpt>
      <trkpt lat="48.83802" lon="2.32276">
        <ele>113.4</ele>
        <time>2015-04-20T18:34:07.067Z</time>
      </trkpt>
      <trkpt lat="48.83797" lon="2.32275">
        <ele>113.8</ele>
        <time>2015-04-20T18:34:08.067Z</time>
      </trkpt>
      <trkpt lat="48.83788" lon="2.32275">
        <ele>114.6</ele>
        <time>2015-04-20T18:34:10.894Z</time>
      </trkpt>
      <trkpt lat="48.83783" lon="2.32274">
        <ele>115.2</ele>
        <time>2015-04-20T18:34:11.091Z</time>
      </trkpt>
      <trkpt lat="48.83777" lon="2.32274">
        <ele>116.6</ele>
        <time>2015-04-20T18:34:13.007Z</time>
      </trkpt>
      <trkpt lat="48.83774" lon="2.32275">
        <ele>117.4</ele>
        <time>2015-04-20T18:34:14.027Z</time>
      </trkpt>
      <trkpt lat="48.83768" lon="2.32269">
        <ele>119.3</ele>
        <time>2015-04-20T18:34:17.105Z</time>
      </trkpt>
      <trkpt lat="48.83767" lon="2.32265">
        <ele>119.7</ele>
        <time>2015-04-20T18:34:18.136Z</time>
      </trkpt>
      <trkpt lat="48.83763" lon="2.32254">
        <ele>120.8</ele>
        <time>2015-04-20T18:34:21.081Z</time>
      </trkpt>
      <trkpt lat="48.8376" lon="2.32248">
        <ele>122.3</ele>
        <time>2015-04-20T18:34:22.023Z</time>
      </trkpt>
      <trkpt lat="48.83758" lon="2.32238">
        <ele>123.2</ele>
        <time>2015-04-20T18:34:24.020Z</time>
      </trkpt>
      <trkpt lat="48.83758" lon="2.32233">
        <ele>123.5</ele>
        <time>2015-04-20T18:34:25.039Z</time>
      </trkpt>
      <trkpt lat="48.83757" lon="2.32221">
        <ele>124.1</ele>
        <time>2015-04-20T18:34:27.081Z</time>
      </trkpt>
      <trkpt lat="48.83756" lon="2.32215">
        <ele>124.4</ele>
        <time>2015-04-20T18:34:28.016Z</time>
      </trkpt>
      <trkpt lat="48.83756" lon="2.32205">
        <ele>124.9</ele>
        <time>2015-04-20T18:34:30.056Z</time>
      </trkpt>
      <trkpt lat="48.83755" lon="2.322">
        <ele>125.1</ele>
        <time>2015-04-20T18:34:31.094Z</time>
      </trkpt>
      <trkpt lat="48.83756" lon="2.3219">
        <ele>125.6</ele>
        <time>2015-04-20T18:34:33.127Z</time>
      </trkpt>
      <trkpt lat="48.83755" lon="2.32184">
        <ele>125.9</ele>
        <time>2015-04-20T18:34:34.131Z</time>
      </trkpt>
      <trkpt lat="48.83755" lon="2.32172">
        <ele>126.3</ele>
        <time>2015-04-20T18:34:36.055Z</time>
      </trkpt>
      <trkpt lat="48.83754" lon="2.32165">
        <ele>126.5</ele>
        <time>2015-04-20T18:34:37.081Z</time>
      </trkpt>
      <trkpt lat="48.83754" lon="2.32152">
        <ele>126.6</ele>
        <time>2015-04-20T18:34:39.144Z</time>
      </trkpt>
      <trkpt lat="48.83753" lon="2.32145">
        <ele>126.7</ele>
        <time>2015-04-20T18:34:40.033Z</time>
      </trkpt>
      <trkpt lat="48.83753" lon="2.32138">
        <ele>126.7</ele>
        <time>2015-04-20T18:34:41.048Z</time>
      </trkpt>
      <trkpt lat="48.83752" lon="2.3213">
        <ele>126.8</ele>
        <time>2015-04-20T18:34:42.045Z</time>
      </trkpt>
      <trkpt lat="48.83752" lon="2.32122">
        <ele>126.9</ele>
        <time>2015-04-20T18:34:43.068Z</time>
      </trkpt>
      <trkpt lat="48.83752" lon="2.32115">
        <ele>127</ele>
        <time>2015-04-20T18:34:44.084Z</time>
      </trkpt>
      <trkpt lat="48.83752" lon="2.32109">
        <ele>127</ele>
        <time>2015-04-20T18:34:45.490Z</time>
      </trkpt>
      <trkpt lat="48.83755" lon="2.32101">
        <ele>127.2</ele>
        <time>2015-04-20T18:34:46.026Z</time>
      </trkpt>
      <trkpt lat="48.83755" lon="2.32088">
        <ele>127.4</ele>
        <time>2015-04-20T18:34:48.040Z</time>
      </trkpt>
      <trkpt lat="48.83755" lon="2.32084">
        <ele>127.5</ele>
        <time>2015-04-20T18:34:49.048Z</time>
      </trkpt>
      <trkpt lat="48.83755" lon="2.32081">
        <ele>127.6</ele>
        <time>2015-04-20T18:34:50.009Z</time>
      </trkpt>
      <trkpt lat="48.83743" lon="2.31906">
        <ele>114.5</ele>
        <time>2015-04-20T18:35:18.119Z</time>
      </trkpt>
      <trkpt lat="48.83747" lon="2.31894">
        <ele>114.6</ele>
        <time>2015-04-20T18:35:20.055Z</time>
      </trkpt>
      <trkpt lat="48.83749" lon="2.3189">
        <ele>114.6</ele>
        <time>2015-04-20T18:35:21.139Z</time>
      </trkpt>
      <trkpt lat="48.83753" lon="2.31882">
        <ele>114.6</ele>
        <time>2015-04-20T18:35:23.010Z</time>
      </trkpt>
      <trkpt lat="48.83755" lon="2.31877">
        <ele>114.5</ele>
        <time>2015-04-20T18:35:24.122Z</time>
      </trkpt>
      <trkpt lat="48.83758" lon="2.31867">
        <ele>114.6</ele>
        <time>2015-04-20T18:35:26.100Z</time>
      </trkpt>
      <trkpt lat="48.83758" lon="2.31858">
        <ele>116</ele>
        <time>2015-04-20T18:35:28.119Z</time>
      </trkpt>
      <trkpt lat="48.83754" lon="2.31848">
        <ele>117.2</ele>
        <time>2015-04-20T18:35:30.049Z</time>
      </trkpt>
      <trkpt lat="48.83752" lon="2.31842">
        <ele>117.2</ele>
        <time>2015-04-20T18:35:31.053Z</time>
      </trkpt>
      <trkpt lat="48.83749" lon="2.31835">
        <ele>116.9</ele>
        <time>2015-04-20T18:35:32.068Z</time>
      </trkpt>
      <trkpt lat="48.83744" lon="2.31828">
        <ele>116.6</ele>
        <time>2015-04-20T18:35:33.114Z</time>
      </trkpt>
      <trkpt lat="48.83739" lon="2.31821">
        <ele>116.5</ele>
        <time>2015-04-20T18:35:34.892Z</time>
      </trkpt>
      <trkpt lat="48.83732" lon="2.31815">
        <ele>116.1</ele>
        <time>2015-04-20T18:35:35.053Z</time>
      </trkpt>
      <trkpt lat="48.83725" lon="2.31812">
        <ele>115.9</ele>
        <time>2015-04-20T18:35:36.144Z</time>
      </trkpt>
      <trkpt lat="48.83719" lon="2.31813">
        <ele>116.1</ele>
        <time>2015-04-20T18:35:37.158Z</time>
      </trkpt>
      <trkpt lat="48.83714" lon="2.31815">
        <ele>116.1</ele>
        <time>2015-04-20T18:35:38.039Z</time>
      </trkpt>
      <trkpt lat="48.83709" lon="2.31818">
        <ele>116.3</ele>
        <time>2015-04-20T18:35:39.141Z</time>
      </trkpt>
      <trkpt lat="48.83705" lon="2.31825">
        <ele>117</ele>
        <time>2015-04-20T18:35:40.078Z</time>
      </trkpt>
      <trkpt lat="48.83702" lon="2.31832">
        <ele>117.7</ele>
        <time>2015-04-20T18:35:41.089Z</time>
      </trkpt>
      <trkpt lat="48.83699" lon="2.31838">
        <ele>118.2</ele>
        <time>2015-04-20T18:35:42.048Z</time>
      </trkpt>
      <trkpt lat="48.83698" lon="2.31845">
        <ele>118.5</ele>
        <time>2015-04-20T18:35:43.062Z</time>
      </trkpt>
      <trkpt lat="48.83698" lon="2.31856">
        <ele>119.5</ele>
        <time>2015-04-20T18:35:45.131Z</time>
      </trkpt>
      <trkpt lat="48.837" lon="2.3186">
        <ele>119.8</ele>
        <time>2015-04-20T18:35:46.293Z</time>
      </trkpt>
      <trkpt lat="48.83706" lon="2.31869">
        <ele>120</ele>
        <time>2015-04-20T18:35:48.077Z</time>
      </trkpt>
      <trkpt lat="48.8371" lon="2.31872">
        <ele>119.9</ele>
        <time>2015-04-20T18:35:49.197Z</time>
      </trkpt>
      <trkpt lat="48.83714" lon="2.31874">
        <ele>119.9</ele>
        <time>2015-04-20T18:35:50.068Z</time>
      </trkpt>
      <trkpt lat="48.83719" lon="2.31874">
        <ele>119.9</ele>
        <time>2015-04-20T18:35:51.141Z</time>
      </trkpt>
      <trkpt lat="48.83726" lon="2.31872">
        <ele>120.5</ele>
        <time>2015-04-20T18:35:53.061Z</time>
      </trkpt>
      <trkpt lat="48.83729" lon="2.3187">
        <ele>120.6</ele>
        <time>2015-04-20T18:35:54.068Z</time>
      </trkpt>
      <trkpt lat="48.83735" lon="2.31863">
        <ele>121</ele>
        <time>2015-04-20T18:35:56.049Z</time>
      </trkpt>
      <trkpt lat="48.83738" lon="2.31858">
        <ele>121.2</ele>
        <time>2015-04-20T18:35:57.109Z</time>
      </trkpt>
      <trkpt lat="48.83741" lon="2.31851">
        <ele>121</ele>
        <time>2015-04-20T18:35:58.233Z</time>
      </trkpt>
      <trkpt lat="48.83744" lon="2.31844">
        <ele>120.6</ele>
        <time>2015-04-20T18:35:59.038Z</time>
      </trkpt>
      <trkpt lat="48.83744" lon="2.31832">
        <ele>121.1</ele>
        <time>2015-04-20T18:36:01.083Z</time>
      </trkpt>
      <trkpt lat="48.83742" lon="2.31826">
        <ele>121.2</ele>
        <time>2015-04-20T18:36:02.137Z</time>
      </trkpt>
      <trkpt lat="48.83737" lon="2.31816">
        <ele>121.3</ele>
        <time>2015-04-20T18:36:04.061Z</time>
      </trkpt>
      <trkpt lat="48.83733" lon="2.31811">
        <ele>121.3</ele>
        <time>2015-04-20T18:36:05.070Z</time>
      </trkpt>
      <trkpt lat="48.83728" lon="2.31808">
        <ele>121.3</ele>
        <time>2015-04-20T18:36:06.085Z</time>
      </trkpt>
      <trkpt lat="48.83723" lon="2.31806">
        <ele>121.2</ele>
        <time>2015-04-20T18:36:07.146Z</time>
      </trkpt>
      <trkpt lat="48.83718" lon="2.31803">
        <ele>121.2</ele>
        <time>2015-04-20T18:36:08.049Z</time>
      </trkpt>
      <trkpt lat="48.83714" lon="2.31801">
        <ele>121.3</ele>
        <time>2015-04-20T18:36:09.090Z</time>
      </trkpt>
      <trkpt lat="48.83708" lon="2.31797">
        <ele>121.4</ele>
        <time>2015-04-20T18:36:11.057Z</time>
      </trkpt>
      <trkpt lat="48.83705" lon="2.31798">
        <ele>121.5</ele>
        <time>2015-04-20T18:36:12.097Z</time>
      </trkpt>
      <trkpt lat="48.83698" lon="2.31802">
        <ele>121.9</ele>
        <time>2015-04-20T18:36:14.046Z</time>
      </trkpt>
      <trkpt lat="48.83695" lon="2.31803">
        <ele>122</ele>
        <time>2015-04-20T18:36:15.280Z</time>
      </trkpt>
      <trkpt lat="48.83686" lon="2.318">
        <ele>122.6</ele>
        <time>2015-04-20T18:36:19.138Z</time>
      </trkpt>
      <trkpt lat="48.83669" lon="2.31775">
        <ele>121</ele>
        <time>2015-04-20T18:36:28.093Z</time>
      </trkpt>
      <trkpt lat="48.83665" lon="2.31767">
        <ele>120.9</ele>
        <time>2015-04-20T18:36:30.011Z</time>
      </trkpt>
      <trkpt lat="48.83663" lon="2.31764">
        <ele>120.9</ele>
        <time>2015-04-20T18:36:31.049Z</time>
      </trkpt>
      <trkpt lat="48.83654" lon="2.31746">
        <ele>120.6</ele>
        <time>2015-04-20T18:36:37.100Z</time>
      </trkpt>
      <trkpt lat="48.83651" lon="2.31735">
        <ele>120.6</ele>
        <time>2015-04-20T18:36:40.105Z</time>
      </trkpt>
      <trkpt lat="48.8365" lon="2.31731">
        <ele>120.6</ele>
        <time>2015-04-20T18:36:41.026Z</time>
      </trkpt>
      <trkpt lat="48.83646" lon="2.3172">
        <ele>120.6</ele>
        <time>2015-04-20T18:36:44.097Z</time>
      </trkpt>
      <trkpt lat="48.83644" lon="2.31716">
        <ele>120.6</ele>
        <time>2015-04-20T18:36:45.122Z</time>
      </trkpt>
      <trkpt lat="48.83642" lon="2.31707">
        <ele>120.7</ele>
        <time>2015-04-20T18:36:47.041Z</time>
      </trkpt>
      <trkpt lat="48.83636" lon="2.31689">
        <ele>120.8</ele>
        <time>2015-04-20T18:36:51.047Z</time>
      </trkpt>
      <trkpt lat="48.83631" lon="2.31682">
        <ele>120.8</ele>
        <time>2015-04-20T18:36:53.086Z</time>
      </trkpt>
      <trkpt lat="48.83629" lon="2.31678">
        <ele>120.6</ele>
        <time>2015-04-20T18:36:54.006Z</time>
      </trkpt>
      <trkpt lat="48.83625" lon="2.3167">
        <ele>120.5</ele>
        <time>2015-04-20T18:36:55.292Z</time>
      </trkpt>
      <trkpt lat="48.83623" lon="2.31665">
        <ele>120.3</ele>
        <time>2015-04-20T18:36:57.118Z</time>
      </trkpt>
      <trkpt lat="48.83618" lon="2.31657">
        <ele>120</ele>
        <time>2015-04-20T18:36:59.037Z</time>
      </trkpt>
      <trkpt lat="48.83615" lon="2.31654">
        <ele>120</ele>
        <time>2015-04-20T18:37:00.078Z</time>
      </trkpt>
      <trkpt lat="48.83611" lon="2.31646">
        <ele>120</ele>
        <time>2015-04-20T18:37:02.040Z</time>
      </trkpt>
      <trkpt lat="48.83609" lon="2.31643">
        <ele>120</ele>
        <time>2015-04-20T18:37:03.134Z</time>
      </trkpt>
      <trkpt lat="48.83606" lon="2.31635">
        <ele>120.1</ele>
        <time>2015-04-20T18:37:05.070Z</time>
      </trkpt>
      <trkpt lat="48.83603" lon="2.31632">
        <ele>120.1</ele>
        <time>2015-04-20T18:37:06.008Z</time>
      </trkpt>
      <trkpt lat="48.836" lon="2.31624">
        <ele>120.2</ele>
        <time>2015-04-20T18:37:08.045Z</time>
      </trkpt>
      <trkpt lat="48.83599" lon="2.31619">
        <ele>120.3</ele>
        <time>2015-04-20T18:37:09.052Z</time>
      </trkpt>
      <trkpt lat="48.83595" lon="2.31608">
        <ele>120.4</ele>
        <time>2015-04-20T18:37:12.005Z</time>
      </trkpt>
      <trkpt lat="48.83594" lon="2.31605">
        <ele>120.5</ele>
        <time>2015-04-20T18:37:13.006Z</time>
      </trkpt>
      <trkpt lat="48.83588" lon="2.31595">
        <ele>120.8</ele>
        <time>2015-04-20T18:37:16.249Z</time>
      </trkpt>
      <trkpt lat="48.83585" lon="2.31592">
        <ele>120.9</ele>
        <time>2015-04-20T18:37:17.095Z</time>
      </trkpt>
      <trkpt lat="48.83581" lon="2.31586">
        <ele>121.3</ele>
        <time>2015-04-20T18:37:19.178Z</time>
      </trkpt>
      <trkpt lat="48.83579" lon="2.31581">
        <ele>121.6</ele>
        <time>2015-04-20T18:37:20.049Z</time>
      </trkpt>
      <trkpt lat="48.83574" lon="2.3157">
        <ele>121.9</ele>
        <time>2015-04-20T18:37:22.103Z</time>
      </trkpt>
      <trkpt lat="48.83571" lon="2.31565">
        <ele>122.1</ele>
        <time>2015-04-20T18:37:23.109Z</time>
      </trkpt>
      <trkpt lat="48.83568" lon="2.31553">
        <ele>123.3</ele>
        <time>2015-04-20T18:37:26.442Z</time>
      </trkpt>
      <trkpt lat="48.83567" lon="2.3155">
        <ele>124.1</ele>
        <time>2015-04-20T18:37:27.088Z</time>
      </trkpt>
      <trkpt lat="48.83559" lon="2.31548">
        <ele>128.3</ele>
        <time>2015-04-20T18:37:36.114Z</time>
      </trkpt>
      <trkpt lat="48.83558" lon="2.31543">
        <ele>128.3</ele>
        <time>2015-04-20T18:37:37.110Z</time>
      </trkpt>
      <trkpt lat="48.83553" lon="2.31535">
        <ele>128.6</ele>
        <time>2015-04-20T18:37:39.889Z</time>
      </trkpt>
      <trkpt lat="48.83446" lon="2.31388">
        <ele>125.5</ele>
        <time>2015-04-20T18:38:06.036Z</time>
      </trkpt>
      <trkpt lat="48.83414" lon="2.31335">
        <ele>125.1</ele>
        <time>2015-04-20T18:38:14.071Z</time>
      </trkpt>
      <trkpt lat="48.83409" lon="2.31327">
        <ele>125</ele>
        <time>2015-04-20T18:38:16.100Z</time>
      </trkpt>
      <trkpt lat="48.83407" lon="2.31319">
        <ele>125</ele>
        <time>2015-04-20T18:38:17.063Z</time>
      </trkpt>
      <trkpt lat="48.83407" lon="2.31308">
        <ele>125</ele>
        <time>2015-04-20T18:38:18.060Z</time>
      </trkpt>
      <trkpt lat="48.83404" lon="2.31295">
        <ele>125.4</ele>
        <time>2015-04-20T18:38:19.075Z</time>
      </trkpt>
      <trkpt lat="48.83403" lon="2.3129">
        <ele>125.5</ele>
        <time>2015-04-20T18:38:20.089Z</time>
      </trkpt>
      <trkpt lat="48.83395" lon="2.3128">
        <ele>125.4</ele>
        <time>2015-04-20T18:38:22.113Z</time>
      </trkpt>
      <trkpt lat="48.83354" lon="2.31251">
        <ele>124.1</ele>
        <time>2015-04-20T18:38:28.055Z</time>
      </trkpt>
      <trkpt lat="48.83348" lon="2.31244">
        <ele>124</ele>
        <time>2015-04-20T18:38:29.051Z</time>
      </trkpt>
      <trkpt lat="48.83344" lon="2.31234">
        <ele>123.9</ele>
        <time>2015-04-20T18:38:30.068Z</time>
      </trkpt>
      <trkpt lat="48.83285" lon="2.31171">
        <ele>121</ele>
        <time>2015-04-20T18:38:42.109Z</time>
      </trkpt>
      <trkpt lat="48.83282" lon="2.31168">
        <ele>120.9</ele>
        <time>2015-04-20T18:38:45.055Z</time>
      </trkpt>
      <trkpt lat="48.83283" lon="2.3117">
        <ele>120.9</ele>
        <time>2015-04-20T18:38:46.056Z</time>
      </trkpt>
      <trkpt lat="48.83283" lon="2.31171">
        <ele>120.6</ele>
        <time>2015-04-20T18:38:47.068Z</time>
      </trkpt>
      <trkpt lat="48.83283" lon="2.31171">
        <ele>120.7</ele>
        <time>2015-04-20T18:38:48.083Z</time>
      </trkpt>
      <trkpt lat="48.83284" lon="2.3117">
        <ele>120.5</ele>
        <time>2015-04-20T18:38:49.138Z</time>
      </trkpt>
      <trkpt lat="48.83287" lon="2.31166">
        <ele>120.5</ele>
        <time>2015-04-20T18:38:54.004Z</time>
      </trkpt>
      <trkpt lat="48.83287" lon="2.31167">
        <ele>120.6</ele>
        <time>2015-04-20T18:38:55.020Z</time>
      </trkpt>
      <trkpt lat="48.83287" lon="2.31168">
        <ele>120.7</ele>
        <time>2015-04-20T18:38:56.036Z</time>
      </trkpt>
      <trkpt lat="48.83286" lon="2.3117">
        <ele>120.6</ele>
        <time>2015-04-20T18:39:00.007Z</time>
      </trkpt>
      <trkpt lat="48.83286" lon="2.3117">
        <ele>120.7</ele>
        <time>2015-04-20T18:39:01.029Z</time>
      </trkpt>
      <trkpt lat="48.83286" lon="2.3117">
        <ele>120.6</ele>
        <time>2015-04-20T18:39:02.037Z</time>
      </trkpt>
      <trkpt lat="48.83283" lon="2.31158">
        <ele>122.1</ele>
        <time>2015-04-20T18:39:24.064Z</time>
      </trkpt>
      <trkpt lat="48.83282" lon="2.31157">
        <ele>122.2</ele>
        <time>2015-04-20T18:39:25.087Z</time>
      </trkpt>
      <trkpt lat="48.8328" lon="2.31144">
        <ele>122.7</ele>
        <time>2015-04-20T18:39:30.074Z</time>
      </trkpt>
      <trkpt lat="48.83279" lon="2.31141">
        <ele>122.8</ele>
        <time>2015-04-20T18:39:31.095Z</time>
      </trkpt>
      <trkpt lat="48.83274" lon="2.31131">
        <ele>122.6</ele>
        <time>2015-04-20T18:39:35.060Z</time>
      </trkpt>
      <trkpt lat="48.83271" lon="2.31128">
        <ele>122.5</ele>
        <time>2015-04-20T18:39:36.078Z</time>
      </trkpt>
      <trkpt lat="48.83265" lon="2.31121">
        <ele>122.5</ele>
        <time>2015-04-20T18:39:38.134Z</time>
      </trkpt>
      <trkpt lat="48.83263" lon="2.31117">
        <ele>122.5</ele>
        <time>2015-04-20T18:39:39.148Z</time>
      </trkpt>
      <trkpt lat="48.83258" lon="2.31108">
        <ele>122.5</ele>
        <time>2015-04-20T18:39:41.061Z</time>
      </trkpt>
      <trkpt lat="48.83255" lon="2.31104">
        <ele>122.6</ele>
        <time>2015-04-20T18:39:42.068Z</time>
      </trkpt>
      <trkpt lat="48.8325" lon="2.31094">
        <ele>122.8</ele>
        <time>2015-04-20T18:39:44.125Z</time>
      </trkpt>
      <trkpt lat="48.83247" lon="2.31089">
        <ele>123</ele>
        <time>2015-04-20T18:39:45.182Z</time>
      </trkpt>
      <trkpt lat="48.83241" lon="2.31082">
        <ele>123.2</ele>
        <time>2015-04-20T18:39:47.111Z</time>
      </trkpt>
      <trkpt lat="48.83238" lon="2.31078">
        <ele>123.1</ele>
        <time>2015-04-20T18:39:48.131Z</time>
      </trkpt>
      <trkpt lat="48.83232" lon="2.3107">
        <ele>123.1</ele>
        <time>2015-04-20T18:39:50.122Z</time>
      </trkpt>
      <trkpt lat="48.8323" lon="2.31065">
        <ele>123.1</ele>
        <time>2015-04-20T18:39:51.107Z</time>
      </trkpt>
      <trkpt lat="48.83226" lon="2.31056">
        <ele>123.3</ele>
        <time>2015-04-20T18:39:53.178Z</time>
      </trkpt>
      <trkpt lat="48.83224" lon="2.31051">
        <ele>123.4</ele>
        <time>2015-04-20T18:39:54.048Z</time>
      </trkpt>
      <trkpt lat="48.83216" lon="2.31035">
        <ele>123.8</ele>
        <time>2015-04-20T18:39:58.107Z</time>
      </trkpt>
      <trkpt lat="48.83211" lon="2.31019">
        <ele>124.2</ele>
        <time>2015-04-20T18:40:01.135Z</time>
      </trkpt>
      <trkpt lat="48.83206" lon="2.31012">
        <ele>124.4</ele>
        <time>2015-04-20T18:40:03.131Z</time>
      </trkpt>
      <trkpt lat="48.83203" lon="2.31006">
        <ele>124.5</ele>
        <time>2015-04-20T18:40:04.040Z</time>
      </trkpt>
      <trkpt lat="48.83196" lon="2.31">
        <ele>124.1</ele>
        <time>2015-04-20T18:40:06.158Z</time>
      </trkpt>
      <trkpt lat="48.83193" lon="2.30995">
        <ele>123.9</ele>
        <time>2015-04-20T18:40:07.041Z</time>
      </trkpt>
      <trkpt lat="48.83188" lon="2.30986">
        <ele>123.7</ele>
        <time>2015-04-20T18:40:09.078Z</time>
      </trkpt>
      <trkpt lat="48.83185" lon="2.30981">
        <ele>123.3</ele>
        <time>2015-04-20T18:40:10.088Z</time>
      </trkpt>
      <trkpt lat="48.83181" lon="2.30975">
        <ele>123.1</ele>
        <time>2015-04-20T18:40:11.099Z</time>
      </trkpt>
      <trkpt lat="48.83176" lon="2.30968">
        <ele>123.5</ele>
        <time>2015-04-20T18:40:12.109Z</time>
      </trkpt>
      <trkpt lat="48.83172" lon="2.30962">
        <ele>123.5</ele>
        <time>2015-04-20T18:40:12.997Z</time>
      </trkpt>
      <trkpt lat="48.83168" lon="2.30956">
        <ele>123.4</ele>
        <time>2015-04-20T18:40:14.060Z</time>
      </trkpt>
      <trkpt lat="48.83165" lon="2.3095">
        <ele>123.4</ele>
        <time>2015-04-20T18:40:15.083Z</time>
      </trkpt>
      <trkpt lat="48.83163" lon="2.30944">
        <ele>123.7</ele>
        <time>2015-04-20T18:40:16.048Z</time>
      </trkpt>
      <trkpt lat="48.83158" lon="2.30934">
        <ele>124</ele>
        <time>2015-04-20T18:40:18.062Z</time>
      </trkpt>
      <trkpt lat="48.83156" lon="2.30927">
        <ele>124.2</ele>
        <time>2015-04-20T18:40:19.085Z</time>
      </trkpt>
      <trkpt lat="48.83154" lon="2.30922">
        <ele>124.4</ele>
        <time>2015-04-20T18:40:20.022Z</time>
      </trkpt>
      <trkpt lat="48.83149" lon="2.30913">
        <ele>125</ele>
        <time>2015-04-20T18:40:22.105Z</time>
      </trkpt>
      <trkpt lat="48.83144" lon="2.30907">
        <ele>125.6</ele>
        <time>2015-04-20T18:40:24.044Z</time>
      </trkpt>
      <trkpt lat="48.83142" lon="2.30904">
        <ele>125.6</ele>
        <time>2015-04-20T18:40:25.037Z</time>
      </trkpt>
      <trkpt lat="48.83138" lon="2.30898">
        <ele>126.1</ele>
        <time>2015-04-20T18:40:27.138Z</time>
      </trkpt>
      <trkpt lat="48.83135" lon="2.30894">
        <ele>126.3</ele>
        <time>2015-04-20T18:40:28.068Z</time>
      </trkpt>
      <trkpt lat="48.83129" lon="2.30885">
        <ele>126.7</ele>
        <time>2015-04-20T18:40:30.099Z</time>
      </trkpt>
      <trkpt lat="48.83127" lon="2.30881">
        <ele>126.8</ele>
        <time>2015-04-20T18:40:31.108Z</time>
      </trkpt>
      <trkpt lat="48.83124" lon="2.30872">
        <ele>127.1</ele>
        <time>2015-04-20T18:40:33.125Z</time>
      </trkpt>
      <trkpt lat="48.83122" lon="2.30867">
        <ele>127.2</ele>
        <time>2015-04-20T18:40:34.167Z</time>
      </trkpt>
      <trkpt lat="48.83118" lon="2.30862">
        <ele>127.3</ele>
        <time>2015-04-20T18:40:35.032Z</time>
      </trkpt>
      <trkpt lat="48.83113" lon="2.30858">
        <ele>127.3</ele>
        <time>2015-04-20T18:40:36.052Z</time>
      </trkpt>
      <trkpt lat="48.83109" lon="2.30854">
        <ele>127.2</ele>
        <time>2015-04-20T18:40:37.068Z</time>
      </trkpt>
      <trkpt lat="48.83104" lon="2.3085">
        <ele>127.1</ele>
        <time>2015-04-20T18:40:38.083Z</time>
      </trkpt>
      <trkpt lat="48.831" lon="2.30847">
        <ele>126.9</ele>
        <time>2015-04-20T18:40:39.837Z</time>
      </trkpt>
      <trkpt lat="48.83095" lon="2.30844">
        <ele>126.6</ele>
        <time>2015-04-20T18:40:40.008Z</time>
      </trkpt>
      <trkpt lat="48.83092" lon="2.3084">
        <ele>126.5</ele>
        <time>2015-04-20T18:40:41.052Z</time>
      </trkpt>
      <trkpt lat="48.83087" lon="2.30837">
        <ele>126.3</ele>
        <time>2015-04-20T18:40:42.054Z</time>
      </trkpt>
      <trkpt lat="48.8308" lon="2.3083">
        <ele>126.1</ele>
        <time>2015-04-20T18:40:44.062Z</time>
      </trkpt>
      <trkpt lat="48.83077" lon="2.30826">
        <ele>125.8</ele>
        <time>2015-04-20T18:40:45.094Z</time>
      </trkpt>
      <trkpt lat="48.83071" lon="2.30821">
        <ele>125.1</ele>
        <time>2015-04-20T18:40:44.937Z</time>
      </trkpt>
      <trkpt lat="48.83068" lon="2.30817">
        <ele>125</ele>
        <time>2015-04-20T18:40:47.106Z</time>
      </trkpt>
      <trkpt lat="48.83062" lon="2.30808">
        <ele>124.9</ele>
        <time>2015-04-20T18:40:49.046Z</time>
      </trkpt>
      <trkpt lat="48.8306" lon="2.30804">
        <ele>125.1</ele>
        <time>2015-04-20T18:40:50.058Z</time>
      </trkpt>
      <trkpt lat="48.83056" lon="2.308">
        <ele>125.1</ele>
        <time>2015-04-20T18:40:51.067Z</time>
      </trkpt>
      <trkpt lat="48.83053" lon="2.30794">
        <ele>125.3</ele>
        <time>2015-04-20T18:40:52.154Z</time>
      </trkpt>
      <trkpt lat="48.83046" lon="2.30787">
        <ele>125.8</ele>
        <time>2015-04-20T18:40:54.089Z</time>
      </trkpt>
      <trkpt lat="48.83043" lon="2.30783">
        <ele>126.1</ele>
        <time>2015-04-20T18:40:55.099Z</time>
      </trkpt>
      <trkpt lat="48.83038" lon="2.30772">
        <ele>126.5</ele>
        <time>2015-04-20T18:40:57.127Z</time>
      </trkpt>
      <trkpt lat="48.83034" lon="2.30767">
        <ele>126.1</ele>
        <time>2015-04-20T18:40:58.097Z</time>
      </trkpt>
      <trkpt lat="48.83028" lon="2.30761">
        <ele>125.6</ele>
        <time>2015-04-20T18:41:00.570Z</time>
      </trkpt>
      <trkpt lat="48.83024" lon="2.30758">
        <ele>125.6</ele>
        <time>2015-04-20T18:41:01.062Z</time>
      </trkpt>
      <trkpt lat="48.83019" lon="2.30752">
        <ele>125.9</ele>
        <time>2015-04-20T18:41:03.168Z</time>
      </trkpt>
      <trkpt lat="48.83016" lon="2.30747">
        <ele>126.1</ele>
        <time>2015-04-20T18:41:04.030Z</time>
      </trkpt>
      <trkpt lat="48.83012" lon="2.30736">
        <ele>126.3</ele>
        <time>2015-04-20T18:41:06.076Z</time>
      </trkpt>
      <trkpt lat="48.8301" lon="2.30731">
        <ele>126.4</ele>
        <time>2015-04-20T18:41:07.091Z</time>
      </trkpt>
      <trkpt lat="48.83006" lon="2.3072">
        <ele>126.4</ele>
        <time>2015-04-20T18:41:09.120Z</time>
      </trkpt>
      <trkpt lat="48.83003" lon="2.30716">
        <ele>126.2</ele>
        <time>2015-04-20T18:41:10.215Z</time>
      </trkpt>
      <trkpt lat="48.82997" lon="2.30709">
        <ele>125.7</ele>
        <time>2015-04-20T18:41:12.042Z</time>
      </trkpt>
      <trkpt lat="48.82994" lon="2.30705">
        <ele>125.9</ele>
        <time>2015-04-20T18:41:13.058Z</time>
      </trkpt>
      <trkpt lat="48.82991" lon="2.30696">
        <ele>126.1</ele>
        <time>2015-04-20T18:41:15.925Z</time>
      </trkpt>
      <trkpt lat="48.82988" lon="2.30691">
        <ele>125.8</ele>
        <time>2015-04-20T18:41:16.012Z</time>
      </trkpt>
      <trkpt lat="48.82984" lon="2.30686">
        <ele>125.9</ele>
        <time>2015-04-20T18:41:17.032Z</time>
      </trkpt>
      <trkpt lat="48.82981" lon="2.30682">
        <ele>126</ele>
        <time>2015-04-20T18:41:18.049Z</time>
      </trkpt>
      <trkpt lat="48.82976" lon="2.30678">
        <ele>126.1</ele>
        <time>2015-04-20T18:41:19.054Z</time>
      </trkpt>
      <trkpt lat="48.82971" lon="2.30675">
        <ele>125.7</ele>
        <time>2015-04-20T18:41:20.064Z</time>
      </trkpt>
      <trkpt lat="48.82967" lon="2.30671">
        <ele>125.3</ele>
        <time>2015-04-20T18:41:21.079Z</time>
      </trkpt>
      <trkpt lat="48.82962" lon="2.30668">
        <ele>125.2</ele>
        <time>2015-04-20T18:41:22.098Z</time>
      </trkpt>
      <trkpt lat="48.82958" lon="2.30665">
        <ele>125</ele>
        <time>2015-04-20T18:41:23.119Z</time>
      </trkpt>
      <trkpt lat="48.82952" lon="2.3066">
        <ele>124.9</ele>
        <time>2015-04-20T18:41:24.150Z</time>
      </trkpt>
      <trkpt lat="48.82946" lon="2.30655">
        <ele>125.1</ele>
        <time>2015-04-20T18:41:25.073Z</time>
      </trkpt>
      <trkpt lat="48.8294" lon="2.30649">
        <ele>125.2</ele>
        <time>2015-04-20T18:41:26.059Z</time>
      </trkpt>
      <trkpt lat="48.82935" lon="2.30643">
        <ele>125.9</ele>
        <time>2015-04-20T18:41:27.115Z</time>
      </trkpt>
      <trkpt lat="48.82931" lon="2.30639">
        <ele>126.5</ele>
        <time>2015-04-20T18:41:28.102Z</time>
      </trkpt>
      <trkpt lat="48.82925" lon="2.30629">
        <ele>127.7</ele>
        <time>2015-04-20T18:41:30.130Z</time>
      </trkpt>
      <trkpt lat="48.82924" lon="2.30626">
        <ele>128.1</ele>
        <time>2015-04-20T18:41:31.059Z</time>
      </trkpt>
      <trkpt lat="48.8292" lon="2.30617">
        <ele>128.9</ele>
        <time>2015-04-20T18:41:33.140Z</time>
      </trkpt>
      <trkpt lat="48.82918" lon="2.30614">
        <ele>129</ele>
        <time>2015-04-20T18:41:34.139Z</time>
      </trkpt>
      <trkpt lat="48.82915" lon="2.30605">
        <ele>129.4</ele>
        <time>2015-04-20T18:41:36.037Z</time>
      </trkpt>
      <trkpt lat="48.82908" lon="2.30589">
        <ele>129.9</ele>
        <time>2015-04-20T18:41:39.136Z</time>
      </trkpt>
      <trkpt lat="48.82902" lon="2.30584">
        <ele>131.2</ele>
        <time>2015-04-20T18:41:41.053Z</time>
      </trkpt>
      <trkpt lat="48.82899" lon="2.30584">
        <ele>131.8</ele>
        <time>2015-04-20T18:41:42.061Z</time>
      </trkpt>
      <trkpt lat="48.82891" lon="2.30582">
        <ele>133.3</ele>
        <time>2015-04-20T18:41:44.129Z</time>
      </trkpt>
      <trkpt lat="48.82887" lon="2.3058">
        <ele>134</ele>
        <time>2015-04-20T18:41:45.143Z</time>
      </trkpt>
      <trkpt lat="48.82883" lon="2.30578">
        <ele>134.3</ele>
        <time>2015-04-20T18:41:45.170Z</time>
      </trkpt>
      <trkpt lat="48.82878" lon="2.30576">
        <ele>134.2</ele>
        <time>2015-04-20T18:41:47.087Z</time>
      </trkpt>
      <trkpt lat="48.82873" lon="2.30573">
        <ele>134</ele>
        <time>2015-04-20T18:41:48.166Z</time>
      </trkpt>
      <trkpt lat="48.8287" lon="2.3057">
        <ele>134</ele>
        <time>2015-04-20T18:41:49.127Z</time>
      </trkpt>
      <trkpt lat="48.82862" lon="2.30564">
        <ele>134.4</ele>
        <time>2015-04-20T18:41:51.070Z</time>
      </trkpt>
      <trkpt lat="48.82858" lon="2.30559">
        <ele>134.4</ele>
        <time>2015-04-20T18:41:52.072Z</time>
      </trkpt>
      <trkpt lat="48.82852" lon="2.30551">
        <ele>134.6</ele>
        <time>2015-04-20T18:41:54.100Z</time>
      </trkpt>
      <trkpt lat="48.82848" lon="2.30547">
        <ele>134.7</ele>
        <time>2015-04-20T18:41:55.121Z</time>
      </trkpt>
      <trkpt lat="48.82844" lon="2.30543">
        <ele>134.8</ele>
        <time>2015-04-20T18:41:56.021Z</time>
      </trkpt>
      <trkpt lat="48.8284" lon="2.30536">
        <ele>134.9</ele>
        <time>2015-04-20T18:41:57.125Z</time>
      </trkpt>
      <trkpt lat="48.82836" lon="2.30531">
        <ele>134.5</ele>
        <time>2015-04-20T18:41:58.133Z</time>
      </trkpt>
      <trkpt lat="48.82832" lon="2.30526">
        <ele>134.7</ele>
        <time>2015-04-20T18:41:59.150Z</time>
      </trkpt>
      <trkpt lat="48.82828" lon="2.30521">
        <ele>134.9</ele>
        <time>2015-04-20T18:42:00.371Z</time>
      </trkpt>
      <trkpt lat="48.82824" lon="2.30516">
        <ele>135</ele>
        <time>2015-04-20T18:42:01.058Z</time>
      </trkpt>
      <trkpt lat="48.8282" lon="2.30512">
        <ele>135</ele>
        <time>2015-04-20T18:42:02.080Z</time>
      </trkpt>
      <trkpt lat="48.82817" lon="2.30507">
        <ele>135.1</ele>
        <time>2015-04-20T18:42:03.114Z</time>
      </trkpt>
      <trkpt lat="48.82813" lon="2.30503">
        <ele>135</ele>
        <time>2015-04-20T18:42:04.133Z</time>
      </trkpt>
      <trkpt lat="48.8281" lon="2.30499">
        <ele>135.1</ele>
        <time>2015-04-20T18:42:05.025Z</time>
      </trkpt>
      <trkpt lat="48.82806" lon="2.30495">
        <ele>135.1</ele>
        <time>2015-04-20T18:42:06.028Z</time>
      </trkpt>
      <trkpt lat="48.82802" lon="2.30491">
        <ele>135.1</ele>
        <time>2015-04-20T18:42:07.036Z</time>
      </trkpt>
      <trkpt lat="48.82799" lon="2.30486">
        <ele>135.3</ele>
        <time>2015-04-20T18:42:08.050Z</time>
      </trkpt>
      <trkpt lat="48.82795" lon="2.30482">
        <ele>135.3</ele>
        <time>2015-04-20T18:42:09.092Z</time>
      </trkpt>
      <trkpt lat="48.82789" lon="2.30474">
        <ele>135.5</ele>
        <time>2015-04-20T18:42:11.103Z</time>
      </trkpt>
      <trkpt lat="48.82786" lon="2.30469">
        <ele>135.7</ele>
        <time>2015-04-20T18:42:12.110Z</time>
      </trkpt>
      <trkpt lat="48.8278" lon="2.30461">
        <ele>135.9</ele>
        <time>2015-04-20T18:42:14.062Z</time>
      </trkpt>
      <trkpt lat="48.82777" lon="2.30457">
        <ele>136</ele>
        <time>2015-04-20T18:42:15.140Z</time>
      </trkpt>
      <trkpt lat="48.82771" lon="2.3045">
        <ele>136.2</ele>
        <time>2015-04-20T18:42:17.069Z</time>
      </trkpt>
      <trkpt lat="48.82768" lon="2.30447">
        <ele>136.3</ele>
        <time>2015-04-20T18:42:18.080Z</time>
      </trkpt>
      <trkpt lat="48.82763" lon="2.30439">
        <ele>136.7</ele>
        <time>2015-04-20T18:42:20.726Z</time>
      </trkpt>
      <trkpt lat="48.8276" lon="2.30435">
        <ele>136.7</ele>
        <time>2015-04-20T18:42:21.189Z</time>
      </trkpt>
      <trkpt lat="48.82754" lon="2.30428">
        <ele>136.8</ele>
        <time>2015-04-20T18:42:23.047Z</time>
      </trkpt>
      <trkpt lat="48.82752" lon="2.30426">
        <ele>136.9</ele>
        <time>2015-04-20T18:42:24.088Z</time>
      </trkpt>
      <trkpt lat="48.82745" lon="2.30417">
        <ele>136.3</ele>
        <time>2015-04-20T18:42:27.057Z</time>
      </trkpt>
      <trkpt lat="48.82743" lon="2.30413">
        <ele>136</ele>
        <time>2015-04-20T18:42:28.117Z</time>
      </trkpt>
      <trkpt lat="48.8274" lon="2.30409">
        <ele>135.2</ele>
        <time>2015-04-20T18:42:29.856Z</time>
      </trkpt>
      <trkpt lat="48.82723" lon="2.30396">
        <ele>136</ele>
        <time>2015-04-20T18:42:34.107Z</time>
      </trkpt>
      <trkpt lat="48.82716" lon="2.30386">
        <ele>136.2</ele>
        <time>2015-04-20T18:42:35.121Z</time>
      </trkpt>
      <trkpt lat="48.82716" lon="2.30386">
        <ele>136.2</ele>
        <time>2015-04-20T18:42:35.261Z</time>
      </trkpt>
      <trkpt lat="48.82708" lon="2.30376">
        <ele>135.2</ele>
        <time>2015-04-20T18:42:36.007Z</time>
      </trkpt>
      <trkpt lat="48.827" lon="2.30369">
        <ele>134.5</ele>
        <time>2015-04-20T18:42:37.016Z</time>
      </trkpt>
      <trkpt lat="48.82693" lon="2.30363">
        <ele>134.2</ele>
        <time>2015-04-20T18:42:38.051Z</time>
      </trkpt>
      <trkpt lat="48.82686" lon="2.30358">
        <ele>133.8</ele>
        <time>2015-04-20T18:42:39.074Z</time>
      </trkpt>
      <trkpt lat="48.82679" lon="2.30352">
        <ele>133.1</ele>
        <time>2015-04-20T18:42:40.093Z</time>
      </trkpt>
      <trkpt lat="48.82671" lon="2.30345">
        <ele>132.5</ele>
        <time>2015-04-20T18:42:41.039Z</time>
      </trkpt>
      <trkpt lat="48.82664" lon="2.30337">
        <ele>132</ele>
        <time>2015-04-20T18:42:42.069Z</time>
      </trkpt>
      <trkpt lat="48.82658" lon="2.30328">
        <ele>131.7</ele>
        <time>2015-04-20T18:42:43.093Z</time>
      </trkpt>
      <trkpt lat="48.82652" lon="2.3032">
        <ele>131.5</ele>
        <time>2015-04-20T18:42:44.094Z</time>
      </trkpt>
      <trkpt lat="48.82646" lon="2.30311">
        <ele>131.3</ele>
        <time>2015-04-20T18:42:45.110Z</time>
      </trkpt>
      <trkpt lat="48.8264" lon="2.30304">
        <ele>131.1</ele>
        <time>2015-04-20T18:42:46.122Z</time>
      </trkpt>
      <trkpt lat="48.82635" lon="2.30296">
        <ele>131.1</ele>
        <time>2015-04-20T18:42:47.041Z</time>
      </trkpt>
      <trkpt lat="48.82629" lon="2.30289">
        <ele>131</ele>
        <time>2015-04-20T18:42:48.058Z</time>
      </trkpt>
      <trkpt lat="48.82625" lon="2.30282">
        <ele>130.9</ele>
        <time>2015-04-20T18:42:49.078Z</time>
      </trkpt>
      <trkpt lat="48.82619" lon="2.30275">
        <ele>130.4</ele>
        <time>2015-04-20T18:42:50.093Z</time>
      </trkpt>
      <trkpt lat="48.82613" lon="2.30269">
        <ele>130.2</ele>
        <time>2015-04-20T18:42:51.100Z</time>
      </trkpt>
      <trkpt lat="48.82608" lon="2.30264">
        <ele>130.1</ele>
        <time>2015-04-20T18:42:52.110Z</time>
      </trkpt>
      <trkpt lat="48.82602" lon="2.3026">
        <ele>130.2</ele>
        <time>2015-04-20T18:42:53.127Z</time>
      </trkpt>
      <trkpt lat="48.82596" lon="2.30256">
        <ele>130.1</ele>
        <time>2015-04-20T18:42:54.044Z</time>
      </trkpt>
      <trkpt lat="48.8259" lon="2.30252">
        <ele>129.9</ele>
        <time>2015-04-20T18:42:55.046Z</time>
      </trkpt>
      <trkpt lat="48.82583" lon="2.30249">
        <ele>130.2</ele>
        <time>2015-04-20T18:42:56.080Z</time>
      </trkpt>
      <trkpt lat="48.82577" lon="2.30246">
        <ele>130.9</ele>
        <time>2015-04-20T18:42:57.117Z</time>
      </trkpt>
      <trkpt lat="48.82572" lon="2.30243">
        <ele>131.4</ele>
        <time>2015-04-20T18:42:58.101Z</time>
      </trkpt>
      <trkpt lat="48.82564" lon="2.30237">
        <ele>132.4</ele>
        <time>2015-04-20T18:43:00.141Z</time>
      </trkpt>
      <trkpt lat="48.82562" lon="2.30235">
        <ele>132.6</ele>
        <time>2015-04-20T18:43:01.061Z</time>
      </trkpt>
      <trkpt lat="48.82557" lon="2.30238">
        <ele>134.5</ele>
        <time>2015-04-20T18:43:37.059Z</time>
      </trkpt>
      <trkpt lat="48.82557" lon="2.30238">
        <ele>134.8</ele>
        <time>2015-04-20T18:43:38.036Z</time>
      </trkpt>
      <trkpt lat="48.82556" lon="2.30239">
        <ele>134.8</ele>
        <time>2015-04-20T18:44:17.142Z</time>
      </trkpt>
      <trkpt lat="48.82558" lon="2.30242">
        <ele>130.9</ele>
        <time>2015-04-20T18:44:18.061Z</time>
      </trkpt>
      <trkpt lat="48.82551" lon="2.30234">
        <ele>130.2</ele>
        <time>2015-04-20T18:44:22.077Z</time>
      </trkpt>
      <trkpt lat="48.82549" lon="2.30233">
        <ele>130.4</ele>
        <time>2015-04-20T18:44:23.067Z</time>
      </trkpt>
      <trkpt lat="48.82542" lon="2.3023">
        <ele>130.3</ele>
        <time>2015-04-20T18:44:26.067Z</time>
      </trkpt>
      <trkpt lat="48.82539" lon="2.30229">
        <ele>130.2</ele>
        <time>2015-04-20T18:44:27.157Z</time>
      </trkpt>
      <trkpt lat="48.82531" lon="2.30226">
        <ele>130.1</ele>
        <time>2015-04-20T18:44:30.112Z</time>
      </trkpt>
      <trkpt lat="48.82529" lon="2.30224">
        <ele>130.2</ele>
        <time>2015-04-20T18:44:31.155Z</time>
      </trkpt>
      <trkpt lat="48.82522" lon="2.3022">
        <ele>130</ele>
        <time>2015-04-20T18:44:34.157Z</time>
      </trkpt>
      <trkpt lat="48.82519" lon="2.30219">
        <ele>130</ele>
        <time>2015-04-20T18:44:35.059Z</time>
      </trkpt>
      <trkpt lat="48.8251" lon="2.30215">
        <ele>129.7</ele>
        <time>2015-04-20T18:44:38.072Z</time>
      </trkpt>
      <trkpt lat="48.82507" lon="2.30214">
        <ele>129.5</ele>
        <time>2015-04-20T18:44:39.114Z</time>
      </trkpt>
      <trkpt lat="48.82502" lon="2.30209">
        <ele>129.3</ele>
        <time>2015-04-20T18:44:41.052Z</time>
      </trkpt>
      <trkpt lat="48.82499" lon="2.30207">
        <ele>129.3</ele>
        <time>2015-04-20T18:44:42.059Z</time>
      </trkpt>
      <trkpt lat="48.82492" lon="2.30202">
        <ele>130.1</ele>
        <time>2015-04-20T18:44:44.119Z</time>
      </trkpt>
      <trkpt lat="48.82488" lon="2.30198">
        <ele>130.4</ele>
        <time>2015-04-20T18:44:45.115Z</time>
      </trkpt>
      <trkpt lat="48.82483" lon="2.30189">
        <ele>130.9</ele>
        <time>2015-04-20T18:44:47.134Z</time>
      </trkpt>
      <trkpt lat="48.8248" lon="2.30185">
        <ele>131.3</ele>
        <time>2015-04-20T18:44:48.034Z</time>
      </trkpt>
      <trkpt lat="48.82477" lon="2.30174">
        <ele>131.5</ele>
        <time>2015-04-20T18:44:50.154Z</time>
      </trkpt>
      <trkpt lat="48.82475" lon="2.30168">
        <ele>131.6</ele>
        <time>2015-04-20T18:44:51.174Z</time>
      </trkpt>
      <trkpt lat="48.82474" lon="2.30157">
        <ele>131.8</ele>
        <time>2015-04-20T18:44:53.069Z</time>
      </trkpt>
      <trkpt lat="48.82473" lon="2.30153">
        <ele>131.9</ele>
        <time>2015-04-20T18:44:54.086Z</time>
      </trkpt>
      <trkpt lat="48.8247" lon="2.30143">
        <ele>132.1</ele>
        <time>2015-04-20T18:44:56.157Z</time>
      </trkpt>
      <trkpt lat="48.82469" lon="2.30138">
        <ele>132.2</ele>
        <time>2015-04-20T18:44:57.169Z</time>
      </trkpt>
      <trkpt lat="48.82466" lon="2.30129">
        <ele>132.2</ele>
        <time>2015-04-20T18:44:59.070Z</time>
      </trkpt>
      <trkpt lat="48.82464" lon="2.30126">
        <ele>132.2</ele>
        <time>2015-04-20T18:45:00.143Z</time>
      </trkpt>
      <trkpt lat="48.8246" lon="2.30118">
        <ele>131.9</ele>
        <time>2015-04-20T18:45:03.088Z</time>
      </trkpt>
      <trkpt lat="48.82456" lon="2.30113">
        <ele>131.8</ele>
        <time>2015-04-20T18:45:04.112Z</time>
      </trkpt>
      <trkpt lat="48.82451" lon="2.30108">
        <ele>131.4</ele>
        <time>2015-04-20T18:45:05.143Z</time>
      </trkpt>
      <trkpt lat="48.82445" lon="2.30101">
        <ele>131</ele>
        <time>2015-04-20T18:45:06.046Z</time>
      </trkpt>
      <trkpt lat="48.82439" lon="2.30095">
        <ele>130.8</ele>
        <time>2015-04-20T18:45:07.073Z</time>
      </trkpt>
      <trkpt lat="48.82432" lon="2.30089">
        <ele>130.5</ele>
        <time>2015-04-20T18:45:08.067Z</time>
      </trkpt>
      <trkpt lat="48.82427" lon="2.30084">
        <ele>130.3</ele>
        <time>2015-04-20T18:45:09.098Z</time>
      </trkpt>
      <trkpt lat="48.82422" lon="2.30077">
        <ele>130.1</ele>
        <time>2015-04-20T18:45:10.113Z</time>
      </trkpt>
      <trkpt lat="48.82417" lon="2.30071">
        <ele>129.9</ele>
        <time>2015-04-20T18:45:11.140Z</time>
      </trkpt>
      <trkpt lat="48.82413" lon="2.30066">
        <ele>129.7</ele>
        <time>2015-04-20T18:45:12.057Z</time>
      </trkpt>
      <trkpt lat="48.82408" lon="2.30059">
        <ele>129.8</ele>
        <time>2015-04-20T18:45:13.052Z</time>
      </trkpt>
      <trkpt lat="48.82404" lon="2.30054">
        <ele>129.8</ele>
        <time>2015-04-20T18:45:14.066Z</time>
      </trkpt>
      <trkpt lat="48.824" lon="2.30048">
        <ele>129.8</ele>
        <time>2015-04-20T18:45:15.119Z</time>
      </trkpt>
      <trkpt lat="48.82396" lon="2.30043">
        <ele>129.9</ele>
        <time>2015-04-20T18:45:16.135Z</time>
      </trkpt>
      <trkpt lat="48.82393" lon="2.30039">
        <ele>129.8</ele>
        <time>2015-04-20T18:45:17.054Z</time>
      </trkpt>
      <trkpt lat="48.82389" lon="2.30035">
        <ele>129.9</ele>
        <time>2015-04-20T18:45:18.073Z</time>
      </trkpt>
      <trkpt lat="48.82385" lon="2.30031">
        <ele>129.7</ele>
        <time>2015-04-20T18:45:19.120Z</time>
      </trkpt>
      <trkpt lat="48.82381" lon="2.30027">
        <ele>129.6</ele>
        <time>2015-04-20T18:45:20.117Z</time>
      </trkpt>
      <trkpt lat="48.82376" lon="2.30018">
        <ele>129.6</ele>
        <time>2015-04-20T18:45:22.138Z</time>
      </trkpt>
      <trkpt lat="48.82373" lon="2.30015">
        <ele>129.6</ele>
        <time>2015-04-20T18:45:23.031Z</time>
      </trkpt>
      <trkpt lat="48.82367" lon="2.3001">
        <ele>129.4</ele>
        <time>2015-04-20T18:45:25.120Z</time>
      </trkpt>
      <trkpt lat="48.82364" lon="2.30007">
        <ele>129.4</ele>
        <time>2015-04-20T18:45:26.127Z</time>
      </trkpt>
      <trkpt lat="48.82357" lon="2.30001">
        <ele>129.7</ele>
        <time>2015-04-20T18:45:29.136Z</time>
      </trkpt>
      <trkpt lat="48.82354" lon="2.30001">
        <ele>129.6</ele>
        <time>2015-04-20T18:45:30.151Z</time>
      </trkpt>
      <trkpt lat="48.82359" lon="2.30011">
        <ele>128.3</ele>
        <time>2015-04-20T18:45:35.087Z</time>
      </trkpt>
      <trkpt lat="48.82361" lon="2.30013">
        <ele>128</ele>
        <time>2015-04-20T18:45:36.085Z</time>
      </trkpt>
      <trkpt lat="48.82366" lon="2.30022">
        <ele>127.6</ele>
        <time>2015-04-20T18:45:39.129Z</time>
      </trkpt>
      <trkpt lat="48.82367" lon="2.30025">
        <ele>127.4</ele>
        <time>2015-04-20T18:45:40.039Z</time>
      </trkpt>
      <trkpt lat="48.82363" lon="2.30034">
        <ele>127.3</ele>
        <time>2015-04-20T18:45:43.084Z</time>
      </trkpt>
      <trkpt lat="48.8236" lon="2.30037">
        <ele>127.1</ele>
        <time>2015-04-20T18:45:44.097Z</time>
      </trkpt>
      <trkpt lat="48.82354" lon="2.30041">
        <ele>127.1</ele>
        <time>2015-04-20T18:45:46.049Z</time>
      </trkpt>
      <trkpt lat="48.82351" lon="2.30043">
        <ele>127</ele>
        <time>2015-04-20T18:45:47.058Z</time>
      </trkpt>
      <trkpt lat="48.82345" lon="2.30048">
        <ele>126.6</ele>
        <time>2015-04-20T18:45:49.092Z</time>
      </trkpt>
      <trkpt lat="48.82341" lon="2.3005">
        <ele>126.4</ele>
        <time>2015-04-20T18:45:50.123Z</time>
      </trkpt>
      <trkpt lat="48.82336" lon="2.30055">
        <ele>126.2</ele>
        <time>2015-04-20T18:45:52.098Z</time>
      </trkpt>
      <trkpt lat="48.82333" lon="2.30057">
        <ele>126.3</ele>
        <time>2015-04-20T18:45:53.167Z</time>
      </trkpt>
      <trkpt lat="48.82326" lon="2.30064">
        <ele>126.6</ele>
        <time>2015-04-20T18:45:56.119Z</time>
      </trkpt>
      <trkpt lat="48.82323" lon="2.30067">
        <ele>126.7</ele>
        <time>2015-04-20T18:45:57.147Z</time>
      </trkpt>
      <trkpt lat="48.82317" lon="2.30073">
        <ele>127.1</ele>
        <time>2015-04-20T18:45:59.061Z</time>
      </trkpt>
      <trkpt lat="48.82314" lon="2.30076">
        <ele>127.3</ele>
        <time>2015-04-20T18:46:00.224Z</time>
      </trkpt>
      <trkpt lat="48.82307" lon="2.3008">
        <ele>127.6</ele>
        <time>2015-04-20T18:46:02.071Z</time>
      </trkpt>
      <trkpt lat="48.82304" lon="2.30082">
        <ele>127.6</ele>
        <time>2015-04-20T18:46:03.161Z</time>
      </trkpt>
      <trkpt lat="48.82297" lon="2.30088">
        <ele>127.6</ele>
        <time>2015-04-20T18:46:06.075Z</time>
      </trkpt>
      <trkpt lat="48.82294" lon="2.3009">
        <ele>127.6</ele>
        <time>2015-04-20T18:46:07.100Z</time>
      </trkpt>
      <trkpt lat="48.82286" lon="2.30093">
        <ele>127.7</ele>
        <time>2015-04-20T18:46:09.068Z</time>
      </trkpt>
      <trkpt lat="48.82282" lon="2.30095">
        <ele>127.7</ele>
        <time>2015-04-20T18:46:10.078Z</time>
      </trkpt>
      <trkpt lat="48.82274" lon="2.30098">
        <ele>127.9</ele>
        <time>2015-04-20T18:46:12.029Z</time>
      </trkpt>
      <trkpt lat="48.8227" lon="2.30101">
        <ele>128</ele>
        <time>2015-04-20T18:46:13.057Z</time>
      </trkpt>
      <trkpt lat="48.82264" lon="2.30107">
        <ele>128.1</ele>
        <time>2015-04-20T18:46:15.086Z</time>
      </trkpt>
      <trkpt lat="48.8226" lon="2.3011">
        <ele>128.1</ele>
        <time>2015-04-20T18:46:16.115Z</time>
      </trkpt>
      <trkpt lat="48.82253" lon="2.30114">
        <ele>128.2</ele>
        <time>2015-04-20T18:46:18.102Z</time>
      </trkpt>
      <trkpt lat="48.82249" lon="2.30114">
        <ele>128.4</ele>
        <time>2015-04-20T18:46:19.101Z</time>
      </trkpt>
      <trkpt lat="48.82242" lon="2.30111">
        <ele>128.6</ele>
        <time>2015-04-20T18:46:21.093Z</time>
      </trkpt>
      <trkpt lat="48.8224" lon="2.30106">
        <ele>128.7</ele>
        <time>2015-04-20T18:46:22.105Z</time>
      </trkpt>
      <trkpt lat="48.82236" lon="2.30096">
        <ele>128.8</ele>
        <time>2015-04-20T18:46:25.046Z</time>
      </trkpt>
      <trkpt lat="48.82234" lon="2.30093">
        <ele>128.9</ele>
        <time>2015-04-20T18:46:26.122Z</time>
      </trkpt>
      <trkpt lat="48.82216" lon="2.30065">
        <ele>129.7</ele>
        <time>2015-04-20T18:46:34.079Z</time>
      </trkpt>
      <trkpt lat="48.82214" lon="2.30056">
        <ele>130.2</ele>
        <time>2015-04-20T18:46:36.093Z</time>
      </trkpt>
      <trkpt lat="48.82213" lon="2.3005">
        <ele>130.4</ele>
        <time>2015-04-20T18:46:36.995Z</time>
      </trkpt>
      <trkpt lat="48.82211" lon="2.3004">
        <ele>130.8</ele>
        <time>2015-04-20T18:46:39.057Z</time>
      </trkpt>
      <trkpt lat="48.82211" lon="2.30034">
        <ele>131.1</ele>
        <time>2015-04-20T18:46:40.054Z</time>
      </trkpt>
      <trkpt lat="48.82209" lon="2.30023">
        <ele>131.5</ele>
        <time>2015-04-20T18:46:42.072Z</time>
      </trkpt>
      <trkpt lat="48.82207" lon="2.30019">
        <ele>131.6</ele>
        <time>2015-04-20T18:46:43.079Z</time>
      </trkpt>
      <trkpt lat="48.82205" lon="2.30007">
        <ele>131.7</ele>
        <time>2015-04-20T18:46:45.105Z</time>
      </trkpt>
      <trkpt lat="48.82203" lon="2.30002">
        <ele>131.9</ele>
        <time>2015-04-20T18:46:46.126Z</time>
      </trkpt>
      <trkpt lat="48.82201" lon="2.2999">
        <ele>132.2</ele>
        <time>2015-04-20T18:46:49.116Z</time>
      </trkpt>
      <trkpt lat="48.82199" lon="2.29987">
        <ele>132.2</ele>
        <time>2015-04-20T18:46:50.120Z</time>
      </trkpt>
      <trkpt lat="48.82191" lon="2.29986">
        <ele>133.9</ele>
        <time>2015-04-20T18:46:52.086Z</time>
      </trkpt>
      <trkpt lat="48.82188" lon="2.29986">
        <ele>133.8</ele>
        <time>2015-04-20T18:46:53.101Z</time>
      </trkpt>
      <trkpt lat="48.8218" lon="2.29992">
        <ele>133.5</ele>
        <time>2015-04-20T18:46:56.056Z</time>
      </trkpt>
      <trkpt lat="48.82176" lon="2.29994">
        <ele>133.2</ele>
        <time>2015-04-20T18:46:57.087Z</time>
      </trkpt>
      <trkpt lat="48.82169" lon="2.3">
        <ele>133.1</ele>
        <time>2015-04-20T18:46:59.109Z</time>
      </trkpt>
      <trkpt lat="48.82166" lon="2.30002">
        <ele>133.2</ele>
        <time>2015-04-20T18:47:00.037Z</time>
      </trkpt>
      <trkpt lat="48.82158" lon="2.30009">
        <ele>133.4</ele>
        <time>2015-04-20T18:47:02.075Z</time>
      </trkpt>
      <trkpt lat="48.82155" lon="2.30014">
        <ele>133.4</ele>
        <time>2015-04-20T18:47:03.123Z</time>
      </trkpt>
      <trkpt lat="48.82151" lon="2.30018">
        <ele>133.5</ele>
        <time>2015-04-20T18:47:04.009Z</time>
      </trkpt>
      <trkpt lat="48.82148" lon="2.30023">
        <ele>133.4</ele>
        <time>2015-04-20T18:47:05.052Z</time>
      </trkpt>
      <trkpt lat="48.82141" lon="2.3003">
        <ele>133.3</ele>
        <time>2015-04-20T18:47:07.087Z</time>
      </trkpt>
      <trkpt lat="48.82137" lon="2.30033">
        <ele>133.2</ele>
        <time>2015-04-20T18:47:08.101Z</time>
      </trkpt>
      <trkpt lat="48.8213" lon="2.30038">
        <ele>132.9</ele>
        <time>2015-04-20T18:47:10.049Z</time>
      </trkpt>
      <trkpt lat="48.82125" lon="2.3004">
        <ele>132.5</ele>
        <time>2015-04-20T18:47:11.069Z</time>
      </trkpt>
      <trkpt lat="48.82117" lon="2.30045">
        <ele>131.9</ele>
        <time>2015-04-20T18:47:13.113Z</time>
      </trkpt>
      <trkpt lat="48.82113" lon="2.30047">
        <ele>131.8</ele>
        <time>2015-04-20T18:47:14.115Z</time>
      </trkpt>
      <trkpt lat="48.82105" lon="2.30052">
        <ele>131.6</ele>
        <time>2015-04-20T18:47:16.037Z</time>
      </trkpt>
      <trkpt lat="48.82101" lon="2.30055">
        <ele>131.6</ele>
        <time>2015-04-20T18:47:17.054Z</time>
      </trkpt>
      <trkpt lat="48.82093" lon="2.30059">
        <ele>131.6</ele>
        <time>2015-04-20T18:47:19.090Z</time>
      </trkpt>
      <trkpt lat="48.82089" lon="2.30062">
        <ele>131.6</ele>
        <time>2015-04-20T18:47:20.145Z</time>
      </trkpt>
      <trkpt lat="48.82082" lon="2.30067">
        <ele>131.7</ele>
        <time>2015-04-20T18:47:22.049Z</time>
      </trkpt>
      <trkpt lat="48.82078" lon="2.30071">
        <ele>131.6</ele>
        <time>2015-04-20T18:47:23.072Z</time>
      </trkpt>
      <trkpt lat="48.82074" lon="2.30074">
        <ele>131.4</ele>
        <time>2015-04-20T18:47:24.109Z</time>
      </trkpt>
      <trkpt lat="48.8207" lon="2.30079">
        <ele>131.2</ele>
        <time>2015-04-20T18:47:25.133Z</time>
      </trkpt>
      <trkpt lat="48.82063" lon="2.30084">
        <ele>130.8</ele>
        <time>2015-04-20T18:47:27.092Z</time>
      </trkpt>
      <trkpt lat="48.82059" lon="2.30085">
        <ele>130.8</ele>
        <time>2015-04-20T18:47:28.086Z</time>
      </trkpt>
      <trkpt lat="48.82051" lon="2.30082">
        <ele>130.5</ele>
        <time>2015-04-20T18:47:30.136Z</time>
      </trkpt>
      <trkpt lat="48.82047" lon="2.30081">
        <ele>130.4</ele>
        <time>2015-04-20T18:47:31.031Z</time>
      </trkpt>
      <trkpt lat="48.82039" lon="2.30076">
        <ele>130.2</ele>
        <time>2015-04-20T18:47:33.111Z</time>
      </trkpt>
      <trkpt lat="48.82035" lon="2.30073">
        <ele>130.1</ele>
        <time>2015-04-20T18:47:34.049Z</time>
      </trkpt>
      <trkpt lat="48.8203" lon="2.30071">
        <ele>130</ele>
        <time>2015-04-20T18:47:35.129Z</time>
      </trkpt>
      <trkpt lat="48.82026" lon="2.30068">
        <ele>130</ele>
        <time>2015-04-20T18:47:36.175Z</time>
      </trkpt>
      <trkpt lat="48.82021" lon="2.30066">
        <ele>129.9</ele>
        <time>2015-04-20T18:47:37.013Z</time>
      </trkpt>
      <trkpt lat="48.82017" lon="2.30063">
        <ele>129.8</ele>
        <time>2015-04-20T18:47:38.066Z</time>
      </trkpt>
      <trkpt lat="48.82013" lon="2.3006">
        <ele>129.9</ele>
        <time>2015-04-20T18:47:39.164Z</time>
      </trkpt>
      <trkpt lat="48.82009" lon="2.30056">
        <ele>129.9</ele>
        <time>2015-04-20T18:47:40.050Z</time>
      </trkpt>
      <trkpt lat="48.82001" lon="2.3005">
        <ele>130</ele>
        <time>2015-04-20T18:47:42.092Z</time>
      </trkpt>
      <trkpt lat="48.81998" lon="2.30046">
        <ele>130.2</ele>
        <time>2015-04-20T18:47:43.117Z</time>
      </trkpt>
      <trkpt lat="48.8199" lon="2.30041">
        <ele>130</ele>
        <time>2015-04-20T18:47:45.057Z</time>
      </trkpt>
      <trkpt lat="48.81987" lon="2.30038">
        <ele>130.1</ele>
        <time>2015-04-20T18:47:46.045Z</time>
      </trkpt>
      <trkpt lat="48.81982" lon="2.30036">
        <ele>130</ele>
        <time>2015-04-20T18:47:47.120Z</time>
      </trkpt>
      <trkpt lat="48.81978" lon="2.30033">
        <ele>129.9</ele>
        <time>2015-04-20T18:47:48.037Z</time>
      </trkpt>
      <trkpt lat="48.81971" lon="2.30026">
        <ele>129.7</ele>
        <time>2015-04-20T18:47:50.059Z</time>
      </trkpt>
      <trkpt lat="48.81967" lon="2.30023">
        <ele>129.7</ele>
        <time>2015-04-20T18:47:51.088Z</time>
      </trkpt>
      <trkpt lat="48.81963" lon="2.3002">
        <ele>129.8</ele>
        <time>2015-04-20T18:47:52.092Z</time>
      </trkpt>
      <trkpt lat="48.81959" lon="2.30016">
        <ele>130</ele>
        <time>2015-04-20T18:47:53.086Z</time>
      </trkpt>
      <trkpt lat="48.81952" lon="2.30008">
        <ele>130.4</ele>
        <time>2015-04-20T18:47:55.365Z</time>
      </trkpt>
      <trkpt lat="48.81947" lon="2.30004">
        <ele>130.5</ele>
        <time>2015-04-20T18:47:56.127Z</time>
      </trkpt>
      <trkpt lat="48.8194" lon="2.29998">
        <ele>130.7</ele>
        <time>2015-04-20T18:47:58.059Z</time>
      </trkpt>
      <trkpt lat="48.81937" lon="2.29994">
        <ele>131.1</ele>
        <time>2015-04-20T18:47:59.091Z</time>
      </trkpt>
      <trkpt lat="48.81933" lon="2.29983">
        <ele>131.8</ele>
        <time>2015-04-20T18:48:01.111Z</time>
      </trkpt>
      <trkpt lat="48.81933" lon="2.29978">
        <ele>132.1</ele>
        <time>2015-04-20T18:48:02.132Z</time>
      </trkpt>
      <trkpt lat="48.81933" lon="2.29967">
        <ele>132.6</ele>
        <time>2015-04-20T18:48:04.024Z</time>
      </trkpt>
      <trkpt lat="48.81933" lon="2.29962">
        <ele>132.9</ele>
        <time>2015-04-20T18:48:05.024Z</time>
      </trkpt>
      <trkpt lat="48.81934" lon="2.29951">
        <ele>132.9</ele>
        <time>2015-04-20T18:48:07.085Z</time>
      </trkpt>
      <trkpt lat="48.81936" lon="2.29944">
        <ele>131.6</ele>
        <time>2015-04-20T18:48:08.085Z</time>
      </trkpt>
      <trkpt lat="48.81937" lon="2.29937">
        <ele>130.9</ele>
        <time>2015-04-20T18:48:09.133Z</time>
      </trkpt>
      <trkpt lat="48.81938" lon="2.2993">
        <ele>130.4</ele>
        <time>2015-04-20T18:48:10.018Z</time>
      </trkpt>
      <trkpt lat="48.81939" lon="2.29923">
        <ele>129.9</ele>
        <time>2015-04-20T18:48:11.069Z</time>
      </trkpt>
      <trkpt lat="48.81939" lon="2.29915">
        <ele>129.7</ele>
        <time>2015-04-20T18:48:12.072Z</time>
      </trkpt>
      <trkpt lat="48.81938" lon="2.29907">
        <ele>129.9</ele>
        <time>2015-04-20T18:48:13.088Z</time>
      </trkpt>
      <trkpt lat="48.81937" lon="2.29899">
        <ele>130.2</ele>
        <time>2015-04-20T18:48:14.098Z</time>
      </trkpt>
      <trkpt lat="48.81935" lon="2.29891">
        <ele>130.4</ele>
        <time>2015-04-20T18:48:15.831Z</time>
      </trkpt>
      <trkpt lat="48.81934" lon="2.29884">
        <ele>130.6</ele>
        <time>2015-04-20T18:48:16.120Z</time>
      </trkpt>
      <trkpt lat="48.81932" lon="2.29876">
        <ele>130.8</ele>
        <time>2015-04-20T18:48:17.024Z</time>
      </trkpt>
      <trkpt lat="48.81931" lon="2.29868">
        <ele>130.9</ele>
        <time>2015-04-20T18:48:18.066Z</time>
      </trkpt>
      <trkpt lat="48.8193" lon="2.29854">
        <ele>131</ele>
        <time>2015-04-20T18:48:20.924Z</time>
      </trkpt>
      <trkpt lat="48.8193" lon="2.29848">
        <ele>131.2</ele>
        <time>2015-04-20T18:48:21.080Z</time>
      </trkpt>
      <trkpt lat="48.81932" lon="2.29836">
        <ele>131.4</ele>
        <time>2015-04-20T18:48:23.117Z</time>
      </trkpt>
      <trkpt lat="48.81933" lon="2.2983">
        <ele>131.5</ele>
        <time>2015-04-20T18:48:24.020Z</time>
      </trkpt>
      <trkpt lat="48.81932" lon="2.29817">
        <ele>131.8</ele>
        <time>2015-04-20T18:48:26.081Z</time>
      </trkpt>
      <trkpt lat="48.81931" lon="2.29812">
        <ele>131.9</ele>
        <time>2015-04-20T18:48:27.124Z</time>
      </trkpt>
      <trkpt lat="48.81928" lon="2.29807">
        <ele>132</ele>
        <time>2015-04-20T18:48:28.022Z</time>
      </trkpt>
      <trkpt lat="48.81924" lon="2.29802">
        <ele>131.2</ele>
        <time>2015-04-20T18:48:29.049Z</time>
      </trkpt>
      <trkpt lat="48.8192" lon="2.29793">
        <ele>130.4</ele>
        <time>2015-04-20T18:48:31.133Z</time>
      </trkpt>
      <trkpt lat="48.81918" lon="2.29789">
        <ele>130.2</ele>
        <time>2015-04-20T18:48:32.116Z</time>
      </trkpt>
      <trkpt lat="48.81913" lon="2.29783">
        <ele>129.9</ele>
        <time>2015-04-20T18:48:34.142Z</time>
      </trkpt>
      <trkpt lat="48.8191" lon="2.2978">
        <ele>129.8</ele>
        <time>2015-04-20T18:48:35.032Z</time>
      </trkpt>
      <trkpt lat="48.81905" lon="2.29772">
        <ele>129.9</ele>
        <time>2015-04-20T18:48:37.068Z</time>
      </trkpt>
      <trkpt lat="48.81903" lon="2.29767">
        <ele>130.1</ele>
        <time>2015-04-20T18:48:38.101Z</time>
      </trkpt>
      <trkpt lat="48.81898" lon="2.29757">
        <ele>130.5</ele>
        <time>2015-04-20T18:48:40.127Z</time>
      </trkpt>
      <trkpt lat="48.81896" lon="2.29752">
        <ele>130.6</ele>
        <time>2015-04-20T18:48:41.064Z</time>
      </trkpt>
      <trkpt lat="48.81891" lon="2.29743">
        <ele>130.8</ele>
        <time>2015-04-20T18:48:43.055Z</time>
      </trkpt>
      <trkpt lat="48.81888" lon="2.29739">
        <ele>130.8</ele>
        <time>2015-04-20T18:48:44.145Z</time>
      </trkpt>
      <trkpt lat="48.81883" lon="2.2973">
        <ele>131</ele>
        <time>2015-04-20T18:48:46.051Z</time>
      </trkpt>
      <trkpt lat="48.81882" lon="2.29725">
        <ele>131</ele>
        <time>2015-04-20T18:48:47.054Z</time>
      </trkpt>
      <trkpt lat="48.81876" lon="2.29719">
        <ele>131.1</ele>
        <time>2015-04-20T18:48:49.769Z</time>
      </trkpt>
      <trkpt lat="48.81872" lon="2.29715">
        <ele>131.3</ele>
        <time>2015-04-20T18:48:50.067Z</time>
      </trkpt>
      <trkpt lat="48.81869" lon="2.29709">
        <ele>131.6</ele>
        <time>2015-04-20T18:48:51.102Z</time>
      </trkpt>
      <trkpt lat="48.81866" lon="2.29704">
        <ele>131.9</ele>
        <time>2015-04-20T18:48:52.127Z</time>
      </trkpt>
      <trkpt lat="48.8186" lon="2.29694">
        <ele>132.3</ele>
        <time>2015-04-20T18:48:54.887Z</time>
      </trkpt>
      <trkpt lat="48.81855" lon="2.2969">
        <ele>132.7</ele>
        <time>2015-04-20T18:48:55.097Z</time>
      </trkpt>
      <trkpt lat="48.81851" lon="2.29687">
        <ele>132.9</ele>
        <time>2015-04-20T18:48:56.109Z</time>
      </trkpt>
      <trkpt lat="48.81846" lon="2.29684">
        <ele>133.1</ele>
        <time>2015-04-20T18:48:57.124Z</time>
      </trkpt>
      <trkpt lat="48.81842" lon="2.29681">
        <ele>133.5</ele>
        <time>2015-04-20T18:48:58.023Z</time>
      </trkpt>
      <trkpt lat="48.81838" lon="2.29678">
        <ele>134.1</ele>
        <time>2015-04-20T18:48:59.060Z</time>
      </trkpt>
      <trkpt lat="48.81834" lon="2.29673">
        <ele>134.8</ele>
        <time>2015-04-20T18:49:00.272Z</time>
      </trkpt>
      <trkpt lat="48.81831" lon="2.29668">
        <ele>134.9</ele>
        <time>2015-04-20T18:49:01.068Z</time>
      </trkpt>
      <trkpt lat="48.81828" lon="2.29663">
        <ele>135.1</ele>
        <time>2015-04-20T18:49:02.067Z</time>
      </trkpt>
      <trkpt lat="48.81823" lon="2.29658">
        <ele>135.7</ele>
        <time>2015-04-20T18:49:03.134Z</time>
      </trkpt>
      <trkpt lat="48.81818" lon="2.29649">
        <ele>135.8</ele>
        <time>2015-04-20T18:49:05.335Z</time>
      </trkpt>
      <trkpt lat="48.81815" lon="2.29644">
        <ele>135.8</ele>
        <time>2015-04-20T18:49:06.047Z</time>
      </trkpt>
      <trkpt lat="48.81811" lon="2.29635">
        <ele>136</ele>
        <time>2015-04-20T18:49:08.066Z</time>
      </trkpt>
      <trkpt lat="48.81808" lon="2.2963">
        <ele>136.1</ele>
        <time>2015-04-20T18:49:09.071Z</time>
      </trkpt>
      <trkpt lat="48.81803" lon="2.29622">
        <ele>136.2</ele>
        <time>2015-04-20T18:49:11.097Z</time>
      </trkpt>
      <trkpt lat="48.818" lon="2.29616">
        <ele>136.3</ele>
        <time>2015-04-20T18:49:12.118Z</time>
      </trkpt>
      <trkpt lat="48.81797" lon="2.29606">
        <ele>136.3</ele>
        <time>2015-04-20T18:49:14.007Z</time>
      </trkpt>
      <trkpt lat="48.81796" lon="2.296">
        <ele>136.3</ele>
        <time>2015-04-20T18:49:15.060Z</time>
      </trkpt>
      <trkpt lat="48.81794" lon="2.29589">
        <ele>136.3</ele>
        <time>2015-04-20T18:49:17.093Z</time>
      </trkpt>
      <trkpt lat="48.8179" lon="2.29584">
        <ele>135.7</ele>
        <time>2015-04-20T18:49:18.097Z</time>
      </trkpt>
      <trkpt lat="48.81783" lon="2.29581">
        <ele>135</ele>
        <time>2015-04-20T18:49:20.594Z</time>
      </trkpt>
      <trkpt lat="48.81781" lon="2.29581">
        <ele>135.2</ele>
        <time>2015-04-20T18:49:21.063Z</time>
      </trkpt>
      <trkpt lat="48.81776" lon="2.29585">
        <ele>135.4</ele>
        <time>2015-04-20T18:49:23.102Z</time>
      </trkpt>
      <trkpt lat="48.81774" lon="2.29589">
        <ele>135.5</ele>
        <time>2015-04-20T18:49:24.111Z</time>
      </trkpt>
      <trkpt lat="48.81768" lon="2.29597">
        <ele>135.4</ele>
        <time>2015-04-20T18:49:26.016Z</time>
      </trkpt>
      <trkpt lat="48.81763" lon="2.29601">
        <ele>134.9</ele>
        <time>2015-04-20T18:49:27.037Z</time>
      </trkpt>
      <trkpt lat="48.81759" lon="2.29605">
        <ele>134.8</ele>
        <time>2015-04-20T18:49:28.061Z</time>
      </trkpt>
      <trkpt lat="48.81755" lon="2.29609">
        <ele>134.5</ele>
        <time>2015-04-20T18:49:29.064Z</time>
      </trkpt>
      <trkpt lat="48.81752" lon="2.29613">
        <ele>134.2</ele>
        <time>2015-04-20T18:49:30.079Z</time>
      </trkpt>
      <trkpt lat="48.81748" lon="2.29617">
        <ele>134</ele>
        <time>2015-04-20T18:49:31.076Z</time>
      </trkpt>
      <trkpt lat="48.81741" lon="2.29625">
        <ele>133.2</ele>
        <time>2015-04-20T18:49:33.114Z</time>
      </trkpt>
      <trkpt lat="48.81738" lon="2.29629">
        <ele>132.8</ele>
        <time>2015-04-20T18:49:34.068Z</time>
      </trkpt>
      <trkpt lat="48.81733" lon="2.29633">
        <ele>132.4</ele>
        <time>2015-04-20T18:49:35.041Z</time>
      </trkpt>
      <trkpt lat="48.8173" lon="2.29637">
        <ele>132.4</ele>
        <time>2015-04-20T18:49:36.046Z</time>
      </trkpt>
      <trkpt lat="48.81727" lon="2.29642">
        <ele>132.3</ele>
        <time>2015-04-20T18:49:37.096Z</time>
      </trkpt>
      <trkpt lat="48.81723" lon="2.29646">
        <ele>132.2</ele>
        <time>2015-04-20T18:49:38.111Z</time>
      </trkpt>
      <trkpt lat="48.81717" lon="2.29654">
        <ele>132.2</ele>
        <time>2015-04-20T18:49:40.003Z</time>
      </trkpt>
      <trkpt lat="48.81714" lon="2.29658">
        <ele>132.2</ele>
        <time>2015-04-20T18:49:41.045Z</time>
      </trkpt>
      <trkpt lat="48.81708" lon="2.29665">
        <ele>132.1</ele>
        <time>2015-04-20T18:49:43.028Z</time>
      </trkpt>
      <trkpt lat="48.81704" lon="2.29669">
        <ele>131.9</ele>
        <time>2015-04-20T18:49:44.026Z</time>
      </trkpt>
      <trkpt lat="48.81697" lon="2.29677">
        <ele>131.6</ele>
        <time>2015-04-20T18:49:46.073Z</time>
      </trkpt>
      <trkpt lat="48.81693" lon="2.2968">
        <ele>131.8</ele>
        <time>2015-04-20T18:49:47.073Z</time>
      </trkpt>
      <trkpt lat="48.81687" lon="2.29687">
        <ele>131.9</ele>
        <time>2015-04-20T18:49:49.890Z</time>
      </trkpt>
      <trkpt lat="48.81684" lon="2.29691">
        <ele>131.9</ele>
        <time>2015-04-20T18:49:50.062Z</time>
      </trkpt>
      <trkpt lat="48.81679" lon="2.29699">
        <ele>132.1</ele>
        <time>2015-04-20T18:49:52.087Z</time>
      </trkpt>
      <trkpt lat="48.81676" lon="2.29703">
        <ele>132.1</ele>
        <time>2015-04-20T18:49:53.096Z</time>
      </trkpt>
      <trkpt lat="48.81669" lon="2.2971">
        <ele>132.1</ele>
        <time>2015-04-20T18:49:55.075Z</time>
      </trkpt>
      <trkpt lat="48.81665" lon="2.29713">
        <ele>132.1</ele>
        <time>2015-04-20T18:49:56.035Z</time>
      </trkpt>
      <trkpt lat="48.81658" lon="2.29719">
        <ele>132</ele>
        <time>2015-04-20T18:49:58.087Z</time>
      </trkpt>
      <trkpt lat="48.81654" lon="2.29723">
        <ele>131.8</ele>
        <time>2015-04-20T18:49:59.092Z</time>
      </trkpt>
      <trkpt lat="48.81649" lon="2.29731">
        <ele>131.8</ele>
        <time>2015-04-20T18:50:01.080Z</time>
      </trkpt>
      <trkpt lat="48.81646" lon="2.29735">
        <ele>131.7</ele>
        <time>2015-04-20T18:50:02.034Z</time>
      </trkpt>
      <trkpt lat="48.81643" lon="2.2974">
        <ele>131.7</ele>
        <time>2015-04-20T18:50:03.056Z</time>
      </trkpt>
      <trkpt lat="48.81638" lon="2.29745">
        <ele>131.5</ele>
        <time>2015-04-20T18:50:04.075Z</time>
      </trkpt>
      <trkpt lat="48.81632" lon="2.29753">
        <ele>132</ele>
        <time>2015-04-20T18:50:06.030Z</time>
      </trkpt>
      <trkpt lat="48.81627" lon="2.29756">
        <ele>132</ele>
        <time>2015-04-20T18:50:06.997Z</time>
      </trkpt>
      <trkpt lat="48.8162" lon="2.29763">
        <ele>132.3</ele>
        <time>2015-04-20T18:50:09.042Z</time>
      </trkpt>
      <trkpt lat="48.81616" lon="2.29767">
        <ele>132.1</ele>
        <time>2015-04-20T18:50:10.055Z</time>
      </trkpt>
      <trkpt lat="48.81612" lon="2.29772">
        <ele>132</ele>
        <time>2015-04-20T18:50:11.073Z</time>
      </trkpt>
      <trkpt lat="48.81609" lon="2.29775">
        <ele>132.1</ele>
        <time>2015-04-20T18:50:12.081Z</time>
      </trkpt>
      <trkpt lat="48.81605" lon="2.29777">
        <ele>132.2</ele>
        <time>2015-04-20T18:50:13.013Z</time>
      </trkpt>
      <trkpt lat="48.816" lon="2.29782">
        <ele>132.1</ele>
        <time>2015-04-20T18:50:14.035Z</time>
      </trkpt>
      <trkpt lat="48.81596" lon="2.29787">
        <ele>132.2</ele>
        <time>2015-04-20T18:50:15.735Z</time>
      </trkpt>
      <trkpt lat="48.81592" lon="2.29792">
        <ele>132.3</ele>
        <time>2015-04-20T18:50:16.094Z</time>
      </trkpt>
      <trkpt lat="48.81587" lon="2.29797">
        <ele>132.5</ele>
        <time>2015-04-20T18:50:17.098Z</time>
      </trkpt>
      <trkpt lat="48.81583" lon="2.29803">
        <ele>132.5</ele>
        <time>2015-04-20T18:50:18.102Z</time>
      </trkpt>
      <trkpt lat="48.81578" lon="2.29808">
        <ele>132.4</ele>
        <time>2015-04-20T18:50:19.021Z</time>
      </trkpt>
      <trkpt lat="48.81572" lon="2.29814">
        <ele>132.2</ele>
        <time>2015-04-20T18:50:20.043Z</time>
      </trkpt>
      <trkpt lat="48.81568" lon="2.29819">
        <ele>132.2</ele>
        <time>2015-04-20T18:50:21.054Z</time>
      </trkpt>
      <trkpt lat="48.81563" lon="2.29826">
        <ele>132.5</ele>
        <time>2015-04-20T18:50:22.067Z</time>
      </trkpt>
      <trkpt lat="48.81558" lon="2.29832">
        <ele>132.2</ele>
        <time>2015-04-20T18:50:23.125Z</time>
      </trkpt>
      <trkpt lat="48.81554" lon="2.29838">
        <ele>132</ele>
        <time>2015-04-20T18:50:24.045Z</time>
      </trkpt>
      <trkpt lat="48.81549" lon="2.29845">
        <ele>131.9</ele>
        <time>2015-04-20T18:50:25.054Z</time>
      </trkpt>
      <trkpt lat="48.81544" lon="2.29852">
        <ele>131.8</ele>
        <time>2015-04-20T18:50:26.057Z</time>
      </trkpt>
      <trkpt lat="48.8154" lon="2.29858">
        <ele>131.8</ele>
        <time>2015-04-20T18:50:27.069Z</time>
      </trkpt>
      <trkpt lat="48.81537" lon="2.29865">
        <ele>131.9</ele>
        <time>2015-04-20T18:50:28.108Z</time>
      </trkpt>
      <trkpt lat="48.81533" lon="2.29871">
        <ele>131.9</ele>
        <time>2015-04-20T18:50:29.057Z</time>
      </trkpt>
      <trkpt lat="48.81528" lon="2.29877">
        <ele>132</ele>
        <time>2015-04-20T18:50:30.065Z</time>
      </trkpt>
      <trkpt lat="48.81524" lon="2.29882">
        <ele>132.1</ele>
        <time>2015-04-20T18:50:31.086Z</time>
      </trkpt>
      <trkpt lat="48.8152" lon="2.29887">
        <ele>132.2</ele>
        <time>2015-04-20T18:50:32.091Z</time>
      </trkpt>
      <trkpt lat="48.81515" lon="2.29891">
        <ele>132.3</ele>
        <time>2015-04-20T18:50:33.116Z</time>
      </trkpt>
      <trkpt lat="48.81511" lon="2.29897">
        <ele>132.7</ele>
        <time>2015-04-20T18:50:34.115Z</time>
      </trkpt>
      <trkpt lat="48.81507" lon="2.29903">
        <ele>132.8</ele>
        <time>2015-04-20T18:50:35.046Z</time>
      </trkpt>
      <trkpt lat="48.81503" lon="2.29908">
        <ele>132.7</ele>
        <time>2015-04-20T18:50:36.067Z</time>
      </trkpt>
      <trkpt lat="48.81499" lon="2.29913">
        <ele>132.9</ele>
        <time>2015-04-20T18:50:37.081Z</time>
      </trkpt>
      <trkpt lat="48.81495" lon="2.2992">
        <ele>132.8</ele>
        <time>2015-04-20T18:50:38.049Z</time>
      </trkpt>
      <trkpt lat="48.8149" lon="2.2993">
        <ele>132.9</ele>
        <time>2015-04-20T18:50:40.134Z</time>
      </trkpt>
      <trkpt lat="48.8149" lon="2.29934">
        <ele>133.1</ele>
        <time>2015-04-20T18:50:41.138Z</time>
      </trkpt>
      <trkpt lat="48.81494" lon="2.29945">
        <ele>132.9</ele>
        <time>2015-04-20T18:50:45.114Z</time>
      </trkpt>
      <trkpt lat="48.81496" lon="2.29947">
        <ele>132.8</ele>
        <time>2015-04-20T18:50:46.013Z</time>
      </trkpt>
      <trkpt lat="48.81503" lon="2.2995">
        <ele>133.1</ele>
        <time>2015-04-20T18:50:49.082Z</time>
      </trkpt>
      <trkpt lat="48.81506" lon="2.29952">
        <ele>133.2</ele>
        <time>2015-04-20T18:50:50.075Z</time>
      </trkpt>
      <trkpt lat="48.8151" lon="2.29959">
        <ele>133.4</ele>
        <time>2015-04-20T18:50:52.109Z</time>
      </trkpt>
      <trkpt lat="48.81513" lon="2.29963">
        <ele>133.4</ele>
        <time>2015-04-20T18:50:53.116Z</time>
      </trkpt>
      <trkpt lat="48.81516" lon="2.29971">
        <ele>133.3</ele>
        <time>2015-04-20T18:50:55.047Z</time>
      </trkpt>
      <trkpt lat="48.81519" lon="2.29974">
        <ele>133</ele>
        <time>2015-04-20T18:50:56.087Z</time>
      </trkpt>
      <trkpt lat="48.81521" lon="2.29978">
        <ele>132.8</ele>
        <time>2015-04-20T18:50:57.115Z</time>
      </trkpt>
      <trkpt lat="48.81526" lon="2.29983">
        <ele>130.8</ele>
        <time>2015-04-20T18:50:58.123Z</time>
      </trkpt>
      <trkpt lat="48.81531" lon="2.29988">
        <ele>129</ele>
        <time>2015-04-20T18:50:59.060Z</time>
      </trkpt>
      <trkpt lat="48.81535" lon="2.29991">
        <ele>127.8</ele>
        <time>2015-04-20T18:51:00.092Z</time>
      </trkpt>
      <trkpt lat="48.81539" lon="2.29995">
        <ele>126</ele>
        <time>2015-04-20T18:51:01.061Z</time>
      </trkpt>
      <trkpt lat="48.81542" lon="2.30003">
        <ele>125</ele>
        <time>2015-04-20T18:51:02.090Z</time>
      </trkpt>
      <trkpt lat="48.81545" lon="2.3001">
        <ele>123.9</ele>
        <time>2015-04-20T18:51:03.132Z</time>
      </trkpt>
      <trkpt lat="48.81548" lon="2.30014">
        <ele>122.8</ele>
        <time>2015-04-20T18:51:04.132Z</time>
      </trkpt>
      <trkpt lat="48.81553" lon="2.30018">
        <ele>122</ele>
        <time>2015-04-20T18:51:05.052Z</time>
      </trkpt>
      <trkpt lat="48.81556" lon="2.30023">
        <ele>121.3</ele>
        <time>2015-04-20T18:51:06.071Z</time>
      </trkpt>
      <trkpt lat="48.81555" lon="2.30035">
        <ele>121.7</ele>
        <time>2015-04-20T18:51:08.075Z</time>
      </trkpt>
      <trkpt lat="48.81551" lon="2.30048">
        <ele>121.6</ele>
        <time>2015-04-20T18:51:09.116Z</time>
      </trkpt>
      <trkpt lat="48.81548" lon="2.30058">
        <ele>121.6</ele>
        <time>2015-04-20T18:51:10.049Z</time>
      </trkpt>
      <trkpt lat="48.81546" lon="2.30065">
        <ele>121.6</ele>
        <time>2015-04-20T18:51:11.053Z</time>
      </trkpt>
      <trkpt lat="48.81542" lon="2.30076">
        <ele>121.6</ele>
        <time>2015-04-20T18:51:13.094Z</time>
      </trkpt>
      <trkpt lat="48.8154" lon="2.30082">
        <ele>121.6</ele>
        <time>2015-04-20T18:51:14.106Z</time>
      </trkpt>
      <trkpt lat="48.81535" lon="2.30093">
        <ele>121.6</ele>
        <time>2015-04-20T18:51:16.070Z</time>
      </trkpt>
      <trkpt lat="48.81533" lon="2.30099">
        <ele>121.7</ele>
        <time>2015-04-20T18:51:17.070Z</time>
      </trkpt>
      <trkpt lat="48.81531" lon="2.30106">
        <ele>121.8</ele>
        <time>2015-04-20T18:51:18.133Z</time>
      </trkpt>
      <trkpt lat="48.81529" lon="2.30115">
        <ele>121.8</ele>
        <time>2015-04-20T18:51:19.058Z</time>
      </trkpt>
      <trkpt lat="48.81524" lon="2.30125">
        <ele>121.9</ele>
        <time>2015-04-20T18:51:21.087Z</time>
      </trkpt>
      <trkpt lat="48.81521" lon="2.3013">
        <ele>122</ele>
        <time>2015-04-20T18:51:22.099Z</time>
      </trkpt>
      <trkpt lat="48.81518" lon="2.30136">
        <ele>122</ele>
        <time>2015-04-20T18:51:23.124Z</time>
      </trkpt>
      <trkpt lat="48.81515" lon="2.30141">
        <ele>121.8</ele>
        <time>2015-04-20T18:51:24.047Z</time>
      </trkpt>
      <trkpt lat="48.81509" lon="2.3015">
        <ele>121.8</ele>
        <time>2015-04-20T18:51:26.071Z</time>
      </trkpt>
      <trkpt lat="48.81505" lon="2.30155">
        <ele>121.7</ele>
        <time>2015-04-20T18:51:27.086Z</time>
      </trkpt>
      <trkpt lat="48.81501" lon="2.30161">
        <ele>121.6</ele>
        <time>2015-04-20T18:51:28.117Z</time>
      </trkpt>
      <trkpt lat="48.81498" lon="2.30167">
        <ele>121.6</ele>
        <time>2015-04-20T18:51:28.997Z</time>
      </trkpt>
      <trkpt lat="48.81495" lon="2.30173">
        <ele>121.6</ele>
        <time>2015-04-20T18:51:30.009Z</time>
      </trkpt>
      <trkpt lat="48.81492" lon="2.30179">
        <ele>121.8</ele>
        <time>2015-04-20T18:51:31.024Z</time>
      </trkpt>
      <trkpt lat="48.81489" lon="2.30185">
        <ele>121.9</ele>
        <time>2015-04-20T18:51:32.032Z</time>
      </trkpt>
      <trkpt lat="48.81485" lon="2.30193">
        <ele>122.3</ele>
        <time>2015-04-20T18:51:33.107Z</time>
      </trkpt>
      <trkpt lat="48.81482" lon="2.302">
        <ele>122.3</ele>
        <time>2015-04-20T18:51:34.123Z</time>
      </trkpt>
      <trkpt lat="48.8148" lon="2.30206">
        <ele>122.9</ele>
        <time>2015-04-20T18:51:35.036Z</time>
      </trkpt>
      <trkpt lat="48.81474" lon="2.30217">
        <ele>123.6</ele>
        <time>2015-04-20T18:51:37.097Z</time>
      </trkpt>
      <trkpt lat="48.8147" lon="2.30225">
        <ele>123.9</ele>
        <time>2015-04-20T18:51:38.138Z</time>
      </trkpt>
      <trkpt lat="48.81465" lon="2.30235">
        <ele>125.1</ele>
        <time>2015-04-20T18:51:39.160Z</time>
      </trkpt>
      <trkpt lat="48.81461" lon="2.30243">
        <ele>125.5</ele>
        <time>2015-04-20T18:51:40.027Z</time>
      </trkpt>
      <trkpt lat="48.81457" lon="2.30249">
        <ele>125.4</ele>
        <time>2015-04-20T18:51:41.042Z</time>
      </trkpt>
      <trkpt lat="48.81453" lon="2.30254">
        <ele>125.4</ele>
        <time>2015-04-20T18:51:42.037Z</time>
      </trkpt>
      <trkpt lat="48.81449" lon="2.3026">
        <ele>125.3</ele>
        <time>2015-04-20T18:51:43.067Z</time>
      </trkpt>
      <trkpt lat="48.81445" lon="2.30267">
        <ele>126.2</ele>
        <time>2015-04-20T18:51:44.074Z</time>
      </trkpt>
      <trkpt lat="48.81439" lon="2.30277">
        <ele>126.9</ele>
        <time>2015-04-20T18:51:46.026Z</time>
      </trkpt>
      <trkpt lat="48.81436" lon="2.30282">
        <ele>127.3</ele>
        <time>2015-04-20T18:51:47.020Z</time>
      </trkpt>
      <trkpt lat="48.81431" lon="2.3029">
        <ele>128.4</ele>
        <time>2015-04-20T18:51:49.045Z</time>
      </trkpt>
      <trkpt lat="48.81429" lon="2.30294">
        <ele>128.8</ele>
        <time>2015-04-20T18:51:50.087Z</time>
      </trkpt>
      <trkpt lat="48.81422" lon="2.30302">
        <ele>132.6</ele>
        <time>2015-04-20T18:51:52.048Z</time>
      </trkpt>
      <trkpt lat="48.81419" lon="2.30307">
        <ele>135.7</ele>
        <time>2015-04-20T18:51:53.063Z</time>
      </trkpt>
      <trkpt lat="48.8141" lon="2.30306">
        <ele>153.4</ele>
        <time>2015-04-20T18:53:30.143Z</time>
      </trkpt>
      <trkpt lat="48.81409" lon="2.30305">
        <ele>153.8</ele>
        <time>2015-04-20T18:53:31.053Z</time>
      </trkpt>
      <trkpt lat="48.81401" lon="2.30298">
        <ele>155.9</ele>
        <time>2015-04-20T18:53:37.076Z</time>
      </trkpt>
      <trkpt lat="48.814" lon="2.30297">
        <ele>156.2</ele>
        <time>2015-04-20T18:53:38.092Z</time>
      </trkpt>
      <trkpt lat="48.81394" lon="2.30287">
        <ele>157.6</ele>
        <time>2015-04-20T18:53:43.043Z</time>
      </trkpt>
      <trkpt lat="48.81392" lon="2.30285">
        <ele>157.9</ele>
        <time>2015-04-20T18:53:44.055Z</time>
      </trkpt>
      <trkpt lat="48.81387" lon="2.30275">
        <ele>159.3</ele>
        <time>2015-04-20T18:53:47.108Z</time>
      </trkpt>
      <trkpt lat="48.81384" lon="2.30272">
        <ele>159.9</ele>
        <time>2015-04-20T18:53:48.117Z</time>
      </trkpt>
      <trkpt lat="48.81379" lon="2.30265">
        <ele>160.6</ele>
        <time>2015-04-20T18:53:50.025Z</time>
      </trkpt>
      <trkpt lat="48.81376" lon="2.30261">
        <ele>161.2</ele>
        <time>2015-04-20T18:53:51.080Z</time>
      </trkpt>
      <trkpt lat="48.81369" lon="2.30252">
        <ele>161.7</ele>
        <time>2015-04-20T18:53:54.102Z</time>
      </trkpt>
      <trkpt lat="48.81366" lon="2.30249">
        <ele>161.9</ele>
        <time>2015-04-20T18:53:55.124Z</time>
      </trkpt>
      <trkpt lat="48.81359" lon="2.30242">
        <ele>162.4</ele>
        <time>2015-04-20T18:53:58.044Z</time>
      </trkpt>
      <trkpt lat="48.81356" lon="2.30239">
        <ele>162.7</ele>
        <time>2015-04-20T18:53:59.036Z</time>
      </trkpt>
      <trkpt lat="48.81351" lon="2.30234">
        <ele>163.1</ele>
        <time>2015-04-20T18:54:01.104Z</time>
      </trkpt>
      <trkpt lat="48.81349" lon="2.3023">
        <ele>163.4</ele>
        <time>2015-04-20T18:54:02.103Z</time>
      </trkpt>
      <trkpt lat="48.81343" lon="2.30221">
        <ele>163.8</ele>
        <time>2015-04-20T18:54:04.044Z</time>
      </trkpt>
      <trkpt lat="48.8134" lon="2.30217">
        <ele>163.9</ele>
        <time>2015-04-20T18:54:05.038Z</time>
      </trkpt>
      <trkpt lat="48.81335" lon="2.30212">
        <ele>163.8</ele>
        <time>2015-04-20T18:54:07.030Z</time>
      </trkpt>
      <trkpt lat="48.81331" lon="2.30209">
        <ele>163.7</ele>
        <time>2015-04-20T18:54:08.041Z</time>
      </trkpt>
      <trkpt lat="48.81324" lon="2.30202">
        <ele>162.8</ele>
        <time>2015-04-20T18:54:10.085Z</time>
      </trkpt>
      <trkpt lat="48.81321" lon="2.30198">
        <ele>162.8</ele>
        <time>2015-04-20T18:54:11.085Z</time>
      </trkpt>
      <trkpt lat="48.81316" lon="2.30191">
        <ele>163.3</ele>
        <time>2015-04-20T18:54:14.143Z</time>
      </trkpt>
      <trkpt lat="48.81314" lon="2.30188">
        <ele>163.3</ele>
        <time>2015-04-20T18:54:15.174Z</time>
      </trkpt>
      <trkpt lat="48.8131" lon="2.3018">
        <ele>163.6</ele>
        <time>2015-04-20T18:54:17.036Z</time>
      </trkpt>
      <trkpt lat="48.81308" lon="2.30176">
        <ele>163.8</ele>
        <time>2015-04-20T18:54:18.041Z</time>
      </trkpt>
      <trkpt lat="48.81301" lon="2.30168">
        <ele>164</ele>
        <time>2015-04-20T18:54:20.034Z</time>
      </trkpt>
      <trkpt lat="48.81298" lon="2.30165">
        <ele>164</ele>
        <time>2015-04-20T18:54:21.102Z</time>
      </trkpt>
      <trkpt lat="48.81292" lon="2.30158">
        <ele>163.9</ele>
        <time>2015-04-20T18:54:23.029Z</time>
      </trkpt>
      <trkpt lat="48.81289" lon="2.30155">
        <ele>163.8</ele>
        <time>2015-04-20T18:54:24.064Z</time>
      </trkpt>
      <trkpt lat="48.81283" lon="2.30151">
        <ele>164</ele>
        <time>2015-04-20T18:54:26.107Z</time>
      </trkpt>
      <trkpt lat="48.81279" lon="2.30149">
        <ele>164.1</ele>
        <time>2015-04-20T18:54:27.124Z</time>
      </trkpt>
      <trkpt lat="48.81272" lon="2.30145">
        <ele>163.9</ele>
        <time>2015-04-20T18:54:29.052Z</time>
      </trkpt>
      <trkpt lat="48.81269" lon="2.30143">
        <ele>163.7</ele>
        <time>2015-04-20T18:54:30.035Z</time>
      </trkpt>
      <trkpt lat="48.81262" lon="2.30138">
        <ele>163.6</ele>
        <time>2015-04-20T18:54:32.087Z</time>
      </trkpt>
      <trkpt lat="48.81259" lon="2.30134">
        <ele>163.7</ele>
        <time>2015-04-20T18:54:33.117Z</time>
      </trkpt>
      <trkpt lat="48.81253" lon="2.30127">
        <ele>164</ele>
        <time>2015-04-20T18:54:35.021Z</time>
      </trkpt>
      <trkpt lat="48.81249" lon="2.30124">
        <ele>164</ele>
        <time>2015-04-20T18:54:36.041Z</time>
      </trkpt>
      <trkpt lat="48.81242" lon="2.30116">
        <ele>164</ele>
        <time>2015-04-20T18:54:38.081Z</time>
      </trkpt>
      <trkpt lat="48.81239" lon="2.30113">
        <ele>164.1</ele>
        <time>2015-04-20T18:54:39.099Z</time>
      </trkpt>
      <trkpt lat="48.81233" lon="2.30107">
        <ele>164.1</ele>
        <time>2015-04-20T18:54:41.144Z</time>
      </trkpt>
      <trkpt lat="48.81231" lon="2.30104">
        <ele>164.3</ele>
        <time>2015-04-20T18:54:42.039Z</time>
      </trkpt>
      <trkpt lat="48.81226" lon="2.30096">
        <ele>164.2</ele>
        <time>2015-04-20T18:54:44.049Z</time>
      </trkpt>
      <trkpt lat="48.81225" lon="2.30093">
        <ele>164.4</ele>
        <time>2015-04-20T18:54:45.074Z</time>
      </trkpt>
      <trkpt lat="48.81223" lon="2.30088">
        <ele>164.6</ele>
        <time>2015-04-20T18:54:47.060Z</time>
      </trkpt>
      <trkpt lat="48.81222" lon="2.30087">
        <ele>164.6</ele>
        <time>2015-04-20T18:54:48.075Z</time>
      </trkpt>
      <trkpt lat="48.81221" lon="2.30087">
        <ele>164.6</ele>
        <time>2015-04-20T18:54:49.082Z</time>
      </trkpt>
      <trkpt lat="48.8122" lon="2.30087">
        <ele>164.6</ele>
        <time>2015-04-20T18:54:50.100Z</time>
      </trkpt>
      <trkpt lat="48.81212" lon="2.30084">
        <ele>164.7</ele>
        <time>2015-04-20T18:54:53.158Z</time>
      </trkpt>
      <trkpt lat="48.81209" lon="2.30083">
        <ele>164.5</ele>
        <time>2015-04-20T18:54:54.057Z</time>
      </trkpt>
      <trkpt lat="48.81203" lon="2.30079">
        <ele>164.4</ele>
        <time>2015-04-20T18:54:56.058Z</time>
      </trkpt>
      <trkpt lat="48.812" lon="2.30077">
        <ele>164.4</ele>
        <time>2015-04-20T18:54:57.075Z</time>
      </trkpt>
      <trkpt lat="48.81193" lon="2.30074">
        <ele>164.6</ele>
        <time>2015-04-20T18:55:00.368Z</time>
      </trkpt>
      <trkpt lat="48.81189" lon="2.30073">
        <ele>164.7</ele>
        <time>2015-04-20T18:55:01.017Z</time>
      </trkpt>
      <trkpt lat="48.81183" lon="2.30073">
        <ele>164.9</ele>
        <time>2015-04-20T18:55:03.107Z</time>
      </trkpt>
      <trkpt lat="48.81179" lon="2.30071">
        <ele>165</ele>
        <time>2015-04-20T18:55:04.104Z</time>
      </trkpt>
      <trkpt lat="48.8117" lon="2.30067">
        <ele>164.3</ele>
        <time>2015-04-20T18:55:08.052Z</time>
      </trkpt>
      <trkpt lat="48.81169" lon="2.30067">
        <ele>164.1</ele>
        <time>2015-04-20T18:55:09.089Z</time>
      </trkpt>
      <trkpt lat="48.81164" lon="2.30064">
        <ele>164.2</ele>
        <time>2015-04-20T18:55:12.040Z</time>
      </trkpt>
      <trkpt lat="48.81161" lon="2.30061">
        <ele>164.4</ele>
        <time>2015-04-20T18:55:13.288Z</time>
      </trkpt>
      <trkpt lat="48.81155" lon="2.30057">
        <ele>164.2</ele>
        <time>2015-04-20T18:55:15.681Z</time>
      </trkpt>
      <trkpt lat="48.8115" lon="2.30055">
        <ele>163.7</ele>
        <time>2015-04-20T18:55:16.014Z</time>
      </trkpt>
      <trkpt lat="48.81143" lon="2.30054">
        <ele>162.3</ele>
        <time>2015-04-20T18:55:18.034Z</time>
      </trkpt>
      <trkpt lat="48.8114" lon="2.30055">
        <ele>161.5</ele>
        <time>2015-04-20T18:55:19.060Z</time>
      </trkpt>
      <trkpt lat="48.81133" lon="2.30056">
        <ele>160.2</ele>
        <time>2015-04-20T18:55:21.066Z</time>
      </trkpt>
      <trkpt lat="48.8113" lon="2.30057">
        <ele>159.8</ele>
        <time>2015-04-20T18:55:22.026Z</time>
      </trkpt>
      <trkpt lat="48.8112" lon="2.30059">
        <ele>158.4</ele>
        <time>2015-04-20T18:55:25.034Z</time>
      </trkpt>
      <trkpt lat="48.81112" lon="2.30062">
        <ele>157.7</ele>
        <time>2015-04-20T18:55:26.451Z</time>
      </trkpt>
      <trkpt lat="48.81108" lon="2.30064">
        <ele>157.3</ele>
        <time>2015-04-20T18:55:28.036Z</time>
      </trkpt>
      <trkpt lat="48.81101" lon="2.30069">
        <ele>156.4</ele>
        <time>2015-04-20T18:55:30.067Z</time>
      </trkpt>
      <trkpt lat="48.81097" lon="2.30071">
        <ele>156.1</ele>
        <time>2015-04-20T18:55:31.077Z</time>
      </trkpt>
      <trkpt lat="48.8109" lon="2.30076">
        <ele>155.1</ele>
        <time>2015-04-20T18:55:33.037Z</time>
      </trkpt>
      <trkpt lat="48.81086" lon="2.30078">
        <ele>154.6</ele>
        <time>2015-04-20T18:55:34.044Z</time>
      </trkpt>
      <trkpt lat="48.81078" lon="2.30082">
        <ele>153.6</ele>
        <time>2015-04-20T18:55:36.125Z</time>
      </trkpt>
      <trkpt lat="48.81074" lon="2.30084">
        <ele>153.2</ele>
        <time>2015-04-20T18:55:37.022Z</time>
      </trkpt>
      <trkpt lat="48.81066" lon="2.30088">
        <ele>152.3</ele>
        <time>2015-04-20T18:55:39.938Z</time>
      </trkpt>
      <trkpt lat="48.81063" lon="2.30089">
        <ele>152.4</ele>
        <time>2015-04-20T18:55:40.078Z</time>
      </trkpt>
      <trkpt lat="48.81055" lon="2.30091">
        <ele>153</ele>
        <time>2015-04-20T18:55:42.032Z</time>
      </trkpt>
      <trkpt lat="48.81052" lon="2.30089">
        <ele>153.4</ele>
        <time>2015-04-20T18:55:43.019Z</time>
      </trkpt>
      <trkpt lat="48.81045" lon="2.30084">
        <ele>155.2</ele>
        <time>2015-04-20T18:55:45.044Z</time>
      </trkpt>
      <trkpt lat="48.81042" lon="2.30081">
        <ele>156.7</ele>
        <time>2015-04-20T18:55:46.072Z</time>
      </trkpt>
      <trkpt lat="48.81035" lon="2.30075">
        <ele>159.4</ele>
        <time>2015-04-20T18:55:48.112Z</time>
      </trkpt>
      <trkpt lat="48.81034" lon="2.30074">
        <ele>159.2</ele>
        <time>2015-04-20T18:55:48.984Z</time>
      </trkpt>
      <trkpt lat="48.81031" lon="2.30066">
        <ele>159.1</ele>
        <time>2015-04-20T18:55:53.023Z</time>
      </trkpt>
      <trkpt lat="48.8103" lon="2.30061">
        <ele>159.1</ele>
        <time>2015-04-20T18:55:54.032Z</time>
      </trkpt>
      <trkpt lat="48.81028" lon="2.30051">
        <ele>159</ele>
        <time>2015-04-20T18:55:56.052Z</time>
      </trkpt>
      <trkpt lat="48.81025" lon="2.30048">
        <ele>159</ele>
        <time>2015-04-20T18:55:57.068Z</time>
      </trkpt>
      <trkpt lat="48.81023" lon="2.30046">
        <ele>159.1</ele>
        <time>2015-04-20T18:55:58.022Z</time>
      </trkpt>
      <trkpt lat="48.81012" lon="2.30037">
        <ele>159.1</ele>
        <time>2015-04-20T18:56:01.028Z</time>
      </trkpt>
      <trkpt lat="48.81008" lon="2.30036">
        <ele>159.4</ele>
        <time>2015-04-20T18:56:02.042Z</time>
      </trkpt>
      <trkpt lat="48.81001" lon="2.30033">
        <ele>159.5</ele>
        <time>2015-04-20T18:56:03.060Z</time>
      </trkpt>
      <trkpt lat="48.80996" lon="2.3003">
        <ele>159.5</ele>
        <time>2015-04-20T18:56:04.098Z</time>
      </trkpt>
      <trkpt lat="48.80992" lon="2.30027">
        <ele>159.6</ele>
        <time>2015-04-20T18:56:05.041Z</time>
      </trkpt>
      <trkpt lat="48.80984" lon="2.30021">
        <ele>159.6</ele>
        <time>2015-04-20T18:56:07.009Z</time>
      </trkpt>
      <trkpt lat="48.8098" lon="2.3002">
        <ele>159.8</ele>
        <time>2015-04-20T18:56:08.048Z</time>
      </trkpt>
      <trkpt lat="48.80974" lon="2.30018">
        <ele>160.1</ele>
        <time>2015-04-20T18:56:10.664Z</time>
      </trkpt>
      <trkpt lat="48.8097" lon="2.30016">
        <ele>160.3</ele>
        <time>2015-04-20T18:56:11.092Z</time>
      </trkpt>
      <trkpt lat="48.80962" lon="2.30015">
        <ele>160.3</ele>
        <time>2015-04-20T18:56:13.010Z</time>
      </trkpt>
      <trkpt lat="48.80959" lon="2.30014">
        <ele>160.4</ele>
        <time>2015-04-20T18:56:14.018Z</time>
      </trkpt>
      <trkpt lat="48.80951" lon="2.30011">
        <ele>160.7</ele>
        <time>2015-04-20T18:56:16.042Z</time>
      </trkpt>
      <trkpt lat="48.80948" lon="2.30009">
        <ele>160.9</ele>
        <time>2015-04-20T18:56:17.056Z</time>
      </trkpt>
      <trkpt lat="48.8094" lon="2.30008">
        <ele>161.1</ele>
        <time>2015-04-20T18:56:19.077Z</time>
      </trkpt>
      <trkpt lat="48.80936" lon="2.30006">
        <ele>161.3</ele>
        <time>2015-04-20T18:56:19.965Z</time>
      </trkpt>
      <trkpt lat="48.80929" lon="2.30005">
        <ele>161.8</ele>
        <time>2015-04-20T18:56:22.004Z</time>
      </trkpt>
      <trkpt lat="48.80925" lon="2.30004">
        <ele>162.1</ele>
        <time>2015-04-20T18:56:23.049Z</time>
      </trkpt>
      <trkpt lat="48.80918" lon="2.30002">
        <ele>162.5</ele>
        <time>2015-04-20T18:56:25.747Z</time>
      </trkpt>
      <trkpt lat="48.80911" lon="2.29998">
        <ele>162.4</ele>
        <time>2015-04-20T18:56:27.062Z</time>
      </trkpt>
      <trkpt lat="48.80904" lon="2.29994">
        <ele>162.5</ele>
        <time>2015-04-20T18:56:29.853Z</time>
      </trkpt>
      <trkpt lat="48.809" lon="2.29991">
        <ele>162.5</ele>
        <time>2015-04-20T18:56:30.056Z</time>
      </trkpt>
      <trkpt lat="48.80892" lon="2.29988">
        <ele>162.5</ele>
        <time>2015-04-20T18:56:32.163Z</time>
      </trkpt>
      <trkpt lat="48.80887" lon="2.29985">
        <ele>161.8</ele>
        <time>2015-04-20T18:56:33.049Z</time>
      </trkpt>
      <trkpt lat="48.80881" lon="2.29978">
        <ele>161.7</ele>
        <time>2015-04-20T18:56:34.998Z</time>
      </trkpt>
      <trkpt lat="48.80878" lon="2.29975">
        <ele>161.7</ele>
        <time>2015-04-20T18:56:36.036Z</time>
      </trkpt>
      <trkpt lat="48.80873" lon="2.29969">
        <ele>161.5</ele>
        <time>2015-04-20T18:56:38.065Z</time>
      </trkpt>
      <trkpt lat="48.8087" lon="2.29967">
        <ele>161.5</ele>
        <time>2015-04-20T18:56:39.048Z</time>
      </trkpt>
      <trkpt lat="48.80863" lon="2.29966">
        <ele>161.3</ele>
        <time>2015-04-20T18:56:41.011Z</time>
      </trkpt>
      <trkpt lat="48.80858" lon="2.29964">
        <ele>160.8</ele>
        <time>2015-04-20T18:56:42.014Z</time>
      </trkpt>
      <trkpt lat="48.80853" lon="2.29962">
        <ele>160.6</ele>
        <time>2015-04-20T18:56:43.031Z</time>
      </trkpt>
      <trkpt lat="48.80849" lon="2.2996">
        <ele>160.3</ele>
        <time>2015-04-20T18:56:44.041Z</time>
      </trkpt>
      <trkpt lat="48.80841" lon="2.29956">
        <ele>160.3</ele>
        <time>2015-04-20T18:56:46.741Z</time>
      </trkpt>
      <trkpt lat="48.80838" lon="2.29954">
        <ele>160.5</ele>
        <time>2015-04-20T18:56:47.066Z</time>
      </trkpt>
      <trkpt lat="48.80832" lon="2.29949">
        <ele>160.5</ele>
        <time>2015-04-20T18:56:48.984Z</time>
      </trkpt>
      <trkpt lat="48.80829" lon="2.29948">
        <ele>160.5</ele>
        <time>2015-04-20T18:56:50.020Z</time>
      </trkpt>
      <trkpt lat="48.80823" lon="2.29942">
        <ele>160.4</ele>
        <time>2015-04-20T18:56:52.144Z</time>
      </trkpt>
      <trkpt lat="48.80821" lon="2.29939">
        <ele>160.5</ele>
        <time>2015-04-20T18:56:53.090Z</time>
      </trkpt>
      <trkpt lat="48.80817" lon="2.29932">
        <ele>160.6</ele>
        <time>2015-04-20T18:56:55.550Z</time>
      </trkpt>
      <trkpt lat="48.80814" lon="2.29929">
        <ele>160.6</ele>
        <time>2015-04-20T18:56:56.028Z</time>
      </trkpt>
      <trkpt lat="48.80808" lon="2.2992">
        <ele>160.7</ele>
        <time>2015-04-20T18:56:59.061Z</time>
      </trkpt>
      <trkpt lat="48.80806" lon="2.29917">
        <ele>160.6</ele>
        <time>2015-04-20T18:57:00.099Z</time>
      </trkpt>
      <trkpt lat="48.808" lon="2.29907">
        <ele>160.8</ele>
        <time>2015-04-20T18:57:03.055Z</time>
      </trkpt>
      <trkpt lat="48.80798" lon="2.29903">
        <ele>160.8</ele>
        <time>2015-04-20T18:57:04.082Z</time>
      </trkpt>
      <trkpt lat="48.80794" lon="2.29894">
        <ele>160.9</ele>
        <time>2015-04-20T18:57:05.973Z</time>
      </trkpt>
      <trkpt lat="48.80792" lon="2.2989">
        <ele>160.9</ele>
        <time>2015-04-20T18:57:07.006Z</time>
      </trkpt>
      <trkpt lat="48.80789" lon="2.29881">
        <ele>160.9</ele>
        <time>2015-04-20T18:57:09.036Z</time>
      </trkpt>
      <trkpt lat="48.80786" lon="2.29879">
        <ele>161.2</ele>
        <time>2015-04-20T18:57:10.063Z</time>
      </trkpt>
      <trkpt lat="48.80778" lon="2.29877">
        <ele>162.9</ele>
        <time>2015-04-20T18:57:12.110Z</time>
      </trkpt>
      <trkpt lat="48.80772" lon="2.29878">
        <ele>165.1</ele>
        <time>2015-04-20T18:57:13.122Z</time>
      </trkpt>
      <trkpt lat="48.80764" lon="2.29877">
        <ele>167.3</ele>
        <time>2015-04-20T18:57:16.022Z</time>
      </trkpt>
      <trkpt lat="48.8076" lon="2.29877">
        <ele>168.1</ele>
        <time>2015-04-20T18:57:16.092Z</time>
      </trkpt>
      <trkpt lat="48.80753" lon="2.29868">
        <ele>171.3</ele>
        <time>2015-04-20T18:57:21.157Z</time>
      </trkpt>
      <trkpt lat="48.80751" lon="2.29867">
        <ele>172.4</ele>
        <time>2015-04-20T18:57:22.099Z</time>
      </trkpt>
      <trkpt lat="48.80745" lon="2.2986">
        <ele>175.2</ele>
        <time>2015-04-20T18:57:24.117Z</time>
      </trkpt>
      <trkpt lat="48.80742" lon="2.29856">
        <ele>176.5</ele>
        <time>2015-04-20T18:57:25.134Z</time>
      </trkpt>
      <trkpt lat="48.80736" lon="2.29849">
        <ele>179</ele>
        <time>2015-04-20T18:57:27.150Z</time>
      </trkpt>
      <trkpt lat="48.8073" lon="2.29851">
        <ele>181.6</ele>
        <time>2015-04-20T18:57:28.054Z</time>
      </trkpt>
      <trkpt lat="48.80722" lon="2.29853">
        <ele>186.8</ele>
        <time>2015-04-20T18:57:30.078Z</time>
      </trkpt>
      <trkpt lat="48.80719" lon="2.29851">
        <ele>188.5</ele>
        <time>2015-04-20T18:57:31.079Z</time>
      </trkpt>
      <trkpt lat="48.80712" lon="2.29846">
        <ele>190.2</ele>
        <time>2015-04-20T18:57:34.848Z</time>
      </trkpt>
      <trkpt lat="48.80711" lon="2.29843">
        <ele>190.9</ele>
        <time>2015-04-20T18:57:35Z</time>
      </trkpt>
      <trkpt lat="48.80705" lon="2.29834">
        <ele>190.8</ele>
        <time>2015-04-20T18:57:38.029Z</time>
      </trkpt>
      <trkpt lat="48.80704" lon="2.29832">
        <ele>190.9</ele>
        <time>2015-04-20T18:57:39.087Z</time>
      </trkpt>
      <trkpt lat="48.80698" lon="2.29823">
        <ele>184.2</ele>
        <time>2015-04-20T18:57:45.054Z</time>
      </trkpt>
      <trkpt lat="48.80698" lon="2.29821">
        <ele>182.7</ele>
        <time>2015-04-20T18:57:47.088Z</time>
      </trkpt>
      <trkpt lat="48.80698" lon="2.2981">
        <ele>183</ele>
        <time>2015-04-20T18:57:51.142Z</time>
      </trkpt>
      <trkpt lat="48.80694" lon="2.29797">
        <ele>183.2</ele>
        <time>2015-04-20T18:57:54.062Z</time>
      </trkpt>
      <trkpt lat="48.8069" lon="2.29788">
        <ele>182.9</ele>
        <time>2015-04-20T18:57:56.084Z</time>
      </trkpt>
      <trkpt lat="48.80688" lon="2.29783">
        <ele>183</ele>
        <time>2015-04-20T18:57:57.093Z</time>
      </trkpt>
      <trkpt lat="48.80685" lon="2.2978">
        <ele>182</ele>
        <time>2015-04-20T18:58:06.026Z</time>
      </trkpt>
      <trkpt lat="48.80686" lon="2.2978">
        <ele>181.9</ele>
        <time>2015-04-20T18:58:07.059Z</time>
      </trkpt>
      <trkpt lat="48.80686" lon="2.2978">
        <ele>181.6</ele>
        <time>2015-04-20T18:58:11.115Z</time>
      </trkpt>
      <trkpt lat="48.80687" lon="2.2978">
        <ele>181.2</ele>
        <time>2015-04-20T18:58:12.110Z</time>
      </trkpt>
      <trkpt lat="48.8069" lon="2.2978">
        <ele>181</ele>
        <time>2015-04-20T18:58:16.075Z</time>
      </trkpt>
      <trkpt lat="48.8069" lon="2.2978">
        <ele>180.7</ele>
        <time>2015-04-20T18:58:17.098Z</time>
      </trkpt>
      <trkpt lat="48.8069" lon="2.2978">
        <ele>180.6</ele>
        <time>2015-04-20T18:58:18.041Z</time>
      </trkpt>
      <trkpt lat="48.8069" lon="2.29779">
        <ele>180.6</ele>
        <time>2015-04-20T18:58:19.044Z</time>
      </trkpt>
      <trkpt lat="48.80689" lon="2.29772">
        <ele>179.9</ele>
        <time>2015-04-20T18:58:32.098Z</time>
      </trkpt>
      <trkpt lat="48.80689" lon="2.29771">
        <ele>179.9</ele>
        <time>2015-04-20T18:58:33.219Z</time>
      </trkpt>
      <trkpt lat="48.80689" lon="2.2977">
        <ele>179.8</ele>
        <time>2015-04-20T18:58:34.036Z</time>
      </trkpt>
      <trkpt lat="48.80691" lon="2.2976">
        <ele>181.4</ele>
        <time>2015-04-20T18:58:46.107Z</time>
      </trkpt>
      <trkpt lat="48.80692" lon="2.2976">
        <ele>181.4</ele>
        <time>2015-04-20T18:58:47.120Z</time>
      </trkpt>
      <trkpt lat="48.80691" lon="2.29759">
        <ele>181.3</ele>
        <time>2015-04-20T18:58:48.131Z</time>
      </trkpt>
      <trkpt lat="48.80699" lon="2.29761">
        <ele>177.9</ele>
        <time>2015-04-20T18:58:59.128Z</time>
      </trkpt>
      <trkpt lat="48.807" lon="2.29762">
        <ele>177.7</ele>
        <time>2015-04-20T18:59:00.276Z</time>
      </trkpt>
      <trkpt lat="48.80709" lon="2.29767">
        <ele>177</ele>
        <time>2015-04-20T18:59:05.426Z</time>
      </trkpt>
      <trkpt lat="48.80711" lon="2.29768">
        <ele>176.8</ele>
        <time>2015-04-20T18:59:06.041Z</time>
      </trkpt>
      <trkpt lat="48.80719" lon="2.29772">
        <ele>175.7</ele>
        <time>2015-04-20T18:59:10.540Z</time>
      </trkpt>
      <trkpt lat="48.80721" lon="2.29773">
        <ele>175.6</ele>
        <time>2015-04-20T18:59:11.008Z</time>
      </trkpt>
      <trkpt lat="48.80725" lon="2.29783">
        <ele>175.2</ele>
        <time>2015-04-20T18:59:17.007Z</time>
      </trkpt>
      <trkpt lat="48.80726" lon="2.29787">
        <ele>173.3</ele>
        <time>2015-04-20T18:59:18.090Z</time>
      </trkpt>
      <trkpt lat="48.80731" lon="2.2979">
        <ele>172.5</ele>
        <time>2015-04-20T18:59:27.105Z</time>
      </trkpt>
      <trkpt lat="48.80731" lon="2.2979">
        <ele>172.6</ele>
        <time>2015-04-20T18:59:28.009Z</time>
      </trkpt>
      <trkpt lat="48.80731" lon="2.2979">
        <ele>172.8</ele>
        <time>2015-04-20T18:59:29.042Z</time>
      </trkpt>
      <trkpt lat="48.80731" lon="2.29794">
        <ele>174.2</ele>
        <time>2015-04-20T18:59:35.093Z</time>
      </trkpt>
      <trkpt lat="48.80731" lon="2.29794">
        <ele>174.4</ele>
        <time>2015-04-20T18:59:36.127Z</time>
      </trkpt>
      <trkpt lat="48.8073" lon="2.29795">
        <ele>174.4</ele>
        <time>2015-04-20T18:59:37.006Z</time>
      </trkpt>
      <trkpt lat="48.80734" lon="2.29787">
        <ele>176.2</ele>
        <time>2015-04-20T19:00:12.091Z</time>
      </trkpt>
      <trkpt lat="48.80734" lon="2.29787">
        <ele>176.3</ele>
        <time>2015-04-20T19:00:13.073Z</time>
      </trkpt>
      <trkpt lat="48.80733" lon="2.29789">
        <ele>176.8</ele>
        <time>2015-04-20T19:00:31.056Z</time>
      </trkpt>
      <trkpt lat="48.80731" lon="2.29788">
        <ele>181.4</ele>
        <time>2015-04-20T19:00:32.055Z</time>
      </trkpt>
      <trkpt lat="48.80731" lon="2.29787">
        <ele>181.8</ele>
        <time>2015-04-20T19:00:33.061Z</time>
      </trkpt>
      <trkpt lat="48.80731" lon="2.29786">
        <ele>181.7</ele>
        <time>2015-04-20T19:00:34.961Z</time>
      </trkpt>
      <trkpt lat="48.80731" lon="2.29786">
        <ele>181.7</ele>
        <time>2015-04-20T19:00:35.083Z</time>
      </trkpt>
      <trkpt lat="48.80731" lon="2.29785">
        <ele>181.9</ele>
        <time>2015-04-20T19:00:39.051Z</time>
      </trkpt>
      <trkpt lat="48.80731" lon="2.29786">
        <ele>182.2</ele>
        <time>2015-04-20T19:00:40.040Z</time>
      </trkpt>
      <trkpt lat="48.80731" lon="2.29785">
        <ele>182.3</ele>
        <time>2015-04-20T19:00:41.055Z</time>
      </trkpt>
      <trkpt lat="48.80731" lon="2.29785">
        <ele>182.2</ele>
        <time>2015-04-20T19:00:42.054Z</time>
      </trkpt>
      <trkpt lat="48.80732" lon="2.29785">
        <ele>182.1</ele>
        <time>2015-04-20T19:00:43.039Z</time>
      </trkpt>
      <trkpt lat="48.80738" lon="2.29784">
        <ele>178.5</ele>
        <time>2015-04-20T19:01:48.061Z</time>
      </trkpt>
      <trkpt lat="48.80739" lon="2.29786">
        <ele>178.5</ele>
        <time>2015-04-20T19:01:49.078Z</time>
      </trkpt>
      <trkpt lat="48.80741" lon="2.29784">
        <ele>178.7</ele>
        <time>2015-04-20T19:01:56.081Z</time>
      </trkpt>
      <trkpt lat="48.80741" lon="2.29784">
        <ele>178.7</ele>
        <time>2015-04-20T19:01:57.091Z</time>
      </trkpt>
      <trkpt lat="48.80741" lon="2.29783">
        <ele>179</ele>
        <time>2015-04-20T19:02:01.100Z</time>
      </trkpt>
      <trkpt lat="48.80742" lon="2.29783">
        <ele>179.1</ele>
        <time>2015-04-20T19:02:02.132Z</time>
      </trkpt>
      <trkpt lat="48.80744" lon="2.29783">
        <ele>178.5</ele>
        <time>2015-04-20T19:02:09.112Z</time>
      </trkpt>
      <trkpt lat="48.80744" lon="2.29783">
        <ele>178.3</ele>
        <time>2015-04-20T19:02:10.018Z</time>
      </trkpt>
      <trkpt lat="48.80744" lon="2.29783">
        <ele>178.3</ele>
        <time>2015-04-20T19:02:10.625Z</time>
      </trkpt>
      <trkpt lat="48.80741" lon="2.29765">
        <ele>174.7</ele>
        <time>2015-04-20T19:02:48.111Z</time>
      </trkpt>
      <trkpt lat="48.80735" lon="2.29763">
        <ele>174.3</ele>
        <time>2015-04-20T19:02:49.011Z</time>
      </trkpt>
      <trkpt lat="48.80731" lon="2.2976">
        <ele>174</ele>
        <time>2015-04-20T19:02:50.028Z</time>
      </trkpt>
      <trkpt lat="48.80727" lon="2.29758">
        <ele>173.7</ele>
        <time>2015-04-20T19:02:51.067Z</time>
      </trkpt>
      <trkpt lat="48.80723" lon="2.29755">
        <ele>173.4</ele>
        <time>2015-04-20T19:02:52.076Z</time>
      </trkpt>
      <trkpt lat="48.80715" lon="2.29749">
        <ele>172.9</ele>
        <time>2015-04-20T19:02:54.124Z</time>
      </trkpt>
      <trkpt lat="48.80708" lon="2.29743">
        <ele>171.9</ele>
        <time>2015-04-20T19:02:56.084Z</time>
      </trkpt>
      <trkpt lat="48.80694" lon="2.2973">
        <ele>170.5</ele>
        <time>2015-04-20T19:03:00.135Z</time>
      </trkpt>
      <trkpt lat="48.80694" lon="2.2973">
        <ele>170.5</ele>
        <time>2015-04-20T19:03:00.741Z</time>
      </trkpt>
      <trkpt lat="48.80672" lon="2.29714">
        <ele>171.6</ele>
        <time>2015-04-20T19:03:06.007Z</time>
      </trkpt>
      <trkpt lat="48.80665" lon="2.29709">
        <ele>171.5</ele>
        <time>2015-04-20T19:03:08.045Z</time>
      </trkpt>
      <trkpt lat="48.80661" lon="2.29707">
        <ele>171.4</ele>
        <time>2015-04-20T19:03:09.052Z</time>
      </trkpt>
      <trkpt lat="48.80654" lon="2.29702">
        <ele>171.3</ele>
        <time>2015-04-20T19:03:10.984Z</time>
      </trkpt>
      <trkpt lat="48.80651" lon="2.29699">
        <ele>171.3</ele>
        <time>2015-04-20T19:03:12.017Z</time>
      </trkpt>
      <trkpt lat="48.80644" lon="2.29694">
        <ele>171.4</ele>
        <time>2015-04-20T19:03:14.043Z</time>
      </trkpt>
      <trkpt lat="48.8064" lon="2.29691">
        <ele>171.5</ele>
        <time>2015-04-20T19:03:15.047Z</time>
      </trkpt>
      <trkpt lat="48.80634" lon="2.29683">
        <ele>171.8</ele>
        <time>2015-04-20T19:03:17Z</time>
      </trkpt>
      <trkpt lat="48.8063" lon="2.29678">
        <ele>171.7</ele>
        <time>2015-04-20T19:03:18.025Z</time>
      </trkpt>
      <trkpt lat="48.80626" lon="2.29674">
        <ele>171.8</ele>
        <time>2015-04-20T19:03:19.038Z</time>
      </trkpt>
      <trkpt lat="48.80622" lon="2.29669">
        <ele>171.8</ele>
        <time>2015-04-20T19:03:20.058Z</time>
      </trkpt>
      <trkpt lat="48.80616" lon="2.2966">
        <ele>171.8</ele>
        <time>2015-04-20T19:03:22.074Z</time>
      </trkpt>
      <trkpt lat="48.80613" lon="2.29655">
        <ele>171.9</ele>
        <time>2015-04-20T19:03:23.130Z</time>
      </trkpt>
      <trkpt lat="48.80609" lon="2.29651">
        <ele>172</ele>
        <time>2015-04-20T19:03:24.027Z</time>
      </trkpt>
      <trkpt lat="48.80605" lon="2.29647">
        <ele>172.1</ele>
        <time>2015-04-20T19:03:25.027Z</time>
      </trkpt>
      <trkpt lat="48.80601" lon="2.29642">
        <ele>172.1</ele>
        <time>2015-04-20T19:03:26.074Z</time>
      </trkpt>
      <trkpt lat="48.80597" lon="2.29638">
        <ele>172.2</ele>
        <time>2015-04-20T19:03:27.130Z</time>
      </trkpt>
      <trkpt lat="48.80593" lon="2.29632">
        <ele>172.3</ele>
        <time>2015-04-20T19:03:28.030Z</time>
      </trkpt>
      <trkpt lat="48.80589" lon="2.29628">
        <ele>172.3</ele>
        <time>2015-04-20T19:03:29.034Z</time>
      </trkpt>
      <trkpt lat="48.80585" lon="2.29624">
        <ele>172.3</ele>
        <time>2015-04-20T19:03:30.041Z</time>
      </trkpt>
      <trkpt lat="48.80581" lon="2.29619">
        <ele>172.3</ele>
        <time>2015-04-20T19:03:31.059Z</time>
      </trkpt>
      <trkpt lat="48.80578" lon="2.29614">
        <ele>172.1</ele>
        <time>2015-04-20T19:03:32.071Z</time>
      </trkpt>
      <trkpt lat="48.80574" lon="2.29609">
        <ele>172</ele>
        <time>2015-04-20T19:03:33.085Z</time>
      </trkpt>
      <trkpt lat="48.80568" lon="2.296">
        <ele>172</ele>
        <time>2015-04-20T19:03:34.997Z</time>
      </trkpt>
      <trkpt lat="48.80565" lon="2.29595">
        <ele>171.9</ele>
        <time>2015-04-20T19:03:36.152Z</time>
      </trkpt>
      <trkpt lat="48.80559" lon="2.29586">
        <ele>171.9</ele>
        <time>2015-04-20T19:03:38.033Z</time>
      </trkpt>
      <trkpt lat="48.80557" lon="2.29583">
        <ele>171.9</ele>
        <time>2015-04-20T19:03:39.094Z</time>
      </trkpt>
      <trkpt lat="48.80552" lon="2.29575">
        <ele>171.1</ele>
        <time>2015-04-20T19:03:42.035Z</time>
      </trkpt>
      <trkpt lat="48.8055" lon="2.29573">
        <ele>170.5</ele>
        <time>2015-04-20T19:03:43.039Z</time>
      </trkpt>
      <trkpt lat="48.80544" lon="2.29568">
        <ele>168.7</ele>
        <time>2015-04-20T19:03:46.081Z</time>
      </trkpt>
      <trkpt lat="48.80542" lon="2.29565">
        <ele>168.5</ele>
        <time>2015-04-20T19:03:47.119Z</time>
      </trkpt>
      <trkpt lat="48.80538" lon="2.29558">
        <ele>168</ele>
        <time>2015-04-20T19:03:49.055Z</time>
      </trkpt>
      <trkpt lat="48.80535" lon="2.29554">
        <ele>168</ele>
        <time>2015-04-20T19:03:50.061Z</time>
      </trkpt>
      <trkpt lat="48.80531" lon="2.29545">
        <ele>167.7</ele>
        <time>2015-04-20T19:03:52.039Z</time>
      </trkpt>
      <trkpt lat="48.80528" lon="2.2954">
        <ele>167.3</ele>
        <time>2015-04-20T19:03:53.037Z</time>
      </trkpt>
      <trkpt lat="48.80522" lon="2.29533">
        <ele>166.9</ele>
        <time>2015-04-20T19:03:55.065Z</time>
      </trkpt>
      <trkpt lat="48.80519" lon="2.2953">
        <ele>166.8</ele>
        <time>2015-04-20T19:03:56.085Z</time>
      </trkpt>
      <trkpt lat="48.80513" lon="2.29524">
        <ele>165.7</ele>
        <time>2015-04-20T19:03:58.121Z</time>
      </trkpt>
      <trkpt lat="48.8051" lon="2.29521">
        <ele>165.5</ele>
        <time>2015-04-20T19:03:59.029Z</time>
      </trkpt>
      <trkpt lat="48.80503" lon="2.29515">
        <ele>164.8</ele>
        <time>2015-04-20T19:04:01.038Z</time>
      </trkpt>
      <trkpt lat="48.80501" lon="2.29511">
        <ele>164.7</ele>
        <time>2015-04-20T19:04:02.052Z</time>
      </trkpt>
      <trkpt lat="48.80497" lon="2.29504">
        <ele>164.2</ele>
        <time>2015-04-20T19:04:04.031Z</time>
      </trkpt>
      <trkpt lat="48.80494" lon="2.29502">
        <ele>163.8</ele>
        <time>2015-04-20T19:04:05.103Z</time>
      </trkpt>
      <trkpt lat="48.80487" lon="2.295">
        <ele>163.4</ele>
        <time>2015-04-20T19:04:07.041Z</time>
      </trkpt>
      <trkpt lat="48.80483" lon="2.295">
        <ele>163.2</ele>
        <time>2015-04-20T19:04:08.062Z</time>
      </trkpt>
      <trkpt lat="48.80475" lon="2.29503">
        <ele>162.2</ele>
        <time>2015-04-20T19:04:10.086Z</time>
      </trkpt>
      <trkpt lat="48.80471" lon="2.29504">
        <ele>161.7</ele>
        <time>2015-04-20T19:04:11.088Z</time>
      </trkpt>
      <trkpt lat="48.80464" lon="2.29506">
        <ele>161.2</ele>
        <time>2015-04-20T19:04:13.562Z</time>
      </trkpt>
      <trkpt lat="48.80461" lon="2.29508">
        <ele>160.9</ele>
        <time>2015-04-20T19:04:14.060Z</time>
      </trkpt>
      <trkpt lat="48.80453" lon="2.29513">
        <ele>161.6</ele>
        <time>2015-04-20T19:04:18.627Z</time>
      </trkpt>
      <trkpt lat="48.80451" lon="2.29514">
        <ele>161.8</ele>
        <time>2015-04-20T19:04:19Z</time>
      </trkpt>
      <trkpt lat="48.80449" lon="2.29518">
        <ele>161.9</ele>
        <time>2015-04-20T19:04:21.041Z</time>
      </trkpt>
      <trkpt lat="48.80448" lon="2.2952">
        <ele>162.1</ele>
        <time>2015-04-20T19:04:22.044Z</time>
      </trkpt>
      <trkpt lat="48.80447" lon="2.29522">
        <ele>161.1</ele>
        <time>2015-04-20T19:04:28.033Z</time>
      </trkpt>
      <trkpt lat="48.80443" lon="2.29527">
        <ele>160.9</ele>
        <time>2015-04-20T19:04:29.093Z</time>
      </trkpt>
      <trkpt lat="48.80443" lon="2.29539">
        <ele>156.3</ele>
        <time>2015-04-20T19:04:53.029Z</time>
      </trkpt>
      <trkpt lat="48.80444" lon="2.29542">
        <ele>156.2</ele>
        <time>2015-04-20T19:04:54.089Z</time>
      </trkpt>
      <trkpt lat="48.8045" lon="2.29551">
        <ele>155.8</ele>
        <time>2015-04-20T19:04:57.045Z</time>
      </trkpt>
      <trkpt lat="48.80452" lon="2.29555">
        <ele>155.8</ele>
        <time>2015-04-20T19:04:58.206Z</time>
      </trkpt>
      <trkpt lat="48.80456" lon="2.29564">
        <ele>156.1</ele>
        <time>2015-04-20T19:05:00.034Z</time>
      </trkpt>
      <trkpt lat="48.80459" lon="2.29569">
        <ele>155.9</ele>
        <time>2015-04-20T19:05:01.164Z</time>
      </trkpt>
      <trkpt lat="48.80464" lon="2.29576">
        <ele>155.9</ele>
        <time>2015-04-20T19:05:03.249Z</time>
      </trkpt>
      <trkpt lat="48.80467" lon="2.29579">
        <ele>155.8</ele>
        <time>2015-04-20T19:05:04.143Z</time>
      </trkpt>
      <trkpt lat="48.80473" lon="2.29586">
        <ele>155.6</ele>
        <time>2015-04-20T19:05:06.090Z</time>
      </trkpt>
      <trkpt lat="48.80475" lon="2.29592">
        <ele>155.2</ele>
        <time>2015-04-20T19:05:07.021Z</time>
      </trkpt>
      <trkpt lat="48.80478" lon="2.29598">
        <ele>155.1</ele>
        <time>2015-04-20T19:05:08.026Z</time>
      </trkpt>
      <trkpt lat="48.80481" lon="2.29603">
        <ele>155.1</ele>
        <time>2015-04-20T19:05:09.042Z</time>
      </trkpt>
      <trkpt lat="48.80487" lon="2.29612">
        <ele>154.7</ele>
        <time>2015-04-20T19:05:11.003Z</time>
      </trkpt>
      <trkpt lat="48.8049" lon="2.29617">
        <ele>154.6</ele>
        <time>2015-04-20T19:05:12.023Z</time>
      </trkpt>
      <trkpt lat="48.80495" lon="2.29625">
        <ele>154.3</ele>
        <time>2015-04-20T19:05:14.051Z</time>
      </trkpt>
      <trkpt lat="48.80497" lon="2.2963">
        <ele>154.1</ele>
        <time>2015-04-20T19:05:15.079Z</time>
      </trkpt>
      <trkpt lat="48.80495" lon="2.29639">
        <ele>153.4</ele>
        <time>2015-04-20T19:05:17.167Z</time>
      </trkpt>
      <trkpt lat="48.80492" lon="2.29644">
        <ele>153.4</ele>
        <time>2015-04-20T19:05:18.084Z</time>
      </trkpt>
      <trkpt lat="48.80486" lon="2.29652">
        <ele>152.9</ele>
        <time>2015-04-20T19:05:20.012Z</time>
      </trkpt>
      <trkpt lat="48.80484" lon="2.29657">
        <ele>152.8</ele>
        <time>2015-04-20T19:05:21.070Z</time>
      </trkpt>
      <trkpt lat="48.80478" lon="2.29666">
        <ele>152.8</ele>
        <time>2015-04-20T19:05:23.050Z</time>
      </trkpt>
      <trkpt lat="48.80475" lon="2.29671">
        <ele>152.7</ele>
        <time>2015-04-20T19:05:24.064Z</time>
      </trkpt>
      <trkpt lat="48.80472" lon="2.29677">
        <ele>152.6</ele>
        <time>2015-04-20T19:05:25.090Z</time>
      </trkpt>
      <trkpt lat="48.80469" lon="2.29683">
        <ele>152.5</ele>
        <time>2015-04-20T19:05:26.025Z</time>
      </trkpt>
      <trkpt lat="48.80466" lon="2.29688">
        <ele>152.3</ele>
        <time>2015-04-20T19:05:27.060Z</time>
      </trkpt>
      <trkpt lat="48.80463" lon="2.29694">
        <ele>152.2</ele>
        <time>2015-04-20T19:05:28.065Z</time>
      </trkpt>
      <trkpt lat="48.8046" lon="2.29699">
        <ele>152.3</ele>
        <time>2015-04-20T19:05:29.052Z</time>
      </trkpt>
      <trkpt lat="48.80457" lon="2.29704">
        <ele>152.2</ele>
        <time>2015-04-20T19:05:30.027Z</time>
      </trkpt>
      <trkpt lat="48.80451" lon="2.29715">
        <ele>152</ele>
        <time>2015-04-20T19:05:32.038Z</time>
      </trkpt>
      <trkpt lat="48.80448" lon="2.2972">
        <ele>151.7</ele>
        <time>2015-04-20T19:05:33.108Z</time>
      </trkpt>
      <trkpt lat="48.80445" lon="2.29725">
        <ele>151.7</ele>
        <time>2015-04-20T19:05:34.030Z</time>
      </trkpt>
      <trkpt lat="48.80441" lon="2.2973">
        <ele>151.7</ele>
        <time>2015-04-20T19:05:35.047Z</time>
      </trkpt>
      <trkpt lat="48.80435" lon="2.29739">
        <ele>151.6</ele>
        <time>2015-04-20T19:05:37.081Z</time>
      </trkpt>
      <trkpt lat="48.80433" lon="2.29744">
        <ele>151.6</ele>
        <time>2015-04-20T19:05:37.997Z</time>
      </trkpt>
      <trkpt lat="48.80429" lon="2.29754">
        <ele>151.6</ele>
        <time>2015-04-20T19:05:40.028Z</time>
      </trkpt>
      <trkpt lat="48.80426" lon="2.29758">
        <ele>151.5</ele>
        <time>2015-04-20T19:05:41.047Z</time>
      </trkpt>
      <trkpt lat="48.80421" lon="2.29767">
        <ele>151.4</ele>
        <time>2015-04-20T19:05:43.096Z</time>
      </trkpt>
      <trkpt lat="48.80419" lon="2.29771">
        <ele>151.4</ele>
        <time>2015-04-20T19:05:44.113Z</time>
      </trkpt>
      <trkpt lat="48.80414" lon="2.29779">
        <ele>151.7</ele>
        <time>2015-04-20T19:05:46.070Z</time>
      </trkpt>
      <trkpt lat="48.80412" lon="2.29781">
        <ele>152.1</ele>
        <time>2015-04-20T19:05:46.992Z</time>
      </trkpt>
      <trkpt lat="48.80405" lon="2.29788">
        <ele>154.1</ele>
        <time>2015-04-20T19:05:56.056Z</time>
      </trkpt>
      <trkpt lat="48.80404" lon="2.29789">
        <ele>154.2</ele>
        <time>2015-04-20T19:05:57.041Z</time>
      </trkpt>
      <trkpt lat="48.80398" lon="2.29795">
        <ele>154.4</ele>
        <time>2015-04-20T19:06:00.176Z</time>
      </trkpt>
      <trkpt lat="48.80395" lon="2.29798">
        <ele>154.1</ele>
        <time>2015-04-20T19:06:01.031Z</time>
      </trkpt>
      <trkpt lat="48.8039" lon="2.29807">
        <ele>153.5</ele>
        <time>2015-04-20T19:06:03.236Z</time>
      </trkpt>
      <trkpt lat="48.80387" lon="2.29811">
        <ele>153.5</ele>
        <time>2015-04-20T19:06:04.043Z</time>
      </trkpt>
      <trkpt lat="48.80383" lon="2.29816">
        <ele>153.5</ele>
        <time>2015-04-20T19:06:04.994Z</time>
      </trkpt>
      <trkpt lat="48.8038" lon="2.29821">
        <ele>153.6</ele>
        <time>2015-04-20T19:06:06.034Z</time>
      </trkpt>
      <trkpt lat="48.80373" lon="2.29829">
        <ele>153.7</ele>
        <time>2015-04-20T19:06:08.054Z</time>
      </trkpt>
      <trkpt lat="48.8037" lon="2.29832">
        <ele>153.8</ele>
        <time>2015-04-20T19:06:09.102Z</time>
      </trkpt>
      <trkpt lat="48.80362" lon="2.2984">
        <ele>154.1</ele>
        <time>2015-04-20T19:06:11.029Z</time>
      </trkpt>
      <trkpt lat="48.80359" lon="2.29843">
        <ele>154</ele>
        <time>2015-04-20T19:06:12.069Z</time>
      </trkpt>
      <trkpt lat="48.80352" lon="2.29849">
        <ele>154</ele>
        <time>2015-04-20T19:06:14.122Z</time>
      </trkpt>
      <trkpt lat="48.80349" lon="2.29853">
        <ele>153.9</ele>
        <time>2015-04-20T19:06:15.131Z</time>
      </trkpt>
      <trkpt lat="48.80342" lon="2.29859">
        <ele>153.9</ele>
        <time>2015-04-20T19:06:17.047Z</time>
      </trkpt>
      <trkpt lat="48.80338" lon="2.29863">
        <ele>153.8</ele>
        <time>2015-04-20T19:06:18.064Z</time>
      </trkpt>
      <trkpt lat="48.80331" lon="2.2987">
        <ele>153.8</ele>
        <time>2015-04-20T19:06:20.104Z</time>
      </trkpt>
      <trkpt lat="48.80326" lon="2.29874">
        <ele>153.8</ele>
        <time>2015-04-20T19:06:21.169Z</time>
      </trkpt>
      <trkpt lat="48.80322" lon="2.29878">
        <ele>153.8</ele>
        <time>2015-04-20T19:06:22.025Z</time>
      </trkpt>
      <trkpt lat="48.80319" lon="2.29882">
        <ele>153.8</ele>
        <time>2015-04-20T19:06:23.048Z</time>
      </trkpt>
      <trkpt lat="48.80315" lon="2.29887">
        <ele>153.7</ele>
        <time>2015-04-20T19:06:24.115Z</time>
      </trkpt>
      <trkpt lat="48.80311" lon="2.29891">
        <ele>153.6</ele>
        <time>2015-04-20T19:06:25.033Z</time>
      </trkpt>
      <trkpt lat="48.80307" lon="2.29895">
        <ele>153.5</ele>
        <time>2015-04-20T19:06:26.053Z</time>
      </trkpt>
      <trkpt lat="48.80303" lon="2.29898">
        <ele>153.6</ele>
        <time>2015-04-20T19:06:27.068Z</time>
      </trkpt>
      <trkpt lat="48.80298" lon="2.29901">
        <ele>153.5</ele>
        <time>2015-04-20T19:06:28.078Z</time>
      </trkpt>
      <trkpt lat="48.80294" lon="2.29905">
        <ele>153.6</ele>
        <time>2015-04-20T19:06:29.087Z</time>
      </trkpt>
      <trkpt lat="48.8029" lon="2.29909">
        <ele>153.7</ele>
        <time>2015-04-20T19:06:30.097Z</time>
      </trkpt>
      <trkpt lat="48.80286" lon="2.29914">
        <ele>153.8</ele>
        <time>2015-04-20T19:06:31.106Z</time>
      </trkpt>
      <trkpt lat="48.80281" lon="2.29919">
        <ele>154</ele>
        <time>2015-04-20T19:06:32.019Z</time>
      </trkpt>
      <trkpt lat="48.80277" lon="2.29923">
        <ele>154.2</ele>
        <time>2015-04-20T19:06:33.075Z</time>
      </trkpt>
      <trkpt lat="48.80273" lon="2.29927">
        <ele>154.5</ele>
        <time>2015-04-20T19:06:34.078Z</time>
      </trkpt>
      <trkpt lat="48.80269" lon="2.29931">
        <ele>154.7</ele>
        <time>2015-04-20T19:06:35.095Z</time>
      </trkpt>
      <trkpt lat="48.80264" lon="2.29936">
        <ele>155.2</ele>
        <time>2015-04-20T19:06:36.007Z</time>
      </trkpt>
      <trkpt lat="48.8026" lon="2.2994">
        <ele>155.2</ele>
        <time>2015-04-20T19:06:37.030Z</time>
      </trkpt>
      <trkpt lat="48.80256" lon="2.29944">
        <ele>155.1</ele>
        <time>2015-04-20T19:06:38.049Z</time>
      </trkpt>
      <trkpt lat="48.80252" lon="2.29948">
        <ele>155.1</ele>
        <time>2015-04-20T19:06:39.081Z</time>
      </trkpt>
      <trkpt lat="48.80248" lon="2.29952">
        <ele>155.1</ele>
        <time>2015-04-20T19:06:40.004Z</time>
      </trkpt>
      <trkpt lat="48.80244" lon="2.29955">
        <ele>155.1</ele>
        <time>2015-04-20T19:06:41.062Z</time>
      </trkpt>
      <trkpt lat="48.8024" lon="2.29959">
        <ele>155.1</ele>
        <time>2015-04-20T19:06:42.075Z</time>
      </trkpt>
      <trkpt lat="48.80236" lon="2.29963">
        <ele>155.2</ele>
        <time>2015-04-20T19:06:43.039Z</time>
      </trkpt>
      <trkpt lat="48.80232" lon="2.29967">
        <ele>155.1</ele>
        <time>2015-04-20T19:06:44.065Z</time>
      </trkpt>
      <trkpt lat="48.80229" lon="2.29972">
        <ele>155</ele>
        <time>2015-04-20T19:06:45.128Z</time>
      </trkpt>
      <trkpt lat="48.80222" lon="2.2998">
        <ele>154.7</ele>
        <time>2015-04-20T19:06:47.092Z</time>
      </trkpt>
      <trkpt lat="48.80218" lon="2.29983">
        <ele>154.4</ele>
        <time>2015-04-20T19:06:48.140Z</time>
      </trkpt>
      <trkpt lat="48.80215" lon="2.29987">
        <ele>154.2</ele>
        <time>2015-04-20T19:06:49.052Z</time>
      </trkpt>
      <trkpt lat="48.80211" lon="2.29991">
        <ele>154.1</ele>
        <time>2015-04-20T19:06:50.061Z</time>
      </trkpt>
      <trkpt lat="48.80207" lon="2.29995">
        <ele>153.8</ele>
        <time>2015-04-20T19:06:51.083Z</time>
      </trkpt>
      <trkpt lat="48.80203" lon="2.29999">
        <ele>153.7</ele>
        <time>2015-04-20T19:06:52.100Z</time>
      </trkpt>
      <trkpt lat="48.80196" lon="2.30005">
        <ele>153.7</ele>
        <time>2015-04-20T19:06:54.039Z</time>
      </trkpt>
      <trkpt lat="48.80192" lon="2.30008">
        <ele>153.7</ele>
        <time>2015-04-20T19:06:55.058Z</time>
      </trkpt>
      <trkpt lat="48.80188" lon="2.30012">
        <ele>153.7</ele>
        <time>2015-04-20T19:06:56.086Z</time>
      </trkpt>
      <trkpt lat="48.80184" lon="2.30016">
        <ele>153.7</ele>
        <time>2015-04-20T19:06:57.114Z</time>
      </trkpt>
      <trkpt lat="48.8018" lon="2.3002">
        <ele>153.7</ele>
        <time>2015-04-20T19:06:57.999Z</time>
      </trkpt>
      <trkpt lat="48.80176" lon="2.30025">
        <ele>153.8</ele>
        <time>2015-04-20T19:06:59.031Z</time>
      </trkpt>
      <trkpt lat="48.80172" lon="2.30029">
        <ele>153.7</ele>
        <time>2015-04-20T19:07:00.044Z</time>
      </trkpt>
      <trkpt lat="48.80169" lon="2.30033">
        <ele>153.8</ele>
        <time>2015-04-20T19:07:01.066Z</time>
      </trkpt>
      <trkpt lat="48.8016" lon="2.30035">
        <ele>153.7</ele>
        <time>2015-04-20T19:07:03.084Z</time>
      </trkpt>
      <trkpt lat="48.80155" lon="2.30033">
        <ele>153.8</ele>
        <time>2015-04-20T19:07:04.137Z</time>
      </trkpt>
      <trkpt lat="48.80151" lon="2.3003">
        <ele>153.8</ele>
        <time>2015-04-20T19:07:05.098Z</time>
      </trkpt>
      <trkpt lat="48.80146" lon="2.30025">
        <ele>153.8</ele>
        <time>2015-04-20T19:07:06.111Z</time>
      </trkpt>
      <trkpt lat="48.80141" lon="2.30018">
        <ele>153.9</ele>
        <time>2015-04-20T19:07:07.025Z</time>
      </trkpt>
      <trkpt lat="48.80137" lon="2.30012">
        <ele>153.9</ele>
        <time>2015-04-20T19:07:08.029Z</time>
      </trkpt>
      <trkpt lat="48.80132" lon="2.30006">
        <ele>153.7</ele>
        <time>2015-04-20T19:07:09.102Z</time>
      </trkpt>
      <trkpt lat="48.80128" lon="2.29999">
        <ele>153.6</ele>
        <time>2015-04-20T19:07:10.095Z</time>
      </trkpt>
      <trkpt lat="48.80122" lon="2.29992">
        <ele>153.4</ele>
        <time>2015-04-20T19:07:11.103Z</time>
      </trkpt>
      <trkpt lat="48.80117" lon="2.29986">
        <ele>153.3</ele>
        <time>2015-04-20T19:07:12.022Z</time>
      </trkpt>
      <trkpt lat="48.80111" lon="2.29979">
        <ele>153.1</ele>
        <time>2015-04-20T19:07:13.027Z</time>
      </trkpt>
      <trkpt lat="48.80105" lon="2.29973">
        <ele>153.1</ele>
        <time>2015-04-20T19:07:14.077Z</time>
      </trkpt>
      <trkpt lat="48.80097" lon="2.29967">
        <ele>152.8</ele>
        <time>2015-04-20T19:07:15.129Z</time>
      </trkpt>
      <trkpt lat="48.8009" lon="2.2996">
        <ele>152.8</ele>
        <time>2015-04-20T19:07:16.064Z</time>
      </trkpt>
      <trkpt lat="48.80083" lon="2.29953">
        <ele>153.4</ele>
        <time>2015-04-20T19:07:17.029Z</time>
      </trkpt>
      <trkpt lat="48.80076" lon="2.29947">
        <ele>153.6</ele>
        <time>2015-04-20T19:07:18.034Z</time>
      </trkpt>
      <trkpt lat="48.8007" lon="2.29942">
        <ele>153.9</ele>
        <time>2015-04-20T19:07:19.051Z</time>
      </trkpt>
      <trkpt lat="48.80063" lon="2.29937">
        <ele>153.7</ele>
        <time>2015-04-20T19:07:20.066Z</time>
      </trkpt>
      <trkpt lat="48.80057" lon="2.29933">
        <ele>153.6</ele>
        <time>2015-04-20T19:07:21.094Z</time>
      </trkpt>
      <trkpt lat="48.80052" lon="2.29928">
        <ele>153.7</ele>
        <time>2015-04-20T19:07:22.093Z</time>
      </trkpt>
      <trkpt lat="48.80046" lon="2.29925">
        <ele>152.8</ele>
        <time>2015-04-20T19:07:23.103Z</time>
      </trkpt>
      <trkpt lat="48.80041" lon="2.29921">
        <ele>152.7</ele>
        <time>2015-04-20T19:07:24.112Z</time>
      </trkpt>
      <trkpt lat="48.80036" lon="2.29916">
        <ele>152.7</ele>
        <time>2015-04-20T19:07:24.993Z</time>
      </trkpt>
      <trkpt lat="48.80031" lon="2.29912">
        <ele>152.8</ele>
        <time>2015-04-20T19:07:25.998Z</time>
      </trkpt>
      <trkpt lat="48.80026" lon="2.29908">
        <ele>152.8</ele>
        <time>2015-04-20T19:07:27.043Z</time>
      </trkpt>
      <trkpt lat="48.80022" lon="2.29904">
        <ele>152.9</ele>
        <time>2015-04-20T19:07:28.046Z</time>
      </trkpt>
      <trkpt lat="48.80018" lon="2.299">
        <ele>153.3</ele>
        <time>2015-04-20T19:07:29.068Z</time>
      </trkpt>
      <trkpt lat="48.80013" lon="2.29897">
        <ele>152.8</ele>
        <time>2015-04-20T19:07:30.071Z</time>
      </trkpt>
      <trkpt lat="48.80005" lon="2.29891">
        <ele>154</ele>
        <time>2015-04-20T19:07:32.085Z</time>
      </trkpt>
      <trkpt lat="48.8" lon="2.29889">
        <ele>154.3</ele>
        <time>2015-04-20T19:07:33.258Z</time>
      </trkpt>
      <trkpt lat="48.79996" lon="2.29885">
        <ele>154.3</ele>
        <time>2015-04-20T19:07:34.078Z</time>
      </trkpt>
      <trkpt lat="48.79992" lon="2.29883">
        <ele>155.4</ele>
        <time>2015-04-20T19:07:35.113Z</time>
      </trkpt>
      <trkpt lat="48.79985" lon="2.29875">
        <ele>156.5</ele>
        <time>2015-04-20T19:07:37.038Z</time>
      </trkpt>
      <trkpt lat="48.79981" lon="2.29871">
        <ele>156.4</ele>
        <time>2015-04-20T19:07:38.045Z</time>
      </trkpt>
      <trkpt lat="48.79977" lon="2.29868">
        <ele>156.8</ele>
        <time>2015-04-20T19:07:39.120Z</time>
      </trkpt>
      <trkpt lat="48.79973" lon="2.29865">
        <ele>157.3</ele>
        <time>2015-04-20T19:07:40.150Z</time>
      </trkpt>
      <trkpt lat="48.79965" lon="2.29858">
        <ele>159.1</ele>
        <time>2015-04-20T19:07:42.016Z</time>
      </trkpt>
      <trkpt lat="48.79962" lon="2.29854">
        <ele>159.1</ele>
        <time>2015-04-20T19:07:43.032Z</time>
      </trkpt>
      <trkpt lat="48.79955" lon="2.29847">
        <ele>159.3</ele>
        <time>2015-04-20T19:07:45.078Z</time>
      </trkpt>
      <trkpt lat="48.79951" lon="2.29844">
        <ele>159.1</ele>
        <time>2015-04-20T19:07:46.094Z</time>
      </trkpt>
      <trkpt lat="48.79944" lon="2.29838">
        <ele>159.4</ele>
        <time>2015-04-20T19:07:48.014Z</time>
      </trkpt>
      <trkpt lat="48.7994" lon="2.29836">
        <ele>160.5</ele>
        <time>2015-04-20T19:07:49.014Z</time>
      </trkpt>
      <trkpt lat="48.79934" lon="2.2983">
        <ele>161.1</ele>
        <time>2015-04-20T19:07:51.093Z</time>
      </trkpt>
      <trkpt lat="48.79931" lon="2.29827">
        <ele>161.6</ele>
        <time>2015-04-20T19:07:52.103Z</time>
      </trkpt>
      <trkpt lat="48.79925" lon="2.29821">
        <ele>161.8</ele>
        <time>2015-04-20T19:07:54.061Z</time>
      </trkpt>
      <trkpt lat="48.79922" lon="2.29817">
        <ele>162.4</ele>
        <time>2015-04-20T19:07:55.012Z</time>
      </trkpt>
      <trkpt lat="48.79916" lon="2.2981">
        <ele>163.6</ele>
        <time>2015-04-20T19:07:57.063Z</time>
      </trkpt>
      <trkpt lat="48.79913" lon="2.29806">
        <ele>163.8</ele>
        <time>2015-04-20T19:07:58.080Z</time>
      </trkpt>
      <trkpt lat="48.79907" lon="2.29798">
        <ele>163.1</ele>
        <time>2015-04-20T19:08:00.274Z</time>
      </trkpt>
      <trkpt lat="48.79902" lon="2.29794">
        <ele>162.4</ele>
        <time>2015-04-20T19:08:01.130Z</time>
      </trkpt>
      <trkpt lat="48.79895" lon="2.29788">
        <ele>162.7</ele>
        <time>2015-04-20T19:08:03.098Z</time>
      </trkpt>
      <trkpt lat="48.79892" lon="2.29785">
        <ele>162.7</ele>
        <time>2015-04-20T19:08:04.009Z</time>
      </trkpt>
      <trkpt lat="48.79885" lon="2.29778">
        <ele>162</ele>
        <time>2015-04-20T19:08:06.347Z</time>
      </trkpt>
      <trkpt lat="48.79881" lon="2.29775">
        <ele>162</ele>
        <time>2015-04-20T19:08:07.063Z</time>
      </trkpt>
      <trkpt lat="48.79874" lon="2.29768">
        <ele>161.7</ele>
        <time>2015-04-20T19:08:09.141Z</time>
      </trkpt>
      <trkpt lat="48.7987" lon="2.29765">
        <ele>161.3</ele>
        <time>2015-04-20T19:08:10.049Z</time>
      </trkpt>
      <trkpt lat="48.79863" lon="2.29759">
        <ele>161.2</ele>
        <time>2015-04-20T19:08:12.056Z</time>
      </trkpt>
      <trkpt lat="48.7986" lon="2.29756">
        <ele>161</ele>
        <time>2015-04-20T19:08:13.052Z</time>
      </trkpt>
      <trkpt lat="48.79852" lon="2.29752">
        <ele>161.3</ele>
        <time>2015-04-20T19:08:15.100Z</time>
      </trkpt>
      <trkpt lat="48.79848" lon="2.2975">
        <ele>162.8</ele>
        <time>2015-04-20T19:08:16.116Z</time>
      </trkpt>
      <trkpt lat="48.7984" lon="2.29745">
        <ele>163.4</ele>
        <time>2015-04-20T19:08:18.011Z</time>
      </trkpt>
      <trkpt lat="48.79836" lon="2.29741">
        <ele>163.3</ele>
        <time>2015-04-20T19:08:19.046Z</time>
      </trkpt>
      <trkpt lat="48.79829" lon="2.29734">
        <ele>163.1</ele>
        <time>2015-04-20T19:08:21.755Z</time>
      </trkpt>
      <trkpt lat="48.79825" lon="2.29731">
        <ele>162.9</ele>
        <time>2015-04-20T19:08:22.108Z</time>
      </trkpt>
      <trkpt lat="48.79817" lon="2.29726">
        <ele>163</ele>
        <time>2015-04-20T19:08:24.083Z</time>
      </trkpt>
      <trkpt lat="48.79814" lon="2.29723">
        <ele>163.2</ele>
        <time>2015-04-20T19:08:25.084Z</time>
      </trkpt>
      <trkpt lat="48.79808" lon="2.29718">
        <ele>163.2</ele>
        <time>2015-04-20T19:08:27.056Z</time>
      </trkpt>
      <trkpt lat="48.79804" lon="2.29715">
        <ele>163.1</ele>
        <time>2015-04-20T19:08:28.056Z</time>
      </trkpt>
      <trkpt lat="48.79797" lon="2.29711">
        <ele>162.8</ele>
        <time>2015-04-20T19:08:30.080Z</time>
      </trkpt>
      <trkpt lat="48.79794" lon="2.2971">
        <ele>162.7</ele>
        <time>2015-04-20T19:08:31.093Z</time>
      </trkpt>
      <trkpt lat="48.79786" lon="2.29705">
        <ele>163.3</ele>
        <time>2015-04-20T19:08:34.927Z</time>
      </trkpt>
      <trkpt lat="48.79784" lon="2.29704">
        <ele>163.3</ele>
        <time>2015-04-20T19:08:35.029Z</time>
      </trkpt>
      <trkpt lat="48.79776" lon="2.29699">
        <ele>162.5</ele>
        <time>2015-04-20T19:08:47.027Z</time>
      </trkpt>
      <trkpt lat="48.79771" lon="2.29688">
        <ele>160.5</ele>
        <time>2015-04-20T19:08:48.072Z</time>
      </trkpt>
      <trkpt lat="48.79775" lon="2.29696">
        <ele>156.2</ele>
        <time>2015-04-20T19:09:16.465Z</time>
      </trkpt>
      <trkpt lat="48.79778" lon="2.29698">
        <ele>155.9</ele>
        <time>2015-04-20T19:09:17.046Z</time>
      </trkpt>
      <trkpt lat="48.79784" lon="2.29702">
        <ele>155.4</ele>
        <time>2015-04-20T19:09:19.019Z</time>
      </trkpt>
      <trkpt lat="48.79788" lon="2.29704">
        <ele>155.3</ele>
        <time>2015-04-20T19:09:20.025Z</time>
      </trkpt>
      <trkpt lat="48.79795" lon="2.29708">
        <ele>155.4</ele>
        <time>2015-04-20T19:09:22.039Z</time>
      </trkpt>
      <trkpt lat="48.79797" lon="2.2971">
        <ele>155.3</ele>
        <time>2015-04-20T19:09:23.096Z</time>
      </trkpt>
      <trkpt lat="48.79802" lon="2.29715">
        <ele>154.9</ele>
        <time>2015-04-20T19:09:25.028Z</time>
      </trkpt>
      <trkpt lat="48.79805" lon="2.29717">
        <ele>154.6</ele>
        <time>2015-04-20T19:09:26.043Z</time>
      </trkpt>
      <trkpt lat="48.79812" lon="2.29721">
        <ele>154.4</ele>
        <time>2015-04-20T19:09:28.033Z</time>
      </trkpt>
      <trkpt lat="48.79814" lon="2.29722">
        <ele>153.9</ele>
        <time>2015-04-20T19:09:29.044Z</time>
      </trkpt>
      <trkpt lat="48.79812" lon="2.29727">
        <ele>152.5</ele>
        <time>2015-04-20T19:09:41.085Z</time>
      </trkpt>
      <trkpt lat="48.79808" lon="2.29736">
        <ele>151.4</ele>
        <time>2015-04-20T19:09:42.094Z</time>
      </trkpt>
      <trkpt lat="48.79802" lon="2.29745">
        <ele>151.4</ele>
        <time>2015-04-20T19:09:52.989Z</time>
      </trkpt>
      <trkpt lat="48.79797" lon="2.29755">
        <ele>151</ele>
        <time>2015-04-20T19:09:54.024Z</time>
      </trkpt>
      <trkpt lat="48.79793" lon="2.29761">
        <ele>151.3</ele>
        <time>2015-04-20T19:10:01.042Z</time>
      </trkpt>
      <trkpt lat="48.7979" lon="2.29772">
        <ele>150.4</ele>
        <time>2015-04-20T19:10:02.053Z</time>
      </trkpt>
      <trkpt lat="48.79786" lon="2.29783">
        <ele>151.1</ele>
        <time>2015-04-20T19:10:02.956Z</time>
      </trkpt>
      <trkpt lat="48.79785" lon="2.29787">
        <ele>151.6</ele>
        <time>2015-04-20T19:10:06.024Z</time>
      </trkpt>
      <trkpt lat="48.79783" lon="2.29798">
        <ele>152.3</ele>
        <time>2015-04-20T19:10:09.123Z</time>
      </trkpt>
      <trkpt lat="48.79783" lon="2.29802">
        <ele>152.4</ele>
        <time>2015-04-20T19:10:10.024Z</time>
      </trkpt>
      <trkpt lat="48.79782" lon="2.29814">
        <ele>152</ele>
        <time>2015-04-20T19:10:13.093Z</time>
      </trkpt>
      <trkpt lat="48.79781" lon="2.29819">
        <ele>152.2</ele>
        <time>2015-04-20T19:10:14.005Z</time>
      </trkpt>
      <trkpt lat="48.79779" lon="2.29827">
        <ele>152.6</ele>
        <time>2015-04-20T19:10:16.094Z</time>
      </trkpt>
      <trkpt lat="48.79777" lon="2.29831">
        <ele>152.7</ele>
        <time>2015-04-20T19:10:17.006Z</time>
      </trkpt>
      <trkpt lat="48.79771" lon="2.29837">
        <ele>152.9</ele>
        <time>2015-04-20T19:10:19.019Z</time>
      </trkpt>
      <trkpt lat="48.79769" lon="2.2984">
        <ele>152.9</ele>
        <time>2015-04-20T19:10:20.042Z</time>
      </trkpt>
      <trkpt lat="48.79762" lon="2.29844">
        <ele>152.9</ele>
        <time>2015-04-20T19:10:23.992Z</time>
      </trkpt>
      <trkpt lat="48.7976" lon="2.29845">
        <ele>153</ele>
        <time>2015-04-20T19:10:25.109Z</time>
      </trkpt>
      <trkpt lat="48.79752" lon="2.29843">
        <ele>154.1</ele>
        <time>2015-04-20T19:10:29.841Z</time>
      </trkpt>
      <trkpt lat="48.7975" lon="2.29842">
        <ele>154.5</ele>
        <time>2015-04-20T19:10:30.046Z</time>
      </trkpt>
      <trkpt lat="48.79742" lon="2.29841">
        <ele>155.8</ele>
        <time>2015-04-20T19:10:33.151Z</time>
      </trkpt>
      <trkpt lat="48.7974" lon="2.29841">
        <ele>156</ele>
        <time>2015-04-20T19:10:34.021Z</time>
      </trkpt>
      <trkpt lat="48.79733" lon="2.29843">
        <ele>157.1</ele>
        <time>2015-04-20T19:10:36.050Z</time>
      </trkpt>
      <trkpt lat="48.79728" lon="2.29843">
        <ele>158.2</ele>
        <time>2015-04-20T19:10:37.052Z</time>
      </trkpt>
      <trkpt lat="48.79728" lon="2.29832">
        <ele>158.2</ele>
        <time>2015-04-20T19:10:39.984Z</time>
      </trkpt>
      <trkpt lat="48.79732" lon="2.29826">
        <ele>157.4</ele>
        <time>2015-04-20T19:10:41.037Z</time>
      </trkpt>
      <trkpt lat="48.79735" lon="2.2982">
        <ele>156.5</ele>
        <time>2015-04-20T19:10:42.048Z</time>
      </trkpt>
      <trkpt lat="48.79738" lon="2.29814">
        <ele>156.2</ele>
        <time>2015-04-20T19:10:43.093Z</time>
      </trkpt>
      <trkpt lat="48.79741" lon="2.29808">
        <ele>156</ele>
        <time>2015-04-20T19:10:45.049Z</time>
      </trkpt>
      <trkpt lat="48.79744" lon="2.29802">
        <ele>155.9</ele>
        <time>2015-04-20T19:10:45.137Z</time>
      </trkpt>
      <trkpt lat="48.79746" lon="2.29796">
        <ele>155.8</ele>
        <time>2015-04-20T19:10:46.083Z</time>
      </trkpt>
      <trkpt lat="48.79749" lon="2.29791">
        <ele>155.7</ele>
        <time>2015-04-20T19:10:47.100Z</time>
      </trkpt>
      <trkpt lat="48.79753" lon="2.2978">
        <ele>155.5</ele>
        <time>2015-04-20T19:10:49.043Z</time>
      </trkpt>
      <trkpt lat="48.79755" lon="2.29774">
        <ele>155.4</ele>
        <time>2015-04-20T19:10:50.057Z</time>
      </trkpt>
      <trkpt lat="48.79759" lon="2.29766">
        <ele>155</ele>
        <time>2015-04-20T19:10:51.032Z</time>
      </trkpt>
      <trkpt lat="48.79762" lon="2.29758">
        <ele>155.4</ele>
        <time>2015-04-20T19:10:52.003Z</time>
      </trkpt>
      <trkpt lat="48.79764" lon="2.29751">
        <ele>155.6</ele>
        <time>2015-04-20T19:10:52.988Z</time>
      </trkpt>
      <trkpt lat="48.79766" lon="2.29743">
        <ele>155.9</ele>
        <time>2015-04-20T19:10:54.001Z</time>
      </trkpt>
      <trkpt lat="48.79769" lon="2.29736">
        <ele>156.1</ele>
        <time>2015-04-20T19:10:55.137Z</time>
      </trkpt>
      <trkpt lat="48.79771" lon="2.29729">
        <ele>156</ele>
        <time>2015-04-20T19:10:56.049Z</time>
      </trkpt>
      <trkpt lat="48.79773" lon="2.29722">
        <ele>155.9</ele>
        <time>2015-04-20T19:10:57.129Z</time>
      </trkpt>
      <trkpt lat="48.79774" lon="2.29715">
        <ele>155.8</ele>
        <time>2015-04-20T19:10:58.023Z</time>
      </trkpt>
      <trkpt lat="48.79777" lon="2.29703">
        <ele>155.5</ele>
        <time>2015-04-20T19:11:00.047Z</time>
      </trkpt>
      <trkpt lat="48.79777" lon="2.29696">
        <ele>155.6</ele>
        <time>2015-04-20T19:11:01.017Z</time>
      </trkpt>
      <trkpt lat="48.79773" lon="2.29686">
        <ele>155.2</ele>
        <time>2015-04-20T19:11:03.135Z</time>
      </trkpt>
      <trkpt lat="48.79769" lon="2.29681">
        <ele>154.9</ele>
        <time>2015-04-20T19:11:04.033Z</time>
      </trkpt>
      <trkpt lat="48.79764" lon="2.29676">
        <ele>154.3</ele>
        <time>2015-04-20T19:11:06.052Z</time>
      </trkpt>
      <trkpt lat="48.79761" lon="2.29671">
        <ele>154.6</ele>
        <time>2015-04-20T19:11:07.060Z</time>
      </trkpt>
      <trkpt lat="48.79755" lon="2.29664">
        <ele>154.6</ele>
        <time>2015-04-20T19:11:09.094Z</time>
      </trkpt>
      <trkpt lat="48.79751" lon="2.29661">
        <ele>154.5</ele>
        <time>2015-04-20T19:11:10.135Z</time>
      </trkpt>
      <trkpt lat="48.79745" lon="2.29653">
        <ele>153.5</ele>
        <time>2015-04-20T19:11:12.016Z</time>
      </trkpt>
      <trkpt lat="48.79743" lon="2.29649">
        <ele>153.4</ele>
        <time>2015-04-20T19:11:13.019Z</time>
      </trkpt>
      <trkpt lat="48.79739" lon="2.2964">
        <ele>153.5</ele>
        <time>2015-04-20T19:11:15.088Z</time>
      </trkpt>
      <trkpt lat="48.79737" lon="2.29636">
        <ele>153.6</ele>
        <time>2015-04-20T19:11:16.115Z</time>
      </trkpt>
      <trkpt lat="48.79732" lon="2.29629">
        <ele>153.8</ele>
        <time>2015-04-20T19:11:18.028Z</time>
      </trkpt>
      <trkpt lat="48.79729" lon="2.29626">
        <ele>153.8</ele>
        <time>2015-04-20T19:11:19.044Z</time>
      </trkpt>
      <trkpt lat="48.79723" lon="2.2962">
        <ele>153.9</ele>
        <time>2015-04-20T19:11:21.065Z</time>
      </trkpt>
      <trkpt lat="48.7972" lon="2.29617">
        <ele>154</ele>
        <time>2015-04-20T19:11:22.045Z</time>
      </trkpt>
      <trkpt lat="48.79712" lon="2.29611">
        <ele>153.8</ele>
        <time>2015-04-20T19:11:24.024Z</time>
      </trkpt>
      <trkpt lat="48.79709" lon="2.29608">
        <ele>153.8</ele>
        <time>2015-04-20T19:11:25.019Z</time>
      </trkpt>
      <trkpt lat="48.79701" lon="2.29602">
        <ele>153.8</ele>
        <time>2015-04-20T19:11:27.139Z</time>
      </trkpt>
      <trkpt lat="48.79697" lon="2.29598">
        <ele>153.6</ele>
        <time>2015-04-20T19:11:27.993Z</time>
      </trkpt>
      <trkpt lat="48.79691" lon="2.2959">
        <ele>153.4</ele>
        <time>2015-04-20T19:11:29.993Z</time>
      </trkpt>
      <trkpt lat="48.79688" lon="2.29585">
        <ele>153.6</ele>
        <time>2015-04-20T19:11:31.021Z</time>
      </trkpt>
      <trkpt lat="48.79684" lon="2.29582">
        <ele>153.7</ele>
        <time>2015-04-20T19:11:32.059Z</time>
      </trkpt>
      <trkpt lat="48.7968" lon="2.29578">
        <ele>153.6</ele>
        <time>2015-04-20T19:11:33.089Z</time>
      </trkpt>
      <trkpt lat="48.79676" lon="2.29574">
        <ele>153.6</ele>
        <time>2015-04-20T19:11:34.839Z</time>
      </trkpt>
      <trkpt lat="48.79671" lon="2.29571">
        <ele>153.5</ele>
        <time>2015-04-20T19:11:34.996Z</time>
      </trkpt>
      <trkpt lat="48.79663" lon="2.29565">
        <ele>154.2</ele>
        <time>2015-04-20T19:11:37.081Z</time>
      </trkpt>
      <trkpt lat="48.79659" lon="2.29561">
        <ele>154.4</ele>
        <time>2015-04-20T19:11:38.005Z</time>
      </trkpt>
      <trkpt lat="48.79651" lon="2.29556">
        <ele>154.8</ele>
        <time>2015-04-20T19:11:39.993Z</time>
      </trkpt>
      <trkpt lat="48.79647" lon="2.29554">
        <ele>155.2</ele>
        <time>2015-04-20T19:11:41.032Z</time>
      </trkpt>
      <trkpt lat="48.79641" lon="2.29549">
        <ele>155.8</ele>
        <time>2015-04-20T19:11:43.071Z</time>
      </trkpt>
      <trkpt lat="48.79639" lon="2.29546">
        <ele>155.8</ele>
        <time>2015-04-20T19:11:44.115Z</time>
      </trkpt>
      <trkpt lat="48.79634" lon="2.2954">
        <ele>155.6</ele>
        <time>2015-04-20T19:11:46.034Z</time>
      </trkpt>
      <trkpt lat="48.79631" lon="2.29537">
        <ele>155.1</ele>
        <time>2015-04-20T19:11:47.048Z</time>
      </trkpt>
      <trkpt lat="48.79624" lon="2.29531">
        <ele>154.7</ele>
        <time>2015-04-20T19:11:53.038Z</time>
      </trkpt>
      <trkpt lat="48.79619" lon="2.29526">
        <ele>155.1</ele>
        <time>2015-04-20T19:11:54.047Z</time>
      </trkpt>
      <trkpt lat="48.79613" lon="2.29517">
        <ele>155.1</ele>
        <time>2015-04-20T19:11:58.032Z</time>
      </trkpt>
      <trkpt lat="48.79611" lon="2.29515">
        <ele>155.2</ele>
        <time>2015-04-20T19:11:59.078Z</time>
      </trkpt>
      <trkpt lat="48.79605" lon="2.29505">
        <ele>155.6</ele>
        <time>2015-04-20T19:12:02.033Z</time>
      </trkpt>
      <trkpt lat="48.79603" lon="2.29501">
        <ele>155.7</ele>
        <time>2015-04-20T19:12:03.143Z</time>
      </trkpt>
      <trkpt lat="48.79599" lon="2.29496">
        <ele>155.5</ele>
        <time>2015-04-20T19:12:04.029Z</time>
      </trkpt>
      <trkpt lat="48.79594" lon="2.29492">
        <ele>155.5</ele>
        <time>2015-04-20T19:12:05.045Z</time>
      </trkpt>
      <trkpt lat="48.79589" lon="2.29488">
        <ele>155.5</ele>
        <time>2015-04-20T19:12:06.057Z</time>
      </trkpt>
      <trkpt lat="48.79586" lon="2.29485">
        <ele>155.5</ele>
        <time>2015-04-20T19:12:07.080Z</time>
      </trkpt>
      <trkpt lat="48.79583" lon="2.29481">
        <ele>155.3</ele>
        <time>2015-04-20T19:12:08.096Z</time>
      </trkpt>
      <trkpt lat="48.79576" lon="2.29473">
        <ele>155.3</ele>
        <time>2015-04-20T19:12:09.991Z</time>
      </trkpt>
      <trkpt lat="48.79576" lon="2.29473">
        <ele>155.3</ele>
        <time>2015-04-20T19:12:10.706Z</time>
      </trkpt>
      <trkpt lat="48.79567" lon="2.29467">
        <ele>155.2</ele>
        <time>2015-04-20T19:12:11.986Z</time>
      </trkpt>
      <trkpt lat="48.79562" lon="2.29463">
        <ele>155</ele>
        <time>2015-04-20T19:12:13.094Z</time>
      </trkpt>
      <trkpt lat="48.79557" lon="2.29462">
        <ele>155.1</ele>
        <time>2015-04-20T19:12:14.016Z</time>
      </trkpt>
      <trkpt lat="48.79552" lon="2.29461">
        <ele>155.1</ele>
        <time>2015-04-20T19:12:15.784Z</time>
      </trkpt>
      <trkpt lat="48.79548" lon="2.2946">
        <ele>155</ele>
        <time>2015-04-20T19:12:16.058Z</time>
      </trkpt>
      <trkpt lat="48.79543" lon="2.2946">
        <ele>154.9</ele>
        <time>2015-04-20T19:12:16.993Z</time>
      </trkpt>
      <trkpt lat="48.79539" lon="2.29462">
        <ele>154.9</ele>
        <time>2015-04-20T19:12:18.010Z</time>
      </trkpt>
      <trkpt lat="48.79531" lon="2.29467">
        <ele>154.9</ele>
        <time>2015-04-20T19:12:20.048Z</time>
      </trkpt>
      <trkpt lat="48.79527" lon="2.29468">
        <ele>154.8</ele>
        <time>2015-04-20T19:12:21.039Z</time>
      </trkpt>
      <trkpt lat="48.7952" lon="2.29469">
        <ele>154.8</ele>
        <time>2015-04-20T19:12:23.022Z</time>
      </trkpt>
      <trkpt lat="48.79516" lon="2.29467">
        <ele>154.7</ele>
        <time>2015-04-20T19:12:24.014Z</time>
      </trkpt>
      <trkpt lat="48.79509" lon="2.29465">
        <ele>154.9</ele>
        <time>2015-04-20T19:12:26.140Z</time>
      </trkpt>
      <trkpt lat="48.79506" lon="2.29463">
        <ele>155</ele>
        <time>2015-04-20T19:12:27.048Z</time>
      </trkpt>
      <trkpt lat="48.795" lon="2.2946">
        <ele>155.1</ele>
        <time>2015-04-20T19:12:29.062Z</time>
      </trkpt>
      <trkpt lat="48.79497" lon="2.29459">
        <ele>155.3</ele>
        <time>2015-04-20T19:12:30.077Z</time>
      </trkpt>
      <trkpt lat="48.79491" lon="2.29454">
        <ele>155.4</ele>
        <time>2015-04-20T19:12:32.025Z</time>
      </trkpt>
      <trkpt lat="48.79488" lon="2.29452">
        <ele>155.9</ele>
        <time>2015-04-20T19:12:33.187Z</time>
      </trkpt>
      <trkpt lat="48.79481" lon="2.29447">
        <ele>155.9</ele>
        <time>2015-04-20T19:12:35.030Z</time>
      </trkpt>
      <trkpt lat="48.79479" lon="2.29446">
        <ele>156</ele>
        <time>2015-04-20T19:12:35.981Z</time>
      </trkpt>
      <trkpt lat="48.79471" lon="2.29441">
        <ele>156.4</ele>
        <time>2015-04-20T19:12:39.113Z</time>
      </trkpt>
      <trkpt lat="48.79469" lon="2.29438">
        <ele>156.5</ele>
        <time>2015-04-20T19:12:40.037Z</time>
      </trkpt>
      <trkpt lat="48.79463" lon="2.2943">
        <ele>156.5</ele>
        <time>2015-04-20T19:12:42.052Z</time>
      </trkpt>
      <trkpt lat="48.7946" lon="2.29427">
        <ele>156.7</ele>
        <time>2015-04-20T19:12:43.140Z</time>
      </trkpt>
      <trkpt lat="48.79454" lon="2.29422">
        <ele>156.9</ele>
        <time>2015-04-20T19:12:45.052Z</time>
      </trkpt>
      <trkpt lat="48.79451" lon="2.2942">
        <ele>156.9</ele>
        <time>2015-04-20T19:12:45.982Z</time>
      </trkpt>
      <trkpt lat="48.79444" lon="2.29415">
        <ele>157.3</ele>
        <time>2015-04-20T19:12:49.044Z</time>
      </trkpt>
      <trkpt lat="48.79442" lon="2.29413">
        <ele>156.9</ele>
        <time>2015-04-20T19:12:50.053Z</time>
      </trkpt>
      <trkpt lat="48.79436" lon="2.29405">
        <ele>156.8</ele>
        <time>2015-04-20T19:12:53.112Z</time>
      </trkpt>
      <trkpt lat="48.79433" lon="2.29403">
        <ele>156.8</ele>
        <time>2015-04-20T19:12:54.038Z</time>
      </trkpt>
      <trkpt lat="48.79426" lon="2.29397">
        <ele>156.6</ele>
        <time>2015-04-20T19:12:56.011Z</time>
      </trkpt>
      <trkpt lat="48.79422" lon="2.29393">
        <ele>156.1</ele>
        <time>2015-04-20T19:12:57.080Z</time>
      </trkpt>
      <trkpt lat="48.79416" lon="2.29389">
        <ele>155.8</ele>
        <time>2015-04-20T19:12:59.044Z</time>
      </trkpt>
      <trkpt lat="48.79414" lon="2.29386">
        <ele>155.6</ele>
        <time>2015-04-20T19:13:00.126Z</time>
      </trkpt>
      <trkpt lat="48.79409" lon="2.2938">
        <ele>155.5</ele>
        <time>2015-04-20T19:13:02.043Z</time>
      </trkpt>
      <trkpt lat="48.79406" lon="2.29377">
        <ele>155.8</ele>
        <time>2015-04-20T19:13:03.069Z</time>
      </trkpt>
      <trkpt lat="48.79399" lon="2.29372">
        <ele>156.2</ele>
        <time>2015-04-20T19:13:06.020Z</time>
      </trkpt>
      <trkpt lat="48.79396" lon="2.29369">
        <ele>156</ele>
        <time>2015-04-20T19:13:07.028Z</time>
      </trkpt>
      <trkpt lat="48.7939" lon="2.2936">
        <ele>155.1</ele>
        <time>2015-04-20T19:13:10.028Z</time>
      </trkpt>
      <trkpt lat="48.79388" lon="2.29357">
        <ele>155</ele>
        <time>2015-04-20T19:13:11.034Z</time>
      </trkpt>
      <trkpt lat="48.79383" lon="2.29351">
        <ele>154.6</ele>
        <time>2015-04-20T19:13:13.103Z</time>
      </trkpt>
      <trkpt lat="48.79381" lon="2.29348">
        <ele>154.7</ele>
        <time>2015-04-20T19:13:14.031Z</time>
      </trkpt>
      <trkpt lat="48.79374" lon="2.2934">
        <ele>154.4</ele>
        <time>2015-04-20T19:13:17.070Z</time>
      </trkpt>
      <trkpt lat="48.79373" lon="2.29338">
        <ele>154</ele>
        <time>2015-04-20T19:13:18.079Z</time>
      </trkpt>
      <trkpt lat="48.79371" lon="2.29337">
        <ele>153.9</ele>
        <time>2015-04-20T19:14:42.991Z</time>
      </trkpt>
      <trkpt lat="48.79353" lon="2.29316">
        <ele>151.5</ele>
        <time>2015-04-20T19:14:44.068Z</time>
      </trkpt>
      <trkpt lat="48.79346" lon="2.29312">
        <ele>151</ele>
        <time>2015-04-20T19:14:47.036Z</time>
      </trkpt>
      <trkpt lat="48.79344" lon="2.2931">
        <ele>151.3</ele>
        <time>2015-04-20T19:14:48.049Z</time>
      </trkpt>
      <trkpt lat="48.79336" lon="2.29307">
        <ele>151.5</ele>
        <time>2015-04-20T19:14:51.147Z</time>
      </trkpt>
      <trkpt lat="48.79332" lon="2.29306">
        <ele>151.7</ele>
        <time>2015-04-20T19:14:51.993Z</time>
      </trkpt>
      <trkpt lat="48.79326" lon="2.29304">
        <ele>151.9</ele>
        <time>2015-04-20T19:14:54.040Z</time>
      </trkpt>
      <trkpt lat="48.79323" lon="2.29304">
        <ele>152.1</ele>
        <time>2015-04-20T19:14:55.034Z</time>
      </trkpt>
      <trkpt lat="48.79315" lon="2.29303">
        <ele>151.9</ele>
        <time>2015-04-20T19:14:57.058Z</time>
      </trkpt>
      <trkpt lat="48.79312" lon="2.29302">
        <ele>152</ele>
        <time>2015-04-20T19:14:58.078Z</time>
      </trkpt>
      <trkpt lat="48.79304" lon="2.293">
        <ele>152.4</ele>
        <time>2015-04-20T19:15:00.027Z</time>
      </trkpt>
      <trkpt lat="48.793" lon="2.29299">
        <ele>152.3</ele>
        <time>2015-04-20T19:15:01.012Z</time>
      </trkpt>
      <trkpt lat="48.79292" lon="2.29296">
        <ele>152.3</ele>
        <time>2015-04-20T19:15:03.129Z</time>
      </trkpt>
      <trkpt lat="48.79289" lon="2.29294">
        <ele>152.7</ele>
        <time>2015-04-20T19:15:03.992Z</time>
      </trkpt>
      <trkpt lat="48.79282" lon="2.29292">
        <ele>152.8</ele>
        <time>2015-04-20T19:15:06.039Z</time>
      </trkpt>
      <trkpt lat="48.79278" lon="2.29291">
        <ele>152.3</ele>
        <time>2015-04-20T19:15:07.047Z</time>
      </trkpt>
      <trkpt lat="48.7927" lon="2.29288">
        <ele>152.7</ele>
        <time>2015-04-20T19:15:10.014Z</time>
      </trkpt>
      <trkpt lat="48.79266" lon="2.29286">
        <ele>154.4</ele>
        <time>2015-04-20T19:15:11.024Z</time>
      </trkpt>
      <trkpt lat="48.7926" lon="2.29286">
        <ele>154.4</ele>
        <time>2015-04-20T19:15:13.053Z</time>
      </trkpt>
      <trkpt lat="48.79257" lon="2.29285">
        <ele>154.5</ele>
        <time>2015-04-20T19:15:14.058Z</time>
      </trkpt>
      <trkpt lat="48.7925" lon="2.2928">
        <ele>154.9</ele>
        <time>2015-04-20T19:15:17.030Z</time>
      </trkpt>
      <trkpt lat="48.79247" lon="2.29279">
        <ele>154.9</ele>
        <time>2015-04-20T19:15:18.089Z</time>
      </trkpt>
      <trkpt lat="48.79241" lon="2.29275">
        <ele>154.8</ele>
        <time>2015-04-20T19:15:20.039Z</time>
      </trkpt>
      <trkpt lat="48.79237" lon="2.29275">
        <ele>155</ele>
        <time>2015-04-20T19:15:21.069Z</time>
      </trkpt>
      <trkpt lat="48.79233" lon="2.29276">
        <ele>155.3</ele>
        <time>2015-04-20T19:15:22.082Z</time>
      </trkpt>
      <trkpt lat="48.79228" lon="2.29278">
        <ele>155.3</ele>
        <time>2015-04-20T19:15:23.031Z</time>
      </trkpt>
      <trkpt lat="48.79219" lon="2.29277">
        <ele>155</ele>
        <time>2015-04-20T19:15:25.058Z</time>
      </trkpt>
      <trkpt lat="48.79215" lon="2.29276">
        <ele>155.1</ele>
        <time>2015-04-20T19:15:26.012Z</time>
      </trkpt>
      <trkpt lat="48.79207" lon="2.29276">
        <ele>155.1</ele>
        <time>2015-04-20T19:15:28.250Z</time>
      </trkpt>
      <trkpt lat="48.79203" lon="2.29276">
        <ele>155.2</ele>
        <time>2015-04-20T19:15:29.011Z</time>
      </trkpt>
      <trkpt lat="48.79195" lon="2.29275">
        <ele>155.5</ele>
        <time>2015-04-20T19:15:31.087Z</time>
      </trkpt>
      <trkpt lat="48.79191" lon="2.29275">
        <ele>155.5</ele>
        <time>2015-04-20T19:15:32.085Z</time>
      </trkpt>
      <trkpt lat="48.79185" lon="2.29271">
        <ele>155.5</ele>
        <time>2015-04-20T19:15:34.026Z</time>
      </trkpt>
      <trkpt lat="48.79182" lon="2.2927">
        <ele>155.7</ele>
        <time>2015-04-20T19:15:35.039Z</time>
      </trkpt>
      <trkpt lat="48.79175" lon="2.29266">
        <ele>155.9</ele>
        <time>2015-04-20T19:15:37.093Z</time>
      </trkpt>
      <trkpt lat="48.79173" lon="2.29264">
        <ele>155.9</ele>
        <time>2015-04-20T19:15:38.018Z</time>
      </trkpt>
      <trkpt lat="48.79167" lon="2.29257">
        <ele>156.3</ele>
        <time>2015-04-20T19:15:41.066Z</time>
      </trkpt>
      <trkpt lat="48.79167" lon="2.29253">
        <ele>156.6</ele>
        <time>2015-04-20T19:15:42.074Z</time>
      </trkpt>
      <trkpt lat="48.79165" lon="2.29244">
        <ele>157.2</ele>
        <time>2015-04-20T19:15:44.013Z</time>
      </trkpt>
      <trkpt lat="48.79164" lon="2.2924">
        <ele>157.4</ele>
        <time>2015-04-20T19:15:45.032Z</time>
      </trkpt>
      <trkpt lat="48.79161" lon="2.29231">
        <ele>157.7</ele>
        <time>2015-04-20T19:15:46.993Z</time>
      </trkpt>
      <trkpt lat="48.79159" lon="2.29228">
        <ele>157.7</ele>
        <time>2015-04-20T19:15:48.013Z</time>
      </trkpt>
      <trkpt lat="48.79156" lon="2.2922">
        <ele>157.9</ele>
        <time>2015-04-20T19:15:50.041Z</time>
      </trkpt>
      <trkpt lat="48.79153" lon="2.29217">
        <ele>157.9</ele>
        <time>2015-04-20T19:15:51.035Z</time>
      </trkpt>
      <trkpt lat="48.79146" lon="2.29213">
        <ele>157.8</ele>
        <time>2015-04-20T19:15:53.051Z</time>
      </trkpt>
      <trkpt lat="48.79142" lon="2.29212">
        <ele>157.6</ele>
        <time>2015-04-20T19:15:54.054Z</time>
      </trkpt>
      <trkpt lat="48.79137" lon="2.29212">
        <ele>157.6</ele>
        <time>2015-04-20T19:15:54.955Z</time>
      </trkpt>
      <trkpt lat="48.7913" lon="2.2921">
        <ele>156.9</ele>
        <time>2015-04-20T19:15:55.995Z</time>
      </trkpt>
      <trkpt lat="48.79126" lon="2.29209">
        <ele>157</ele>
        <time>2015-04-20T19:15:57.131Z</time>
      </trkpt>
      <trkpt lat="48.79121" lon="2.29207">
        <ele>156.8</ele>
        <time>2015-04-20T19:15:58.077Z</time>
      </trkpt>
      <trkpt lat="48.79113" lon="2.29205">
        <ele>156.8</ele>
        <time>2015-04-20T19:16:00.058Z</time>
      </trkpt>
      <trkpt lat="48.79109" lon="2.29204">
        <ele>156.7</ele>
        <time>2015-04-20T19:16:01.067Z</time>
      </trkpt>
      <trkpt lat="48.79102" lon="2.29202">
        <ele>156.9</ele>
        <time>2015-04-20T19:16:03.111Z</time>
      </trkpt>
      <trkpt lat="48.79098" lon="2.29201">
        <ele>157.2</ele>
        <time>2015-04-20T19:16:04.015Z</time>
      </trkpt>
      <trkpt lat="48.79092" lon="2.29198">
        <ele>157.3</ele>
        <time>2015-04-20T19:16:06.343Z</time>
      </trkpt>
      <trkpt lat="48.79089" lon="2.29197">
        <ele>157.7</ele>
        <time>2015-04-20T19:16:07.030Z</time>
      </trkpt>
      <trkpt lat="48.79083" lon="2.29195">
        <ele>158.1</ele>
        <time>2015-04-20T19:16:09.069Z</time>
      </trkpt>
      <trkpt lat="48.7908" lon="2.29194">
        <ele>158.3</ele>
        <time>2015-04-20T19:16:10.070Z</time>
      </trkpt>
      <trkpt lat="48.79073" lon="2.29193">
        <ele>158.7</ele>
        <time>2015-04-20T19:16:12.025Z</time>
      </trkpt>
      <trkpt lat="48.79069" lon="2.29193">
        <ele>158.9</ele>
        <time>2015-04-20T19:16:13.022Z</time>
      </trkpt>
      <trkpt lat="48.79062" lon="2.29192">
        <ele>159.3</ele>
        <time>2015-04-20T19:16:15.089Z</time>
      </trkpt>
      <trkpt lat="48.7906" lon="2.29192">
        <ele>159.5</ele>
        <time>2015-04-20T19:16:16.019Z</time>
      </trkpt>
      <trkpt lat="48.79051" lon="2.2919">
        <ele>160.1</ele>
        <time>2015-04-20T19:16:19.065Z</time>
      </trkpt>
      <trkpt lat="48.79048" lon="2.29189">
        <ele>160.3</ele>
        <time>2015-04-20T19:16:20.080Z</time>
      </trkpt>
      <trkpt lat="48.7904" lon="2.29188">
        <ele>161.2</ele>
        <time>2015-04-20T19:16:27.035Z</time>
      </trkpt>
      <trkpt lat="48.79032" lon="2.29195">
        <ele>160.8</ele>
        <time>2015-04-20T19:16:28.051Z</time>
      </trkpt>
      <trkpt lat="48.79024" lon="2.29197">
        <ele>162.7</ele>
        <time>2015-04-20T19:16:32.030Z</time>
      </trkpt>
      <trkpt lat="48.79021" lon="2.29196">
        <ele>162.7</ele>
        <time>2015-04-20T19:16:33.095Z</time>
      </trkpt>
      <trkpt lat="48.79014" lon="2.29191">
        <ele>164.5</ele>
        <time>2015-04-20T19:16:37.026Z</time>
      </trkpt>
      <trkpt lat="48.79013" lon="2.2919">
        <ele>164.7</ele>
        <time>2015-04-20T19:16:38.001Z</time>
      </trkpt>
      <trkpt lat="48.79004" lon="2.29191">
        <ele>164.4</ele>
        <time>2015-04-20T19:16:42.038Z</time>
      </trkpt>
      <trkpt lat="48.79001" lon="2.29191">
        <ele>164.4</ele>
        <time>2015-04-20T19:16:43.072Z</time>
      </trkpt>
      <trkpt lat="48.78994" lon="2.29188">
        <ele>164.8</ele>
        <time>2015-04-20T19:16:45.975Z</time>
      </trkpt>
      <trkpt lat="48.78992" lon="2.29187">
        <ele>165.1</ele>
        <time>2015-04-20T19:16:47.078Z</time>
      </trkpt>
      <trkpt lat="48.78985" lon="2.29187">
        <ele>165.8</ele>
        <time>2015-04-20T19:16:50.042Z</time>
      </trkpt>
      <trkpt lat="48.78982" lon="2.29187">
        <ele>166.2</ele>
        <time>2015-04-20T19:16:51.049Z</time>
      </trkpt>
      <trkpt lat="48.78974" lon="2.29185">
        <ele>167.1</ele>
        <time>2015-04-20T19:16:55.069Z</time>
      </trkpt>
      <trkpt lat="48.78973" lon="2.29182">
        <ele>166.6</ele>
        <time>2015-04-20T19:16:56.023Z</time>
      </trkpt>
      <trkpt lat="48.78973" lon="2.2918">
        <ele>166.1</ele>
        <time>2015-04-20T19:16:57.047Z</time>
      </trkpt>
      <trkpt lat="48.78974" lon="2.29179">
        <ele>165.8</ele>
        <time>2015-04-20T19:17:03.085Z</time>
      </trkpt>
      <trkpt lat="48.78979" lon="2.29179">
        <ele>165.7</ele>
        <time>2015-04-20T19:17:04.072Z</time>
      </trkpt>
      <trkpt lat="48.78984" lon="2.29188">
        <ele>162.4</ele>
        <time>2015-04-20T19:17:59.029Z</time>
      </trkpt>
      <trkpt lat="48.78984" lon="2.29191">
        <ele>162.5</ele>
        <time>2015-04-20T19:18:00.241Z</time>
      </trkpt>
      <trkpt lat="48.78981" lon="2.29203">
        <ele>161</ele>
        <time>2015-04-20T19:18:03.179Z</time>
      </trkpt>
      <trkpt lat="48.7898" lon="2.29207">
        <ele>160.2</ele>
        <time>2015-04-20T19:18:04.033Z</time>
      </trkpt>
      <trkpt lat="48.78978" lon="2.29217">
        <ele>159.5</ele>
        <time>2015-04-20T19:18:06.022Z</time>
      </trkpt>
      <trkpt lat="48.78978" lon="2.29222">
        <ele>159.2</ele>
        <time>2015-04-20T19:18:07.031Z</time>
      </trkpt>
      <trkpt lat="48.78978" lon="2.29232">
        <ele>158.3</ele>
        <time>2015-04-20T19:18:09.082Z</time>
      </trkpt>
      <trkpt lat="48.78977" lon="2.29236">
        <ele>158</ele>
        <time>2015-04-20T19:18:10.053Z</time>
      </trkpt>
      <trkpt lat="48.78972" lon="2.29246">
        <ele>157.5</ele>
        <time>2015-04-20T19:18:13.159Z</time>
      </trkpt>
      <trkpt lat="48.78971" lon="2.2925">
        <ele>157.4</ele>
        <time>2015-04-20T19:18:14.032Z</time>
      </trkpt>
      <trkpt lat="48.78967" lon="2.29258">
        <ele>156.8</ele>
        <time>2015-04-20T19:18:16.014Z</time>
      </trkpt>
      <trkpt lat="48.78965" lon="2.29261">
        <ele>156.6</ele>
        <time>2015-04-20T19:18:17.033Z</time>
      </trkpt>
      <trkpt lat="48.7896" lon="2.29269">
        <ele>156.5</ele>
        <time>2015-04-20T19:18:19.016Z</time>
      </trkpt>
      <trkpt lat="48.78958" lon="2.29273">
        <ele>156.4</ele>
        <time>2015-04-20T19:18:20.041Z</time>
      </trkpt>
      <trkpt lat="48.78953" lon="2.2928">
        <ele>155.7</ele>
        <time>2015-04-20T19:18:22.017Z</time>
      </trkpt>
      <trkpt lat="48.78949" lon="2.29283">
        <ele>155.5</ele>
        <time>2015-04-20T19:18:23.042Z</time>
      </trkpt>
      <trkpt lat="48.78944" lon="2.29291">
        <ele>154.9</ele>
        <time>2015-04-20T19:18:25.001Z</time>
      </trkpt>
      <trkpt lat="48.78941" lon="2.29296">
        <ele>154.5</ele>
        <time>2015-04-20T19:18:26.034Z</time>
      </trkpt>
      <trkpt lat="48.78938" lon="2.29302">
        <ele>154</ele>
        <time>2015-04-20T19:18:27.060Z</time>
      </trkpt>
      <trkpt lat="48.78935" lon="2.29307">
        <ele>153.8</ele>
        <time>2015-04-20T19:18:28.068Z</time>
      </trkpt>
      <trkpt lat="48.78928" lon="2.29316">
        <ele>153.4</ele>
        <time>2015-04-20T19:18:30.017Z</time>
      </trkpt>
      <trkpt lat="48.78924" lon="2.2932">
        <ele>152.9</ele>
        <time>2015-04-20T19:18:31.039Z</time>
      </trkpt>
      <trkpt lat="48.78917" lon="2.29328">
        <ele>152.4</ele>
        <time>2015-04-20T19:18:33.075Z</time>
      </trkpt>
      <trkpt lat="48.78914" lon="2.29332">
        <ele>152.4</ele>
        <time>2015-04-20T19:18:34.103Z</time>
      </trkpt>
      <trkpt lat="48.78906" lon="2.29339">
        <ele>152.3</ele>
        <time>2015-04-20T19:18:36.012Z</time>
      </trkpt>
      <trkpt lat="48.78902" lon="2.29341">
        <ele>152.1</ele>
        <time>2015-04-20T19:18:37.038Z</time>
      </trkpt>
      <trkpt lat="48.78897" lon="2.29344">
        <ele>151.9</ele>
        <time>2015-04-20T19:18:38.106Z</time>
      </trkpt>
      <trkpt lat="48.78893" lon="2.29347">
        <ele>151.7</ele>
        <time>2015-04-20T19:18:39.121Z</time>
      </trkpt>
      <trkpt lat="48.7889" lon="2.29352">
        <ele>151.6</ele>
        <time>2015-04-20T19:18:39.997Z</time>
      </trkpt>
      <trkpt lat="48.78885" lon="2.29358">
        <ele>151.3</ele>
        <time>2015-04-20T19:18:41.008Z</time>
      </trkpt>
      <trkpt lat="48.78881" lon="2.29369">
        <ele>150.9</ele>
        <time>2015-04-20T19:18:43.037Z</time>
      </trkpt>
      <trkpt lat="48.7888" lon="2.29373">
        <ele>150.2</ele>
        <time>2015-04-20T19:18:44.054Z</time>
      </trkpt>
      <trkpt lat="48.78879" lon="2.29383">
        <ele>149.7</ele>
        <time>2015-04-20T19:18:45.982Z</time>
      </trkpt>
      <trkpt lat="48.78879" lon="2.29389">
        <ele>149.4</ele>
        <time>2015-04-20T19:18:47.037Z</time>
      </trkpt>
      <trkpt lat="48.78879" lon="2.294">
        <ele>149.1</ele>
        <time>2015-04-20T19:18:49.103Z</time>
      </trkpt>
      <trkpt lat="48.78878" lon="2.29405">
        <ele>149.1</ele>
        <time>2015-04-20T19:18:50.077Z</time>
      </trkpt>
      <trkpt lat="48.78876" lon="2.29414">
        <ele>149</ele>
        <time>2015-04-20T19:18:52.089Z</time>
      </trkpt>
      <trkpt lat="48.78875" lon="2.29419">
        <ele>149</ele>
        <time>2015-04-20T19:18:53.033Z</time>
      </trkpt>
      <trkpt lat="48.78872" lon="2.29428">
        <ele>148.9</ele>
        <time>2015-04-20T19:18:55.064Z</time>
      </trkpt>
      <trkpt lat="48.78871" lon="2.29434">
        <ele>148.8</ele>
        <time>2015-04-20T19:18:56.205Z</time>
      </trkpt>
      <trkpt lat="48.78869" lon="2.29445">
        <ele>149</ele>
        <time>2015-04-20T19:18:58.067Z</time>
      </trkpt>
      <trkpt lat="48.78868" lon="2.29451">
        <ele>149.1</ele>
        <time>2015-04-20T19:18:59.088Z</time>
      </trkpt>
      <trkpt lat="48.78866" lon="2.29463">
        <ele>149.3</ele>
        <time>2015-04-20T19:19:01.031Z</time>
      </trkpt>
      <trkpt lat="48.78866" lon="2.29471">
        <ele>149.1</ele>
        <time>2015-04-20T19:19:02.054Z</time>
      </trkpt>
      <trkpt lat="48.78865" lon="2.29478">
        <ele>149.1</ele>
        <time>2015-04-20T19:19:03.102Z</time>
      </trkpt>
      <trkpt lat="48.78865" lon="2.29486">
        <ele>149</ele>
        <time>2015-04-20T19:19:04.014Z</time>
      </trkpt>
      <trkpt lat="48.78864" lon="2.29493">
        <ele>148.9</ele>
        <time>2015-04-20T19:19:05.030Z</time>
      </trkpt>
      <trkpt lat="48.78864" lon="2.295">
        <ele>148.8</ele>
        <time>2015-04-20T19:19:06.031Z</time>
      </trkpt>
      <trkpt lat="48.78864" lon="2.29507">
        <ele>148.5</ele>
        <time>2015-04-20T19:19:07.049Z</time>
      </trkpt>
      <trkpt lat="48.78864" lon="2.29514">
        <ele>148.1</ele>
        <time>2015-04-20T19:19:08.053Z</time>
      </trkpt>
      <trkpt lat="48.78864" lon="2.29526">
        <ele>147.4</ele>
        <time>2015-04-20T19:19:10.102Z</time>
      </trkpt>
      <trkpt lat="48.78863" lon="2.2953">
        <ele>147.1</ele>
        <time>2015-04-20T19:19:11.025Z</time>
      </trkpt>
      <trkpt lat="48.78861" lon="2.29541">
        <ele>146.3</ele>
        <time>2015-04-20T19:19:15.207Z</time>
      </trkpt>
      <trkpt lat="48.7886" lon="2.29544">
        <ele>146</ele>
        <time>2015-04-20T19:19:15.985Z</time>
      </trkpt>
      <trkpt lat="48.78858" lon="2.29555">
        <ele>145</ele>
        <time>2015-04-20T19:19:20.037Z</time>
      </trkpt>
      <trkpt lat="48.78857" lon="2.29557">
        <ele>145</ele>
        <time>2015-04-20T19:19:21.052Z</time>
      </trkpt>
      <trkpt lat="48.78855" lon="2.29567">
        <ele>143.8</ele>
        <time>2015-04-20T19:19:25.014Z</time>
      </trkpt>
      <trkpt lat="48.78854" lon="2.2957">
        <ele>143.8</ele>
        <time>2015-04-20T19:19:26.094Z</time>
      </trkpt>
      <trkpt lat="48.78851" lon="2.29583">
        <ele>143.1</ele>
        <time>2015-04-20T19:19:30.040Z</time>
      </trkpt>
      <trkpt lat="48.7885" lon="2.29587">
        <ele>143</ele>
        <time>2015-04-20T19:19:31.047Z</time>
      </trkpt>
      <trkpt lat="48.7885" lon="2.29598">
        <ele>142.3</ele>
        <time>2015-04-20T19:19:34.021Z</time>
      </trkpt>
      <trkpt lat="48.78849" lon="2.29601">
        <ele>142</ele>
        <time>2015-04-20T19:19:35.035Z</time>
      </trkpt>
      <trkpt lat="48.78845" lon="2.2961">
        <ele>141.3</ele>
        <time>2015-04-20T19:19:38.058Z</time>
      </trkpt>
      <trkpt lat="48.78844" lon="2.29614">
        <ele>141</ele>
        <time>2015-04-20T19:19:39.060Z</time>
      </trkpt>
      <trkpt lat="48.78841" lon="2.29624">
        <ele>140.9</ele>
        <time>2015-04-20T19:19:42.011Z</time>
      </trkpt>
      <trkpt lat="48.7884" lon="2.29627">
        <ele>141</ele>
        <time>2015-04-20T19:19:43.026Z</time>
      </trkpt>
      <trkpt lat="48.78835" lon="2.29637">
        <ele>140.4</ele>
        <time>2015-04-20T19:19:46.073Z</time>
      </trkpt>
      <trkpt lat="48.78833" lon="2.2964">
        <ele>140.1</ele>
        <time>2015-04-20T19:19:47.066Z</time>
      </trkpt>
      <trkpt lat="48.7883" lon="2.29651">
        <ele>139.9</ele>
        <time>2015-04-20T19:19:50.064Z</time>
      </trkpt>
      <trkpt lat="48.78828" lon="2.29655">
        <ele>139.9</ele>
        <time>2015-04-20T19:19:51.083Z</time>
      </trkpt>
      <trkpt lat="48.78822" lon="2.29664">
        <ele>140</ele>
        <time>2015-04-20T19:19:54.021Z</time>
      </trkpt>
      <trkpt lat="48.78821" lon="2.29668">
        <ele>139.8</ele>
        <time>2015-04-20T19:19:55.068Z</time>
      </trkpt>
      <trkpt lat="48.78816" lon="2.29679">
        <ele>140.5</ele>
        <time>2015-04-20T19:19:58.004Z</time>
      </trkpt>
      <trkpt lat="48.78814" lon="2.29683">
        <ele>140.6</ele>
        <time>2015-04-20T19:19:59.019Z</time>
      </trkpt>
      <trkpt lat="48.7881" lon="2.2969">
        <ele>140.4</ele>
        <time>2015-04-20T19:20:01.060Z</time>
      </trkpt>
      <trkpt lat="48.78808" lon="2.29695">
        <ele>140.4</ele>
        <time>2015-04-20T19:20:02.074Z</time>
      </trkpt>
      <trkpt lat="48.78802" lon="2.29703">
        <ele>139.6</ele>
        <time>2015-04-20T19:20:04.989Z</time>
      </trkpt>
      <trkpt lat="48.78799" lon="2.29705">
        <ele>139.3</ele>
        <time>2015-04-20T19:20:06.006Z</time>
      </trkpt>
      <trkpt lat="48.78794" lon="2.29713">
        <ele>139.1</ele>
        <time>2015-04-20T19:20:09.055Z</time>
      </trkpt>
      <trkpt lat="48.78792" lon="2.29715">
        <ele>139</ele>
        <time>2015-04-20T19:20:10.056Z</time>
      </trkpt>
      <trkpt lat="48.78788" lon="2.29722">
        <ele>139.1</ele>
        <time>2015-04-20T19:20:11.991Z</time>
      </trkpt>
      <trkpt lat="48.78786" lon="2.29725">
        <ele>139</ele>
        <time>2015-04-20T19:20:12.988Z</time>
      </trkpt>
      <trkpt lat="48.78781" lon="2.29734">
        <ele>138.7</ele>
        <time>2015-04-20T19:20:15.995Z</time>
      </trkpt>
      <trkpt lat="48.78778" lon="2.29737">
        <ele>138.5</ele>
        <time>2015-04-20T19:20:16.986Z</time>
      </trkpt>
      <trkpt lat="48.78773" lon="2.29743">
        <ele>137.7</ele>
        <time>2015-04-20T19:20:19.007Z</time>
      </trkpt>
      <trkpt lat="48.7877" lon="2.29745">
        <ele>137.2</ele>
        <time>2015-04-20T19:20:20.047Z</time>
      </trkpt>
      <trkpt lat="48.78763" lon="2.29738">
        <ele>135.7</ele>
        <time>2015-04-20T19:20:24.093Z</time>
      </trkpt>
      <trkpt lat="48.78762" lon="2.29736">
        <ele>135.7</ele>
        <time>2015-04-20T19:20:24.982Z</time>
      </trkpt>
      <trkpt lat="48.78759" lon="2.2973">
        <ele>135.5</ele>
        <time>2015-04-20T19:21:13.004Z</time>
      </trkpt>
      <trkpt lat="48.78769" lon="2.29756">
        <ele>136.1</ele>
        <time>2015-04-20T19:21:14.004Z</time>
      </trkpt>
      <trkpt lat="48.78767" lon="2.29763">
        <ele>135.5</ele>
        <time>2015-04-20T19:21:16.068Z</time>
      </trkpt>
      <trkpt lat="48.78764" lon="2.29767">
        <ele>134.5</ele>
        <time>2015-04-20T19:21:17.085Z</time>
      </trkpt>
      <trkpt lat="48.78759" lon="2.29774">
        <ele>133.6</ele>
        <time>2015-04-20T19:21:19.017Z</time>
      </trkpt>
      <trkpt lat="48.78756" lon="2.29778">
        <ele>133</ele>
        <time>2015-04-20T19:21:20.172Z</time>
      </trkpt>
      <trkpt lat="48.78753" lon="2.29782">
        <ele>132.7</ele>
        <time>2015-04-20T19:21:21.052Z</time>
      </trkpt>
      <trkpt lat="48.78749" lon="2.29788">
        <ele>132.4</ele>
        <time>2015-04-20T19:21:22.073Z</time>
      </trkpt>
      <trkpt lat="48.78746" lon="2.29793">
        <ele>131.8</ele>
        <time>2015-04-20T19:21:23.091Z</time>
      </trkpt>
      <trkpt lat="48.78742" lon="2.29798">
        <ele>131.5</ele>
        <time>2015-04-20T19:21:24.011Z</time>
      </trkpt>
      <trkpt lat="48.78739" lon="2.29804">
        <ele>131.2</ele>
        <time>2015-04-20T19:21:25.074Z</time>
      </trkpt>
      <trkpt lat="48.78735" lon="2.29809">
        <ele>131.1</ele>
        <time>2015-04-20T19:21:25.979Z</time>
      </trkpt>
      <trkpt lat="48.78732" lon="2.29814">
        <ele>130.9</ele>
        <time>2015-04-20T19:21:27.017Z</time>
      </trkpt>
      <trkpt lat="48.78729" lon="2.2982">
        <ele>130.7</ele>
        <time>2015-04-20T19:21:28.032Z</time>
      </trkpt>
      <trkpt lat="48.78725" lon="2.29826">
        <ele>130.2</ele>
        <time>2015-04-20T19:21:29.050Z</time>
      </trkpt>
      <trkpt lat="48.78722" lon="2.29832">
        <ele>129.5</ele>
        <time>2015-04-20T19:21:30.073Z</time>
      </trkpt>
      <trkpt lat="48.78719" lon="2.29838">
        <ele>129.1</ele>
        <time>2015-04-20T19:21:31.014Z</time>
      </trkpt>
      <trkpt lat="48.78715" lon="2.29843">
        <ele>128.5</ele>
        <time>2015-04-20T19:21:32.005Z</time>
      </trkpt>
      <trkpt lat="48.78713" lon="2.29849">
        <ele>127.8</ele>
        <time>2015-04-20T19:21:33.016Z</time>
      </trkpt>
      <trkpt lat="48.7871" lon="2.29856">
        <ele>127.7</ele>
        <time>2015-04-20T19:21:34.028Z</time>
      </trkpt>
      <trkpt lat="48.78708" lon="2.29863">
        <ele>127.5</ele>
        <time>2015-04-20T19:21:35.067Z</time>
      </trkpt>
      <trkpt lat="48.78705" lon="2.2987">
        <ele>127.5</ele>
        <time>2015-04-20T19:21:36.079Z</time>
      </trkpt>
      <trkpt lat="48.78703" lon="2.29877">
        <ele>127.7</ele>
        <time>2015-04-20T19:21:36.998Z</time>
      </trkpt>
      <trkpt lat="48.787" lon="2.29884">
        <ele>127.5</ele>
        <time>2015-04-20T19:21:38.014Z</time>
      </trkpt>
      <trkpt lat="48.78698" lon="2.29891">
        <ele>127.1</ele>
        <time>2015-04-20T19:21:39.056Z</time>
      </trkpt>
      <trkpt lat="48.78696" lon="2.29898">
        <ele>127.5</ele>
        <time>2015-04-20T19:21:40.059Z</time>
      </trkpt>
      <trkpt lat="48.78694" lon="2.29905">
        <ele>127.2</ele>
        <time>2015-04-20T19:21:41.097Z</time>
      </trkpt>
      <trkpt lat="48.78692" lon="2.29914">
        <ele>126.6</ele>
        <time>2015-04-20T19:21:42.095Z</time>
      </trkpt>
      <trkpt lat="48.7869" lon="2.29923">
        <ele>126.1</ele>
        <time>2015-04-20T19:21:43.012Z</time>
      </trkpt>
      <trkpt lat="48.78688" lon="2.29933">
        <ele>126</ele>
        <time>2015-04-20T19:21:44.003Z</time>
      </trkpt>
      <trkpt lat="48.78686" lon="2.29942">
        <ele>125.9</ele>
        <time>2015-04-20T19:21:45.036Z</time>
      </trkpt>
      <trkpt lat="48.78685" lon="2.29951">
        <ele>125.6</ele>
        <time>2015-04-20T19:21:46.048Z</time>
      </trkpt>
      <trkpt lat="48.78684" lon="2.29959">
        <ele>125.1</ele>
        <time>2015-04-20T19:21:47.061Z</time>
      </trkpt>
      <trkpt lat="48.78683" lon="2.29968">
        <ele>124.6</ele>
        <time>2015-04-20T19:21:48.065Z</time>
      </trkpt>
      <trkpt lat="48.78682" lon="2.29977">
        <ele>124.3</ele>
        <time>2015-04-20T19:21:48.998Z</time>
      </trkpt>
      <trkpt lat="48.78681" lon="2.29985">
        <ele>123.7</ele>
        <time>2015-04-20T19:21:50.101Z</time>
      </trkpt>
      <trkpt lat="48.78679" lon="2.29994">
        <ele>123.2</ele>
        <time>2015-04-20T19:21:51.123Z</time>
      </trkpt>
      <trkpt lat="48.78678" lon="2.30003">
        <ele>122.9</ele>
        <time>2015-04-20T19:21:51.992Z</time>
      </trkpt>
      <trkpt lat="48.78677" lon="2.3001">
        <ele>122.8</ele>
        <time>2015-04-20T19:21:53.001Z</time>
      </trkpt>
      <trkpt lat="48.78676" lon="2.30017">
        <ele>122.7</ele>
        <time>2015-04-20T19:21:54.015Z</time>
      </trkpt>
      <trkpt lat="48.78674" lon="2.30025">
        <ele>122.6</ele>
        <time>2015-04-20T19:21:55.091Z</time>
      </trkpt>
      <trkpt lat="48.78672" lon="2.30032">
        <ele>122.4</ele>
        <time>2015-04-20T19:21:56.012Z</time>
      </trkpt>
      <trkpt lat="48.7867" lon="2.3004">
        <ele>122.4</ele>
        <time>2015-04-20T19:21:57.109Z</time>
      </trkpt>
      <trkpt lat="48.78669" lon="2.30048">
        <ele>122.4</ele>
        <time>2015-04-20T19:21:58.006Z</time>
      </trkpt>
      <trkpt lat="48.78667" lon="2.30055">
        <ele>122.2</ele>
        <time>2015-04-20T19:21:59.072Z</time>
      </trkpt>
      <trkpt lat="48.78665" lon="2.30064">
        <ele>122.2</ele>
        <time>2015-04-20T19:21:59.985Z</time>
      </trkpt>
      <trkpt lat="48.78662" lon="2.30073">
        <ele>122.1</ele>
        <time>2015-04-20T19:22:01.023Z</time>
      </trkpt>
      <trkpt lat="48.7866" lon="2.3008">
        <ele>122.1</ele>
        <time>2015-04-20T19:22:02.048Z</time>
      </trkpt>
      <trkpt lat="48.78657" lon="2.30087">
        <ele>121.8</ele>
        <time>2015-04-20T19:22:03.059Z</time>
      </trkpt>
      <trkpt lat="48.78654" lon="2.30095">
        <ele>121.7</ele>
        <time>2015-04-20T19:22:04.087Z</time>
      </trkpt>
      <trkpt lat="48.7865" lon="2.30102">
        <ele>121.1</ele>
        <time>2015-04-20T19:22:04.995Z</time>
      </trkpt>
      <trkpt lat="48.78647" lon="2.30109">
        <ele>120.5</ele>
        <time>2015-04-20T19:22:06.008Z</time>
      </trkpt>
      <trkpt lat="48.78645" lon="2.30117">
        <ele>120.5</ele>
        <time>2015-04-20T19:22:07.029Z</time>
      </trkpt>
      <trkpt lat="48.78642" lon="2.30125">
        <ele>120.2</ele>
        <time>2015-04-20T19:22:08.036Z</time>
      </trkpt>
      <trkpt lat="48.78638" lon="2.30131">
        <ele>119.8</ele>
        <time>2015-04-20T19:22:09.069Z</time>
      </trkpt>
      <trkpt lat="48.78635" lon="2.30139">
        <ele>119.9</ele>
        <time>2015-04-20T19:22:10.072Z</time>
      </trkpt>
      <trkpt lat="48.78632" lon="2.30147">
        <ele>119.5</ele>
        <time>2015-04-20T19:22:11.105Z</time>
      </trkpt>
      <trkpt lat="48.78629" lon="2.30155">
        <ele>119.4</ele>
        <time>2015-04-20T19:22:11.989Z</time>
      </trkpt>
      <trkpt lat="48.78625" lon="2.30161">
        <ele>119.6</ele>
        <time>2015-04-20T19:22:12.991Z</time>
      </trkpt>
      <trkpt lat="48.7862" lon="2.30168">
        <ele>118.8</ele>
        <time>2015-04-20T19:22:13.993Z</time>
      </trkpt>
      <trkpt lat="48.78617" lon="2.30176">
        <ele>118.6</ele>
        <time>2015-04-20T19:22:15.019Z</time>
      </trkpt>
      <trkpt lat="48.78614" lon="2.30185">
        <ele>118.4</ele>
        <time>2015-04-20T19:22:16.070Z</time>
      </trkpt>
      <trkpt lat="48.78612" lon="2.30193">
        <ele>118.6</ele>
        <time>2015-04-20T19:22:17.072Z</time>
      </trkpt>
      <trkpt lat="48.78609" lon="2.30201">
        <ele>118.6</ele>
        <time>2015-04-20T19:22:18.090Z</time>
      </trkpt>
      <trkpt lat="48.78605" lon="2.30209">
        <ele>118.3</ele>
        <time>2015-04-20T19:22:19.002Z</time>
      </trkpt>
      <trkpt lat="48.78602" lon="2.30217">
        <ele>118.3</ele>
        <time>2015-04-20T19:22:20.010Z</time>
      </trkpt>
      <trkpt lat="48.78598" lon="2.30225">
        <ele>117.8</ele>
        <time>2015-04-20T19:22:21.031Z</time>
      </trkpt>
      <trkpt lat="48.78595" lon="2.30233">
        <ele>117.2</ele>
        <time>2015-04-20T19:22:22.046Z</time>
      </trkpt>
      <trkpt lat="48.78592" lon="2.30242">
        <ele>117</ele>
        <time>2015-04-20T19:22:23.062Z</time>
      </trkpt>
      <trkpt lat="48.78589" lon="2.3025">
        <ele>116.3</ele>
        <time>2015-04-20T19:22:24.067Z</time>
      </trkpt>
      <trkpt lat="48.78586" lon="2.30262">
        <ele>115.8</ele>
        <time>2015-04-20T19:22:26.013Z</time>
      </trkpt>
      <trkpt lat="48.78584" lon="2.30267">
        <ele>115.8</ele>
        <time>2015-04-20T19:22:27.084Z</time>
      </trkpt>
      <trkpt lat="48.78584" lon="2.30277">
        <ele>115.9</ele>
        <time>2015-04-20T19:22:29.016Z</time>
      </trkpt>
      <trkpt lat="48.78583" lon="2.30282">
        <ele>115.9</ele>
        <time>2015-04-20T19:22:30.038Z</time>
      </trkpt>
      <trkpt lat="48.78577" lon="2.3029">
        <ele>116.6</ele>
        <time>2015-04-20T19:22:34.004Z</time>
      </trkpt>
      <trkpt lat="48.78576" lon="2.3029">
        <ele>116.7</ele>
        <time>2015-04-20T19:22:35.050Z</time>
      </trkpt>
      <trkpt lat="48.78567" lon="2.30291">
        <ele>113.6</ele>
        <time>2015-04-20T19:23:20.056Z</time>
      </trkpt>
      <trkpt lat="48.78565" lon="2.30292">
        <ele>113.8</ele>
        <time>2015-04-20T19:23:21.097Z</time>
      </trkpt>
      <trkpt lat="48.78557" lon="2.30298">
        <ele>114.6</ele>
        <time>2015-04-20T19:23:24.020Z</time>
      </trkpt>
      <trkpt lat="48.78555" lon="2.303">
        <ele>114.7</ele>
        <time>2015-04-20T19:23:25.031Z</time>
      </trkpt>
      <trkpt lat="48.78546" lon="2.30304">
        <ele>115</ele>
        <time>2015-04-20T19:23:28.092Z</time>
      </trkpt>
      <trkpt lat="48.78544" lon="2.30305">
        <ele>115</ele>
        <time>2015-04-20T19:23:28.989Z</time>
      </trkpt>
      <trkpt lat="48.78538" lon="2.30313">
        <ele>114.6</ele>
        <time>2015-04-20T19:23:32.050Z</time>
      </trkpt>
      <trkpt lat="48.78536" lon="2.30317">
        <ele>114.5</ele>
        <time>2015-04-20T19:23:33.065Z</time>
      </trkpt>
      <trkpt lat="48.78535" lon="2.3033">
        <ele>115</ele>
        <time>2015-04-20T19:23:35.992Z</time>
      </trkpt>
      <trkpt lat="48.78534" lon="2.30335">
        <ele>115</ele>
        <time>2015-04-20T19:23:37.008Z</time>
      </trkpt>
      <trkpt lat="48.78532" lon="2.30344">
        <ele>114.9</ele>
        <time>2015-04-20T19:23:39.021Z</time>
      </trkpt>
      <trkpt lat="48.78532" lon="2.30349">
        <ele>114.8</ele>
        <time>2015-04-20T19:23:40.026Z</time>
      </trkpt>
      <trkpt lat="48.7853" lon="2.30362">
        <ele>114.9</ele>
        <time>2015-04-20T19:23:42Z</time>
      </trkpt>
      <trkpt lat="48.78529" lon="2.3037">
        <ele>115.1</ele>
        <time>2015-04-20T19:23:43.028Z</time>
      </trkpt>
      <trkpt lat="48.78528" lon="2.30377">
        <ele>114.8</ele>
        <time>2015-04-20T19:23:44.004Z</time>
      </trkpt>
      <trkpt lat="48.78526" lon="2.30383">
        <ele>114.7</ele>
        <time>2015-04-20T19:23:45Z</time>
      </trkpt>
      <trkpt lat="48.78524" lon="2.3039">
        <ele>114.7</ele>
        <time>2015-04-20T19:23:46.070Z</time>
      </trkpt>
      <trkpt lat="48.78523" lon="2.30397">
        <ele>114.7</ele>
        <time>2015-04-20T19:23:46.998Z</time>
      </trkpt>
      <trkpt lat="48.78522" lon="2.30404">
        <ele>114.5</ele>
        <time>2015-04-20T19:23:47.999Z</time>
      </trkpt>
      <trkpt lat="48.78522" lon="2.30412">
        <ele>114.6</ele>
        <time>2015-04-20T19:23:49.020Z</time>
      </trkpt>
      <trkpt lat="48.78521" lon="2.30419">
        <ele>114.7</ele>
        <time>2015-04-20T19:23:50.028Z</time>
      </trkpt>
      <trkpt lat="48.7852" lon="2.30426">
        <ele>114.7</ele>
        <time>2015-04-20T19:23:51.049Z</time>
      </trkpt>
      <trkpt lat="48.78519" lon="2.30439">
        <ele>114.7</ele>
        <time>2015-04-20T19:23:53.065Z</time>
      </trkpt>
      <trkpt lat="48.78519" lon="2.30447">
        <ele>114.7</ele>
        <time>2015-04-20T19:23:54.012Z</time>
      </trkpt>
      <trkpt lat="48.78518" lon="2.30455">
        <ele>114.9</ele>
        <time>2015-04-20T19:23:55.059Z</time>
      </trkpt>
      <trkpt lat="48.78517" lon="2.30463">
        <ele>114.8</ele>
        <time>2015-04-20T19:23:56.066Z</time>
      </trkpt>
      <trkpt lat="48.78517" lon="2.30471">
        <ele>114.7</ele>
        <time>2015-04-20T19:23:57.078Z</time>
      </trkpt>
      <trkpt lat="48.78516" lon="2.30477">
        <ele>114.6</ele>
        <time>2015-04-20T19:23:57.991Z</time>
      </trkpt>
      <trkpt lat="48.78514" lon="2.30484">
        <ele>114.7</ele>
        <time>2015-04-20T19:23:59.020Z</time>
      </trkpt>
      <trkpt lat="48.78513" lon="2.30491">
        <ele>114.6</ele>
        <time>2015-04-20T19:24:00.001Z</time>
      </trkpt>
      <trkpt lat="48.78512" lon="2.30499">
        <ele>114.3</ele>
        <time>2015-04-20T19:24:01.019Z</time>
      </trkpt>
      <trkpt lat="48.78512" lon="2.30506">
        <ele>114.3</ele>
        <time>2015-04-20T19:24:02.030Z</time>
      </trkpt>
      <trkpt lat="48.78511" lon="2.30513">
        <ele>113.4</ele>
        <time>2015-04-20T19:24:03.039Z</time>
      </trkpt>
      <trkpt lat="48.7851" lon="2.30521">
        <ele>113</ele>
        <time>2015-04-20T19:24:04.044Z</time>
      </trkpt>
      <trkpt lat="48.78509" lon="2.30527">
        <ele>112.6</ele>
        <time>2015-04-20T19:24:05.059Z</time>
      </trkpt>
      <trkpt lat="48.78508" lon="2.30534">
        <ele>112.5</ele>
        <time>2015-04-20T19:24:06.124Z</time>
      </trkpt>
      <trkpt lat="48.78507" lon="2.30541">
        <ele>112.5</ele>
        <time>2015-04-20T19:24:06.995Z</time>
      </trkpt>
      <trkpt lat="48.78505" lon="2.30549">
        <ele>112.4</ele>
        <time>2015-04-20T19:24:08.030Z</time>
      </trkpt>
      <trkpt lat="48.78504" lon="2.30556">
        <ele>112.2</ele>
        <time>2015-04-20T19:24:09.039Z</time>
      </trkpt>
      <trkpt lat="48.78504" lon="2.30565">
        <ele>112</ele>
        <time>2015-04-20T19:24:10.044Z</time>
      </trkpt>
      <trkpt lat="48.78503" lon="2.30574">
        <ele>112.1</ele>
        <time>2015-04-20T19:24:11.074Z</time>
      </trkpt>
      <trkpt lat="48.78502" lon="2.30583">
        <ele>111.7</ele>
        <time>2015-04-20T19:24:12.074Z</time>
      </trkpt>
      <trkpt lat="48.78502" lon="2.30591">
        <ele>111.7</ele>
        <time>2015-04-20T19:24:12.968Z</time>
      </trkpt>
      <trkpt lat="48.785" lon="2.30598">
        <ele>111.5</ele>
        <time>2015-04-20T19:24:13.989Z</time>
      </trkpt>
      <trkpt lat="48.785" lon="2.30606">
        <ele>111.3</ele>
        <time>2015-04-20T19:24:15.032Z</time>
      </trkpt>
      <trkpt lat="48.78499" lon="2.30613">
        <ele>111.2</ele>
        <time>2015-04-20T19:24:16.047Z</time>
      </trkpt>
      <trkpt lat="48.78498" lon="2.30621">
        <ele>111.6</ele>
        <time>2015-04-20T19:24:17.067Z</time>
      </trkpt>
      <trkpt lat="48.78497" lon="2.30629">
        <ele>111.3</ele>
        <time>2015-04-20T19:24:18.072Z</time>
      </trkpt>
      <trkpt lat="48.78496" lon="2.30636">
        <ele>111.4</ele>
        <time>2015-04-20T19:24:18.985Z</time>
      </trkpt>
      <trkpt lat="48.78496" lon="2.30644">
        <ele>111.3</ele>
        <time>2015-04-20T19:24:19.988Z</time>
      </trkpt>
      <trkpt lat="48.78496" lon="2.30651">
        <ele>111.4</ele>
        <time>2015-04-20T19:24:21.011Z</time>
      </trkpt>
      <trkpt lat="48.78496" lon="2.30658">
        <ele>111.2</ele>
        <time>2015-04-20T19:24:22.021Z</time>
      </trkpt>
      <trkpt lat="48.78496" lon="2.30665">
        <ele>111</ele>
        <time>2015-04-20T19:24:23.039Z</time>
      </trkpt>
      <trkpt lat="48.78497" lon="2.30674">
        <ele>111.1</ele>
        <time>2015-04-20T19:24:24.100Z</time>
      </trkpt>
      <trkpt lat="48.78497" lon="2.30683">
        <ele>111.1</ele>
        <time>2015-04-20T19:24:24.975Z</time>
      </trkpt>
      <trkpt lat="48.78498" lon="2.30691">
        <ele>110.7</ele>
        <time>2015-04-20T19:24:25.983Z</time>
      </trkpt>
      <trkpt lat="48.78498" lon="2.30698">
        <ele>110.6</ele>
        <time>2015-04-20T19:24:27.010Z</time>
      </trkpt>
      <trkpt lat="48.78497" lon="2.30705">
        <ele>110.8</ele>
        <time>2015-04-20T19:24:28.012Z</time>
      </trkpt>
      <trkpt lat="48.78497" lon="2.30713">
        <ele>110.5</ele>
        <time>2015-04-20T19:24:29.045Z</time>
      </trkpt>
      <trkpt lat="48.78496" lon="2.30721">
        <ele>110.3</ele>
        <time>2015-04-20T19:24:30.056Z</time>
      </trkpt>
      <trkpt lat="48.78496" lon="2.30729">
        <ele>110.4</ele>
        <time>2015-04-20T19:24:30.975Z</time>
      </trkpt>
      <trkpt lat="48.78495" lon="2.30737">
        <ele>110.3</ele>
        <time>2015-04-20T19:24:31.994Z</time>
      </trkpt>
      <trkpt lat="48.78494" lon="2.30746">
        <ele>110.1</ele>
        <time>2015-04-20T19:24:33.018Z</time>
      </trkpt>
      <trkpt lat="48.78493" lon="2.30754">
        <ele>110</ele>
        <time>2015-04-20T19:24:34.020Z</time>
      </trkpt>
      <trkpt lat="48.78494" lon="2.30762">
        <ele>109.6</ele>
        <time>2015-04-20T19:24:35.046Z</time>
      </trkpt>
      <trkpt lat="48.78493" lon="2.3077">
        <ele>109.9</ele>
        <time>2015-04-20T19:24:36.044Z</time>
      </trkpt>
      <trkpt lat="48.78493" lon="2.30779">
        <ele>109.9</ele>
        <time>2015-04-20T19:24:37.064Z</time>
      </trkpt>
      <trkpt lat="48.78492" lon="2.30787">
        <ele>110</ele>
        <time>2015-04-20T19:24:37.976Z</time>
      </trkpt>
      <trkpt lat="48.78492" lon="2.30795">
        <ele>110</ele>
        <time>2015-04-20T19:24:39.009Z</time>
      </trkpt>
      <trkpt lat="48.78492" lon="2.30804">
        <ele>110.1</ele>
        <time>2015-04-20T19:24:40.022Z</time>
      </trkpt>
      <trkpt lat="48.78492" lon="2.30812">
        <ele>109.8</ele>
        <time>2015-04-20T19:24:41.023Z</time>
      </trkpt>
      <trkpt lat="48.78493" lon="2.30821">
        <ele>109.1</ele>
        <time>2015-04-20T19:24:42.031Z</time>
      </trkpt>
      <trkpt lat="48.78493" lon="2.30829">
        <ele>109</ele>
        <time>2015-04-20T19:24:43.040Z</time>
      </trkpt>
      <trkpt lat="48.78493" lon="2.30837">
        <ele>108.8</ele>
        <time>2015-04-20T19:24:44.063Z</time>
      </trkpt>
      <trkpt lat="48.78493" lon="2.30845">
        <ele>108.6</ele>
        <time>2015-04-20T19:24:45.090Z</time>
      </trkpt>
      <trkpt lat="48.78493" lon="2.30853">
        <ele>108.6</ele>
        <time>2015-04-20T19:24:45.993Z</time>
      </trkpt>
      <trkpt lat="48.78494" lon="2.30861">
        <ele>108.6</ele>
        <time>2015-04-20T19:24:47.006Z</time>
      </trkpt>
      <trkpt lat="48.78494" lon="2.30869">
        <ele>108.4</ele>
        <time>2015-04-20T19:24:48.016Z</time>
      </trkpt>
      <trkpt lat="48.78494" lon="2.30877">
        <ele>108.1</ele>
        <time>2015-04-20T19:24:49.026Z</time>
      </trkpt>
      <trkpt lat="48.78494" lon="2.30884">
        <ele>108.4</ele>
        <time>2015-04-20T19:24:50.045Z</time>
      </trkpt>
      <trkpt lat="48.78494" lon="2.30892">
        <ele>108.6</ele>
        <time>2015-04-20T19:24:51.058Z</time>
      </trkpt>
      <trkpt lat="48.78494" lon="2.309">
        <ele>108.4</ele>
        <time>2015-04-20T19:24:52.074Z</time>
      </trkpt>
      <trkpt lat="48.78493" lon="2.30907">
        <ele>108.3</ele>
        <time>2015-04-20T19:24:53.081Z</time>
      </trkpt>
      <trkpt lat="48.78493" lon="2.30914">
        <ele>108.3</ele>
        <time>2015-04-20T19:24:53.981Z</time>
      </trkpt>
      <trkpt lat="48.78492" lon="2.30927">
        <ele>108.2</ele>
        <time>2015-04-20T19:24:55.996Z</time>
      </trkpt>
      <trkpt lat="48.78491" lon="2.30933">
        <ele>107.8</ele>
        <time>2015-04-20T19:24:57.027Z</time>
      </trkpt>
      <trkpt lat="48.78489" lon="2.30946">
        <ele>106.6</ele>
        <time>2015-04-20T19:25:01.026Z</time>
      </trkpt>
      <trkpt lat="48.78489" lon="2.30948">
        <ele>106.2</ele>
        <time>2015-04-20T19:25:02.020Z</time>
      </trkpt>
      <trkpt lat="48.7849" lon="2.3096">
        <ele>105.5</ele>
        <time>2015-04-20T19:25:09.099Z</time>
      </trkpt>
      <trkpt lat="48.7849" lon="2.30963">
        <ele>105.8</ele>
        <time>2015-04-20T19:25:10.114Z</time>
      </trkpt>
      <trkpt lat="48.78491" lon="2.30972">
        <ele>105.6</ele>
        <time>2015-04-20T19:25:12.032Z</time>
      </trkpt>
      <trkpt lat="48.78492" lon="2.30977">
        <ele>105.8</ele>
        <time>2015-04-20T19:25:13.063Z</time>
      </trkpt>
      <trkpt lat="48.78495" lon="2.30987">
        <ele>105.6</ele>
        <time>2015-04-20T19:25:15.058Z</time>
      </trkpt>
      <trkpt lat="48.78496" lon="2.30992">
        <ele>105.5</ele>
        <time>2015-04-20T19:25:16.059Z</time>
      </trkpt>
      <trkpt lat="48.785" lon="2.31001">
        <ele>105.5</ele>
        <time>2015-04-20T19:25:19.056Z</time>
      </trkpt>
      <trkpt lat="48.78502" lon="2.31004">
        <ele>105.4</ele>
        <time>2015-04-20T19:25:20.078Z</time>
      </trkpt>
      <trkpt lat="48.7851" lon="2.31009">
        <ele>105.9</ele>
        <time>2015-04-20T19:25:23.002Z</time>
      </trkpt>
      <trkpt lat="48.78512" lon="2.31012">
        <ele>106.2</ele>
        <time>2015-04-20T19:25:24.014Z</time>
      </trkpt>
      <trkpt lat="48.78517" lon="2.31016">
        <ele>106.8</ele>
        <time>2015-04-20T19:25:26.030Z</time>
      </trkpt>
      <trkpt lat="48.7852" lon="2.31018">
        <ele>106.7</ele>
        <time>2015-04-20T19:25:27.044Z</time>
      </trkpt>
      <trkpt lat="48.78525" lon="2.31025">
        <ele>107.1</ele>
        <time>2015-04-20T19:25:29.124Z</time>
      </trkpt>
      <trkpt lat="48.78528" lon="2.31029">
        <ele>107.6</ele>
        <time>2015-04-20T19:25:30.168Z</time>
      </trkpt>
      <trkpt lat="48.78535" lon="2.31036">
        <ele>107.8</ele>
        <time>2015-04-20T19:25:32.128Z</time>
      </trkpt>
      <trkpt lat="48.78539" lon="2.31039">
        <ele>107.4</ele>
        <time>2015-04-20T19:25:33.137Z</time>
      </trkpt>
      <trkpt lat="48.78545" lon="2.31047">
        <ele>107.4</ele>
        <time>2015-04-20T19:25:35.016Z</time>
      </trkpt>
      <trkpt lat="48.78548" lon="2.31051">
        <ele>106.9</ele>
        <time>2015-04-20T19:25:36.027Z</time>
      </trkpt>
      <trkpt lat="48.78554" lon="2.3106">
        <ele>107.6</ele>
        <time>2015-04-20T19:25:38.048Z</time>
      </trkpt>
      <trkpt lat="48.78557" lon="2.31064">
        <ele>107.8</ele>
        <time>2015-04-20T19:25:39.115Z</time>
      </trkpt>
      <trkpt lat="48.78562" lon="2.31075">
        <ele>108</ele>
        <time>2015-04-20T19:25:40.992Z</time>
      </trkpt>
      <trkpt lat="48.78565" lon="2.31079">
        <ele>107.7</ele>
        <time>2015-04-20T19:25:41.996Z</time>
      </trkpt>
      <trkpt lat="48.78571" lon="2.31087">
        <ele>108</ele>
        <time>2015-04-20T19:25:44.053Z</time>
      </trkpt>
      <trkpt lat="48.78575" lon="2.31091">
        <ele>108.4</ele>
        <time>2015-04-20T19:25:45.056Z</time>
      </trkpt>
      <trkpt lat="48.78578" lon="2.31096">
        <ele>108.7</ele>
        <time>2015-04-20T19:25:45.977Z</time>
      </trkpt>
      <trkpt lat="48.78582" lon="2.311">
        <ele>108.9</ele>
        <time>2015-04-20T19:25:47.090Z</time>
      </trkpt>
      <trkpt lat="48.78588" lon="2.31108">
        <ele>108.8</ele>
        <time>2015-04-20T19:25:49.013Z</time>
      </trkpt>
      <trkpt lat="48.78591" lon="2.31112">
        <ele>109.1</ele>
        <time>2015-04-20T19:25:50.020Z</time>
      </trkpt>
      <trkpt lat="48.78598" lon="2.3112">
        <ele>109.5</ele>
        <time>2015-04-20T19:25:52.199Z</time>
      </trkpt>
      <trkpt lat="48.78601" lon="2.31124">
        <ele>109.8</ele>
        <time>2015-04-20T19:25:53.022Z</time>
      </trkpt>
      <trkpt lat="48.78606" lon="2.31131">
        <ele>110.9</ele>
        <time>2015-04-20T19:25:55.051Z</time>
      </trkpt>
      <trkpt lat="48.78608" lon="2.31135">
        <ele>111</ele>
        <time>2015-04-20T19:25:56.045Z</time>
      </trkpt>
      <trkpt lat="48.78612" lon="2.31144">
        <ele>111.5</ele>
        <time>2015-04-20T19:25:58.080Z</time>
      </trkpt>
      <trkpt lat="48.78615" lon="2.31147">
        <ele>111.7</ele>
        <time>2015-04-20T19:25:59.088Z</time>
      </trkpt>
      <trkpt lat="48.78619" lon="2.31152">
        <ele>112</ele>
        <time>2015-04-20T19:26:00.114Z</time>
      </trkpt>
      <trkpt lat="48.78623" lon="2.31158">
        <ele>112.1</ele>
        <time>2015-04-20T19:26:01.022Z</time>
      </trkpt>
      <trkpt lat="48.78627" lon="2.31162">
        <ele>112.1</ele>
        <time>2015-04-20T19:26:02.045Z</time>
      </trkpt>
      <trkpt lat="48.78632" lon="2.31167">
        <ele>112.2</ele>
        <time>2015-04-20T19:26:03.101Z</time>
      </trkpt>
      <trkpt lat="48.78635" lon="2.31173">
        <ele>112.6</ele>
        <time>2015-04-20T19:26:04.046Z</time>
      </trkpt>
      <trkpt lat="48.78639" lon="2.31178">
        <ele>112.9</ele>
        <time>2015-04-20T19:26:04.980Z</time>
      </trkpt>
      <trkpt lat="48.78642" lon="2.31183">
        <ele>112.9</ele>
        <time>2015-04-20T19:26:06.426Z</time>
      </trkpt>
      <trkpt lat="48.78647" lon="2.31188">
        <ele>112.3</ele>
        <time>2015-04-20T19:26:07.045Z</time>
      </trkpt>
      <trkpt lat="48.78652" lon="2.31191">
        <ele>112.5</ele>
        <time>2015-04-20T19:26:08.055Z</time>
      </trkpt>
      <trkpt lat="48.78657" lon="2.31194">
        <ele>112.8</ele>
        <time>2015-04-20T19:26:09.059Z</time>
      </trkpt>
      <trkpt lat="48.78662" lon="2.31198">
        <ele>113.1</ele>
        <time>2015-04-20T19:26:10.063Z</time>
      </trkpt>
      <trkpt lat="48.78666" lon="2.31202">
        <ele>113.4</ele>
        <time>2015-04-20T19:26:11.077Z</time>
      </trkpt>
      <trkpt lat="48.78671" lon="2.31205">
        <ele>113.4</ele>
        <time>2015-04-20T19:26:12.021Z</time>
      </trkpt>
      <trkpt lat="48.78676" lon="2.31209">
        <ele>113.5</ele>
        <time>2015-04-20T19:26:13.007Z</time>
      </trkpt>
      <trkpt lat="48.7868" lon="2.31214">
        <ele>113.7</ele>
        <time>2015-04-20T19:26:14.036Z</time>
      </trkpt>
      <trkpt lat="48.78685" lon="2.31218">
        <ele>113.8</ele>
        <time>2015-04-20T19:26:15.123Z</time>
      </trkpt>
      <trkpt lat="48.7869" lon="2.31222">
        <ele>113.8</ele>
        <time>2015-04-20T19:26:16.637Z</time>
      </trkpt>
      <trkpt lat="48.78694" lon="2.31227">
        <ele>113.9</ele>
        <time>2015-04-20T19:26:17.003Z</time>
      </trkpt>
      <trkpt lat="48.78699" lon="2.31232">
        <ele>114.1</ele>
        <time>2015-04-20T19:26:18.006Z</time>
      </trkpt>
      <trkpt lat="48.78704" lon="2.31236">
        <ele>114.3</ele>
        <time>2015-04-20T19:26:19.011Z</time>
      </trkpt>
      <trkpt lat="48.78709" lon="2.3124">
        <ele>114.3</ele>
        <time>2015-04-20T19:26:20.018Z</time>
      </trkpt>
      <trkpt lat="48.78713" lon="2.31244">
        <ele>114.4</ele>
        <time>2015-04-20T19:26:21.047Z</time>
      </trkpt>
      <trkpt lat="48.78719" lon="2.31246">
        <ele>114.7</ele>
        <time>2015-04-20T19:26:22.158Z</time>
      </trkpt>
      <trkpt lat="48.78725" lon="2.3125">
        <ele>115.1</ele>
        <time>2015-04-20T19:26:23.003Z</time>
      </trkpt>
      <trkpt lat="48.78731" lon="2.31253">
        <ele>115.3</ele>
        <time>2015-04-20T19:26:24.001Z</time>
      </trkpt>
      <trkpt lat="48.78738" lon="2.31257">
        <ele>115.9</ele>
        <time>2015-04-20T19:26:24.995Z</time>
      </trkpt>
      <trkpt lat="48.78746" lon="2.3126">
        <ele>116.5</ele>
        <time>2015-04-20T19:26:26.004Z</time>
      </trkpt>
      <trkpt lat="48.78752" lon="2.31263">
        <ele>117.2</ele>
        <time>2015-04-20T19:26:27.072Z</time>
      </trkpt>
      <trkpt lat="48.78759" lon="2.31265">
        <ele>117.8</ele>
        <time>2015-04-20T19:26:28.062Z</time>
      </trkpt>
      <trkpt lat="48.78765" lon="2.31267">
        <ele>118.4</ele>
        <time>2015-04-20T19:26:29.069Z</time>
      </trkpt>
      <trkpt lat="48.78772" lon="2.31266">
        <ele>119.2</ele>
        <time>2015-04-20T19:26:30.088Z</time>
      </trkpt>
      <trkpt lat="48.78778" lon="2.31267">
        <ele>119.8</ele>
        <time>2015-04-20T19:26:30.987Z</time>
      </trkpt>
      <trkpt lat="48.78785" lon="2.31269">
        <ele>120.5</ele>
        <time>2015-04-20T19:26:32Z</time>
      </trkpt>
      <trkpt lat="48.78791" lon="2.31272">
        <ele>121.4</ele>
        <time>2015-04-20T19:26:33.023Z</time>
      </trkpt>
      <trkpt lat="48.78798" lon="2.31274">
        <ele>122.3</ele>
        <time>2015-04-20T19:26:34.044Z</time>
      </trkpt>
      <trkpt lat="48.78804" lon="2.31276">
        <ele>122.9</ele>
        <time>2015-04-20T19:26:35.058Z</time>
      </trkpt>
      <trkpt lat="48.78809" lon="2.3128">
        <ele>123.3</ele>
        <time>2015-04-20T19:26:35.997Z</time>
      </trkpt>
      <trkpt lat="48.78813" lon="2.31286">
        <ele>123.3</ele>
        <time>2015-04-20T19:26:36.989Z</time>
      </trkpt>
      <trkpt lat="48.78816" lon="2.31293">
        <ele>123.6</ele>
        <time>2015-04-20T19:26:38.019Z</time>
      </trkpt>
      <trkpt lat="48.7882" lon="2.31301">
        <ele>123.7</ele>
        <time>2015-04-20T19:26:39.050Z</time>
      </trkpt>
      <trkpt lat="48.78826" lon="2.31304">
        <ele>124.4</ele>
        <time>2015-04-20T19:26:40.105Z</time>
      </trkpt>
      <trkpt lat="48.78832" lon="2.31306">
        <ele>124.9</ele>
        <time>2015-04-20T19:26:40.983Z</time>
      </trkpt>
      <trkpt lat="48.78837" lon="2.31311">
        <ele>125.5</ele>
        <time>2015-04-20T19:26:41.988Z</time>
      </trkpt>
      <trkpt lat="48.78843" lon="2.31315">
        <ele>126.4</ele>
        <time>2015-04-20T19:26:43.005Z</time>
      </trkpt>
      <trkpt lat="48.78848" lon="2.31321">
        <ele>126.9</ele>
        <time>2015-04-20T19:26:44.022Z</time>
      </trkpt>
      <trkpt lat="48.78852" lon="2.31328">
        <ele>127.7</ele>
        <time>2015-04-20T19:26:45.031Z</time>
      </trkpt>
      <trkpt lat="48.78858" lon="2.31331">
        <ele>128</ele>
        <time>2015-04-20T19:26:46.057Z</time>
      </trkpt>
      <trkpt lat="48.78864" lon="2.31334">
        <ele>128.7</ele>
        <time>2015-04-20T19:26:47.121Z</time>
      </trkpt>
      <trkpt lat="48.78868" lon="2.31338">
        <ele>128.6</ele>
        <time>2015-04-20T19:26:47.986Z</time>
      </trkpt>
      <trkpt lat="48.78875" lon="2.31342">
        <ele>129.3</ele>
        <time>2015-04-20T19:26:48.995Z</time>
      </trkpt>
      <trkpt lat="48.78879" lon="2.31348">
        <ele>129.7</ele>
        <time>2015-04-20T19:26:50.028Z</time>
      </trkpt>
      <trkpt lat="48.78883" lon="2.31354">
        <ele>129.9</ele>
        <time>2015-04-20T19:26:51.044Z</time>
      </trkpt>
      <trkpt lat="48.78887" lon="2.31358">
        <ele>130.3</ele>
        <time>2015-04-20T19:26:52.061Z</time>
      </trkpt>
      <trkpt lat="48.7889" lon="2.31363">
        <ele>130.8</ele>
        <time>2015-04-20T19:26:52.986Z</time>
      </trkpt>
      <trkpt lat="48.78893" lon="2.31368">
        <ele>130.8</ele>
        <time>2015-04-20T19:26:53.986Z</time>
      </trkpt>
      <trkpt lat="48.78897" lon="2.31372">
        <ele>130.1</ele>
        <time>2015-04-20T19:26:54.995Z</time>
      </trkpt>
      <trkpt lat="48.78902" lon="2.31381">
        <ele>129.6</ele>
        <time>2015-04-20T19:26:57.029Z</time>
      </trkpt>
      <trkpt lat="48.78902" lon="2.31385">
        <ele>129.8</ele>
        <time>2015-04-20T19:26:58.026Z</time>
      </trkpt>
      <trkpt lat="48.78905" lon="2.31395">
        <ele>131.5</ele>
        <time>2015-04-20T19:27:01.032Z</time>
      </trkpt>
      <trkpt lat="48.78905" lon="2.314">
        <ele>131.9</ele>
        <time>2015-04-20T19:27:02.022Z</time>
      </trkpt>
      <trkpt lat="48.78909" lon="2.31411">
        <ele>133.7</ele>
        <time>2015-04-20T19:27:05.070Z</time>
      </trkpt>
      <trkpt lat="48.78911" lon="2.31414">
        <ele>134.1</ele>
        <time>2015-04-20T19:27:06.023Z</time>
      </trkpt>
      <trkpt lat="48.78919" lon="2.31418">
        <ele>135.4</ele>
        <time>2015-04-20T19:27:09.106Z</time>
      </trkpt>
      <trkpt lat="48.78922" lon="2.31419">
        <ele>135.7</ele>
        <time>2015-04-20T19:27:09.997Z</time>
      </trkpt>
      <trkpt lat="48.78927" lon="2.31417">
        <ele>135.9</ele>
        <time>2015-04-20T19:27:11.022Z</time>
      </trkpt>
      <trkpt lat="48.78932" lon="2.31415">
        <ele>136.2</ele>
        <time>2015-04-20T19:27:12.033Z</time>
      </trkpt>
      <trkpt lat="48.78934" lon="2.31414">
        <ele>135</ele>
        <time>2015-04-20T19:27:54.028Z</time>
      </trkpt>
      <trkpt lat="48.78946" lon="2.31418">
        <ele>128.3</ele>
        <time>2015-04-20T19:27:55.065Z</time>
      </trkpt>
      <trkpt lat="48.78954" lon="2.31419">
        <ele>128.6</ele>
        <time>2015-04-20T19:27:58.995Z</time>
      </trkpt>
      <trkpt lat="48.78956" lon="2.31419">
        <ele>128.9</ele>
        <time>2015-04-20T19:27:59.997Z</time>
      </trkpt>
      <trkpt lat="48.78959" lon="2.3142">
        <ele>130.3</ele>
        <time>2015-04-20T19:28:46.990Z</time>
      </trkpt>
      <trkpt lat="48.7896" lon="2.31437">
        <ele>135.4</ele>
        <time>2015-04-20T19:28:48.021Z</time>
      </trkpt>
      <trkpt lat="48.78968" lon="2.31439">
        <ele>135.8</ele>
        <time>2015-04-20T19:28:51.053Z</time>
      </trkpt>
      <trkpt lat="48.78972" lon="2.31439">
        <ele>136.1</ele>
        <time>2015-04-20T19:28:52.076Z</time>
      </trkpt>
      <trkpt lat="48.78977" lon="2.3144">
        <ele>136.3</ele>
        <time>2015-04-20T19:28:52.974Z</time>
      </trkpt>
      <trkpt lat="48.78981" lon="2.31439">
        <ele>136.5</ele>
        <time>2015-04-20T19:28:53.988Z</time>
      </trkpt>
      <trkpt lat="48.78986" lon="2.31438">
        <ele>136.7</ele>
        <time>2015-04-20T19:28:54.996Z</time>
      </trkpt>
      <trkpt lat="48.7899" lon="2.31438">
        <ele>136.9</ele>
        <time>2015-04-20T19:28:56.007Z</time>
      </trkpt>
      <trkpt lat="48.78998" lon="2.3144">
        <ele>136.8</ele>
        <time>2015-04-20T19:28:58.045Z</time>
      </trkpt>
      <trkpt lat="48.79002" lon="2.3144">
        <ele>136.9</ele>
        <time>2015-04-20T19:28:59.058Z</time>
      </trkpt>
      <trkpt lat="48.79009" lon="2.31442">
        <ele>136.8</ele>
        <time>2015-04-20T19:29:00.981Z</time>
      </trkpt>
      <trkpt lat="48.79012" lon="2.31443">
        <ele>136.4</ele>
        <time>2015-04-20T19:29:02.063Z</time>
      </trkpt>
      <trkpt lat="48.7902" lon="2.31446">
        <ele>134.9</ele>
        <time>2015-04-20T19:29:03.988Z</time>
      </trkpt>
      <trkpt lat="48.79024" lon="2.31447">
        <ele>135</ele>
        <time>2015-04-20T19:29:04.991Z</time>
      </trkpt>
      <trkpt lat="48.79029" lon="2.31449">
        <ele>135.4</ele>
        <time>2015-04-20T19:29:06.041Z</time>
      </trkpt>
      <trkpt lat="48.79034" lon="2.31452">
        <ele>135.7</ele>
        <time>2015-04-20T19:29:07.087Z</time>
      </trkpt>
      <trkpt lat="48.7904" lon="2.31457">
        <ele>134.4</ele>
        <time>2015-04-20T19:29:07.994Z</time>
      </trkpt>
      <trkpt lat="48.79046" lon="2.31459">
        <ele>134</ele>
        <time>2015-04-20T19:29:09.019Z</time>
      </trkpt>
      <trkpt lat="48.79051" lon="2.31461">
        <ele>134</ele>
        <time>2015-04-20T19:29:10.056Z</time>
      </trkpt>
      <trkpt lat="48.79055" lon="2.31462">
        <ele>134.1</ele>
        <time>2015-04-20T19:29:11.046Z</time>
      </trkpt>
      <trkpt lat="48.79062" lon="2.31468">
        <ele>134.2</ele>
        <time>2015-04-20T19:29:13.059Z</time>
      </trkpt>
      <trkpt lat="48.79066" lon="2.31472">
        <ele>133.1</ele>
        <time>2015-04-20T19:29:14.087Z</time>
      </trkpt>
      <trkpt lat="48.79071" lon="2.31475">
        <ele>132.5</ele>
        <time>2015-04-20T19:29:15.022Z</time>
      </trkpt>
      <trkpt lat="48.79077" lon="2.31477">
        <ele>131.5</ele>
        <time>2015-04-20T19:29:16.024Z</time>
      </trkpt>
      <trkpt lat="48.79082" lon="2.31479">
        <ele>131</ele>
        <time>2015-04-20T19:29:17.034Z</time>
      </trkpt>
      <trkpt lat="48.79086" lon="2.3148">
        <ele>130.9</ele>
        <time>2015-04-20T19:29:18.054Z</time>
      </trkpt>
      <trkpt lat="48.79094" lon="2.31484">
        <ele>131.5</ele>
        <time>2015-04-20T19:29:19.964Z</time>
      </trkpt>
      <trkpt lat="48.791" lon="2.31485">
        <ele>132</ele>
        <time>2015-04-20T19:29:21.018Z</time>
      </trkpt>
      <trkpt lat="48.79107" lon="2.31486">
        <ele>132.1</ele>
        <time>2015-04-20T19:29:22.053Z</time>
      </trkpt>
      <trkpt lat="48.79113" lon="2.31488">
        <ele>132.2</ele>
        <time>2015-04-20T19:29:23.081Z</time>
      </trkpt>
      <trkpt lat="48.79118" lon="2.3149">
        <ele>132</ele>
        <time>2015-04-20T19:29:23.990Z</time>
      </trkpt>
      <trkpt lat="48.79124" lon="2.31494">
        <ele>130.9</ele>
        <time>2015-04-20T19:29:25.010Z</time>
      </trkpt>
      <trkpt lat="48.7913" lon="2.31496">
        <ele>130.3</ele>
        <time>2015-04-20T19:29:26.028Z</time>
      </trkpt>
      <trkpt lat="48.79135" lon="2.31498">
        <ele>129.3</ele>
        <time>2015-04-20T19:29:27.056Z</time>
      </trkpt>
      <trkpt lat="48.7914" lon="2.31501">
        <ele>128.9</ele>
        <time>2015-04-20T19:29:28.055Z</time>
      </trkpt>
      <trkpt lat="48.79144" lon="2.31502">
        <ele>128.3</ele>
        <time>2015-04-20T19:29:29.064Z</time>
      </trkpt>
      <trkpt lat="48.79149" lon="2.31503">
        <ele>128.3</ele>
        <time>2015-04-20T19:29:30.075Z</time>
      </trkpt>
      <trkpt lat="48.79154" lon="2.31506">
        <ele>127.8</ele>
        <time>2015-04-20T19:29:30.985Z</time>
      </trkpt>
      <trkpt lat="48.79158" lon="2.31508">
        <ele>127.8</ele>
        <time>2015-04-20T19:29:31.992Z</time>
      </trkpt>
      <trkpt lat="48.79162" lon="2.3151">
        <ele>128.1</ele>
        <time>2015-04-20T19:29:33.031Z</time>
      </trkpt>
      <trkpt lat="48.79167" lon="2.31514">
        <ele>128</ele>
        <time>2015-04-20T19:29:34.985Z</time>
      </trkpt>
      <trkpt lat="48.79171" lon="2.31517">
        <ele>128.5</ele>
        <time>2015-04-20T19:29:36.054Z</time>
      </trkpt>
      <trkpt lat="48.79179" lon="2.3152">
        <ele>128.6</ele>
        <time>2015-04-20T19:29:38.002Z</time>
      </trkpt>
      <trkpt lat="48.79185" lon="2.31522">
        <ele>129.1</ele>
        <time>2015-04-20T19:29:39.052Z</time>
      </trkpt>
      <trkpt lat="48.79188" lon="2.31525">
        <ele>128.7</ele>
        <time>2015-04-20T19:29:39.959Z</time>
      </trkpt>
      <trkpt lat="48.79193" lon="2.31528">
        <ele>127.9</ele>
        <time>2015-04-20T19:29:41.022Z</time>
      </trkpt>
      <trkpt lat="48.79201" lon="2.31532">
        <ele>127.5</ele>
        <time>2015-04-20T19:29:42.993Z</time>
      </trkpt>
      <trkpt lat="48.79204" lon="2.31534">
        <ele>127.4</ele>
        <time>2015-04-20T19:29:43.994Z</time>
      </trkpt>
      <trkpt lat="48.79213" lon="2.31538">
        <ele>127.5</ele>
        <time>2015-04-20T19:29:46.041Z</time>
      </trkpt>
      <trkpt lat="48.79217" lon="2.3154">
        <ele>127.8</ele>
        <time>2015-04-20T19:29:47.065Z</time>
      </trkpt>
      <trkpt lat="48.79222" lon="2.31543">
        <ele>127.7</ele>
        <time>2015-04-20T19:29:48.079Z</time>
      </trkpt>
      <trkpt lat="48.79226" lon="2.31546">
        <ele>126.7</ele>
        <time>2015-04-20T19:29:48.968Z</time>
      </trkpt>
      <trkpt lat="48.7923" lon="2.31549">
        <ele>126.1</ele>
        <time>2015-04-20T19:29:50.034Z</time>
      </trkpt>
      <trkpt lat="48.79235" lon="2.31552">
        <ele>125.9</ele>
        <time>2015-04-20T19:29:51.029Z</time>
      </trkpt>
      <trkpt lat="48.79243" lon="2.31556">
        <ele>126.4</ele>
        <time>2015-04-20T19:29:53.051Z</time>
      </trkpt>
      <trkpt lat="48.79246" lon="2.31558">
        <ele>126.7</ele>
        <time>2015-04-20T19:29:54.047Z</time>
      </trkpt>
      <trkpt lat="48.79253" lon="2.31561">
        <ele>127.2</ele>
        <time>2015-04-20T19:29:55.967Z</time>
      </trkpt>
      <trkpt lat="48.79255" lon="2.31563">
        <ele>127.9</ele>
        <time>2015-04-20T19:29:57.002Z</time>
      </trkpt>
      <trkpt lat="48.79261" lon="2.31566">
        <ele>128.5</ele>
        <time>2015-04-20T19:29:59.038Z</time>
      </trkpt>
      <trkpt lat="48.79264" lon="2.31566">
        <ele>128.4</ele>
        <time>2015-04-20T19:30:00.062Z</time>
      </trkpt>
      <trkpt lat="48.7927" lon="2.31569">
        <ele>128.6</ele>
        <time>2015-04-20T19:30:02.096Z</time>
      </trkpt>
      <trkpt lat="48.79274" lon="2.3157">
        <ele>128.6</ele>
        <time>2015-04-20T19:30:03.106Z</time>
      </trkpt>
      <trkpt lat="48.79281" lon="2.31573">
        <ele>128.7</ele>
        <time>2015-04-20T19:30:05.425Z</time>
      </trkpt>
      <trkpt lat="48.79283" lon="2.31575">
        <ele>128.5</ele>
        <time>2015-04-20T19:30:06.044Z</time>
      </trkpt>
      <trkpt lat="48.79288" lon="2.3158">
        <ele>128.2</ele>
        <time>2015-04-20T19:30:08.024Z</time>
      </trkpt>
      <trkpt lat="48.79292" lon="2.31585">
        <ele>127.2</ele>
        <time>2015-04-20T19:30:09.065Z</time>
      </trkpt>
      <trkpt lat="48.79299" lon="2.31593">
        <ele>126.3</ele>
        <time>2015-04-20T19:30:11.077Z</time>
      </trkpt>
      <trkpt lat="48.79302" lon="2.31596">
        <ele>126.3</ele>
        <time>2015-04-20T19:30:12.227Z</time>
      </trkpt>
      <trkpt lat="48.79309" lon="2.316">
        <ele>125.6</ele>
        <time>2015-04-20T19:30:14.030Z</time>
      </trkpt>
      <trkpt lat="48.79312" lon="2.31601">
        <ele>125.3</ele>
        <time>2015-04-20T19:30:15.056Z</time>
      </trkpt>
      <trkpt lat="48.79319" lon="2.31603">
        <ele>126.7</ele>
        <time>2015-04-20T19:30:17.058Z</time>
      </trkpt>
      <trkpt lat="48.79323" lon="2.31604">
        <ele>127.6</ele>
        <time>2015-04-20T19:30:18.077Z</time>
      </trkpt>
      <trkpt lat="48.7933" lon="2.31601">
        <ele>128.7</ele>
        <time>2015-04-20T19:36:02.037Z</time>
      </trkpt>
      <trkpt lat="48.79342" lon="2.31605">
        <ele>131.1</ele>
        <time>2015-04-20T19:36:03.044Z</time>
      </trkpt>
      <trkpt lat="48.7935" lon="2.3161">
        <ele>130.6</ele>
        <time>2015-04-20T19:36:07.996Z</time>
      </trkpt>
      <trkpt lat="48.79352" lon="2.31611">
        <ele>130.7</ele>
        <time>2015-04-20T19:36:09.015Z</time>
      </trkpt>
      <trkpt lat="48.79358" lon="2.31615">
        <ele>130.7</ele>
        <time>2015-04-20T19:36:12.052Z</time>
      </trkpt>
      <trkpt lat="48.79361" lon="2.31616">
        <ele>130.8</ele>
        <time>2015-04-20T19:36:13.004Z</time>
      </trkpt>
      <trkpt lat="48.79367" lon="2.31619">
        <ele>130.7</ele>
        <time>2015-04-20T19:36:15.023Z</time>
      </trkpt>
      <trkpt lat="48.79371" lon="2.31621">
        <ele>130.7</ele>
        <time>2015-04-20T19:36:16.026Z</time>
      </trkpt>
      <trkpt lat="48.79376" lon="2.31623">
        <ele>130.8</ele>
        <time>2015-04-20T19:36:17.016Z</time>
      </trkpt>
      <trkpt lat="48.79381" lon="2.31625">
        <ele>130.8</ele>
        <time>2015-04-20T19:36:18.027Z</time>
      </trkpt>
      <trkpt lat="48.79389" lon="2.31629">
        <ele>130.6</ele>
        <time>2015-04-20T19:36:20.016Z</time>
      </trkpt>
      <trkpt lat="48.79394" lon="2.31632">
        <ele>130.4</ele>
        <time>2015-04-20T19:36:21.039Z</time>
      </trkpt>
      <trkpt lat="48.79399" lon="2.31636">
        <ele>129.7</ele>
        <time>2015-04-20T19:36:22.045Z</time>
      </trkpt>
      <trkpt lat="48.79405" lon="2.31638">
        <ele>129.5</ele>
        <time>2015-04-20T19:36:23.063Z</time>
      </trkpt>
      <trkpt lat="48.79409" lon="2.31641">
        <ele>129.2</ele>
        <time>2015-04-20T19:36:24.092Z</time>
      </trkpt>
      <trkpt lat="48.79414" lon="2.31642">
        <ele>129.2</ele>
        <time>2015-04-20T19:36:24.993Z</time>
      </trkpt>
      <trkpt lat="48.79418" lon="2.31644">
        <ele>129.2</ele>
        <time>2015-04-20T19:36:26.001Z</time>
      </trkpt>
      <trkpt lat="48.79423" lon="2.31645">
        <ele>129.3</ele>
        <time>2015-04-20T19:36:27.022Z</time>
      </trkpt>
      <trkpt lat="48.79431" lon="2.31648">
        <ele>129.6</ele>
        <time>2015-04-20T19:36:29.869Z</time>
      </trkpt>
      <trkpt lat="48.79433" lon="2.31649">
        <ele>129.5</ele>
        <time>2015-04-20T19:36:29.974Z</time>
      </trkpt>
      <trkpt lat="48.79441" lon="2.31652">
        <ele>129.9</ele>
        <time>2015-04-20T19:36:33.127Z</time>
      </trkpt>
      <trkpt lat="48.79442" lon="2.31653">
        <ele>130</ele>
        <time>2015-04-20T19:36:34.001Z</time>
      </trkpt>
      <trkpt lat="48.79444" lon="2.31655">
        <ele>130</ele>
        <time>2015-04-20T19:36:50.149Z</time>
      </trkpt>
      <trkpt lat="48.79454" lon="2.31655">
        <ele>131.9</ele>
        <time>2015-04-20T19:36:51.055Z</time>
      </trkpt>
      <trkpt lat="48.79461" lon="2.31659">
        <ele>131.9</ele>
        <time>2015-04-20T19:36:54.036Z</time>
      </trkpt>
      <trkpt lat="48.79464" lon="2.31661">
        <ele>131.7</ele>
        <time>2015-04-20T19:36:55.064Z</time>
      </trkpt>
      <trkpt lat="48.79469" lon="2.31665">
        <ele>131.5</ele>
        <time>2015-04-20T19:36:57.059Z</time>
      </trkpt>
      <trkpt lat="48.79473" lon="2.31668">
        <ele>131.4</ele>
        <time>2015-04-20T19:36:58.046Z</time>
      </trkpt>
      <trkpt lat="48.79479" lon="2.31672">
        <ele>130.9</ele>
        <time>2015-04-20T19:37:00.815Z</time>
      </trkpt>
      <trkpt lat="48.79483" lon="2.31675">
        <ele>131.1</ele>
        <time>2015-04-20T19:37:00.976Z</time>
      </trkpt>
      <trkpt lat="48.7949" lon="2.31679">
        <ele>131.5</ele>
        <time>2015-04-20T19:37:03.096Z</time>
      </trkpt>
      <trkpt lat="48.79494" lon="2.31681">
        <ele>131.3</ele>
        <time>2015-04-20T19:37:03.968Z</time>
      </trkpt>
      <trkpt lat="48.79502" lon="2.31686">
        <ele>131.5</ele>
        <time>2015-04-20T19:37:05.966Z</time>
      </trkpt>
      <trkpt lat="48.79506" lon="2.31688">
        <ele>131.5</ele>
        <time>2015-04-20T19:37:07.023Z</time>
      </trkpt>
      <trkpt lat="48.79511" lon="2.31689">
        <ele>131</ele>
        <time>2015-04-20T19:37:08.133Z</time>
      </trkpt>
      <trkpt lat="48.79516" lon="2.31691">
        <ele>130.8</ele>
        <time>2015-04-20T19:37:09.132Z</time>
      </trkpt>
      <trkpt lat="48.79521" lon="2.31694">
        <ele>131.1</ele>
        <time>2015-04-20T19:37:10.016Z</time>
      </trkpt>
      <trkpt lat="48.79526" lon="2.31696">
        <ele>131.4</ele>
        <time>2015-04-20T19:37:11.015Z</time>
      </trkpt>
      <trkpt lat="48.7953" lon="2.31699">
        <ele>131.4</ele>
        <time>2015-04-20T19:37:11.740Z</time>
      </trkpt>
      <trkpt lat="48.79535" lon="2.31701">
        <ele>131.7</ele>
        <time>2015-04-20T19:37:13.065Z</time>
      </trkpt>
      <trkpt lat="48.7954" lon="2.31704">
        <ele>131.8</ele>
        <time>2015-04-20T19:37:14.074Z</time>
      </trkpt>
      <trkpt lat="48.79544" lon="2.31705">
        <ele>131.9</ele>
        <time>2015-04-20T19:37:15.135Z</time>
      </trkpt>
      <trkpt lat="48.79549" lon="2.31707">
        <ele>132.1</ele>
        <time>2015-04-20T19:37:16.044Z</time>
      </trkpt>
      <trkpt lat="48.79554" lon="2.31709">
        <ele>132.3</ele>
        <time>2015-04-20T19:37:17.069Z</time>
      </trkpt>
      <trkpt lat="48.79558" lon="2.31711">
        <ele>132.1</ele>
        <time>2015-04-20T19:37:18.082Z</time>
      </trkpt>
      <trkpt lat="48.79562" lon="2.31713">
        <ele>132.2</ele>
        <time>2015-04-20T19:37:19.003Z</time>
      </trkpt>
      <trkpt lat="48.79567" lon="2.31715">
        <ele>132.3</ele>
        <time>2015-04-20T19:37:20.038Z</time>
      </trkpt>
      <trkpt lat="48.79571" lon="2.31717">
        <ele>132.2</ele>
        <time>2015-04-20T19:37:21.109Z</time>
      </trkpt>
      <trkpt lat="48.79579" lon="2.3172">
        <ele>132.3</ele>
        <time>2015-04-20T19:37:23.113Z</time>
      </trkpt>
      <trkpt lat="48.79583" lon="2.31722">
        <ele>132.5</ele>
        <time>2015-04-20T19:37:24.031Z</time>
      </trkpt>
      <trkpt lat="48.79591" lon="2.31725">
        <ele>132.5</ele>
        <time>2015-04-20T19:37:26.182Z</time>
      </trkpt>
      <trkpt lat="48.79595" lon="2.31726">
        <ele>132.7</ele>
        <time>2015-04-20T19:37:27.091Z</time>
      </trkpt>
      <trkpt lat="48.796" lon="2.31727">
        <ele>133</ele>
        <time>2015-04-20T19:37:29.841Z</time>
      </trkpt>
      <trkpt lat="48.79604" lon="2.31728">
        <ele>133.1</ele>
        <time>2015-04-20T19:37:30.015Z</time>
      </trkpt>
      <trkpt lat="48.79611" lon="2.31727">
        <ele>133.1</ele>
        <time>2015-04-20T19:37:32.101Z</time>
      </trkpt>
      <trkpt lat="48.79616" lon="2.31727">
        <ele>133.1</ele>
        <time>2015-04-20T19:37:33.108Z</time>
      </trkpt>
      <trkpt lat="48.79624" lon="2.31727">
        <ele>133.3</ele>
        <time>2015-04-20T19:37:34.984Z</time>
      </trkpt>
      <trkpt lat="48.79629" lon="2.31727">
        <ele>133.5</ele>
        <time>2015-04-20T19:37:35.997Z</time>
      </trkpt>
      <trkpt lat="48.79636" lon="2.31727">
        <ele>134</ele>
        <time>2015-04-20T19:37:38.091Z</time>
      </trkpt>
      <trkpt lat="48.79638" lon="2.31727">
        <ele>133.8</ele>
        <time>2015-04-20T19:37:39.214Z</time>
      </trkpt>
      <trkpt lat="48.79644" lon="2.31725">
        <ele>133.4</ele>
        <time>2015-04-20T19:37:41.007Z</time>
      </trkpt>
      <trkpt lat="48.79647" lon="2.31725">
        <ele>133.2</ele>
        <time>2015-04-20T19:37:42.010Z</time>
      </trkpt>
      <trkpt lat="48.79655" lon="2.31721">
        <ele>132.5</ele>
        <time>2015-04-20T19:37:45.195Z</time>
      </trkpt>
      <trkpt lat="48.79658" lon="2.31721">
        <ele>132.4</ele>
        <time>2015-04-20T19:37:46.004Z</time>
      </trkpt>
      <trkpt lat="48.79664" lon="2.31721">
        <ele>132.6</ele>
        <time>2015-04-20T19:37:48.060Z</time>
      </trkpt>
      <trkpt lat="48.79668" lon="2.31721">
        <ele>132.9</ele>
        <time>2015-04-20T19:37:48.958Z</time>
      </trkpt>
      <trkpt lat="48.79674" lon="2.31722">
        <ele>133.6</ele>
        <time>2015-04-20T19:37:51.043Z</time>
      </trkpt>
      <trkpt lat="48.79677" lon="2.31722">
        <ele>134</ele>
        <time>2015-04-20T19:37:52.040Z</time>
      </trkpt>
      <trkpt lat="48.79682" lon="2.3172">
        <ele>134.2</ele>
        <time>2015-04-20T19:37:52.972Z</time>
      </trkpt>
      <trkpt lat="48.79686" lon="2.31719">
        <ele>134.3</ele>
        <time>2015-04-20T19:37:53.999Z</time>
      </trkpt>
      <trkpt lat="48.79691" lon="2.31718">
        <ele>134.5</ele>
        <time>2015-04-20T19:37:55.330Z</time>
      </trkpt>
      <trkpt lat="48.79696" lon="2.31719">
        <ele>134.8</ele>
        <time>2015-04-20T19:37:56.016Z</time>
      </trkpt>
      <trkpt lat="48.79701" lon="2.3172">
        <ele>135.3</ele>
        <time>2015-04-20T19:37:57.040Z</time>
      </trkpt>
      <trkpt lat="48.79706" lon="2.31721">
        <ele>135.8</ele>
        <time>2015-04-20T19:37:58.048Z</time>
      </trkpt>
      <trkpt lat="48.7971" lon="2.31724">
        <ele>135.9</ele>
        <time>2015-04-20T19:37:59.069Z</time>
      </trkpt>
      <trkpt lat="48.79714" lon="2.31727">
        <ele>135.4</ele>
        <time>2015-04-20T19:37:59.980Z</time>
      </trkpt>
      <trkpt lat="48.79721" lon="2.31727">
        <ele>135.1</ele>
        <time>2015-04-20T19:38:01.026Z</time>
      </trkpt>
      <trkpt lat="48.79727" lon="2.31728">
        <ele>135.6</ele>
        <time>2015-04-20T19:38:02.038Z</time>
      </trkpt>
      <trkpt lat="48.79732" lon="2.3173">
        <ele>136.4</ele>
        <time>2015-04-20T19:38:03.047Z</time>
      </trkpt>
      <trkpt lat="48.79737" lon="2.31731">
        <ele>137</ele>
        <time>2015-04-20T19:38:04.055Z</time>
      </trkpt>
      <trkpt lat="48.79742" lon="2.31733">
        <ele>137.2</ele>
        <time>2015-04-20T19:38:05.727Z</time>
      </trkpt>
      <trkpt lat="48.79748" lon="2.31734">
        <ele>137.3</ele>
        <time>2015-04-20T19:38:05.990Z</time>
      </trkpt>
      <trkpt lat="48.79754" lon="2.31737">
        <ele>137.7</ele>
        <time>2015-04-20T19:38:07.005Z</time>
      </trkpt>
      <trkpt lat="48.7976" lon="2.31738">
        <ele>137.9</ele>
        <time>2015-04-20T19:38:08.017Z</time>
      </trkpt>
      <trkpt lat="48.79765" lon="2.31739">
        <ele>138.2</ele>
        <time>2015-04-20T19:38:09.048Z</time>
      </trkpt>
      <trkpt lat="48.79771" lon="2.31739">
        <ele>138.6</ele>
        <time>2015-04-20T19:38:10.052Z</time>
      </trkpt>
      <trkpt lat="48.79776" lon="2.3174">
        <ele>138.9</ele>
        <time>2015-04-20T19:38:10.957Z</time>
      </trkpt>
      <trkpt lat="48.79781" lon="2.3174">
        <ele>139.1</ele>
        <time>2015-04-20T19:38:11.994Z</time>
      </trkpt>
      <trkpt lat="48.79788" lon="2.3174">
        <ele>139.1</ele>
        <time>2015-04-20T19:38:14.020Z</time>
      </trkpt>
      <trkpt lat="48.79791" lon="2.31742">
        <ele>138.8</ele>
        <time>2015-04-20T19:38:15.029Z</time>
      </trkpt>
      <trkpt lat="48.79799" lon="2.31746">
        <ele>138.8</ele>
        <time>2015-04-20T19:38:16.960Z</time>
      </trkpt>
      <trkpt lat="48.79804" lon="2.31746">
        <ele>139</ele>
        <time>2015-04-20T19:38:18.047Z</time>
      </trkpt>
      <trkpt lat="48.79811" lon="2.31746">
        <ele>139.2</ele>
        <time>2015-04-20T19:38:20.076Z</time>
      </trkpt>
      <trkpt lat="48.79817" lon="2.31747">
        <ele>139.2</ele>
        <time>2015-04-20T19:38:21.118Z</time>
      </trkpt>
      <trkpt lat="48.79825" lon="2.31747">
        <ele>139.1</ele>
        <time>2015-04-20T19:38:23.098Z</time>
      </trkpt>
      <trkpt lat="48.79829" lon="2.31747">
        <ele>139.1</ele>
        <time>2015-04-20T19:38:23.976Z</time>
      </trkpt>
      <trkpt lat="48.79836" lon="2.3175">
        <ele>139.1</ele>
        <time>2015-04-20T19:38:26Z</time>
      </trkpt>
      <trkpt lat="48.79843" lon="2.31752">
        <ele>139.2</ele>
        <time>2015-04-20T19:38:27.043Z</time>
      </trkpt>
      <trkpt lat="48.7985" lon="2.31754">
        <ele>139.4</ele>
        <time>2015-04-20T19:38:28.001Z</time>
      </trkpt>
      <trkpt lat="48.79858" lon="2.31757">
        <ele>139.7</ele>
        <time>2015-04-20T19:38:29.111Z</time>
      </trkpt>
      <trkpt lat="48.79858" lon="2.31757">
        <ele>139.7</ele>
        <time>2015-04-20T19:38:29.835Z</time>
      </trkpt>
      <trkpt lat="48.79873" lon="2.31762">
        <ele>140.4</ele>
        <time>2015-04-20T19:38:31.069Z</time>
      </trkpt>
      <trkpt lat="48.7988" lon="2.31764">
        <ele>140.9</ele>
        <time>2015-04-20T19:38:31.962Z</time>
      </trkpt>
      <trkpt lat="48.79886" lon="2.31765">
        <ele>141.2</ele>
        <time>2015-04-20T19:38:32.995Z</time>
      </trkpt>
      <trkpt lat="48.79891" lon="2.31768">
        <ele>141.5</ele>
        <time>2015-04-20T19:38:34.888Z</time>
      </trkpt>
      <trkpt lat="48.79898" lon="2.31771">
        <ele>141.7</ele>
        <time>2015-04-20T19:38:35.021Z</time>
      </trkpt>
      <trkpt lat="48.79905" lon="2.31773">
        <ele>142.1</ele>
        <time>2015-04-20T19:38:36.042Z</time>
      </trkpt>
      <trkpt lat="48.79911" lon="2.31774">
        <ele>142.4</ele>
        <time>2015-04-20T19:38:37.055Z</time>
      </trkpt>
      <trkpt lat="48.79917" lon="2.31776">
        <ele>143.1</ele>
        <time>2015-04-20T19:38:37.956Z</time>
      </trkpt>
      <trkpt lat="48.79922" lon="2.31777">
        <ele>143.5</ele>
        <time>2015-04-20T19:38:39.013Z</time>
      </trkpt>
      <trkpt lat="48.79928" lon="2.31779">
        <ele>143.8</ele>
        <time>2015-04-20T19:38:39.975Z</time>
      </trkpt>
      <trkpt lat="48.79933" lon="2.31781">
        <ele>144.1</ele>
        <time>2015-04-20T19:38:40.978Z</time>
      </trkpt>
      <trkpt lat="48.79938" lon="2.31783">
        <ele>144.4</ele>
        <time>2015-04-20T19:38:41.996Z</time>
      </trkpt>
      <trkpt lat="48.79942" lon="2.31784">
        <ele>144.6</ele>
        <time>2015-04-20T19:38:43.014Z</time>
      </trkpt>
      <trkpt lat="48.79948" lon="2.31784">
        <ele>144.7</ele>
        <time>2015-04-20T19:38:44.022Z</time>
      </trkpt>
      <trkpt lat="48.79955" lon="2.31785">
        <ele>144.6</ele>
        <time>2015-04-20T19:38:45.031Z</time>
      </trkpt>
      <trkpt lat="48.79961" lon="2.31786">
        <ele>144.7</ele>
        <time>2015-04-20T19:38:46.046Z</time>
      </trkpt>
      <trkpt lat="48.79965" lon="2.31787">
        <ele>144.8</ele>
        <time>2015-04-20T19:38:47.059Z</time>
      </trkpt>
      <trkpt lat="48.79971" lon="2.31789">
        <ele>145</ele>
        <time>2015-04-20T19:38:47.975Z</time>
      </trkpt>
      <trkpt lat="48.79975" lon="2.31791">
        <ele>144.9</ele>
        <time>2015-04-20T19:38:48.977Z</time>
      </trkpt>
      <trkpt lat="48.7998" lon="2.31793">
        <ele>144.7</ele>
        <time>2015-04-20T19:38:51.047Z</time>
      </trkpt>
      <trkpt lat="48.79983" lon="2.31795">
        <ele>144.6</ele>
        <time>2015-04-20T19:38:52.066Z</time>
      </trkpt>
      <trkpt lat="48.79991" lon="2.31799">
        <ele>144.8</ele>
        <time>2015-04-20T19:38:53.977Z</time>
      </trkpt>
      <trkpt lat="48.79993" lon="2.318">
        <ele>144.7</ele>
        <time>2015-04-20T19:38:55.030Z</time>
      </trkpt>
      <trkpt lat="48.80001" lon="2.31803">
        <ele>144.3</ele>
        <time>2015-04-20T19:38:57.089Z</time>
      </trkpt>
      <trkpt lat="48.80006" lon="2.31804">
        <ele>143.9</ele>
        <time>2015-04-20T19:38:57.964Z</time>
      </trkpt>
      <trkpt lat="48.80011" lon="2.31805">
        <ele>143.5</ele>
        <time>2015-04-20T19:38:58.996Z</time>
      </trkpt>
      <trkpt lat="48.80015" lon="2.31806">
        <ele>143.3</ele>
        <time>2015-04-20T19:39:00.005Z</time>
      </trkpt>
      <trkpt lat="48.8002" lon="2.31807">
        <ele>143.1</ele>
        <time>2015-04-20T19:39:01.014Z</time>
      </trkpt>
      <trkpt lat="48.80024" lon="2.31807">
        <ele>142.5</ele>
        <time>2015-04-20T19:39:02.037Z</time>
      </trkpt>
      <trkpt lat="48.80029" lon="2.31808">
        <ele>142.2</ele>
        <time>2015-04-20T19:39:03.045Z</time>
      </trkpt>
      <trkpt lat="48.80036" lon="2.31809">
        <ele>140.9</ele>
        <time>2015-04-20T19:39:04.052Z</time>
      </trkpt>
      <trkpt lat="48.80045" lon="2.31811">
        <ele>139.9</ele>
        <time>2015-04-20T19:39:05.075Z</time>
      </trkpt>
      <trkpt lat="48.80051" lon="2.31814">
        <ele>140.2</ele>
        <time>2015-04-20T19:39:05.985Z</time>
      </trkpt>
      <trkpt lat="48.80058" lon="2.31818">
        <ele>140.7</ele>
        <time>2015-04-20T19:39:06.998Z</time>
      </trkpt>
      <trkpt lat="48.80066" lon="2.31819">
        <ele>141.1</ele>
        <time>2015-04-20T19:39:08.012Z</time>
      </trkpt>
      <trkpt lat="48.80071" lon="2.31821">
        <ele>141.6</ele>
        <time>2015-04-20T19:39:09.041Z</time>
      </trkpt>
      <trkpt lat="48.80076" lon="2.31824">
        <ele>142.2</ele>
        <time>2015-04-20T19:39:10.051Z</time>
      </trkpt>
      <trkpt lat="48.80081" lon="2.31827">
        <ele>141.9</ele>
        <time>2015-04-20T19:39:10.959Z</time>
      </trkpt>
      <trkpt lat="48.80086" lon="2.3183">
        <ele>141.4</ele>
        <time>2015-04-20T19:39:11.999Z</time>
      </trkpt>
      <trkpt lat="48.80093" lon="2.31834">
        <ele>139.8</ele>
        <time>2015-04-20T19:39:13.034Z</time>
      </trkpt>
      <trkpt lat="48.801" lon="2.31837">
        <ele>139.2</ele>
        <time>2015-04-20T19:39:14.048Z</time>
      </trkpt>
      <trkpt lat="48.80107" lon="2.31839">
        <ele>138.9</ele>
        <time>2015-04-20T19:39:15.058Z</time>
      </trkpt>
      <trkpt lat="48.80114" lon="2.3184">
        <ele>138.5</ele>
        <time>2015-04-20T19:39:15.981Z</time>
      </trkpt>
      <trkpt lat="48.80121" lon="2.3184">
        <ele>138.6</ele>
        <time>2015-04-20T19:39:16.970Z</time>
      </trkpt>
      <trkpt lat="48.80128" lon="2.31841">
        <ele>138.9</ele>
        <time>2015-04-20T19:39:17.985Z</time>
      </trkpt>
      <trkpt lat="48.80135" lon="2.31843">
        <ele>139.3</ele>
        <time>2015-04-20T19:39:18.999Z</time>
      </trkpt>
      <trkpt lat="48.80141" lon="2.31845">
        <ele>139.3</ele>
        <time>2015-04-20T19:39:20.005Z</time>
      </trkpt>
      <trkpt lat="48.80146" lon="2.31846">
        <ele>139</ele>
        <time>2015-04-20T19:39:21.022Z</time>
      </trkpt>
      <trkpt lat="48.80152" lon="2.31848">
        <ele>138.8</ele>
        <time>2015-04-20T19:39:22.039Z</time>
      </trkpt>
      <trkpt lat="48.80158" lon="2.3185">
        <ele>138.3</ele>
        <time>2015-04-20T19:39:23.046Z</time>
      </trkpt>
      <trkpt lat="48.80163" lon="2.31853">
        <ele>138</ele>
        <time>2015-04-20T19:39:23.972Z</time>
      </trkpt>
      <trkpt lat="48.80169" lon="2.31856">
        <ele>137.4</ele>
        <time>2015-04-20T19:39:24.972Z</time>
      </trkpt>
      <trkpt lat="48.80176" lon="2.31857">
        <ele>136.4</ele>
        <time>2015-04-20T19:39:25.987Z</time>
      </trkpt>
      <trkpt lat="48.80183" lon="2.31861">
        <ele>134.9</ele>
        <time>2015-04-20T19:39:27.011Z</time>
      </trkpt>
      <trkpt lat="48.80189" lon="2.31864">
        <ele>134.1</ele>
        <time>2015-04-20T19:39:28.046Z</time>
      </trkpt>
      <trkpt lat="48.80194" lon="2.31868">
        <ele>133.5</ele>
        <time>2015-04-20T19:39:29.050Z</time>
      </trkpt>
      <trkpt lat="48.80198" lon="2.31871">
        <ele>132.6</ele>
        <time>2015-04-20T19:39:30.058Z</time>
      </trkpt>
      <trkpt lat="48.80204" lon="2.31873">
        <ele>132.7</ele>
        <time>2015-04-20T19:39:30.972Z</time>
      </trkpt>
      <trkpt lat="48.80209" lon="2.31875">
        <ele>132.8</ele>
        <time>2015-04-20T19:39:31.980Z</time>
      </trkpt>
      <trkpt lat="48.80214" lon="2.31877">
        <ele>133.2</ele>
        <time>2015-04-20T19:39:33.015Z</time>
      </trkpt>
      <trkpt lat="48.80219" lon="2.3188">
        <ele>133</ele>
        <time>2015-04-20T19:39:34.021Z</time>
      </trkpt>
      <trkpt lat="48.80223" lon="2.31883">
        <ele>132.7</ele>
        <time>2015-04-20T19:39:35.034Z</time>
      </trkpt>
      <trkpt lat="48.80228" lon="2.31887">
        <ele>132.9</ele>
        <time>2015-04-20T19:39:36.045Z</time>
      </trkpt>
      <trkpt lat="48.80235" lon="2.31893">
        <ele>132.9</ele>
        <time>2015-04-20T19:39:37.986Z</time>
      </trkpt>
      <trkpt lat="48.80238" lon="2.31897">
        <ele>133.2</ele>
        <time>2015-04-20T19:39:39.032Z</time>
      </trkpt>
      <trkpt lat="48.80242" lon="2.31905">
        <ele>133.5</ele>
        <time>2015-04-20T19:39:41.049Z</time>
      </trkpt>
      <trkpt lat="48.80245" lon="2.31908">
        <ele>133.8</ele>
        <time>2015-04-20T19:39:42.064Z</time>
      </trkpt>
      <trkpt lat="48.80253" lon="2.31909">
        <ele>134.5</ele>
        <time>2015-04-20T19:39:44.026Z</time>
      </trkpt>
      <trkpt lat="48.8026" lon="2.3191">
        <ele>135.3</ele>
        <time>2015-04-20T19:39:44.988Z</time>
      </trkpt>
      <trkpt lat="48.80265" lon="2.31912">
        <ele>136.1</ele>
        <time>2015-04-20T19:39:46.057Z</time>
      </trkpt>
      <trkpt lat="48.8027" lon="2.31913">
        <ele>136.7</ele>
        <time>2015-04-20T19:39:46.976Z</time>
      </trkpt>
      <trkpt lat="48.80275" lon="2.31916">
        <ele>137.4</ele>
        <time>2015-04-20T19:39:47.983Z</time>
      </trkpt>
      <trkpt lat="48.8028" lon="2.31918">
        <ele>137.8</ele>
        <time>2015-04-20T19:39:49.028Z</time>
      </trkpt>
      <trkpt lat="48.80285" lon="2.3192">
        <ele>137.4</ele>
        <time>2015-04-20T19:39:50.036Z</time>
      </trkpt>
      <trkpt lat="48.80289" lon="2.31923">
        <ele>137.6</ele>
        <time>2015-04-20T19:39:51.056Z</time>
      </trkpt>
      <trkpt lat="48.80297" lon="2.31927">
        <ele>137.1</ele>
        <time>2015-04-20T19:39:53.015Z</time>
      </trkpt>
      <trkpt lat="48.80302" lon="2.31931">
        <ele>137.1</ele>
        <time>2015-04-20T19:39:54.012Z</time>
      </trkpt>
      <trkpt lat="48.80307" lon="2.31934">
        <ele>137</ele>
        <time>2015-04-20T19:39:55.065Z</time>
      </trkpt>
      <trkpt lat="48.80311" lon="2.31937">
        <ele>136.7</ele>
        <time>2015-04-20T19:39:55.963Z</time>
      </trkpt>
      <trkpt lat="48.80318" lon="2.31944">
        <ele>136.5</ele>
        <time>2015-04-20T19:39:58.434Z</time>
      </trkpt>
      <trkpt lat="48.80322" lon="2.31947">
        <ele>136.4</ele>
        <time>2015-04-20T19:39:59.056Z</time>
      </trkpt>
      <trkpt lat="48.80327" lon="2.31953">
        <ele>136.6</ele>
        <time>2015-04-20T19:40:00.999Z</time>
      </trkpt>
      <trkpt lat="48.80329" lon="2.31956">
        <ele>136.3</ele>
        <time>2015-04-20T19:40:01.983Z</time>
      </trkpt>
      <trkpt lat="48.80334" lon="2.31964">
        <ele>136.1</ele>
        <time>2015-04-20T19:40:04.084Z</time>
      </trkpt>
      <trkpt lat="48.80337" lon="2.31969">
        <ele>135.8</ele>
        <time>2015-04-20T19:40:04.987Z</time>
      </trkpt>
      <trkpt lat="48.80344" lon="2.31977">
        <ele>136.5</ele>
        <time>2015-04-20T19:40:07.060Z</time>
      </trkpt>
      <trkpt lat="48.80346" lon="2.31982">
        <ele>136.1</ele>
        <time>2015-04-20T19:40:08.063Z</time>
      </trkpt>
      <trkpt lat="48.8035" lon="2.31987">
        <ele>136.2</ele>
        <time>2015-04-20T19:40:09.112Z</time>
      </trkpt>
      <trkpt lat="48.80353" lon="2.31992">
        <ele>136.2</ele>
        <time>2015-04-20T19:40:09.979Z</time>
      </trkpt>
      <trkpt lat="48.80356" lon="2.31998">
        <ele>136.6</ele>
        <time>2015-04-20T19:40:11.014Z</time>
      </trkpt>
      <trkpt lat="48.8036" lon="2.32003">
        <ele>137</ele>
        <time>2015-04-20T19:40:12.040Z</time>
      </trkpt>
      <trkpt lat="48.80364" lon="2.32009">
        <ele>137.6</ele>
        <time>2015-04-20T19:40:13.013Z</time>
      </trkpt>
      <trkpt lat="48.80368" lon="2.32016">
        <ele>138.4</ele>
        <time>2015-04-20T19:40:14.023Z</time>
      </trkpt>
      <trkpt lat="48.80372" lon="2.32023">
        <ele>138.6</ele>
        <time>2015-04-20T19:40:15.043Z</time>
      </trkpt>
      <trkpt lat="48.80376" lon="2.3203">
        <ele>138.6</ele>
        <time>2015-04-20T19:40:16.052Z</time>
      </trkpt>
      <trkpt lat="48.8038" lon="2.32039">
        <ele>139.1</ele>
        <time>2015-04-20T19:40:16.998Z</time>
      </trkpt>
      <trkpt lat="48.80384" lon="2.32048">
        <ele>139.3</ele>
        <time>2015-04-20T19:40:18.026Z</time>
      </trkpt>
      <trkpt lat="48.80388" lon="2.32056">
        <ele>139.4</ele>
        <time>2015-04-20T19:40:19.036Z</time>
      </trkpt>
      <trkpt lat="48.80392" lon="2.32065">
        <ele>139.7</ele>
        <time>2015-04-20T19:40:19.984Z</time>
      </trkpt>
      <trkpt lat="48.80396" lon="2.32074">
        <ele>139.9</ele>
        <time>2015-04-20T19:40:21.024Z</time>
      </trkpt>
      <trkpt lat="48.804" lon="2.32083">
        <ele>140</ele>
        <time>2015-04-20T19:40:22.027Z</time>
      </trkpt>
      <trkpt lat="48.80405" lon="2.32092">
        <ele>140</ele>
        <time>2015-04-20T19:40:23.044Z</time>
      </trkpt>
      <trkpt lat="48.80408" lon="2.32101">
        <ele>139.6</ele>
        <time>2015-04-20T19:40:23.984Z</time>
      </trkpt>
      <trkpt lat="48.80411" lon="2.32109">
        <ele>139.3</ele>
        <time>2015-04-20T19:40:25Z</time>
      </trkpt>
      <trkpt lat="48.80414" lon="2.32118">
        <ele>139.2</ele>
        <time>2015-04-20T19:40:26.005Z</time>
      </trkpt>
      <trkpt lat="48.80417" lon="2.32128">
        <ele>138.9</ele>
        <time>2015-04-20T19:40:27.025Z</time>
      </trkpt>
      <trkpt lat="48.8042" lon="2.32137">
        <ele>139.2</ele>
        <time>2015-04-20T19:40:28.032Z</time>
      </trkpt>
      <trkpt lat="48.80424" lon="2.32146">
        <ele>138.8</ele>
        <time>2015-04-20T19:40:29.074Z</time>
      </trkpt>
      <trkpt lat="48.80428" lon="2.32156">
        <ele>138.5</ele>
        <time>2015-04-20T19:40:30.001Z</time>
      </trkpt>
      <trkpt lat="48.80433" lon="2.32167">
        <ele>138.2</ele>
        <time>2015-04-20T19:40:30.984Z</time>
      </trkpt>
      <trkpt lat="48.80437" lon="2.32177">
        <ele>137.9</ele>
        <time>2015-04-20T19:40:32.022Z</time>
      </trkpt>
      <trkpt lat="48.80442" lon="2.32186">
        <ele>137.8</ele>
        <time>2015-04-20T19:40:33.033Z</time>
      </trkpt>
      <trkpt lat="48.80447" lon="2.32196">
        <ele>137.5</ele>
        <time>2015-04-20T19:40:34.038Z</time>
      </trkpt>
      <trkpt lat="48.80452" lon="2.32205">
        <ele>137.5</ele>
        <time>2015-04-20T19:40:35.049Z</time>
      </trkpt>
      <trkpt lat="48.80458" lon="2.32215">
        <ele>137.7</ele>
        <time>2015-04-20T19:40:36.056Z</time>
      </trkpt>
      <trkpt lat="48.80463" lon="2.32224">
        <ele>138.1</ele>
        <time>2015-04-20T19:40:37.073Z</time>
      </trkpt>
      <trkpt lat="48.80468" lon="2.32232">
        <ele>138.5</ele>
        <time>2015-04-20T19:40:37.983Z</time>
      </trkpt>
      <trkpt lat="48.80471" lon="2.32239">
        <ele>138.6</ele>
        <time>2015-04-20T19:40:39.028Z</time>
      </trkpt>
      <trkpt lat="48.80474" lon="2.32246">
        <ele>138.7</ele>
        <time>2015-04-20T19:40:40.048Z</time>
      </trkpt>
      <trkpt lat="48.80477" lon="2.32252">
        <ele>139</ele>
        <time>2015-04-20T19:40:41.067Z</time>
      </trkpt>
      <trkpt lat="48.8048" lon="2.32258">
        <ele>139.3</ele>
        <time>2015-04-20T19:40:41.984Z</time>
      </trkpt>
      <trkpt lat="48.80486" lon="2.32268">
        <ele>139.4</ele>
        <time>2015-04-20T19:40:44.010Z</time>
      </trkpt>
      <trkpt lat="48.80489" lon="2.32273">
        <ele>139.8</ele>
        <time>2015-04-20T19:40:45.042Z</time>
      </trkpt>
      <trkpt lat="48.80493" lon="2.32278">
        <ele>140.8</ele>
        <time>2015-04-20T19:40:46.054Z</time>
      </trkpt>
      <trkpt lat="48.80498" lon="2.32284">
        <ele>142</ele>
        <time>2015-04-20T19:40:47.019Z</time>
      </trkpt>
      <trkpt lat="48.80502" lon="2.32289">
        <ele>142.9</ele>
        <time>2015-04-20T19:40:48.053Z</time>
      </trkpt>
      <trkpt lat="48.80505" lon="2.32294">
        <ele>143.3</ele>
        <time>2015-04-20T19:40:49.070Z</time>
      </trkpt>
      <trkpt lat="48.80509" lon="2.323">
        <ele>143.5</ele>
        <time>2015-04-20T19:40:50.080Z</time>
      </trkpt>
      <trkpt lat="48.80512" lon="2.32305">
        <ele>143.9</ele>
        <time>2015-04-20T19:40:51.090Z</time>
      </trkpt>
      <trkpt lat="48.80517" lon="2.32314">
        <ele>143.7</ele>
        <time>2015-04-20T19:40:53.006Z</time>
      </trkpt>
      <trkpt lat="48.80519" lon="2.32319">
        <ele>143.8</ele>
        <time>2015-04-20T19:40:54.067Z</time>
      </trkpt>
      <trkpt lat="48.80523" lon="2.3233">
        <ele>144.5</ele>
        <time>2015-04-20T19:40:56.017Z</time>
      </trkpt>
      <trkpt lat="48.80525" lon="2.32335">
        <ele>144.2</ele>
        <time>2015-04-20T19:40:57.063Z</time>
      </trkpt>
      <trkpt lat="48.8053" lon="2.32344">
        <ele>144.2</ele>
        <time>2015-04-20T19:40:58.996Z</time>
      </trkpt>
      <trkpt lat="48.80532" lon="2.32348">
        <ele>144.4</ele>
        <time>2015-04-20T19:40:59.968Z</time>
      </trkpt>
      <trkpt lat="48.80535" lon="2.32354">
        <ele>144.7</ele>
        <time>2015-04-20T19:41:00.982Z</time>
      </trkpt>
      <trkpt lat="48.80538" lon="2.32359">
        <ele>145.1</ele>
        <time>2015-04-20T19:41:01.990Z</time>
      </trkpt>
      <trkpt lat="48.80544" lon="2.32369">
        <ele>145.6</ele>
        <time>2015-04-20T19:41:04.027Z</time>
      </trkpt>
      <trkpt lat="48.80547" lon="2.32374">
        <ele>145.7</ele>
        <time>2015-04-20T19:41:04.973Z</time>
      </trkpt>
      <trkpt lat="48.80551" lon="2.32385">
        <ele>146</ele>
        <time>2015-04-20T19:41:07.033Z</time>
      </trkpt>
      <trkpt lat="48.80554" lon="2.3239">
        <ele>146.1</ele>
        <time>2015-04-20T19:41:08.079Z</time>
      </trkpt>
      <trkpt lat="48.80559" lon="2.32401">
        <ele>145.6</ele>
        <time>2015-04-20T19:41:10.016Z</time>
      </trkpt>
      <trkpt lat="48.80561" lon="2.32407">
        <ele>145.6</ele>
        <time>2015-04-20T19:41:10.996Z</time>
      </trkpt>
      <trkpt lat="48.80565" lon="2.32415">
        <ele>145.6</ele>
        <time>2015-04-20T19:41:11.989Z</time>
      </trkpt>
      <trkpt lat="48.80567" lon="2.32421">
        <ele>145.8</ele>
        <time>2015-04-20T19:41:13.038Z</time>
      </trkpt>
      <trkpt lat="48.8057" lon="2.32428">
        <ele>146</ele>
        <time>2015-04-20T19:41:13.970Z</time>
      </trkpt>
      <trkpt lat="48.80573" lon="2.32433">
        <ele>145.8</ele>
        <time>2015-04-20T19:41:15.013Z</time>
      </trkpt>
      <trkpt lat="48.80576" lon="2.3244">
        <ele>145.5</ele>
        <time>2015-04-20T19:41:16.006Z</time>
      </trkpt>
      <trkpt lat="48.8058" lon="2.32446">
        <ele>145.4</ele>
        <time>2015-04-20T19:41:17.014Z</time>
      </trkpt>
      <trkpt lat="48.80583" lon="2.32452">
        <ele>145.4</ele>
        <time>2015-04-20T19:41:18.010Z</time>
      </trkpt>
      <trkpt lat="48.80586" lon="2.32458">
        <ele>145.3</ele>
        <time>2015-04-20T19:41:18.998Z</time>
      </trkpt>
      <trkpt lat="48.80589" lon="2.32465">
        <ele>145.2</ele>
        <time>2015-04-20T19:41:20.010Z</time>
      </trkpt>
      <trkpt lat="48.80591" lon="2.32471">
        <ele>145.1</ele>
        <time>2015-04-20T19:41:21.023Z</time>
      </trkpt>
      <trkpt lat="48.80594" lon="2.32477">
        <ele>145.1</ele>
        <time>2015-04-20T19:41:22.075Z</time>
      </trkpt>
      <trkpt lat="48.80598" lon="2.32484">
        <ele>145.2</ele>
        <time>2015-04-20T19:41:23.076Z</time>
      </trkpt>
      <trkpt lat="48.806" lon="2.3249">
        <ele>145.1</ele>
        <time>2015-04-20T19:41:23.993Z</time>
      </trkpt>
      <trkpt lat="48.80603" lon="2.32496">
        <ele>145.2</ele>
        <time>2015-04-20T19:41:25.009Z</time>
      </trkpt>
      <trkpt lat="48.80606" lon="2.32501">
        <ele>145.2</ele>
        <time>2015-04-20T19:41:26.046Z</time>
      </trkpt>
      <trkpt lat="48.80609" lon="2.32507">
        <ele>145.4</ele>
        <time>2015-04-20T19:41:27.113Z</time>
      </trkpt>
      <trkpt lat="48.80611" lon="2.32513">
        <ele>145.4</ele>
        <time>2015-04-20T19:41:28.123Z</time>
      </trkpt>
      <trkpt lat="48.80613" lon="2.32519">
        <ele>145.5</ele>
        <time>2015-04-20T19:41:29.016Z</time>
      </trkpt>
      <trkpt lat="48.80617" lon="2.3253">
        <ele>145.4</ele>
        <time>2015-04-20T19:41:31.023Z</time>
      </trkpt>
      <trkpt lat="48.80619" lon="2.32536">
        <ele>145.2</ele>
        <time>2015-04-20T19:41:32.036Z</time>
      </trkpt>
      <trkpt lat="48.80621" lon="2.32545">
        <ele>144.9</ele>
        <time>2015-04-20T19:41:34.010Z</time>
      </trkpt>
      <trkpt lat="48.80622" lon="2.32549">
        <ele>144.7</ele>
        <time>2015-04-20T19:41:35.023Z</time>
      </trkpt>
      <trkpt lat="48.80625" lon="2.32562">
        <ele>144.6</ele>
        <time>2015-04-20T19:41:40.050Z</time>
      </trkpt>
      <trkpt lat="48.80625" lon="2.32562">
        <ele>144.6</ele>
        <time>2015-04-20T19:41:41.059Z</time>
      </trkpt>
      <trkpt lat="48.80621" lon="2.32571">
        <ele>139.6</ele>
        <time>2015-04-20T19:42:47.994Z</time>
      </trkpt>
      <trkpt lat="48.80621" lon="2.32576">
        <ele>139.7</ele>
        <time>2015-04-20T19:42:49.002Z</time>
      </trkpt>
      <trkpt lat="48.80623" lon="2.32587">
        <ele>139.7</ele>
        <time>2015-04-20T19:42:52.060Z</time>
      </trkpt>
      <trkpt lat="48.80624" lon="2.32589">
        <ele>139.7</ele>
        <time>2015-04-20T19:42:52.974Z</time>
      </trkpt>
      <trkpt lat="48.8063" lon="2.32594">
        <ele>139.8</ele>
        <time>2015-04-20T19:42:55.014Z</time>
      </trkpt>
      <trkpt lat="48.80633" lon="2.32595">
        <ele>139.9</ele>
        <time>2015-04-20T19:42:56.033Z</time>
      </trkpt>
      <trkpt lat="48.80638" lon="2.32601">
        <ele>140.2</ele>
        <time>2015-04-20T19:42:59.020Z</time>
      </trkpt>
      <trkpt lat="48.80641" lon="2.32602">
        <ele>140.4</ele>
        <time>2015-04-20T19:43:00.210Z</time>
      </trkpt>
      <trkpt lat="48.80648" lon="2.32605">
        <ele>140.7</ele>
        <time>2015-04-20T19:43:02.025Z</time>
      </trkpt>
      <trkpt lat="48.80653" lon="2.32606">
        <ele>140.6</ele>
        <time>2015-04-20T19:43:03.076Z</time>
      </trkpt>
      <trkpt lat="48.8066" lon="2.32607">
        <ele>140.8</ele>
        <time>2015-04-20T19:43:05.001Z</time>
      </trkpt>
      <trkpt lat="48.80663" lon="2.32608">
        <ele>140.6</ele>
        <time>2015-04-20T19:43:06.068Z</time>
      </trkpt>
      <trkpt lat="48.8067" lon="2.32609">
        <ele>140.2</ele>
        <time>2015-04-20T19:43:08.010Z</time>
      </trkpt>
      <trkpt lat="48.80675" lon="2.3261">
        <ele>140</ele>
        <time>2015-04-20T19:43:09.107Z</time>
      </trkpt>
      <trkpt lat="48.80679" lon="2.32611">
        <ele>139.8</ele>
        <time>2015-04-20T19:43:10.016Z</time>
      </trkpt>
      <trkpt lat="48.80684" lon="2.32612">
        <ele>139.3</ele>
        <time>2015-04-20T19:43:11.020Z</time>
      </trkpt>
      <trkpt lat="48.80689" lon="2.32615">
        <ele>138.2</ele>
        <time>2015-04-20T19:43:12.070Z</time>
      </trkpt>
      <trkpt lat="48.80695" lon="2.32618">
        <ele>137.3</ele>
        <time>2015-04-20T19:43:13.198Z</time>
      </trkpt>
      <trkpt lat="48.80701" lon="2.32619">
        <ele>137.1</ele>
        <time>2015-04-20T19:43:14.119Z</time>
      </trkpt>
      <trkpt lat="48.80707" lon="2.3262">
        <ele>137.4</ele>
        <time>2015-04-20T19:43:15.110Z</time>
      </trkpt>
      <trkpt lat="48.80713" lon="2.32621">
        <ele>137.1</ele>
        <time>2015-04-20T19:43:16.007Z</time>
      </trkpt>
      <trkpt lat="48.8072" lon="2.32623">
        <ele>137</ele>
        <time>2015-04-20T19:43:17.017Z</time>
      </trkpt>
      <trkpt lat="48.80726" lon="2.32624">
        <ele>136.9</ele>
        <time>2015-04-20T19:43:18.013Z</time>
      </trkpt>
      <trkpt lat="48.80731" lon="2.32625">
        <ele>137</ele>
        <time>2015-04-20T19:43:19.018Z</time>
      </trkpt>
      <trkpt lat="48.80739" lon="2.32626">
        <ele>136.7</ele>
        <time>2015-04-20T19:43:21.066Z</time>
      </trkpt>
      <trkpt lat="48.80744" lon="2.32627">
        <ele>136.5</ele>
        <time>2015-04-20T19:43:22.094Z</time>
      </trkpt>
      <trkpt lat="48.8075" lon="2.32627">
        <ele>136.7</ele>
        <time>2015-04-20T19:43:22.982Z</time>
      </trkpt>
      <trkpt lat="48.80755" lon="2.32629">
        <ele>136.6</ele>
        <time>2015-04-20T19:43:24.116Z</time>
      </trkpt>
      <trkpt lat="48.80761" lon="2.32631">
        <ele>136.6</ele>
        <time>2015-04-20T19:43:25.017Z</time>
      </trkpt>
      <trkpt lat="48.80766" lon="2.32634">
        <ele>136.7</ele>
        <time>2015-04-20T19:43:26.021Z</time>
      </trkpt>
      <trkpt lat="48.80772" lon="2.32636">
        <ele>136.4</ele>
        <time>2015-04-20T19:43:27.066Z</time>
      </trkpt>
      <trkpt lat="48.80776" lon="2.32636">
        <ele>135.7</ele>
        <time>2015-04-20T19:43:28.088Z</time>
      </trkpt>
      <trkpt lat="48.80781" lon="2.32637">
        <ele>135.5</ele>
        <time>2015-04-20T19:43:28.976Z</time>
      </trkpt>
      <trkpt lat="48.80786" lon="2.32638">
        <ele>135.4</ele>
        <time>2015-04-20T19:43:29.996Z</time>
      </trkpt>
      <trkpt lat="48.80791" lon="2.3264">
        <ele>135.2</ele>
        <time>2015-04-20T19:43:31.036Z</time>
      </trkpt>
      <trkpt lat="48.80795" lon="2.32641">
        <ele>135.1</ele>
        <time>2015-04-20T19:43:32.045Z</time>
      </trkpt>
      <trkpt lat="48.808" lon="2.32642">
        <ele>135</ele>
        <time>2015-04-20T19:43:33.053Z</time>
      </trkpt>
      <trkpt lat="48.80805" lon="2.32643">
        <ele>135</ele>
        <time>2015-04-20T19:43:34.066Z</time>
      </trkpt>
      <trkpt lat="48.80809" lon="2.32644">
        <ele>134.9</ele>
        <time>2015-04-20T19:43:35.006Z</time>
      </trkpt>
      <trkpt lat="48.80815" lon="2.32645">
        <ele>135</ele>
        <time>2015-04-20T19:43:35.969Z</time>
      </trkpt>
      <trkpt lat="48.80821" lon="2.32645">
        <ele>135.2</ele>
        <time>2015-04-20T19:43:37.019Z</time>
      </trkpt>
      <trkpt lat="48.80826" lon="2.32647">
        <ele>135.4</ele>
        <time>2015-04-20T19:43:38.042Z</time>
      </trkpt>
      <trkpt lat="48.80832" lon="2.3265">
        <ele>136.5</ele>
        <time>2015-04-20T19:43:39.115Z</time>
      </trkpt>
      <trkpt lat="48.80837" lon="2.32651">
        <ele>136.5</ele>
        <time>2015-04-20T19:43:40.117Z</time>
      </trkpt>
      <trkpt lat="48.80845" lon="2.32652">
        <ele>137.5</ele>
        <time>2015-04-20T19:43:42.017Z</time>
      </trkpt>
      <trkpt lat="48.80849" lon="2.32652">
        <ele>137.6</ele>
        <time>2015-04-20T19:43:43.031Z</time>
      </trkpt>
      <trkpt lat="48.80857" lon="2.3265">
        <ele>137</ele>
        <time>2015-04-20T19:43:45.073Z</time>
      </trkpt>
      <trkpt lat="48.80861" lon="2.32649">
        <ele>136.5</ele>
        <time>2015-04-20T19:43:46.090Z</time>
      </trkpt>
      <trkpt lat="48.80867" lon="2.32647">
        <ele>136.2</ele>
        <time>2015-04-20T19:43:47.003Z</time>
      </trkpt>
      <trkpt lat="48.8087" lon="2.32647">
        <ele>135.9</ele>
        <time>2015-04-20T19:43:48Z</time>
      </trkpt>
      <trkpt lat="48.80879" lon="2.32646">
        <ele>135.5</ele>
        <time>2015-04-20T19:43:50.031Z</time>
      </trkpt>
      <trkpt lat="48.80882" lon="2.32646">
        <ele>135.2</ele>
        <time>2015-04-20T19:43:51.052Z</time>
      </trkpt>
      <trkpt lat="48.80889" lon="2.32648">
        <ele>135.5</ele>
        <time>2015-04-20T19:43:53.071Z</time>
      </trkpt>
      <trkpt lat="48.80893" lon="2.3265">
        <ele>136</ele>
        <time>2015-04-20T19:43:54.080Z</time>
      </trkpt>
      <trkpt lat="48.80897" lon="2.32649">
        <ele>136.3</ele>
        <time>2015-04-20T19:43:55.005Z</time>
      </trkpt>
      <trkpt lat="48.80903" lon="2.32647">
        <ele>136.6</ele>
        <time>2015-04-20T19:43:56.013Z</time>
      </trkpt>
      <trkpt lat="48.80909" lon="2.32645">
        <ele>136.7</ele>
        <time>2015-04-20T19:43:57.046Z</time>
      </trkpt>
      <trkpt lat="48.80914" lon="2.32644">
        <ele>136.8</ele>
        <time>2015-04-20T19:43:58.046Z</time>
      </trkpt>
      <trkpt lat="48.80919" lon="2.32644">
        <ele>136.8</ele>
        <time>2015-04-20T19:43:59.076Z</time>
      </trkpt>
      <trkpt lat="48.80924" lon="2.32645">
        <ele>136.8</ele>
        <time>2015-04-20T19:43:59.970Z</time>
      </trkpt>
      <trkpt lat="48.80929" lon="2.32646">
        <ele>136.8</ele>
        <time>2015-04-20T19:44:00.979Z</time>
      </trkpt>
      <trkpt lat="48.80934" lon="2.32647">
        <ele>136.7</ele>
        <time>2015-04-20T19:44:02.021Z</time>
      </trkpt>
      <trkpt lat="48.80942" lon="2.3265">
        <ele>136.4</ele>
        <time>2015-04-20T19:44:04.044Z</time>
      </trkpt>
      <trkpt lat="48.80947" lon="2.32655">
        <ele>135.6</ele>
        <time>2015-04-20T19:44:05.260Z</time>
      </trkpt>
      <trkpt lat="48.80952" lon="2.3266">
        <ele>134.7</ele>
        <time>2015-04-20T19:44:06.084Z</time>
      </trkpt>
      <trkpt lat="48.80956" lon="2.32665">
        <ele>134.1</ele>
        <time>2015-04-20T19:44:06.997Z</time>
      </trkpt>
      <trkpt lat="48.80961" lon="2.32668">
        <ele>133.9</ele>
        <time>2015-04-20T19:44:08.006Z</time>
      </trkpt>
      <trkpt lat="48.80967" lon="2.32674">
        <ele>132.9</ele>
        <time>2015-04-20T19:44:09.013Z</time>
      </trkpt>
      <trkpt lat="48.80972" lon="2.32679">
        <ele>132.4</ele>
        <time>2015-04-20T19:44:10.033Z</time>
      </trkpt>
      <trkpt lat="48.80976" lon="2.32686">
        <ele>131.2</ele>
        <time>2015-04-20T19:44:11.052Z</time>
      </trkpt>
      <trkpt lat="48.8098" lon="2.32691">
        <ele>130.4</ele>
        <time>2015-04-20T19:44:12.050Z</time>
      </trkpt>
      <trkpt lat="48.80983" lon="2.32696">
        <ele>129.8</ele>
        <time>2015-04-20T19:44:13.052Z</time>
      </trkpt>
      <trkpt lat="48.80988" lon="2.32705">
        <ele>129.5</ele>
        <time>2015-04-20T19:44:15.076Z</time>
      </trkpt>
      <trkpt lat="48.80991" lon="2.32708">
        <ele>129.4</ele>
        <time>2015-04-20T19:44:16.007Z</time>
      </trkpt>
      <trkpt lat="48.80994" lon="2.32716">
        <ele>129.7</ele>
        <time>2015-04-20T19:44:18.029Z</time>
      </trkpt>
      <trkpt lat="48.80995" lon="2.3272">
        <ele>130.1</ele>
        <time>2015-04-20T19:44:19.075Z</time>
      </trkpt>
      <trkpt lat="48.80995" lon="2.32729">
        <ele>130.7</ele>
        <time>2015-04-20T19:44:21.036Z</time>
      </trkpt>
      <trkpt lat="48.80994" lon="2.32734">
        <ele>131.7</ele>
        <time>2015-04-20T19:44:22.041Z</time>
      </trkpt>
      <trkpt lat="48.8099" lon="2.32741">
        <ele>132.4</ele>
        <time>2015-04-20T19:44:23.989Z</time>
      </trkpt>
      <trkpt lat="48.80988" lon="2.32745">
        <ele>132.4</ele>
        <time>2015-04-20T19:44:25.029Z</time>
      </trkpt>
      <trkpt lat="48.80985" lon="2.32754">
        <ele>133.5</ele>
        <time>2015-04-20T19:44:27.048Z</time>
      </trkpt>
      <trkpt lat="48.80983" lon="2.32758">
        <ele>134.2</ele>
        <time>2015-04-20T19:44:27.959Z</time>
      </trkpt>
      <trkpt lat="48.80982" lon="2.32767">
        <ele>136.1</ele>
        <time>2015-04-20T19:44:29.968Z</time>
      </trkpt>
      <trkpt lat="48.8098" lon="2.32772">
        <ele>137.3</ele>
        <time>2015-04-20T19:44:30.994Z</time>
      </trkpt>
      <trkpt lat="48.80977" lon="2.32777">
        <ele>136.3</ele>
        <time>2015-04-20T19:44:32.003Z</time>
      </trkpt>
      <trkpt lat="48.80975" lon="2.32783">
        <ele>135.9</ele>
        <time>2015-04-20T19:44:33.060Z</time>
      </trkpt>
      <trkpt lat="48.80972" lon="2.32794">
        <ele>136</ele>
        <time>2015-04-20T19:44:34.997Z</time>
      </trkpt>
      <trkpt lat="48.80971" lon="2.32801">
        <ele>136.3</ele>
        <time>2015-04-20T19:44:36.116Z</time>
      </trkpt>
      <trkpt lat="48.80968" lon="2.32808">
        <ele>136.6</ele>
        <time>2015-04-20T19:44:36.955Z</time>
      </trkpt>
      <trkpt lat="48.80967" lon="2.32814">
        <ele>136.8</ele>
        <time>2015-04-20T19:44:37.967Z</time>
      </trkpt>
      <trkpt lat="48.80964" lon="2.32821">
        <ele>134.9</ele>
        <time>2015-04-20T19:44:39.025Z</time>
      </trkpt>
      <trkpt lat="48.80962" lon="2.32827">
        <ele>134.1</ele>
        <time>2015-04-20T19:44:40.039Z</time>
      </trkpt>
      <trkpt lat="48.8096" lon="2.32834">
        <ele>133.7</ele>
        <time>2015-04-20T19:44:41.049Z</time>
      </trkpt>
      <trkpt lat="48.80957" lon="2.3284">
        <ele>133</ele>
        <time>2015-04-20T19:44:41.957Z</time>
      </trkpt>
      <trkpt lat="48.80955" lon="2.32846">
        <ele>132.6</ele>
        <time>2015-04-20T19:44:42.981Z</time>
      </trkpt>
      <trkpt lat="48.80952" lon="2.32852">
        <ele>131.8</ele>
        <time>2015-04-20T19:44:44.004Z</time>
      </trkpt>
      <trkpt lat="48.8095" lon="2.32859">
        <ele>130.8</ele>
        <time>2015-04-20T19:44:45.025Z</time>
      </trkpt>
      <trkpt lat="48.80947" lon="2.32867">
        <ele>130.4</ele>
        <time>2015-04-20T19:44:46.034Z</time>
      </trkpt>
      <trkpt lat="48.80945" lon="2.32873">
        <ele>130</ele>
        <time>2015-04-20T19:44:46.970Z</time>
      </trkpt>
      <trkpt lat="48.80943" lon="2.32881">
        <ele>129.4</ele>
        <time>2015-04-20T19:44:47.971Z</time>
      </trkpt>
      <trkpt lat="48.8094" lon="2.32888">
        <ele>128.6</ele>
        <time>2015-04-20T19:44:48.983Z</time>
      </trkpt>
      <trkpt lat="48.80938" lon="2.32895">
        <ele>127.5</ele>
        <time>2015-04-20T19:44:50.004Z</time>
      </trkpt>
      <trkpt lat="48.80936" lon="2.32902">
        <ele>126.9</ele>
        <time>2015-04-20T19:44:51.028Z</time>
      </trkpt>
      <trkpt lat="48.80935" lon="2.32909">
        <ele>126.4</ele>
        <time>2015-04-20T19:44:52.036Z</time>
      </trkpt>
      <trkpt lat="48.80933" lon="2.32915">
        <ele>126.1</ele>
        <time>2015-04-20T19:44:52.932Z</time>
      </trkpt>
      <trkpt lat="48.80931" lon="2.32922">
        <ele>125.8</ele>
        <time>2015-04-20T19:44:53.960Z</time>
      </trkpt>
      <trkpt lat="48.80929" lon="2.3293">
        <ele>126</ele>
        <time>2015-04-20T19:44:54.981Z</time>
      </trkpt>
      <trkpt lat="48.80927" lon="2.32936">
        <ele>126.2</ele>
        <time>2015-04-20T19:44:56.008Z</time>
      </trkpt>
      <trkpt lat="48.80926" lon="2.32944">
        <ele>126.4</ele>
        <time>2015-04-20T19:44:56.999Z</time>
      </trkpt>
      <trkpt lat="48.80924" lon="2.32952">
        <ele>126.7</ele>
        <time>2015-04-20T19:44:58Z</time>
      </trkpt>
      <trkpt lat="48.80921" lon="2.32958">
        <ele>126.5</ele>
        <time>2015-04-20T19:44:59.015Z</time>
      </trkpt>
      <trkpt lat="48.80919" lon="2.32966">
        <ele>126.4</ele>
        <time>2015-04-20T19:45:00.027Z</time>
      </trkpt>
      <trkpt lat="48.80917" lon="2.32972">
        <ele>126.5</ele>
        <time>2015-04-20T19:45:01.064Z</time>
      </trkpt>
      <trkpt lat="48.80915" lon="2.3298">
        <ele>126.7</ele>
        <time>2015-04-20T19:45:01.965Z</time>
      </trkpt>
      <trkpt lat="48.80914" lon="2.32986">
        <ele>126.7</ele>
        <time>2015-04-20T19:45:03.081Z</time>
      </trkpt>
      <trkpt lat="48.80912" lon="2.32993">
        <ele>126.7</ele>
        <time>2015-04-20T19:45:03.957Z</time>
      </trkpt>
      <trkpt lat="48.8091" lon="2.33">
        <ele>126.6</ele>
        <time>2015-04-20T19:45:04.957Z</time>
      </trkpt>
      <trkpt lat="48.80907" lon="2.33008">
        <ele>126.7</ele>
        <time>2015-04-20T19:45:05.981Z</time>
      </trkpt>
      <trkpt lat="48.80904" lon="2.33015">
        <ele>126.9</ele>
        <time>2015-04-20T19:45:07.021Z</time>
      </trkpt>
      <trkpt lat="48.80902" lon="2.33021">
        <ele>127.2</ele>
        <time>2015-04-20T19:45:08.039Z</time>
      </trkpt>
      <trkpt lat="48.809" lon="2.33029">
        <ele>127.2</ele>
        <time>2015-04-20T19:45:09.050Z</time>
      </trkpt>
      <trkpt lat="48.80898" lon="2.33036">
        <ele>127.4</ele>
        <time>2015-04-20T19:45:09.961Z</time>
      </trkpt>
      <trkpt lat="48.80896" lon="2.33043">
        <ele>127.3</ele>
        <time>2015-04-20T19:45:10.975Z</time>
      </trkpt>
      <trkpt lat="48.80894" lon="2.3305">
        <ele>127.3</ele>
        <time>2015-04-20T19:45:11.978Z</time>
      </trkpt>
      <trkpt lat="48.80891" lon="2.33056">
        <ele>126.8</ele>
        <time>2015-04-20T19:45:13.023Z</time>
      </trkpt>
      <trkpt lat="48.80889" lon="2.33061">
        <ele>126.6</ele>
        <time>2015-04-20T19:45:14.052Z</time>
      </trkpt>
      <trkpt lat="48.80884" lon="2.33071">
        <ele>126.4</ele>
        <time>2015-04-20T19:45:15.970Z</time>
      </trkpt>
      <trkpt lat="48.80882" lon="2.33075">
        <ele>125.9</ele>
        <time>2015-04-20T19:45:16.984Z</time>
      </trkpt>
      <trkpt lat="48.80877" lon="2.33086">
        <ele>125.5</ele>
        <time>2015-04-20T19:45:19.037Z</time>
      </trkpt>
      <trkpt lat="48.80875" lon="2.33092">
        <ele>125.6</ele>
        <time>2015-04-20T19:45:20.046Z</time>
      </trkpt>
      <trkpt lat="48.80871" lon="2.33103">
        <ele>124.8</ele>
        <time>2015-04-20T19:45:22.072Z</time>
      </trkpt>
      <trkpt lat="48.80869" lon="2.33109">
        <ele>124.8</ele>
        <time>2015-04-20T19:45:22.990Z</time>
      </trkpt>
      <trkpt lat="48.80864" lon="2.3312">
        <ele>125.6</ele>
        <time>2015-04-20T19:45:25.023Z</time>
      </trkpt>
      <trkpt lat="48.80862" lon="2.33124">
        <ele>125.4</ele>
        <time>2015-04-20T19:45:26.045Z</time>
      </trkpt>
      <trkpt lat="48.80858" lon="2.33135">
        <ele>125.6</ele>
        <time>2015-04-20T19:45:28.012Z</time>
      </trkpt>
      <trkpt lat="48.80856" lon="2.33139">
        <ele>125.7</ele>
        <time>2015-04-20T19:45:29.022Z</time>
      </trkpt>
      <trkpt lat="48.80852" lon="2.33151">
        <ele>125.4</ele>
        <time>2015-04-20T19:45:31.993Z</time>
      </trkpt>
      <trkpt lat="48.8085" lon="2.33154">
        <ele>125.2</ele>
        <time>2015-04-20T19:45:33.004Z</time>
      </trkpt>
      <trkpt lat="48.80847" lon="2.33159">
        <ele>124.6</ele>
        <time>2015-04-20T19:45:48.943Z</time>
      </trkpt>
      <trkpt lat="48.80841" lon="2.33188">
        <ele>128.6</ele>
        <time>2015-04-20T19:45:49.963Z</time>
      </trkpt>
      <trkpt lat="48.80835" lon="2.33196">
        <ele>127.3</ele>
        <time>2015-04-20T19:45:51.992Z</time>
      </trkpt>
      <trkpt lat="48.80833" lon="2.332">
        <ele>126.9</ele>
        <time>2015-04-20T19:45:53.043Z</time>
      </trkpt>
      <trkpt lat="48.80827" lon="2.33208">
        <ele>124.9</ele>
        <time>2015-04-20T19:45:55.981Z</time>
      </trkpt>
      <trkpt lat="48.80825" lon="2.33214">
        <ele>124.5</ele>
        <time>2015-04-20T19:45:57.061Z</time>
      </trkpt>
      <trkpt lat="48.80823" lon="2.3322">
        <ele>124.2</ele>
        <time>2015-04-20T19:45:57.984Z</time>
      </trkpt>
      <trkpt lat="48.8082" lon="2.33226">
        <ele>124</ele>
        <time>2015-04-20T19:45:58.997Z</time>
      </trkpt>
      <trkpt lat="48.80817" lon="2.33232">
        <ele>123.4</ele>
        <time>2015-04-20T19:46:00.021Z</time>
      </trkpt>
      <trkpt lat="48.80814" lon="2.33237">
        <ele>123.1</ele>
        <time>2015-04-20T19:46:01.031Z</time>
      </trkpt>
      <trkpt lat="48.8081" lon="2.33247">
        <ele>122.7</ele>
        <time>2015-04-20T19:46:03.054Z</time>
      </trkpt>
      <trkpt lat="48.80808" lon="2.33253">
        <ele>122.5</ele>
        <time>2015-04-20T19:46:03.951Z</time>
      </trkpt>
      <trkpt lat="48.80805" lon="2.33259">
        <ele>122.3</ele>
        <time>2015-04-20T19:46:04.977Z</time>
      </trkpt>
      <trkpt lat="48.80803" lon="2.33266">
        <ele>122.1</ele>
        <time>2015-04-20T19:46:05.979Z</time>
      </trkpt>
      <trkpt lat="48.80801" lon="2.33278">
        <ele>122</ele>
        <time>2015-04-20T19:46:08.019Z</time>
      </trkpt>
      <trkpt lat="48.80802" lon="2.33284">
        <ele>121.9</ele>
        <time>2015-04-20T19:46:09.027Z</time>
      </trkpt>
      <trkpt lat="48.80804" lon="2.33295">
        <ele>122.5</ele>
        <time>2015-04-20T19:46:11.976Z</time>
      </trkpt>
      <trkpt lat="48.80805" lon="2.33298">
        <ele>122.5</ele>
        <time>2015-04-20T19:46:12.976Z</time>
      </trkpt>
      <trkpt lat="48.80804" lon="2.33311">
        <ele>122.2</ele>
        <time>2015-04-20T19:46:17.001Z</time>
      </trkpt>
      <trkpt lat="48.80805" lon="2.33315">
        <ele>122.2</ele>
        <time>2015-04-20T19:46:18.020Z</time>
      </trkpt>
      <trkpt lat="48.80804" lon="2.33325">
        <ele>122.8</ele>
        <time>2015-04-20T19:46:21.088Z</time>
      </trkpt>
      <trkpt lat="48.80803" lon="2.33328">
        <ele>123.1</ele>
        <time>2015-04-20T19:46:22.035Z</time>
      </trkpt>
      <trkpt lat="48.80801" lon="2.33336">
        <ele>124.3</ele>
        <time>2015-04-20T19:46:24.018Z</time>
      </trkpt>
      <trkpt lat="48.80798" lon="2.33342">
        <ele>124.7</ele>
        <time>2015-04-20T19:46:25.027Z</time>
      </trkpt>
      <trkpt lat="48.80796" lon="2.33348">
        <ele>124.6</ele>
        <time>2015-04-20T19:46:26.052Z</time>
      </trkpt>
      <trkpt lat="48.80793" lon="2.33354">
        <ele>123.9</ele>
        <time>2015-04-20T19:46:27.052Z</time>
      </trkpt>
      <trkpt lat="48.8079" lon="2.33361">
        <ele>123</ele>
        <time>2015-04-20T19:46:27.985Z</time>
      </trkpt>
      <trkpt lat="48.80788" lon="2.33367">
        <ele>122.3</ele>
        <time>2015-04-20T19:46:29.001Z</time>
      </trkpt>
      <trkpt lat="48.80785" lon="2.33372">
        <ele>121.6</ele>
        <time>2015-04-20T19:46:30.004Z</time>
      </trkpt>
      <trkpt lat="48.80781" lon="2.33377">
        <ele>120.8</ele>
        <time>2015-04-20T19:46:31.022Z</time>
      </trkpt>
      <trkpt lat="48.80775" lon="2.33387">
        <ele>120.5</ele>
        <time>2015-04-20T19:46:33.044Z</time>
      </trkpt>
      <trkpt lat="48.80773" lon="2.33393">
        <ele>120.3</ele>
        <time>2015-04-20T19:46:33.969Z</time>
      </trkpt>
      <trkpt lat="48.80768" lon="2.33403">
        <ele>120.4</ele>
        <time>2015-04-20T19:46:35.990Z</time>
      </trkpt>
      <trkpt lat="48.80766" lon="2.33411">
        <ele>120.8</ele>
        <time>2015-04-20T19:46:36.995Z</time>
      </trkpt>
      <trkpt lat="48.80761" lon="2.3342">
        <ele>121.7</ele>
        <time>2015-04-20T19:46:39.082Z</time>
      </trkpt>
      <trkpt lat="48.8076" lon="2.33424">
        <ele>121.5</ele>
        <time>2015-04-20T19:46:40.005Z</time>
      </trkpt>
      <trkpt lat="48.80757" lon="2.33431">
        <ele>121.2</ele>
        <time>2015-04-20T19:46:41.978Z</time>
      </trkpt>
      <trkpt lat="48.80756" lon="2.33436">
        <ele>121.2</ele>
        <time>2015-04-20T19:46:42.980Z</time>
      </trkpt>
      <trkpt lat="48.80753" lon="2.33448">
        <ele>121.4</ele>
        <time>2015-04-20T19:46:45.028Z</time>
      </trkpt>
      <trkpt lat="48.80751" lon="2.33455">
        <ele>120.6</ele>
        <time>2015-04-20T19:46:46.036Z</time>
      </trkpt>
      <trkpt lat="48.80749" lon="2.33463">
        <ele>120.1</ele>
        <time>2015-04-20T19:46:47.049Z</time>
      </trkpt>
      <trkpt lat="48.80746" lon="2.33471">
        <ele>119.2</ele>
        <time>2015-04-20T19:46:48.081Z</time>
      </trkpt>
      <trkpt lat="48.80744" lon="2.33478">
        <ele>118.3</ele>
        <time>2015-04-20T19:46:48.980Z</time>
      </trkpt>
      <trkpt lat="48.80741" lon="2.33485">
        <ele>117.9</ele>
        <time>2015-04-20T19:46:49.982Z</time>
      </trkpt>
      <trkpt lat="48.80738" lon="2.33493">
        <ele>117.4</ele>
        <time>2015-04-20T19:46:51.021Z</time>
      </trkpt>
      <trkpt lat="48.80736" lon="2.335">
        <ele>117.3</ele>
        <time>2015-04-20T19:46:52.032Z</time>
      </trkpt>
      <trkpt lat="48.80733" lon="2.33508">
        <ele>116.9</ele>
        <time>2015-04-20T19:46:53.050Z</time>
      </trkpt>
      <trkpt lat="48.8073" lon="2.33514">
        <ele>116.9</ele>
        <time>2015-04-20T19:46:53.974Z</time>
      </trkpt>
      <trkpt lat="48.80726" lon="2.33525">
        <ele>116.7</ele>
        <time>2015-04-20T19:46:56.016Z</time>
      </trkpt>
      <trkpt lat="48.80724" lon="2.3353">
        <ele>116.9</ele>
        <time>2015-04-20T19:46:57.180Z</time>
      </trkpt>
      <trkpt lat="48.8072" lon="2.33538">
        <ele>117.1</ele>
        <time>2015-04-20T19:46:59.050Z</time>
      </trkpt>
      <trkpt lat="48.80719" lon="2.33542">
        <ele>117.2</ele>
        <time>2015-04-20T19:47:00.142Z</time>
      </trkpt>
      <trkpt lat="48.80718" lon="2.33551">
        <ele>117.7</ele>
        <time>2015-04-20T19:47:02.035Z</time>
      </trkpt>
      <trkpt lat="48.80716" lon="2.33557">
        <ele>117.3</ele>
        <time>2015-04-20T19:47:03.067Z</time>
      </trkpt>
      <trkpt lat="48.80714" lon="2.33567">
        <ele>117.4</ele>
        <time>2015-04-20T19:47:05.025Z</time>
      </trkpt>
      <trkpt lat="48.80714" lon="2.33573">
        <ele>117.5</ele>
        <time>2015-04-20T19:47:06.063Z</time>
      </trkpt>
      <trkpt lat="48.8071" lon="2.33585">
        <ele>117.8</ele>
        <time>2015-04-20T19:47:09.063Z</time>
      </trkpt>
      <trkpt lat="48.80708" lon="2.33588">
        <ele>117.4</ele>
        <time>2015-04-20T19:47:09.989Z</time>
      </trkpt>
      <trkpt lat="48.80706" lon="2.33599">
        <ele>116.9</ele>
        <time>2015-04-20T19:47:11.996Z</time>
      </trkpt>
      <trkpt lat="48.80704" lon="2.33604">
        <ele>116.4</ele>
        <time>2015-04-20T19:47:13.080Z</time>
      </trkpt>
      <trkpt lat="48.80699" lon="2.33615">
        <ele>115.2</ele>
        <time>2015-04-20T19:47:15.031Z</time>
      </trkpt>
      <trkpt lat="48.80697" lon="2.33621">
        <ele>115</ele>
        <time>2015-04-20T19:47:16.051Z</time>
      </trkpt>
      <trkpt lat="48.80694" lon="2.33627">
        <ele>115.2</ele>
        <time>2015-04-20T19:47:16.958Z</time>
      </trkpt>
      <trkpt lat="48.80692" lon="2.33633">
        <ele>115.1</ele>
        <time>2015-04-20T19:47:17.981Z</time>
      </trkpt>
      <trkpt lat="48.80689" lon="2.33639">
        <ele>115.1</ele>
        <time>2015-04-20T19:47:19.022Z</time>
      </trkpt>
      <trkpt lat="48.80687" lon="2.33645">
        <ele>115</ele>
        <time>2015-04-20T19:47:20.059Z</time>
      </trkpt>
      <trkpt lat="48.80684" lon="2.33652">
        <ele>114.7</ele>
        <time>2015-04-20T19:47:21.129Z</time>
      </trkpt>
      <trkpt lat="48.80682" lon="2.33659">
        <ele>114.4</ele>
        <time>2015-04-20T19:47:21.957Z</time>
      </trkpt>
      <trkpt lat="48.80679" lon="2.33664">
        <ele>114.3</ele>
        <time>2015-04-20T19:47:22.994Z</time>
      </trkpt>
      <trkpt lat="48.80676" lon="2.33671">
        <ele>114.1</ele>
        <time>2015-04-20T19:47:24.011Z</time>
      </trkpt>
      <trkpt lat="48.80673" lon="2.33678">
        <ele>113.9</ele>
        <time>2015-04-20T19:47:25.037Z</time>
      </trkpt>
      <trkpt lat="48.8067" lon="2.33685">
        <ele>113.9</ele>
        <time>2015-04-20T19:47:25.960Z</time>
      </trkpt>
      <trkpt lat="48.80666" lon="2.33692">
        <ele>113.6</ele>
        <time>2015-04-20T19:47:27.081Z</time>
      </trkpt>
      <trkpt lat="48.80663" lon="2.33699">
        <ele>113.5</ele>
        <time>2015-04-20T19:47:27.975Z</time>
      </trkpt>
      <trkpt lat="48.8066" lon="2.33706">
        <ele>113.3</ele>
        <time>2015-04-20T19:47:29.015Z</time>
      </trkpt>
      <trkpt lat="48.80657" lon="2.33712">
        <ele>113.3</ele>
        <time>2015-04-20T19:47:30.025Z</time>
      </trkpt>
      <trkpt lat="48.80651" lon="2.33722">
        <ele>112.6</ele>
        <time>2015-04-20T19:47:31.970Z</time>
      </trkpt>
      <trkpt lat="48.80647" lon="2.33726">
        <ele>112.3</ele>
        <time>2015-04-20T19:47:33.031Z</time>
      </trkpt>
      <trkpt lat="48.80644" lon="2.33731">
        <ele>112.2</ele>
        <time>2015-04-20T19:47:33.992Z</time>
      </trkpt>
      <trkpt lat="48.8064" lon="2.33735">
        <ele>111.9</ele>
        <time>2015-04-20T19:47:35.008Z</time>
      </trkpt>
      <trkpt lat="48.80637" lon="2.33739">
        <ele>111.8</ele>
        <time>2015-04-20T19:47:36.059Z</time>
      </trkpt>
      <trkpt lat="48.80633" lon="2.33744">
        <ele>111.7</ele>
        <time>2015-04-20T19:47:36.969Z</time>
      </trkpt>
      <trkpt lat="48.80628" lon="2.33749">
        <ele>111.7</ele>
        <time>2015-04-20T19:47:38.031Z</time>
      </trkpt>
      <trkpt lat="48.80625" lon="2.33754">
        <ele>111.5</ele>
        <time>2015-04-20T19:47:39.065Z</time>
      </trkpt>
      <trkpt lat="48.8062" lon="2.33759">
        <ele>111.4</ele>
        <time>2015-04-20T19:47:39.968Z</time>
      </trkpt>
      <trkpt lat="48.80614" lon="2.33765">
        <ele>111.3</ele>
        <time>2015-04-20T19:47:41.004Z</time>
      </trkpt>
      <trkpt lat="48.80609" lon="2.33769">
        <ele>111.3</ele>
        <time>2015-04-20T19:47:42.013Z</time>
      </trkpt>
      <trkpt lat="48.80604" lon="2.33774">
        <ele>111.1</ele>
        <time>2015-04-20T19:47:43.033Z</time>
      </trkpt>
      <trkpt lat="48.80598" lon="2.33781">
        <ele>111.1</ele>
        <time>2015-04-20T19:47:43.950Z</time>
      </trkpt>
      <trkpt lat="48.80591" lon="2.33786">
        <ele>111.3</ele>
        <time>2015-04-20T19:47:44.989Z</time>
      </trkpt>
      <trkpt lat="48.80585" lon="2.3379">
        <ele>111.3</ele>
        <time>2015-04-20T19:47:46.016Z</time>
      </trkpt>
      <trkpt lat="48.80578" lon="2.33793">
        <ele>111.2</ele>
        <time>2015-04-20T19:47:46.972Z</time>
      </trkpt>
      <trkpt lat="48.80572" lon="2.33795">
        <ele>110.9</ele>
        <time>2015-04-20T19:47:47.980Z</time>
      </trkpt>
      <trkpt lat="48.80566" lon="2.33796">
        <ele>110.8</ele>
        <time>2015-04-20T19:47:48.991Z</time>
      </trkpt>
      <trkpt lat="48.8056" lon="2.33797">
        <ele>110.2</ele>
        <time>2015-04-20T19:47:50.002Z</time>
      </trkpt>
      <trkpt lat="48.80554" lon="2.33798">
        <ele>110</ele>
        <time>2015-04-20T19:47:51.085Z</time>
      </trkpt>
      <trkpt lat="48.80549" lon="2.33798">
        <ele>109.7</ele>
        <time>2015-04-20T19:47:51.958Z</time>
      </trkpt>
      <trkpt lat="48.80544" lon="2.33798">
        <ele>109.2</ele>
        <time>2015-04-20T19:47:53.013Z</time>
      </trkpt>
      <trkpt lat="48.80539" lon="2.33798">
        <ele>108.6</ele>
        <time>2015-04-20T19:47:54.024Z</time>
      </trkpt>
      <trkpt lat="48.80534" lon="2.33797">
        <ele>108.2</ele>
        <time>2015-04-20T19:47:55.237Z</time>
      </trkpt>
      <trkpt lat="48.80529" lon="2.33797">
        <ele>108.6</ele>
        <time>2015-04-20T19:47:56.016Z</time>
      </trkpt>
      <trkpt lat="48.80495" lon="2.33799">
        <ele>107.9</ele>
        <time>2015-04-20T19:48:03.043Z</time>
      </trkpt>
      <trkpt lat="48.8049" lon="2.33799">
        <ele>107.8</ele>
        <time>2015-04-20T19:48:03.950Z</time>
      </trkpt>
      <trkpt lat="48.80486" lon="2.33799">
        <ele>107.7</ele>
        <time>2015-04-20T19:48:05.058Z</time>
      </trkpt>
      <trkpt lat="48.80481" lon="2.338">
        <ele>107.6</ele>
        <time>2015-04-20T19:48:05.971Z</time>
      </trkpt>
      <trkpt lat="48.80477" lon="2.338">
        <ele>107.5</ele>
        <time>2015-04-20T19:48:06.958Z</time>
      </trkpt>
      <trkpt lat="48.80472" lon="2.33799">
        <ele>107.4</ele>
        <time>2015-04-20T19:48:08.026Z</time>
      </trkpt>
      <trkpt lat="48.80466" lon="2.33799">
        <ele>107.4</ele>
        <time>2015-04-20T19:48:08.991Z</time>
      </trkpt>
      <trkpt lat="48.80454" lon="2.33797">
        <ele>106.9</ele>
        <time>2015-04-20T19:48:10.961Z</time>
      </trkpt>
      <trkpt lat="48.80447" lon="2.33799">
        <ele>107</ele>
        <time>2015-04-20T19:48:11.996Z</time>
      </trkpt>
      <trkpt lat="48.8044" lon="2.33801">
        <ele>106.9</ele>
        <time>2015-04-20T19:48:13.054Z</time>
      </trkpt>
      <trkpt lat="48.80433" lon="2.33802">
        <ele>106.2</ele>
        <time>2015-04-20T19:48:13.942Z</time>
      </trkpt>
      <trkpt lat="48.80425" lon="2.33806">
        <ele>105.8</ele>
        <time>2015-04-20T19:48:15.009Z</time>
      </trkpt>
      <trkpt lat="48.80418" lon="2.3381">
        <ele>105.5</ele>
        <time>2015-04-20T19:48:16.039Z</time>
      </trkpt>
      <trkpt lat="48.80411" lon="2.33814">
        <ele>105.3</ele>
        <time>2015-04-20T19:48:17.054Z</time>
      </trkpt>
      <trkpt lat="48.80379" lon="2.3383">
        <ele>104</ele>
        <time>2015-04-20T19:48:22.001Z</time>
      </trkpt>
      <trkpt lat="48.80372" lon="2.33833">
        <ele>104.3</ele>
        <time>2015-04-20T19:48:23.013Z</time>
      </trkpt>
      <trkpt lat="48.80367" lon="2.33833">
        <ele>104.3</ele>
        <time>2015-04-20T19:48:24.016Z</time>
      </trkpt>
      <trkpt lat="48.80359" lon="2.33831">
        <ele>104.5</ele>
        <time>2015-04-20T19:48:25.983Z</time>
      </trkpt>
      <trkpt lat="48.80355" lon="2.3383">
        <ele>104.9</ele>
        <time>2015-04-20T19:48:26.990Z</time>
      </trkpt>
      <trkpt lat="48.8035" lon="2.33831">
        <ele>104.7</ele>
        <time>2015-04-20T19:48:28.012Z</time>
      </trkpt>
      <trkpt lat="48.80346" lon="2.33831">
        <ele>104.7</ele>
        <time>2015-04-20T19:48:29.204Z</time>
      </trkpt>
      <trkpt lat="48.80339" lon="2.33826">
        <ele>104.6</ele>
        <time>2015-04-20T19:48:31.985Z</time>
      </trkpt>
      <trkpt lat="48.80335" lon="2.33828">
        <ele>104.5</ele>
        <time>2015-04-20T19:48:33.028Z</time>
      </trkpt>
      <trkpt lat="48.8033" lon="2.33829">
        <ele>104.5</ele>
        <time>2015-04-20T19:48:33.966Z</time>
      </trkpt>
      <trkpt lat="48.80325" lon="2.3383">
        <ele>104.2</ele>
        <time>2015-04-20T19:48:34.973Z</time>
      </trkpt>
      <trkpt lat="48.8032" lon="2.3383">
        <ele>104</ele>
        <time>2015-04-20T19:48:36.034Z</time>
      </trkpt>
      <trkpt lat="48.80314" lon="2.3383">
        <ele>104</ele>
        <time>2015-04-20T19:48:36.951Z</time>
      </trkpt>
      <trkpt lat="48.80309" lon="2.33831">
        <ele>104.3</ele>
        <time>2015-04-20T19:48:37.967Z</time>
      </trkpt>
      <trkpt lat="48.80303" lon="2.33832">
        <ele>104</ele>
        <time>2015-04-20T19:48:39.025Z</time>
      </trkpt>
      <trkpt lat="48.8025" lon="2.33845">
        <ele>102</ele>
        <time>2015-04-20T19:48:51.032Z</time>
      </trkpt>
      <trkpt lat="48.80245" lon="2.33847">
        <ele>102.3</ele>
        <time>2015-04-20T19:48:52.046Z</time>
      </trkpt>
      <trkpt lat="48.8024" lon="2.33847">
        <ele>102</ele>
        <time>2015-04-20T19:48:53.015Z</time>
      </trkpt>
      <trkpt lat="48.80236" lon="2.33849">
        <ele>101.9</ele>
        <time>2015-04-20T19:48:54.014Z</time>
      </trkpt>
      <trkpt lat="48.80231" lon="2.33851">
        <ele>102.1</ele>
        <time>2015-04-20T19:48:55.022Z</time>
      </trkpt>
      <trkpt lat="48.80224" lon="2.33854">
        <ele>102.2</ele>
        <time>2015-04-20T19:48:58.105Z</time>
      </trkpt>
      <trkpt lat="48.80222" lon="2.33856">
        <ele>102.6</ele>
        <time>2015-04-20T19:48:58.990Z</time>
      </trkpt>
      <trkpt lat="48.80216" lon="2.33864">
        <ele>103.9</ele>
        <time>2015-04-20T19:49:05.053Z</time>
      </trkpt>
      <trkpt lat="48.80213" lon="2.33871">
        <ele>105.1</ele>
        <time>2015-04-20T19:49:06.121Z</time>
      </trkpt>
      <trkpt lat="48.8021" lon="2.33883">
        <ele>107</ele>
        <time>2015-04-20T19:49:10.029Z</time>
      </trkpt>
      <trkpt lat="48.8021" lon="2.33886">
        <ele>107.7</ele>
        <time>2015-04-20T19:49:11.019Z</time>
      </trkpt>
      <trkpt lat="48.80207" lon="2.33894">
        <ele>109</ele>
        <time>2015-04-20T19:49:28.049Z</time>
      </trkpt>
      <trkpt lat="48.80215" lon="2.33905">
        <ele>112.9</ele>
        <time>2015-04-20T19:49:29.037Z</time>
      </trkpt>
      <trkpt lat="48.80217" lon="2.33917">
        <ele>114.1</ele>
        <time>2015-04-20T19:49:33.063Z</time>
      </trkpt>
      <trkpt lat="48.80217" lon="2.33921">
        <ele>114.2</ele>
        <time>2015-04-20T19:49:34.011Z</time>
      </trkpt>
      <trkpt lat="48.80219" lon="2.33934">
        <ele>114.6</ele>
        <time>2015-04-20T19:49:37.933Z</time>
      </trkpt>
      <trkpt lat="48.8022" lon="2.33937">
        <ele>114.8</ele>
        <time>2015-04-20T19:49:38.975Z</time>
      </trkpt>
      <trkpt lat="48.80224" lon="2.33948">
        <ele>115.9</ele>
        <time>2015-04-20T19:49:43.032Z</time>
      </trkpt>
      <trkpt lat="48.80224" lon="2.33952">
        <ele>116.2</ele>
        <time>2015-04-20T19:49:44.044Z</time>
      </trkpt>
      <trkpt lat="48.80225" lon="2.33961">
        <ele>116.5</ele>
        <time>2015-04-20T19:49:46.001Z</time>
      </trkpt>
      <trkpt lat="48.80225" lon="2.33967">
        <ele>116.5</ele>
        <time>2015-04-20T19:49:46.988Z</time>
      </trkpt>
      <trkpt lat="48.80229" lon="2.33977">
        <ele>116.4</ele>
        <time>2015-04-20T19:49:48.968Z</time>
      </trkpt>
      <trkpt lat="48.80233" lon="2.3398">
        <ele>116.2</ele>
        <time>2015-04-20T19:49:49.983Z</time>
      </trkpt>
      <trkpt lat="48.80238" lon="2.33982">
        <ele>115.9</ele>
        <time>2015-04-20T19:49:51.019Z</time>
      </trkpt>
      <trkpt lat="48.80243" lon="2.33984">
        <ele>115.6</ele>
        <time>2015-04-20T19:49:52.037Z</time>
      </trkpt>
      <trkpt lat="48.80248" lon="2.33985">
        <ele>115.5</ele>
        <time>2015-04-20T19:49:52.975Z</time>
      </trkpt>
      <trkpt lat="48.80251" lon="2.33991">
        <ele>115.5</ele>
        <time>2015-04-20T19:49:53.993Z</time>
      </trkpt>
      <trkpt lat="48.80253" lon="2.34">
        <ele>115.6</ele>
        <time>2015-04-20T19:49:54.998Z</time>
      </trkpt>
      <trkpt lat="48.80256" lon="2.34008">
        <ele>115.7</ele>
        <time>2015-04-20T19:49:56.024Z</time>
      </trkpt>
      <trkpt lat="48.80261" lon="2.34018">
        <ele>116.2</ele>
        <time>2015-04-20T19:49:58.575Z</time>
      </trkpt>
      <trkpt lat="48.80263" lon="2.34021">
        <ele>116.6</ele>
        <time>2015-04-20T19:49:58.975Z</time>
      </trkpt>
      <trkpt lat="48.8027" lon="2.34027">
        <ele>116.8</ele>
        <time>2015-04-20T19:50:00.993Z</time>
      </trkpt>
      <trkpt lat="48.80272" lon="2.34034">
        <ele>116.6</ele>
        <time>2015-04-20T19:50:01.991Z</time>
      </trkpt>
      <trkpt lat="48.80276" lon="2.34043">
        <ele>117</ele>
        <time>2015-04-20T19:50:04.027Z</time>
      </trkpt>
      <trkpt lat="48.80278" lon="2.34048">
        <ele>117.2</ele>
        <time>2015-04-20T19:50:05.034Z</time>
      </trkpt>
      <trkpt lat="48.80281" lon="2.3406">
        <ele>116.9</ele>
        <time>2015-04-20T19:50:07.013Z</time>
      </trkpt>
      <trkpt lat="48.80283" lon="2.34066">
        <ele>116.8</ele>
        <time>2015-04-20T19:50:07.995Z</time>
      </trkpt>
      <trkpt lat="48.80286" lon="2.34077">
        <ele>116.9</ele>
        <time>2015-04-20T19:50:10.021Z</time>
      </trkpt>
      <trkpt lat="48.80288" lon="2.34083">
        <ele>117.3</ele>
        <time>2015-04-20T19:50:11.023Z</time>
      </trkpt>
      <trkpt lat="48.80294" lon="2.34092">
        <ele>117.4</ele>
        <time>2015-04-20T19:50:13.638Z</time>
      </trkpt>
      <trkpt lat="48.80297" lon="2.34097">
        <ele>117.4</ele>
        <time>2015-04-20T19:50:14.046Z</time>
      </trkpt>
      <trkpt lat="48.80302" lon="2.341">
        <ele>117.7</ele>
        <time>2015-04-20T19:50:15.065Z</time>
      </trkpt>
      <trkpt lat="48.80305" lon="2.34104">
        <ele>117.9</ele>
        <time>2015-04-20T19:50:15.991Z</time>
      </trkpt>
      <trkpt lat="48.80313" lon="2.34111">
        <ele>118</ele>
        <time>2015-04-20T19:50:18.864Z</time>
      </trkpt>
      <trkpt lat="48.80316" lon="2.34115">
        <ele>118.1</ele>
        <time>2015-04-20T19:50:18.996Z</time>
      </trkpt>
      <trkpt lat="48.80323" lon="2.34122">
        <ele>118.6</ele>
        <time>2015-04-20T19:50:21.041Z</time>
      </trkpt>
      <trkpt lat="48.80327" lon="2.34126">
        <ele>119.1</ele>
        <time>2015-04-20T19:50:22.043Z</time>
      </trkpt>
      <trkpt lat="48.80333" lon="2.34133">
        <ele>120</ele>
        <time>2015-04-20T19:50:24.035Z</time>
      </trkpt>
      <trkpt lat="48.80336" lon="2.34137">
        <ele>120.2</ele>
        <time>2015-04-20T19:50:25.003Z</time>
      </trkpt>
      <trkpt lat="48.80339" lon="2.34145">
        <ele>120.9</ele>
        <time>2015-04-20T19:50:27.058Z</time>
      </trkpt>
      <trkpt lat="48.80341" lon="2.3415">
        <ele>121.3</ele>
        <time>2015-04-20T19:50:27.964Z</time>
      </trkpt>
      <trkpt lat="48.80346" lon="2.34158">
        <ele>122.3</ele>
        <time>2015-04-20T19:50:29.968Z</time>
      </trkpt>
      <trkpt lat="48.80349" lon="2.34162">
        <ele>123</ele>
        <time>2015-04-20T19:50:31.057Z</time>
      </trkpt>
      <trkpt lat="48.80355" lon="2.34171">
        <ele>123.8</ele>
        <time>2015-04-20T19:50:33.065Z</time>
      </trkpt>
      <trkpt lat="48.80357" lon="2.34176">
        <ele>123.8</ele>
        <time>2015-04-20T19:50:34.013Z</time>
      </trkpt>
      <trkpt lat="48.8036" lon="2.34185">
        <ele>124</ele>
        <time>2015-04-20T19:50:36.039Z</time>
      </trkpt>
      <trkpt lat="48.80362" lon="2.3419">
        <ele>124.2</ele>
        <time>2015-04-20T19:50:37.064Z</time>
      </trkpt>
      <trkpt lat="48.80364" lon="2.342">
        <ele>124.6</ele>
        <time>2015-04-20T19:50:39.026Z</time>
      </trkpt>
      <trkpt lat="48.80365" lon="2.34205">
        <ele>124.8</ele>
        <time>2015-04-20T19:50:40.117Z</time>
      </trkpt>
      <trkpt lat="48.80369" lon="2.34215">
        <ele>125.2</ele>
        <time>2015-04-20T19:50:42.008Z</time>
      </trkpt>
      <trkpt lat="48.80372" lon="2.34221">
        <ele>125.4</ele>
        <time>2015-04-20T19:50:43.034Z</time>
      </trkpt>
      <trkpt lat="48.80376" lon="2.34232">
        <ele>125.7</ele>
        <time>2015-04-20T19:50:45.132Z</time>
      </trkpt>
      <trkpt lat="48.8038" lon="2.34238">
        <ele>125.8</ele>
        <time>2015-04-20T19:50:46.062Z</time>
      </trkpt>
      <trkpt lat="48.80383" lon="2.34243">
        <ele>125.7</ele>
        <time>2015-04-20T19:50:47.079Z</time>
      </trkpt>
      <trkpt lat="48.80386" lon="2.34248">
        <ele>125.6</ele>
        <time>2015-04-20T19:50:47.977Z</time>
      </trkpt>
      <trkpt lat="48.80393" lon="2.34256">
        <ele>125.1</ele>
        <time>2015-04-20T19:50:50.156Z</time>
      </trkpt>
      <trkpt lat="48.80395" lon="2.3426">
        <ele>124.9</ele>
        <time>2015-04-20T19:50:51.060Z</time>
      </trkpt>
      <trkpt lat="48.80399" lon="2.34265">
        <ele>124.3</ele>
        <time>2015-04-20T19:50:52.069Z</time>
      </trkpt>
      <trkpt lat="48.80402" lon="2.34271">
        <ele>124.2</ele>
        <time>2015-04-20T19:50:52.972Z</time>
      </trkpt>
      <trkpt lat="48.80405" lon="2.34277">
        <ele>124.1</ele>
        <time>2015-04-20T19:50:54.009Z</time>
      </trkpt>
      <trkpt lat="48.80408" lon="2.34283">
        <ele>124.4</ele>
        <time>2015-04-20T19:50:55.051Z</time>
      </trkpt>
      <trkpt lat="48.80411" lon="2.34289">
        <ele>124.9</ele>
        <time>2015-04-20T19:50:56.056Z</time>
      </trkpt>
      <trkpt lat="48.80414" lon="2.34294">
        <ele>125.1</ele>
        <time>2015-04-20T19:50:57.069Z</time>
      </trkpt>
      <trkpt lat="48.80417" lon="2.34299">
        <ele>125.3</ele>
        <time>2015-04-20T19:50:58.084Z</time>
      </trkpt>
      <trkpt lat="48.80421" lon="2.34304">
        <ele>125.3</ele>
        <time>2015-04-20T19:50:58.976Z</time>
      </trkpt>
      <trkpt lat="48.80425" lon="2.3431">
        <ele>125.2</ele>
        <time>2015-04-20T19:51:00.595Z</time>
      </trkpt>
      <trkpt lat="48.80428" lon="2.34316">
        <ele>125.3</ele>
        <time>2015-04-20T19:51:00.971Z</time>
      </trkpt>
      <trkpt lat="48.80433" lon="2.34326">
        <ele>125.5</ele>
        <time>2015-04-20T19:51:03.107Z</time>
      </trkpt>
      <trkpt lat="48.80436" lon="2.34332">
        <ele>125.7</ele>
        <time>2015-04-20T19:51:03.989Z</time>
      </trkpt>
      <trkpt lat="48.8044" lon="2.34343">
        <ele>125.5</ele>
        <time>2015-04-20T19:51:06.058Z</time>
      </trkpt>
      <trkpt lat="48.80443" lon="2.34349">
        <ele>125.6</ele>
        <time>2015-04-20T19:51:07.065Z</time>
      </trkpt>
      <trkpt lat="48.80449" lon="2.34358">
        <ele>125.5</ele>
        <time>2015-04-20T19:51:09.081Z</time>
      </trkpt>
      <trkpt lat="48.80451" lon="2.34363">
        <ele>125.6</ele>
        <time>2015-04-20T19:51:09.968Z</time>
      </trkpt>
      <trkpt lat="48.80457" lon="2.34373">
        <ele>126.2</ele>
        <time>2015-04-20T19:51:12.012Z</time>
      </trkpt>
      <trkpt lat="48.8046" lon="2.34378">
        <ele>126.4</ele>
        <time>2015-04-20T19:51:13.060Z</time>
      </trkpt>
      <trkpt lat="48.80465" lon="2.34387">
        <ele>126.8</ele>
        <time>2015-04-20T19:51:15.083Z</time>
      </trkpt>
      <trkpt lat="48.80467" lon="2.34392">
        <ele>127</ele>
        <time>2015-04-20T19:51:16.063Z</time>
      </trkpt>
      <trkpt lat="48.80472" lon="2.344">
        <ele>127.9</ele>
        <time>2015-04-20T19:51:18.071Z</time>
      </trkpt>
      <trkpt lat="48.80474" lon="2.34404">
        <ele>128.4</ele>
        <time>2015-04-20T19:51:19.100Z</time>
      </trkpt>
      <trkpt lat="48.80478" lon="2.34414">
        <ele>129.4</ele>
        <time>2015-04-20T19:51:21.972Z</time>
      </trkpt>
      <trkpt lat="48.80477" lon="2.34417">
        <ele>129.5</ele>
        <time>2015-04-20T19:51:23.011Z</time>
      </trkpt>
      <trkpt lat="48.8048" lon="2.34427">
        <ele>130.2</ele>
        <time>2015-04-20T19:54:09.087Z</time>
      </trkpt>
      <trkpt lat="48.80482" lon="2.34436">
        <ele>136</ele>
        <time>2015-04-20T19:54:10.037Z</time>
      </trkpt>
      <trkpt lat="48.80483" lon="2.34448">
        <ele>135.7</ele>
        <time>2015-04-20T19:54:15.640Z</time>
      </trkpt>
      <trkpt lat="48.80482" lon="2.34451">
        <ele>135.6</ele>
        <time>2015-04-20T19:54:16.099Z</time>
      </trkpt>
      <trkpt lat="48.80482" lon="2.34464">
        <ele>135.3</ele>
        <time>2015-04-20T19:54:20.724Z</time>
      </trkpt>
      <trkpt lat="48.80483" lon="2.34466">
        <ele>135.2</ele>
        <time>2015-04-20T19:54:21.061Z</time>
      </trkpt>
      <trkpt lat="48.80488" lon="2.34476">
        <ele>134.6</ele>
        <time>2015-04-20T19:54:45.136Z</time>
      </trkpt>
      <trkpt lat="48.80489" lon="2.34478">
        <ele>134.7</ele>
        <time>2015-04-20T19:54:46.040Z</time>
      </trkpt>
      <trkpt lat="48.80495" lon="2.34484">
        <ele>135</ele>
        <time>2015-04-20T19:54:49.019Z</time>
      </trkpt>
      <trkpt lat="48.80498" lon="2.34485">
        <ele>135.2</ele>
        <time>2015-04-20T19:54:50.036Z</time>
      </trkpt>
      <trkpt lat="48.80504" lon="2.34487">
        <ele>135.4</ele>
        <time>2015-04-20T19:54:51.986Z</time>
      </trkpt>
      <trkpt lat="48.80507" lon="2.34489">
        <ele>135.3</ele>
        <time>2015-04-20T19:54:52.989Z</time>
      </trkpt>
      <trkpt lat="48.80513" lon="2.34492">
        <ele>135.1</ele>
        <time>2015-04-20T19:54:55.044Z</time>
      </trkpt>
      <trkpt lat="48.80517" lon="2.34494">
        <ele>135.3</ele>
        <time>2015-04-20T19:54:56.060Z</time>
      </trkpt>
      <trkpt lat="48.80524" lon="2.34498">
        <ele>135.4</ele>
        <time>2015-04-20T19:54:57.993Z</time>
      </trkpt>
      <trkpt lat="48.80526" lon="2.345">
        <ele>135.3</ele>
        <time>2015-04-20T19:54:58.990Z</time>
      </trkpt>
      <trkpt lat="48.80534" lon="2.34505">
        <ele>134.5</ele>
        <time>2015-04-20T19:55:02.017Z</time>
      </trkpt>
      <trkpt lat="48.80537" lon="2.34509">
        <ele>134.4</ele>
        <time>2015-04-20T19:55:03.097Z</time>
      </trkpt>
      <trkpt lat="48.80544" lon="2.34516">
        <ele>134.4</ele>
        <time>2015-04-20T19:55:05.008Z</time>
      </trkpt>
      <trkpt lat="48.80548" lon="2.34519">
        <ele>134.6</ele>
        <time>2015-04-20T19:55:06.028Z</time>
      </trkpt>
      <trkpt lat="48.80552" lon="2.34523">
        <ele>134.6</ele>
        <time>2015-04-20T19:55:06.998Z</time>
      </trkpt>
      <trkpt lat="48.80556" lon="2.34527">
        <ele>134.5</ele>
        <time>2015-04-20T19:55:08.002Z</time>
      </trkpt>
      <trkpt lat="48.80561" lon="2.34531">
        <ele>134.7</ele>
        <time>2015-04-20T19:55:09.017Z</time>
      </trkpt>
      <trkpt lat="48.80564" lon="2.34535">
        <ele>134.4</ele>
        <time>2015-04-20T19:55:10.007Z</time>
      </trkpt>
      <trkpt lat="48.80569" lon="2.34539">
        <ele>134.5</ele>
        <time>2015-04-20T19:55:11.036Z</time>
      </trkpt>
      <trkpt lat="48.80574" lon="2.34543">
        <ele>134.7</ele>
        <time>2015-04-20T19:55:12.040Z</time>
      </trkpt>
      <trkpt lat="48.80579" lon="2.34546">
        <ele>134.8</ele>
        <time>2015-04-20T19:55:13.056Z</time>
      </trkpt>
      <trkpt lat="48.80584" lon="2.34549">
        <ele>134.6</ele>
        <time>2015-04-20T19:55:14.068Z</time>
      </trkpt>
      <trkpt lat="48.80588" lon="2.34554">
        <ele>134.5</ele>
        <time>2015-04-20T19:55:15.068Z</time>
      </trkpt>
      <trkpt lat="48.80592" lon="2.34558">
        <ele>134.6</ele>
        <time>2015-04-20T19:55:15.979Z</time>
      </trkpt>
      <trkpt lat="48.80596" lon="2.34562">
        <ele>134.3</ele>
        <time>2015-04-20T19:55:16.981Z</time>
      </trkpt>
      <trkpt lat="48.806" lon="2.34567">
        <ele>134.4</ele>
        <time>2015-04-20T19:55:17.983Z</time>
      </trkpt>
      <trkpt lat="48.80606" lon="2.34574">
        <ele>134.5</ele>
        <time>2015-04-20T19:55:20Z</time>
      </trkpt>
      <trkpt lat="48.80609" lon="2.34578">
        <ele>134.5</ele>
        <time>2015-04-20T19:55:21.133Z</time>
      </trkpt>
      <trkpt lat="48.80613" lon="2.34581">
        <ele>134.6</ele>
        <time>2015-04-20T19:55:22.001Z</time>
      </trkpt>
      <trkpt lat="48.80618" lon="2.34585">
        <ele>134.6</ele>
        <time>2015-04-20T19:55:22.979Z</time>
      </trkpt>
      <trkpt lat="48.80624" lon="2.34589">
        <ele>134.7</ele>
        <time>2015-04-20T19:55:23.999Z</time>
      </trkpt>
      <trkpt lat="48.80629" lon="2.34593">
        <ele>134.7</ele>
        <time>2015-04-20T19:55:25.010Z</time>
      </trkpt>
      <trkpt lat="48.80634" lon="2.34597">
        <ele>134.5</ele>
        <time>2015-04-20T19:55:26.034Z</time>
      </trkpt>
      <trkpt lat="48.80639" lon="2.34602">
        <ele>134.4</ele>
        <time>2015-04-20T19:55:27.048Z</time>
      </trkpt>
      <trkpt lat="48.80644" lon="2.34606">
        <ele>134.3</ele>
        <time>2015-04-20T19:55:27.940Z</time>
      </trkpt>
      <trkpt lat="48.80649" lon="2.3461">
        <ele>134.3</ele>
        <time>2015-04-20T19:55:28.974Z</time>
      </trkpt>
      <trkpt lat="48.80653" lon="2.34613">
        <ele>134.1</ele>
        <time>2015-04-20T19:55:29.978Z</time>
      </trkpt>
      <trkpt lat="48.80656" lon="2.34618">
        <ele>134.1</ele>
        <time>2015-04-20T19:55:31.041Z</time>
      </trkpt>
      <trkpt lat="48.8066" lon="2.34621">
        <ele>133.8</ele>
        <time>2015-04-20T19:55:32.039Z</time>
      </trkpt>
      <trkpt lat="48.80664" lon="2.34625">
        <ele>133.6</ele>
        <time>2015-04-20T19:55:33.044Z</time>
      </trkpt>
      <trkpt lat="48.80668" lon="2.34629">
        <ele>133.4</ele>
        <time>2015-04-20T19:55:34.061Z</time>
      </trkpt>
      <trkpt lat="48.80673" lon="2.34634">
        <ele>133.2</ele>
        <time>2015-04-20T19:55:34.955Z</time>
      </trkpt>
      <trkpt lat="48.80677" lon="2.34638">
        <ele>133.6</ele>
        <time>2015-04-20T19:55:35.971Z</time>
      </trkpt>
      <trkpt lat="48.80682" lon="2.34643">
        <ele>133.6</ele>
        <time>2015-04-20T19:55:37.046Z</time>
      </trkpt>
      <trkpt lat="48.80686" lon="2.34647">
        <ele>133.6</ele>
        <time>2015-04-20T19:55:37.946Z</time>
      </trkpt>
      <trkpt lat="48.8069" lon="2.34651">
        <ele>133.3</ele>
        <time>2015-04-20T19:55:39.021Z</time>
      </trkpt>
      <trkpt lat="48.80694" lon="2.34655">
        <ele>133.2</ele>
        <time>2015-04-20T19:55:40.075Z</time>
      </trkpt>
      <trkpt lat="48.80699" lon="2.3466">
        <ele>133.1</ele>
        <time>2015-04-20T19:55:40.952Z</time>
      </trkpt>
      <trkpt lat="48.80702" lon="2.34664">
        <ele>132.9</ele>
        <time>2015-04-20T19:55:42.031Z</time>
      </trkpt>
      <trkpt lat="48.80707" lon="2.34668">
        <ele>132.9</ele>
        <time>2015-04-20T19:55:42.989Z</time>
      </trkpt>
      <trkpt lat="48.80711" lon="2.34672">
        <ele>132.9</ele>
        <time>2015-04-20T19:55:43.969Z</time>
      </trkpt>
      <trkpt lat="48.80718" lon="2.34676">
        <ele>133.1</ele>
        <time>2015-04-20T19:55:45.021Z</time>
      </trkpt>
      <trkpt lat="48.80722" lon="2.3468">
        <ele>133.2</ele>
        <time>2015-04-20T19:55:46.027Z</time>
      </trkpt>
      <trkpt lat="48.80726" lon="2.34684">
        <ele>133</ele>
        <time>2015-04-20T19:55:47.035Z</time>
      </trkpt>
      <trkpt lat="48.80731" lon="2.34689">
        <ele>133</ele>
        <time>2015-04-20T19:55:48.054Z</time>
      </trkpt>
      <trkpt lat="48.80735" lon="2.34693">
        <ele>132.9</ele>
        <time>2015-04-20T19:55:48.950Z</time>
      </trkpt>
      <trkpt lat="48.80739" lon="2.34698">
        <ele>133.1</ele>
        <time>2015-04-20T19:55:50.013Z</time>
      </trkpt>
      <trkpt lat="48.80743" lon="2.34703">
        <ele>133</ele>
        <time>2015-04-20T19:55:51.018Z</time>
      </trkpt>
      <trkpt lat="48.80747" lon="2.34707">
        <ele>133.1</ele>
        <time>2015-04-20T19:55:52.032Z</time>
      </trkpt>
      <trkpt lat="48.8075" lon="2.34712">
        <ele>133.1</ele>
        <time>2015-04-20T19:55:53.036Z</time>
      </trkpt>
      <trkpt lat="48.80754" lon="2.34716">
        <ele>133.2</ele>
        <time>2015-04-20T19:55:54.051Z</time>
      </trkpt>
      <trkpt lat="48.80757" lon="2.34721">
        <ele>133.1</ele>
        <time>2015-04-20T19:55:55.014Z</time>
      </trkpt>
      <trkpt lat="48.80761" lon="2.34725">
        <ele>133</ele>
        <time>2015-04-20T19:55:56.028Z</time>
      </trkpt>
      <trkpt lat="48.80765" lon="2.34729">
        <ele>133.1</ele>
        <time>2015-04-20T19:55:57.027Z</time>
      </trkpt>
      <trkpt lat="48.80769" lon="2.34733">
        <ele>133.3</ele>
        <time>2015-04-20T19:55:58.037Z</time>
      </trkpt>
      <trkpt lat="48.80773" lon="2.34737">
        <ele>133.5</ele>
        <time>2015-04-20T19:55:59.044Z</time>
      </trkpt>
      <trkpt lat="48.80778" lon="2.34741">
        <ele>133.5</ele>
        <time>2015-04-20T19:56:00.003Z</time>
      </trkpt>
      <trkpt lat="48.80782" lon="2.34745">
        <ele>133.4</ele>
        <time>2015-04-20T19:56:01.005Z</time>
      </trkpt>
      <trkpt lat="48.80786" lon="2.3475">
        <ele>133.5</ele>
        <time>2015-04-20T19:56:02.001Z</time>
      </trkpt>
      <trkpt lat="48.80791" lon="2.34754">
        <ele>133.5</ele>
        <time>2015-04-20T19:56:03.136Z</time>
      </trkpt>
      <trkpt lat="48.80795" lon="2.34758">
        <ele>133.4</ele>
        <time>2015-04-20T19:56:03.975Z</time>
      </trkpt>
      <trkpt lat="48.80799" lon="2.34763">
        <ele>133.5</ele>
        <time>2015-04-20T19:56:04.985Z</time>
      </trkpt>
      <trkpt lat="48.80803" lon="2.34767">
        <ele>133.7</ele>
        <time>2015-04-20T19:56:06.013Z</time>
      </trkpt>
      <trkpt lat="48.80807" lon="2.34772">
        <ele>133.8</ele>
        <time>2015-04-20T19:56:07.037Z</time>
      </trkpt>
      <trkpt lat="48.80811" lon="2.34777">
        <ele>133.9</ele>
        <time>2015-04-20T19:56:08.049Z</time>
      </trkpt>
      <trkpt lat="48.80815" lon="2.34781">
        <ele>134</ele>
        <time>2015-04-20T19:56:09.052Z</time>
      </trkpt>
      <trkpt lat="48.80819" lon="2.34786">
        <ele>134</ele>
        <time>2015-04-20T19:56:09.946Z</time>
      </trkpt>
      <trkpt lat="48.80824" lon="2.34791">
        <ele>134.1</ele>
        <time>2015-04-20T19:56:10.970Z</time>
      </trkpt>
      <trkpt lat="48.80828" lon="2.34796">
        <ele>134</ele>
        <time>2015-04-20T19:56:11.957Z</time>
      </trkpt>
      <trkpt lat="48.80832" lon="2.348">
        <ele>134.2</ele>
        <time>2015-04-20T19:56:12.988Z</time>
      </trkpt>
      <trkpt lat="48.80838" lon="2.34804">
        <ele>134</ele>
        <time>2015-04-20T19:56:14.011Z</time>
      </trkpt>
      <trkpt lat="48.80843" lon="2.34808">
        <ele>134</ele>
        <time>2015-04-20T19:56:14.995Z</time>
      </trkpt>
      <trkpt lat="48.80848" lon="2.34812">
        <ele>133.8</ele>
        <time>2015-04-20T19:56:16.010Z</time>
      </trkpt>
      <trkpt lat="48.80853" lon="2.34816">
        <ele>133.7</ele>
        <time>2015-04-20T19:56:17.030Z</time>
      </trkpt>
      <trkpt lat="48.80857" lon="2.34821">
        <ele>133.7</ele>
        <time>2015-04-20T19:56:18.040Z</time>
      </trkpt>
      <trkpt lat="48.80861" lon="2.34826">
        <ele>133.5</ele>
        <time>2015-04-20T19:56:19.058Z</time>
      </trkpt>
      <trkpt lat="48.80866" lon="2.34831">
        <ele>133.5</ele>
        <time>2015-04-20T19:56:20.080Z</time>
      </trkpt>
      <trkpt lat="48.80871" lon="2.34835">
        <ele>133.3</ele>
        <time>2015-04-20T19:56:21.023Z</time>
      </trkpt>
      <trkpt lat="48.80875" lon="2.34841">
        <ele>133.1</ele>
        <time>2015-04-20T19:56:22.026Z</time>
      </trkpt>
      <trkpt lat="48.80879" lon="2.34846">
        <ele>133.1</ele>
        <time>2015-04-20T19:56:23.038Z</time>
      </trkpt>
      <trkpt lat="48.80883" lon="2.34851">
        <ele>132.9</ele>
        <time>2015-04-20T19:56:24.052Z</time>
      </trkpt>
      <trkpt lat="48.80888" lon="2.34855">
        <ele>132.7</ele>
        <time>2015-04-20T19:56:24.984Z</time>
      </trkpt>
      <trkpt lat="48.80893" lon="2.3486">
        <ele>132.4</ele>
        <time>2015-04-20T19:56:25.957Z</time>
      </trkpt>
      <trkpt lat="48.80898" lon="2.34866">
        <ele>132.1</ele>
        <time>2015-04-20T19:56:27.013Z</time>
      </trkpt>
      <trkpt lat="48.80904" lon="2.3487">
        <ele>131.9</ele>
        <time>2015-04-20T19:56:28.013Z</time>
      </trkpt>
      <trkpt lat="48.80909" lon="2.34874">
        <ele>131.7</ele>
        <time>2015-04-20T19:56:29.056Z</time>
      </trkpt>
      <trkpt lat="48.80913" lon="2.34878">
        <ele>131.3</ele>
        <time>2015-04-20T19:56:29.988Z</time>
      </trkpt>
      <trkpt lat="48.80918" lon="2.34882">
        <ele>131.1</ele>
        <time>2015-04-20T19:56:30.979Z</time>
      </trkpt>
      <trkpt lat="48.80923" lon="2.34888">
        <ele>130.6</ele>
        <time>2015-04-20T19:56:31.992Z</time>
      </trkpt>
      <trkpt lat="48.80928" lon="2.34893">
        <ele>130.3</ele>
        <time>2015-04-20T19:56:33.020Z</time>
      </trkpt>
      <trkpt lat="48.80933" lon="2.34898">
        <ele>129.7</ele>
        <time>2015-04-20T19:56:34.026Z</time>
      </trkpt>
      <trkpt lat="48.80938" lon="2.34903">
        <ele>129</ele>
        <time>2015-04-20T19:56:35.052Z</time>
      </trkpt>
      <trkpt lat="48.80943" lon="2.34908">
        <ele>128.5</ele>
        <time>2015-04-20T19:56:36.070Z</time>
      </trkpt>
      <trkpt lat="48.80947" lon="2.34915">
        <ele>128.4</ele>
        <time>2015-04-20T19:56:36.967Z</time>
      </trkpt>
      <trkpt lat="48.80952" lon="2.34921">
        <ele>128.6</ele>
        <time>2015-04-20T19:56:37.971Z</time>
      </trkpt>
      <trkpt lat="48.80957" lon="2.34927">
        <ele>128.5</ele>
        <time>2015-04-20T19:56:38.990Z</time>
      </trkpt>
      <trkpt lat="48.80961" lon="2.34932">
        <ele>128.5</ele>
        <time>2015-04-20T19:56:40.033Z</time>
      </trkpt>
      <trkpt lat="48.80966" lon="2.34937">
        <ele>128.7</ele>
        <time>2015-04-20T19:56:41.027Z</time>
      </trkpt>
      <trkpt lat="48.8097" lon="2.34941">
        <ele>128.8</ele>
        <time>2015-04-20T19:56:42.031Z</time>
      </trkpt>
      <trkpt lat="48.80975" lon="2.34945">
        <ele>129.1</ele>
        <time>2015-04-20T19:56:43.033Z</time>
      </trkpt>
      <trkpt lat="48.8098" lon="2.34949">
        <ele>129.3</ele>
        <time>2015-04-20T19:56:44.036Z</time>
      </trkpt>
      <trkpt lat="48.80985" lon="2.34953">
        <ele>129.2</ele>
        <time>2015-04-20T19:56:45.042Z</time>
      </trkpt>
      <trkpt lat="48.8099" lon="2.34957">
        <ele>129.1</ele>
        <time>2015-04-20T19:56:45.979Z</time>
      </trkpt>
      <trkpt lat="48.80995" lon="2.34962">
        <ele>129.2</ele>
        <time>2015-04-20T19:56:46.951Z</time>
      </trkpt>
      <trkpt lat="48.81" lon="2.34966">
        <ele>129.2</ele>
        <time>2015-04-20T19:56:47.980Z</time>
      </trkpt>
      <trkpt lat="48.81005" lon="2.3497">
        <ele>129.3</ele>
        <time>2015-04-20T19:56:49.016Z</time>
      </trkpt>
      <trkpt lat="48.8101" lon="2.34975">
        <ele>129.4</ele>
        <time>2015-04-20T19:56:50.026Z</time>
      </trkpt>
      <trkpt lat="48.81015" lon="2.3498">
        <ele>129.3</ele>
        <time>2015-04-20T19:56:51.045Z</time>
      </trkpt>
      <trkpt lat="48.8102" lon="2.34985">
        <ele>129.1</ele>
        <time>2015-04-20T19:56:51.945Z</time>
      </trkpt>
      <trkpt lat="48.81026" lon="2.34989">
        <ele>128.9</ele>
        <time>2015-04-20T19:56:52.958Z</time>
      </trkpt>
      <trkpt lat="48.81032" lon="2.34993">
        <ele>128.9</ele>
        <time>2015-04-20T19:56:53.966Z</time>
      </trkpt>
      <trkpt lat="48.81038" lon="2.34996">
        <ele>128.7</ele>
        <time>2015-04-20T19:56:54.984Z</time>
      </trkpt>
      <trkpt lat="48.81044" lon="2.35">
        <ele>128.5</ele>
        <time>2015-04-20T19:56:56.037Z</time>
      </trkpt>
      <trkpt lat="48.81049" lon="2.35005">
        <ele>128.5</ele>
        <time>2015-04-20T19:56:57.053Z</time>
      </trkpt>
      <trkpt lat="48.81055" lon="2.3501">
        <ele>128.5</ele>
        <time>2015-04-20T19:56:58.064Z</time>
      </trkpt>
      <trkpt lat="48.8106" lon="2.35015">
        <ele>128.4</ele>
        <time>2015-04-20T19:56:58.987Z</time>
      </trkpt>
      <trkpt lat="48.81066" lon="2.3502">
        <ele>128.2</ele>
        <time>2015-04-20T19:56:59.988Z</time>
      </trkpt>
      <trkpt lat="48.81071" lon="2.35024">
        <ele>128.2</ele>
        <time>2015-04-20T19:57:00.985Z</time>
      </trkpt>
      <trkpt lat="48.81077" lon="2.35029">
        <ele>128</ele>
        <time>2015-04-20T19:57:02.023Z</time>
      </trkpt>
      <trkpt lat="48.81082" lon="2.35034">
        <ele>127.7</ele>
        <time>2015-04-20T19:57:03.015Z</time>
      </trkpt>
      <trkpt lat="48.81087" lon="2.3504">
        <ele>127.6</ele>
        <time>2015-04-20T19:57:04.040Z</time>
      </trkpt>
      <trkpt lat="48.81092" lon="2.35046">
        <ele>127.5</ele>
        <time>2015-04-20T19:57:05.042Z</time>
      </trkpt>
      <trkpt lat="48.81098" lon="2.35052">
        <ele>127.2</ele>
        <time>2015-04-20T19:57:05.935Z</time>
      </trkpt>
      <trkpt lat="48.81103" lon="2.35058">
        <ele>127</ele>
        <time>2015-04-20T19:57:06.953Z</time>
      </trkpt>
      <trkpt lat="48.81108" lon="2.35066">
        <ele>126.8</ele>
        <time>2015-04-20T19:57:07.944Z</time>
      </trkpt>
      <trkpt lat="48.81113" lon="2.35073">
        <ele>126.5</ele>
        <time>2015-04-20T19:57:08.988Z</time>
      </trkpt>
      <trkpt lat="48.81118" lon="2.35079">
        <ele>126.4</ele>
        <time>2015-04-20T19:57:10.018Z</time>
      </trkpt>
      <trkpt lat="48.81124" lon="2.35086">
        <ele>126.5</ele>
        <time>2015-04-20T19:57:11.035Z</time>
      </trkpt>
      <trkpt lat="48.81129" lon="2.35092">
        <ele>126.6</ele>
        <time>2015-04-20T19:57:11.933Z</time>
      </trkpt>
      <trkpt lat="48.81134" lon="2.35098">
        <ele>126.6</ele>
        <time>2015-04-20T19:57:12.928Z</time>
      </trkpt>
      <trkpt lat="48.81138" lon="2.35105">
        <ele>126.5</ele>
        <time>2015-04-20T19:57:13.959Z</time>
      </trkpt>
      <trkpt lat="48.81143" lon="2.35112">
        <ele>126.4</ele>
        <time>2015-04-20T19:57:14.980Z</time>
      </trkpt>
      <trkpt lat="48.81147" lon="2.35119">
        <ele>126.2</ele>
        <time>2015-04-20T19:57:15.994Z</time>
      </trkpt>
      <trkpt lat="48.81152" lon="2.35126">
        <ele>126</ele>
        <time>2015-04-20T19:57:17.003Z</time>
      </trkpt>
      <trkpt lat="48.81156" lon="2.35134">
        <ele>125.8</ele>
        <time>2015-04-20T19:57:18.015Z</time>
      </trkpt>
      <trkpt lat="48.81159" lon="2.35142">
        <ele>125.5</ele>
        <time>2015-04-20T19:57:19.015Z</time>
      </trkpt>
      <trkpt lat="48.81163" lon="2.35151">
        <ele>125.4</ele>
        <time>2015-04-20T19:57:20.043Z</time>
      </trkpt>
      <trkpt lat="48.81166" lon="2.3516">
        <ele>125.1</ele>
        <time>2015-04-20T19:57:21.058Z</time>
      </trkpt>
      <trkpt lat="48.8117" lon="2.35168">
        <ele>124.5</ele>
        <time>2015-04-20T19:57:21.936Z</time>
      </trkpt>
      <trkpt lat="48.81174" lon="2.35176">
        <ele>124.3</ele>
        <time>2015-04-20T19:57:22.956Z</time>
      </trkpt>
      <trkpt lat="48.81179" lon="2.35184">
        <ele>124.1</ele>
        <time>2015-04-20T19:57:23.957Z</time>
      </trkpt>
      <trkpt lat="48.81183" lon="2.35192">
        <ele>123.8</ele>
        <time>2015-04-20T19:57:24.967Z</time>
      </trkpt>
      <trkpt lat="48.81187" lon="2.35201">
        <ele>123.6</ele>
        <time>2015-04-20T19:57:25.977Z</time>
      </trkpt>
      <trkpt lat="48.81192" lon="2.3521">
        <ele>123.4</ele>
        <time>2015-04-20T19:57:26.981Z</time>
      </trkpt>
      <trkpt lat="48.81196" lon="2.35218">
        <ele>123.5</ele>
        <time>2015-04-20T19:57:28.006Z</time>
      </trkpt>
      <trkpt lat="48.81201" lon="2.35226">
        <ele>123.7</ele>
        <time>2015-04-20T19:57:29.017Z</time>
      </trkpt>
      <trkpt lat="48.81205" lon="2.35234">
        <ele>123.5</ele>
        <time>2015-04-20T19:57:29.919Z</time>
      </trkpt>
      <trkpt lat="48.81209" lon="2.35242">
        <ele>123.4</ele>
        <time>2015-04-20T19:57:30.947Z</time>
      </trkpt>
      <trkpt lat="48.81213" lon="2.3525">
        <ele>123.3</ele>
        <time>2015-04-20T19:57:31.948Z</time>
      </trkpt>
      <trkpt lat="48.81216" lon="2.35258">
        <ele>122.9</ele>
        <time>2015-04-20T19:57:32.950Z</time>
      </trkpt>
      <trkpt lat="48.8122" lon="2.35265">
        <ele>122.6</ele>
        <time>2015-04-20T19:57:33.961Z</time>
      </trkpt>
      <trkpt lat="48.81223" lon="2.35272">
        <ele>122.2</ele>
        <time>2015-04-20T19:57:34.963Z</time>
      </trkpt>
      <trkpt lat="48.81226" lon="2.35278">
        <ele>121.8</ele>
        <time>2015-04-20T19:57:35.971Z</time>
      </trkpt>
      <trkpt lat="48.81229" lon="2.35284">
        <ele>121.5</ele>
        <time>2015-04-20T19:57:36.976Z</time>
      </trkpt>
      <trkpt lat="48.81232" lon="2.3529">
        <ele>121.6</ele>
        <time>2015-04-20T19:57:38.003Z</time>
      </trkpt>
      <trkpt lat="48.81236" lon="2.35296">
        <ele>121.8</ele>
        <time>2015-04-20T19:57:39.010Z</time>
      </trkpt>
      <trkpt lat="48.8124" lon="2.35302">
        <ele>122.2</ele>
        <time>2015-04-20T19:57:40.020Z</time>
      </trkpt>
      <trkpt lat="48.81243" lon="2.35308">
        <ele>122.5</ele>
        <time>2015-04-20T19:57:41.030Z</time>
      </trkpt>
      <trkpt lat="48.81246" lon="2.35313">
        <ele>122.5</ele>
        <time>2015-04-20T19:57:41.963Z</time>
      </trkpt>
      <trkpt lat="48.81249" lon="2.35318">
        <ele>122.6</ele>
        <time>2015-04-20T19:57:42.964Z</time>
      </trkpt>
      <trkpt lat="48.81256" lon="2.35326">
        <ele>122.3</ele>
        <time>2015-04-20T19:57:44.991Z</time>
      </trkpt>
      <trkpt lat="48.81259" lon="2.35328">
        <ele>122</ele>
        <time>2015-04-20T19:57:46.009Z</time>
      </trkpt>
      <trkpt lat="48.81266" lon="2.35334">
        <ele>121.7</ele>
        <time>2015-04-20T19:57:47.955Z</time>
      </trkpt>
      <trkpt lat="48.81269" lon="2.35339">
        <ele>121.3</ele>
        <time>2015-04-20T19:57:48.963Z</time>
      </trkpt>
      <trkpt lat="48.81272" lon="2.3535">
        <ele>120.3</ele>
        <time>2015-04-20T19:57:51.009Z</time>
      </trkpt>
      <trkpt lat="48.81274" lon="2.35355">
        <ele>120.2</ele>
        <time>2015-04-20T19:57:52.027Z</time>
      </trkpt>
      <trkpt lat="48.81276" lon="2.35366">
        <ele>119.1</ele>
        <time>2015-04-20T19:57:53.957Z</time>
      </trkpt>
      <trkpt lat="48.81406" lon="2.35544">
        <ele>120.1</ele>
        <time>2015-04-20T19:58:28.960Z</time>
      </trkpt>
      <trkpt lat="48.81413" lon="2.35552">
        <ele>119.8</ele>
        <time>2015-04-20T19:58:30.994Z</time>
      </trkpt>
      <trkpt lat="48.81417" lon="2.35557">
        <ele>119.8</ele>
        <time>2015-04-20T19:58:32.030Z</time>
      </trkpt>
      <trkpt lat="48.8142" lon="2.35561">
        <ele>119.8</ele>
        <time>2015-04-20T19:58:33.026Z</time>
      </trkpt>
      <trkpt lat="48.81427" lon="2.35569">
        <ele>119.7</ele>
        <time>2015-04-20T19:58:34.964Z</time>
      </trkpt>
      <trkpt lat="48.81431" lon="2.35573">
        <ele>119.6</ele>
        <time>2015-04-20T19:58:35.976Z</time>
      </trkpt>
      <trkpt lat="48.81434" lon="2.35577">
        <ele>119.5</ele>
        <time>2015-04-20T19:58:36.996Z</time>
      </trkpt>
      <trkpt lat="48.81438" lon="2.35581">
        <ele>119.5</ele>
        <time>2015-04-20T19:58:38.114Z</time>
      </trkpt>
      <trkpt lat="48.81442" lon="2.35585">
        <ele>119.6</ele>
        <time>2015-04-20T19:58:39.033Z</time>
      </trkpt>
      <trkpt lat="48.81446" lon="2.35589">
        <ele>119.5</ele>
        <time>2015-04-20T19:58:39.945Z</time>
      </trkpt>
      <trkpt lat="48.81453" lon="2.35596">
        <ele>119.1</ele>
        <time>2015-04-20T19:58:42.017Z</time>
      </trkpt>
      <trkpt lat="48.81457" lon="2.356">
        <ele>118.7</ele>
        <time>2015-04-20T19:58:43.042Z</time>
      </trkpt>
      <trkpt lat="48.81462" lon="2.35602">
        <ele>118.6</ele>
        <time>2015-04-20T19:58:43.962Z</time>
      </trkpt>
      <trkpt lat="48.81466" lon="2.35604">
        <ele>118.1</ele>
        <time>2015-04-20T19:58:44.997Z</time>
      </trkpt>
      <trkpt lat="48.81474" lon="2.3561">
        <ele>117.7</ele>
        <time>2015-04-20T19:58:46.940Z</time>
      </trkpt>
      <trkpt lat="48.81478" lon="2.35612">
        <ele>117.5</ele>
        <time>2015-04-20T19:58:48.024Z</time>
      </trkpt>
      <trkpt lat="48.81481" lon="2.35614">
        <ele>117.2</ele>
        <time>2015-04-20T19:58:48.940Z</time>
      </trkpt>
      <trkpt lat="48.81488" lon="2.35617">
        <ele>116.7</ele>
        <time>2015-04-20T19:58:51.001Z</time>
      </trkpt>
      <trkpt lat="48.81576" lon="2.35639">
        <ele>115.5</ele>
        <time>2015-04-20T19:59:06.961Z</time>
      </trkpt>
      <trkpt lat="48.81582" lon="2.35652">
        <ele>114.6</ele>
        <time>2015-04-20T19:59:07.984Z</time>
      </trkpt>
      <trkpt lat="48.81586" lon="2.35658">
        <ele>114.3</ele>
        <time>2015-04-20T19:59:09.040Z</time>
      </trkpt>
      <trkpt lat="48.8159" lon="2.35671">
        <ele>115</ele>
        <time>2015-04-20T19:59:09.946Z</time>
      </trkpt>
      <trkpt lat="48.81592" lon="2.35682">
        <ele>115.1</ele>
        <time>2015-04-20T19:59:11.026Z</time>
      </trkpt>
      <trkpt lat="48.81595" lon="2.3569">
        <ele>115.2</ele>
        <time>2015-04-20T19:59:11.997Z</time>
      </trkpt>
      <trkpt lat="48.81598" lon="2.35699">
        <ele>115.5</ele>
        <time>2015-04-20T19:59:12.936Z</time>
      </trkpt>
      <trkpt lat="48.81601" lon="2.35707">
        <ele>115.7</ele>
        <time>2015-04-20T19:59:13.958Z</time>
      </trkpt>
      <trkpt lat="48.81604" lon="2.35721">
        <ele>115.6</ele>
        <time>2015-04-20T19:59:15.999Z</time>
      </trkpt>
      <trkpt lat="48.81605" lon="2.35759">
        <ele>115.3</ele>
        <time>2015-04-20T19:59:21.961Z</time>
      </trkpt>
      <trkpt lat="48.81605" lon="2.35771">
        <ele>115.3</ele>
        <time>2015-04-20T19:59:23.941Z</time>
      </trkpt>
      <trkpt lat="48.81605" lon="2.35778">
        <ele>115.4</ele>
        <time>2015-04-20T19:59:24.963Z</time>
      </trkpt>
      <trkpt lat="48.81605" lon="2.35789">
        <ele>115.7</ele>
        <time>2015-04-20T19:59:27.010Z</time>
      </trkpt>
      <trkpt lat="48.81606" lon="2.35794">
        <ele>116</ele>
        <time>2015-04-20T19:59:28.016Z</time>
      </trkpt>
      <trkpt lat="48.81607" lon="2.358">
        <ele>116.3</ele>
        <time>2015-04-20T19:59:28.943Z</time>
      </trkpt>
      <trkpt lat="48.81601" lon="2.35845">
        <ele>117.2</ele>
        <time>2015-04-20T19:59:38.962Z</time>
      </trkpt>
      <trkpt lat="48.81601" lon="2.35857">
        <ele>117.6</ele>
        <time>2015-04-20T19:59:41.932Z</time>
      </trkpt>
      <trkpt lat="48.81601" lon="2.35861">
        <ele>117.7</ele>
        <time>2015-04-20T19:59:43.100Z</time>
      </trkpt>
      <trkpt lat="48.81598" lon="2.35872">
        <ele>117.9</ele>
        <time>2015-04-20T19:59:45.962Z</time>
      </trkpt>
      <trkpt lat="48.81598" lon="2.35876">
        <ele>117.7</ele>
        <time>2015-04-20T19:59:46.936Z</time>
      </trkpt>
      <trkpt lat="48.81596" lon="2.35888">
        <ele>117.8</ele>
        <time>2015-04-20T19:59:49.969Z</time>
      </trkpt>
      <trkpt lat="48.81596" lon="2.35893">
        <ele>118</ele>
        <time>2015-04-20T19:59:50.998Z</time>
      </trkpt>
      <trkpt lat="48.81596" lon="2.35905">
        <ele>118.1</ele>
        <time>2015-04-20T19:59:54.008Z</time>
      </trkpt>
      <trkpt lat="48.81596" lon="2.35909">
        <ele>118.2</ele>
        <time>2015-04-20T19:59:55.065Z</time>
      </trkpt>
      <trkpt lat="48.81597" lon="2.35922">
        <ele>119</ele>
        <time>2015-04-20T19:59:58.752Z</time>
      </trkpt>
      <trkpt lat="48.81598" lon="2.35927">
        <ele>119.1</ele>
        <time>2015-04-20T19:59:58.936Z</time>
      </trkpt>
      <trkpt lat="48.81597" lon="2.35936">
        <ele>119</ele>
        <time>2015-04-20T20:00:00.937Z</time>
      </trkpt>
      <trkpt lat="48.81596" lon="2.3594">
        <ele>118.8</ele>
        <time>2015-04-20T20:00:01.961Z</time>
      </trkpt>
      <trkpt lat="48.81594" lon="2.35951">
        <ele>118.7</ele>
        <time>2015-04-20T20:00:03.991Z</time>
      </trkpt>
      <trkpt lat="48.81593" lon="2.35956">
        <ele>118.7</ele>
        <time>2015-04-20T20:00:05.007Z</time>
      </trkpt>
      <trkpt lat="48.8159" lon="2.35968">
        <ele>118.4</ele>
        <time>2015-04-20T20:00:06.959Z</time>
      </trkpt>
      <trkpt lat="48.81589" lon="2.35973">
        <ele>118.2</ele>
        <time>2015-04-20T20:00:07.935Z</time>
      </trkpt>
      <trkpt lat="48.81587" lon="2.35983">
        <ele>117.7</ele>
        <time>2015-04-20T20:00:10.010Z</time>
      </trkpt>
      <trkpt lat="48.81586" lon="2.35988">
        <ele>117.6</ele>
        <time>2015-04-20T20:00:10.935Z</time>
      </trkpt>
      <trkpt lat="48.81584" lon="2.35999">
        <ele>117.1</ele>
        <time>2015-04-20T20:00:13.009Z</time>
      </trkpt>
      <trkpt lat="48.81583" lon="2.36004">
        <ele>117.3</ele>
        <time>2015-04-20T20:00:14.282Z</time>
      </trkpt>
      <trkpt lat="48.81581" lon="2.36013">
        <ele>118.2</ele>
        <time>2015-04-20T20:00:16.007Z</time>
      </trkpt>
      <trkpt lat="48.81581" lon="2.36019">
        <ele>118.4</ele>
        <time>2015-04-20T20:00:17.053Z</time>
      </trkpt>
      <trkpt lat="48.81581" lon="2.36029">
        <ele>119.2</ele>
        <time>2015-04-20T20:00:19.436Z</time>
      </trkpt>
      <trkpt lat="48.8158" lon="2.36034">
        <ele>119.7</ele>
        <time>2015-04-20T20:00:20.040Z</time>
      </trkpt>
      <trkpt lat="48.81582" lon="2.36043">
        <ele>122.2</ele>
        <time>2015-04-20T20:01:05.007Z</time>
      </trkpt>
      <trkpt lat="48.81575" lon="2.36062">
        <ele>131.4</ele>
        <time>2015-04-20T20:01:06.018Z</time>
      </trkpt>
      <trkpt lat="48.81576" lon="2.36073">
        <ele>130.8</ele>
        <time>2015-04-20T20:01:10.007Z</time>
      </trkpt>
      <trkpt lat="48.81576" lon="2.36076">
        <ele>130.7</ele>
        <time>2015-04-20T20:01:10.984Z</time>
      </trkpt>
      <trkpt lat="48.81581" lon="2.36085">
        <ele>123.9</ele>
        <time>2015-04-20T20:01:31.978Z</time>
      </trkpt>
      <trkpt lat="48.81583" lon="2.36087">
        <ele>123.6</ele>
        <time>2015-04-20T20:01:32.994Z</time>
      </trkpt>
      <trkpt lat="48.81591" lon="2.36088">
        <ele>122.7</ele>
        <time>2015-04-20T20:01:34.952Z</time>
      </trkpt>
      <trkpt lat="48.81595" lon="2.36087">
        <ele>122.6</ele>
        <time>2015-04-20T20:01:35.966Z</time>
      </trkpt>
      <trkpt lat="48.816" lon="2.36085">
        <ele>122.2</ele>
        <time>2015-04-20T20:01:36.944Z</time>
      </trkpt>
      <trkpt lat="48.81604" lon="2.36084">
        <ele>121.9</ele>
        <time>2015-04-20T20:01:37.974Z</time>
      </trkpt>
      <trkpt lat="48.81613" lon="2.36081">
        <ele>121.7</ele>
        <time>2015-04-20T20:01:40.030Z</time>
      </trkpt>
      <trkpt lat="48.81617" lon="2.36079">
        <ele>121.5</ele>
        <time>2015-04-20T20:01:41.049Z</time>
      </trkpt>
      <trkpt lat="48.81626" lon="2.36075">
        <ele>121.2</ele>
        <time>2015-04-20T20:01:42.963Z</time>
      </trkpt>
      <trkpt lat="48.8163" lon="2.36074">
        <ele>121.1</ele>
        <time>2015-04-20T20:01:43.988Z</time>
      </trkpt>
      <trkpt lat="48.81634" lon="2.36072">
        <ele>121.1</ele>
        <time>2015-04-20T20:01:45.002Z</time>
      </trkpt>
      <trkpt lat="48.81638" lon="2.36069">
        <ele>121</ele>
        <time>2015-04-20T20:01:46.021Z</time>
      </trkpt>
      <trkpt lat="48.81643" lon="2.36066">
        <ele>120.9</ele>
        <time>2015-04-20T20:01:46.946Z</time>
      </trkpt>
      <trkpt lat="48.81646" lon="2.36061">
        <ele>120.8</ele>
        <time>2015-04-20T20:01:47.948Z</time>
      </trkpt>
      <trkpt lat="48.81653" lon="2.36053">
        <ele>120.5</ele>
        <time>2015-04-20T20:01:49.983Z</time>
      </trkpt>
      <trkpt lat="48.81657" lon="2.36049">
        <ele>120.5</ele>
        <time>2015-04-20T20:01:50.986Z</time>
      </trkpt>
      <trkpt lat="48.81662" lon="2.36046">
        <ele>120.6</ele>
        <time>2015-04-20T20:01:52.008Z</time>
      </trkpt>
      <trkpt lat="48.81666" lon="2.36044">
        <ele>120.3</ele>
        <time>2015-04-20T20:01:53.026Z</time>
      </trkpt>
      <trkpt lat="48.81671" lon="2.36043">
        <ele>120.1</ele>
        <time>2015-04-20T20:01:53.945Z</time>
      </trkpt>
      <trkpt lat="48.81676" lon="2.36042">
        <ele>119.9</ele>
        <time>2015-04-20T20:01:54.960Z</time>
      </trkpt>
      <trkpt lat="48.81681" lon="2.36041">
        <ele>119.8</ele>
        <time>2015-04-20T20:01:55.959Z</time>
      </trkpt>
      <trkpt lat="48.81686" lon="2.36039">
        <ele>119.7</ele>
        <time>2015-04-20T20:01:57.004Z</time>
      </trkpt>
      <trkpt lat="48.8169" lon="2.36036">
        <ele>119.8</ele>
        <time>2015-04-20T20:01:58.005Z</time>
      </trkpt>
      <trkpt lat="48.81696" lon="2.36034">
        <ele>120.2</ele>
        <time>2015-04-20T20:01:59.025Z</time>
      </trkpt>
      <trkpt lat="48.81701" lon="2.36031">
        <ele>120.5</ele>
        <time>2015-04-20T20:02:00.046Z</time>
      </trkpt>
      <trkpt lat="48.81706" lon="2.36029">
        <ele>120.7</ele>
        <time>2015-04-20T20:02:00.944Z</time>
      </trkpt>
      <trkpt lat="48.81711" lon="2.36027">
        <ele>120.9</ele>
        <time>2015-04-20T20:02:01.964Z</time>
      </trkpt>
      <trkpt lat="48.81715" lon="2.36025">
        <ele>121.1</ele>
        <time>2015-04-20T20:02:03.028Z</time>
      </trkpt>
      <trkpt lat="48.81719" lon="2.36023">
        <ele>121.3</ele>
        <time>2015-04-20T20:02:04.037Z</time>
      </trkpt>
      <trkpt lat="48.81724" lon="2.36023">
        <ele>121.5</ele>
        <time>2015-04-20T20:02:04.938Z</time>
      </trkpt>
      <trkpt lat="48.81729" lon="2.36022">
        <ele>121.7</ele>
        <time>2015-04-20T20:02:05.982Z</time>
      </trkpt>
      <trkpt lat="48.81802" lon="2.3601">
        <ele>121.4</ele>
        <time>2015-04-20T20:02:19.008Z</time>
      </trkpt>
      <trkpt lat="48.81807" lon="2.36008">
        <ele>121.2</ele>
        <time>2015-04-20T20:02:19.955Z</time>
      </trkpt>
      <trkpt lat="48.81811" lon="2.36005">
        <ele>121</ele>
        <time>2015-04-20T20:02:21.014Z</time>
      </trkpt>
      <trkpt lat="48.8182" lon="2.36002">
        <ele>120.5</ele>
        <time>2015-04-20T20:02:22.947Z</time>
      </trkpt>
      <trkpt lat="48.81824" lon="2.36001">
        <ele>120.4</ele>
        <time>2015-04-20T20:02:23.990Z</time>
      </trkpt>
      <trkpt lat="48.8183" lon="2.36">
        <ele>120.5</ele>
        <time>2015-04-20T20:02:24.949Z</time>
      </trkpt>
      <trkpt lat="48.81835" lon="2.35998">
        <ele>120.5</ele>
        <time>2015-04-20T20:02:25.960Z</time>
      </trkpt>
      <trkpt lat="48.81843" lon="2.35995">
        <ele>120.3</ele>
        <time>2015-04-20T20:02:27.976Z</time>
      </trkpt>
      <trkpt lat="48.81848" lon="2.35992">
        <ele>119.5</ele>
        <time>2015-04-20T20:02:28.988Z</time>
      </trkpt>
      <trkpt lat="48.81856" lon="2.35987">
        <ele>118.7</ele>
        <time>2015-04-20T20:02:30.936Z</time>
      </trkpt>
      <trkpt lat="48.8186" lon="2.35986">
        <ele>118.5</ele>
        <time>2015-04-20T20:02:31.963Z</time>
      </trkpt>
      <trkpt lat="48.81867" lon="2.35983">
        <ele>118.1</ele>
        <time>2015-04-20T20:02:33.911Z</time>
      </trkpt>
      <trkpt lat="48.8187" lon="2.35982">
        <ele>118.1</ele>
        <time>2015-04-20T20:02:34.925Z</time>
      </trkpt>
      <trkpt lat="48.81877" lon="2.35979">
        <ele>117.9</ele>
        <time>2015-04-20T20:02:36.994Z</time>
      </trkpt>
      <trkpt lat="48.8188" lon="2.35978">
        <ele>117.6</ele>
        <time>2015-04-20T20:02:38.013Z</time>
      </trkpt>
      <trkpt lat="48.81887" lon="2.35974">
        <ele>117.3</ele>
        <time>2015-04-20T20:02:39.920Z</time>
      </trkpt>
      <trkpt lat="48.81889" lon="2.35973">
        <ele>117.3</ele>
        <time>2015-04-20T20:02:41.059Z</time>
      </trkpt>
      <trkpt lat="48.81896" lon="2.35971">
        <ele>117.5</ele>
        <time>2015-04-20T20:02:42.940Z</time>
      </trkpt>
      <trkpt lat="48.81899" lon="2.3597">
        <ele>117.6</ele>
        <time>2015-04-20T20:02:43.969Z</time>
      </trkpt>
      <trkpt lat="48.81905" lon="2.35968">
        <ele>117.7</ele>
        <time>2015-04-20T20:02:46.016Z</time>
      </trkpt>
      <trkpt lat="48.81908" lon="2.35965">
        <ele>118</ele>
        <time>2015-04-20T20:02:47.030Z</time>
      </trkpt>
      <trkpt lat="48.81915" lon="2.3596">
        <ele>118.4</ele>
        <time>2015-04-20T20:02:48.946Z</time>
      </trkpt>
      <trkpt lat="48.81919" lon="2.35959">
        <ele>118.5</ele>
        <time>2015-04-20T20:02:49.971Z</time>
      </trkpt>
      <trkpt lat="48.81925" lon="2.35956">
        <ele>118.6</ele>
        <time>2015-04-20T20:02:52.010Z</time>
      </trkpt>
      <trkpt lat="48.81932" lon="2.35955">
        <ele>118.7</ele>
        <time>2015-04-20T20:02:53.989Z</time>
      </trkpt>
      <trkpt lat="48.8194" lon="2.35952">
        <ele>118.8</ele>
        <time>2015-04-20T20:02:55.961Z</time>
      </trkpt>
      <trkpt lat="48.81943" lon="2.35949">
        <ele>119</ele>
        <time>2015-04-20T20:02:57.035Z</time>
      </trkpt>
      <trkpt lat="48.81951" lon="2.35942">
        <ele>119.4</ele>
        <time>2015-04-20T20:02:58.985Z</time>
      </trkpt>
      <trkpt lat="48.81955" lon="2.35938">
        <ele>120</ele>
        <time>2015-04-20T20:02:59.943Z</time>
      </trkpt>
      <trkpt lat="48.81959" lon="2.35935">
        <ele>120.4</ele>
        <time>2015-04-20T20:03:00.936Z</time>
      </trkpt>
      <trkpt lat="48.8198" lon="2.35919">
        <ele>121</ele>
        <time>2015-04-20T20:03:06.045Z</time>
      </trkpt>
      <trkpt lat="48.81988" lon="2.35915">
        <ele>121.3</ele>
        <time>2015-04-20T20:03:07.963Z</time>
      </trkpt>
      <trkpt lat="48.81992" lon="2.35913">
        <ele>121.2</ele>
        <time>2015-04-20T20:03:08.975Z</time>
      </trkpt>
      <trkpt lat="48.81999" lon="2.35905">
        <ele>121.6</ele>
        <time>2015-04-20T20:03:11.966Z</time>
      </trkpt>
      <trkpt lat="48.82001" lon="2.35901">
        <ele>122.1</ele>
        <time>2015-04-20T20:03:12.984Z</time>
      </trkpt>
      <trkpt lat="48.82005" lon="2.35893">
        <ele>122.9</ele>
        <time>2015-04-20T20:03:15.014Z</time>
      </trkpt>
      <trkpt lat="48.82009" lon="2.35891">
        <ele>123.2</ele>
        <time>2015-04-20T20:03:16.017Z</time>
      </trkpt>
      <trkpt lat="48.82121" lon="2.35863">
        <ele>129.2</ele>
        <time>2015-04-20T20:03:40.972Z</time>
      </trkpt>
      <trkpt lat="48.82121" lon="2.35863">
        <ele>129.2</ele>
        <time>2015-04-20T20:03:40.046Z</time>
      </trkpt>
      <trkpt lat="48.82154" lon="2.35864">
        <ele>130</ele>
        <time>2015-04-20T20:03:46.053Z</time>
      </trkpt>
      <trkpt lat="48.82157" lon="2.35863">
        <ele>129.7</ele>
        <time>2015-04-20T20:03:46.952Z</time>
      </trkpt>
      <trkpt lat="48.82174" lon="2.35854">
        <ele>129.6</ele>
        <time>2015-04-20T20:03:50.993Z</time>
      </trkpt>
      <trkpt lat="48.82181" lon="2.35849">
        <ele>130.1</ele>
        <time>2015-04-20T20:03:53.027Z</time>
      </trkpt>
      <trkpt lat="48.82185" lon="2.35848">
        <ele>130.3</ele>
        <time>2015-04-20T20:03:53.919Z</time>
      </trkpt>
      <trkpt lat="48.8219" lon="2.35845">
        <ele>130.5</ele>
        <time>2015-04-20T20:03:55.143Z</time>
      </trkpt>
      <trkpt lat="48.82196" lon="2.35843">
        <ele>130.5</ele>
        <time>2015-04-20T20:03:55.942Z</time>
      </trkpt>
      <trkpt lat="48.82203" lon="2.35841">
        <ele>130.8</ele>
        <time>2015-04-20T20:03:56.955Z</time>
      </trkpt>
      <trkpt lat="48.82209" lon="2.35839">
        <ele>131.2</ele>
        <time>2015-04-20T20:03:57.962Z</time>
      </trkpt>
      <trkpt lat="48.82219" lon="2.3584">
        <ele>131.8</ele>
        <time>2015-04-20T20:03:59.979Z</time>
      </trkpt>
      <trkpt lat="48.82228" lon="2.35838">
        <ele>132</ele>
        <time>2015-04-20T20:04:01.995Z</time>
      </trkpt>
      <trkpt lat="48.82232" lon="2.35837">
        <ele>132.2</ele>
        <time>2015-04-20T20:04:03.007Z</time>
      </trkpt>
      <trkpt lat="48.82239" lon="2.35836">
        <ele>132.9</ele>
        <time>2015-04-20T20:04:03.910Z</time>
      </trkpt>
      <trkpt lat="48.82243" lon="2.35833">
        <ele>133.2</ele>
        <time>2015-04-20T20:04:04.918Z</time>
      </trkpt>
      <trkpt lat="48.82248" lon="2.35831">
        <ele>133.4</ele>
        <time>2015-04-20T20:04:05.935Z</time>
      </trkpt>
      <trkpt lat="48.82252" lon="2.35829">
        <ele>133.6</ele>
        <time>2015-04-20T20:04:06.939Z</time>
      </trkpt>
      <trkpt lat="48.82259" lon="2.35823">
        <ele>133.8</ele>
        <time>2015-04-20T20:04:09.027Z</time>
      </trkpt>
      <trkpt lat="48.82263" lon="2.35821">
        <ele>134</ele>
        <time>2015-04-20T20:04:09.965Z</time>
      </trkpt>
      <trkpt lat="48.82268" lon="2.35821">
        <ele>134.2</ele>
        <time>2015-04-20T20:04:10.995Z</time>
      </trkpt>
      <trkpt lat="48.82273" lon="2.35821">
        <ele>134.2</ele>
        <time>2015-04-20T20:04:12.015Z</time>
      </trkpt>
      <trkpt lat="48.82334" lon="2.35803">
        <ele>135.9</ele>
        <time>2015-04-20T20:04:24.966Z</time>
      </trkpt>
      <trkpt lat="48.82342" lon="2.358">
        <ele>136.3</ele>
        <time>2015-04-20T20:04:27Z</time>
      </trkpt>
      <trkpt lat="48.82347" lon="2.35798">
        <ele>136.5</ele>
        <time>2015-04-20T20:04:27.941Z</time>
      </trkpt>
      <trkpt lat="48.82354" lon="2.35793">
        <ele>136.7</ele>
        <time>2015-04-20T20:04:29.913Z</time>
      </trkpt>
      <trkpt lat="48.82357" lon="2.35791">
        <ele>136.5</ele>
        <time>2015-04-20T20:04:30.944Z</time>
      </trkpt>
      <trkpt lat="48.82365" lon="2.35788">
        <ele>136.5</ele>
        <time>2015-04-20T20:04:32.978Z</time>
      </trkpt>
      <trkpt lat="48.82369" lon="2.35786">
        <ele>136.5</ele>
        <time>2015-04-20T20:04:33.982Z</time>
      </trkpt>
      <trkpt lat="48.82376" lon="2.35782">
        <ele>135.9</ele>
        <time>2015-04-20T20:04:35.947Z</time>
      </trkpt>
      <trkpt lat="48.8238" lon="2.35781">
        <ele>136</ele>
        <time>2015-04-20T20:04:36.961Z</time>
      </trkpt>
      <trkpt lat="48.82424" lon="2.35774">
        <ele>136.4</ele>
        <time>2015-04-20T20:04:48.971Z</time>
      </trkpt>
      <trkpt lat="48.82432" lon="2.35773">
        <ele>136.7</ele>
        <time>2015-04-20T20:04:51.024Z</time>
      </trkpt>
      <trkpt lat="48.82435" lon="2.35772">
        <ele>136.6</ele>
        <time>2015-04-20T20:04:51.920Z</time>
      </trkpt>
      <trkpt lat="48.82442" lon="2.35772">
        <ele>136.6</ele>
        <time>2015-04-20T20:04:53.947Z</time>
      </trkpt>
      <trkpt lat="48.82445" lon="2.35768">
        <ele>136.5</ele>
        <time>2015-04-20T20:04:54.908Z</time>
      </trkpt>
      <trkpt lat="48.82453" lon="2.35764">
        <ele>136.6</ele>
        <time>2015-04-20T20:04:56.970Z</time>
      </trkpt>
      <trkpt lat="48.82457" lon="2.35762">
        <ele>136.8</ele>
        <time>2015-04-20T20:04:57.981Z</time>
      </trkpt>
      <trkpt lat="48.82465" lon="2.35759">
        <ele>136.6</ele>
        <time>2015-04-20T20:05:00.023Z</time>
      </trkpt>
      <trkpt lat="48.82469" lon="2.35757">
        <ele>136.6</ele>
        <time>2015-04-20T20:05:01.141Z</time>
      </trkpt>
      <trkpt lat="48.82477" lon="2.35753">
        <ele>137.2</ele>
        <time>2015-04-20T20:05:03.005Z</time>
      </trkpt>
      <trkpt lat="48.82481" lon="2.35751">
        <ele>137.3</ele>
        <time>2015-04-20T20:05:04.107Z</time>
      </trkpt>
      <trkpt lat="48.82486" lon="2.3575">
        <ele>137.4</ele>
        <time>2015-04-20T20:05:04.942Z</time>
      </trkpt>
      <trkpt lat="48.82491" lon="2.35749">
        <ele>137.6</ele>
        <time>2015-04-20T20:05:05.943Z</time>
      </trkpt>
      <trkpt lat="48.82496" lon="2.35747">
        <ele>137.6</ele>
        <time>2015-04-20T20:05:07.016Z</time>
      </trkpt>
      <trkpt lat="48.825" lon="2.35746">
        <ele>137.8</ele>
        <time>2015-04-20T20:05:08.007Z</time>
      </trkpt>
      <trkpt lat="48.82507" lon="2.35745">
        <ele>138.2</ele>
        <time>2015-04-20T20:05:09.912Z</time>
      </trkpt>
      <trkpt lat="48.82511" lon="2.35744">
        <ele>138.1</ele>
        <time>2015-04-20T20:05:10.941Z</time>
      </trkpt>
      <trkpt lat="48.82519" lon="2.35742">
        <ele>137.3</ele>
        <time>2015-04-20T20:05:12.975Z</time>
      </trkpt>
      <trkpt lat="48.82524" lon="2.3574">
        <ele>137.1</ele>
        <time>2015-04-20T20:05:13.934Z</time>
      </trkpt>
      <trkpt lat="48.82529" lon="2.35736">
        <ele>136.6</ele>
        <time>2015-04-20T20:05:14.980Z</time>
      </trkpt>
      <trkpt lat="48.82532" lon="2.35734">
        <ele>136.2</ele>
        <time>2015-04-20T20:05:15.992Z</time>
      </trkpt>
      <trkpt lat="48.8254" lon="2.35729">
        <ele>135.7</ele>
        <time>2015-04-20T20:05:18.026Z</time>
      </trkpt>
      <trkpt lat="48.82544" lon="2.35726">
        <ele>135.5</ele>
        <time>2015-04-20T20:05:18.946Z</time>
      </trkpt>
      <trkpt lat="48.82552" lon="2.35721">
        <ele>135.7</ele>
        <time>2015-04-20T20:05:20.978Z</time>
      </trkpt>
      <trkpt lat="48.82556" lon="2.3572">
        <ele>136</ele>
        <time>2015-04-20T20:05:21.992Z</time>
      </trkpt>
      <trkpt lat="48.82565" lon="2.35718">
        <ele>136.8</ele>
        <time>2015-04-20T20:05:24.025Z</time>
      </trkpt>
      <trkpt lat="48.82569" lon="2.35718">
        <ele>137.5</ele>
        <time>2015-04-20T20:05:24.955Z</time>
      </trkpt>
      <trkpt lat="48.82574" lon="2.35716">
        <ele>138.2</ele>
        <time>2015-04-20T20:05:25.957Z</time>
      </trkpt>
      <trkpt lat="48.82578" lon="2.35714">
        <ele>138.7</ele>
        <time>2015-04-20T20:05:27.009Z</time>
      </trkpt>
      <trkpt lat="48.82585" lon="2.35713">
        <ele>139.5</ele>
        <time>2015-04-20T20:05:29.919Z</time>
      </trkpt>
      <trkpt lat="48.82588" lon="2.35714">
        <ele>139.7</ele>
        <time>2015-04-20T20:05:29.953Z</time>
      </trkpt>
      <trkpt lat="48.82596" lon="2.35716">
        <ele>140.2</ele>
        <time>2015-04-20T20:05:33.042Z</time>
      </trkpt>
      <trkpt lat="48.82597" lon="2.35716">
        <ele>140.1</ele>
        <time>2015-04-20T20:05:33.953Z</time>
      </trkpt>
      <trkpt lat="48.82598" lon="2.35716">
        <ele>139.9</ele>
        <time>2015-04-20T20:07:04.026Z</time>
      </trkpt>
      <trkpt lat="48.82611" lon="2.35731">
        <ele>135.9</ele>
        <time>2015-04-20T20:07:04.915Z</time>
      </trkpt>
      <trkpt lat="48.82618" lon="2.3573">
        <ele>136</ele>
        <time>2015-04-20T20:07:07.961Z</time>
      </trkpt>
      <trkpt lat="48.82621" lon="2.35728">
        <ele>135.9</ele>
        <time>2015-04-20T20:07:08.975Z</time>
      </trkpt>
      <trkpt lat="48.82627" lon="2.35725">
        <ele>136.6</ele>
        <time>2015-04-20T20:07:11.025Z</time>
      </trkpt>
      <trkpt lat="48.82629" lon="2.35724">
        <ele>137</ele>
        <time>2015-04-20T20:07:11.950Z</time>
      </trkpt>
      <trkpt lat="48.82635" lon="2.35721">
        <ele>138.1</ele>
        <time>2015-04-20T20:07:13.989Z</time>
      </trkpt>
      <trkpt lat="48.82639" lon="2.35719">
        <ele>138.8</ele>
        <time>2015-04-20T20:07:15.045Z</time>
      </trkpt>
      <trkpt lat="48.82646" lon="2.35714">
        <ele>140.6</ele>
        <time>2015-04-20T20:07:17.949Z</time>
      </trkpt>
      <trkpt lat="48.82649" lon="2.35713">
        <ele>140.7</ele>
        <time>2015-04-20T20:07:18.948Z</time>
      </trkpt>
      <trkpt lat="48.82655" lon="2.35711">
        <ele>140.7</ele>
        <time>2015-04-20T20:07:21.113Z</time>
      </trkpt>
      <trkpt lat="48.82658" lon="2.3571">
        <ele>140.8</ele>
        <time>2015-04-20T20:07:22.012Z</time>
      </trkpt>
      <trkpt lat="48.82665" lon="2.35705">
        <ele>141</ele>
        <time>2015-04-20T20:07:23.944Z</time>
      </trkpt>
      <trkpt lat="48.82669" lon="2.35703">
        <ele>141.6</ele>
        <time>2015-04-20T20:07:24.941Z</time>
      </trkpt>
      <trkpt lat="48.82673" lon="2.35701">
        <ele>142</ele>
        <time>2015-04-20T20:07:26.121Z</time>
      </trkpt>
      <trkpt lat="48.82678" lon="2.357">
        <ele>142.5</ele>
        <time>2015-04-20T20:07:26.975Z</time>
      </trkpt>
      <trkpt lat="48.82684" lon="2.35699">
        <ele>142.6</ele>
        <time>2015-04-20T20:07:27.994Z</time>
      </trkpt>
      <trkpt lat="48.82689" lon="2.35697">
        <ele>142.3</ele>
        <time>2015-04-20T20:07:28.944Z</time>
      </trkpt>
      <trkpt lat="48.82696" lon="2.35695">
        <ele>141.8</ele>
        <time>2015-04-20T20:07:31.963Z</time>
      </trkpt>
      <trkpt lat="48.82699" lon="2.35694">
        <ele>141.8</ele>
        <time>2015-04-20T20:07:32.999Z</time>
      </trkpt>
      <trkpt lat="48.82708" lon="2.35689">
        <ele>142.2</ele>
        <time>2015-04-20T20:07:35.964Z</time>
      </trkpt>
      <trkpt lat="48.82712" lon="2.35688">
        <ele>142.3</ele>
        <time>2015-04-20T20:07:36.976Z</time>
      </trkpt>
      <trkpt lat="48.82718" lon="2.35687">
        <ele>142.2</ele>
        <time>2015-04-20T20:07:38.002Z</time>
      </trkpt>
      <trkpt lat="48.82724" lon="2.35687">
        <ele>141.7</ele>
        <time>2015-04-20T20:07:39.009Z</time>
      </trkpt>
      <trkpt lat="48.82729" lon="2.35686">
        <ele>141.2</ele>
        <time>2015-04-20T20:07:40.152Z</time>
      </trkpt>
      <trkpt lat="48.82733" lon="2.35685">
        <ele>141.3</ele>
        <time>2015-04-20T20:07:40.952Z</time>
      </trkpt>
      <trkpt lat="48.82739" lon="2.35685">
        <ele>141.5</ele>
        <time>2015-04-20T20:07:41.985Z</time>
      </trkpt>
      <trkpt lat="48.82745" lon="2.35685">
        <ele>141.7</ele>
        <time>2015-04-20T20:07:42.995Z</time>
      </trkpt>
      <trkpt lat="48.8275" lon="2.35684">
        <ele>141.5</ele>
        <time>2015-04-20T20:07:44.025Z</time>
      </trkpt>
      <trkpt lat="48.82754" lon="2.35683">
        <ele>141.3</ele>
        <time>2015-04-20T20:07:45.028Z</time>
      </trkpt>
      <trkpt lat="48.82759" lon="2.35681">
        <ele>141.3</ele>
        <time>2015-04-20T20:07:45.923Z</time>
      </trkpt>
      <trkpt lat="48.82764" lon="2.35679">
        <ele>141.3</ele>
        <time>2015-04-20T20:07:46.943Z</time>
      </trkpt>
      <trkpt lat="48.82768" lon="2.35677">
        <ele>141.4</ele>
        <time>2015-04-20T20:07:47.942Z</time>
      </trkpt>
      <trkpt lat="48.82774" lon="2.35676">
        <ele>141.3</ele>
        <time>2015-04-20T20:07:48.947Z</time>
      </trkpt>
      <trkpt lat="48.8278" lon="2.35674">
        <ele>141.2</ele>
        <time>2015-04-20T20:07:49.956Z</time>
      </trkpt>
      <trkpt lat="48.82786" lon="2.35673">
        <ele>141.3</ele>
        <time>2015-04-20T20:07:50.991Z</time>
      </trkpt>
      <trkpt lat="48.82794" lon="2.35672">
        <ele>141.3</ele>
        <time>2015-04-20T20:07:52.998Z</time>
      </trkpt>
      <trkpt lat="48.82797" lon="2.35672">
        <ele>141.5</ele>
        <time>2015-04-20T20:07:54.015Z</time>
      </trkpt>
      <trkpt lat="48.82804" lon="2.35672">
        <ele>142.2</ele>
        <time>2015-04-20T20:07:55.948Z</time>
      </trkpt>
      <trkpt lat="48.82809" lon="2.35672">
        <ele>142.4</ele>
        <time>2015-04-20T20:07:57.010Z</time>
      </trkpt>
      <trkpt lat="48.82816" lon="2.3567">
        <ele>143.2</ele>
        <time>2015-04-20T20:07:58.992Z</time>
      </trkpt>
      <trkpt lat="48.82819" lon="2.35669">
        <ele>143.3</ele>
        <time>2015-04-20T20:08:00Z</time>
      </trkpt>
      <trkpt lat="48.82824" lon="2.35668">
        <ele>144.1</ele>
        <time>2015-04-20T20:08:02.044Z</time>
      </trkpt>
      <trkpt lat="48.82828" lon="2.35666">
        <ele>144.5</ele>
        <time>2015-04-20T20:08:03.088Z</time>
      </trkpt>
      <trkpt lat="48.82834" lon="2.35661">
        <ele>145.5</ele>
        <time>2015-04-20T20:08:05Z</time>
      </trkpt>
      <trkpt lat="48.82838" lon="2.35658">
        <ele>146.1</ele>
        <time>2015-04-20T20:08:06.080Z</time>
      </trkpt>
      <trkpt lat="48.82845" lon="2.35652">
        <ele>147.3</ele>
        <time>2015-04-20T20:08:09.002Z</time>
      </trkpt>
      <trkpt lat="48.82848" lon="2.35648">
        <ele>147.8</ele>
        <time>2015-04-20T20:08:10.006Z</time>
      </trkpt>
      <trkpt lat="48.82851" lon="2.35643">
        <ele>148.2</ele>
        <time>2015-04-20T20:08:11.025Z</time>
      </trkpt>
      <trkpt lat="48.82855" lon="2.35637">
        <ele>148.4</ele>
        <time>2015-04-20T20:08:12.040Z</time>
      </trkpt>
      <trkpt lat="48.82859" lon="2.35634">
        <ele>149</ele>
        <time>2015-04-20T20:08:13.007Z</time>
      </trkpt>
      <trkpt lat="48.82866" lon="2.35633">
        <ele>150</ele>
        <time>2015-04-20T20:08:14.033Z</time>
      </trkpt>
      <trkpt lat="48.82871" lon="2.35631">
        <ele>150.6</ele>
        <time>2015-04-20T20:08:15.035Z</time>
      </trkpt>
      <trkpt lat="48.82876" lon="2.35628">
        <ele>150.9</ele>
        <time>2015-04-20T20:08:15.942Z</time>
      </trkpt>
      <trkpt lat="48.82884" lon="2.35625">
        <ele>151.8</ele>
        <time>2015-04-20T20:08:17.944Z</time>
      </trkpt>
      <trkpt lat="48.82887" lon="2.35624">
        <ele>152.4</ele>
        <time>2015-04-20T20:08:18.958Z</time>
      </trkpt>
      <trkpt lat="48.82892" lon="2.35622">
        <ele>153.7</ele>
        <time>2015-04-20T20:08:21.035Z</time>
      </trkpt>
      <trkpt lat="48.82896" lon="2.35621">
        <ele>154.3</ele>
        <time>2015-04-20T20:08:22.040Z</time>
      </trkpt>
      <trkpt lat="48.82901" lon="2.3562">
        <ele>154.8</ele>
        <time>2015-04-20T20:08:22.918Z</time>
      </trkpt>
      <trkpt lat="48.82905" lon="2.35619">
        <ele>155.2</ele>
        <time>2015-04-20T20:08:23.931Z</time>
      </trkpt>
      <trkpt lat="48.82911" lon="2.35618">
        <ele>156.1</ele>
        <time>2015-04-20T20:08:24.937Z</time>
      </trkpt>
      <trkpt lat="48.82918" lon="2.35616">
        <ele>156.3</ele>
        <time>2015-04-20T20:08:25.956Z</time>
      </trkpt>
      <trkpt lat="48.82924" lon="2.35613">
        <ele>156.4</ele>
        <time>2015-04-20T20:08:26.974Z</time>
      </trkpt>
      <trkpt lat="48.82933" lon="2.3561">
        <ele>156.6</ele>
        <time>2015-04-20T20:08:27.982Z</time>
      </trkpt>
      <trkpt lat="48.82941" lon="2.35608">
        <ele>156.6</ele>
        <time>2015-04-20T20:08:28.999Z</time>
      </trkpt>
      <trkpt lat="48.82949" lon="2.35605">
        <ele>156.5</ele>
        <time>2015-04-20T20:08:30.007Z</time>
      </trkpt>
      <trkpt lat="48.82956" lon="2.35604">
        <ele>156.6</ele>
        <time>2015-04-20T20:08:31.020Z</time>
      </trkpt>
      <trkpt lat="48.82964" lon="2.35602">
        <ele>156.6</ele>
        <time>2015-04-20T20:08:31.941Z</time>
      </trkpt>
      <trkpt lat="48.82974" lon="2.35598">
        <ele>156.9</ele>
        <time>2015-04-20T20:08:33.054Z</time>
      </trkpt>
      <trkpt lat="48.82985" lon="2.35595">
        <ele>156.9</ele>
        <time>2015-04-20T20:08:33.942Z</time>
      </trkpt>
      <trkpt lat="48.82991" lon="2.35593">
        <ele>156.9</ele>
        <time>2015-04-20T20:08:34.935Z</time>
      </trkpt>
      <trkpt lat="48.82995" lon="2.35592">
        <ele>156.8</ele>
        <time>2015-04-20T20:08:35.949Z</time>
      </trkpt>
      <trkpt lat="48.83001" lon="2.35592">
        <ele>156.5</ele>
        <time>2015-04-20T20:08:37.989Z</time>
      </trkpt>
      <trkpt lat="48.83005" lon="2.35592">
        <ele>156.6</ele>
        <time>2015-04-20T20:08:39.017Z</time>
      </trkpt>
      <trkpt lat="48.83011" lon="2.35592">
        <ele>156.8</ele>
        <time>2015-04-20T20:08:40.939Z</time>
      </trkpt>
      <trkpt lat="48.83014" lon="2.35593">
        <ele>157</ele>
        <time>2015-04-20T20:08:41.948Z</time>
      </trkpt>
      <trkpt lat="48.83022" lon="2.35592">
        <ele>156.5</ele>
        <time>2015-04-20T20:08:45.017Z</time>
      </trkpt>
      <trkpt lat="48.83025" lon="2.35591">
        <ele>156.3</ele>
        <time>2015-04-20T20:08:45.913Z</time>
      </trkpt>
      <trkpt lat="48.83032" lon="2.35593">
        <ele>154.2</ele>
        <time>2015-04-20T20:08:47.946Z</time>
      </trkpt>
      <trkpt lat="48.83036" lon="2.35594">
        <ele>152.4</ele>
        <time>2015-04-20T20:08:48.962Z</time>
      </trkpt>
      <trkpt lat="48.83043" lon="2.35592">
        <ele>150.9</ele>
        <time>2015-04-20T20:08:51.037Z</time>
      </trkpt>
      <trkpt lat="48.83046" lon="2.35591">
        <ele>150.6</ele>
        <time>2015-04-20T20:08:51.936Z</time>
      </trkpt>
      <trkpt lat="48.83051" lon="2.3559">
        <ele>149.9</ele>
        <time>2015-04-20T20:08:53.954Z</time>
      </trkpt>
      <trkpt lat="48.83055" lon="2.35588">
        <ele>149.4</ele>
        <time>2015-04-20T20:08:54.965Z</time>
      </trkpt>
      <trkpt lat="48.83059" lon="2.35589">
        <ele>148.3</ele>
        <time>2015-04-20T20:08:56.015Z</time>
      </trkpt>
      <trkpt lat="48.83064" lon="2.35591">
        <ele>147</ele>
        <time>2015-04-20T20:08:57.020Z</time>
      </trkpt>
      <trkpt lat="48.83073" lon="2.35591">
        <ele>145.4</ele>
        <time>2015-04-20T20:08:58.945Z</time>
      </trkpt>
      <trkpt lat="48.83078" lon="2.35591">
        <ele>145</ele>
        <time>2015-04-20T20:08:59.954Z</time>
      </trkpt>
      <trkpt lat="48.83083" lon="2.35591">
        <ele>144.5</ele>
        <time>2015-04-20T20:09:00.909Z</time>
      </trkpt>
      <trkpt lat="48.83087" lon="2.35591">
        <ele>143.7</ele>
        <time>2015-04-20T20:09:01.933Z</time>
      </trkpt>
      <trkpt lat="48.83094" lon="2.35594">
        <ele>141.4</ele>
        <time>2015-04-20T20:09:03.997Z</time>
      </trkpt>
      <trkpt lat="48.83096" lon="2.35594">
        <ele>140.8</ele>
        <time>2015-04-20T20:09:04.959Z</time>
      </trkpt>
      <trkpt lat="48.83095" lon="2.35595">
        <ele>139.5</ele>
        <time>2015-04-20T20:09:05.944Z</time>
      </trkpt>
      <trkpt lat="48.83091" lon="2.35595">
        <ele>137.8</ele>
        <time>2015-04-20T20:09:06.947Z</time>
      </trkpt>
      <trkpt lat="48.83086" lon="2.35595">
        <ele>136.1</ele>
        <time>2015-04-20T20:10:22.988Z</time>
      </trkpt>
      <trkpt lat="48.83087" lon="2.35579">
        <ele>128.3</ele>
        <time>2015-04-20T20:10:24.182Z</time>
      </trkpt>
      <trkpt lat="48.83094" lon="2.35585">
        <ele>129.4</ele>
        <time>2015-04-20T20:10:27.958Z</time>
      </trkpt>
      <trkpt lat="48.83097" lon="2.35587">
        <ele>129.2</ele>
        <time>2015-04-20T20:10:28.969Z</time>
      </trkpt>
      <trkpt lat="48.83101" lon="2.35592">
        <ele>128.5</ele>
        <time>2015-04-20T20:10:31.016Z</time>
      </trkpt>
      <trkpt lat="48.83104" lon="2.35595">
        <ele>128</ele>
        <time>2015-04-20T20:10:31.916Z</time>
      </trkpt>
      <trkpt lat="48.8311" lon="2.356">
        <ele>127.1</ele>
        <time>2015-04-20T20:10:33.965Z</time>
      </trkpt>
      <trkpt lat="48.83113" lon="2.35603">
        <ele>126.5</ele>
        <time>2015-04-20T20:10:34.920Z</time>
      </trkpt>
      <trkpt lat="48.8312" lon="2.3561">
        <ele>123.9</ele>
        <time>2015-04-20T20:10:36.929Z</time>
      </trkpt>
      <trkpt lat="48.83124" lon="2.35613">
        <ele>122.1</ele>
        <time>2015-04-20T20:10:37.932Z</time>
      </trkpt>
      <trkpt lat="48.83132" lon="2.35616">
        <ele>120.8</ele>
        <time>2015-04-20T20:10:41.098Z</time>
      </trkpt>
      <trkpt lat="48.83135" lon="2.35617">
        <ele>120.7</ele>
        <time>2015-04-20T20:10:41.929Z</time>
      </trkpt>
      <trkpt lat="48.83141" lon="2.35616">
        <ele>120.4</ele>
        <time>2015-04-20T20:10:43.948Z</time>
      </trkpt>
      <trkpt lat="48.83144" lon="2.35615">
        <ele>120.3</ele>
        <time>2015-04-20T20:10:45.079Z</time>
      </trkpt>
      <trkpt lat="48.83151" lon="2.35614">
        <ele>120.6</ele>
        <time>2015-04-20T20:10:47.061Z</time>
      </trkpt>
      <trkpt lat="48.83153" lon="2.35612">
        <ele>120.6</ele>
        <time>2015-04-20T20:10:47.939Z</time>
      </trkpt>
      <trkpt lat="48.83161" lon="2.35607">
        <ele>120.7</ele>
        <time>2015-04-20T20:10:50.982Z</time>
      </trkpt>
      <trkpt lat="48.83164" lon="2.35605">
        <ele>120.6</ele>
        <time>2015-04-20T20:10:52.015Z</time>
      </trkpt>
      <trkpt lat="48.8317" lon="2.35597">
        <ele>120.1</ele>
        <time>2015-04-20T20:10:54.976Z</time>
      </trkpt>
      <trkpt lat="48.83172" lon="2.35594">
        <ele>120</ele>
        <time>2015-04-20T20:10:55.978Z</time>
      </trkpt>
      <trkpt lat="48.83177" lon="2.35588">
        <ele>120.3</ele>
        <time>2015-04-20T20:10:58.038Z</time>
      </trkpt>
      <trkpt lat="48.83179" lon="2.35585">
        <ele>120.3</ele>
        <time>2015-04-20T20:10:58.946Z</time>
      </trkpt>
      <trkpt lat="48.83184" lon="2.35574">
        <ele>120.3</ele>
        <time>2015-04-20T20:11:01.995Z</time>
      </trkpt>
      <trkpt lat="48.83186" lon="2.35571">
        <ele>120.4</ele>
        <time>2015-04-20T20:11:03Z</time>
      </trkpt>
      <trkpt lat="48.83189" lon="2.35561">
        <ele>120.5</ele>
        <time>2015-04-20T20:11:05.961Z</time>
      </trkpt>
      <trkpt lat="48.8319" lon="2.35557">
        <ele>120.4</ele>
        <time>2015-04-20T20:11:06.976Z</time>
      </trkpt>
      <trkpt lat="48.83192" lon="2.35547">
        <ele>120.5</ele>
        <time>2015-04-20T20:11:09.031Z</time>
      </trkpt>
      <trkpt lat="48.83193" lon="2.35543">
        <ele>120.3</ele>
        <time>2015-04-20T20:11:10.004Z</time>
      </trkpt>
      <trkpt lat="48.83195" lon="2.35534">
        <ele>120.6</ele>
        <time>2015-04-20T20:11:11.910Z</time>
      </trkpt>
      <trkpt lat="48.83197" lon="2.35528">
        <ele>120.9</ele>
        <time>2015-04-20T20:11:12.928Z</time>
      </trkpt>
      <trkpt lat="48.83201" lon="2.35517">
        <ele>121.8</ele>
        <time>2015-04-20T20:11:15.983Z</time>
      </trkpt>
      <trkpt lat="48.83203" lon="2.35513">
        <ele>122.2</ele>
        <time>2015-04-20T20:11:16.987Z</time>
      </trkpt>
      <trkpt lat="48.83207" lon="2.35507">
        <ele>122.7</ele>
        <time>2015-04-20T20:11:18.948Z</time>
      </trkpt>
      <trkpt lat="48.8321" lon="2.35504">
        <ele>123</ele>
        <time>2015-04-20T20:11:20.005Z</time>
      </trkpt>
      <trkpt lat="48.83214" lon="2.35495">
        <ele>123.6</ele>
        <time>2015-04-20T20:11:22.003Z</time>
      </trkpt>
      <trkpt lat="48.83217" lon="2.35491">
        <ele>124</ele>
        <time>2015-04-20T20:11:22.962Z</time>
      </trkpt>
      <trkpt lat="48.83224" lon="2.35483">
        <ele>124.9</ele>
        <time>2015-04-20T20:11:25.969Z</time>
      </trkpt>
      <trkpt lat="48.83226" lon="2.35481">
        <ele>125.1</ele>
        <time>2015-04-20T20:11:26.973Z</time>
      </trkpt>
      <trkpt lat="48.83232" lon="2.35477">
        <ele>125.4</ele>
        <time>2015-04-20T20:11:28.913Z</time>
      </trkpt>
      <trkpt lat="48.83234" lon="2.35475">
        <ele>125.5</ele>
        <time>2015-04-20T20:11:29.945Z</time>
      </trkpt>
      <trkpt lat="48.83239" lon="2.35466">
        <ele>126</ele>
        <time>2015-04-20T20:11:33.028Z</time>
      </trkpt>
      <trkpt lat="48.8324" lon="2.35462">
        <ele>126.2</ele>
        <time>2015-04-20T20:11:33.945Z</time>
      </trkpt>
      <trkpt lat="48.83241" lon="2.35449">
        <ele>126.3</ele>
        <time>2015-04-20T20:11:37.966Z</time>
      </trkpt>
      <trkpt lat="48.8324" lon="2.35445">
        <ele>126.3</ele>
        <time>2015-04-20T20:11:38.994Z</time>
      </trkpt>
      <trkpt lat="48.8324" lon="2.35433">
        <ele>126.4</ele>
        <time>2015-04-20T20:11:41.937Z</time>
      </trkpt>
      <trkpt lat="48.83241" lon="2.3543">
        <ele>126.8</ele>
        <time>2015-04-20T20:11:42.968Z</time>
      </trkpt>
      <trkpt lat="48.83247" lon="2.35426">
        <ele>126.7</ele>
        <time>2015-04-20T20:11:45.962Z</time>
      </trkpt>
      <trkpt lat="48.83252" lon="2.35426">
        <ele>126.6</ele>
        <time>2015-04-20T20:11:46.999Z</time>
      </trkpt>
      <trkpt lat="48.83257" lon="2.35425">
        <ele>126.7</ele>
        <time>2015-04-20T20:11:47.939Z</time>
      </trkpt>
      <trkpt lat="48.83261" lon="2.35423">
        <ele>126.8</ele>
        <time>2015-04-20T20:11:48.939Z</time>
      </trkpt>
      <trkpt lat="48.83266" lon="2.3542">
        <ele>127.4</ele>
        <time>2015-04-20T20:11:49.960Z</time>
      </trkpt>
      <trkpt lat="48.83272" lon="2.35415">
        <ele>127.9</ele>
        <time>2015-04-20T20:11:50.982Z</time>
      </trkpt>
      <trkpt lat="48.83277" lon="2.35409">
        <ele>128.2</ele>
        <time>2015-04-20T20:11:51.988Z</time>
      </trkpt>
      <trkpt lat="48.83284" lon="2.35406">
        <ele>128.1</ele>
        <time>2015-04-20T20:11:53.035Z</time>
      </trkpt>
      <trkpt lat="48.83291" lon="2.35403">
        <ele>127.8</ele>
        <time>2015-04-20T20:11:53.938Z</time>
      </trkpt>
      <trkpt lat="48.83298" lon="2.35402">
        <ele>127.7</ele>
        <time>2015-04-20T20:11:54.949Z</time>
      </trkpt>
      <trkpt lat="48.83304" lon="2.35401">
        <ele>127.6</ele>
        <time>2015-04-20T20:11:55.955Z</time>
      </trkpt>
      <trkpt lat="48.83312" lon="2.35398">
        <ele>127.6</ele>
        <time>2015-04-20T20:11:56.975Z</time>
      </trkpt>
      <trkpt lat="48.83319" lon="2.35394">
        <ele>127.5</ele>
        <time>2015-04-20T20:11:57.996Z</time>
      </trkpt>
      <trkpt lat="48.83327" lon="2.35391">
        <ele>127.4</ele>
        <time>2015-04-20T20:11:58.999Z</time>
      </trkpt>
      <trkpt lat="48.83333" lon="2.35388">
        <ele>127.4</ele>
        <time>2015-04-20T20:12:00.026Z</time>
      </trkpt>
      <trkpt lat="48.8334" lon="2.35384">
        <ele>127.4</ele>
        <time>2015-04-20T20:12:00.938Z</time>
      </trkpt>
      <trkpt lat="48.83346" lon="2.35381">
        <ele>127.6</ele>
        <time>2015-04-20T20:12:01.946Z</time>
      </trkpt>
      <trkpt lat="48.83352" lon="2.35378">
        <ele>127.6</ele>
        <time>2015-04-20T20:12:02.961Z</time>
      </trkpt>
      <trkpt lat="48.83357" lon="2.35375">
        <ele>127.7</ele>
        <time>2015-04-20T20:12:03.985Z</time>
      </trkpt>
      <trkpt lat="48.83364" lon="2.35372">
        <ele>127.8</ele>
        <time>2015-04-20T20:12:04.992Z</time>
      </trkpt>
      <trkpt lat="48.83371" lon="2.35369">
        <ele>128</ele>
        <time>2015-04-20T20:12:06.011Z</time>
      </trkpt>
      <trkpt lat="48.83377" lon="2.35367">
        <ele>128.2</ele>
        <time>2015-04-20T20:12:07.009Z</time>
      </trkpt>
      <trkpt lat="48.83384" lon="2.35365">
        <ele>128.5</ele>
        <time>2015-04-20T20:12:07.926Z</time>
      </trkpt>
      <trkpt lat="48.83391" lon="2.35363">
        <ele>128.9</ele>
        <time>2015-04-20T20:12:08.982Z</time>
      </trkpt>
      <trkpt lat="48.83399" lon="2.3536">
        <ele>129.3</ele>
        <time>2015-04-20T20:12:09.987Z</time>
      </trkpt>
      <trkpt lat="48.83406" lon="2.35358">
        <ele>129.6</ele>
        <time>2015-04-20T20:12:11.001Z</time>
      </trkpt>
      <trkpt lat="48.83413" lon="2.35354">
        <ele>130.1</ele>
        <time>2015-04-20T20:12:12.012Z</time>
      </trkpt>
      <trkpt lat="48.83418" lon="2.35347">
        <ele>130.8</ele>
        <time>2015-04-20T20:12:13.016Z</time>
      </trkpt>
      <trkpt lat="48.83423" lon="2.35342">
        <ele>131.1</ele>
        <time>2015-04-20T20:12:13.939Z</time>
      </trkpt>
      <trkpt lat="48.83429" lon="2.35338">
        <ele>131.4</ele>
        <time>2015-04-20T20:12:14.976Z</time>
      </trkpt>
      <trkpt lat="48.83435" lon="2.35335">
        <ele>131.5</ele>
        <time>2015-04-20T20:12:15.984Z</time>
      </trkpt>
      <trkpt lat="48.8344" lon="2.35332">
        <ele>131.4</ele>
        <time>2015-04-20T20:12:16.996Z</time>
      </trkpt>
      <trkpt lat="48.83445" lon="2.35329">
        <ele>131</ele>
        <time>2015-04-20T20:12:17.933Z</time>
      </trkpt>
      <trkpt lat="48.83451" lon="2.35325">
        <ele>130.6</ele>
        <time>2015-04-20T20:12:18.943Z</time>
      </trkpt>
      <trkpt lat="48.83456" lon="2.35323">
        <ele>130.4</ele>
        <time>2015-04-20T20:12:19.938Z</time>
      </trkpt>
      <trkpt lat="48.83461" lon="2.3532">
        <ele>130.1</ele>
        <time>2015-04-20T20:12:20.978Z</time>
      </trkpt>
      <trkpt lat="48.83465" lon="2.35318">
        <ele>129.6</ele>
        <time>2015-04-20T20:12:21.987Z</time>
      </trkpt>
      <trkpt lat="48.83471" lon="2.35316">
        <ele>129.3</ele>
        <time>2015-04-20T20:12:23Z</time>
      </trkpt>
      <trkpt lat="48.83476" lon="2.35313">
        <ele>129.1</ele>
        <time>2015-04-20T20:12:23.922Z</time>
      </trkpt>
      <trkpt lat="48.83482" lon="2.3531">
        <ele>128.9</ele>
        <time>2015-04-20T20:12:24.937Z</time>
      </trkpt>
      <trkpt lat="48.83488" lon="2.35306">
        <ele>128.7</ele>
        <time>2015-04-20T20:12:25.947Z</time>
      </trkpt>
      <trkpt lat="48.83494" lon="2.35302">
        <ele>128.4</ele>
        <time>2015-04-20T20:12:26.981Z</time>
      </trkpt>
      <trkpt lat="48.835" lon="2.35298">
        <ele>128.2</ele>
        <time>2015-04-20T20:12:27.989Z</time>
      </trkpt>
      <trkpt lat="48.83505" lon="2.35294">
        <ele>127.9</ele>
        <time>2015-04-20T20:12:28.995Z</time>
      </trkpt>
      <trkpt lat="48.83511" lon="2.35291">
        <ele>127.7</ele>
        <time>2015-04-20T20:12:29.912Z</time>
      </trkpt>
      <trkpt lat="48.83517" lon="2.35289">
        <ele>127.7</ele>
        <time>2015-04-20T20:12:31.039Z</time>
      </trkpt>
      <trkpt lat="48.83521" lon="2.35287">
        <ele>127.8</ele>
        <time>2015-04-20T20:12:31.943Z</time>
      </trkpt>
      <trkpt lat="48.83526" lon="2.35284">
        <ele>127.7</ele>
        <time>2015-04-20T20:12:32.976Z</time>
      </trkpt>
      <trkpt lat="48.83532" lon="2.35282">
        <ele>127.6</ele>
        <time>2015-04-20T20:12:33.995Z</time>
      </trkpt>
      <trkpt lat="48.83538" lon="2.3528">
        <ele>127.6</ele>
        <time>2015-04-20T20:12:35.012Z</time>
      </trkpt>
      <trkpt lat="48.83543" lon="2.35278">
        <ele>127.7</ele>
        <time>2015-04-20T20:12:36.030Z</time>
      </trkpt>
      <trkpt lat="48.83548" lon="2.35274">
        <ele>127.8</ele>
        <time>2015-04-20T20:12:36.940Z</time>
      </trkpt>
      <trkpt lat="48.83553" lon="2.35271">
        <ele>128.2</ele>
        <time>2015-04-20T20:12:37.961Z</time>
      </trkpt>
      <trkpt lat="48.83558" lon="2.35265">
        <ele>128.6</ele>
        <time>2015-04-20T20:12:39.017Z</time>
      </trkpt>
      <trkpt lat="48.83562" lon="2.35259">
        <ele>128.9</ele>
        <time>2015-04-20T20:12:40.012Z</time>
      </trkpt>
      <trkpt lat="48.83567" lon="2.35254">
        <ele>129</ele>
        <time>2015-04-20T20:12:41.026Z</time>
      </trkpt>
      <trkpt lat="48.83573" lon="2.35249">
        <ele>128.8</ele>
        <time>2015-04-20T20:12:41.931Z</time>
      </trkpt>
      <trkpt lat="48.83577" lon="2.35246">
        <ele>128.9</ele>
        <time>2015-04-20T20:12:43.037Z</time>
      </trkpt>
      <trkpt lat="48.83582" lon="2.35244">
        <ele>128.6</ele>
        <time>2015-04-20T20:12:43.913Z</time>
      </trkpt>
      <trkpt lat="48.83587" lon="2.35242">
        <ele>128.5</ele>
        <time>2015-04-20T20:12:44.976Z</time>
      </trkpt>
      <trkpt lat="48.83592" lon="2.35241">
        <ele>128.7</ele>
        <time>2015-04-20T20:12:45.993Z</time>
      </trkpt>
      <trkpt lat="48.83597" lon="2.3524">
        <ele>128.9</ele>
        <time>2015-04-20T20:12:46.999Z</time>
      </trkpt>
      <trkpt lat="48.83605" lon="2.35234">
        <ele>129.3</ele>
        <time>2015-04-20T20:12:49.037Z</time>
      </trkpt>
      <trkpt lat="48.83609" lon="2.35231">
        <ele>129.6</ele>
        <time>2015-04-20T20:12:49.979Z</time>
      </trkpt>
      <trkpt lat="48.83615" lon="2.35223">
        <ele>129.9</ele>
        <time>2015-04-20T20:12:51.993Z</time>
      </trkpt>
      <trkpt lat="48.83618" lon="2.3522">
        <ele>130.1</ele>
        <time>2015-04-20T20:12:53.008Z</time>
      </trkpt>
      <trkpt lat="48.83625" lon="2.35214">
        <ele>129.9</ele>
        <time>2015-04-20T20:12:54.943Z</time>
      </trkpt>
      <trkpt lat="48.83628" lon="2.3521">
        <ele>129.7</ele>
        <time>2015-04-20T20:12:55.944Z</time>
      </trkpt>
      <trkpt lat="48.83632" lon="2.35203">
        <ele>129.3</ele>
        <time>2015-04-20T20:12:58.011Z</time>
      </trkpt>
      <trkpt lat="48.83636" lon="2.35201">
        <ele>129.5</ele>
        <time>2015-04-20T20:12:59.046Z</time>
      </trkpt>
      <trkpt lat="48.83643" lon="2.35195">
        <ele>129.3</ele>
        <time>2015-04-20T20:13:00.997Z</time>
      </trkpt>
      <trkpt lat="48.83645" lon="2.35192">
        <ele>128.9</ele>
        <time>2015-04-20T20:13:01.997Z</time>
      </trkpt>
      <trkpt lat="48.83651" lon="2.35187">
        <ele>127.9</ele>
        <time>2015-04-20T20:13:07.912Z</time>
      </trkpt>
      <trkpt lat="48.83657" lon="2.3518">
        <ele>127.1</ele>
        <time>2015-04-20T20:13:08.976Z</time>
      </trkpt>
      <trkpt lat="48.83664" lon="2.35176">
        <ele>126.7</ele>
        <time>2015-04-20T20:13:11.003Z</time>
      </trkpt>
      <trkpt lat="48.83668" lon="2.35175">
        <ele>126.8</ele>
        <time>2015-04-20T20:13:12.033Z</time>
      </trkpt>
      <trkpt lat="48.83676" lon="2.35173">
        <ele>126.3</ele>
        <time>2015-04-20T20:13:13.938Z</time>
      </trkpt>
      <trkpt lat="48.83682" lon="2.35171">
        <ele>125.9</ele>
        <time>2015-04-20T20:13:15.130Z</time>
      </trkpt>
      <trkpt lat="48.83687" lon="2.35169">
        <ele>125.9</ele>
        <time>2015-04-20T20:13:15.969Z</time>
      </trkpt>
      <trkpt lat="48.83692" lon="2.35167">
        <ele>125.8</ele>
        <time>2015-04-20T20:13:16.973Z</time>
      </trkpt>
      <trkpt lat="48.83697" lon="2.35166">
        <ele>125.8</ele>
        <time>2015-04-20T20:13:17.997Z</time>
      </trkpt>
      <trkpt lat="48.83702" lon="2.35164">
        <ele>125.7</ele>
        <time>2015-04-20T20:13:19.015Z</time>
      </trkpt>
      <trkpt lat="48.8371" lon="2.35162">
        <ele>126.3</ele>
        <time>2015-04-20T20:13:21.052Z</time>
      </trkpt>
      <trkpt lat="48.83713" lon="2.3516">
        <ele>126.6</ele>
        <time>2015-04-20T20:13:21.946Z</time>
      </trkpt>
      <trkpt lat="48.8372" lon="2.35153">
        <ele>127.2</ele>
        <time>2015-04-20T20:13:24.914Z</time>
      </trkpt>
      <trkpt lat="48.83723" lon="2.3515">
        <ele>127.4</ele>
        <time>2015-04-20T20:13:25.943Z</time>
      </trkpt>
      <trkpt lat="48.83728" lon="2.35145">
        <ele>127.8</ele>
        <time>2015-04-20T20:13:27.968Z</time>
      </trkpt>
      <trkpt lat="48.8373" lon="2.35141">
        <ele>128.1</ele>
        <time>2015-04-20T20:13:28.984Z</time>
      </trkpt>
      <trkpt lat="48.83737" lon="2.35132">
        <ele>128.3</ele>
        <time>2015-04-20T20:13:31.945Z</time>
      </trkpt>
      <trkpt lat="48.83739" lon="2.35129">
        <ele>128.5</ele>
        <time>2015-04-20T20:13:33.127Z</time>
      </trkpt>
      <trkpt lat="48.83743" lon="2.35127">
        <ele>128.5</ele>
        <time>2015-04-20T20:13:33.935Z</time>
      </trkpt>
      <trkpt lat="48.83748" lon="2.35125">
        <ele>128.7</ele>
        <time>2015-04-20T20:13:34.936Z</time>
      </trkpt>
      <trkpt lat="48.83752" lon="2.35123">
        <ele>129</ele>
        <time>2015-04-20T20:13:35.947Z</time>
      </trkpt>
      <trkpt lat="48.83758" lon="2.3512">
        <ele>129</ele>
        <time>2015-04-20T20:13:36.951Z</time>
      </trkpt>
      <trkpt lat="48.83763" lon="2.35118">
        <ele>129.4</ele>
        <time>2015-04-20T20:13:37.966Z</time>
      </trkpt>
      <trkpt lat="48.83768" lon="2.35115">
        <ele>129.7</ele>
        <time>2015-04-20T20:13:38.983Z</time>
      </trkpt>
      <trkpt lat="48.83773" lon="2.35112">
        <ele>130.1</ele>
        <time>2015-04-20T20:13:40.002Z</time>
      </trkpt>
      <trkpt lat="48.83779" lon="2.3511">
        <ele>130.5</ele>
        <time>2015-04-20T20:13:41.013Z</time>
      </trkpt>
      <trkpt lat="48.83785" lon="2.35107">
        <ele>130.8</ele>
        <time>2015-04-20T20:13:41.911Z</time>
      </trkpt>
      <trkpt lat="48.83789" lon="2.35106">
        <ele>131</ele>
        <time>2015-04-20T20:13:42.937Z</time>
      </trkpt>
      <trkpt lat="48.83793" lon="2.35103">
        <ele>131.3</ele>
        <time>2015-04-20T20:13:43.955Z</time>
      </trkpt>
      <trkpt lat="48.83797" lon="2.351">
        <ele>131.6</ele>
        <time>2015-04-20T20:13:44.991Z</time>
      </trkpt>
      <trkpt lat="48.83803" lon="2.35097">
        <ele>132</ele>
        <time>2015-04-20T20:13:46.012Z</time>
      </trkpt>
      <trkpt lat="48.83808" lon="2.35094">
        <ele>132.3</ele>
        <time>2015-04-20T20:13:46.917Z</time>
      </trkpt>
      <trkpt lat="48.83812" lon="2.3509">
        <ele>132.5</ele>
        <time>2015-04-20T20:13:47.938Z</time>
      </trkpt>
      <trkpt lat="48.83816" lon="2.35086">
        <ele>132.7</ele>
        <time>2015-04-20T20:13:48.939Z</time>
      </trkpt>
      <trkpt lat="48.83821" lon="2.35083">
        <ele>133</ele>
        <time>2015-04-20T20:13:49.953Z</time>
      </trkpt>
      <trkpt lat="48.83826" lon="2.3508">
        <ele>133</ele>
        <time>2015-04-20T20:13:50.969Z</time>
      </trkpt>
      <trkpt lat="48.83834" lon="2.35077">
        <ele>133.4</ele>
        <time>2015-04-20T20:13:51.979Z</time>
      </trkpt>
      <trkpt lat="48.83839" lon="2.35075">
        <ele>133.4</ele>
        <time>2015-04-20T20:13:52.990Z</time>
      </trkpt>
      <trkpt lat="48.83845" lon="2.35074">
        <ele>133.5</ele>
        <time>2015-04-20T20:13:53.996Z</time>
      </trkpt>
      <trkpt lat="48.83851" lon="2.35073">
        <ele>132.6</ele>
        <time>2015-04-20T20:13:55.007Z</time>
      </trkpt>
      <trkpt lat="48.83857" lon="2.35074">
        <ele>131.1</ele>
        <time>2015-04-20T20:13:56.026Z</time>
      </trkpt>
      <trkpt lat="48.83864" lon="2.35073">
        <ele>129.7</ele>
        <time>2015-04-20T20:13:57.025Z</time>
      </trkpt>
      <trkpt lat="48.83875" lon="2.35076">
        <ele>127.8</ele>
        <time>2015-04-20T20:13:57.935Z</time>
      </trkpt>
      <trkpt lat="48.83881" lon="2.35076">
        <ele>127.1</ele>
        <time>2015-04-20T20:13:59.016Z</time>
      </trkpt>
      <trkpt lat="48.83886" lon="2.35077">
        <ele>126.1</ele>
        <time>2015-04-20T20:13:59.978Z</time>
      </trkpt>
      <trkpt lat="48.8389" lon="2.35079">
        <ele>125.5</ele>
        <time>2015-04-20T20:14:00.992Z</time>
      </trkpt>
      <trkpt lat="48.83896" lon="2.35081">
        <ele>125.3</ele>
        <time>2015-04-20T20:14:02.035Z</time>
      </trkpt>
      <trkpt lat="48.83903" lon="2.35086">
        <ele>124.5</ele>
        <time>2015-04-20T20:14:03.956Z</time>
      </trkpt>
      <trkpt lat="48.83907" lon="2.35088">
        <ele>123.9</ele>
        <time>2015-04-20T20:14:04.984Z</time>
      </trkpt>
      <trkpt lat="48.83913" lon="2.35096">
        <ele>122.9</ele>
        <time>2015-04-20T20:14:06.973Z</time>
      </trkpt>
      <trkpt lat="48.83915" lon="2.35099">
        <ele>122.6</ele>
        <time>2015-04-20T20:14:07.986Z</time>
      </trkpt>
      <trkpt lat="48.83922" lon="2.35102">
        <ele>122.1</ele>
        <time>2015-04-20T20:14:09.973Z</time>
      </trkpt>
      <trkpt lat="48.83926" lon="2.35103">
        <ele>121.7</ele>
        <time>2015-04-20T20:14:10.925Z</time>
      </trkpt>
      <trkpt lat="48.8393" lon="2.35106">
        <ele>121.4</ele>
        <time>2015-04-20T20:14:12.104Z</time>
      </trkpt>
      <trkpt lat="48.83936" lon="2.35108">
        <ele>121.1</ele>
        <time>2015-04-20T20:14:12.972Z</time>
      </trkpt>
      <trkpt lat="48.83941" lon="2.3511">
        <ele>120.8</ele>
        <time>2015-04-20T20:14:13.939Z</time>
      </trkpt>
      <trkpt lat="48.83946" lon="2.35112">
        <ele>120.5</ele>
        <time>2015-04-20T20:14:15.013Z</time>
      </trkpt>
      <trkpt lat="48.83951" lon="2.35115">
        <ele>120.2</ele>
        <time>2015-04-20T20:14:15.935Z</time>
      </trkpt>
      <trkpt lat="48.83955" lon="2.35117">
        <ele>119.8</ele>
        <time>2015-04-20T20:14:16.929Z</time>
      </trkpt>
      <trkpt lat="48.83962" lon="2.35123">
        <ele>118.7</ele>
        <time>2015-04-20T20:14:18.973Z</time>
      </trkpt>
      <trkpt lat="48.83965" lon="2.35125">
        <ele>118</ele>
        <time>2015-04-20T20:14:19.949Z</time>
      </trkpt>
      <trkpt lat="48.8397" lon="2.35128">
        <ele>116.8</ele>
        <time>2015-04-20T20:14:21.967Z</time>
      </trkpt>
      <trkpt lat="48.83973" lon="2.3513">
        <ele>116.2</ele>
        <time>2015-04-20T20:14:22.903Z</time>
      </trkpt>
      <trkpt lat="48.83979" lon="2.35134">
        <ele>115.4</ele>
        <time>2015-04-20T20:14:24.963Z</time>
      </trkpt>
      <trkpt lat="48.83982" lon="2.35137">
        <ele>115.4</ele>
        <time>2015-04-20T20:14:25.902Z</time>
      </trkpt>
      <trkpt lat="48.83987" lon="2.35143">
        <ele>115.4</ele>
        <time>2015-04-20T20:14:27.943Z</time>
      </trkpt>
      <trkpt lat="48.83989" lon="2.35148">
        <ele>115.2</ele>
        <time>2015-04-20T20:14:28.960Z</time>
      </trkpt>
      <trkpt lat="48.83995" lon="2.35157">
        <ele>114.9</ele>
        <time>2015-04-20T20:14:30.922Z</time>
      </trkpt>
      <trkpt lat="48.83997" lon="2.35162">
        <ele>114.5</ele>
        <time>2015-04-20T20:14:31.979Z</time>
      </trkpt>
      <trkpt lat="48.84001" lon="2.35172">
        <ele>114</ele>
        <time>2015-04-20T20:14:33.894Z</time>
      </trkpt>
      <trkpt lat="48.84005" lon="2.35182">
        <ele>113.1</ele>
        <time>2015-04-20T20:14:34.901Z</time>
      </trkpt>
      <trkpt lat="48.84008" lon="2.35193">
        <ele>112.1</ele>
        <time>2015-04-20T20:14:36.936Z</time>
      </trkpt>
      <trkpt lat="48.8401" lon="2.35198">
        <ele>111.9</ele>
        <time>2015-04-20T20:14:37.956Z</time>
      </trkpt>
      <trkpt lat="48.84014" lon="2.35207">
        <ele>111.2</ele>
        <time>2015-04-20T20:14:39.998Z</time>
      </trkpt>
      <trkpt lat="48.84015" lon="2.35212">
        <ele>110.9</ele>
        <time>2015-04-20T20:14:41.007Z</time>
      </trkpt>
      <trkpt lat="48.84017" lon="2.3522">
        <ele>110.4</ele>
        <time>2015-04-20T20:14:42.919Z</time>
      </trkpt>
      <trkpt lat="48.84019" lon="2.35224">
        <ele>110.2</ele>
        <time>2015-04-20T20:14:43.983Z</time>
      </trkpt>
      <trkpt lat="48.84021" lon="2.35229">
        <ele>110</ele>
        <time>2015-04-20T20:14:45.011Z</time>
      </trkpt>
      <trkpt lat="48.84024" lon="2.35235">
        <ele>109.7</ele>
        <time>2015-04-20T20:14:45.973Z</time>
      </trkpt>
      <trkpt lat="48.84028" lon="2.35241">
        <ele>109.3</ele>
        <time>2015-04-20T20:14:46.988Z</time>
      </trkpt>
      <trkpt lat="48.84031" lon="2.35247">
        <ele>109</ele>
        <time>2015-04-20T20:14:48.005Z</time>
      </trkpt>
      <trkpt lat="48.84034" lon="2.35259">
        <ele>109.1</ele>
        <time>2015-04-20T20:14:49.928Z</time>
      </trkpt>
      <trkpt lat="48.84039" lon="2.35264">
        <ele>109.3</ele>
        <time>2015-04-20T20:14:50.994Z</time>
      </trkpt>
      <trkpt lat="48.8404" lon="2.35272">
        <ele>109.9</ele>
        <time>2015-04-20T20:14:51.957Z</time>
      </trkpt>
      <trkpt lat="48.84044" lon="2.35278">
        <ele>110.8</ele>
        <time>2015-04-20T20:14:53.032Z</time>
      </trkpt>
      <trkpt lat="48.84048" lon="2.35282">
        <ele>111.5</ele>
        <time>2015-04-20T20:14:53.987Z</time>
      </trkpt>
      <trkpt lat="48.84059" lon="2.35283">
        <ele>113.1</ele>
        <time>2015-04-20T20:14:54.998Z</time>
      </trkpt>
      <trkpt lat="48.84065" lon="2.3529">
        <ele>114.5</ele>
        <time>2015-04-20T20:14:57.971Z</time>
      </trkpt>
      <trkpt lat="48.84063" lon="2.35295">
        <ele>115.1</ele>
        <time>2015-04-20T20:14:58.989Z</time>
      </trkpt>
      <trkpt lat="48.84058" lon="2.35307">
        <ele>114.9</ele>
        <time>2015-04-20T20:15:02.014Z</time>
      </trkpt>
      <trkpt lat="48.84058" lon="2.35312">
        <ele>113.7</ele>
        <time>2015-04-20T20:15:02.955Z</time>
      </trkpt>
      <trkpt lat="48.84058" lon="2.35321">
        <ele>111.7</ele>
        <time>2015-04-20T20:15:03.968Z</time>
      </trkpt>
      <trkpt lat="48.84058" lon="2.35329">
        <ele>109.9</ele>
        <time>2015-04-20T20:15:05.022Z</time>
      </trkpt>
      <trkpt lat="48.84058" lon="2.35337">
        <ele>108.3</ele>
        <time>2015-04-20T20:15:05.930Z</time>
      </trkpt>
      <trkpt lat="48.84058" lon="2.35344">
        <ele>107.6</ele>
        <time>2015-04-20T20:15:06.940Z</time>
      </trkpt>
      <trkpt lat="48.84057" lon="2.35351">
        <ele>106.9</ele>
        <time>2015-04-20T20:15:07.963Z</time>
      </trkpt>
      <trkpt lat="48.84057" lon="2.35358">
        <ele>106</ele>
        <time>2015-04-20T20:15:08.965Z</time>
      </trkpt>
      <trkpt lat="48.84055" lon="2.35371">
        <ele>104.3</ele>
        <time>2015-04-20T20:15:10.996Z</time>
      </trkpt>
      <trkpt lat="48.84055" lon="2.35378">
        <ele>103.4</ele>
        <time>2015-04-20T20:15:11.948Z</time>
      </trkpt>
      <trkpt lat="48.84055" lon="2.35386">
        <ele>103</ele>
        <time>2015-04-20T20:15:12.909Z</time>
      </trkpt>
      <trkpt lat="48.84057" lon="2.35394">
        <ele>102.7</ele>
        <time>2015-04-20T20:15:13.950Z</time>
      </trkpt>
      <trkpt lat="48.8406" lon="2.35402">
        <ele>102.4</ele>
        <time>2015-04-20T20:15:14.956Z</time>
      </trkpt>
      <trkpt lat="48.84064" lon="2.3541">
        <ele>102.3</ele>
        <time>2015-04-20T20:15:15.965Z</time>
      </trkpt>
      <trkpt lat="48.84067" lon="2.35418">
        <ele>102.4</ele>
        <time>2015-04-20T20:15:16.973Z</time>
      </trkpt>
      <trkpt lat="48.84069" lon="2.35425">
        <ele>102.2</ele>
        <time>2015-04-20T20:15:17.990Z</time>
      </trkpt>
      <trkpt lat="48.84072" lon="2.35433">
        <ele>101.8</ele>
        <time>2015-04-20T20:15:18.898Z</time>
      </trkpt>
      <trkpt lat="48.84073" lon="2.3544">
        <ele>101.5</ele>
        <time>2015-04-20T20:15:19.920Z</time>
      </trkpt>
      <trkpt lat="48.84075" lon="2.35447">
        <ele>101.3</ele>
        <time>2015-04-20T20:15:20.955Z</time>
      </trkpt>
      <trkpt lat="48.84077" lon="2.35453">
        <ele>100.8</ele>
        <time>2015-04-20T20:15:21.981Z</time>
      </trkpt>
      <trkpt lat="48.8408" lon="2.35465">
        <ele>100.1</ele>
        <time>2015-04-20T20:15:23.913Z</time>
      </trkpt>
      <trkpt lat="48.84082" lon="2.35471">
        <ele>99.9</ele>
        <time>2015-04-20T20:15:24.923Z</time>
      </trkpt>
      <trkpt lat="48.84085" lon="2.35482">
        <ele>99.5</ele>
        <time>2015-04-20T20:15:27.059Z</time>
      </trkpt>
      <trkpt lat="48.84088" lon="2.35484">
        <ele>99.6</ele>
        <time>2015-04-20T20:15:27.935Z</time>
      </trkpt>
      <trkpt lat="48.84095" lon="2.35485">
        <ele>100</ele>
        <time>2015-04-20T20:15:31.009Z</time>
      </trkpt>
      <trkpt lat="48.84097" lon="2.35482">
        <ele>100.2</ele>
        <time>2015-04-20T20:15:31.949Z</time>
      </trkpt>
      <trkpt lat="48.84099" lon="2.35472">
        <ele>100.5</ele>
        <time>2015-04-20T20:15:35.008Z</time>
      </trkpt>
      <trkpt lat="48.841" lon="2.35469">
        <ele>100.6</ele>
        <time>2015-04-20T20:15:35.943Z</time>
      </trkpt>
      <trkpt lat="48.84105" lon="2.35467">
        <ele>101</ele>
        <time>2015-04-20T20:15:37.946Z</time>
      </trkpt>
      <trkpt lat="48.84109" lon="2.35465">
        <ele>101.3</ele>
        <time>2015-04-20T20:15:38.977Z</time>
      </trkpt>
      <trkpt lat="48.84114" lon="2.35463">
        <ele>101.6</ele>
        <time>2015-04-20T20:15:40.016Z</time>
      </trkpt>
      <trkpt lat="48.84119" lon="2.35463">
        <ele>101.9</ele>
        <time>2015-04-20T20:15:40.923Z</time>
      </trkpt>
      <trkpt lat="48.84126" lon="2.35463">
        <ele>101.5</ele>
        <time>2015-04-20T20:15:42.937Z</time>
      </trkpt>
      <trkpt lat="48.84129" lon="2.35464">
        <ele>100.9</ele>
        <time>2015-04-20T20:15:43.945Z</time>
      </trkpt>
      <trkpt lat="48.84135" lon="2.35466">
        <ele>100.1</ele>
        <time>2015-04-20T20:15:45.998Z</time>
      </trkpt>
      <trkpt lat="48.84139" lon="2.35466">
        <ele>99.3</ele>
        <time>2015-04-20T20:15:47.019Z</time>
      </trkpt>
      <trkpt lat="48.84149" lon="2.35464">
        <ele>98.4</ele>
        <time>2015-04-20T20:15:47.945Z</time>
      </trkpt>
      <trkpt lat="48.84157" lon="2.35461">
        <ele>98.7</ele>
        <time>2015-04-20T20:15:49.991Z</time>
      </trkpt>
      <trkpt lat="48.84162" lon="2.35461">
        <ele>99</ele>
        <time>2015-04-20T20:15:50.989Z</time>
      </trkpt>
      <trkpt lat="48.84167" lon="2.35461">
        <ele>99.1</ele>
        <time>2015-04-20T20:15:52.027Z</time>
      </trkpt>
      <trkpt lat="48.84171" lon="2.35461">
        <ele>99.3</ele>
        <time>2015-04-20T20:15:52.954Z</time>
      </trkpt>
      <trkpt lat="48.84179" lon="2.35462">
        <ele>99.5</ele>
        <time>2015-04-20T20:15:55.946Z</time>
      </trkpt>
      <trkpt lat="48.84182" lon="2.3546">
        <ele>99.9</ele>
        <time>2015-04-20T20:15:56.977Z</time>
      </trkpt>
      <trkpt lat="48.8419" lon="2.35457">
        <ele>100.2</ele>
        <time>2015-04-20T20:15:59.953Z</time>
      </trkpt>
      <trkpt lat="48.84194" lon="2.35454">
        <ele>100.5</ele>
        <time>2015-04-20T20:16:00.981Z</time>
      </trkpt>
      <trkpt lat="48.84197" lon="2.35451">
        <ele>100.5</ele>
        <time>2015-04-20T20:16:01.999Z</time>
      </trkpt>
      <trkpt lat="48.84202" lon="2.35449">
        <ele>100.5</ele>
        <time>2015-04-20T20:16:03.027Z</time>
      </trkpt>
      <trkpt lat="48.84208" lon="2.35448">
        <ele>100.4</ele>
        <time>2015-04-20T20:16:03.946Z</time>
      </trkpt>
      <trkpt lat="48.84215" lon="2.35447">
        <ele>100.6</ele>
        <time>2015-04-20T20:16:04.945Z</time>
      </trkpt>
      <trkpt lat="48.84225" lon="2.35446">
        <ele>100.8</ele>
        <time>2015-04-20T20:16:06.962Z</time>
      </trkpt>
      <trkpt lat="48.84229" lon="2.35446">
        <ele>101.1</ele>
        <time>2015-04-20T20:16:07.963Z</time>
      </trkpt>
      <trkpt lat="48.84235" lon="2.35447">
        <ele>101.5</ele>
        <time>2015-04-20T20:16:08.954Z</time>
      </trkpt>
      <trkpt lat="48.8424" lon="2.35446">
        <ele>102</ele>
        <time>2015-04-20T20:16:09.961Z</time>
      </trkpt>
      <trkpt lat="48.84245" lon="2.35445">
        <ele>102.4</ele>
        <time>2015-04-20T20:16:10.944Z</time>
      </trkpt>
      <trkpt lat="48.84249" lon="2.35442">
        <ele>103</ele>
        <time>2015-04-20T20:16:11.927Z</time>
      </trkpt>
      <trkpt lat="48.84254" lon="2.35439">
        <ele>103.5</ele>
        <time>2015-04-20T20:16:12.927Z</time>
      </trkpt>
      <trkpt lat="48.8436" lon="2.35428">
        <ele>105</ele>
        <time>2015-04-20T20:16:33.928Z</time>
      </trkpt>
      <trkpt lat="48.84366" lon="2.35436">
        <ele>102.5</ele>
        <time>2015-04-20T20:16:54.944Z</time>
      </trkpt>
      <trkpt lat="48.84368" lon="2.35438">
        <ele>102.4</ele>
        <time>2015-04-20T20:16:55.978Z</time>
      </trkpt>
      <trkpt lat="48.84369" lon="2.35449">
        <ele>102.5</ele>
        <time>2015-04-20T20:16:59.027Z</time>
      </trkpt>
      <trkpt lat="48.84369" lon="2.35454">
        <ele>102.4</ele>
        <time>2015-04-20T20:16:59.951Z</time>
      </trkpt>
      <trkpt lat="48.84372" lon="2.35462">
        <ele>102.2</ele>
        <time>2015-04-20T20:17:01.930Z</time>
      </trkpt>
      <trkpt lat="48.84374" lon="2.35466">
        <ele>102.5</ele>
        <time>2015-04-20T20:17:03.012Z</time>
      </trkpt>
      <trkpt lat="48.84378" lon="2.35475">
        <ele>103.2</ele>
        <time>2015-04-20T20:17:05.962Z</time>
      </trkpt>
      <trkpt lat="48.8438" lon="2.35479">
        <ele>103.2</ele>
        <time>2015-04-20T20:17:06.987Z</time>
      </trkpt>
      <trkpt lat="48.84386" lon="2.35485">
        <ele>103.7</ele>
        <time>2015-04-20T20:17:08.980Z</time>
      </trkpt>
      <trkpt lat="48.84388" lon="2.35488">
        <ele>103.7</ele>
        <time>2015-04-20T20:17:10.112Z</time>
      </trkpt>
      <trkpt lat="48.84418" lon="2.35507">
        <ele>104.2</ele>
        <time>2015-04-20T20:17:15.909Z</time>
      </trkpt>
      <trkpt lat="48.84419" lon="2.35519">
        <ele>104.3</ele>
        <time>2015-04-20T20:17:19.021Z</time>
      </trkpt>
      <trkpt lat="48.84417" lon="2.35522">
        <ele>104.3</ele>
        <time>2015-04-20T20:17:19.956Z</time>
      </trkpt>
      <trkpt lat="48.84413" lon="2.35528">
        <ele>104.6</ele>
        <time>2015-04-20T20:17:21.977Z</time>
      </trkpt>
      <trkpt lat="48.84409" lon="2.35536">
        <ele>104.5</ele>
        <time>2015-04-20T20:17:23.953Z</time>
      </trkpt>
      <trkpt lat="48.84411" lon="2.35542">
        <ele>104</ele>
        <time>2015-04-20T20:17:25.004Z</time>
      </trkpt>
      <trkpt lat="48.84414" lon="2.35556">
        <ele>103.7</ele>
        <time>2015-04-20T20:17:27.026Z</time>
      </trkpt>
      <trkpt lat="48.84415" lon="2.35562">
        <ele>103.7</ele>
        <time>2015-04-20T20:17:27.974Z</time>
      </trkpt>
      <trkpt lat="48.84417" lon="2.35568">
        <ele>103.6</ele>
        <time>2015-04-20T20:17:28.956Z</time>
      </trkpt>
      <trkpt lat="48.84421" lon="2.35576">
        <ele>103.5</ele>
        <time>2015-04-20T20:17:29.960Z</time>
      </trkpt>
      <trkpt lat="48.84426" lon="2.35584">
        <ele>103.6</ele>
        <time>2015-04-20T20:17:30.949Z</time>
      </trkpt>
      <trkpt lat="48.8443" lon="2.35592">
        <ele>103.6</ele>
        <time>2015-04-20T20:17:32.031Z</time>
      </trkpt>
      <trkpt lat="48.84436" lon="2.35602">
        <ele>103.5</ele>
        <time>2015-04-20T20:17:32.992Z</time>
      </trkpt>
      <trkpt lat="48.8444" lon="2.3561">
        <ele>103.3</ele>
        <time>2015-04-20T20:17:34.015Z</time>
      </trkpt>
      <trkpt lat="48.84444" lon="2.35618">
        <ele>103.1</ele>
        <time>2015-04-20T20:17:34.928Z</time>
      </trkpt>
      <trkpt lat="48.84448" lon="2.35625">
        <ele>103.1</ele>
        <time>2015-04-20T20:17:35.946Z</time>
      </trkpt>
      <trkpt lat="48.84452" lon="2.35633">
        <ele>103.4</ele>
        <time>2015-04-20T20:17:36.939Z</time>
      </trkpt>
      <trkpt lat="48.84454" lon="2.35641">
        <ele>103.6</ele>
        <time>2015-04-20T20:17:37.948Z</time>
      </trkpt>
      <trkpt lat="48.84457" lon="2.35647">
        <ele>103.5</ele>
        <time>2015-04-20T20:17:38.974Z</time>
      </trkpt>
      <trkpt lat="48.84461" lon="2.35654">
        <ele>103.5</ele>
        <time>2015-04-20T20:17:40.006Z</time>
      </trkpt>
      <trkpt lat="48.84463" lon="2.3566">
        <ele>103.4</ele>
        <time>2015-04-20T20:17:41.013Z</time>
      </trkpt>
      <trkpt lat="48.84465" lon="2.35667">
        <ele>103.4</ele>
        <time>2015-04-20T20:17:42.013Z</time>
      </trkpt>
      <trkpt lat="48.84468" lon="2.35672">
        <ele>103.6</ele>
        <time>2015-04-20T20:17:42.931Z</time>
      </trkpt>
      <trkpt lat="48.84474" lon="2.3568">
        <ele>104.3</ele>
        <time>2015-04-20T20:17:45.118Z</time>
      </trkpt>
      <trkpt lat="48.84476" lon="2.35684">
        <ele>104.7</ele>
        <time>2015-04-20T20:17:45.931Z</time>
      </trkpt>
      <trkpt lat="48.84478" lon="2.35691">
        <ele>105.2</ele>
        <time>2015-04-20T20:17:46.943Z</time>
      </trkpt>
      <trkpt lat="48.84481" lon="2.35698">
        <ele>105.3</ele>
        <time>2015-04-20T20:17:47.957Z</time>
      </trkpt>
      <trkpt lat="48.84482" lon="2.35703">
        <ele>104.8</ele>
        <time>2015-04-20T20:17:48.989Z</time>
      </trkpt>
      <trkpt lat="48.84485" lon="2.35711">
        <ele>104.7</ele>
        <time>2015-04-20T20:17:50Z</time>
      </trkpt>
      <trkpt lat="48.8449" lon="2.35719">
        <ele>104.3</ele>
        <time>2015-04-20T20:17:51.004Z</time>
      </trkpt>
      <trkpt lat="48.84497" lon="2.35725">
        <ele>103.8</ele>
        <time>2015-04-20T20:17:51.908Z</time>
      </trkpt>
      <trkpt lat="48.84506" lon="2.3573">
        <ele>103.6</ele>
        <time>2015-04-20T20:17:52.925Z</time>
      </trkpt>
      <trkpt lat="48.84514" lon="2.35736">
        <ele>103.4</ele>
        <time>2015-04-20T20:17:53.935Z</time>
      </trkpt>
      <trkpt lat="48.84521" lon="2.35742">
        <ele>103.2</ele>
        <time>2015-04-20T20:17:54.976Z</time>
      </trkpt>
      <trkpt lat="48.84526" lon="2.35748">
        <ele>103</ele>
        <time>2015-04-20T20:17:55.918Z</time>
      </trkpt>
      <trkpt lat="48.8453" lon="2.35754">
        <ele>102.9</ele>
        <time>2015-04-20T20:17:56.951Z</time>
      </trkpt>
      <trkpt lat="48.84534" lon="2.35762">
        <ele>102.6</ele>
        <time>2015-04-20T20:17:57.903Z</time>
      </trkpt>
      <trkpt lat="48.84537" lon="2.35769">
        <ele>102.2</ele>
        <time>2015-04-20T20:17:58.910Z</time>
      </trkpt>
      <trkpt lat="48.8454" lon="2.35775">
        <ele>101.7</ele>
        <time>2015-04-20T20:17:59.967Z</time>
      </trkpt>
      <trkpt lat="48.84543" lon="2.35782">
        <ele>101.7</ele>
        <time>2015-04-20T20:18:00.972Z</time>
      </trkpt>
      <trkpt lat="48.84545" lon="2.35789">
        <ele>101.5</ele>
        <time>2015-04-20T20:18:01.993Z</time>
      </trkpt>
      <trkpt lat="48.84547" lon="2.35798">
        <ele>101.1</ele>
        <time>2015-04-20T20:18:03.002Z</time>
      </trkpt>
      <trkpt lat="48.84548" lon="2.35809">
        <ele>100.4</ele>
        <time>2015-04-20T20:18:04.017Z</time>
      </trkpt>
      <trkpt lat="48.84552" lon="2.35817">
        <ele>98</ele>
        <time>2015-04-20T20:18:04.939Z</time>
      </trkpt>
      <trkpt lat="48.84556" lon="2.35821">
        <ele>96.6</ele>
        <time>2015-04-20T20:18:05.940Z</time>
      </trkpt>
      <trkpt lat="48.8456" lon="2.3583">
        <ele>96.2</ele>
        <time>2015-04-20T20:18:06.952Z</time>
      </trkpt>
      <trkpt lat="48.84564" lon="2.35838">
        <ele>95.4</ele>
        <time>2015-04-20T20:18:07.960Z</time>
      </trkpt>
      <trkpt lat="48.84568" lon="2.35844">
        <ele>95.1</ele>
        <time>2015-04-20T20:18:08.979Z</time>
      </trkpt>
      <trkpt lat="48.84572" lon="2.35852">
        <ele>94</ele>
        <time>2015-04-20T20:18:10Z</time>
      </trkpt>
      <trkpt lat="48.84575" lon="2.35859">
        <ele>93.6</ele>
        <time>2015-04-20T20:18:11.009Z</time>
      </trkpt>
      <trkpt lat="48.84579" lon="2.35866">
        <ele>93.3</ele>
        <time>2015-04-20T20:18:11.936Z</time>
      </trkpt>
      <trkpt lat="48.84581" lon="2.35873">
        <ele>93</ele>
        <time>2015-04-20T20:18:12.928Z</time>
      </trkpt>
      <trkpt lat="48.84584" lon="2.3588">
        <ele>93</ele>
        <time>2015-04-20T20:18:13.948Z</time>
      </trkpt>
      <trkpt lat="48.84587" lon="2.35886">
        <ele>93</ele>
        <time>2015-04-20T20:18:14.967Z</time>
      </trkpt>
      <trkpt lat="48.8459" lon="2.35892">
        <ele>92.6</ele>
        <time>2015-04-20T20:18:15.972Z</time>
      </trkpt>
      <trkpt lat="48.84593" lon="2.35899">
        <ele>92.3</ele>
        <time>2015-04-20T20:18:16.981Z</time>
      </trkpt>
      <trkpt lat="48.84606" lon="2.3595">
        <ele>91.9</ele>
        <time>2015-04-20T20:18:25.001Z</time>
      </trkpt>
      <trkpt lat="48.8461" lon="2.35957">
        <ele>91.6</ele>
        <time>2015-04-20T20:18:25.903Z</time>
      </trkpt>
      <trkpt lat="48.84613" lon="2.35964">
        <ele>91.7</ele>
        <time>2015-04-20T20:18:26.957Z</time>
      </trkpt>
      <trkpt lat="48.84617" lon="2.3597">
        <ele>91.7</ele>
        <time>2015-04-20T20:18:27.950Z</time>
      </trkpt>
      <trkpt lat="48.84621" lon="2.35976">
        <ele>92</ele>
        <time>2015-04-20T20:18:28.966Z</time>
      </trkpt>
      <trkpt lat="48.84626" lon="2.3598">
        <ele>92.1</ele>
        <time>2015-04-20T20:18:29.977Z</time>
      </trkpt>
      <trkpt lat="48.84629" lon="2.35985">
        <ele>92.4</ele>
        <time>2015-04-20T20:18:30.983Z</time>
      </trkpt>
      <trkpt lat="48.84633" lon="2.35996">
        <ele>92.6</ele>
        <time>2015-04-20T20:18:33.025Z</time>
      </trkpt>
      <trkpt lat="48.84634" lon="2.36002">
        <ele>92.6</ele>
        <time>2015-04-20T20:18:33.947Z</time>
      </trkpt>
      <trkpt lat="48.84637" lon="2.36007">
        <ele>92.3</ele>
        <time>2015-04-20T20:18:34.916Z</time>
      </trkpt>
      <trkpt lat="48.84641" lon="2.36012">
        <ele>92.3</ele>
        <time>2015-04-20T20:18:35.931Z</time>
      </trkpt>
      <trkpt lat="48.84644" lon="2.36019">
        <ele>91.7</ele>
        <time>2015-04-20T20:18:36.935Z</time>
      </trkpt>
      <trkpt lat="48.84647" lon="2.36026">
        <ele>91.7</ele>
        <time>2015-04-20T20:18:37.946Z</time>
      </trkpt>
      <trkpt lat="48.84652" lon="2.36033">
        <ele>91.6</ele>
        <time>2015-04-20T20:18:38.970Z</time>
      </trkpt>
      <trkpt lat="48.84655" lon="2.36037">
        <ele>91.7</ele>
        <time>2015-04-20T20:18:39.971Z</time>
      </trkpt>
      <trkpt lat="48.84659" lon="2.36046">
        <ele>92</ele>
        <time>2015-04-20T20:18:41.999Z</time>
      </trkpt>
      <trkpt lat="48.84662" lon="2.36051">
        <ele>91.9</ele>
        <time>2015-04-20T20:18:43.037Z</time>
      </trkpt>
      <trkpt lat="48.84666" lon="2.36059">
        <ele>90.2</ele>
        <time>2015-04-20T20:18:44.978Z</time>
      </trkpt>
      <trkpt lat="48.84668" lon="2.36064">
        <ele>90.6</ele>
        <time>2015-04-20T20:18:46.153Z</time>
      </trkpt>
      <trkpt lat="48.84671" lon="2.36075">
        <ele>90.2</ele>
        <time>2015-04-20T20:18:49.016Z</time>
      </trkpt>
      <trkpt lat="48.84672" lon="2.36079">
        <ele>90.1</ele>
        <time>2015-04-20T20:18:50.021Z</time>
      </trkpt>
      <trkpt lat="48.84675" lon="2.36084">
        <ele>90.1</ele>
        <time>2015-04-20T20:19:18.944Z</time>
      </trkpt>
      <trkpt lat="48.84685" lon="2.36087">
        <ele>87.4</ele>
        <time>2015-04-20T20:19:19.950Z</time>
      </trkpt>
      <trkpt lat="48.8469" lon="2.36081">
        <ele>87.5</ele>
        <time>2015-04-20T20:19:22.144Z</time>
      </trkpt>
      <trkpt lat="48.84694" lon="2.36077">
        <ele>87.6</ele>
        <time>2015-04-20T20:19:22.930Z</time>
      </trkpt>
      <trkpt lat="48.84698" lon="2.36073">
        <ele>87.9</ele>
        <time>2015-04-20T20:19:23.933Z</time>
      </trkpt>
      <trkpt lat="48.84701" lon="2.36069">
        <ele>88.3</ele>
        <time>2015-04-20T20:19:24.945Z</time>
      </trkpt>
      <trkpt lat="48.84705" lon="2.36065">
        <ele>88.4</ele>
        <time>2015-04-20T20:19:25.921Z</time>
      </trkpt>
      <trkpt lat="48.84709" lon="2.36061">
        <ele>88.6</ele>
        <time>2015-04-20T20:19:26.949Z</time>
      </trkpt>
      <trkpt lat="48.84714" lon="2.36057">
        <ele>88.8</ele>
        <time>2015-04-20T20:19:28.024Z</time>
      </trkpt>
      <trkpt lat="48.84718" lon="2.36053">
        <ele>88.8</ele>
        <time>2015-04-20T20:19:29.014Z</time>
      </trkpt>
      <trkpt lat="48.84723" lon="2.36047">
        <ele>89.2</ele>
        <time>2015-04-20T20:19:30.952Z</time>
      </trkpt>
      <trkpt lat="48.84725" lon="2.36043">
        <ele>89.2</ele>
        <time>2015-04-20T20:19:31.968Z</time>
      </trkpt>
      <trkpt lat="48.84728" lon="2.36032">
        <ele>89.6</ele>
        <time>2015-04-20T20:19:34.981Z</time>
      </trkpt>
      <trkpt lat="48.84729" lon="2.36029">
        <ele>89.7</ele>
        <time>2015-04-20T20:19:35.983Z</time>
      </trkpt>
      <trkpt lat="48.84734" lon="2.36021">
        <ele>89.8</ele>
        <time>2015-04-20T20:19:37.938Z</time>
      </trkpt>
      <trkpt lat="48.84737" lon="2.36016">
        <ele>89.9</ele>
        <time>2015-04-20T20:19:38.968Z</time>
      </trkpt>
      <trkpt lat="48.84741" lon="2.36012">
        <ele>90</ele>
        <time>2015-04-20T20:19:39.985Z</time>
      </trkpt>
      <trkpt lat="48.84745" lon="2.36006">
        <ele>90.1</ele>
        <time>2015-04-20T20:19:40.959Z</time>
      </trkpt>
      <trkpt lat="48.84749" lon="2.36002">
        <ele>90.3</ele>
        <time>2015-04-20T20:19:42.025Z</time>
      </trkpt>
      <trkpt lat="48.84753" lon="2.35997">
        <ele>90.5</ele>
        <time>2015-04-20T20:19:42.931Z</time>
      </trkpt>
      <trkpt lat="48.84757" lon="2.35993">
        <ele>90.7</ele>
        <time>2015-04-20T20:19:43.941Z</time>
      </trkpt>
      <trkpt lat="48.8476" lon="2.35987">
        <ele>90.7</ele>
        <time>2015-04-20T20:19:44.969Z</time>
      </trkpt>
      <trkpt lat="48.84764" lon="2.35982">
        <ele>90.7</ele>
        <time>2015-04-20T20:19:45.979Z</time>
      </trkpt>
      <trkpt lat="48.84767" lon="2.35977">
        <ele>90.7</ele>
        <time>2015-04-20T20:19:46.993Z</time>
      </trkpt>
      <trkpt lat="48.84771" lon="2.35972">
        <ele>90.6</ele>
        <time>2015-04-20T20:19:48.019Z</time>
      </trkpt>
      <trkpt lat="48.84774" lon="2.35967">
        <ele>90.5</ele>
        <time>2015-04-20T20:19:48.929Z</time>
      </trkpt>
      <trkpt lat="48.84778" lon="2.35958">
        <ele>90.4</ele>
        <time>2015-04-20T20:19:50.977Z</time>
      </trkpt>
      <trkpt lat="48.8478" lon="2.35953">
        <ele>90.2</ele>
        <time>2015-04-20T20:19:51.944Z</time>
      </trkpt>
      <trkpt lat="48.84782" lon="2.3594">
        <ele>90.7</ele>
        <time>2015-04-20T20:19:53.963Z</time>
      </trkpt>
      <trkpt lat="48.84784" lon="2.35933">
        <ele>90.9</ele>
        <time>2015-04-20T20:19:54.988Z</time>
      </trkpt>
      <trkpt lat="48.84786" lon="2.35925">
        <ele>91.5</ele>
        <time>2015-04-20T20:19:55.990Z</time>
      </trkpt>
      <trkpt lat="48.84787" lon="2.35916">
        <ele>91.7</ele>
        <time>2015-04-20T20:19:56.967Z</time>
      </trkpt>
      <trkpt lat="48.8479" lon="2.35909">
        <ele>91.7</ele>
        <time>2015-04-20T20:19:57.997Z</time>
      </trkpt>
      <trkpt lat="48.84793" lon="2.35901">
        <ele>92</ele>
        <time>2015-04-20T20:19:59.030Z</time>
      </trkpt>
      <trkpt lat="48.84799" lon="2.35892">
        <ele>92.5</ele>
        <time>2015-04-20T20:19:59.934Z</time>
      </trkpt>
      <trkpt lat="48.84804" lon="2.35884">
        <ele>92.6</ele>
        <time>2015-04-20T20:20:00.980Z</time>
      </trkpt>
      <trkpt lat="48.84809" lon="2.35875">
        <ele>92.6</ele>
        <time>2015-04-20T20:20:01.988Z</time>
      </trkpt>
      <trkpt lat="48.84813" lon="2.35868">
        <ele>92.8</ele>
        <time>2015-04-20T20:20:03.012Z</time>
      </trkpt>
      <trkpt lat="48.84818" lon="2.3586">
        <ele>93</ele>
        <time>2015-04-20T20:20:03.938Z</time>
      </trkpt>
      <trkpt lat="48.84824" lon="2.35852">
        <ele>93.1</ele>
        <time>2015-04-20T20:20:04.952Z</time>
      </trkpt>
      <trkpt lat="48.84829" lon="2.35843">
        <ele>93.4</ele>
        <time>2015-04-20T20:20:05.976Z</time>
      </trkpt>
      <trkpt lat="48.84835" lon="2.35834">
        <ele>93.9</ele>
        <time>2015-04-20T20:20:06.986Z</time>
      </trkpt>
      <trkpt lat="48.8484" lon="2.35824">
        <ele>94.2</ele>
        <time>2015-04-20T20:20:07.964Z</time>
      </trkpt>
      <trkpt lat="48.84845" lon="2.35814">
        <ele>94.1</ele>
        <time>2015-04-20T20:20:09.056Z</time>
      </trkpt>
      <trkpt lat="48.84852" lon="2.35804">
        <ele>94</ele>
        <time>2015-04-20T20:20:10.002Z</time>
      </trkpt>
      <trkpt lat="48.84858" lon="2.35795">
        <ele>93.9</ele>
        <time>2015-04-20T20:20:10.916Z</time>
      </trkpt>
      <trkpt lat="48.84862" lon="2.35787">
        <ele>93.9</ele>
        <time>2015-04-20T20:20:11.948Z</time>
      </trkpt>
      <trkpt lat="48.84869" lon="2.3578">
        <ele>93.4</ele>
        <time>2015-04-20T20:20:12.931Z</time>
      </trkpt>
      <trkpt lat="48.84873" lon="2.35773">
        <ele>93.6</ele>
        <time>2015-04-20T20:20:13.975Z</time>
      </trkpt>
      <trkpt lat="48.84877" lon="2.35767">
        <ele>94.1</ele>
        <time>2015-04-20T20:20:14.927Z</time>
      </trkpt>
      <trkpt lat="48.84878" lon="2.3576">
        <ele>94.2</ele>
        <time>2015-04-20T20:20:15.942Z</time>
      </trkpt>
      <trkpt lat="48.84882" lon="2.35753">
        <ele>96.3</ele>
        <time>2015-04-20T20:20:16.974Z</time>
      </trkpt>
      <trkpt lat="48.84886" lon="2.35746">
        <ele>96.9</ele>
        <time>2015-04-20T20:20:17.919Z</time>
      </trkpt>
      <trkpt lat="48.84888" lon="2.35739">
        <ele>96.9</ele>
        <time>2015-04-20T20:20:18.920Z</time>
      </trkpt>
      <trkpt lat="48.84891" lon="2.35732">
        <ele>97.1</ele>
        <time>2015-04-20T20:20:19.939Z</time>
      </trkpt>
      <trkpt lat="48.84894" lon="2.35726">
        <ele>97.1</ele>
        <time>2015-04-20T20:20:20.953Z</time>
      </trkpt>
      <trkpt lat="48.84896" lon="2.35721">
        <ele>97.5</ele>
        <time>2015-04-20T20:20:22.001Z</time>
      </trkpt>
      <trkpt lat="48.849" lon="2.35716">
        <ele>98</ele>
        <time>2015-04-20T20:20:37.025Z</time>
      </trkpt>
      <trkpt lat="48.8492" lon="2.357">
        <ele>96.5</ele>
        <time>2015-04-20T20:20:37.942Z</time>
      </trkpt>
      <trkpt lat="48.84922" lon="2.35694">
        <ele>96.5</ele>
        <time>2015-04-20T20:20:39.059Z</time>
      </trkpt>
      <trkpt lat="48.84925" lon="2.35687">
        <ele>96.5</ele>
        <time>2015-04-20T20:20:39.932Z</time>
      </trkpt>
      <trkpt lat="48.84927" lon="2.3568">
        <ele>96.5</ele>
        <time>2015-04-20T20:20:40.928Z</time>
      </trkpt>
      <trkpt lat="48.84932" lon="2.35674">
        <ele>96.9</ele>
        <time>2015-04-20T20:20:41.943Z</time>
      </trkpt>
      <trkpt lat="48.84936" lon="2.35667">
        <ele>97.1</ele>
        <time>2015-04-20T20:20:42.968Z</time>
      </trkpt>
      <trkpt lat="48.8494" lon="2.3566">
        <ele>97.2</ele>
        <time>2015-04-20T20:20:44.009Z</time>
      </trkpt>
      <trkpt lat="48.84943" lon="2.35653">
        <ele>97.2</ele>
        <time>2015-04-20T20:20:45.523Z</time>
      </trkpt>
      <trkpt lat="48.84945" lon="2.35647">
        <ele>97.3</ele>
        <time>2015-04-20T20:20:45.928Z</time>
      </trkpt>
      <trkpt lat="48.84948" lon="2.3564">
        <ele>97.6</ele>
        <time>2015-04-20T20:20:46.986Z</time>
      </trkpt>
      <trkpt lat="48.8495" lon="2.35632">
        <ele>97.7</ele>
        <time>2015-04-20T20:20:48.005Z</time>
      </trkpt>
      <trkpt lat="48.84952" lon="2.3562">
        <ele>98.2</ele>
        <time>2015-04-20T20:20:50.589Z</time>
      </trkpt>
      <trkpt lat="48.84954" lon="2.35614">
        <ele>98.4</ele>
        <time>2015-04-20T20:20:50.991Z</time>
      </trkpt>
      <trkpt lat="48.84956" lon="2.35607">
        <ele>98.6</ele>
        <time>2015-04-20T20:20:51.997Z</time>
      </trkpt>
      <trkpt lat="48.84958" lon="2.356">
        <ele>98.9</ele>
        <time>2015-04-20T20:20:53.040Z</time>
      </trkpt>
      <trkpt lat="48.8496" lon="2.35593">
        <ele>99.1</ele>
        <time>2015-04-20T20:20:53.930Z</time>
      </trkpt>
      <trkpt lat="48.84963" lon="2.35586">
        <ele>99.4</ele>
        <time>2015-04-20T20:20:54.927Z</time>
      </trkpt>
      <trkpt lat="48.84965" lon="2.3558">
        <ele>99.3</ele>
        <time>2015-04-20T20:20:55.951Z</time>
      </trkpt>
      <trkpt lat="48.84967" lon="2.35573">
        <ele>99.3</ele>
        <time>2015-04-20T20:20:56.964Z</time>
      </trkpt>
      <trkpt lat="48.84969" lon="2.35566">
        <ele>99.3</ele>
        <time>2015-04-20T20:20:57.979Z</time>
      </trkpt>
      <trkpt lat="48.84971" lon="2.3556">
        <ele>99.3</ele>
        <time>2015-04-20T20:20:59Z</time>
      </trkpt>
      <trkpt lat="48.84974" lon="2.35551">
        <ele>99.5</ele>
        <time>2015-04-20T20:21:00.938Z</time>
      </trkpt>
      <trkpt lat="48.84975" lon="2.35546">
        <ele>99.4</ele>
        <time>2015-04-20T20:21:01.955Z</time>
      </trkpt>
      <trkpt lat="48.84978" lon="2.35537">
        <ele>99.3</ele>
        <time>2015-04-20T20:21:03.986Z</time>
      </trkpt>
      <trkpt lat="48.84979" lon="2.35532">
        <ele>99</ele>
        <time>2015-04-20T20:21:05.020Z</time>
      </trkpt>
      <trkpt lat="48.8498" lon="2.35522">
        <ele>98.7</ele>
        <time>2015-04-20T20:21:06.931Z</time>
      </trkpt>
      <trkpt lat="48.84982" lon="2.35517">
        <ele>99</ele>
        <time>2015-04-20T20:21:07.905Z</time>
      </trkpt>
      <trkpt lat="48.84983" lon="2.3551">
        <ele>99.3</ele>
        <time>2015-04-20T20:21:08.958Z</time>
      </trkpt>
      <trkpt lat="48.84986" lon="2.35502">
        <ele>100</ele>
        <time>2015-04-20T20:21:10.008Z</time>
      </trkpt>
      <trkpt lat="48.84989" lon="2.35494">
        <ele>100.2</ele>
        <time>2015-04-20T20:21:10.903Z</time>
      </trkpt>
      <trkpt lat="48.84991" lon="2.35488">
        <ele>100.4</ele>
        <time>2015-04-20T20:21:11.912Z</time>
      </trkpt>
      <trkpt lat="48.84998" lon="2.35479">
        <ele>100.7</ele>
        <time>2015-04-20T20:21:12.925Z</time>
      </trkpt>
      <trkpt lat="48.85" lon="2.35472">
        <ele>101</ele>
        <time>2015-04-20T20:21:13.940Z</time>
      </trkpt>
      <trkpt lat="48.85002" lon="2.35465">
        <ele>101.1</ele>
        <time>2015-04-20T20:21:14.961Z</time>
      </trkpt>
      <trkpt lat="48.85003" lon="2.35459">
        <ele>101</ele>
        <time>2015-04-20T20:21:15.979Z</time>
      </trkpt>
      <trkpt lat="48.85005" lon="2.35454">
        <ele>100.8</ele>
        <time>2015-04-20T20:21:16.891Z</time>
      </trkpt>
      <trkpt lat="48.85008" lon="2.35447">
        <ele>100.7</ele>
        <time>2015-04-20T20:21:17.920Z</time>
      </trkpt>
      <trkpt lat="48.8501" lon="2.35439">
        <ele>100.5</ele>
        <time>2015-04-20T20:21:18.912Z</time>
      </trkpt>
      <trkpt lat="48.85012" lon="2.35432">
        <ele>100.3</ele>
        <time>2015-04-20T20:21:19.896Z</time>
      </trkpt>
      <trkpt lat="48.85015" lon="2.35425">
        <ele>100.1</ele>
        <time>2015-04-20T20:21:20.952Z</time>
      </trkpt>
      <trkpt lat="48.85017" lon="2.35418">
        <ele>100.3</ele>
        <time>2015-04-20T20:21:21.963Z</time>
      </trkpt>
      <trkpt lat="48.8502" lon="2.3541">
        <ele>100.2</ele>
        <time>2015-04-20T20:21:22.896Z</time>
      </trkpt>
      <trkpt lat="48.85023" lon="2.35401">
        <ele>100.1</ele>
        <time>2015-04-20T20:21:23.925Z</time>
      </trkpt>
      <trkpt lat="48.85027" lon="2.35392">
        <ele>99.8</ele>
        <time>2015-04-20T20:21:24.939Z</time>
      </trkpt>
      <trkpt lat="48.8503" lon="2.35382">
        <ele>99.7</ele>
        <time>2015-04-20T20:21:25.975Z</time>
      </trkpt>
      <trkpt lat="48.85034" lon="2.35372">
        <ele>100</ele>
        <time>2015-04-20T20:21:26.992Z</time>
      </trkpt>
      <trkpt lat="48.85037" lon="2.35361">
        <ele>100.2</ele>
        <time>2015-04-20T20:21:28.005Z</time>
      </trkpt>
      <trkpt lat="48.8504" lon="2.35351">
        <ele>100.3</ele>
        <time>2015-04-20T20:21:28.919Z</time>
      </trkpt>
      <trkpt lat="48.85043" lon="2.3534">
        <ele>100.7</ele>
        <time>2015-04-20T20:21:29.933Z</time>
      </trkpt>
      <trkpt lat="48.85045" lon="2.35329">
        <ele>100.8</ele>
        <time>2015-04-20T20:21:30.940Z</time>
      </trkpt>
      <trkpt lat="48.85048" lon="2.35316">
        <ele>100.8</ele>
        <time>2015-04-20T20:21:31.950Z</time>
      </trkpt>
      <trkpt lat="48.85065" lon="2.35265">
        <ele>100.4</ele>
        <time>2015-04-20T20:21:32.980Z</time>
      </trkpt>
      <trkpt lat="48.85068" lon="2.35256">
        <ele>100.2</ele>
        <time>2015-04-20T20:21:33.998Z</time>
      </trkpt>
      <trkpt lat="48.85072" lon="2.35246">
        <ele>99.8</ele>
        <time>2015-04-20T20:21:34.916Z</time>
      </trkpt>
      <trkpt lat="48.85075" lon="2.35236">
        <ele>99.1</ele>
        <time>2015-04-20T20:21:35.919Z</time>
      </trkpt>
      <trkpt lat="48.85081" lon="2.35225">
        <ele>98.8</ele>
        <time>2015-04-20T20:21:36.961Z</time>
      </trkpt>
      <trkpt lat="48.85086" lon="2.35215">
        <ele>98.3</ele>
        <time>2015-04-20T20:21:37.966Z</time>
      </trkpt>
      <trkpt lat="48.85093" lon="2.35205">
        <ele>98.1</ele>
        <time>2015-04-20T20:21:38.990Z</time>
      </trkpt>
      <trkpt lat="48.85099" lon="2.35196">
        <ele>97.7</ele>
        <time>2015-04-20T20:21:39.919Z</time>
      </trkpt>
      <trkpt lat="48.85103" lon="2.35187">
        <ele>97.4</ele>
        <time>2015-04-20T20:21:40.934Z</time>
      </trkpt>
      <trkpt lat="48.85105" lon="2.35179">
        <ele>97</ele>
        <time>2015-04-20T20:21:41.950Z</time>
      </trkpt>
      <trkpt lat="48.85107" lon="2.35171">
        <ele>96.5</ele>
        <time>2015-04-20T20:21:42.972Z</time>
      </trkpt>
      <trkpt lat="48.8511" lon="2.35163">
        <ele>96</ele>
        <time>2015-04-20T20:21:43.917Z</time>
      </trkpt>
      <trkpt lat="48.85109" lon="2.35157">
        <ele>95.4</ele>
        <time>2015-04-20T20:21:44.986Z</time>
      </trkpt>
      <trkpt lat="48.85107" lon="2.35147">
        <ele>94.8</ele>
        <time>2015-04-20T20:21:46.921Z</time>
      </trkpt>
      <trkpt lat="48.85111" lon="2.35139">
        <ele>94.9</ele>
        <time>2015-04-20T20:21:47.956Z</time>
      </trkpt>
      <trkpt lat="48.85116" lon="2.35132">
        <ele>94.9</ele>
        <time>2015-04-20T20:21:48.982Z</time>
      </trkpt>
      <trkpt lat="48.8512" lon="2.35129">
        <ele>94.6</ele>
        <time>2015-04-20T20:21:49.981Z</time>
      </trkpt>
      <trkpt lat="48.85126" lon="2.35129">
        <ele>94</ele>
        <time>2015-04-20T20:21:52.012Z</time>
      </trkpt>
      <trkpt lat="48.85131" lon="2.35133">
        <ele>91.5</ele>
        <time>2015-04-20T20:21:52.976Z</time>
      </trkpt>
      <trkpt lat="48.85136" lon="2.35144">
        <ele>89.1</ele>
        <time>2015-04-20T20:21:55.056Z</time>
      </trkpt>
      <trkpt lat="48.85139" lon="2.35149">
        <ele>87.7</ele>
        <time>2015-04-20T20:21:55.908Z</time>
      </trkpt>
      <trkpt lat="48.85144" lon="2.35154">
        <ele>87.6</ele>
        <time>2015-04-20T20:21:57.970Z</time>
      </trkpt>
      <trkpt lat="48.85147" lon="2.35156">
        <ele>87.6</ele>
        <time>2015-04-20T20:21:58.980Z</time>
      </trkpt>
      <trkpt lat="48.85153" lon="2.35161">
        <ele>87.2</ele>
        <time>2015-04-20T20:22:00.906Z</time>
      </trkpt>
      <trkpt lat="48.85156" lon="2.35163">
        <ele>86.8</ele>
        <time>2015-04-20T20:22:01.934Z</time>
      </trkpt>
      <trkpt lat="48.85162" lon="2.35167">
        <ele>86.7</ele>
        <time>2015-04-20T20:22:03.906Z</time>
      </trkpt>
      <trkpt lat="48.85166" lon="2.35169">
        <ele>86.5</ele>
        <time>2015-04-20T20:22:04.944Z</time>
      </trkpt>
      <trkpt lat="48.85173" lon="2.35171">
        <ele>86.2</ele>
        <time>2015-04-20T20:22:06.988Z</time>
      </trkpt>
      <trkpt lat="48.85177" lon="2.35171">
        <ele>86</ele>
        <time>2015-04-20T20:22:07.929Z</time>
      </trkpt>
      <trkpt lat="48.85183" lon="2.35177">
        <ele>85.7</ele>
        <time>2015-04-20T20:22:10.962Z</time>
      </trkpt>
      <trkpt lat="48.85185" lon="2.35179">
        <ele>86</ele>
        <time>2015-04-20T20:22:11.970Z</time>
      </trkpt>
      <trkpt lat="48.85193" lon="2.35183">
        <ele>85.4</ele>
        <time>2015-04-20T20:22:15.018Z</time>
      </trkpt>
      <trkpt lat="48.85196" lon="2.35185">
        <ele>85.2</ele>
        <time>2015-04-20T20:22:15.910Z</time>
      </trkpt>
      <trkpt lat="48.85202" lon="2.35189">
        <ele>85.4</ele>
        <time>2015-04-20T20:22:17.969Z</time>
      </trkpt>
      <trkpt lat="48.85205" lon="2.35191">
        <ele>85.1</ele>
        <time>2015-04-20T20:22:18.974Z</time>
      </trkpt>
      <trkpt lat="48.85211" lon="2.35196">
        <ele>85</ele>
        <time>2015-04-20T20:22:21.024Z</time>
      </trkpt>
      <trkpt lat="48.85215" lon="2.35198">
        <ele>85</ele>
        <time>2015-04-20T20:22:21.902Z</time>
      </trkpt>
      <trkpt lat="48.85222" lon="2.35202">
        <ele>84.9</ele>
        <time>2015-04-20T20:22:23.935Z</time>
      </trkpt>
      <trkpt lat="48.85226" lon="2.35203">
        <ele>84.6</ele>
        <time>2015-04-20T20:22:24.930Z</time>
      </trkpt>
      <trkpt lat="48.85234" lon="2.35207">
        <ele>84.2</ele>
        <time>2015-04-20T20:22:26.984Z</time>
      </trkpt>
      <trkpt lat="48.85238" lon="2.3521">
        <ele>84.4</ele>
        <time>2015-04-20T20:22:27.991Z</time>
      </trkpt>
      <trkpt lat="48.85245" lon="2.35214">
        <ele>84.5</ele>
        <time>2015-04-20T20:22:30.011Z</time>
      </trkpt>
      <trkpt lat="48.85249" lon="2.35216">
        <ele>84.7</ele>
        <time>2015-04-20T20:22:30.910Z</time>
      </trkpt>
      <trkpt lat="48.85258" lon="2.35218">
        <ele>85</ele>
        <time>2015-04-20T20:22:32.967Z</time>
      </trkpt>
      <trkpt lat="48.85262" lon="2.35219">
        <ele>85.4</ele>
        <time>2015-04-20T20:22:34.007Z</time>
      </trkpt>
      <trkpt lat="48.85269" lon="2.3522">
        <ele>86.3</ele>
        <time>2015-04-20T20:22:35.933Z</time>
      </trkpt>
      <trkpt lat="48.85272" lon="2.3522">
        <ele>86</ele>
        <time>2015-04-20T20:22:36.949Z</time>
      </trkpt>
      <trkpt lat="48.85281" lon="2.3522">
        <ele>85.6</ele>
        <time>2015-04-20T20:22:40.233Z</time>
      </trkpt>
      <trkpt lat="48.85284" lon="2.35221">
        <ele>85.4</ele>
        <time>2015-04-20T20:22:41.914Z</time>
      </trkpt>
      <trkpt lat="48.85291" lon="2.35221">
        <ele>84.6</ele>
        <time>2015-04-20T20:22:43.931Z</time>
      </trkpt>
      <trkpt lat="48.85294" lon="2.3522">
        <ele>84.3</ele>
        <time>2015-04-20T20:22:45.014Z</time>
      </trkpt>
      <trkpt lat="48.85301" lon="2.35218">
        <ele>84.1</ele>
        <time>2015-04-20T20:22:46.915Z</time>
      </trkpt>
      <trkpt lat="48.85305" lon="2.35217">
        <ele>84.2</ele>
        <time>2015-04-20T20:22:48.014Z</time>
      </trkpt>
      <trkpt lat="48.85312" lon="2.35217">
        <ele>84.2</ele>
        <time>2015-04-20T20:22:49.932Z</time>
      </trkpt>
      <trkpt lat="48.85316" lon="2.35217">
        <ele>84.1</ele>
        <time>2015-04-20T20:22:50.972Z</time>
      </trkpt>
      <trkpt lat="48.85322" lon="2.35218">
        <ele>84.1</ele>
        <time>2015-04-20T20:22:53.423Z</time>
      </trkpt>
      <trkpt lat="48.85326" lon="2.35217">
        <ele>84.1</ele>
        <time>2015-04-20T20:22:53.973Z</time>
      </trkpt>
      <trkpt lat="48.8533" lon="2.35215">
        <ele>84.2</ele>
        <time>2015-04-20T20:22:55.438Z</time>
      </trkpt>
      <trkpt lat="48.85335" lon="2.35213">
        <ele>84.4</ele>
        <time>2015-04-20T20:22:55.936Z</time>
      </trkpt>
      <trkpt lat="48.85343" lon="2.35208">
        <ele>84.4</ele>
        <time>2015-04-20T20:22:57.961Z</time>
      </trkpt>
      <trkpt lat="48.85347" lon="2.35206">
        <ele>84.3</ele>
        <time>2015-04-20T20:22:58.970Z</time>
      </trkpt>
      <trkpt lat="48.85352" lon="2.35203">
        <ele>84.2</ele>
        <time>2015-04-20T20:23:00.132Z</time>
      </trkpt>
      <trkpt lat="48.85358" lon="2.35199">
        <ele>84.5</ele>
        <time>2015-04-20T20:23:00.913Z</time>
      </trkpt>
      <trkpt lat="48.85365" lon="2.35197">
        <ele>84.2</ele>
        <time>2015-04-20T20:23:01.925Z</time>
      </trkpt>
      <trkpt lat="48.85372" lon="2.35194">
        <ele>84.1</ele>
        <time>2015-04-20T20:23:02.968Z</time>
      </trkpt>
      <trkpt lat="48.85378" lon="2.35192">
        <ele>84.1</ele>
        <time>2015-04-20T20:23:03.951Z</time>
      </trkpt>
      <trkpt lat="48.85384" lon="2.35188">
        <ele>84.2</ele>
        <time>2015-04-20T20:23:05.002Z</time>
      </trkpt>
      <trkpt lat="48.85389" lon="2.35184">
        <ele>84.4</ele>
        <time>2015-04-20T20:23:06.350Z</time>
      </trkpt>
      <trkpt lat="48.85393" lon="2.35181">
        <ele>84.7</ele>
        <time>2015-04-20T20:23:06.920Z</time>
      </trkpt>
      <trkpt lat="48.85398" lon="2.35177">
        <ele>85.2</ele>
        <time>2015-04-20T20:23:07.925Z</time>
      </trkpt>
      <trkpt lat="48.85403" lon="2.35172">
        <ele>85.4</ele>
        <time>2015-04-20T20:23:08.964Z</time>
      </trkpt>
      <trkpt lat="48.85407" lon="2.35166">
        <ele>85.5</ele>
        <time>2015-04-20T20:23:09.965Z</time>
      </trkpt>
      <trkpt lat="48.85412" lon="2.3516">
        <ele>85.7</ele>
        <time>2015-04-20T20:23:10.976Z</time>
      </trkpt>
      <trkpt lat="48.85418" lon="2.35153">
        <ele>85.7</ele>
        <time>2015-04-20T20:23:11.990Z</time>
      </trkpt>
      <trkpt lat="48.85425" lon="2.35147">
        <ele>85.8</ele>
        <time>2015-04-20T20:23:13Z</time>
      </trkpt>
      <trkpt lat="48.85432" lon="2.35141">
        <ele>85.9</ele>
        <time>2015-04-20T20:23:13.902Z</time>
      </trkpt>
      <trkpt lat="48.85438" lon="2.35135">
        <ele>85.9</ele>
        <time>2015-04-20T20:23:14.959Z</time>
      </trkpt>
      <trkpt lat="48.85445" lon="2.35131">
        <ele>85.9</ele>
        <time>2015-04-20T20:23:15.953Z</time>
      </trkpt>
      <trkpt lat="48.85452" lon="2.35127">
        <ele>85.8</ele>
        <time>2015-04-20T20:23:16.970Z</time>
      </trkpt>
      <trkpt lat="48.85459" lon="2.35122">
        <ele>85.8</ele>
        <time>2015-04-20T20:23:17.998Z</time>
      </trkpt>
      <trkpt lat="48.85466" lon="2.35119">
        <ele>85.7</ele>
        <time>2015-04-20T20:23:18.929Z</time>
      </trkpt>
      <trkpt lat="48.85472" lon="2.35114">
        <ele>85.7</ele>
        <time>2015-04-20T20:23:19.922Z</time>
      </trkpt>
      <trkpt lat="48.85478" lon="2.35108">
        <ele>85.8</ele>
        <time>2015-04-20T20:23:20.961Z</time>
      </trkpt>
      <trkpt lat="48.85484" lon="2.35103">
        <ele>85.8</ele>
        <time>2015-04-20T20:23:21.962Z</time>
      </trkpt>
      <trkpt lat="48.85489" lon="2.35096">
        <ele>86</ele>
        <time>2015-04-20T20:23:22.980Z</time>
      </trkpt>
      <trkpt lat="48.85494" lon="2.3509">
        <ele>85.9</ele>
        <time>2015-04-20T20:23:23.988Z</time>
      </trkpt>
      <trkpt lat="48.85498" lon="2.35083">
        <ele>85.7</ele>
        <time>2015-04-20T20:23:24.998Z</time>
      </trkpt>
      <trkpt lat="48.85501" lon="2.35074">
        <ele>85.3</ele>
        <time>2015-04-20T20:23:25.887Z</time>
      </trkpt>
      <trkpt lat="48.85502" lon="2.35064">
        <ele>84.9</ele>
        <time>2015-04-20T20:23:26.940Z</time>
      </trkpt>
      <trkpt lat="48.85501" lon="2.35053">
        <ele>83.5</ele>
        <time>2015-04-20T20:23:27.940Z</time>
      </trkpt>
      <trkpt lat="48.85506" lon="2.35041">
        <ele>84</ele>
        <time>2015-04-20T20:23:29.964Z</time>
      </trkpt>
      <trkpt lat="48.85512" lon="2.35033">
        <ele>83.6</ele>
        <time>2015-04-20T20:23:33.017Z</time>
      </trkpt>
      <trkpt lat="48.85514" lon="2.35029">
        <ele>83.4</ele>
        <time>2015-04-20T20:23:33.931Z</time>
      </trkpt>
      <trkpt lat="48.85514" lon="2.35018">
        <ele>84</ele>
        <time>2015-04-20T20:24:00.960Z</time>
      </trkpt>
      <trkpt lat="48.85517" lon="2.34992">
        <ele>89</ele>
        <time>2015-04-20T20:24:01.962Z</time>
      </trkpt>
      <trkpt lat="48.85519" lon="2.34981">
        <ele>89.6</ele>
        <time>2015-04-20T20:24:04.007Z</time>
      </trkpt>
      <trkpt lat="48.8552" lon="2.34976">
        <ele>89.8</ele>
        <time>2015-04-20T20:24:04.913Z</time>
      </trkpt>
      <trkpt lat="48.85523" lon="2.34966">
        <ele>90.5</ele>
        <time>2015-04-20T20:24:06.942Z</time>
      </trkpt>
      <trkpt lat="48.85523" lon="2.34962">
        <ele>90.5</ele>
        <time>2015-04-20T20:24:07.958Z</time>
      </trkpt>
      <trkpt lat="48.85521" lon="2.34953">
        <ele>89.9</ele>
        <time>2015-04-20T20:24:09.958Z</time>
      </trkpt>
      <trkpt lat="48.8552" lon="2.34948">
        <ele>89.7</ele>
        <time>2015-04-20T20:24:10.972Z</time>
      </trkpt>
      <trkpt lat="48.85518" lon="2.34939">
        <ele>89.5</ele>
        <time>2015-04-20T20:24:12.895Z</time>
      </trkpt>
      <trkpt lat="48.85517" lon="2.34933">
        <ele>89.4</ele>
        <time>2015-04-20T20:24:13.917Z</time>
      </trkpt>
      <trkpt lat="48.85519" lon="2.34923">
        <ele>89.8</ele>
        <time>2015-04-20T20:24:15.994Z</time>
      </trkpt>
      <trkpt lat="48.85521" lon="2.34918">
        <ele>89.8</ele>
        <time>2015-04-20T20:24:16.995Z</time>
      </trkpt>
      <trkpt lat="48.85526" lon="2.34908">
        <ele>89.8</ele>
        <time>2015-04-20T20:24:18.889Z</time>
      </trkpt>
      <trkpt lat="48.85528" lon="2.34903">
        <ele>89.6</ele>
        <time>2015-04-20T20:24:19.925Z</time>
      </trkpt>
      <trkpt lat="48.85532" lon="2.34893">
        <ele>90</ele>
        <time>2015-04-20T20:24:21.980Z</time>
      </trkpt>
      <trkpt lat="48.85533" lon="2.34889">
        <ele>90.2</ele>
        <time>2015-04-20T20:24:22.961Z</time>
      </trkpt>
      <trkpt lat="48.85535" lon="2.34886">
        <ele>90.3</ele>
        <time>2015-04-20T20:24:27.016Z</time>
      </trkpt>
      <trkpt lat="48.85541" lon="2.3487">
        <ele>90.8</ele>
        <time>2015-04-20T20:24:27.903Z</time>
      </trkpt>
      <trkpt lat="48.85545" lon="2.34861">
        <ele>90.8</ele>
        <time>2015-04-20T20:24:29.933Z</time>
      </trkpt>
      <trkpt lat="48.85546" lon="2.34857">
        <ele>90.9</ele>
        <time>2015-04-20T20:24:30.955Z</time>
      </trkpt>
      <trkpt lat="48.85547" lon="2.34851">
        <ele>91.5</ele>
        <time>2015-04-20T20:24:33.907Z</time>
      </trkpt>
      <trkpt lat="48.85553" lon="2.34843">
        <ele>91.9</ele>
        <time>2015-04-20T20:24:34.951Z</time>
      </trkpt>
      <trkpt lat="48.85557" lon="2.34834">
        <ele>91.7</ele>
        <time>2015-04-20T20:24:36.953Z</time>
      </trkpt>
      <trkpt lat="48.8556" lon="2.34829">
        <ele>91.5</ele>
        <time>2015-04-20T20:24:37.985Z</time>
      </trkpt>
      <trkpt lat="48.85562" lon="2.34823">
        <ele>91.5</ele>
        <time>2015-04-20T20:24:39.027Z</time>
      </trkpt>
      <trkpt lat="48.85565" lon="2.34818">
        <ele>91.4</ele>
        <time>2015-04-20T20:24:39.936Z</time>
      </trkpt>
      <trkpt lat="48.85569" lon="2.34812">
        <ele>91.6</ele>
        <time>2015-04-20T20:24:40.937Z</time>
      </trkpt>
      <trkpt lat="48.85571" lon="2.34805">
        <ele>91.6</ele>
        <time>2015-04-20T20:24:41.943Z</time>
      </trkpt>
      <trkpt lat="48.85575" lon="2.34796">
        <ele>92</ele>
        <time>2015-04-20T20:24:42.958Z</time>
      </trkpt>
      <trkpt lat="48.85581" lon="2.34787">
        <ele>92.6</ele>
        <time>2015-04-20T20:24:43.969Z</time>
      </trkpt>
      <trkpt lat="48.85585" lon="2.34778">
        <ele>93</ele>
        <time>2015-04-20T20:24:44.978Z</time>
      </trkpt>
      <trkpt lat="48.85587" lon="2.34769">
        <ele>93.4</ele>
        <time>2015-04-20T20:24:45.986Z</time>
      </trkpt>
      <trkpt lat="48.85591" lon="2.34759">
        <ele>93.6</ele>
        <time>2015-04-20T20:24:47.005Z</time>
      </trkpt>
      <trkpt lat="48.85593" lon="2.34749">
        <ele>93.8</ele>
        <time>2015-04-20T20:24:47.918Z</time>
      </trkpt>
      <trkpt lat="48.85595" lon="2.3474">
        <ele>93.9</ele>
        <time>2015-04-20T20:24:48.929Z</time>
      </trkpt>
      <trkpt lat="48.85597" lon="2.34731">
        <ele>94.1</ele>
        <time>2015-04-20T20:24:49.921Z</time>
      </trkpt>
      <trkpt lat="48.85599" lon="2.34722">
        <ele>94.4</ele>
        <time>2015-04-20T20:24:50.934Z</time>
      </trkpt>
      <trkpt lat="48.856" lon="2.34713">
        <ele>94.8</ele>
        <time>2015-04-20T20:24:51.971Z</time>
      </trkpt>
      <trkpt lat="48.85601" lon="2.34701">
        <ele>94.5</ele>
        <time>2015-04-20T20:24:52.999Z</time>
      </trkpt>
      <trkpt lat="48.85602" lon="2.34691">
        <ele>94.5</ele>
        <time>2015-04-20T20:24:54.004Z</time>
      </trkpt>
      <trkpt lat="48.85607" lon="2.34681">
        <ele>94.7</ele>
        <time>2015-04-20T20:24:54.922Z</time>
      </trkpt>
      <trkpt lat="48.8561" lon="2.34673">
        <ele>94.8</ele>
        <time>2015-04-20T20:24:55.923Z</time>
      </trkpt>
      <trkpt lat="48.85614" lon="2.34663">
        <ele>95</ele>
        <time>2015-04-20T20:24:57.958Z</time>
      </trkpt>
      <trkpt lat="48.8562" lon="2.34664">
        <ele>93.8</ele>
        <time>2015-04-20T20:24:58.981Z</time>
      </trkpt>
      <trkpt lat="48.85626" lon="2.34673">
        <ele>92.2</ele>
        <time>2015-04-20T20:25:01.923Z</time>
      </trkpt>
      <trkpt lat="48.85628" lon="2.34674">
        <ele>91.5</ele>
        <time>2015-04-20T20:25:02.989Z</time>
      </trkpt>
      <trkpt lat="48.85635" lon="2.34682">
        <ele>90.9</ele>
        <time>2015-04-20T20:25:06.932Z</time>
      </trkpt>
      <trkpt lat="48.85638" lon="2.34684">
        <ele>90.7</ele>
        <time>2015-04-20T20:25:07.946Z</time>
      </trkpt>
      <trkpt lat="48.85644" lon="2.34689">
        <ele>90.6</ele>
        <time>2015-04-20T20:25:09.982Z</time>
      </trkpt>
      <trkpt lat="48.85647" lon="2.3469">
        <ele>90.1</ele>
        <time>2015-04-20T20:25:10.927Z</time>
      </trkpt>
      <trkpt lat="48.85655" lon="2.34693">
        <ele>89.8</ele>
        <time>2015-04-20T20:25:12.934Z</time>
      </trkpt>
      <trkpt lat="48.85658" lon="2.34695">
        <ele>89.4</ele>
        <time>2015-04-20T20:25:13.935Z</time>
      </trkpt>
      <trkpt lat="48.85663" lon="2.34697">
        <ele>89.3</ele>
        <time>2015-04-20T20:25:14.968Z</time>
      </trkpt>
      <trkpt lat="48.85667" lon="2.34699">
        <ele>88.7</ele>
        <time>2015-04-20T20:25:15.974Z</time>
      </trkpt>
      <trkpt lat="48.85672" lon="2.34701">
        <ele>88.4</ele>
        <time>2015-04-20T20:25:17.700Z</time>
      </trkpt>
      <trkpt lat="48.85677" lon="2.34703">
        <ele>88.2</ele>
        <time>2015-04-20T20:25:18Z</time>
      </trkpt>
      <trkpt lat="48.85682" lon="2.34705">
        <ele>88</ele>
        <time>2015-04-20T20:25:18.903Z</time>
      </trkpt>
      <trkpt lat="48.85686" lon="2.34707">
        <ele>87.8</ele>
        <time>2015-04-20T20:25:19.931Z</time>
      </trkpt>
      <trkpt lat="48.85694" lon="2.34711">
        <ele>87.7</ele>
        <time>2015-04-20T20:25:22.721Z</time>
      </trkpt>
      <trkpt lat="48.85698" lon="2.34713">
        <ele>87.5</ele>
        <time>2015-04-20T20:25:22.955Z</time>
      </trkpt>
      <trkpt lat="48.85705" lon="2.34717">
        <ele>87</ele>
        <time>2015-04-20T20:25:24.981Z</time>
      </trkpt>
      <trkpt lat="48.85708" lon="2.3472">
        <ele>86.7</ele>
        <time>2015-04-20T20:25:25.996Z</time>
      </trkpt>
      <trkpt lat="48.85714" lon="2.34725">
        <ele>86.5</ele>
        <time>2015-04-20T20:25:27.896Z</time>
      </trkpt>
      <trkpt lat="48.85716" lon="2.34726">
        <ele>86.2</ele>
        <time>2015-04-20T20:25:28.921Z</time>
      </trkpt>
      <trkpt lat="48.85721" lon="2.34716">
        <ele>83.4</ele>
        <time>2015-04-20T20:25:35.956Z</time>
      </trkpt>
      <trkpt lat="48.85722" lon="2.34713">
        <ele>83.2</ele>
        <time>2015-04-20T20:25:36.966Z</time>
      </trkpt>
      <trkpt lat="48.85724" lon="2.34702">
        <ele>82.3</ele>
        <time>2015-04-20T20:25:41.001Z</time>
      </trkpt>
      <trkpt lat="48.85725" lon="2.347">
        <ele>82.3</ele>
        <time>2015-04-20T20:25:42.003Z</time>
      </trkpt>
      <trkpt lat="48.85728" lon="2.34688">
        <ele>81.9</ele>
        <time>2015-04-20T20:25:46.961Z</time>
      </trkpt>
      <trkpt lat="48.85729" lon="2.34687">
        <ele>81.9</ele>
        <time>2015-04-20T20:25:47.970Z</time>
      </trkpt>
      <trkpt lat="48.8573" lon="2.34686">
        <ele>81.9</ele>
        <time>2015-04-20T20:26:02.005Z</time>
      </trkpt>
      <trkpt lat="48.85738" lon="2.34672">
        <ele>84.8</ele>
        <time>2015-04-20T20:26:03.013Z</time>
      </trkpt>
      <trkpt lat="48.85746" lon="2.34678">
        <ele>84.8</ele>
        <time>2015-04-20T20:26:07.942Z</time>
      </trkpt>
      <trkpt lat="48.85747" lon="2.3468">
        <ele>84.8</ele>
        <time>2015-04-20T20:26:08.991Z</time>
      </trkpt>
      <trkpt lat="48.85755" lon="2.34685">
        <ele>84.6</ele>
        <time>2015-04-20T20:26:11.940Z</time>
      </trkpt>
      <trkpt lat="48.85758" lon="2.34687">
        <ele>84.1</ele>
        <time>2015-04-20T20:26:12.939Z</time>
      </trkpt>
      <trkpt lat="48.85763" lon="2.34693">
        <ele>83.4</ele>
        <time>2015-04-20T20:26:15.857Z</time>
      </trkpt>
      <trkpt lat="48.85765" lon="2.34696">
        <ele>83.5</ele>
        <time>2015-04-20T20:26:15.898Z</time>
      </trkpt>
      <trkpt lat="48.85772" lon="2.34702">
        <ele>84.1</ele>
        <time>2015-04-20T20:26:18.908Z</time>
      </trkpt>
      <trkpt lat="48.85774" lon="2.34706">
        <ele>84.6</ele>
        <time>2015-04-20T20:26:19.912Z</time>
      </trkpt>
      <trkpt lat="48.85779" lon="2.34712">
        <ele>85.2</ele>
        <time>2015-04-20T20:26:21.945Z</time>
      </trkpt>
      <trkpt lat="48.85781" lon="2.34715">
        <ele>85.3</ele>
        <time>2015-04-20T20:26:23.006Z</time>
      </trkpt>
      <trkpt lat="48.85789" lon="2.3472">
        <ele>85.6</ele>
        <time>2015-04-20T20:26:24.935Z</time>
      </trkpt>
      <trkpt lat="48.85793" lon="2.34723">
        <ele>85.6</ele>
        <time>2015-04-20T20:26:25.954Z</time>
      </trkpt>
      <trkpt lat="48.85797" lon="2.34727">
        <ele>85.6</ele>
        <time>2015-04-20T20:26:26.981Z</time>
      </trkpt>
      <trkpt lat="48.85802" lon="2.34732">
        <ele>85.7</ele>
        <time>2015-04-20T20:26:28.022Z</time>
      </trkpt>
      <trkpt lat="48.85808" lon="2.34736">
        <ele>85.8</ele>
        <time>2015-04-20T20:26:28.909Z</time>
      </trkpt>
      <trkpt lat="48.85814" lon="2.34739">
        <ele>85.9</ele>
        <time>2015-04-20T20:26:29.965Z</time>
      </trkpt>
      <trkpt lat="48.8582" lon="2.34739">
        <ele>86.2</ele>
        <time>2015-04-20T20:26:31.006Z</time>
      </trkpt>
      <trkpt lat="48.85825" lon="2.3474">
        <ele>86.4</ele>
        <time>2015-04-20T20:26:32.035Z</time>
      </trkpt>
      <trkpt lat="48.8583" lon="2.34743">
        <ele>86.5</ele>
        <time>2015-04-20T20:26:32.988Z</time>
      </trkpt>
      <trkpt lat="48.85834" lon="2.34743">
        <ele>87</ele>
        <time>2015-04-20T20:26:33.994Z</time>
      </trkpt>
      <trkpt lat="48.85841" lon="2.34744">
        <ele>87.6</ele>
        <time>2015-04-20T20:26:35.922Z</time>
      </trkpt>
      <trkpt lat="48.85847" lon="2.34745">
        <ele>87.8</ele>
        <time>2015-04-20T20:26:37.024Z</time>
      </trkpt>
      <trkpt lat="48.85852" lon="2.34745">
        <ele>88.1</ele>
        <time>2015-04-20T20:26:37.888Z</time>
      </trkpt>
      <trkpt lat="48.85856" lon="2.34744">
        <ele>88.5</ele>
        <time>2015-04-20T20:26:38.946Z</time>
      </trkpt>
      <trkpt lat="48.85863" lon="2.34743">
        <ele>88.7</ele>
        <time>2015-04-20T20:26:40.971Z</time>
      </trkpt>
      <trkpt lat="48.85867" lon="2.34744">
        <ele>88.7</ele>
        <time>2015-04-20T20:26:41.988Z</time>
      </trkpt>
      <trkpt lat="48.85873" lon="2.34743">
        <ele>88.7</ele>
        <time>2015-04-20T20:26:42.919Z</time>
      </trkpt>
      <trkpt lat="48.85879" lon="2.34743">
        <ele>88.9</ele>
        <time>2015-04-20T20:26:43.919Z</time>
      </trkpt>
      <trkpt lat="48.85885" lon="2.34742">
        <ele>89.4</ele>
        <time>2015-04-20T20:26:44.961Z</time>
      </trkpt>
      <trkpt lat="48.85889" lon="2.34743">
        <ele>89.6</ele>
        <time>2015-04-20T20:26:45.968Z</time>
      </trkpt>
      <trkpt lat="48.85898" lon="2.34742">
        <ele>90.1</ele>
        <time>2015-04-20T20:26:48.992Z</time>
      </trkpt>
      <trkpt lat="48.85899" lon="2.34741">
        <ele>90.2</ele>
        <time>2015-04-20T20:26:50.020Z</time>
      </trkpt>
      <trkpt lat="48.85903" lon="2.3473">
        <ele>90.2</ele>
        <time>2015-04-20T20:26:54.965Z</time>
      </trkpt>
      <trkpt lat="48.85903" lon="2.34728">
        <ele>90.5</ele>
        <time>2015-04-20T20:26:55.977Z</time>
      </trkpt>
      <trkpt lat="48.85908" lon="2.34732">
        <ele>92.8</ele>
        <time>2015-04-20T20:27:36.935Z</time>
      </trkpt>
      <trkpt lat="48.85947" lon="2.34731">
        <ele>100.1</ele>
        <time>2015-04-20T20:27:41.963Z</time>
      </trkpt>
    </trkseg>
  </trk>
  <trk>
    <name><![CDATA[2 Place du Châtelet]]></name>
    <extensions>
      <line xmlns="http://www.topografix.com/GPX/gpx_style/0/2">
        <color>000000</color>
      </line>
    </extensions>
    <trkseg>
      <trkpt lat="48.85753" lon="2.34739">
        <ele>100</ele>
        <time>2015-04-13T18:20:14.351Z</time>
      </trkpt>
      <trkpt lat="48.85761" lon="2.34744">
        <ele>98.5</ele>
        <time>2015-04-13T18:20:21.758Z</time>
      </trkpt>
      <trkpt lat="48.85763" lon="2.34747">
        <ele>98.1</ele>
        <time>2015-04-13T18:20:23.765Z</time>
      </trkpt>
      <trkpt lat="48.85769" lon="2.34757">
        <ele>95.2</ele>
        <time>2015-04-13T18:20:30.799Z</time>
      </trkpt>
      <trkpt lat="48.8577" lon="2.34758">
        <ele>95</ele>
        <time>2015-04-13T18:20:31.830Z</time>
      </trkpt>
      <trkpt lat="48.8577" lon="2.3476">
        <ele>94.7</ele>
        <time>2015-04-13T18:20:33.883Z</time>
      </trkpt>
      <trkpt lat="48.85771" lon="2.3476">
        <ele>94.5</ele>
        <time>2015-04-13T18:20:34.845Z</time>
      </trkpt>
      <trkpt lat="48.8577" lon="2.3476">
        <ele>94.2</ele>
        <time>2015-04-13T18:20:40.805Z</time>
      </trkpt>
      <trkpt lat="48.85772" lon="2.34762">
        <ele>93.2</ele>
        <time>2015-04-13T18:20:41.790Z</time>
      </trkpt>
      <trkpt lat="48.85778" lon="2.34767">
        <ele>92.9</ele>
        <time>2015-04-13T18:20:46.787Z</time>
      </trkpt>
      <trkpt lat="48.8578" lon="2.34768">
        <ele>92.9</ele>
        <time>2015-04-13T18:20:47.914Z</time>
      </trkpt>
      <trkpt lat="48.85787" lon="2.3477">
        <ele>92.9</ele>
        <time>2015-04-13T18:20:52.855Z</time>
      </trkpt>
      <trkpt lat="48.85789" lon="2.34772">
        <ele>92.9</ele>
        <time>2015-04-13T18:20:53.763Z</time>
      </trkpt>
      <trkpt lat="48.85792" lon="2.34779">
        <ele>92.7</ele>
        <time>2015-04-13T18:20:55.847Z</time>
      </trkpt>
      <trkpt lat="48.85795" lon="2.34781">
        <ele>92.6</ele>
        <time>2015-04-13T18:20:56.793Z</time>
      </trkpt>
      <trkpt lat="48.85801" lon="2.34785">
        <ele>92.4</ele>
        <time>2015-04-13T18:20:58.813Z</time>
      </trkpt>
      <trkpt lat="48.85805" lon="2.34788">
        <ele>92.3</ele>
        <time>2015-04-13T18:20:59.822Z</time>
      </trkpt>
      <trkpt lat="48.85812" lon="2.34792">
        <ele>92.1</ele>
        <time>2015-04-13T18:21:01.914Z</time>
      </trkpt>
      <trkpt lat="48.85815" lon="2.34795">
        <ele>92.1</ele>
        <time>2015-04-13T18:21:02.781Z</time>
      </trkpt>
      <trkpt lat="48.85821" lon="2.34799">
        <ele>92.1</ele>
        <time>2015-04-13T18:21:04.808Z</time>
      </trkpt>
      <trkpt lat="48.85824" lon="2.34801">
        <ele>92.1</ele>
        <time>2015-04-13T18:21:05.838Z</time>
      </trkpt>
      <trkpt lat="48.85832" lon="2.34803">
        <ele>92.1</ele>
        <time>2015-04-13T18:21:07.777Z</time>
      </trkpt>
      <trkpt lat="48.85835" lon="2.34804">
        <ele>92.3</ele>
        <time>2015-04-13T18:21:08.810Z</time>
      </trkpt>
      <trkpt lat="48.85843" lon="2.34807">
        <ele>92.4</ele>
        <time>2015-04-13T18:21:11.877Z</time>
      </trkpt>
      <trkpt lat="48.85845" lon="2.34807">
        <ele>92.4</ele>
        <time>2015-04-13T18:21:12.788Z</time>
      </trkpt>
      <trkpt lat="48.85845" lon="2.34809">
        <ele>92</ele>
        <time>2015-04-13T18:21:20.777Z</time>
      </trkpt>
      <trkpt lat="48.85845" lon="2.3481">
        <ele>91.6</ele>
        <time>2015-04-13T18:21:21.771Z</time>
      </trkpt>
      <trkpt lat="48.85845" lon="2.34811">
        <ele>91.7</ele>
        <time>2015-04-13T18:21:22.801Z</time>
      </trkpt>
      <trkpt lat="48.85838" lon="2.3481">
        <ele>91.8</ele>
        <time>2015-04-13T18:21:26.799Z</time>
      </trkpt>
      <trkpt lat="48.85836" lon="2.34811">
        <ele>92</ele>
        <time>2015-04-13T18:21:27.792Z</time>
      </trkpt>
      <trkpt lat="48.85827" lon="2.34812">
        <ele>91.2</ele>
        <time>2015-04-13T18:21:31.817Z</time>
      </trkpt>
      <trkpt lat="48.85825" lon="2.34812">
        <ele>91</ele>
        <time>2015-04-13T18:21:32.871Z</time>
      </trkpt>
      <trkpt lat="48.85819" lon="2.34815">
        <ele>90.3</ele>
        <time>2015-04-13T18:21:41.854Z</time>
      </trkpt>
      <trkpt lat="48.8582" lon="2.34815">
        <ele>90.1</ele>
        <time>2015-04-13T18:21:42.875Z</time>
      </trkpt>
      <trkpt lat="48.8582" lon="2.34816">
        <ele>90</ele>
        <time>2015-04-13T18:21:55.801Z</time>
      </trkpt>
      <trkpt lat="48.85822" lon="2.34817">
        <ele>88.8</ele>
        <time>2015-04-13T18:21:56.809Z</time>
      </trkpt>
      <trkpt lat="48.85831" lon="2.34821">
        <ele>88.4</ele>
        <time>2015-04-13T18:22:02.754Z</time>
      </trkpt>
      <trkpt lat="48.85833" lon="2.34822">
        <ele>88.2</ele>
        <time>2015-04-13T18:22:03.799Z</time>
      </trkpt>
      <trkpt lat="48.85842" lon="2.34824">
        <ele>88</ele>
        <time>2015-04-13T18:22:07.859Z</time>
      </trkpt>
      <trkpt lat="48.85844" lon="2.34825">
        <ele>88</ele>
        <time>2015-04-13T18:22:08.779Z</time>
      </trkpt>
      <trkpt lat="48.85851" lon="2.34828">
        <ele>88</ele>
        <time>2015-04-13T18:22:11.782Z</time>
      </trkpt>
      <trkpt lat="48.85855" lon="2.3483">
        <ele>88</ele>
        <time>2015-04-13T18:22:12.817Z</time>
      </trkpt>
      <trkpt lat="48.85862" lon="2.34833">
        <ele>87.9</ele>
        <time>2015-04-13T18:22:14.827Z</time>
      </trkpt>
      <trkpt lat="48.85864" lon="2.34835">
        <ele>88</ele>
        <time>2015-04-13T18:22:15.832Z</time>
      </trkpt>
      <trkpt lat="48.85871" lon="2.34839">
        <ele>87.9</ele>
        <time>2015-04-13T18:22:18.795Z</time>
      </trkpt>
      <trkpt lat="48.85874" lon="2.34841">
        <ele>87.7</ele>
        <time>2015-04-13T18:22:19.798Z</time>
      </trkpt>
      <trkpt lat="48.85882" lon="2.34847">
        <ele>87.2</ele>
        <time>2015-04-13T18:22:23.794Z</time>
      </trkpt>
      <trkpt lat="48.85883" lon="2.34849">
        <ele>87.2</ele>
        <time>2015-04-13T18:22:24.808Z</time>
      </trkpt>
      <trkpt lat="48.8589" lon="2.34852">
        <ele>87.5</ele>
        <time>2015-04-13T18:22:27.864Z</time>
      </trkpt>
      <trkpt lat="48.85893" lon="2.34853">
        <ele>87.6</ele>
        <time>2015-04-13T18:22:28.856Z</time>
      </trkpt>
      <trkpt lat="48.85898" lon="2.3486">
        <ele>87.6</ele>
        <time>2015-04-13T18:22:31.787Z</time>
      </trkpt>
      <trkpt lat="48.859" lon="2.34862">
        <ele>87.6</ele>
        <time>2015-04-13T18:22:32.811Z</time>
      </trkpt>
      <trkpt lat="48.85907" lon="2.34867">
        <ele>87.6</ele>
        <time>2015-04-13T18:22:34.773Z</time>
      </trkpt>
      <trkpt lat="48.85911" lon="2.3487">
        <ele>87.6</ele>
        <time>2015-04-13T18:22:35.867Z</time>
      </trkpt>
      <trkpt lat="48.85918" lon="2.34876">
        <ele>87.6</ele>
        <time>2015-04-13T18:22:37.810Z</time>
      </trkpt>
      <trkpt lat="48.85922" lon="2.34879">
        <ele>87.5</ele>
        <time>2015-04-13T18:22:38.937Z</time>
      </trkpt>
      <trkpt lat="48.85927" lon="2.34882">
        <ele>87.6</ele>
        <time>2015-04-13T18:22:39.816Z</time>
      </trkpt>
      <trkpt lat="48.85931" lon="2.34884">
        <ele>87.6</ele>
        <time>2015-04-13T18:22:40.822Z</time>
      </trkpt>
      <trkpt lat="48.85936" lon="2.34885">
        <ele>87.7</ele>
        <time>2015-04-13T18:22:41.838Z</time>
      </trkpt>
      <trkpt lat="48.85941" lon="2.34886">
        <ele>87.7</ele>
        <time>2015-04-13T18:22:42.861Z</time>
      </trkpt>
      <trkpt lat="48.85946" lon="2.34889">
        <ele>87.7</ele>
        <time>2015-04-13T18:22:43.770Z</time>
      </trkpt>
      <trkpt lat="48.8595" lon="2.34892">
        <ele>87.7</ele>
        <time>2015-04-13T18:22:44.792Z</time>
      </trkpt>
      <trkpt lat="48.85957" lon="2.34898">
        <ele>87.9</ele>
        <time>2015-04-13T18:22:46.804Z</time>
      </trkpt>
      <trkpt lat="48.85959" lon="2.34901">
        <ele>88</ele>
        <time>2015-04-13T18:22:47.832Z</time>
      </trkpt>
      <trkpt lat="48.85967" lon="2.34906">
        <ele>88.2</ele>
        <time>2015-04-13T18:22:49.845Z</time>
      </trkpt>
      <trkpt lat="48.85971" lon="2.34909">
        <ele>88.3</ele>
        <time>2015-04-13T18:22:50.846Z</time>
      </trkpt>
      <trkpt lat="48.85979" lon="2.34914">
        <ele>88.5</ele>
        <time>2015-04-13T18:22:52.867Z</time>
      </trkpt>
      <trkpt lat="48.85981" lon="2.34917">
        <ele>88.6</ele>
        <time>2015-04-13T18:22:53.835Z</time>
      </trkpt>
      <trkpt lat="48.85985" lon="2.34921">
        <ele>88.7</ele>
        <time>2015-04-13T18:22:54.855Z</time>
      </trkpt>
      <trkpt lat="48.85989" lon="2.34924">
        <ele>88.8</ele>
        <time>2015-04-13T18:22:55.777Z</time>
      </trkpt>
      <trkpt lat="48.85994" lon="2.34926">
        <ele>88.9</ele>
        <time>2015-04-13T18:22:56.787Z</time>
      </trkpt>
      <trkpt lat="48.85999" lon="2.34929">
        <ele>88.9</ele>
        <time>2015-04-13T18:22:57.801Z</time>
      </trkpt>
      <trkpt lat="48.86004" lon="2.34932">
        <ele>89</ele>
        <time>2015-04-13T18:22:58.813Z</time>
      </trkpt>
      <trkpt lat="48.86008" lon="2.34934">
        <ele>89</ele>
        <time>2015-04-13T18:22:59.817Z</time>
      </trkpt>
      <trkpt lat="48.86014" lon="2.3494">
        <ele>89.3</ele>
        <time>2015-04-13T18:23:01.851Z</time>
      </trkpt>
      <trkpt lat="48.86019" lon="2.34944">
        <ele>89.2</ele>
        <time>2015-04-13T18:23:02.740Z</time>
      </trkpt>
      <trkpt lat="48.86024" lon="2.34948">
        <ele>89.3</ele>
        <time>2015-04-13T18:23:03.765Z</time>
      </trkpt>
      <trkpt lat="48.8603" lon="2.34951">
        <ele>89.3</ele>
        <time>2015-04-13T18:23:04.784Z</time>
      </trkpt>
      <trkpt lat="48.86034" lon="2.34954">
        <ele>89.2</ele>
        <time>2015-04-13T18:23:05.801Z</time>
      </trkpt>
      <trkpt lat="48.86039" lon="2.34957">
        <ele>89.2</ele>
        <time>2015-04-13T18:23:06.816Z</time>
      </trkpt>
      <trkpt lat="48.86043" lon="2.3496">
        <ele>89.2</ele>
        <time>2015-04-13T18:23:07.845Z</time>
      </trkpt>
      <trkpt lat="48.86049" lon="2.34963">
        <ele>89.2</ele>
        <time>2015-04-13T18:23:08.843Z</time>
      </trkpt>
      <trkpt lat="48.86055" lon="2.34966">
        <ele>89.4</ele>
        <time>2015-04-13T18:23:09.810Z</time>
      </trkpt>
      <trkpt lat="48.8606" lon="2.34969">
        <ele>89.5</ele>
        <time>2015-04-13T18:23:10.814Z</time>
      </trkpt>
      <trkpt lat="48.86066" lon="2.34971">
        <ele>89.6</ele>
        <time>2015-04-13T18:23:11.813Z</time>
      </trkpt>
      <trkpt lat="48.86071" lon="2.34974">
        <ele>89.6</ele>
        <time>2015-04-13T18:23:12.826Z</time>
      </trkpt>
      <trkpt lat="48.86076" lon="2.34976">
        <ele>89.7</ele>
        <time>2015-04-13T18:23:14.515Z</time>
      </trkpt>
      <trkpt lat="48.86081" lon="2.34978">
        <ele>89.7</ele>
        <time>2015-04-13T18:23:14.840Z</time>
      </trkpt>
      <trkpt lat="48.86088" lon="2.34982">
        <ele>89.9</ele>
        <time>2015-04-13T18:23:16.865Z</time>
      </trkpt>
      <trkpt lat="48.86092" lon="2.34983">
        <ele>90.3</ele>
        <time>2015-04-13T18:23:17.815Z</time>
      </trkpt>
      <trkpt lat="48.861" lon="2.34985">
        <ele>90.7</ele>
        <time>2015-04-13T18:23:20.814Z</time>
      </trkpt>
      <trkpt lat="48.86101" lon="2.34986">
        <ele>90.9</ele>
        <time>2015-04-13T18:23:21.867Z</time>
      </trkpt>
      <trkpt lat="48.8611" lon="2.34987">
        <ele>90.6</ele>
        <time>2015-04-13T18:23:25.854Z</time>
      </trkpt>
      <trkpt lat="48.86112" lon="2.34988">
        <ele>90.7</ele>
        <time>2015-04-13T18:23:26.866Z</time>
      </trkpt>
      <trkpt lat="48.86113" lon="2.34988">
        <ele>91</ele>
        <time>2015-04-13T18:23:27.876Z</time>
      </trkpt>
      <trkpt lat="48.86116" lon="2.34989">
        <ele>91.7</ele>
        <time>2015-04-13T18:23:28.818Z</time>
      </trkpt>
      <trkpt lat="48.86125" lon="2.34991">
        <ele>93</ele>
        <time>2015-04-13T18:23:32.271Z</time>
      </trkpt>
      <trkpt lat="48.86127" lon="2.34992">
        <ele>93.3</ele>
        <time>2015-04-13T18:23:32.777Z</time>
      </trkpt>
      <trkpt lat="48.86134" lon="2.34996">
        <ele>93.4</ele>
        <time>2015-04-13T18:23:35.816Z</time>
      </trkpt>
      <trkpt lat="48.86136" lon="2.34997">
        <ele>93.3</ele>
        <time>2015-04-13T18:23:36.821Z</time>
      </trkpt>
      <trkpt lat="48.86141" lon="2.35">
        <ele>93.2</ele>
        <time>2015-04-13T18:23:37.853Z</time>
      </trkpt>
      <trkpt lat="48.86147" lon="2.35003">
        <ele>93.2</ele>
        <time>2015-04-13T18:23:38.846Z</time>
      </trkpt>
      <trkpt lat="48.86153" lon="2.35007">
        <ele>93.2</ele>
        <time>2015-04-13T18:23:39.800Z</time>
      </trkpt>
      <trkpt lat="48.86156" lon="2.35009">
        <ele>93.2</ele>
        <time>2015-04-13T18:23:40.805Z</time>
      </trkpt>
      <trkpt lat="48.86162" lon="2.35014">
        <ele>93.3</ele>
        <time>2015-04-13T18:23:42.845Z</time>
      </trkpt>
      <trkpt lat="48.86164" lon="2.35016">
        <ele>93.3</ele>
        <time>2015-04-13T18:23:43.852Z</time>
      </trkpt>
      <trkpt lat="48.86172" lon="2.35021">
        <ele>93.4</ele>
        <time>2015-04-13T18:23:46.807Z</time>
      </trkpt>
      <trkpt lat="48.86176" lon="2.35022">
        <ele>93.4</ele>
        <time>2015-04-13T18:23:47.813Z</time>
      </trkpt>
      <trkpt lat="48.86184" lon="2.35026">
        <ele>93.4</ele>
        <time>2015-04-13T18:23:49.740Z</time>
      </trkpt>
      <trkpt lat="48.86188" lon="2.35028">
        <ele>93.5</ele>
        <time>2015-04-13T18:23:50.796Z</time>
      </trkpt>
      <trkpt lat="48.86192" lon="2.35033">
        <ele>93.7</ele>
        <time>2015-04-13T18:23:52.842Z</time>
      </trkpt>
      <trkpt lat="48.86195" lon="2.35036">
        <ele>93.7</ele>
        <time>2015-04-13T18:23:53.878Z</time>
      </trkpt>
      <trkpt lat="48.862" lon="2.35039">
        <ele>93.8</ele>
        <time>2015-04-13T18:23:54.811Z</time>
      </trkpt>
      <trkpt lat="48.86206" lon="2.35043">
        <ele>93.9</ele>
        <time>2015-04-13T18:23:55.812Z</time>
      </trkpt>
      <trkpt lat="48.86211" lon="2.35047">
        <ele>94</ele>
        <time>2015-04-13T18:23:56.911Z</time>
      </trkpt>
      <trkpt lat="48.86218" lon="2.3505">
        <ele>94.1</ele>
        <time>2015-04-13T18:23:57.828Z</time>
      </trkpt>
      <trkpt lat="48.86225" lon="2.35056">
        <ele>94.2</ele>
        <time>2015-04-13T18:23:59.835Z</time>
      </trkpt>
      <trkpt lat="48.8623" lon="2.35059">
        <ele>94.3</ele>
        <time>2015-04-13T18:24:00.847Z</time>
      </trkpt>
      <trkpt lat="48.86234" lon="2.35062">
        <ele>94.3</ele>
        <time>2015-04-13T18:24:02.170Z</time>
      </trkpt>
      <trkpt lat="48.86238" lon="2.35065">
        <ele>94.3</ele>
        <time>2015-04-13T18:24:02.776Z</time>
      </trkpt>
      <trkpt lat="48.86246" lon="2.3507">
        <ele>94.4</ele>
        <time>2015-04-13T18:24:04.743Z</time>
      </trkpt>
      <trkpt lat="48.86249" lon="2.35073">
        <ele>94.5</ele>
        <time>2015-04-13T18:24:05.748Z</time>
      </trkpt>
      <trkpt lat="48.86253" lon="2.35076">
        <ele>94.6</ele>
        <time>2015-04-13T18:24:06.858Z</time>
      </trkpt>
      <trkpt lat="48.86258" lon="2.35078">
        <ele>94.6</ele>
        <time>2015-04-13T18:24:07.780Z</time>
      </trkpt>
      <trkpt lat="48.86263" lon="2.35081">
        <ele>94.7</ele>
        <time>2015-04-13T18:24:08.801Z</time>
      </trkpt>
      <trkpt lat="48.86268" lon="2.35084">
        <ele>94.9</ele>
        <time>2015-04-13T18:24:09.796Z</time>
      </trkpt>
      <trkpt lat="48.86271" lon="2.35087">
        <ele>95.1</ele>
        <time>2015-04-13T18:24:10.816Z</time>
      </trkpt>
      <trkpt lat="48.86277" lon="2.35089">
        <ele>95.5</ele>
        <time>2015-04-13T18:24:11.813Z</time>
      </trkpt>
      <trkpt lat="48.86282" lon="2.35091">
        <ele>95.6</ele>
        <time>2015-04-13T18:24:12.846Z</time>
      </trkpt>
      <trkpt lat="48.86289" lon="2.35094">
        <ele>95.7</ele>
        <time>2015-04-13T18:24:13.855Z</time>
      </trkpt>
      <trkpt lat="48.86296" lon="2.35097">
        <ele>95.9</ele>
        <time>2015-04-13T18:24:14.779Z</time>
      </trkpt>
      <trkpt lat="48.86302" lon="2.351">
        <ele>96</ele>
        <time>2015-04-13T18:24:15.869Z</time>
      </trkpt>
      <trkpt lat="48.86306" lon="2.35103">
        <ele>96.1</ele>
        <time>2015-04-13T18:24:15.927Z</time>
      </trkpt>
      <trkpt lat="48.86311" lon="2.35105">
        <ele>96.3</ele>
        <time>2015-04-13T18:24:17.813Z</time>
      </trkpt>
      <trkpt lat="48.86316" lon="2.35109">
        <ele>96.4</ele>
        <time>2015-04-13T18:24:19.830Z</time>
      </trkpt>
      <trkpt lat="48.8632" lon="2.35111">
        <ele>96.6</ele>
        <time>2015-04-13T18:24:20.861Z</time>
      </trkpt>
      <trkpt lat="48.86333" lon="2.35117">
        <ele>96.7</ele>
        <time>2015-04-13T18:24:21.749Z</time>
      </trkpt>
      <trkpt lat="48.86342" lon="2.35119">
        <ele>96.6</ele>
        <time>2015-04-13T18:24:22.790Z</time>
      </trkpt>
      <trkpt lat="48.86352" lon="2.35122">
        <ele>96.5</ele>
        <time>2015-04-13T18:24:23.815Z</time>
      </trkpt>
      <trkpt lat="48.86369" lon="2.35125">
        <ele>96.2</ele>
        <time>2015-04-13T18:24:24.832Z</time>
      </trkpt>
      <trkpt lat="48.86369" lon="2.35125">
        <ele>96.2</ele>
        <time>2015-04-13T18:24:24.588Z</time>
      </trkpt>
      <trkpt lat="48.8638" lon="2.35128">
        <ele>96.1</ele>
        <time>2015-04-13T18:24:25.808Z</time>
      </trkpt>
      <trkpt lat="48.86391" lon="2.35131">
        <ele>96.1</ele>
        <time>2015-04-13T18:24:26.814Z</time>
      </trkpt>
      <trkpt lat="48.864" lon="2.35135">
        <ele>96.3</ele>
        <time>2015-04-13T18:24:27.832Z</time>
      </trkpt>
      <trkpt lat="48.86407" lon="2.35137">
        <ele>96.6</ele>
        <time>2015-04-13T18:24:28.759Z</time>
      </trkpt>
      <trkpt lat="48.86416" lon="2.3514">
        <ele>97</ele>
        <time>2015-04-13T18:24:29.764Z</time>
      </trkpt>
      <trkpt lat="48.86425" lon="2.35144">
        <ele>96.9</ele>
        <time>2015-04-13T18:24:31.827Z</time>
      </trkpt>
      <trkpt lat="48.86429" lon="2.35147">
        <ele>97.2</ele>
        <time>2015-04-13T18:24:32.775Z</time>
      </trkpt>
      <trkpt lat="48.86435" lon="2.35153">
        <ele>97.7</ele>
        <time>2015-04-13T18:24:34.801Z</time>
      </trkpt>
      <trkpt lat="48.86438" lon="2.35156">
        <ele>98.2</ele>
        <time>2015-04-13T18:24:35.821Z</time>
      </trkpt>
      <trkpt lat="48.86445" lon="2.35161">
        <ele>98.4</ele>
        <time>2015-04-13T18:24:37.861Z</time>
      </trkpt>
      <trkpt lat="48.8645" lon="2.35162">
        <ele>98.3</ele>
        <time>2015-04-13T18:24:38.876Z</time>
      </trkpt>
      <trkpt lat="48.86456" lon="2.35165">
        <ele>98.3</ele>
        <time>2015-04-13T18:24:39.818Z</time>
      </trkpt>
      <trkpt lat="48.86461" lon="2.35168">
        <ele>98.5</ele>
        <time>2015-04-13T18:24:40.836Z</time>
      </trkpt>
      <trkpt lat="48.86467" lon="2.35171">
        <ele>98.4</ele>
        <time>2015-04-13T18:24:41.818Z</time>
      </trkpt>
      <trkpt lat="48.86473" lon="2.35174">
        <ele>98.6</ele>
        <time>2015-04-13T18:24:42.791Z</time>
      </trkpt>
      <trkpt lat="48.86478" lon="2.35177">
        <ele>98.8</ele>
        <time>2015-04-13T18:24:43.842Z</time>
      </trkpt>
      <trkpt lat="48.86484" lon="2.35181">
        <ele>99.2</ele>
        <time>2015-04-13T18:24:44.860Z</time>
      </trkpt>
      <trkpt lat="48.86488" lon="2.35184">
        <ele>99.3</ele>
        <time>2015-04-13T18:24:45.798Z</time>
      </trkpt>
      <trkpt lat="48.86494" lon="2.35189">
        <ele>98.7</ele>
        <time>2015-04-13T18:24:47.788Z</time>
      </trkpt>
      <trkpt lat="48.86498" lon="2.3519">
        <ele>98.6</ele>
        <time>2015-04-13T18:24:48.804Z</time>
      </trkpt>
      <trkpt lat="48.86503" lon="2.35193">
        <ele>98.5</ele>
        <time>2015-04-13T18:24:49.853Z</time>
      </trkpt>
      <trkpt lat="48.8651" lon="2.35197">
        <ele>98.5</ele>
        <time>2015-04-13T18:24:51.791Z</time>
      </trkpt>
      <trkpt lat="48.86514" lon="2.352">
        <ele>98.5</ele>
        <time>2015-04-13T18:24:52.826Z</time>
      </trkpt>
      <trkpt lat="48.86521" lon="2.35204">
        <ele>98.3</ele>
        <time>2015-04-13T18:24:54.863Z</time>
      </trkpt>
      <trkpt lat="48.86525" lon="2.35206">
        <ele>98.3</ele>
        <time>2015-04-13T18:24:55.869Z</time>
      </trkpt>
      <trkpt lat="48.86528" lon="2.35208">
        <ele>98.3</ele>
        <time>2015-04-13T18:24:56.857Z</time>
      </trkpt>
      <trkpt lat="48.86535" lon="2.3521">
        <ele>98.3</ele>
        <time>2015-04-13T18:24:57.851Z</time>
      </trkpt>
      <trkpt lat="48.86542" lon="2.35213">
        <ele>98</ele>
        <time>2015-04-13T18:24:58.835Z</time>
      </trkpt>
      <trkpt lat="48.86544" lon="2.35214">
        <ele>97.9</ele>
        <time>2015-04-13T18:24:59.820Z</time>
      </trkpt>
      <trkpt lat="48.86552" lon="2.35218">
        <ele>98.1</ele>
        <time>2015-04-13T18:25:03.835Z</time>
      </trkpt>
      <trkpt lat="48.86554" lon="2.3522">
        <ele>98.1</ele>
        <time>2015-04-13T18:25:04.831Z</time>
      </trkpt>
      <trkpt lat="48.86558" lon="2.35231">
        <ele>96.5</ele>
        <time>2015-04-13T18:25:08.938Z</time>
      </trkpt>
      <trkpt lat="48.8656" lon="2.35234">
        <ele>96.7</ele>
        <time>2015-04-13T18:25:09.841Z</time>
      </trkpt>
      <trkpt lat="48.86568" lon="2.35239">
        <ele>96.6</ele>
        <time>2015-04-13T18:25:11.829Z</time>
      </trkpt>
      <trkpt lat="48.86572" lon="2.35241">
        <ele>96.5</ele>
        <time>2015-04-13T18:25:12.843Z</time>
      </trkpt>
      <trkpt lat="48.86578" lon="2.35244">
        <ele>96.6</ele>
        <time>2015-04-13T18:25:13.843Z</time>
      </trkpt>
      <trkpt lat="48.86585" lon="2.35247">
        <ele>96.7</ele>
        <time>2015-04-13T18:25:14.858Z</time>
      </trkpt>
      <trkpt lat="48.8659" lon="2.3525">
        <ele>97</ele>
        <time>2015-04-13T18:25:15.827Z</time>
      </trkpt>
      <trkpt lat="48.86596" lon="2.35254">
        <ele>97.1</ele>
        <time>2015-04-13T18:25:16.800Z</time>
      </trkpt>
      <trkpt lat="48.86601" lon="2.35257">
        <ele>97</ele>
        <time>2015-04-13T18:25:17.813Z</time>
      </trkpt>
      <trkpt lat="48.86606" lon="2.3526">
        <ele>97</ele>
        <time>2015-04-13T18:25:18.836Z</time>
      </trkpt>
      <trkpt lat="48.8661" lon="2.35263">
        <ele>96.8</ele>
        <time>2015-04-13T18:25:19.842Z</time>
      </trkpt>
      <trkpt lat="48.86619" lon="2.35267">
        <ele>96.6</ele>
        <time>2015-04-13T18:25:20.871Z</time>
      </trkpt>
      <trkpt lat="48.86634" lon="2.35273">
        <ele>96.3</ele>
        <time>2015-04-13T18:25:21.839Z</time>
      </trkpt>
      <trkpt lat="48.86649" lon="2.35278">
        <ele>96.3</ele>
        <time>2015-04-13T18:25:22.788Z</time>
      </trkpt>
      <trkpt lat="48.86664" lon="2.35285">
        <ele>96.1</ele>
        <time>2015-04-13T18:25:23.811Z</time>
      </trkpt>
      <trkpt lat="48.86677" lon="2.3529">
        <ele>96.1</ele>
        <time>2015-04-13T18:25:24.826Z</time>
      </trkpt>
      <trkpt lat="48.86688" lon="2.35295">
        <ele>96.2</ele>
        <time>2015-04-13T18:25:25.830Z</time>
      </trkpt>
      <trkpt lat="48.86698" lon="2.35299">
        <ele>96.5</ele>
        <time>2015-04-13T18:25:26.843Z</time>
      </trkpt>
      <trkpt lat="48.86705" lon="2.35302">
        <ele>96.7</ele>
        <time>2015-04-13T18:25:27.857Z</time>
      </trkpt>
      <trkpt lat="48.86712" lon="2.35305">
        <ele>97</ele>
        <time>2015-04-13T18:25:28.799Z</time>
      </trkpt>
      <trkpt lat="48.86718" lon="2.35307">
        <ele>97.4</ele>
        <time>2015-04-13T18:25:29.780Z</time>
      </trkpt>
      <trkpt lat="48.86725" lon="2.3531">
        <ele>97.8</ele>
        <time>2015-04-13T18:25:30.837Z</time>
      </trkpt>
      <trkpt lat="48.86733" lon="2.35314">
        <ele>98.2</ele>
        <time>2015-04-13T18:25:32.842Z</time>
      </trkpt>
      <trkpt lat="48.86737" lon="2.35316">
        <ele>98.3</ele>
        <time>2015-04-13T18:25:33.773Z</time>
      </trkpt>
      <trkpt lat="48.86742" lon="2.35318">
        <ele>98.4</ele>
        <time>2015-04-13T18:25:34.769Z</time>
      </trkpt>
      <trkpt lat="48.86746" lon="2.3532">
        <ele>98.5</ele>
        <time>2015-04-13T18:25:35.861Z</time>
      </trkpt>
      <trkpt lat="48.86754" lon="2.35325">
        <ele>98.5</ele>
        <time>2015-04-13T18:25:38.861Z</time>
      </trkpt>
      <trkpt lat="48.86757" lon="2.35327">
        <ele>98.5</ele>
        <time>2015-04-13T18:25:39.807Z</time>
      </trkpt>
      <trkpt lat="48.86764" lon="2.35329">
        <ele>98.8</ele>
        <time>2015-04-13T18:25:41.800Z</time>
      </trkpt>
      <trkpt lat="48.86767" lon="2.35331">
        <ele>98.9</ele>
        <time>2015-04-13T18:25:42.870Z</time>
      </trkpt>
      <trkpt lat="48.86772" lon="2.35336">
        <ele>99</ele>
        <time>2015-04-13T18:25:44.755Z</time>
      </trkpt>
      <trkpt lat="48.86774" lon="2.35339">
        <ele>99</ele>
        <time>2015-04-13T18:25:45.793Z</time>
      </trkpt>
      <trkpt lat="48.86781" lon="2.35345">
        <ele>99</ele>
        <time>2015-04-13T18:25:47.765Z</time>
      </trkpt>
      <trkpt lat="48.86785" lon="2.35348">
        <ele>99.1</ele>
        <time>2015-04-13T18:25:48.901Z</time>
      </trkpt>
      <trkpt lat="48.86792" lon="2.35353">
        <ele>99.1</ele>
        <time>2015-04-13T18:25:50.778Z</time>
      </trkpt>
      <trkpt lat="48.86795" lon="2.35356">
        <ele>99.1</ele>
        <time>2015-04-13T18:25:51.799Z</time>
      </trkpt>
      <trkpt lat="48.86802" lon="2.35361">
        <ele>99.2</ele>
        <time>2015-04-13T18:25:53.770Z</time>
      </trkpt>
      <trkpt lat="48.86805" lon="2.35363">
        <ele>99.2</ele>
        <time>2015-04-13T18:25:54.800Z</time>
      </trkpt>
      <trkpt lat="48.86813" lon="2.35369">
        <ele>99.4</ele>
        <time>2015-04-13T18:25:57.912Z</time>
      </trkpt>
      <trkpt lat="48.86817" lon="2.35371">
        <ele>99.3</ele>
        <time>2015-04-13T18:25:58.792Z</time>
      </trkpt>
      <trkpt lat="48.86824" lon="2.35376">
        <ele>99.5</ele>
        <time>2015-04-13T18:26:01.856Z</time>
      </trkpt>
      <trkpt lat="48.86827" lon="2.35378">
        <ele>99.5</ele>
        <time>2015-04-13T18:26:02.742Z</time>
      </trkpt>
      <trkpt lat="48.86832" lon="2.35382">
        <ele>99.8</ele>
        <time>2015-04-13T18:26:04.805Z</time>
      </trkpt>
      <trkpt lat="48.86837" lon="2.35385">
        <ele>99.8</ele>
        <time>2015-04-13T18:26:05.816Z</time>
      </trkpt>
      <trkpt lat="48.86844" lon="2.35387">
        <ele>99.8</ele>
        <time>2015-04-13T18:26:06.871Z</time>
      </trkpt>
      <trkpt lat="48.86849" lon="2.35389">
        <ele>99.8</ele>
        <time>2015-04-13T18:26:07.760Z</time>
      </trkpt>
      <trkpt lat="48.86855" lon="2.35391">
        <ele>100</ele>
        <time>2015-04-13T18:26:08.776Z</time>
      </trkpt>
      <trkpt lat="48.86858" lon="2.35392">
        <ele>100.1</ele>
        <time>2015-04-13T18:26:09.786Z</time>
      </trkpt>
      <trkpt lat="48.86866" lon="2.35399">
        <ele>101.2</ele>
        <time>2015-04-13T18:26:12.806Z</time>
      </trkpt>
      <trkpt lat="48.86866" lon="2.35402">
        <ele>101.6</ele>
        <time>2015-04-13T18:26:13.826Z</time>
      </trkpt>
      <trkpt lat="48.8687" lon="2.35414">
        <ele>99.6</ele>
        <time>2015-04-13T18:26:20.796Z</time>
      </trkpt>
      <trkpt lat="48.8687" lon="2.35414">
        <ele>99.5</ele>
        <time>2015-04-13T18:26:21.848Z</time>
      </trkpt>
      <trkpt lat="48.8687" lon="2.35415">
        <ele>99.6</ele>
        <time>2015-04-13T18:26:22.860Z</time>
      </trkpt>
      <trkpt lat="48.86876" lon="2.35422">
        <ele>99.5</ele>
        <time>2015-04-13T18:26:26.742Z</time>
      </trkpt>
      <trkpt lat="48.86879" lon="2.35425">
        <ele>99.6</ele>
        <time>2015-04-13T18:26:27.796Z</time>
      </trkpt>
      <trkpt lat="48.86883" lon="2.35427">
        <ele>99.7</ele>
        <time>2015-04-13T18:26:28.775Z</time>
      </trkpt>
      <trkpt lat="48.86889" lon="2.3543">
        <ele>99.6</ele>
        <time>2015-04-13T18:26:29.776Z</time>
      </trkpt>
      <trkpt lat="48.86898" lon="2.35433">
        <ele>99.8</ele>
        <time>2015-04-13T18:26:31.827Z</time>
      </trkpt>
      <trkpt lat="48.86901" lon="2.35435">
        <ele>99.8</ele>
        <time>2015-04-13T18:26:32.750Z</time>
      </trkpt>
      <trkpt lat="48.86909" lon="2.3544">
        <ele>100</ele>
        <time>2015-04-13T18:26:34.793Z</time>
      </trkpt>
      <trkpt lat="48.86914" lon="2.35443">
        <ele>100.1</ele>
        <time>2015-04-13T18:26:35.796Z</time>
      </trkpt>
      <trkpt lat="48.8692" lon="2.35446">
        <ele>100.2</ele>
        <time>2015-04-13T18:26:36.810Z</time>
      </trkpt>
      <trkpt lat="48.86925" lon="2.35449">
        <ele>100.1</ele>
        <time>2015-04-13T18:26:37.829Z</time>
      </trkpt>
      <trkpt lat="48.8693" lon="2.35452">
        <ele>100.1</ele>
        <time>2015-04-13T18:26:38.736Z</time>
      </trkpt>
      <trkpt lat="48.86935" lon="2.35454">
        <ele>100.2</ele>
        <time>2015-04-13T18:26:39.814Z</time>
      </trkpt>
      <trkpt lat="48.8694" lon="2.35456">
        <ele>100.3</ele>
        <time>2015-04-13T18:26:40.788Z</time>
      </trkpt>
      <trkpt lat="48.86944" lon="2.35459">
        <ele>100.3</ele>
        <time>2015-04-13T18:26:41.806Z</time>
      </trkpt>
      <trkpt lat="48.86953" lon="2.35461">
        <ele>100.3</ele>
        <time>2015-04-13T18:26:43.831Z</time>
      </trkpt>
      <trkpt lat="48.86956" lon="2.35462">
        <ele>100.5</ele>
        <time>2015-04-13T18:26:44.830Z</time>
      </trkpt>
      <trkpt lat="48.86961" lon="2.35464">
        <ele>100.7</ele>
        <time>2015-04-13T18:26:45.849Z</time>
      </trkpt>
      <trkpt lat="48.86967" lon="2.35467">
        <ele>100.8</ele>
        <time>2015-04-13T18:26:46.851Z</time>
      </trkpt>
      <trkpt lat="48.86973" lon="2.35468">
        <ele>100.8</ele>
        <time>2015-04-13T18:26:47.764Z</time>
      </trkpt>
      <trkpt lat="48.86979" lon="2.35471">
        <ele>100.8</ele>
        <time>2015-04-13T18:26:48.775Z</time>
      </trkpt>
      <trkpt lat="48.86985" lon="2.35474">
        <ele>100.9</ele>
        <time>2015-04-13T18:26:49.808Z</time>
      </trkpt>
      <trkpt lat="48.86991" lon="2.35476">
        <ele>101</ele>
        <time>2015-04-13T18:26:50.824Z</time>
      </trkpt>
      <trkpt lat="48.86996" lon="2.35479">
        <ele>101.2</ele>
        <time>2015-04-13T18:26:51.843Z</time>
      </trkpt>
      <trkpt lat="48.87004" lon="2.35482">
        <ele>101.5</ele>
        <time>2015-04-13T18:26:52.850Z</time>
      </trkpt>
      <trkpt lat="48.87009" lon="2.35486">
        <ele>101.6</ele>
        <time>2015-04-13T18:26:53.777Z</time>
      </trkpt>
      <trkpt lat="48.87015" lon="2.3549">
        <ele>101.8</ele>
        <time>2015-04-13T18:26:54.814Z</time>
      </trkpt>
      <trkpt lat="48.87021" lon="2.35493">
        <ele>102.1</ele>
        <time>2015-04-13T18:26:55.807Z</time>
      </trkpt>
      <trkpt lat="48.87027" lon="2.35495">
        <ele>102.2</ele>
        <time>2015-04-13T18:26:56.817Z</time>
      </trkpt>
      <trkpt lat="48.87033" lon="2.35498">
        <ele>102.4</ele>
        <time>2015-04-13T18:26:57.840Z</time>
      </trkpt>
      <trkpt lat="48.87039" lon="2.35502">
        <ele>102.6</ele>
        <time>2015-04-13T18:26:58.856Z</time>
      </trkpt>
      <trkpt lat="48.87045" lon="2.35505">
        <ele>102.6</ele>
        <time>2015-04-13T18:26:59.753Z</time>
      </trkpt>
      <trkpt lat="48.87052" lon="2.35507">
        <ele>102.5</ele>
        <time>2015-04-13T18:27:00.857Z</time>
      </trkpt>
      <trkpt lat="48.87057" lon="2.3551">
        <ele>102.6</ele>
        <time>2015-04-13T18:27:01.770Z</time>
      </trkpt>
      <trkpt lat="48.87062" lon="2.35513">
        <ele>102.5</ele>
        <time>2015-04-13T18:27:02.758Z</time>
      </trkpt>
      <trkpt lat="48.87069" lon="2.35515">
        <ele>102.3</ele>
        <time>2015-04-13T18:27:03.800Z</time>
      </trkpt>
      <trkpt lat="48.87074" lon="2.35518">
        <ele>102.2</ele>
        <time>2015-04-13T18:27:04.825Z</time>
      </trkpt>
      <trkpt lat="48.87079" lon="2.35521">
        <ele>102.3</ele>
        <time>2015-04-13T18:27:05.846Z</time>
      </trkpt>
      <trkpt lat="48.87087" lon="2.35522">
        <ele>102.2</ele>
        <time>2015-04-13T18:27:07.005Z</time>
      </trkpt>
      <trkpt lat="48.87094" lon="2.35525">
        <ele>102.1</ele>
        <time>2015-04-13T18:27:07.826Z</time>
      </trkpt>
      <trkpt lat="48.871" lon="2.35528">
        <ele>102.1</ele>
        <time>2015-04-13T18:27:08.835Z</time>
      </trkpt>
      <trkpt lat="48.87106" lon="2.35531">
        <ele>102.1</ele>
        <time>2015-04-13T18:27:09.734Z</time>
      </trkpt>
      <trkpt lat="48.87112" lon="2.35534">
        <ele>102.1</ele>
        <time>2015-04-13T18:27:10.756Z</time>
      </trkpt>
      <trkpt lat="48.87119" lon="2.35536">
        <ele>102.1</ele>
        <time>2015-04-13T18:27:11.756Z</time>
      </trkpt>
      <trkpt lat="48.87124" lon="2.35539">
        <ele>102.1</ele>
        <time>2015-04-13T18:27:12.801Z</time>
      </trkpt>
      <trkpt lat="48.87128" lon="2.35542">
        <ele>102.1</ele>
        <time>2015-04-13T18:27:13.817Z</time>
      </trkpt>
      <trkpt lat="48.87133" lon="2.35545">
        <ele>102</ele>
        <time>2015-04-13T18:27:14.819Z</time>
      </trkpt>
      <trkpt lat="48.87138" lon="2.35548">
        <ele>101.9</ele>
        <time>2015-04-13T18:27:15.820Z</time>
      </trkpt>
      <trkpt lat="48.87144" lon="2.3555">
        <ele>101.8</ele>
        <time>2015-04-13T18:27:16.823Z</time>
      </trkpt>
      <trkpt lat="48.8715" lon="2.35552">
        <ele>101.7</ele>
        <time>2015-04-13T18:27:17.850Z</time>
      </trkpt>
      <trkpt lat="48.87155" lon="2.35555">
        <ele>101.5</ele>
        <time>2015-04-13T18:27:18.837Z</time>
      </trkpt>
      <trkpt lat="48.8716" lon="2.35558">
        <ele>101.4</ele>
        <time>2015-04-13T18:27:19.754Z</time>
      </trkpt>
      <trkpt lat="48.8717" lon="2.35563">
        <ele>101.2</ele>
        <time>2015-04-13T18:27:20.760Z</time>
      </trkpt>
      <trkpt lat="48.87179" lon="2.35568">
        <ele>101</ele>
        <time>2015-04-13T18:27:21.771Z</time>
      </trkpt>
      <trkpt lat="48.87189" lon="2.35573">
        <ele>101</ele>
        <time>2015-04-13T18:27:22.778Z</time>
      </trkpt>
      <trkpt lat="48.87197" lon="2.35577">
        <ele>100.8</ele>
        <time>2015-04-13T18:27:23.795Z</time>
      </trkpt>
      <trkpt lat="48.87205" lon="2.35581">
        <ele>100.9</ele>
        <time>2015-04-13T18:27:24.855Z</time>
      </trkpt>
      <trkpt lat="48.87213" lon="2.35584">
        <ele>100.7</ele>
        <time>2015-04-13T18:27:25.745Z</time>
      </trkpt>
      <trkpt lat="48.87222" lon="2.35587">
        <ele>100.5</ele>
        <time>2015-04-13T18:27:26.754Z</time>
      </trkpt>
      <trkpt lat="48.8723" lon="2.35591">
        <ele>100.4</ele>
        <time>2015-04-13T18:27:27.758Z</time>
      </trkpt>
      <trkpt lat="48.87238" lon="2.35595">
        <ele>100.5</ele>
        <time>2015-04-13T18:27:28.768Z</time>
      </trkpt>
      <trkpt lat="48.87246" lon="2.35597">
        <ele>100.3</ele>
        <time>2015-04-13T18:27:29.778Z</time>
      </trkpt>
      <trkpt lat="48.87253" lon="2.356">
        <ele>100.3</ele>
        <time>2015-04-13T18:27:30.786Z</time>
      </trkpt>
      <trkpt lat="48.87258" lon="2.35604">
        <ele>100.4</ele>
        <time>2015-04-13T18:27:31.598Z</time>
      </trkpt>
      <trkpt lat="48.87263" lon="2.35607">
        <ele>100.6</ele>
        <time>2015-04-13T18:27:32.852Z</time>
      </trkpt>
      <trkpt lat="48.87268" lon="2.3561">
        <ele>100.7</ele>
        <time>2015-04-13T18:27:33.744Z</time>
      </trkpt>
      <trkpt lat="48.87272" lon="2.35612">
        <ele>101</ele>
        <time>2015-04-13T18:27:34.746Z</time>
      </trkpt>
      <trkpt lat="48.87278" lon="2.35619">
        <ele>101.6</ele>
        <time>2015-04-13T18:27:36.767Z</time>
      </trkpt>
      <trkpt lat="48.8728" lon="2.35621">
        <ele>101.9</ele>
        <time>2015-04-13T18:27:37.778Z</time>
      </trkpt>
      <trkpt lat="48.87288" lon="2.35627">
        <ele>102.1</ele>
        <time>2015-04-13T18:27:40.756Z</time>
      </trkpt>
      <trkpt lat="48.87292" lon="2.3563">
        <ele>102.3</ele>
        <time>2015-04-13T18:27:41.767Z</time>
      </trkpt>
      <trkpt lat="48.873" lon="2.35635">
        <ele>102.5</ele>
        <time>2015-04-13T18:27:43.815Z</time>
      </trkpt>
      <trkpt lat="48.87303" lon="2.35637">
        <ele>102.6</ele>
        <time>2015-04-13T18:27:44.826Z</time>
      </trkpt>
      <trkpt lat="48.87307" lon="2.3564">
        <ele>102.8</ele>
        <time>2015-04-13T18:27:45.839Z</time>
      </trkpt>
      <trkpt lat="48.87312" lon="2.35643">
        <ele>103</ele>
        <time>2015-04-13T18:27:46.854Z</time>
      </trkpt>
      <trkpt lat="48.87317" lon="2.35647">
        <ele>103.4</ele>
        <time>2015-04-13T18:27:47.771Z</time>
      </trkpt>
      <trkpt lat="48.87321" lon="2.35652">
        <ele>103.7</ele>
        <time>2015-04-13T18:27:48.773Z</time>
      </trkpt>
      <trkpt lat="48.87326" lon="2.35655">
        <ele>104</ele>
        <time>2015-04-13T18:27:49.782Z</time>
      </trkpt>
      <trkpt lat="48.87336" lon="2.3566">
        <ele>103.7</ele>
        <time>2015-04-13T18:27:50.778Z</time>
      </trkpt>
      <trkpt lat="48.87345" lon="2.35664">
        <ele>103.7</ele>
        <time>2015-04-13T18:27:51.787Z</time>
      </trkpt>
      <trkpt lat="48.87349" lon="2.35666">
        <ele>103.8</ele>
        <time>2015-04-13T18:27:52.811Z</time>
      </trkpt>
      <trkpt lat="48.87354" lon="2.35668">
        <ele>104</ele>
        <time>2015-04-13T18:27:53.821Z</time>
      </trkpt>
      <trkpt lat="48.87358" lon="2.35671">
        <ele>104.2</ele>
        <time>2015-04-13T18:27:54.830Z</time>
      </trkpt>
      <trkpt lat="48.87363" lon="2.35673">
        <ele>104.4</ele>
        <time>2015-04-13T18:27:55.763Z</time>
      </trkpt>
      <trkpt lat="48.87367" lon="2.35675">
        <ele>104.4</ele>
        <time>2015-04-13T18:27:56.207Z</time>
      </trkpt>
      <trkpt lat="48.87375" lon="2.35678">
        <ele>104.4</ele>
        <time>2015-04-13T18:27:57.811Z</time>
      </trkpt>
      <trkpt lat="48.87375" lon="2.35678">
        <ele>104.4</ele>
        <time>2015-04-13T18:27:58.544Z</time>
      </trkpt>
      <trkpt lat="48.87384" lon="2.35681">
        <ele>104.6</ele>
        <time>2015-04-13T18:27:58.748Z</time>
      </trkpt>
      <trkpt lat="48.87393" lon="2.35685">
        <ele>104.6</ele>
        <time>2015-04-13T18:27:59.759Z</time>
      </trkpt>
      <trkpt lat="48.87401" lon="2.35688">
        <ele>104.6</ele>
        <time>2015-04-13T18:28:00.802Z</time>
      </trkpt>
      <trkpt lat="48.87409" lon="2.35691">
        <ele>104.4</ele>
        <time>2015-04-13T18:28:01.815Z</time>
      </trkpt>
      <trkpt lat="48.87417" lon="2.35695">
        <ele>104.4</ele>
        <time>2015-04-13T18:28:03.652Z</time>
      </trkpt>
      <trkpt lat="48.87423" lon="2.357">
        <ele>104.3</ele>
        <time>2015-04-13T18:28:03.778Z</time>
      </trkpt>
      <trkpt lat="48.87431" lon="2.35705">
        <ele>104</ele>
        <time>2015-04-13T18:28:04.844Z</time>
      </trkpt>
      <trkpt lat="48.87434" lon="2.35708">
        <ele>103.8</ele>
        <time>2015-04-13T18:28:05.846Z</time>
      </trkpt>
      <trkpt lat="48.87441" lon="2.35709">
        <ele>103.6</ele>
        <time>2015-04-13T18:28:06.856Z</time>
      </trkpt>
      <trkpt lat="48.87446" lon="2.3571">
        <ele>103.8</ele>
        <time>2015-04-13T18:28:07.792Z</time>
      </trkpt>
      <trkpt lat="48.87451" lon="2.35711">
        <ele>103.9</ele>
        <time>2015-04-13T18:28:08.815Z</time>
      </trkpt>
      <trkpt lat="48.87456" lon="2.35712">
        <ele>103.9</ele>
        <time>2015-04-13T18:28:09.821Z</time>
      </trkpt>
      <trkpt lat="48.87463" lon="2.35714">
        <ele>104</ele>
        <time>2015-04-13T18:28:11.858Z</time>
      </trkpt>
      <trkpt lat="48.87468" lon="2.35716">
        <ele>104</ele>
        <time>2015-04-13T18:28:12.901Z</time>
      </trkpt>
      <trkpt lat="48.87476" lon="2.35719">
        <ele>103.8</ele>
        <time>2015-04-13T18:28:16.782Z</time>
      </trkpt>
      <trkpt lat="48.87477" lon="2.35719">
        <ele>104.1</ele>
        <time>2015-04-13T18:28:17.836Z</time>
      </trkpt>
      <trkpt lat="48.87478" lon="2.35732">
        <ele>106.9</ele>
        <time>2015-04-13T18:28:26.825Z</time>
      </trkpt>
      <trkpt lat="48.8748" lon="2.35734">
        <ele>107.2</ele>
        <time>2015-04-13T18:28:27.815Z</time>
      </trkpt>
      <trkpt lat="48.87485" lon="2.35738">
        <ele>107.7</ele>
        <time>2015-04-13T18:28:29.855Z</time>
      </trkpt>
      <trkpt lat="48.87489" lon="2.35739">
        <ele>108.1</ele>
        <time>2015-04-13T18:28:30.865Z</time>
      </trkpt>
      <trkpt lat="48.87497" lon="2.35744">
        <ele>109.5</ele>
        <time>2015-04-13T18:28:32.798Z</time>
      </trkpt>
      <trkpt lat="48.87502" lon="2.35747">
        <ele>109.8</ele>
        <time>2015-04-13T18:28:33.776Z</time>
      </trkpt>
      <trkpt lat="48.87506" lon="2.3575">
        <ele>110.1</ele>
        <time>2015-04-13T18:28:34.795Z</time>
      </trkpt>
      <trkpt lat="48.8751" lon="2.35754">
        <ele>110.6</ele>
        <time>2015-04-13T18:28:35.899Z</time>
      </trkpt>
      <trkpt lat="48.87514" lon="2.35757">
        <ele>110.9</ele>
        <time>2015-04-13T18:28:36.899Z</time>
      </trkpt>
      <trkpt lat="48.87519" lon="2.35759">
        <ele>111.4</ele>
        <time>2015-04-13T18:28:37.835Z</time>
      </trkpt>
      <trkpt lat="48.87524" lon="2.35761">
        <ele>112</ele>
        <time>2015-04-13T18:28:38.840Z</time>
      </trkpt>
      <trkpt lat="48.87529" lon="2.35762">
        <ele>112.8</ele>
        <time>2015-04-13T18:28:39.840Z</time>
      </trkpt>
      <trkpt lat="48.87536" lon="2.35764">
        <ele>113.2</ele>
        <time>2015-04-13T18:28:41.240Z</time>
      </trkpt>
      <trkpt lat="48.87543" lon="2.35765">
        <ele>113.5</ele>
        <time>2015-04-13T18:28:41.862Z</time>
      </trkpt>
      <trkpt lat="48.87552" lon="2.35767">
        <ele>113.9</ele>
        <time>2015-04-13T18:28:42.854Z</time>
      </trkpt>
      <trkpt lat="48.8756" lon="2.35769">
        <ele>114.5</ele>
        <time>2015-04-13T18:28:43.894Z</time>
      </trkpt>
      <trkpt lat="48.87569" lon="2.35772">
        <ele>115</ele>
        <time>2015-04-13T18:28:44.866Z</time>
      </trkpt>
      <trkpt lat="48.87579" lon="2.35774">
        <ele>115.6</ele>
        <time>2015-04-13T18:28:45.827Z</time>
      </trkpt>
      <trkpt lat="48.87579" lon="2.35774">
        <ele>115.6</ele>
        <time>2015-04-13T18:28:46.283Z</time>
      </trkpt>
      <trkpt lat="48.87592" lon="2.35775">
        <ele>118.4</ele>
        <time>2015-04-13T18:28:46.839Z</time>
      </trkpt>
      <trkpt lat="48.87603" lon="2.35777">
        <ele>119.2</ele>
        <time>2015-04-13T18:28:47.826Z</time>
      </trkpt>
      <trkpt lat="48.87612" lon="2.35779">
        <ele>119.7</ele>
        <time>2015-04-13T18:28:48.843Z</time>
      </trkpt>
      <trkpt lat="48.87623" lon="2.35782">
        <ele>120</ele>
        <time>2015-04-13T18:28:49.853Z</time>
      </trkpt>
      <trkpt lat="48.87632" lon="2.35785">
        <ele>119.9</ele>
        <time>2015-04-13T18:28:50.824Z</time>
      </trkpt>
      <trkpt lat="48.87641" lon="2.35788">
        <ele>119.7</ele>
        <time>2015-04-13T18:28:51.821Z</time>
      </trkpt>
      <trkpt lat="48.87648" lon="2.3579">
        <ele>119.6</ele>
        <time>2015-04-13T18:28:52.866Z</time>
      </trkpt>
      <trkpt lat="48.87654" lon="2.35799">
        <ele>118.5</ele>
        <time>2015-04-13T18:28:55.885Z</time>
      </trkpt>
      <trkpt lat="48.87651" lon="2.35803">
        <ele>117</ele>
        <time>2015-04-13T18:28:56.868Z</time>
      </trkpt>
      <trkpt lat="48.87647" lon="2.35807">
        <ele>115.2</ele>
        <time>2015-04-13T18:28:57.834Z</time>
      </trkpt>
      <trkpt lat="48.87642" lon="2.3581">
        <ele>111.8</ele>
        <time>2015-04-13T18:28:58.847Z</time>
      </trkpt>
      <trkpt lat="48.87637" lon="2.35814">
        <ele>108.6</ele>
        <time>2015-04-13T18:29:00.864Z</time>
      </trkpt>
      <trkpt lat="48.87633" lon="2.35816">
        <ele>105.8</ele>
        <time>2015-04-13T18:29:01.894Z</time>
      </trkpt>
      <trkpt lat="48.87626" lon="2.35824">
        <ele>104.4</ele>
        <time>2015-04-13T18:29:07.816Z</time>
      </trkpt>
      <trkpt lat="48.87624" lon="2.35826">
        <ele>105.3</ele>
        <time>2015-04-13T18:29:08.823Z</time>
      </trkpt>
      <trkpt lat="48.87617" lon="2.35832">
        <ele>103.7</ele>
        <time>2015-04-13T18:29:16.800Z</time>
      </trkpt>
      <trkpt lat="48.87616" lon="2.35833">
        <ele>103.6</ele>
        <time>2015-04-13T18:29:17.772Z</time>
      </trkpt>
      <trkpt lat="48.87611" lon="2.35839">
        <ele>104.1</ele>
        <time>2015-04-13T18:29:23.863Z</time>
      </trkpt>
      <trkpt lat="48.87609" lon="2.3584">
        <ele>104.4</ele>
        <time>2015-04-13T18:29:24.864Z</time>
      </trkpt>
      <trkpt lat="48.87608" lon="2.35841">
        <ele>104.6</ele>
        <time>2015-04-13T18:29:37.901Z</time>
      </trkpt>
      <trkpt lat="48.87611" lon="2.35845">
        <ele>103.7</ele>
        <time>2015-04-13T18:29:38.749Z</time>
      </trkpt>
      <trkpt lat="48.87612" lon="2.35847">
        <ele>103.6</ele>
        <time>2015-04-13T18:29:40.766Z</time>
      </trkpt>
      <trkpt lat="48.87612" lon="2.35847">
        <ele>103.7</ele>
        <time>2015-04-13T18:29:41.794Z</time>
      </trkpt>
      <trkpt lat="48.87612" lon="2.35848">
        <ele>103.9</ele>
        <time>2015-04-13T18:29:56.804Z</time>
      </trkpt>
      <trkpt lat="48.87605" lon="2.35851">
        <ele>105.4</ele>
        <time>2015-04-13T18:29:57.917Z</time>
      </trkpt>
      <trkpt lat="48.87603" lon="2.3586">
        <ele>104</ele>
        <time>2015-04-13T18:30:00.823Z</time>
      </trkpt>
      <trkpt lat="48.87603" lon="2.35865">
        <ele>103.6</ele>
        <time>2015-04-13T18:30:01.846Z</time>
      </trkpt>
      <trkpt lat="48.87604" lon="2.35875">
        <ele>102.3</ele>
        <time>2015-04-13T18:30:03.769Z</time>
      </trkpt>
      <trkpt lat="48.87602" lon="2.35881">
        <ele>102</ele>
        <time>2015-04-13T18:30:04.784Z</time>
      </trkpt>
      <trkpt lat="48.87601" lon="2.35893">
        <ele>101.1</ele>
        <time>2015-04-13T18:30:06.814Z</time>
      </trkpt>
      <trkpt lat="48.87601" lon="2.359">
        <ele>100.8</ele>
        <time>2015-04-13T18:30:07.826Z</time>
      </trkpt>
      <trkpt lat="48.87599" lon="2.35908">
        <ele>100.5</ele>
        <time>2015-04-13T18:30:08.859Z</time>
      </trkpt>
      <trkpt lat="48.87598" lon="2.35915">
        <ele>100.1</ele>
        <time>2015-04-13T18:30:09.753Z</time>
      </trkpt>
      <trkpt lat="48.87597" lon="2.35922">
        <ele>99.8</ele>
        <time>2015-04-13T18:30:10.759Z</time>
      </trkpt>
      <trkpt lat="48.87595" lon="2.35929">
        <ele>99.4</ele>
        <time>2015-04-13T18:30:11.782Z</time>
      </trkpt>
      <trkpt lat="48.87593" lon="2.35936">
        <ele>99.1</ele>
        <time>2015-04-13T18:30:12.804Z</time>
      </trkpt>
      <trkpt lat="48.87592" lon="2.35943">
        <ele>98.5</ele>
        <time>2015-04-13T18:30:13.814Z</time>
      </trkpt>
      <trkpt lat="48.87592" lon="2.35957">
        <ele>97.3</ele>
        <time>2015-04-13T18:30:15.841Z</time>
      </trkpt>
      <trkpt lat="48.87592" lon="2.35964">
        <ele>97.1</ele>
        <time>2015-04-13T18:30:16.859Z</time>
      </trkpt>
      <trkpt lat="48.87592" lon="2.35974">
        <ele>96.3</ele>
        <time>2015-04-13T18:30:18.828Z</time>
      </trkpt>
      <trkpt lat="48.87591" lon="2.35979">
        <ele>95.9</ele>
        <time>2015-04-13T18:30:19.842Z</time>
      </trkpt>
      <trkpt lat="48.87589" lon="2.3599">
        <ele>95</ele>
        <time>2015-04-13T18:30:21.794Z</time>
      </trkpt>
      <trkpt lat="48.87588" lon="2.35995">
        <ele>94.5</ele>
        <time>2015-04-13T18:30:22.820Z</time>
      </trkpt>
      <trkpt lat="48.87586" lon="2.36008">
        <ele>94.1</ele>
        <time>2015-04-13T18:30:25.796Z</time>
      </trkpt>
      <trkpt lat="48.87585" lon="2.3601">
        <ele>94.4</ele>
        <time>2015-04-13T18:30:26.768Z</time>
      </trkpt>
      <trkpt lat="48.87584" lon="2.36011">
        <ele>94.4</ele>
        <time>2015-04-13T18:30:27.768Z</time>
      </trkpt>
      <trkpt lat="48.87584" lon="2.36012">
        <ele>94.7</ele>
        <time>2015-04-13T18:30:28.802Z</time>
      </trkpt>
      <trkpt lat="48.87585" lon="2.36013">
        <ele>95</ele>
        <time>2015-04-13T18:30:29.828Z</time>
      </trkpt>
      <trkpt lat="48.87587" lon="2.36024">
        <ele>95.2</ele>
        <time>2015-04-13T18:30:34.813Z</time>
      </trkpt>
      <trkpt lat="48.87588" lon="2.36029">
        <ele>95.1</ele>
        <time>2015-04-13T18:30:35.834Z</time>
      </trkpt>
      <trkpt lat="48.87591" lon="2.36038">
        <ele>95.1</ele>
        <time>2015-04-13T18:30:37.949Z</time>
      </trkpt>
      <trkpt lat="48.87591" lon="2.36042">
        <ele>95.1</ele>
        <time>2015-04-13T18:30:38.765Z</time>
      </trkpt>
      <trkpt lat="48.87595" lon="2.36051">
        <ele>95.3</ele>
        <time>2015-04-13T18:30:40.823Z</time>
      </trkpt>
      <trkpt lat="48.87597" lon="2.36054">
        <ele>95.4</ele>
        <time>2015-04-13T18:30:41.843Z</time>
      </trkpt>
      <trkpt lat="48.87604" lon="2.36058">
        <ele>95.7</ele>
        <time>2015-04-13T18:30:43.824Z</time>
      </trkpt>
      <trkpt lat="48.87609" lon="2.3606">
        <ele>96</ele>
        <time>2015-04-13T18:30:44.837Z</time>
      </trkpt>
      <trkpt lat="48.87614" lon="2.36063">
        <ele>96.3</ele>
        <time>2015-04-13T18:30:45.743Z</time>
      </trkpt>
      <trkpt lat="48.87618" lon="2.36065">
        <ele>96.5</ele>
        <time>2015-04-13T18:30:46.789Z</time>
      </trkpt>
      <trkpt lat="48.87623" lon="2.36068">
        <ele>96.6</ele>
        <time>2015-04-13T18:30:47.829Z</time>
      </trkpt>
      <trkpt lat="48.87628" lon="2.36071">
        <ele>96.7</ele>
        <time>2015-04-13T18:30:48.953Z</time>
      </trkpt>
      <trkpt lat="48.87632" lon="2.36075">
        <ele>96.9</ele>
        <time>2015-04-13T18:30:49.784Z</time>
      </trkpt>
      <trkpt lat="48.87637" lon="2.36078">
        <ele>96.9</ele>
        <time>2015-04-13T18:30:50.775Z</time>
      </trkpt>
      <trkpt lat="48.87641" lon="2.36081">
        <ele>97</ele>
        <time>2015-04-13T18:30:51.796Z</time>
      </trkpt>
      <trkpt lat="48.87646" lon="2.36084">
        <ele>97.1</ele>
        <time>2015-04-13T18:30:52.801Z</time>
      </trkpt>
      <trkpt lat="48.8765" lon="2.36087">
        <ele>97.3</ele>
        <time>2015-04-13T18:30:53.830Z</time>
      </trkpt>
      <trkpt lat="48.87655" lon="2.3609">
        <ele>97.4</ele>
        <time>2015-04-13T18:30:54.844Z</time>
      </trkpt>
      <trkpt lat="48.87661" lon="2.36093">
        <ele>97.5</ele>
        <time>2015-04-13T18:30:55.864Z</time>
      </trkpt>
      <trkpt lat="48.87667" lon="2.36095">
        <ele>97.5</ele>
        <time>2015-04-13T18:30:56.752Z</time>
      </trkpt>
      <trkpt lat="48.87672" lon="2.36097">
        <ele>97.6</ele>
        <time>2015-04-13T18:30:57.793Z</time>
      </trkpt>
      <trkpt lat="48.87676" lon="2.361">
        <ele>97.7</ele>
        <time>2015-04-13T18:30:58.813Z</time>
      </trkpt>
      <trkpt lat="48.87684" lon="2.36105">
        <ele>97.9</ele>
        <time>2015-04-13T18:31:00.820Z</time>
      </trkpt>
      <trkpt lat="48.87688" lon="2.36107">
        <ele>97.9</ele>
        <time>2015-04-13T18:31:01.821Z</time>
      </trkpt>
      <trkpt lat="48.87692" lon="2.3611">
        <ele>97.9</ele>
        <time>2015-04-13T18:31:02.790Z</time>
      </trkpt>
      <trkpt lat="48.87697" lon="2.36114">
        <ele>97.8</ele>
        <time>2015-04-13T18:31:03.816Z</time>
      </trkpt>
      <trkpt lat="48.877" lon="2.36117">
        <ele>97.9</ele>
        <time>2015-04-13T18:31:04.733Z</time>
      </trkpt>
      <trkpt lat="48.87705" lon="2.3612">
        <ele>97.8</ele>
        <time>2015-04-13T18:31:05.748Z</time>
      </trkpt>
      <trkpt lat="48.87709" lon="2.36123">
        <ele>97.8</ele>
        <time>2015-04-13T18:31:06.801Z</time>
      </trkpt>
      <trkpt lat="48.87714" lon="2.36126">
        <ele>97.5</ele>
        <time>2015-04-13T18:31:07.835Z</time>
      </trkpt>
      <trkpt lat="48.8772" lon="2.36131">
        <ele>96.9</ele>
        <time>2015-04-13T18:31:08.736Z</time>
      </trkpt>
      <trkpt lat="48.87728" lon="2.36135">
        <ele>96.5</ele>
        <time>2015-04-13T18:31:09.757Z</time>
      </trkpt>
      <trkpt lat="48.87735" lon="2.36138">
        <ele>95.9</ele>
        <time>2015-04-13T18:31:10.763Z</time>
      </trkpt>
      <trkpt lat="48.87742" lon="2.36142">
        <ele>95.5</ele>
        <time>2015-04-13T18:31:11.793Z</time>
      </trkpt>
      <trkpt lat="48.87747" lon="2.36145">
        <ele>95.2</ele>
        <time>2015-04-13T18:31:12.803Z</time>
      </trkpt>
      <trkpt lat="48.87753" lon="2.36149">
        <ele>95.1</ele>
        <time>2015-04-13T18:31:13.827Z</time>
      </trkpt>
      <trkpt lat="48.87758" lon="2.36153">
        <ele>95.1</ele>
        <time>2015-04-13T18:31:14.842Z</time>
      </trkpt>
      <trkpt lat="48.87764" lon="2.36156">
        <ele>95.2</ele>
        <time>2015-04-13T18:31:15.755Z</time>
      </trkpt>
      <trkpt lat="48.87769" lon="2.36159">
        <ele>95.2</ele>
        <time>2015-04-13T18:31:16.772Z</time>
      </trkpt>
      <trkpt lat="48.87775" lon="2.36163">
        <ele>95.3</ele>
        <time>2015-04-13T18:31:17.785Z</time>
      </trkpt>
      <trkpt lat="48.87779" lon="2.36167">
        <ele>95.4</ele>
        <time>2015-04-13T18:31:18.792Z</time>
      </trkpt>
      <trkpt lat="48.87784" lon="2.36171">
        <ele>95.4</ele>
        <time>2015-04-13T18:31:19.797Z</time>
      </trkpt>
      <trkpt lat="48.87789" lon="2.36174">
        <ele>95.4</ele>
        <time>2015-04-13T18:31:20.831Z</time>
      </trkpt>
      <trkpt lat="48.87793" lon="2.36178">
        <ele>95.4</ele>
        <time>2015-04-13T18:31:21.845Z</time>
      </trkpt>
      <trkpt lat="48.878" lon="2.36182">
        <ele>95.7</ele>
        <time>2015-04-13T18:31:23.794Z</time>
      </trkpt>
      <trkpt lat="48.87804" lon="2.36185">
        <ele>95.8</ele>
        <time>2015-04-13T18:31:24.837Z</time>
      </trkpt>
      <trkpt lat="48.87812" lon="2.3619">
        <ele>96.1</ele>
        <time>2015-04-13T18:31:26.765Z</time>
      </trkpt>
      <trkpt lat="48.87815" lon="2.36193">
        <ele>96.3</ele>
        <time>2015-04-13T18:31:27.770Z</time>
      </trkpt>
      <trkpt lat="48.87823" lon="2.36196">
        <ele>96.5</ele>
        <time>2015-04-13T18:31:29.778Z</time>
      </trkpt>
      <trkpt lat="48.87826" lon="2.36198">
        <ele>96.7</ele>
        <time>2015-04-13T18:31:30.783Z</time>
      </trkpt>
      <trkpt lat="48.87833" lon="2.36202">
        <ele>96.8</ele>
        <time>2015-04-13T18:31:32.765Z</time>
      </trkpt>
      <trkpt lat="48.87841" lon="2.36204">
        <ele>96.6</ele>
        <time>2015-04-13T18:31:33.783Z</time>
      </trkpt>
      <trkpt lat="48.87847" lon="2.36206">
        <ele>96.5</ele>
        <time>2015-04-13T18:31:34.799Z</time>
      </trkpt>
      <trkpt lat="48.87852" lon="2.36208">
        <ele>96.4</ele>
        <time>2015-04-13T18:31:35.797Z</time>
      </trkpt>
      <trkpt lat="48.87861" lon="2.36214">
        <ele>96.5</ele>
        <time>2015-04-13T18:31:37.771Z</time>
      </trkpt>
      <trkpt lat="48.87863" lon="2.36216">
        <ele>96.7</ele>
        <time>2015-04-13T18:31:38.766Z</time>
      </trkpt>
      <trkpt lat="48.87869" lon="2.36222">
        <ele>97.6</ele>
        <time>2015-04-13T18:31:41.842Z</time>
      </trkpt>
      <trkpt lat="48.87874" lon="2.36223">
        <ele>98</ele>
        <time>2015-04-13T18:31:42.870Z</time>
      </trkpt>
      <trkpt lat="48.87878" lon="2.36226">
        <ele>98.5</ele>
        <time>2015-04-13T18:31:43.811Z</time>
      </trkpt>
      <trkpt lat="48.87883" lon="2.36227">
        <ele>98.8</ele>
        <time>2015-04-13T18:31:44.826Z</time>
      </trkpt>
      <trkpt lat="48.87888" lon="2.36229">
        <ele>99.2</ele>
        <time>2015-04-13T18:31:45.855Z</time>
      </trkpt>
      <trkpt lat="48.87893" lon="2.36232">
        <ele>99.5</ele>
        <time>2015-04-13T18:31:46.782Z</time>
      </trkpt>
      <trkpt lat="48.87897" lon="2.36236">
        <ele>99.8</ele>
        <time>2015-04-13T18:31:47.781Z</time>
      </trkpt>
      <trkpt lat="48.87901" lon="2.36239">
        <ele>100.1</ele>
        <time>2015-04-13T18:31:48.784Z</time>
      </trkpt>
      <trkpt lat="48.87906" lon="2.36243">
        <ele>100.5</ele>
        <time>2015-04-13T18:31:49.800Z</time>
      </trkpt>
      <trkpt lat="48.8791" lon="2.36247">
        <ele>100.5</ele>
        <time>2015-04-13T18:31:50.800Z</time>
      </trkpt>
      <trkpt lat="48.87917" lon="2.36253">
        <ele>100.3</ele>
        <time>2015-04-13T18:31:50.177Z</time>
      </trkpt>
      <trkpt lat="48.87924" lon="2.36259">
        <ele>100</ele>
        <time>2015-04-13T18:31:52.839Z</time>
      </trkpt>
      <trkpt lat="48.8793" lon="2.36265">
        <ele>100</ele>
        <time>2015-04-13T18:31:53.825Z</time>
      </trkpt>
      <trkpt lat="48.87935" lon="2.36271">
        <ele>100</ele>
        <time>2015-04-13T18:31:54.836Z</time>
      </trkpt>
      <trkpt lat="48.87939" lon="2.36279">
        <ele>100</ele>
        <time>2015-04-13T18:31:55.846Z</time>
      </trkpt>
      <trkpt lat="48.87945" lon="2.36286">
        <ele>99.8</ele>
        <time>2015-04-13T18:31:56.865Z</time>
      </trkpt>
      <trkpt lat="48.87951" lon="2.36294">
        <ele>99.6</ele>
        <time>2015-04-13T18:31:57.813Z</time>
      </trkpt>
      <trkpt lat="48.87956" lon="2.36301">
        <ele>99.5</ele>
        <time>2015-04-13T18:31:58.774Z</time>
      </trkpt>
      <trkpt lat="48.87961" lon="2.36308">
        <ele>99.5</ele>
        <time>2015-04-13T18:31:59.776Z</time>
      </trkpt>
      <trkpt lat="48.87967" lon="2.36314">
        <ele>99</ele>
        <time>2015-04-13T18:32:00.804Z</time>
      </trkpt>
      <trkpt lat="48.87971" lon="2.36321">
        <ele>98.9</ele>
        <time>2015-04-13T18:32:01.803Z</time>
      </trkpt>
      <trkpt lat="48.87977" lon="2.36327">
        <ele>98.7</ele>
        <time>2015-04-13T18:32:02.806Z</time>
      </trkpt>
      <trkpt lat="48.87983" lon="2.36332">
        <ele>98.6</ele>
        <time>2015-04-13T18:32:03.814Z</time>
      </trkpt>
      <trkpt lat="48.87989" lon="2.36338">
        <ele>98.7</ele>
        <time>2015-04-13T18:32:04.824Z</time>
      </trkpt>
      <trkpt lat="48.87995" lon="2.36344">
        <ele>98.6</ele>
        <time>2015-04-13T18:32:05.841Z</time>
      </trkpt>
      <trkpt lat="48.88" lon="2.36351">
        <ele>98.7</ele>
        <time>2015-04-13T18:32:06.855Z</time>
      </trkpt>
      <trkpt lat="48.88004" lon="2.36358">
        <ele>98.6</ele>
        <time>2015-04-13T18:32:07.866Z</time>
      </trkpt>
      <trkpt lat="48.88009" lon="2.36364">
        <ele>98.6</ele>
        <time>2015-04-13T18:32:08.777Z</time>
      </trkpt>
      <trkpt lat="48.88014" lon="2.3637">
        <ele>98.7</ele>
        <time>2015-04-13T18:32:09.769Z</time>
      </trkpt>
      <trkpt lat="48.88019" lon="2.36375">
        <ele>98.8</ele>
        <time>2015-04-13T18:32:10.772Z</time>
      </trkpt>
      <trkpt lat="48.88025" lon="2.36381">
        <ele>98.7</ele>
        <time>2015-04-13T18:32:11.776Z</time>
      </trkpt>
      <trkpt lat="48.8803" lon="2.36387">
        <ele>98.7</ele>
        <time>2015-04-13T18:32:12.798Z</time>
      </trkpt>
      <trkpt lat="48.88035" lon="2.36393">
        <ele>98.7</ele>
        <time>2015-04-13T18:32:13.819Z</time>
      </trkpt>
      <trkpt lat="48.8804" lon="2.36399">
        <ele>98.7</ele>
        <time>2015-04-13T18:32:14.852Z</time>
      </trkpt>
      <trkpt lat="48.88045" lon="2.36405">
        <ele>98.8</ele>
        <time>2015-04-13T18:32:15.771Z</time>
      </trkpt>
      <trkpt lat="48.88049" lon="2.36411">
        <ele>98.8</ele>
        <time>2015-04-13T18:32:16.770Z</time>
      </trkpt>
      <trkpt lat="48.88052" lon="2.36417">
        <ele>98.8</ele>
        <time>2015-04-13T18:32:17.785Z</time>
      </trkpt>
      <trkpt lat="48.88056" lon="2.36423">
        <ele>98.7</ele>
        <time>2015-04-13T18:32:18.797Z</time>
      </trkpt>
      <trkpt lat="48.8806" lon="2.36428">
        <ele>98.5</ele>
        <time>2015-04-13T18:32:19.807Z</time>
      </trkpt>
      <trkpt lat="48.88063" lon="2.36435">
        <ele>98.4</ele>
        <time>2015-04-13T18:32:20.834Z</time>
      </trkpt>
      <trkpt lat="48.88066" lon="2.36441">
        <ele>98.4</ele>
        <time>2015-04-13T18:32:21.842Z</time>
      </trkpt>
      <trkpt lat="48.8807" lon="2.36447">
        <ele>98.2</ele>
        <time>2015-04-13T18:32:22.854Z</time>
      </trkpt>
      <trkpt lat="48.88074" lon="2.36453">
        <ele>97.9</ele>
        <time>2015-04-13T18:32:23.772Z</time>
      </trkpt>
      <trkpt lat="48.88079" lon="2.36458">
        <ele>97.7</ele>
        <time>2015-04-13T18:32:24.799Z</time>
      </trkpt>
      <trkpt lat="48.88084" lon="2.36464">
        <ele>97.5</ele>
        <time>2015-04-13T18:32:25.813Z</time>
      </trkpt>
      <trkpt lat="48.88088" lon="2.36469">
        <ele>97.5</ele>
        <time>2015-04-13T18:32:26.823Z</time>
      </trkpt>
      <trkpt lat="48.88091" lon="2.36476">
        <ele>97.4</ele>
        <time>2015-04-13T18:32:27.835Z</time>
      </trkpt>
      <trkpt lat="48.88094" lon="2.36482">
        <ele>97.3</ele>
        <time>2015-04-13T18:32:28.849Z</time>
      </trkpt>
      <trkpt lat="48.88098" lon="2.36488">
        <ele>97</ele>
        <time>2015-04-13T18:32:29.855Z</time>
      </trkpt>
      <trkpt lat="48.88103" lon="2.36493">
        <ele>96.8</ele>
        <time>2015-04-13T18:32:30.869Z</time>
      </trkpt>
      <trkpt lat="48.88108" lon="2.36497">
        <ele>96.5</ele>
        <time>2015-04-13T18:32:31.775Z</time>
      </trkpt>
      <trkpt lat="48.88113" lon="2.36501">
        <ele>96.5</ele>
        <time>2015-04-13T18:32:32.775Z</time>
      </trkpt>
      <trkpt lat="48.88117" lon="2.36506">
        <ele>96.5</ele>
        <time>2015-04-13T18:32:33.792Z</time>
      </trkpt>
      <trkpt lat="48.88121" lon="2.36511">
        <ele>96.5</ele>
        <time>2015-04-13T18:32:34.828Z</time>
      </trkpt>
      <trkpt lat="48.88124" lon="2.36516">
        <ele>96.6</ele>
        <time>2015-04-13T18:32:35.837Z</time>
      </trkpt>
      <trkpt lat="48.88127" lon="2.36521">
        <ele>96.8</ele>
        <time>2015-04-13T18:32:36.847Z</time>
      </trkpt>
      <trkpt lat="48.88131" lon="2.36526">
        <ele>97.1</ele>
        <time>2015-04-13T18:32:37.871Z</time>
      </trkpt>
      <trkpt lat="48.88136" lon="2.36532">
        <ele>97.4</ele>
        <time>2015-04-13T18:32:38.772Z</time>
      </trkpt>
      <trkpt lat="48.8814" lon="2.36537">
        <ele>97.6</ele>
        <time>2015-04-13T18:32:39.814Z</time>
      </trkpt>
      <trkpt lat="48.88144" lon="2.36543">
        <ele>97.8</ele>
        <time>2015-04-13T18:32:40.823Z</time>
      </trkpt>
      <trkpt lat="48.88147" lon="2.36549">
        <ele>98</ele>
        <time>2015-04-13T18:32:41.841Z</time>
      </trkpt>
      <trkpt lat="48.88151" lon="2.36554">
        <ele>98.3</ele>
        <time>2015-04-13T18:32:42.851Z</time>
      </trkpt>
      <trkpt lat="48.88156" lon="2.36563">
        <ele>98.4</ele>
        <time>2015-04-13T18:32:44.765Z</time>
      </trkpt>
      <trkpt lat="48.88158" lon="2.36567">
        <ele>98.4</ele>
        <time>2015-04-13T18:32:45.790Z</time>
      </trkpt>
      <trkpt lat="48.88162" lon="2.36575">
        <ele>98.5</ele>
        <time>2015-04-13T18:32:47.835Z</time>
      </trkpt>
      <trkpt lat="48.88164" lon="2.36578">
        <ele>98.7</ele>
        <time>2015-04-13T18:32:48.861Z</time>
      </trkpt>
      <trkpt lat="48.88165" lon="2.36586">
        <ele>99.3</ele>
        <time>2015-04-13T18:32:50.812Z</time>
      </trkpt>
      <trkpt lat="48.88166" lon="2.36591">
        <ele>99.4</ele>
        <time>2015-04-13T18:32:51.858Z</time>
      </trkpt>
      <trkpt lat="48.88166" lon="2.36601">
        <ele>100.1</ele>
        <time>2015-04-13T18:32:53.788Z</time>
      </trkpt>
      <trkpt lat="48.88166" lon="2.36606">
        <ele>100.4</ele>
        <time>2015-04-13T18:32:54.818Z</time>
      </trkpt>
      <trkpt lat="48.88167" lon="2.36616">
        <ele>101</ele>
        <time>2015-04-13T18:32:56.795Z</time>
      </trkpt>
      <trkpt lat="48.88167" lon="2.3662">
        <ele>101.2</ele>
        <time>2015-04-13T18:32:57.795Z</time>
      </trkpt>
      <trkpt lat="48.88168" lon="2.36632">
        <ele>101.7</ele>
        <time>2015-04-13T18:32:59.788Z</time>
      </trkpt>
      <trkpt lat="48.88168" lon="2.36639">
        <ele>102</ele>
        <time>2015-04-13T18:33:00.794Z</time>
      </trkpt>
      <trkpt lat="48.88169" lon="2.36646">
        <ele>102.2</ele>
        <time>2015-04-13T18:33:01.805Z</time>
      </trkpt>
      <trkpt lat="48.8817" lon="2.36654">
        <ele>102.3</ele>
        <time>2015-04-13T18:33:02.830Z</time>
      </trkpt>
      <trkpt lat="48.88171" lon="2.36662">
        <ele>102.4</ele>
        <time>2015-04-13T18:33:03.779Z</time>
      </trkpt>
      <trkpt lat="48.88174" lon="2.36671">
        <ele>102.6</ele>
        <time>2015-04-13T18:33:04.777Z</time>
      </trkpt>
      <trkpt lat="48.88175" lon="2.3668">
        <ele>102.7</ele>
        <time>2015-04-13T18:33:05.801Z</time>
      </trkpt>
      <trkpt lat="48.88177" lon="2.36689">
        <ele>103</ele>
        <time>2015-04-13T18:33:06.809Z</time>
      </trkpt>
      <trkpt lat="48.88179" lon="2.36696">
        <ele>103.2</ele>
        <time>2015-04-13T18:33:07.831Z</time>
      </trkpt>
      <trkpt lat="48.88181" lon="2.36703">
        <ele>103.4</ele>
        <time>2015-04-13T18:33:08.871Z</time>
      </trkpt>
      <trkpt lat="48.88184" lon="2.36711">
        <ele>103.6</ele>
        <time>2015-04-13T18:33:09.777Z</time>
      </trkpt>
      <trkpt lat="48.88186" lon="2.36719">
        <ele>103.7</ele>
        <time>2015-04-13T18:33:10.788Z</time>
      </trkpt>
      <trkpt lat="48.88187" lon="2.36727">
        <ele>103.7</ele>
        <time>2015-04-13T18:33:11.801Z</time>
      </trkpt>
      <trkpt lat="48.8819" lon="2.36734">
        <ele>103.9</ele>
        <time>2015-04-13T18:33:12.818Z</time>
      </trkpt>
      <trkpt lat="48.88193" lon="2.36742">
        <ele>104.2</ele>
        <time>2015-04-13T18:33:13.844Z</time>
      </trkpt>
      <trkpt lat="48.88196" lon="2.3675">
        <ele>104.4</ele>
        <time>2015-04-13T18:33:14.857Z</time>
      </trkpt>
      <trkpt lat="48.88198" lon="2.36758">
        <ele>104.6</ele>
        <time>2015-04-13T18:33:15.865Z</time>
      </trkpt>
      <trkpt lat="48.882" lon="2.36767">
        <ele>104.8</ele>
        <time>2015-04-13T18:33:16.787Z</time>
      </trkpt>
      <trkpt lat="48.88201" lon="2.36775">
        <ele>105</ele>
        <time>2015-04-13T18:33:17.790Z</time>
      </trkpt>
      <trkpt lat="48.88203" lon="2.36783">
        <ele>105.2</ele>
        <time>2015-04-13T18:33:18.823Z</time>
      </trkpt>
      <trkpt lat="48.88206" lon="2.36791">
        <ele>105.5</ele>
        <time>2015-04-13T18:33:19.844Z</time>
      </trkpt>
      <trkpt lat="48.88207" lon="2.36798">
        <ele>105.6</ele>
        <time>2015-04-13T18:33:20.861Z</time>
      </trkpt>
      <trkpt lat="48.88208" lon="2.36805">
        <ele>105.7</ele>
        <time>2015-04-13T18:33:21.789Z</time>
      </trkpt>
      <trkpt lat="48.88211" lon="2.36814">
        <ele>105.8</ele>
        <time>2015-04-13T18:33:22.797Z</time>
      </trkpt>
      <trkpt lat="48.88215" lon="2.36822">
        <ele>105.8</ele>
        <time>2015-04-13T18:33:23.788Z</time>
      </trkpt>
      <trkpt lat="48.88219" lon="2.3683">
        <ele>105.9</ele>
        <time>2015-04-13T18:33:24.804Z</time>
      </trkpt>
      <trkpt lat="48.88224" lon="2.36838">
        <ele>105.9</ele>
        <time>2015-04-13T18:33:25.793Z</time>
      </trkpt>
      <trkpt lat="48.88228" lon="2.36845">
        <ele>106.1</ele>
        <time>2015-04-13T18:33:26.854Z</time>
      </trkpt>
      <trkpt lat="48.88232" lon="2.36853">
        <ele>106.2</ele>
        <time>2015-04-13T18:33:27.760Z</time>
      </trkpt>
      <trkpt lat="48.88237" lon="2.3686">
        <ele>106.4</ele>
        <time>2015-04-13T18:33:28.770Z</time>
      </trkpt>
      <trkpt lat="48.88241" lon="2.36868">
        <ele>106.6</ele>
        <time>2015-04-13T18:33:29.789Z</time>
      </trkpt>
      <trkpt lat="48.88245" lon="2.36875">
        <ele>106.6</ele>
        <time>2015-04-13T18:33:30.804Z</time>
      </trkpt>
      <trkpt lat="48.88245" lon="2.36884">
        <ele>105.3</ele>
        <time>2015-04-13T18:33:31.866Z</time>
      </trkpt>
      <trkpt lat="48.88245" lon="2.36891">
        <ele>104.8</ele>
        <time>2015-04-13T18:33:32.759Z</time>
      </trkpt>
      <trkpt lat="48.88246" lon="2.36903">
        <ele>104.5</ele>
        <time>2015-04-13T18:33:34.764Z</time>
      </trkpt>
      <trkpt lat="48.88246" lon="2.36909">
        <ele>104.2</ele>
        <time>2015-04-13T18:33:35.855Z</time>
      </trkpt>
      <trkpt lat="48.88249" lon="2.36921">
        <ele>103.6</ele>
        <time>2015-04-13T18:33:37.772Z</time>
      </trkpt>
      <trkpt lat="48.8825" lon="2.36926">
        <ele>102.3</ele>
        <time>2015-04-13T18:33:38.854Z</time>
      </trkpt>
      <trkpt lat="48.88254" lon="2.36936">
        <ele>101.9</ele>
        <time>2015-04-13T18:33:40.770Z</time>
      </trkpt>
      <trkpt lat="48.88256" lon="2.3694">
        <ele>101.5</ele>
        <time>2015-04-13T18:33:41.799Z</time>
      </trkpt>
      <trkpt lat="48.88261" lon="2.3695">
        <ele>102</ele>
        <time>2015-04-13T18:33:45.785Z</time>
      </trkpt>
      <trkpt lat="48.88261" lon="2.36952">
        <ele>102.3</ele>
        <time>2015-04-13T18:33:46.781Z</time>
      </trkpt>
      <trkpt lat="48.88266" lon="2.36962">
        <ele>103.9</ele>
        <time>2015-04-13T18:33:56.840Z</time>
      </trkpt>
      <trkpt lat="48.88267" lon="2.36962">
        <ele>104</ele>
        <time>2015-04-13T18:33:57.853Z</time>
      </trkpt>
      <trkpt lat="48.88274" lon="2.36969">
        <ele>104.2</ele>
        <time>2015-04-13T18:34:04.837Z</time>
      </trkpt>
      <trkpt lat="48.88275" lon="2.36972">
        <ele>104.7</ele>
        <time>2015-04-13T18:34:05.848Z</time>
      </trkpt>
      <trkpt lat="48.88278" lon="2.36981">
        <ele>105.7</ele>
        <time>2015-04-13T18:34:07.835Z</time>
      </trkpt>
      <trkpt lat="48.88278" lon="2.36985">
        <ele>106.1</ele>
        <time>2015-04-13T18:34:08.854Z</time>
      </trkpt>
      <trkpt lat="48.88281" lon="2.36994">
        <ele>106</ele>
        <time>2015-04-13T18:34:10.843Z</time>
      </trkpt>
      <trkpt lat="48.88284" lon="2.36998">
        <ele>105.7</ele>
        <time>2015-04-13T18:34:11.759Z</time>
      </trkpt>
      <trkpt lat="48.88289" lon="2.37006">
        <ele>105.8</ele>
        <time>2015-04-13T18:34:13.841Z</time>
      </trkpt>
      <trkpt lat="48.88291" lon="2.37009">
        <ele>105.8</ele>
        <time>2015-04-13T18:34:14.754Z</time>
      </trkpt>
      <trkpt lat="48.88296" lon="2.37017">
        <ele>105.4</ele>
        <time>2015-04-13T18:34:16.763Z</time>
      </trkpt>
      <trkpt lat="48.88298" lon="2.3702">
        <ele>105.4</ele>
        <time>2015-04-13T18:34:17.749Z</time>
      </trkpt>
      <trkpt lat="48.88306" lon="2.37023">
        <ele>109.1</ele>
        <time>2015-04-13T18:34:38.758Z</time>
      </trkpt>
      <trkpt lat="48.88307" lon="2.3702">
        <ele>109.1</ele>
        <time>2015-04-13T18:34:39.853Z</time>
      </trkpt>
      <trkpt lat="48.88308" lon="2.37006">
        <ele>110.3</ele>
        <time>2015-04-13T18:34:46.785Z</time>
      </trkpt>
      <trkpt lat="48.88308" lon="2.37006">
        <ele>110.3</ele>
        <time>2015-04-13T18:34:47.851Z</time>
      </trkpt>
      <trkpt lat="48.88317" lon="2.37007">
        <ele>111</ele>
        <time>2015-04-13T18:34:51.789Z</time>
      </trkpt>
      <trkpt lat="48.8832" lon="2.37006">
        <ele>111.1</ele>
        <time>2015-04-13T18:34:52.843Z</time>
      </trkpt>
      <trkpt lat="48.88328" lon="2.37">
        <ele>111.4</ele>
        <time>2015-04-13T18:34:55.821Z</time>
      </trkpt>
      <trkpt lat="48.88331" lon="2.36997">
        <ele>111.5</ele>
        <time>2015-04-13T18:34:56.834Z</time>
      </trkpt>
      <trkpt lat="48.88335" lon="2.36993">
        <ele>111.5</ele>
        <time>2015-04-13T18:34:57.838Z</time>
      </trkpt>
      <trkpt lat="48.88338" lon="2.36988">
        <ele>111.6</ele>
        <time>2015-04-13T18:34:58.850Z</time>
      </trkpt>
      <trkpt lat="48.88343" lon="2.36984">
        <ele>111.6</ele>
        <time>2015-04-13T18:35:00.516Z</time>
      </trkpt>
      <trkpt lat="48.88346" lon="2.36979">
        <ele>111.6</ele>
        <time>2015-04-13T18:35:00.874Z</time>
      </trkpt>
      <trkpt lat="48.88349" lon="2.36973">
        <ele>111.7</ele>
        <time>2015-04-13T18:35:01.781Z</time>
      </trkpt>
      <trkpt lat="48.88353" lon="2.36967">
        <ele>111.8</ele>
        <time>2015-04-13T18:35:02.798Z</time>
      </trkpt>
      <trkpt lat="48.88356" lon="2.36961">
        <ele>111.7</ele>
        <time>2015-04-13T18:35:03.850Z</time>
      </trkpt>
      <trkpt lat="48.8836" lon="2.36956">
        <ele>111.7</ele>
        <time>2015-04-13T18:35:04.873Z</time>
      </trkpt>
      <trkpt lat="48.88366" lon="2.36947">
        <ele>111.8</ele>
        <time>2015-04-13T18:35:06.793Z</time>
      </trkpt>
      <trkpt lat="48.88368" lon="2.36944">
        <ele>111.9</ele>
        <time>2015-04-13T18:35:07.808Z</time>
      </trkpt>
      <trkpt lat="48.8837" lon="2.36932">
        <ele>112.9</ele>
        <time>2015-04-13T18:35:10.843Z</time>
      </trkpt>
      <trkpt lat="48.88372" lon="2.36928">
        <ele>113.3</ele>
        <time>2015-04-13T18:35:11.847Z</time>
      </trkpt>
      <trkpt lat="48.88374" lon="2.36925">
        <ele>113.8</ele>
        <time>2015-04-13T18:35:12.869Z</time>
      </trkpt>
      <trkpt lat="48.88374" lon="2.36924">
        <ele>114</ele>
        <time>2015-04-13T18:35:13.897Z</time>
      </trkpt>
      <trkpt lat="48.88374" lon="2.36924">
        <ele>114.4</ele>
        <time>2015-04-13T18:35:14.787Z</time>
      </trkpt>
      <trkpt lat="48.88379" lon="2.3692">
        <ele>116</ele>
        <time>2015-04-13T18:35:16.808Z</time>
      </trkpt>
      <trkpt lat="48.88388" lon="2.36914">
        <ele>119</ele>
        <time>2015-04-13T18:35:17.822Z</time>
      </trkpt>
      <trkpt lat="48.88394" lon="2.3691">
        <ele>122</ele>
        <time>2015-04-13T18:35:18.845Z</time>
      </trkpt>
      <trkpt lat="48.88397" lon="2.3691">
        <ele>123.9</ele>
        <time>2015-04-13T18:35:19.854Z</time>
      </trkpt>
      <trkpt lat="48.88403" lon="2.36906">
        <ele>127.7</ele>
        <time>2015-04-13T18:35:20.854Z</time>
      </trkpt>
      <trkpt lat="48.8841" lon="2.369">
        <ele>131.1</ele>
        <time>2015-04-13T18:35:21.862Z</time>
      </trkpt>
      <trkpt lat="48.88416" lon="2.36896">
        <ele>133.9</ele>
        <time>2015-04-13T18:35:22.870Z</time>
      </trkpt>
      <trkpt lat="48.88422" lon="2.36892">
        <ele>136.5</ele>
        <time>2015-04-13T18:35:23.875Z</time>
      </trkpt>
      <trkpt lat="48.8843" lon="2.36892">
        <ele>139.9</ele>
        <time>2015-04-13T18:35:25.811Z</time>
      </trkpt>
      <trkpt lat="48.88432" lon="2.36894">
        <ele>140.7</ele>
        <time>2015-04-13T18:35:26.825Z</time>
      </trkpt>
      <trkpt lat="48.88437" lon="2.36903">
        <ele>142.2</ele>
        <time>2015-04-13T18:35:28.843Z</time>
      </trkpt>
      <trkpt lat="48.88439" lon="2.36909">
        <ele>142.9</ele>
        <time>2015-04-13T18:35:29.851Z</time>
      </trkpt>
      <trkpt lat="48.88443" lon="2.36915">
        <ele>143.1</ele>
        <time>2015-04-13T18:35:30.880Z</time>
      </trkpt>
      <trkpt lat="48.88446" lon="2.36921">
        <ele>143.3</ele>
        <time>2015-04-13T18:35:31.880Z</time>
      </trkpt>
      <trkpt lat="48.8845" lon="2.36928">
        <ele>143.3</ele>
        <time>2015-04-13T18:35:32.787Z</time>
      </trkpt>
      <trkpt lat="48.88449" lon="2.36938">
        <ele>141.7</ele>
        <time>2015-04-13T18:35:33.786Z</time>
      </trkpt>
      <trkpt lat="48.88452" lon="2.36948">
        <ele>141.5</ele>
        <time>2015-04-13T18:35:34.809Z</time>
      </trkpt>
      <trkpt lat="48.88454" lon="2.36955">
        <ele>141.8</ele>
        <time>2015-04-13T18:35:35.820Z</time>
      </trkpt>
      <trkpt lat="48.88457" lon="2.36967">
        <ele>142.3</ele>
        <time>2015-04-13T18:35:37.833Z</time>
      </trkpt>
      <trkpt lat="48.88461" lon="2.36973">
        <ele>142.2</ele>
        <time>2015-04-13T18:35:38.843Z</time>
      </trkpt>
      <trkpt lat="48.88463" lon="2.36982">
        <ele>141.6</ele>
        <time>2015-04-13T18:35:39.852Z</time>
      </trkpt>
      <trkpt lat="48.88478" lon="2.36991">
        <ele>139.9</ele>
        <time>2015-04-13T18:35:40.761Z</time>
      </trkpt>
      <trkpt lat="48.88483" lon="2.36998">
        <ele>139.6</ele>
        <time>2015-04-13T18:35:41.780Z</time>
      </trkpt>
      <trkpt lat="48.88487" lon="2.37005">
        <ele>139.1</ele>
        <time>2015-04-13T18:35:42.827Z</time>
      </trkpt>
      <trkpt lat="48.88491" lon="2.37011">
        <ele>138.8</ele>
        <time>2015-04-13T18:35:43.855Z</time>
      </trkpt>
      <trkpt lat="48.88495" lon="2.37017">
        <ele>138.5</ele>
        <time>2015-04-13T18:35:44.873Z</time>
      </trkpt>
      <trkpt lat="48.88498" lon="2.37022">
        <ele>138.2</ele>
        <time>2015-04-13T18:35:45.770Z</time>
      </trkpt>
      <trkpt lat="48.885" lon="2.37028">
        <ele>138.3</ele>
        <time>2015-04-13T18:35:46.795Z</time>
      </trkpt>
      <trkpt lat="48.88502" lon="2.37035">
        <ele>138.3</ele>
        <time>2015-04-13T18:35:47.805Z</time>
      </trkpt>
      <trkpt lat="48.88505" lon="2.37043">
        <ele>138.4</ele>
        <time>2015-04-13T18:35:48.818Z</time>
      </trkpt>
      <trkpt lat="48.88506" lon="2.37053">
        <ele>137.2</ele>
        <time>2015-04-13T18:35:49.833Z</time>
      </trkpt>
      <trkpt lat="48.88508" lon="2.3706">
        <ele>136.7</ele>
        <time>2015-04-13T18:35:50.841Z</time>
      </trkpt>
      <trkpt lat="48.88509" lon="2.37067">
        <ele>135.6</ele>
        <time>2015-04-13T18:35:51.767Z</time>
      </trkpt>
      <trkpt lat="48.88509" lon="2.37076">
        <ele>133.5</ele>
        <time>2015-04-13T18:35:52.776Z</time>
      </trkpt>
      <trkpt lat="48.88509" lon="2.37084">
        <ele>132.2</ele>
        <time>2015-04-13T18:35:53.781Z</time>
      </trkpt>
      <trkpt lat="48.8851" lon="2.37092">
        <ele>131</ele>
        <time>2015-04-13T18:35:54.848Z</time>
      </trkpt>
      <trkpt lat="48.88512" lon="2.37098">
        <ele>130.6</ele>
        <time>2015-04-13T18:35:55.831Z</time>
      </trkpt>
      <trkpt lat="48.88514" lon="2.37105">
        <ele>129.9</ele>
        <time>2015-04-13T18:35:56.836Z</time>
      </trkpt>
      <trkpt lat="48.88517" lon="2.37112">
        <ele>129.7</ele>
        <time>2015-04-13T18:35:57.856Z</time>
      </trkpt>
      <trkpt lat="48.88521" lon="2.37118">
        <ele>129.1</ele>
        <time>2015-04-13T18:35:58.868Z</time>
      </trkpt>
      <trkpt lat="48.88524" lon="2.37125">
        <ele>128.7</ele>
        <time>2015-04-13T18:35:59.803Z</time>
      </trkpt>
      <trkpt lat="48.88527" lon="2.37132">
        <ele>127.8</ele>
        <time>2015-04-13T18:36:00.805Z</time>
      </trkpt>
      <trkpt lat="48.8853" lon="2.37138">
        <ele>127.3</ele>
        <time>2015-04-13T18:36:01.814Z</time>
      </trkpt>
      <trkpt lat="48.88533" lon="2.37145">
        <ele>126.6</ele>
        <time>2015-04-13T18:36:02.827Z</time>
      </trkpt>
      <trkpt lat="48.88536" lon="2.37152">
        <ele>126.3</ele>
        <time>2015-04-13T18:36:03.857Z</time>
      </trkpt>
      <trkpt lat="48.88539" lon="2.37158">
        <ele>126.3</ele>
        <time>2015-04-13T18:36:04.860Z</time>
      </trkpt>
      <trkpt lat="48.88543" lon="2.37164">
        <ele>126.2</ele>
        <time>2015-04-13T18:36:05.759Z</time>
      </trkpt>
      <trkpt lat="48.88546" lon="2.37169">
        <ele>126.1</ele>
        <time>2015-04-13T18:36:06.804Z</time>
      </trkpt>
      <trkpt lat="48.8855" lon="2.37175">
        <ele>125.9</ele>
        <time>2015-04-13T18:36:07.806Z</time>
      </trkpt>
      <trkpt lat="48.88553" lon="2.3718">
        <ele>125.5</ele>
        <time>2015-04-13T18:36:08.811Z</time>
      </trkpt>
      <trkpt lat="48.88555" lon="2.37186">
        <ele>124.4</ele>
        <time>2015-04-13T18:36:09.829Z</time>
      </trkpt>
      <trkpt lat="48.88557" lon="2.37193">
        <ele>123.4</ele>
        <time>2015-04-13T18:36:10.835Z</time>
      </trkpt>
      <trkpt lat="48.88558" lon="2.372">
        <ele>122.7</ele>
        <time>2015-04-13T18:36:11.844Z</time>
      </trkpt>
      <trkpt lat="48.8856" lon="2.37207">
        <ele>122</ele>
        <time>2015-04-13T18:36:12.856Z</time>
      </trkpt>
      <trkpt lat="48.88563" lon="2.37214">
        <ele>121.4</ele>
        <time>2015-04-13T18:36:13.874Z</time>
      </trkpt>
      <trkpt lat="48.88565" lon="2.37222">
        <ele>121.1</ele>
        <time>2015-04-13T18:36:14.786Z</time>
      </trkpt>
      <trkpt lat="48.88566" lon="2.37229">
        <ele>120.7</ele>
        <time>2015-04-13T18:36:15.783Z</time>
      </trkpt>
      <trkpt lat="48.88569" lon="2.37235">
        <ele>120.4</ele>
        <time>2015-04-13T18:36:16.787Z</time>
      </trkpt>
      <trkpt lat="48.88573" lon="2.37243">
        <ele>120</ele>
        <time>2015-04-13T18:36:17.801Z</time>
      </trkpt>
      <trkpt lat="48.88576" lon="2.3725">
        <ele>119.1</ele>
        <time>2015-04-13T18:36:18.810Z</time>
      </trkpt>
      <trkpt lat="48.88578" lon="2.37257">
        <ele>118.3</ele>
        <time>2015-04-13T18:36:19.823Z</time>
      </trkpt>
      <trkpt lat="48.88581" lon="2.37264">
        <ele>117.2</ele>
        <time>2015-04-13T18:36:20.825Z</time>
      </trkpt>
      <trkpt lat="48.88583" lon="2.37271">
        <ele>116.4</ele>
        <time>2015-04-13T18:36:21.876Z</time>
      </trkpt>
      <trkpt lat="48.88586" lon="2.37278">
        <ele>115.8</ele>
        <time>2015-04-13T18:36:22.761Z</time>
      </trkpt>
      <trkpt lat="48.8859" lon="2.37284">
        <ele>115.6</ele>
        <time>2015-04-13T18:36:23.784Z</time>
      </trkpt>
      <trkpt lat="48.88593" lon="2.3729">
        <ele>115.4</ele>
        <time>2015-04-13T18:36:24.808Z</time>
      </trkpt>
      <trkpt lat="48.88596" lon="2.37296">
        <ele>114.6</ele>
        <time>2015-04-13T18:36:25.818Z</time>
      </trkpt>
      <trkpt lat="48.886" lon="2.37302">
        <ele>114.2</ele>
        <time>2015-04-13T18:36:26.830Z</time>
      </trkpt>
      <trkpt lat="48.88604" lon="2.37309">
        <ele>113.7</ele>
        <time>2015-04-13T18:36:27.836Z</time>
      </trkpt>
      <trkpt lat="48.88607" lon="2.37316">
        <ele>113.1</ele>
        <time>2015-04-13T18:36:28.836Z</time>
      </trkpt>
      <trkpt lat="48.88611" lon="2.37322">
        <ele>112.5</ele>
        <time>2015-04-13T18:36:29.856Z</time>
      </trkpt>
      <trkpt lat="48.88614" lon="2.37329">
        <ele>112</ele>
        <time>2015-04-13T18:36:30.861Z</time>
      </trkpt>
      <trkpt lat="48.88617" lon="2.37336">
        <ele>111.6</ele>
        <time>2015-04-13T18:36:31.871Z</time>
      </trkpt>
      <trkpt lat="48.8862" lon="2.37342">
        <ele>111.2</ele>
        <time>2015-04-13T18:36:32.779Z</time>
      </trkpt>
      <trkpt lat="48.88623" lon="2.37349">
        <ele>110.9</ele>
        <time>2015-04-13T18:36:33.788Z</time>
      </trkpt>
      <trkpt lat="48.88626" lon="2.37355">
        <ele>110.7</ele>
        <time>2015-04-13T18:36:34.801Z</time>
      </trkpt>
      <trkpt lat="48.8863" lon="2.37362">
        <ele>110.4</ele>
        <time>2015-04-13T18:36:35.834Z</time>
      </trkpt>
      <trkpt lat="48.88633" lon="2.37368">
        <ele>109.9</ele>
        <time>2015-04-13T18:36:36.846Z</time>
      </trkpt>
      <trkpt lat="48.88636" lon="2.37374">
        <ele>109.4</ele>
        <time>2015-04-13T18:36:37.857Z</time>
      </trkpt>
      <trkpt lat="48.8864" lon="2.3738">
        <ele>109.3</ele>
        <time>2015-04-13T18:36:38.770Z</time>
      </trkpt>
      <trkpt lat="48.88644" lon="2.37386">
        <ele>109.2</ele>
        <time>2015-04-13T18:36:39.867Z</time>
      </trkpt>
      <trkpt lat="48.88647" lon="2.37393">
        <ele>108.8</ele>
        <time>2015-04-13T18:36:40.871Z</time>
      </trkpt>
      <trkpt lat="48.88651" lon="2.374">
        <ele>108.9</ele>
        <time>2015-04-13T18:36:41.841Z</time>
      </trkpt>
      <trkpt lat="48.88655" lon="2.37407">
        <ele>108.7</ele>
        <time>2015-04-13T18:36:42.843Z</time>
      </trkpt>
      <trkpt lat="48.88659" lon="2.37414">
        <ele>108.7</ele>
        <time>2015-04-13T18:36:43.855Z</time>
      </trkpt>
      <trkpt lat="48.88662" lon="2.37421">
        <ele>108.7</ele>
        <time>2015-04-13T18:36:44.870Z</time>
      </trkpt>
      <trkpt lat="48.88665" lon="2.37429">
        <ele>108.7</ele>
        <time>2015-04-13T18:36:45.776Z</time>
      </trkpt>
      <trkpt lat="48.88668" lon="2.37435">
        <ele>108.6</ele>
        <time>2015-04-13T18:36:46.800Z</time>
      </trkpt>
      <trkpt lat="48.88671" lon="2.37442">
        <ele>108.6</ele>
        <time>2015-04-13T18:36:47.804Z</time>
      </trkpt>
      <trkpt lat="48.88674" lon="2.37448">
        <ele>108.6</ele>
        <time>2015-04-13T18:36:48.826Z</time>
      </trkpt>
      <trkpt lat="48.88677" lon="2.37455">
        <ele>108.3</ele>
        <time>2015-04-13T18:36:49.817Z</time>
      </trkpt>
      <trkpt lat="48.88681" lon="2.37462">
        <ele>108.1</ele>
        <time>2015-04-13T18:36:50.873Z</time>
      </trkpt>
      <trkpt lat="48.88684" lon="2.37469">
        <ele>108.2</ele>
        <time>2015-04-13T18:36:51.764Z</time>
      </trkpt>
      <trkpt lat="48.88688" lon="2.37475">
        <ele>107.7</ele>
        <time>2015-04-13T18:36:52.771Z</time>
      </trkpt>
      <trkpt lat="48.88692" lon="2.37482">
        <ele>107.5</ele>
        <time>2015-04-13T18:36:53.799Z</time>
      </trkpt>
      <trkpt lat="48.88696" lon="2.37489">
        <ele>107.2</ele>
        <time>2015-04-13T18:36:54.806Z</time>
      </trkpt>
      <trkpt lat="48.88699" lon="2.37496">
        <ele>107</ele>
        <time>2015-04-13T18:36:55.824Z</time>
      </trkpt>
      <trkpt lat="48.88703" lon="2.37502">
        <ele>106.9</ele>
        <time>2015-04-13T18:36:56.825Z</time>
      </trkpt>
      <trkpt lat="48.88707" lon="2.37508">
        <ele>106.8</ele>
        <time>2015-04-13T18:36:57.855Z</time>
      </trkpt>
      <trkpt lat="48.8871" lon="2.37514">
        <ele>106.6</ele>
        <time>2015-04-13T18:36:58.854Z</time>
      </trkpt>
      <trkpt lat="48.88713" lon="2.3752">
        <ele>106.5</ele>
        <time>2015-04-13T18:36:59.869Z</time>
      </trkpt>
      <trkpt lat="48.88717" lon="2.37526">
        <ele>106.4</ele>
        <time>2015-04-13T18:37:00.878Z</time>
      </trkpt>
      <trkpt lat="48.8872" lon="2.37532">
        <ele>106.3</ele>
        <time>2015-04-13T18:37:01.792Z</time>
      </trkpt>
      <trkpt lat="48.88723" lon="2.37538">
        <ele>106.3</ele>
        <time>2015-04-13T18:37:02.791Z</time>
      </trkpt>
      <trkpt lat="48.88726" lon="2.37544">
        <ele>106.3</ele>
        <time>2015-04-13T18:37:03.801Z</time>
      </trkpt>
      <trkpt lat="48.88729" lon="2.3755">
        <ele>106.4</ele>
        <time>2015-04-13T18:37:04.830Z</time>
      </trkpt>
      <trkpt lat="48.88732" lon="2.37556">
        <ele>106.4</ele>
        <time>2015-04-13T18:37:05.796Z</time>
      </trkpt>
      <trkpt lat="48.88735" lon="2.37563">
        <ele>106.4</ele>
        <time>2015-04-13T18:37:06.837Z</time>
      </trkpt>
      <trkpt lat="48.88738" lon="2.3757">
        <ele>106.4</ele>
        <time>2015-04-13T18:37:07.838Z</time>
      </trkpt>
      <trkpt lat="48.8874" lon="2.37579">
        <ele>106.3</ele>
        <time>2015-04-13T18:37:08.846Z</time>
      </trkpt>
      <trkpt lat="48.88742" lon="2.37585">
        <ele>106.1</ele>
        <time>2015-04-13T18:37:09.761Z</time>
      </trkpt>
      <trkpt lat="48.88745" lon="2.37592">
        <ele>105.1</ele>
        <time>2015-04-13T18:37:10.778Z</time>
      </trkpt>
      <trkpt lat="48.88749" lon="2.37599">
        <ele>104.7</ele>
        <time>2015-04-13T18:37:11.790Z</time>
      </trkpt>
      <trkpt lat="48.88753" lon="2.37607">
        <ele>104.5</ele>
        <time>2015-04-13T18:37:12.821Z</time>
      </trkpt>
      <trkpt lat="48.88756" lon="2.37614">
        <ele>104.2</ele>
        <time>2015-04-13T18:37:13.845Z</time>
      </trkpt>
      <trkpt lat="48.88758" lon="2.37621">
        <ele>104</ele>
        <time>2015-04-13T18:37:14.860Z</time>
      </trkpt>
      <trkpt lat="48.88761" lon="2.37628">
        <ele>103.9</ele>
        <time>2015-04-13T18:37:15.876Z</time>
      </trkpt>
      <trkpt lat="48.88764" lon="2.37634">
        <ele>103.7</ele>
        <time>2015-04-13T18:37:16.791Z</time>
      </trkpt>
      <trkpt lat="48.88767" lon="2.3764">
        <ele>103.8</ele>
        <time>2015-04-13T18:37:17.863Z</time>
      </trkpt>
      <trkpt lat="48.8877" lon="2.37647">
        <ele>103.8</ele>
        <time>2015-04-13T18:37:18.887Z</time>
      </trkpt>
      <trkpt lat="48.88773" lon="2.37653">
        <ele>103.8</ele>
        <time>2015-04-13T18:37:19.819Z</time>
      </trkpt>
      <trkpt lat="48.88775" lon="2.37659">
        <ele>103.8</ele>
        <time>2015-04-13T18:37:20.802Z</time>
      </trkpt>
      <trkpt lat="48.88777" lon="2.37666">
        <ele>103.8</ele>
        <time>2015-04-13T18:37:21.797Z</time>
      </trkpt>
      <trkpt lat="48.88779" lon="2.37672">
        <ele>103.9</ele>
        <time>2015-04-13T18:37:22.818Z</time>
      </trkpt>
      <trkpt lat="48.88781" lon="2.37679">
        <ele>104.1</ele>
        <time>2015-04-13T18:37:23.810Z</time>
      </trkpt>
      <trkpt lat="48.88784" lon="2.37685">
        <ele>104.2</ele>
        <time>2015-04-13T18:37:24.868Z</time>
      </trkpt>
      <trkpt lat="48.88786" lon="2.37691">
        <ele>104.3</ele>
        <time>2015-04-13T18:37:25.871Z</time>
      </trkpt>
      <trkpt lat="48.88788" lon="2.37697">
        <ele>104.4</ele>
        <time>2015-04-13T18:37:26.782Z</time>
      </trkpt>
      <trkpt lat="48.8879" lon="2.37703">
        <ele>104.3</ele>
        <time>2015-04-13T18:37:26.749Z</time>
      </trkpt>
      <trkpt lat="48.88794" lon="2.37709">
        <ele>104</ele>
        <time>2015-04-13T18:37:28.809Z</time>
      </trkpt>
      <trkpt lat="48.88798" lon="2.37715">
        <ele>103.7</ele>
        <time>2015-04-13T18:37:29.827Z</time>
      </trkpt>
      <trkpt lat="48.88802" lon="2.37722">
        <ele>103.4</ele>
        <time>2015-04-13T18:37:30.842Z</time>
      </trkpt>
      <trkpt lat="48.88808" lon="2.3773">
        <ele>102.5</ele>
        <time>2015-04-13T18:37:31.861Z</time>
      </trkpt>
      <trkpt lat="48.88814" lon="2.37737">
        <ele>102</ele>
        <time>2015-04-13T18:37:32.867Z</time>
      </trkpt>
      <trkpt lat="48.88819" lon="2.37744">
        <ele>101.5</ele>
        <time>2015-04-13T18:37:33.791Z</time>
      </trkpt>
      <trkpt lat="48.88823" lon="2.37751">
        <ele>101.1</ele>
        <time>2015-04-13T18:37:34.794Z</time>
      </trkpt>
      <trkpt lat="48.88826" lon="2.37758">
        <ele>101</ele>
        <time>2015-04-13T18:37:35.809Z</time>
      </trkpt>
      <trkpt lat="48.88829" lon="2.37764">
        <ele>100.8</ele>
        <time>2015-04-13T18:37:36.811Z</time>
      </trkpt>
      <trkpt lat="48.88833" lon="2.37769">
        <ele>100.7</ele>
        <time>2015-04-13T18:37:37.874Z</time>
      </trkpt>
      <trkpt lat="48.88837" lon="2.37775">
        <ele>100.5</ele>
        <time>2015-04-13T18:37:38.794Z</time>
      </trkpt>
      <trkpt lat="48.8884" lon="2.37779">
        <ele>100.4</ele>
        <time>2015-04-13T18:37:39.816Z</time>
      </trkpt>
      <trkpt lat="48.88844" lon="2.37784">
        <ele>100.2</ele>
        <time>2015-04-13T18:37:40.814Z</time>
      </trkpt>
      <trkpt lat="48.88847" lon="2.37789">
        <ele>100.3</ele>
        <time>2015-04-13T18:37:41.830Z</time>
      </trkpt>
      <trkpt lat="48.88851" lon="2.37795">
        <ele>100.1</ele>
        <time>2015-04-13T18:37:42.827Z</time>
      </trkpt>
      <trkpt lat="48.88855" lon="2.37801">
        <ele>100</ele>
        <time>2015-04-13T18:37:43.864Z</time>
      </trkpt>
      <trkpt lat="48.88859" lon="2.37806">
        <ele>99.9</ele>
        <time>2015-04-13T18:37:44.881Z</time>
      </trkpt>
      <trkpt lat="48.88862" lon="2.37812">
        <ele>99.9</ele>
        <time>2015-04-13T18:37:44.366Z</time>
      </trkpt>
      <trkpt lat="48.88866" lon="2.37818">
        <ele>99.9</ele>
        <time>2015-04-13T18:37:46.787Z</time>
      </trkpt>
      <trkpt lat="48.8887" lon="2.37823">
        <ele>99.7</ele>
        <time>2015-04-13T18:37:47.817Z</time>
      </trkpt>
      <trkpt lat="48.88874" lon="2.37826">
        <ele>99.7</ele>
        <time>2015-04-13T18:37:48.825Z</time>
      </trkpt>
      <trkpt lat="48.88882" lon="2.37833">
        <ele>100.1</ele>
        <time>2015-04-13T18:37:50.841Z</time>
      </trkpt>
      <trkpt lat="48.88886" lon="2.37835">
        <ele>100.4</ele>
        <time>2015-04-13T18:37:51.872Z</time>
      </trkpt>
      <trkpt lat="48.88892" lon="2.37838">
        <ele>100.5</ele>
        <time>2015-04-13T18:37:52.779Z</time>
      </trkpt>
      <trkpt lat="48.88896" lon="2.37843">
        <ele>100.6</ele>
        <time>2015-04-13T18:37:53.779Z</time>
      </trkpt>
      <trkpt lat="48.88903" lon="2.37851">
        <ele>100.9</ele>
        <time>2015-04-13T18:37:55.793Z</time>
      </trkpt>
      <trkpt lat="48.88904" lon="2.37856">
        <ele>101.9</ele>
        <time>2015-04-13T18:37:56.820Z</time>
      </trkpt>
      <trkpt lat="48.88904" lon="2.37867">
        <ele>103.6</ele>
        <time>2015-04-13T18:37:58.859Z</time>
      </trkpt>
      <trkpt lat="48.88904" lon="2.37872">
        <ele>104</ele>
        <time>2015-04-13T18:37:59.871Z</time>
      </trkpt>
      <trkpt lat="48.88901" lon="2.3788">
        <ele>103.5</ele>
        <time>2015-04-13T18:38:00.874Z</time>
      </trkpt>
      <trkpt lat="48.88899" lon="2.37887">
        <ele>103.3</ele>
        <time>2015-04-13T18:38:01.878Z</time>
      </trkpt>
      <trkpt lat="48.88895" lon="2.37896">
        <ele>103.3</ele>
        <time>2015-04-13T18:38:03.818Z</time>
      </trkpt>
      <trkpt lat="48.88893" lon="2.379">
        <ele>103.3</ele>
        <time>2015-04-13T18:38:04.796Z</time>
      </trkpt>
      <trkpt lat="48.88888" lon="2.37905">
        <ele>103.1</ele>
        <time>2015-04-13T18:38:06.806Z</time>
      </trkpt>
      <trkpt lat="48.88884" lon="2.37906">
        <ele>102.6</ele>
        <time>2015-04-13T18:38:07.818Z</time>
      </trkpt>
      <trkpt lat="48.88877" lon="2.37913">
        <ele>103.5</ele>
        <time>2015-04-13T18:38:10.829Z</time>
      </trkpt>
      <trkpt lat="48.88876" lon="2.37915">
        <ele>103.3</ele>
        <time>2015-04-13T18:38:11.874Z</time>
      </trkpt>
      <trkpt lat="48.88869" lon="2.37913">
        <ele>102.5</ele>
        <time>2015-04-13T18:38:32.773Z</time>
      </trkpt>
      <trkpt lat="48.88865" lon="2.37918">
        <ele>101.2</ele>
        <time>2015-04-13T18:38:33.825Z</time>
      </trkpt>
      <trkpt lat="48.88864" lon="2.37918">
        <ele>101.4</ele>
        <time>2015-04-13T18:38:34.847Z</time>
      </trkpt>
      <trkpt lat="48.88864" lon="2.37919">
        <ele>101.6</ele>
        <time>2015-04-13T18:38:35.850Z</time>
      </trkpt>
      <trkpt lat="48.88863" lon="2.37921">
        <ele>101.9</ele>
        <time>2015-04-13T18:38:39.779Z</time>
      </trkpt>
      <trkpt lat="48.88864" lon="2.37925">
        <ele>101.3</ele>
        <time>2015-04-13T18:38:40.778Z</time>
      </trkpt>
      <trkpt lat="48.88863" lon="2.37938">
        <ele>103</ele>
        <time>2015-04-13T18:38:47.790Z</time>
      </trkpt>
      <trkpt lat="48.88864" lon="2.37942">
        <ele>102.8</ele>
        <time>2015-04-13T18:38:48.862Z</time>
      </trkpt>
      <trkpt lat="48.88867" lon="2.37952">
        <ele>102.7</ele>
        <time>2015-04-13T18:38:50.823Z</time>
      </trkpt>
      <trkpt lat="48.88869" lon="2.37957">
        <ele>102.6</ele>
        <time>2015-04-13T18:38:51.872Z</time>
      </trkpt>
      <trkpt lat="48.88874" lon="2.37965">
        <ele>102.8</ele>
        <time>2015-04-13T18:38:53.815Z</time>
      </trkpt>
      <trkpt lat="48.88878" lon="2.37969">
        <ele>102.7</ele>
        <time>2015-04-13T18:38:54.890Z</time>
      </trkpt>
      <trkpt lat="48.88881" lon="2.37973">
        <ele>102.8</ele>
        <time>2015-04-13T18:38:55.845Z</time>
      </trkpt>
      <trkpt lat="48.88885" lon="2.37978">
        <ele>102.9</ele>
        <time>2015-04-13T18:38:56.759Z</time>
      </trkpt>
      <trkpt lat="48.88889" lon="2.37984">
        <ele>103.3</ele>
        <time>2015-04-13T18:38:57.799Z</time>
      </trkpt>
      <trkpt lat="48.88892" lon="2.3799">
        <ele>103.6</ele>
        <time>2015-04-13T18:38:58.802Z</time>
      </trkpt>
      <trkpt lat="48.88896" lon="2.37996">
        <ele>103.8</ele>
        <time>2015-04-13T18:38:59.818Z</time>
      </trkpt>
      <trkpt lat="48.889" lon="2.38002">
        <ele>103.8</ele>
        <time>2015-04-13T18:39:00.840Z</time>
      </trkpt>
      <trkpt lat="48.88904" lon="2.38009">
        <ele>103.8</ele>
        <time>2015-04-13T18:39:01.862Z</time>
      </trkpt>
      <trkpt lat="48.88908" lon="2.38016">
        <ele>104</ele>
        <time>2015-04-13T18:39:02.752Z</time>
      </trkpt>
      <trkpt lat="48.88911" lon="2.38022">
        <ele>104</ele>
        <time>2015-04-13T18:39:03.754Z</time>
      </trkpt>
      <trkpt lat="48.88915" lon="2.38029">
        <ele>104</ele>
        <time>2015-04-13T18:39:04.845Z</time>
      </trkpt>
      <trkpt lat="48.88918" lon="2.38036">
        <ele>104</ele>
        <time>2015-04-13T18:39:05.852Z</time>
      </trkpt>
      <trkpt lat="48.88922" lon="2.38044">
        <ele>104.1</ele>
        <time>2015-04-13T18:39:06.843Z</time>
      </trkpt>
      <trkpt lat="48.88926" lon="2.38052">
        <ele>104.3</ele>
        <time>2015-04-13T18:39:07.798Z</time>
      </trkpt>
      <trkpt lat="48.88929" lon="2.38059">
        <ele>104.3</ele>
        <time>2015-04-13T18:39:08.786Z</time>
      </trkpt>
      <trkpt lat="48.88933" lon="2.38067">
        <ele>104</ele>
        <time>2015-04-13T18:39:09.869Z</time>
      </trkpt>
      <trkpt lat="48.88937" lon="2.38073">
        <ele>103.8</ele>
        <time>2015-04-13T18:39:10.798Z</time>
      </trkpt>
      <trkpt lat="48.88941" lon="2.3808">
        <ele>103.5</ele>
        <time>2015-04-13T18:39:11.805Z</time>
      </trkpt>
      <trkpt lat="48.88946" lon="2.38087">
        <ele>103.4</ele>
        <time>2015-04-13T18:39:12.811Z</time>
      </trkpt>
      <trkpt lat="48.8895" lon="2.38095">
        <ele>103.4</ele>
        <time>2015-04-13T18:39:14.539Z</time>
      </trkpt>
      <trkpt lat="48.88954" lon="2.38102">
        <ele>103.3</ele>
        <time>2015-04-13T18:39:14.823Z</time>
      </trkpt>
      <trkpt lat="48.88957" lon="2.3811">
        <ele>103</ele>
        <time>2015-04-13T18:39:15.828Z</time>
      </trkpt>
      <trkpt lat="48.88961" lon="2.38117">
        <ele>102.8</ele>
        <time>2015-04-13T18:39:16.753Z</time>
      </trkpt>
      <trkpt lat="48.88965" lon="2.38124">
        <ele>102.6</ele>
        <time>2015-04-13T18:39:17.758Z</time>
      </trkpt>
      <trkpt lat="48.88969" lon="2.38131">
        <ele>102.3</ele>
        <time>2015-04-13T18:39:18.801Z</time>
      </trkpt>
      <trkpt lat="48.88974" lon="2.38137">
        <ele>102.3</ele>
        <time>2015-04-13T18:39:19.793Z</time>
      </trkpt>
      <trkpt lat="48.88979" lon="2.38144">
        <ele>102.2</ele>
        <time>2015-04-13T18:39:20.819Z</time>
      </trkpt>
      <trkpt lat="48.88983" lon="2.38151">
        <ele>101.8</ele>
        <time>2015-04-13T18:39:19.537Z</time>
      </trkpt>
      <trkpt lat="48.88987" lon="2.38159">
        <ele>101.9</ele>
        <time>2015-04-13T18:39:22.760Z</time>
      </trkpt>
      <trkpt lat="48.88991" lon="2.38166">
        <ele>101.8</ele>
        <time>2015-04-13T18:39:23.818Z</time>
      </trkpt>
      <trkpt lat="48.88994" lon="2.38173">
        <ele>101.6</ele>
        <time>2015-04-13T18:39:24.845Z</time>
      </trkpt>
      <trkpt lat="48.88998" lon="2.3818">
        <ele>101.4</ele>
        <time>2015-04-13T18:39:25.884Z</time>
      </trkpt>
      <trkpt lat="48.89002" lon="2.38187">
        <ele>101.1</ele>
        <time>2015-04-13T18:39:26.754Z</time>
      </trkpt>
      <trkpt lat="48.89006" lon="2.38194">
        <ele>101.1</ele>
        <time>2015-04-13T18:39:27.780Z</time>
      </trkpt>
      <trkpt lat="48.8901" lon="2.38201">
        <ele>100.9</ele>
        <time>2015-04-13T18:39:28.784Z</time>
      </trkpt>
      <trkpt lat="48.89016" lon="2.38208">
        <ele>100.3</ele>
        <time>2015-04-13T18:39:30.810Z</time>
      </trkpt>
      <trkpt lat="48.89018" lon="2.38214">
        <ele>100.5</ele>
        <time>2015-04-13T18:39:31.868Z</time>
      </trkpt>
      <trkpt lat="48.89022" lon="2.38221">
        <ele>100.8</ele>
        <time>2015-04-13T18:39:32.773Z</time>
      </trkpt>
      <trkpt lat="48.89026" lon="2.3823">
        <ele>100.9</ele>
        <time>2015-04-13T18:39:33.781Z</time>
      </trkpt>
      <trkpt lat="48.89031" lon="2.38237">
        <ele>100.9</ele>
        <time>2015-04-13T18:39:34.783Z</time>
      </trkpt>
      <trkpt lat="48.89036" lon="2.38243">
        <ele>100.8</ele>
        <time>2015-04-13T18:39:35.796Z</time>
      </trkpt>
      <trkpt lat="48.8904" lon="2.3825">
        <ele>100.9</ele>
        <time>2015-04-13T18:39:36.813Z</time>
      </trkpt>
      <trkpt lat="48.89044" lon="2.38257">
        <ele>100.9</ele>
        <time>2015-04-13T18:39:37.823Z</time>
      </trkpt>
      <trkpt lat="48.89048" lon="2.38264">
        <ele>101</ele>
        <time>2015-04-13T18:39:38.846Z</time>
      </trkpt>
      <trkpt lat="48.8905" lon="2.38271">
        <ele>100.9</ele>
        <time>2015-04-13T18:39:39.844Z</time>
      </trkpt>
      <trkpt lat="48.89053" lon="2.38278">
        <ele>101</ele>
        <time>2015-04-13T18:39:40.854Z</time>
      </trkpt>
      <trkpt lat="48.89056" lon="2.38285">
        <ele>100.6</ele>
        <time>2015-04-13T18:39:41.771Z</time>
      </trkpt>
      <trkpt lat="48.89056" lon="2.38295">
        <ele>100.6</ele>
        <time>2015-04-13T18:39:42.790Z</time>
      </trkpt>
      <trkpt lat="48.89059" lon="2.38304">
        <ele>100.8</ele>
        <time>2015-04-13T18:39:43.802Z</time>
      </trkpt>
      <trkpt lat="48.89062" lon="2.38312">
        <ele>101.1</ele>
        <time>2015-04-13T18:39:44.817Z</time>
      </trkpt>
      <trkpt lat="48.89065" lon="2.38321">
        <ele>101.1</ele>
        <time>2015-04-13T18:39:45.823Z</time>
      </trkpt>
      <trkpt lat="48.89068" lon="2.38329">
        <ele>100.8</ele>
        <time>2015-04-13T18:39:46.828Z</time>
      </trkpt>
      <trkpt lat="48.89071" lon="2.38336">
        <ele>100.6</ele>
        <time>2015-04-13T18:39:47.834Z</time>
      </trkpt>
      <trkpt lat="48.89075" lon="2.38343">
        <ele>100.4</ele>
        <time>2015-04-13T18:39:48.863Z</time>
      </trkpt>
      <trkpt lat="48.89078" lon="2.38348">
        <ele>100.1</ele>
        <time>2015-04-13T18:39:49.857Z</time>
      </trkpt>
      <trkpt lat="48.89084" lon="2.38357">
        <ele>100</ele>
        <time>2015-04-13T18:39:51.785Z</time>
      </trkpt>
      <trkpt lat="48.89086" lon="2.38363">
        <ele>100.1</ele>
        <time>2015-04-13T18:39:52.798Z</time>
      </trkpt>
      <trkpt lat="48.89089" lon="2.3837">
        <ele>100.3</ele>
        <time>2015-04-13T18:39:53.834Z</time>
      </trkpt>
      <trkpt lat="48.89092" lon="2.38377">
        <ele>100</ele>
        <time>2015-04-13T18:39:54.862Z</time>
      </trkpt>
      <trkpt lat="48.89095" lon="2.38384">
        <ele>99.9</ele>
        <time>2015-04-13T18:39:55.754Z</time>
      </trkpt>
      <trkpt lat="48.89098" lon="2.38393">
        <ele>99.9</ele>
        <time>2015-04-13T18:39:56.772Z</time>
      </trkpt>
      <trkpt lat="48.89101" lon="2.38399">
        <ele>99.9</ele>
        <time>2015-04-13T18:39:57.774Z</time>
      </trkpt>
      <trkpt lat="48.89105" lon="2.38404">
        <ele>99.8</ele>
        <time>2015-04-13T18:39:58.792Z</time>
      </trkpt>
      <trkpt lat="48.89108" lon="2.38411">
        <ele>99.8</ele>
        <time>2015-04-13T18:39:59.809Z</time>
      </trkpt>
      <trkpt lat="48.89111" lon="2.38417">
        <ele>99.7</ele>
        <time>2015-04-13T18:40:00.821Z</time>
      </trkpt>
      <trkpt lat="48.89115" lon="2.38422">
        <ele>99.8</ele>
        <time>2015-04-13T18:40:01.845Z</time>
      </trkpt>
      <trkpt lat="48.89118" lon="2.38427">
        <ele>99.8</ele>
        <time>2015-04-13T18:40:02.851Z</time>
      </trkpt>
      <trkpt lat="48.89121" lon="2.38432">
        <ele>99.9</ele>
        <time>2015-04-13T18:40:03.771Z</time>
      </trkpt>
      <trkpt lat="48.89124" lon="2.38438">
        <ele>99.8</ele>
        <time>2015-04-13T18:40:04.778Z</time>
      </trkpt>
      <trkpt lat="48.89128" lon="2.38443">
        <ele>99.7</ele>
        <time>2015-04-13T18:40:05.786Z</time>
      </trkpt>
      <trkpt lat="48.89133" lon="2.38449">
        <ele>99.5</ele>
        <time>2015-04-13T18:40:06.808Z</time>
      </trkpt>
      <trkpt lat="48.89137" lon="2.3846">
        <ele>99.6</ele>
        <time>2015-04-13T18:40:07.818Z</time>
      </trkpt>
      <trkpt lat="48.89141" lon="2.38468">
        <ele>99.6</ele>
        <time>2015-04-13T18:40:08.831Z</time>
      </trkpt>
      <trkpt lat="48.89146" lon="2.38475">
        <ele>99.7</ele>
        <time>2015-04-13T18:40:09.851Z</time>
      </trkpt>
      <trkpt lat="48.8915" lon="2.38484">
        <ele>99.7</ele>
        <time>2015-04-13T18:40:10.859Z</time>
      </trkpt>
      <trkpt lat="48.89153" lon="2.38494">
        <ele>99.6</ele>
        <time>2015-04-13T18:40:11.774Z</time>
      </trkpt>
      <trkpt lat="48.89157" lon="2.38503">
        <ele>99.4</ele>
        <time>2015-04-13T18:40:12.880Z</time>
      </trkpt>
      <trkpt lat="48.89162" lon="2.3851">
        <ele>99.2</ele>
        <time>2015-04-13T18:40:13.814Z</time>
      </trkpt>
      <trkpt lat="48.89167" lon="2.38514">
        <ele>99.3</ele>
        <time>2015-04-13T18:40:14.766Z</time>
      </trkpt>
      <trkpt lat="48.89172" lon="2.38517">
        <ele>99</ele>
        <time>2015-04-13T18:40:15.806Z</time>
      </trkpt>
      <trkpt lat="48.89176" lon="2.38519">
        <ele>99.2</ele>
        <time>2015-04-13T18:40:16.812Z</time>
      </trkpt>
      <trkpt lat="48.89184" lon="2.3852">
        <ele>99.2</ele>
        <time>2015-04-13T18:40:18.839Z</time>
      </trkpt>
      <trkpt lat="48.89189" lon="2.38518">
        <ele>100.9</ele>
        <time>2015-04-13T18:40:19.856Z</time>
      </trkpt>
      <trkpt lat="48.89194" lon="2.38517">
        <ele>101.4</ele>
        <time>2015-04-13T18:40:20.796Z</time>
      </trkpt>
      <trkpt lat="48.89198" lon="2.38516">
        <ele>101.9</ele>
        <time>2015-04-13T18:40:21.807Z</time>
      </trkpt>
      <trkpt lat="48.89203" lon="2.38519">
        <ele>101.8</ele>
        <time>2015-04-13T18:40:22.814Z</time>
      </trkpt>
      <trkpt lat="48.89208" lon="2.38522">
        <ele>101.8</ele>
        <time>2015-04-13T18:40:23.821Z</time>
      </trkpt>
      <trkpt lat="48.89213" lon="2.38525">
        <ele>102</ele>
        <time>2015-04-13T18:40:24.859Z</time>
      </trkpt>
      <trkpt lat="48.89218" lon="2.38529">
        <ele>102.2</ele>
        <time>2015-04-13T18:40:25.877Z</time>
      </trkpt>
      <trkpt lat="48.89222" lon="2.38533">
        <ele>102.2</ele>
        <time>2015-04-13T18:40:26.775Z</time>
      </trkpt>
      <trkpt lat="48.89228" lon="2.38538">
        <ele>102</ele>
        <time>2015-04-13T18:40:27.773Z</time>
      </trkpt>
      <trkpt lat="48.89234" lon="2.38541">
        <ele>102.1</ele>
        <time>2015-04-13T18:40:28.800Z</time>
      </trkpt>
      <trkpt lat="48.8924" lon="2.38545">
        <ele>102</ele>
        <time>2015-04-13T18:40:29.818Z</time>
      </trkpt>
      <trkpt lat="48.89245" lon="2.38549">
        <ele>102</ele>
        <time>2015-04-13T18:40:30.838Z</time>
      </trkpt>
      <trkpt lat="48.89249" lon="2.38553">
        <ele>102.1</ele>
        <time>2015-04-13T18:40:31.841Z</time>
      </trkpt>
      <trkpt lat="48.89258" lon="2.38554">
        <ele>102.3</ele>
        <time>2015-04-13T18:40:33.800Z</time>
      </trkpt>
      <trkpt lat="48.89264" lon="2.38549">
        <ele>102.1</ele>
        <time>2015-04-13T18:40:34.821Z</time>
      </trkpt>
      <trkpt lat="48.89269" lon="2.38545">
        <ele>102</ele>
        <time>2015-04-13T18:40:35.775Z</time>
      </trkpt>
      <trkpt lat="48.89274" lon="2.38541">
        <ele>102</ele>
        <time>2015-04-13T18:40:36.790Z</time>
      </trkpt>
      <trkpt lat="48.8928" lon="2.38538">
        <ele>101.9</ele>
        <time>2015-04-13T18:40:37.800Z</time>
      </trkpt>
      <trkpt lat="48.89285" lon="2.38536">
        <ele>101.9</ele>
        <time>2015-04-13T18:40:38.819Z</time>
      </trkpt>
      <trkpt lat="48.8929" lon="2.38532">
        <ele>101.6</ele>
        <time>2015-04-13T18:40:39.813Z</time>
      </trkpt>
      <trkpt lat="48.89295" lon="2.38529">
        <ele>101.7</ele>
        <time>2015-04-13T18:40:40.832Z</time>
      </trkpt>
      <trkpt lat="48.893" lon="2.38518">
        <ele>101.9</ele>
        <time>2015-04-13T18:40:43.857Z</time>
      </trkpt>
      <trkpt lat="48.89304" lon="2.38514">
        <ele>102</ele>
        <time>2015-04-13T18:40:44.796Z</time>
      </trkpt>
      <trkpt lat="48.89309" lon="2.38511">
        <ele>102</ele>
        <time>2015-04-13T18:40:45.848Z</time>
      </trkpt>
      <trkpt lat="48.89316" lon="2.38507">
        <ele>101.8</ele>
        <time>2015-04-13T18:40:46.861Z</time>
      </trkpt>
      <trkpt lat="48.89323" lon="2.38504">
        <ele>101.6</ele>
        <time>2015-04-13T18:40:47.769Z</time>
      </trkpt>
      <trkpt lat="48.89329" lon="2.385">
        <ele>101.3</ele>
        <time>2015-04-13T18:40:48.800Z</time>
      </trkpt>
      <trkpt lat="48.89342" lon="2.38491">
        <ele>99.7</ele>
        <time>2015-04-13T18:40:49.835Z</time>
      </trkpt>
      <trkpt lat="48.89351" lon="2.38487">
        <ele>99</ele>
        <time>2015-04-13T18:40:50.857Z</time>
      </trkpt>
      <trkpt lat="48.89358" lon="2.38484">
        <ele>98.7</ele>
        <time>2015-04-13T18:40:51.853Z</time>
      </trkpt>
      <trkpt lat="48.89371" lon="2.3848">
        <ele>98.4</ele>
        <time>2015-04-13T18:40:53.798Z</time>
      </trkpt>
      <trkpt lat="48.89377" lon="2.38476">
        <ele>98.1</ele>
        <time>2015-04-13T18:40:54.818Z</time>
      </trkpt>
      <trkpt lat="48.89382" lon="2.38472">
        <ele>97.9</ele>
        <time>2015-04-13T18:40:55.828Z</time>
      </trkpt>
      <trkpt lat="48.89388" lon="2.3847">
        <ele>97.8</ele>
        <time>2015-04-13T18:40:56.841Z</time>
      </trkpt>
      <trkpt lat="48.89395" lon="2.38468">
        <ele>97.7</ele>
        <time>2015-04-13T18:40:57.858Z</time>
      </trkpt>
      <trkpt lat="48.89401" lon="2.38466">
        <ele>97.6</ele>
        <time>2015-04-13T18:40:58.803Z</time>
      </trkpt>
      <trkpt lat="48.89406" lon="2.38464">
        <ele>97.7</ele>
        <time>2015-04-13T18:40:59.796Z</time>
      </trkpt>
      <trkpt lat="48.89411" lon="2.38458">
        <ele>97.5</ele>
        <time>2015-04-13T18:41:00.802Z</time>
      </trkpt>
      <trkpt lat="48.89415" lon="2.38452">
        <ele>97.5</ele>
        <time>2015-04-13T18:41:01.825Z</time>
      </trkpt>
      <trkpt lat="48.89421" lon="2.38448">
        <ele>97.5</ele>
        <time>2015-04-13T18:41:02.842Z</time>
      </trkpt>
      <trkpt lat="48.89426" lon="2.38443">
        <ele>97.6</ele>
        <time>2015-04-13T18:41:03.850Z</time>
      </trkpt>
      <trkpt lat="48.89432" lon="2.38439">
        <ele>97.7</ele>
        <time>2015-04-13T18:41:04.760Z</time>
      </trkpt>
      <trkpt lat="48.89439" lon="2.38435">
        <ele>98.1</ele>
        <time>2015-04-13T18:41:05.778Z</time>
      </trkpt>
      <trkpt lat="48.89448" lon="2.38431">
        <ele>98.2</ele>
        <time>2015-04-13T18:41:06.811Z</time>
      </trkpt>
      <trkpt lat="48.89455" lon="2.38428">
        <ele>98.3</ele>
        <time>2015-04-13T18:41:07.864Z</time>
      </trkpt>
      <trkpt lat="48.89463" lon="2.38425">
        <ele>98.5</ele>
        <time>2015-04-13T18:41:08.767Z</time>
      </trkpt>
      <trkpt lat="48.89471" lon="2.3842">
        <ele>99.3</ele>
        <time>2015-04-13T18:41:09.787Z</time>
      </trkpt>
      <trkpt lat="48.89476" lon="2.38414">
        <ele>99.6</ele>
        <time>2015-04-13T18:41:10.801Z</time>
      </trkpt>
      <trkpt lat="48.89481" lon="2.38409">
        <ele>99.8</ele>
        <time>2015-04-13T18:41:11.850Z</time>
      </trkpt>
      <trkpt lat="48.89485" lon="2.38406">
        <ele>99.8</ele>
        <time>2015-04-13T18:41:12.855Z</time>
      </trkpt>
      <trkpt lat="48.8949" lon="2.38403">
        <ele>99.9</ele>
        <time>2015-04-13T18:41:13.869Z</time>
      </trkpt>
      <trkpt lat="48.89495" lon="2.38401">
        <ele>100</ele>
        <time>2015-04-13T18:41:14.772Z</time>
      </trkpt>
      <trkpt lat="48.895" lon="2.38398">
        <ele>100</ele>
        <time>2015-04-13T18:41:15.787Z</time>
      </trkpt>
      <trkpt lat="48.89505" lon="2.38397">
        <ele>100.1</ele>
        <time>2015-04-13T18:41:16.844Z</time>
      </trkpt>
      <trkpt lat="48.8951" lon="2.38394">
        <ele>100.2</ele>
        <time>2015-04-13T18:41:17.773Z</time>
      </trkpt>
      <trkpt lat="48.89515" lon="2.38391">
        <ele>100.2</ele>
        <time>2015-04-13T18:41:18.796Z</time>
      </trkpt>
      <trkpt lat="48.8952" lon="2.38389">
        <ele>100.3</ele>
        <time>2015-04-13T18:41:19.811Z</time>
      </trkpt>
      <trkpt lat="48.89524" lon="2.38387">
        <ele>100.4</ele>
        <time>2015-04-13T18:41:20.830Z</time>
      </trkpt>
      <trkpt lat="48.89529" lon="2.38386">
        <ele>100.7</ele>
        <time>2015-04-13T18:41:21.778Z</time>
      </trkpt>
      <trkpt lat="48.89533" lon="2.38383">
        <ele>100.9</ele>
        <time>2015-04-13T18:41:22.771Z</time>
      </trkpt>
      <trkpt lat="48.89541" lon="2.38378">
        <ele>101.3</ele>
        <time>2015-04-13T18:41:24.797Z</time>
      </trkpt>
      <trkpt lat="48.89545" lon="2.38376">
        <ele>101.5</ele>
        <time>2015-04-13T18:41:25.840Z</time>
      </trkpt>
      <trkpt lat="48.89551" lon="2.38373">
        <ele>101.5</ele>
        <time>2015-04-13T18:41:27.873Z</time>
      </trkpt>
      <trkpt lat="48.89553" lon="2.38371">
        <ele>101.5</ele>
        <time>2015-04-13T18:41:28.796Z</time>
      </trkpt>
      <trkpt lat="48.8956" lon="2.38365">
        <ele>100.3</ele>
        <time>2015-04-13T18:41:34.832Z</time>
      </trkpt>
      <trkpt lat="48.89561" lon="2.38364">
        <ele>100.2</ele>
        <time>2015-04-13T18:41:35.838Z</time>
      </trkpt>
      <trkpt lat="48.89565" lon="2.38363">
        <ele>101.9</ele>
        <time>2015-04-13T18:41:41.789Z</time>
      </trkpt>
      <trkpt lat="48.89566" lon="2.38363">
        <ele>101.4</ele>
        <time>2015-04-13T18:41:42.797Z</time>
      </trkpt>
      <trkpt lat="48.89566" lon="2.38363">
        <ele>101.3</ele>
        <time>2015-04-13T18:41:43.816Z</time>
      </trkpt>
      <trkpt lat="48.89567" lon="2.38364">
        <ele>101.2</ele>
        <time>2015-04-13T18:41:44.842Z</time>
      </trkpt>
      <trkpt lat="48.89575" lon="2.3837">
        <ele>101</ele>
        <time>2015-04-13T18:41:47.759Z</time>
      </trkpt>
      <trkpt lat="48.89578" lon="2.38372">
        <ele>101</ele>
        <time>2015-04-13T18:41:48.844Z</time>
      </trkpt>
      <trkpt lat="48.89584" lon="2.38378">
        <ele>101</ele>
        <time>2015-04-13T18:41:50.792Z</time>
      </trkpt>
      <trkpt lat="48.89586" lon="2.38381">
        <ele>101.3</ele>
        <time>2015-04-13T18:41:51.931Z</time>
      </trkpt>
      <trkpt lat="48.8959" lon="2.38389">
        <ele>101.1</ele>
        <time>2015-04-13T18:41:53.826Z</time>
      </trkpt>
      <trkpt lat="48.89592" lon="2.38393">
        <ele>101.1</ele>
        <time>2015-04-13T18:41:54.842Z</time>
      </trkpt>
      <trkpt lat="48.89596" lon="2.38402">
        <ele>101.3</ele>
        <time>2015-04-13T18:41:56.860Z</time>
      </trkpt>
      <trkpt lat="48.89598" lon="2.38407">
        <ele>101.4</ele>
        <time>2015-04-13T18:41:57.890Z</time>
      </trkpt>
      <trkpt lat="48.896" lon="2.38418">
        <ele>101.9</ele>
        <time>2015-04-13T18:41:59.826Z</time>
      </trkpt>
      <trkpt lat="48.89601" lon="2.38423">
        <ele>101.8</ele>
        <time>2015-04-13T18:42:00.846Z</time>
      </trkpt>
      <trkpt lat="48.89602" lon="2.38433">
        <ele>101.8</ele>
        <time>2015-04-13T18:42:02.893Z</time>
      </trkpt>
      <trkpt lat="48.89601" lon="2.38436">
        <ele>102</ele>
        <time>2015-04-13T18:42:03.804Z</time>
      </trkpt>
      <trkpt lat="48.89596" lon="2.38445">
        <ele>102.9</ele>
        <time>2015-04-13T18:42:06.841Z</time>
      </trkpt>
      <trkpt lat="48.89594" lon="2.38448">
        <ele>103</ele>
        <time>2015-04-13T18:42:07.810Z</time>
      </trkpt>
      <trkpt lat="48.89589" lon="2.38459">
        <ele>103.6</ele>
        <time>2015-04-13T18:42:10.752Z</time>
      </trkpt>
      <trkpt lat="48.89588" lon="2.38464">
        <ele>104.1</ele>
        <time>2015-04-13T18:42:11.783Z</time>
      </trkpt>
      <trkpt lat="48.89585" lon="2.38475">
        <ele>105</ele>
        <time>2015-04-13T18:42:14.572Z</time>
      </trkpt>
      <trkpt lat="48.89584" lon="2.38479">
        <ele>105.1</ele>
        <time>2015-04-13T18:42:15.767Z</time>
      </trkpt>
      <trkpt lat="48.8958" lon="2.38489">
        <ele>104.8</ele>
        <time>2015-04-13T18:42:19.662Z</time>
      </trkpt>
      <trkpt lat="48.8958" lon="2.38492">
        <ele>104.8</ele>
        <time>2015-04-13T18:42:19.875Z</time>
      </trkpt>
      <trkpt lat="48.89574" lon="2.38502">
        <ele>104.8</ele>
        <time>2015-04-13T18:42:22.808Z</time>
      </trkpt>
      <trkpt lat="48.89573" lon="2.38504">
        <ele>104.6</ele>
        <time>2015-04-13T18:42:23.811Z</time>
      </trkpt>
      <trkpt lat="48.89568" lon="2.38516">
        <ele>104.8</ele>
        <time>2015-04-13T18:42:27.864Z</time>
      </trkpt>
      <trkpt lat="48.89568" lon="2.38517">
        <ele>104.7</ele>
        <time>2015-04-13T18:42:28.882Z</time>
      </trkpt>
      <trkpt lat="48.89568" lon="2.38528">
        <ele>104</ele>
        <time>2015-04-13T18:42:32.835Z</time>
      </trkpt>
      <trkpt lat="48.89567" lon="2.38531">
        <ele>104</ele>
        <time>2015-04-13T18:42:33.867Z</time>
      </trkpt>
      <trkpt lat="48.89565" lon="2.38541">
        <ele>104</ele>
        <time>2015-04-13T18:43:01.811Z</time>
      </trkpt>
      <trkpt lat="48.89559" lon="2.38544">
        <ele>101.6</ele>
        <time>2015-04-13T18:43:02.817Z</time>
      </trkpt>
      <trkpt lat="48.89551" lon="2.38549">
        <ele>100.7</ele>
        <time>2015-04-13T18:43:10.658Z</time>
      </trkpt>
      <trkpt lat="48.8955" lon="2.38549">
        <ele>100.2</ele>
        <time>2015-04-13T18:43:10.814Z</time>
      </trkpt>
      <trkpt lat="48.89542" lon="2.38548">
        <ele>99.7</ele>
        <time>2015-04-13T18:43:15.776Z</time>
      </trkpt>
      <trkpt lat="48.8954" lon="2.38549">
        <ele>99.7</ele>
        <time>2015-04-13T18:43:16.797Z</time>
      </trkpt>
      <trkpt lat="48.89533" lon="2.38555">
        <ele>99.7</ele>
        <time>2015-04-13T18:43:20.853Z</time>
      </trkpt>
      <trkpt lat="48.89531" lon="2.38557">
        <ele>99.7</ele>
        <time>2015-04-13T18:43:21.843Z</time>
      </trkpt>
      <trkpt lat="48.89526" lon="2.38566">
        <ele>99.6</ele>
        <time>2015-04-13T18:43:24.873Z</time>
      </trkpt>
      <trkpt lat="48.89524" lon="2.3857">
        <ele>99.8</ele>
        <time>2015-04-13T18:43:25.768Z</time>
      </trkpt>
      <trkpt lat="48.89519" lon="2.38576">
        <ele>100.1</ele>
        <time>2015-04-13T18:43:27.838Z</time>
      </trkpt>
      <trkpt lat="48.89516" lon="2.38579">
        <ele>100.2</ele>
        <time>2015-04-13T18:43:28.829Z</time>
      </trkpt>
      <trkpt lat="48.8951" lon="2.38585">
        <ele>100.6</ele>
        <time>2015-04-13T18:43:30.847Z</time>
      </trkpt>
      <trkpt lat="48.89508" lon="2.38588">
        <ele>100.7</ele>
        <time>2015-04-13T18:43:31.866Z</time>
      </trkpt>
      <trkpt lat="48.89503" lon="2.38594">
        <ele>100.8</ele>
        <time>2015-04-13T18:43:33.793Z</time>
      </trkpt>
      <trkpt lat="48.89501" lon="2.38598">
        <ele>100.9</ele>
        <time>2015-04-13T18:43:34.781Z</time>
      </trkpt>
      <trkpt lat="48.89497" lon="2.38609">
        <ele>101.2</ele>
        <time>2015-04-13T18:43:37.847Z</time>
      </trkpt>
      <trkpt lat="48.89497" lon="2.38611">
        <ele>101.2</ele>
        <time>2015-04-13T18:43:38.772Z</time>
      </trkpt>
      <trkpt lat="48.89492" lon="2.38621">
        <ele>101.8</ele>
        <time>2015-04-13T18:43:44.909Z</time>
      </trkpt>
      <trkpt lat="48.8949" lon="2.38624">
        <ele>101.9</ele>
        <time>2015-04-13T18:43:45.823Z</time>
      </trkpt>
      <trkpt lat="48.89485" lon="2.38633">
        <ele>101.7</ele>
        <time>2015-04-13T18:43:48.842Z</time>
      </trkpt>
      <trkpt lat="48.89484" lon="2.38637">
        <ele>101.8</ele>
        <time>2015-04-13T18:43:49.747Z</time>
      </trkpt>
      <trkpt lat="48.89481" lon="2.38647">
        <ele>101.9</ele>
        <time>2015-04-13T18:43:51.792Z</time>
      </trkpt>
      <trkpt lat="48.89479" lon="2.38652">
        <ele>101.1</ele>
        <time>2015-04-13T18:43:52.799Z</time>
      </trkpt>
      <trkpt lat="48.89476" lon="2.38664">
        <ele>100.1</ele>
        <time>2015-04-13T18:43:54.840Z</time>
      </trkpt>
      <trkpt lat="48.89474" lon="2.38668">
        <ele>99.7</ele>
        <time>2015-04-13T18:43:55.849Z</time>
      </trkpt>
      <trkpt lat="48.8947" lon="2.38677">
        <ele>98.7</ele>
        <time>2015-04-13T18:43:57.758Z</time>
      </trkpt>
      <trkpt lat="48.89469" lon="2.38682">
        <ele>98.4</ele>
        <time>2015-04-13T18:43:58.764Z</time>
      </trkpt>
      <trkpt lat="48.89466" lon="2.38692">
        <ele>97.9</ele>
        <time>2015-04-13T18:44:00.800Z</time>
      </trkpt>
      <trkpt lat="48.89465" lon="2.38697">
        <ele>98.3</ele>
        <time>2015-04-13T18:44:01.814Z</time>
      </trkpt>
      <trkpt lat="48.89459" lon="2.38703">
        <ele>98.5</ele>
        <time>2015-04-13T18:44:03.833Z</time>
      </trkpt>
      <trkpt lat="48.8945" lon="2.387">
        <ele>98.3</ele>
        <time>2015-04-13T18:44:04.789Z</time>
      </trkpt>
      <trkpt lat="48.89443" lon="2.38697">
        <ele>98.1</ele>
        <time>2015-04-13T18:44:05.771Z</time>
      </trkpt>
      <trkpt lat="48.89435" lon="2.38695">
        <ele>97.8</ele>
        <time>2015-04-13T18:44:06.786Z</time>
      </trkpt>
      <trkpt lat="48.89428" lon="2.38697">
        <ele>98.1</ele>
        <time>2015-04-13T18:44:08.803Z</time>
      </trkpt>
      <trkpt lat="48.89424" lon="2.38699">
        <ele>98.5</ele>
        <time>2015-04-13T18:44:09.839Z</time>
      </trkpt>
      <trkpt lat="48.89421" lon="2.38701">
        <ele>99.1</ele>
        <time>2015-04-13T18:44:10.860Z</time>
      </trkpt>
      <trkpt lat="48.89415" lon="2.38705">
        <ele>100.3</ele>
        <time>2015-04-13T18:44:11.767Z</time>
      </trkpt>
      <trkpt lat="48.89411" lon="2.38713">
        <ele>101.6</ele>
        <time>2015-04-13T18:44:13.849Z</time>
      </trkpt>
      <trkpt lat="48.89411" lon="2.38719">
        <ele>101.7</ele>
        <time>2015-04-13T18:44:14.839Z</time>
      </trkpt>
      <trkpt lat="48.89411" lon="2.3873">
        <ele>102.2</ele>
        <time>2015-04-13T18:44:16.774Z</time>
      </trkpt>
      <trkpt lat="48.89413" lon="2.38734">
        <ele>102.3</ele>
        <time>2015-04-13T18:44:17.806Z</time>
      </trkpt>
      <trkpt lat="48.89417" lon="2.38739">
        <ele>102.2</ele>
        <time>2015-04-13T18:44:19.848Z</time>
      </trkpt>
      <trkpt lat="48.89422" lon="2.38739">
        <ele>102.5</ele>
        <time>2015-04-13T18:44:20.867Z</time>
      </trkpt>
      <trkpt lat="48.89427" lon="2.38745">
        <ele>103</ele>
        <time>2015-04-13T18:44:22.858Z</time>
      </trkpt>
      <trkpt lat="48.89429" lon="2.38747">
        <ele>103</ele>
        <time>2015-04-13T18:44:23.782Z</time>
      </trkpt>
      <trkpt lat="48.89436" lon="2.38755">
        <ele>103.2</ele>
        <time>2015-04-13T18:44:26.791Z</time>
      </trkpt>
      <trkpt lat="48.89438" lon="2.38757">
        <ele>103.2</ele>
        <time>2015-04-13T18:44:27.799Z</time>
      </trkpt>
      <trkpt lat="48.89445" lon="2.38764">
        <ele>103.5</ele>
        <time>2015-04-13T18:44:29.757Z</time>
      </trkpt>
      <trkpt lat="48.89449" lon="2.38767">
        <ele>103.7</ele>
        <time>2015-04-13T18:44:30.816Z</time>
      </trkpt>
      <trkpt lat="48.89454" lon="2.38769">
        <ele>104</ele>
        <time>2015-04-13T18:44:31.837Z</time>
      </trkpt>
      <trkpt lat="48.89459" lon="2.38771">
        <ele>104.4</ele>
        <time>2015-04-13T18:44:32.859Z</time>
      </trkpt>
      <trkpt lat="48.89465" lon="2.38773">
        <ele>105</ele>
        <time>2015-04-13T18:44:33.802Z</time>
      </trkpt>
      <trkpt lat="48.8947" lon="2.38774">
        <ele>105.6</ele>
        <time>2015-04-13T18:44:34.753Z</time>
      </trkpt>
      <trkpt lat="48.89475" lon="2.38776">
        <ele>106.3</ele>
        <time>2015-04-13T18:44:35.790Z</time>
      </trkpt>
      <trkpt lat="48.8948" lon="2.38779">
        <ele>107.1</ele>
        <time>2015-04-13T18:44:36.805Z</time>
      </trkpt>
      <trkpt lat="48.89486" lon="2.38788">
        <ele>107</ele>
        <time>2015-04-13T18:44:38.822Z</time>
      </trkpt>
      <trkpt lat="48.89489" lon="2.38793">
        <ele>107</ele>
        <time>2015-04-13T18:44:39.832Z</time>
      </trkpt>
      <trkpt lat="48.89496" lon="2.38801">
        <ele>107.1</ele>
        <time>2015-04-13T18:44:41.840Z</time>
      </trkpt>
      <trkpt lat="48.895" lon="2.38805">
        <ele>107.4</ele>
        <time>2015-04-13T18:44:42.842Z</time>
      </trkpt>
      <trkpt lat="48.89506" lon="2.38814">
        <ele>107.7</ele>
        <time>2015-04-13T18:44:44.752Z</time>
      </trkpt>
      <trkpt lat="48.89509" lon="2.38817">
        <ele>107.9</ele>
        <time>2015-04-13T18:44:45.775Z</time>
      </trkpt>
      <trkpt lat="48.89516" lon="2.38824">
        <ele>108.3</ele>
        <time>2015-04-13T18:44:47.806Z</time>
      </trkpt>
      <trkpt lat="48.8952" lon="2.38827">
        <ele>108.7</ele>
        <time>2015-04-13T18:44:48.817Z</time>
      </trkpt>
      <trkpt lat="48.89524" lon="2.38836">
        <ele>109.8</ele>
        <time>2015-04-13T18:44:50.812Z</time>
      </trkpt>
      <trkpt lat="48.89526" lon="2.3884">
        <ele>110.1</ele>
        <time>2015-04-13T18:44:51.857Z</time>
      </trkpt>
      <trkpt lat="48.89531" lon="2.38848">
        <ele>111.3</ele>
        <time>2015-04-13T18:44:53.814Z</time>
      </trkpt>
      <trkpt lat="48.89533" lon="2.38851">
        <ele>112.2</ele>
        <time>2015-04-13T18:44:54.860Z</time>
      </trkpt>
      <trkpt lat="48.89532" lon="2.38863">
        <ele>114.4</ele>
        <time>2015-04-13T18:44:56.816Z</time>
      </trkpt>
      <trkpt lat="48.89532" lon="2.38867">
        <ele>114.8</ele>
        <time>2015-04-13T18:44:57.770Z</time>
      </trkpt>
      <trkpt lat="48.89532" lon="2.38879">
        <ele>115.7</ele>
        <time>2015-04-13T18:45:01.813Z</time>
      </trkpt>
      <trkpt lat="48.89532" lon="2.38882">
        <ele>116.7</ele>
        <time>2015-04-13T18:45:02.830Z</time>
      </trkpt>
      <trkpt lat="48.89534" lon="2.3889">
        <ele>117.8</ele>
        <time>2015-04-13T18:45:06.814Z</time>
      </trkpt>
      <trkpt lat="48.89529" lon="2.38896">
        <ele>118.7</ele>
        <time>2015-04-13T18:45:07.819Z</time>
      </trkpt>
      <trkpt lat="48.89522" lon="2.38903">
        <ele>118.4</ele>
        <time>2015-04-13T18:45:09.859Z</time>
      </trkpt>
      <trkpt lat="48.8952" lon="2.38903">
        <ele>118.1</ele>
        <time>2015-04-13T18:45:10.855Z</time>
      </trkpt>
      <trkpt lat="48.89516" lon="2.38897">
        <ele>116.2</ele>
        <time>2015-04-13T18:45:15.832Z</time>
      </trkpt>
      <trkpt lat="48.89512" lon="2.38895">
        <ele>114.6</ele>
        <time>2015-04-13T18:45:16.754Z</time>
      </trkpt>
      <trkpt lat="48.89518" lon="2.38887">
        <ele>112.5</ele>
        <time>2015-04-13T18:45:26.791Z</time>
      </trkpt>
      <trkpt lat="48.89521" lon="2.38889">
        <ele>112.6</ele>
        <time>2015-04-13T18:45:27.830Z</time>
      </trkpt>
      <trkpt lat="48.89528" lon="2.38896">
        <ele>112.4</ele>
        <time>2015-04-13T18:45:29.779Z</time>
      </trkpt>
      <trkpt lat="48.8953" lon="2.389">
        <ele>112.2</ele>
        <time>2015-04-13T18:45:30.821Z</time>
      </trkpt>
      <trkpt lat="48.89535" lon="2.38906">
        <ele>111.4</ele>
        <time>2015-04-13T18:45:32.855Z</time>
      </trkpt>
      <trkpt lat="48.89538" lon="2.38908">
        <ele>111.2</ele>
        <time>2015-04-13T18:45:33.876Z</time>
      </trkpt>
      <trkpt lat="48.89544" lon="2.38917">
        <ele>111.1</ele>
        <time>2015-04-13T18:45:36.820Z</time>
      </trkpt>
      <trkpt lat="48.89546" lon="2.38921">
        <ele>111</ele>
        <time>2015-04-13T18:45:37.838Z</time>
      </trkpt>
      <trkpt lat="48.89551" lon="2.3893">
        <ele>110.3</ele>
        <time>2015-04-13T18:45:40.804Z</time>
      </trkpt>
      <trkpt lat="48.89553" lon="2.38934">
        <ele>109.6</ele>
        <time>2015-04-13T18:45:41.819Z</time>
      </trkpt>
      <trkpt lat="48.89558" lon="2.38938">
        <ele>109.3</ele>
        <time>2015-04-13T18:45:43.853Z</time>
      </trkpt>
      <trkpt lat="48.89562" lon="2.38941">
        <ele>109.7</ele>
        <time>2015-04-13T18:45:44.872Z</time>
      </trkpt>
      <trkpt lat="48.89567" lon="2.38948">
        <ele>109.4</ele>
        <time>2015-04-13T18:45:46.791Z</time>
      </trkpt>
      <trkpt lat="48.8957" lon="2.38951">
        <ele>109.5</ele>
        <time>2015-04-13T18:45:47.838Z</time>
      </trkpt>
      <trkpt lat="48.89576" lon="2.38957">
        <ele>110.3</ele>
        <time>2015-04-13T18:45:49.803Z</time>
      </trkpt>
      <trkpt lat="48.89579" lon="2.3896">
        <ele>110.7</ele>
        <time>2015-04-13T18:45:50.766Z</time>
      </trkpt>
      <trkpt lat="48.89585" lon="2.38967">
        <ele>111.2</ele>
        <time>2015-04-13T18:45:52.794Z</time>
      </trkpt>
      <trkpt lat="48.89587" lon="2.38972">
        <ele>111.3</ele>
        <time>2015-04-13T18:45:53.807Z</time>
      </trkpt>
      <trkpt lat="48.89591" lon="2.3898">
        <ele>111.5</ele>
        <time>2015-04-13T18:45:55.766Z</time>
      </trkpt>
      <trkpt lat="48.89593" lon="2.38985">
        <ele>111.4</ele>
        <time>2015-04-13T18:45:56.771Z</time>
      </trkpt>
      <trkpt lat="48.89598" lon="2.38993">
        <ele>112</ele>
        <time>2015-04-13T18:45:58.778Z</time>
      </trkpt>
      <trkpt lat="48.896" lon="2.38997">
        <ele>112</ele>
        <time>2015-04-13T18:45:59.784Z</time>
      </trkpt>
      <trkpt lat="48.89605" lon="2.39006">
        <ele>112.3</ele>
        <time>2015-04-13T18:46:01.813Z</time>
      </trkpt>
      <trkpt lat="48.89607" lon="2.39011">
        <ele>112.7</ele>
        <time>2015-04-13T18:46:02.839Z</time>
      </trkpt>
      <trkpt lat="48.89612" lon="2.39021">
        <ele>113.3</ele>
        <time>2015-04-13T18:46:04.870Z</time>
      </trkpt>
      <trkpt lat="48.89614" lon="2.39027">
        <ele>113.2</ele>
        <time>2015-04-13T18:46:05.789Z</time>
      </trkpt>
      <trkpt lat="48.89619" lon="2.39037">
        <ele>113.3</ele>
        <time>2015-04-13T18:46:07.808Z</time>
      </trkpt>
      <trkpt lat="48.8962" lon="2.39043">
        <ele>113.5</ele>
        <time>2015-04-13T18:46:08.838Z</time>
      </trkpt>
      <trkpt lat="48.89623" lon="2.39054">
        <ele>113.8</ele>
        <time>2015-04-13T18:46:10.791Z</time>
      </trkpt>
      <trkpt lat="48.89625" lon="2.39059">
        <ele>114.1</ele>
        <time>2015-04-13T18:46:11.788Z</time>
      </trkpt>
      <trkpt lat="48.89629" lon="2.3907">
        <ele>114.2</ele>
        <time>2015-04-13T18:46:13.833Z</time>
      </trkpt>
      <trkpt lat="48.89631" lon="2.39075">
        <ele>114.1</ele>
        <time>2015-04-13T18:46:14.859Z</time>
      </trkpt>
      <trkpt lat="48.89636" lon="2.39085">
        <ele>114.4</ele>
        <time>2015-04-13T18:46:16.784Z</time>
      </trkpt>
      <trkpt lat="48.89638" lon="2.3909">
        <ele>114.5</ele>
        <time>2015-04-13T18:46:17.798Z</time>
      </trkpt>
      <trkpt lat="48.89643" lon="2.391">
        <ele>114.4</ele>
        <time>2015-04-13T18:46:19.829Z</time>
      </trkpt>
      <trkpt lat="48.89645" lon="2.39104">
        <ele>114.3</ele>
        <time>2015-04-13T18:46:20.859Z</time>
      </trkpt>
      <trkpt lat="48.89648" lon="2.39113">
        <ele>114.4</ele>
        <time>2015-04-13T18:46:22.773Z</time>
      </trkpt>
      <trkpt lat="48.8965" lon="2.39118">
        <ele>114.4</ele>
        <time>2015-04-13T18:46:23.796Z</time>
      </trkpt>
      <trkpt lat="48.89653" lon="2.39128">
        <ele>114.8</ele>
        <time>2015-04-13T18:46:25.832Z</time>
      </trkpt>
      <trkpt lat="48.89653" lon="2.39134">
        <ele>114.9</ele>
        <time>2015-04-13T18:46:26.854Z</time>
      </trkpt>
      <trkpt lat="48.89656" lon="2.39144">
        <ele>115.1</ele>
        <time>2015-04-13T18:46:28.811Z</time>
      </trkpt>
      <trkpt lat="48.89658" lon="2.39148">
        <ele>115.2</ele>
        <time>2015-04-13T18:46:29.863Z</time>
      </trkpt>
      <trkpt lat="48.8966" lon="2.39157">
        <ele>115.5</ele>
        <time>2015-04-13T18:46:31.837Z</time>
      </trkpt>
      <trkpt lat="48.89662" lon="2.39161">
        <ele>115.6</ele>
        <time>2015-04-13T18:46:32.869Z</time>
      </trkpt>
      <trkpt lat="48.89664" lon="2.39174">
        <ele>113.4</ele>
        <time>2015-04-13T18:46:35.863Z</time>
      </trkpt>
      <trkpt lat="48.89663" lon="2.39179">
        <ele>112.4</ele>
        <time>2015-04-13T18:46:36.809Z</time>
      </trkpt>
      <trkpt lat="48.89665" lon="2.39189">
        <ele>111</ele>
        <time>2015-04-13T18:46:38.837Z</time>
      </trkpt>
      <trkpt lat="48.89666" lon="2.39194">
        <ele>110.3</ele>
        <time>2015-04-13T18:46:39.859Z</time>
      </trkpt>
      <trkpt lat="48.89669" lon="2.39204">
        <ele>109.2</ele>
        <time>2015-04-13T18:46:41.788Z</time>
      </trkpt>
      <trkpt lat="48.89671" lon="2.39208">
        <ele>108.9</ele>
        <time>2015-04-13T18:46:42.819Z</time>
      </trkpt>
      <trkpt lat="48.89674" lon="2.39217">
        <ele>108.1</ele>
        <time>2015-04-13T18:46:44.762Z</time>
      </trkpt>
      <trkpt lat="48.89675" lon="2.39221">
        <ele>108.1</ele>
        <time>2015-04-13T18:46:45.842Z</time>
      </trkpt>
      <trkpt lat="48.89674" lon="2.39233">
        <ele>108</ele>
        <time>2015-04-13T18:46:48.797Z</time>
      </trkpt>
      <trkpt lat="48.89672" lon="2.39237">
        <ele>107.6</ele>
        <time>2015-04-13T18:46:49.817Z</time>
      </trkpt>
      <trkpt lat="48.89666" lon="2.39243">
        <ele>107</ele>
        <time>2015-04-13T18:46:51.853Z</time>
      </trkpt>
      <trkpt lat="48.89664" lon="2.39246">
        <ele>106.6</ele>
        <time>2015-04-13T18:46:52.846Z</time>
      </trkpt>
      <trkpt lat="48.89658" lon="2.39252">
        <ele>106.2</ele>
        <time>2015-04-13T18:46:54.807Z</time>
      </trkpt>
      <trkpt lat="48.89655" lon="2.39255">
        <ele>106</ele>
        <time>2015-04-13T18:46:55.811Z</time>
      </trkpt>
      <trkpt lat="48.8965" lon="2.39261">
        <ele>106</ele>
        <time>2015-04-13T18:46:57.846Z</time>
      </trkpt>
      <trkpt lat="48.89647" lon="2.39264">
        <ele>106.1</ele>
        <time>2015-04-13T18:46:58.856Z</time>
      </trkpt>
      <trkpt lat="48.89641" lon="2.39268">
        <ele>106.3</ele>
        <time>2015-04-13T18:47:00.776Z</time>
      </trkpt>
      <trkpt lat="48.89638" lon="2.39271">
        <ele>106.3</ele>
        <time>2015-04-13T18:47:01.847Z</time>
      </trkpt>
      <trkpt lat="48.89632" lon="2.39281">
        <ele>106.2</ele>
        <time>2015-04-13T18:47:04.868Z</time>
      </trkpt>
      <trkpt lat="48.8963" lon="2.39282">
        <ele>106</ele>
        <time>2015-04-13T18:47:05.819Z</time>
      </trkpt>
      <trkpt lat="48.89623" lon="2.39289">
        <ele>105.8</ele>
        <time>2015-04-13T18:47:09.269Z</time>
      </trkpt>
      <trkpt lat="48.8962" lon="2.39291">
        <ele>105.8</ele>
        <time>2015-04-13T18:47:09.787Z</time>
      </trkpt>
      <trkpt lat="48.89615" lon="2.39297">
        <ele>105.9</ele>
        <time>2015-04-13T18:47:11.795Z</time>
      </trkpt>
      <trkpt lat="48.89612" lon="2.39299">
        <ele>106</ele>
        <time>2015-04-13T18:47:12.844Z</time>
      </trkpt>
      <trkpt lat="48.89605" lon="2.39303">
        <ele>105.6</ele>
        <time>2015-04-13T18:47:14.843Z</time>
      </trkpt>
      <trkpt lat="48.89602" lon="2.39305">
        <ele>105.4</ele>
        <time>2015-04-13T18:47:15.864Z</time>
      </trkpt>
      <trkpt lat="48.89595" lon="2.39309">
        <ele>105.1</ele>
        <time>2015-04-13T18:47:17.876Z</time>
      </trkpt>
      <trkpt lat="48.89592" lon="2.39311">
        <ele>105</ele>
        <time>2015-04-13T18:47:18.897Z</time>
      </trkpt>
      <trkpt lat="48.89585" lon="2.39316">
        <ele>105</ele>
        <time>2015-04-13T18:47:21.789Z</time>
      </trkpt>
      <trkpt lat="48.89583" lon="2.3932">
        <ele>105.1</ele>
        <time>2015-04-13T18:47:22.802Z</time>
      </trkpt>
      <trkpt lat="48.89575" lon="2.39324">
        <ele>105</ele>
        <time>2015-04-13T18:47:26.848Z</time>
      </trkpt>
      <trkpt lat="48.89574" lon="2.39324">
        <ele>105</ele>
        <time>2015-04-13T18:47:27.857Z</time>
      </trkpt>
      <trkpt lat="48.89571" lon="2.39337">
        <ele>105.1</ele>
        <time>2015-04-13T18:47:37.906Z</time>
      </trkpt>
      <trkpt lat="48.89571" lon="2.39339">
        <ele>105.2</ele>
        <time>2015-04-13T18:47:38.817Z</time>
      </trkpt>
      <trkpt lat="48.89567" lon="2.39349">
        <ele>104.8</ele>
        <time>2015-04-13T18:47:43.844Z</time>
      </trkpt>
      <trkpt lat="48.89564" lon="2.39351">
        <ele>104.8</ele>
        <time>2015-04-13T18:47:44.776Z</time>
      </trkpt>
      <trkpt lat="48.89556" lon="2.39355">
        <ele>104.5</ele>
        <time>2015-04-13T18:47:47.778Z</time>
      </trkpt>
      <trkpt lat="48.89554" lon="2.39356">
        <ele>104.4</ele>
        <time>2015-04-13T18:47:48.836Z</time>
      </trkpt>
      <trkpt lat="48.8954" lon="2.39373">
        <ele>104</ele>
        <time>2015-04-13T18:48:00.844Z</time>
      </trkpt>
      <trkpt lat="48.89541" lon="2.3938">
        <ele>103.9</ele>
        <time>2015-04-13T18:48:01.862Z</time>
      </trkpt>
      <trkpt lat="48.89545" lon="2.39391">
        <ele>104.9</ele>
        <time>2015-04-13T18:48:02.771Z</time>
      </trkpt>
      <trkpt lat="48.89549" lon="2.394">
        <ele>106.5</ele>
        <time>2015-04-13T18:48:03.770Z</time>
      </trkpt>
      <trkpt lat="48.89552" lon="2.39406">
        <ele>107.2</ele>
        <time>2015-04-13T18:48:04.792Z</time>
      </trkpt>
      <trkpt lat="48.89557" lon="2.39427">
        <ele>106.8</ele>
        <time>2015-04-13T18:48:10.747Z</time>
      </trkpt>
      <trkpt lat="48.89557" lon="2.39435">
        <ele>106.4</ele>
        <time>2015-04-13T18:48:12.822Z</time>
      </trkpt>
      <trkpt lat="48.89562" lon="2.39441">
        <ele>105.2</ele>
        <time>2015-04-13T18:48:13.762Z</time>
      </trkpt>
      <trkpt lat="48.89568" lon="2.39446">
        <ele>103.4</ele>
        <time>2015-04-13T18:48:14.744Z</time>
      </trkpt>
      <trkpt lat="48.89573" lon="2.39452">
        <ele>101.5</ele>
        <time>2015-04-13T18:48:15.765Z</time>
      </trkpt>
      <trkpt lat="48.89581" lon="2.39458">
        <ele>96.9</ele>
        <time>2015-04-13T18:48:16.780Z</time>
      </trkpt>
      <trkpt lat="48.89585" lon="2.39465">
        <ele>96.6</ele>
        <time>2015-04-13T18:48:17.792Z</time>
      </trkpt>
      <trkpt lat="48.89588" lon="2.39474">
        <ele>95.2</ele>
        <time>2015-04-13T18:48:18.805Z</time>
      </trkpt>
      <trkpt lat="48.89593" lon="2.39485">
        <ele>93.7</ele>
        <time>2015-04-13T18:48:19.806Z</time>
      </trkpt>
      <trkpt lat="48.89597" lon="2.39497">
        <ele>94.2</ele>
        <time>2015-04-13T18:48:20.822Z</time>
      </trkpt>
      <trkpt lat="48.89601" lon="2.39507">
        <ele>93.6</ele>
        <time>2015-04-13T18:48:21.804Z</time>
      </trkpt>
      <trkpt lat="48.89604" lon="2.39518">
        <ele>92.8</ele>
        <time>2015-04-13T18:48:22.776Z</time>
      </trkpt>
      <trkpt lat="48.89606" lon="2.39527">
        <ele>93.1</ele>
        <time>2015-04-13T18:48:23.801Z</time>
      </trkpt>
      <trkpt lat="48.89608" lon="2.39535">
        <ele>92.8</ele>
        <time>2015-04-13T18:48:24.830Z</time>
      </trkpt>
      <trkpt lat="48.89609" lon="2.39542">
        <ele>92.1</ele>
        <time>2015-04-13T18:48:25.828Z</time>
      </trkpt>
      <trkpt lat="48.8961" lon="2.39549">
        <ele>92.4</ele>
        <time>2015-04-13T18:48:26.867Z</time>
      </trkpt>
      <trkpt lat="48.89612" lon="2.39555">
        <ele>92.5</ele>
        <time>2015-04-13T18:48:27.801Z</time>
      </trkpt>
      <trkpt lat="48.89613" lon="2.39562">
        <ele>92.7</ele>
        <time>2015-04-13T18:48:28.793Z</time>
      </trkpt>
      <trkpt lat="48.89615" lon="2.39575">
        <ele>94</ele>
        <time>2015-04-13T18:48:30.815Z</time>
      </trkpt>
      <trkpt lat="48.89616" lon="2.39582">
        <ele>94.9</ele>
        <time>2015-04-13T18:48:31.845Z</time>
      </trkpt>
      <trkpt lat="48.89618" lon="2.39589">
        <ele>95.4</ele>
        <time>2015-04-13T18:48:32.862Z</time>
      </trkpt>
      <trkpt lat="48.89619" lon="2.39595">
        <ele>96.1</ele>
        <time>2015-04-13T18:48:33.782Z</time>
      </trkpt>
      <trkpt lat="48.89623" lon="2.39606">
        <ele>97.3</ele>
        <time>2015-04-13T18:48:35.779Z</time>
      </trkpt>
      <trkpt lat="48.89624" lon="2.39612">
        <ele>97.5</ele>
        <time>2015-04-13T18:48:36.830Z</time>
      </trkpt>
      <trkpt lat="48.89625" lon="2.39619">
        <ele>98.8</ele>
        <time>2015-04-13T18:48:34.867Z</time>
      </trkpt>
      <trkpt lat="48.89624" lon="2.39627">
        <ele>98.5</ele>
        <time>2015-04-13T18:48:38.832Z</time>
      </trkpt>
      <trkpt lat="48.89624" lon="2.39637">
        <ele>99.3</ele>
        <time>2015-04-13T18:48:40.833Z</time>
      </trkpt>
      <trkpt lat="48.89626" lon="2.39649">
        <ele>98.5</ele>
        <time>2015-04-13T18:48:42.746Z</time>
      </trkpt>
      <trkpt lat="48.89627" lon="2.39656">
        <ele>97.9</ele>
        <time>2015-04-13T18:48:43.758Z</time>
      </trkpt>
      <trkpt lat="48.89628" lon="2.39663">
        <ele>97.9</ele>
        <time>2015-04-13T18:48:44.761Z</time>
      </trkpt>
      <trkpt lat="48.8963" lon="2.3967">
        <ele>98.1</ele>
        <time>2015-04-13T18:48:45.786Z</time>
      </trkpt>
      <trkpt lat="48.8963" lon="2.39677">
        <ele>98.2</ele>
        <time>2015-04-13T18:48:46.799Z</time>
      </trkpt>
      <trkpt lat="48.89632" lon="2.39684">
        <ele>98.2</ele>
        <time>2015-04-13T18:48:47.811Z</time>
      </trkpt>
      <trkpt lat="48.89633" lon="2.39691">
        <ele>98.5</ele>
        <time>2015-04-13T18:48:48.820Z</time>
      </trkpt>
      <trkpt lat="48.89635" lon="2.39699">
        <ele>98.6</ele>
        <time>2015-04-13T18:48:50.018Z</time>
      </trkpt>
      <trkpt lat="48.89635" lon="2.39705">
        <ele>98.3</ele>
        <time>2015-04-13T18:48:50.718Z</time>
      </trkpt>
      <trkpt lat="48.89637" lon="2.39714">
        <ele>99</ele>
        <time>2015-04-13T18:48:52.746Z</time>
      </trkpt>
      <trkpt lat="48.89638" lon="2.3972">
        <ele>99.1</ele>
        <time>2015-04-13T18:48:53.766Z</time>
      </trkpt>
      <trkpt lat="48.89641" lon="2.39732">
        <ele>99.2</ele>
        <time>2015-04-13T18:48:55.811Z</time>
      </trkpt>
      <trkpt lat="48.89644" lon="2.3974">
        <ele>98.5</ele>
        <time>2015-04-13T18:48:56.835Z</time>
      </trkpt>
      <trkpt lat="48.89647" lon="2.39749">
        <ele>98.4</ele>
        <time>2015-04-13T18:48:57.751Z</time>
      </trkpt>
      <trkpt lat="48.8965" lon="2.39758">
        <ele>98.2</ele>
        <time>2015-04-13T18:48:58.741Z</time>
      </trkpt>
      <trkpt lat="48.89653" lon="2.39767">
        <ele>98.3</ele>
        <time>2015-04-13T18:48:59.768Z</time>
      </trkpt>
      <trkpt lat="48.89655" lon="2.39775">
        <ele>98.2</ele>
        <time>2015-04-13T18:49:00.787Z</time>
      </trkpt>
      <trkpt lat="48.89657" lon="2.39783">
        <ele>98.1</ele>
        <time>2015-04-13T18:49:01.830Z</time>
      </trkpt>
      <trkpt lat="48.89658" lon="2.39789">
        <ele>98</ele>
        <time>2015-04-13T18:49:02.757Z</time>
      </trkpt>
      <trkpt lat="48.89657" lon="2.39802">
        <ele>98.1</ele>
        <time>2015-04-13T18:49:04.773Z</time>
      </trkpt>
      <trkpt lat="48.89657" lon="2.39809">
        <ele>97.9</ele>
        <time>2015-04-13T18:49:05.789Z</time>
      </trkpt>
      <trkpt lat="48.89653" lon="2.3982">
        <ele>97.3</ele>
        <time>2015-04-13T18:49:07.848Z</time>
      </trkpt>
      <trkpt lat="48.89651" lon="2.39827">
        <ele>97</ele>
        <time>2015-04-13T18:49:08.755Z</time>
      </trkpt>
      <trkpt lat="48.8965" lon="2.39834">
        <ele>96.8</ele>
        <time>2015-04-13T18:49:09.762Z</time>
      </trkpt>
      <trkpt lat="48.89649" lon="2.39841">
        <ele>96.2</ele>
        <time>2015-04-13T18:49:10.763Z</time>
      </trkpt>
      <trkpt lat="48.89647" lon="2.39854">
        <ele>96</ele>
        <time>2015-04-13T18:49:12.794Z</time>
      </trkpt>
      <trkpt lat="48.89646" lon="2.3986">
        <ele>95.8</ele>
        <time>2015-04-13T18:49:13.814Z</time>
      </trkpt>
      <trkpt lat="48.89644" lon="2.39868">
        <ele>96.4</ele>
        <time>2015-04-13T18:49:14.825Z</time>
      </trkpt>
      <trkpt lat="48.89641" lon="2.39875">
        <ele>97.5</ele>
        <time>2015-04-13T18:49:15.862Z</time>
      </trkpt>
      <trkpt lat="48.89639" lon="2.39882">
        <ele>98.1</ele>
        <time>2015-04-13T18:49:16.770Z</time>
      </trkpt>
      <trkpt lat="48.89638" lon="2.39889">
        <ele>98.5</ele>
        <time>2015-04-13T18:49:17.801Z</time>
      </trkpt>
      <trkpt lat="48.89636" lon="2.39902">
        <ele>98.1</ele>
        <time>2015-04-13T18:49:19.843Z</time>
      </trkpt>
      <trkpt lat="48.89636" lon="2.39907">
        <ele>98</ele>
        <time>2015-04-13T18:49:20.862Z</time>
      </trkpt>
      <trkpt lat="48.89634" lon="2.39918">
        <ele>98</ele>
        <time>2015-04-13T18:49:22.788Z</time>
      </trkpt>
      <trkpt lat="48.89634" lon="2.39924">
        <ele>98.2</ele>
        <time>2015-04-13T18:49:23.808Z</time>
      </trkpt>
      <trkpt lat="48.89632" lon="2.39936">
        <ele>98.3</ele>
        <time>2015-04-13T18:49:25.881Z</time>
      </trkpt>
      <trkpt lat="48.89631" lon="2.39943">
        <ele>98.4</ele>
        <time>2015-04-13T18:49:26.807Z</time>
      </trkpt>
      <trkpt lat="48.8963" lon="2.39949">
        <ele>98.5</ele>
        <time>2015-04-13T18:49:27.904Z</time>
      </trkpt>
      <trkpt lat="48.89629" lon="2.39956">
        <ele>98.2</ele>
        <time>2015-04-13T18:49:28.790Z</time>
      </trkpt>
      <trkpt lat="48.89628" lon="2.39964">
        <ele>98.3</ele>
        <time>2015-04-13T18:49:29.782Z</time>
      </trkpt>
      <trkpt lat="48.89627" lon="2.39973">
        <ele>98.2</ele>
        <time>2015-04-13T18:49:30.801Z</time>
      </trkpt>
      <trkpt lat="48.89626" lon="2.39981">
        <ele>98.3</ele>
        <time>2015-04-13T18:49:31.830Z</time>
      </trkpt>
      <trkpt lat="48.89625" lon="2.39989">
        <ele>98.1</ele>
        <time>2015-04-13T18:49:32.826Z</time>
      </trkpt>
      <trkpt lat="48.89624" lon="2.39997">
        <ele>98.2</ele>
        <time>2015-04-13T18:49:33.852Z</time>
      </trkpt>
      <trkpt lat="48.89623" lon="2.40005">
        <ele>98.5</ele>
        <time>2015-04-13T18:49:34.866Z</time>
      </trkpt>
      <trkpt lat="48.89622" lon="2.40013">
        <ele>99.1</ele>
        <time>2015-04-13T18:49:35.781Z</time>
      </trkpt>
      <trkpt lat="48.89622" lon="2.40022">
        <ele>100.3</ele>
        <time>2015-04-13T18:49:36.907Z</time>
      </trkpt>
      <trkpt lat="48.89621" lon="2.40029">
        <ele>100.8</ele>
        <time>2015-04-13T18:49:37.828Z</time>
      </trkpt>
      <trkpt lat="48.89622" lon="2.40038">
        <ele>101.4</ele>
        <time>2015-04-13T18:49:38.811Z</time>
      </trkpt>
      <trkpt lat="48.89622" lon="2.40046">
        <ele>101.4</ele>
        <time>2015-04-13T18:49:39.851Z</time>
      </trkpt>
      <trkpt lat="48.89622" lon="2.40054">
        <ele>101.4</ele>
        <time>2015-04-13T18:49:40.856Z</time>
      </trkpt>
      <trkpt lat="48.89622" lon="2.40061">
        <ele>101.8</ele>
        <time>2015-04-13T18:49:41.770Z</time>
      </trkpt>
      <trkpt lat="48.89621" lon="2.40068">
        <ele>102.1</ele>
        <time>2015-04-13T18:49:42.800Z</time>
      </trkpt>
      <trkpt lat="48.89617" lon="2.40079">
        <ele>104.4</ele>
        <time>2015-04-13T18:49:44.818Z</time>
      </trkpt>
      <trkpt lat="48.89612" lon="2.40083">
        <ele>107.5</ele>
        <time>2015-04-13T18:49:45.841Z</time>
      </trkpt>
      <trkpt lat="48.89606" lon="2.40089">
        <ele>110.8</ele>
        <time>2015-04-13T18:49:46.862Z</time>
      </trkpt>
      <trkpt lat="48.89603" lon="2.40093">
        <ele>112.7</ele>
        <time>2015-04-13T18:49:47.775Z</time>
      </trkpt>
      <trkpt lat="48.89605" lon="2.40105">
        <ele>109.2</ele>
        <time>2015-04-13T18:49:52.849Z</time>
      </trkpt>
      <trkpt lat="48.89604" lon="2.40108">
        <ele>109.2</ele>
        <time>2015-04-13T18:49:53.815Z</time>
      </trkpt>
      <trkpt lat="48.89602" lon="2.40119">
        <ele>109.6</ele>
        <time>2015-04-13T18:49:56.817Z</time>
      </trkpt>
      <trkpt lat="48.89601" lon="2.40125">
        <ele>109.5</ele>
        <time>2015-04-13T18:49:57.837Z</time>
      </trkpt>
      <trkpt lat="48.896" lon="2.40132">
        <ele>109.5</ele>
        <time>2015-04-13T18:49:58.857Z</time>
      </trkpt>
      <trkpt lat="48.89599" lon="2.40139">
        <ele>110.1</ele>
        <time>2015-04-13T18:49:59.872Z</time>
      </trkpt>
      <trkpt lat="48.89598" lon="2.40146">
        <ele>110.4</ele>
        <time>2015-04-13T18:50:00.798Z</time>
      </trkpt>
      <trkpt lat="48.89597" lon="2.40153">
        <ele>110.7</ele>
        <time>2015-04-13T18:50:01.843Z</time>
      </trkpt>
      <trkpt lat="48.89597" lon="2.40161">
        <ele>111</ele>
        <time>2015-04-13T18:50:02.839Z</time>
      </trkpt>
      <trkpt lat="48.89595" lon="2.40169">
        <ele>111.1</ele>
        <time>2015-04-13T18:50:03.837Z</time>
      </trkpt>
      <trkpt lat="48.89594" lon="2.40176">
        <ele>111.2</ele>
        <time>2015-04-13T18:50:04.746Z</time>
      </trkpt>
      <trkpt lat="48.89593" lon="2.40183">
        <ele>111.5</ele>
        <time>2015-04-13T18:50:05.776Z</time>
      </trkpt>
      <trkpt lat="48.89592" lon="2.4019">
        <ele>111.8</ele>
        <time>2015-04-13T18:50:06.798Z</time>
      </trkpt>
      <trkpt lat="48.89591" lon="2.40197">
        <ele>112.1</ele>
        <time>2015-04-13T18:50:07.813Z</time>
      </trkpt>
      <trkpt lat="48.89589" lon="2.40205">
        <ele>112.7</ele>
        <time>2015-04-13T18:50:08.813Z</time>
      </trkpt>
      <trkpt lat="48.89587" lon="2.40215">
        <ele>112.7</ele>
        <time>2015-04-13T18:50:09.822Z</time>
      </trkpt>
      <trkpt lat="48.89584" lon="2.40223">
        <ele>112.4</ele>
        <time>2015-04-13T18:50:10.837Z</time>
      </trkpt>
      <trkpt lat="48.89584" lon="2.40231">
        <ele>112.5</ele>
        <time>2015-04-13T18:50:11.856Z</time>
      </trkpt>
      <trkpt lat="48.89584" lon="2.4024">
        <ele>112.8</ele>
        <time>2015-04-13T18:50:12.890Z</time>
      </trkpt>
      <trkpt lat="48.89585" lon="2.40249">
        <ele>113.1</ele>
        <time>2015-04-13T18:50:13.888Z</time>
      </trkpt>
      <trkpt lat="48.89584" lon="2.40258">
        <ele>113.1</ele>
        <time>2015-04-13T18:50:14.775Z</time>
      </trkpt>
      <trkpt lat="48.89584" lon="2.40266">
        <ele>113.1</ele>
        <time>2015-04-13T18:50:15.794Z</time>
      </trkpt>
      <trkpt lat="48.89582" lon="2.40278">
        <ele>113.2</ele>
        <time>2015-04-13T18:50:17.858Z</time>
      </trkpt>
      <trkpt lat="48.89582" lon="2.40284">
        <ele>113.2</ele>
        <time>2015-04-13T18:50:18.868Z</time>
      </trkpt>
      <trkpt lat="48.8958" lon="2.40293">
        <ele>113.3</ele>
        <time>2015-04-13T18:50:20.761Z</time>
      </trkpt>
      <trkpt lat="48.8958" lon="2.40298">
        <ele>112.7</ele>
        <time>2015-04-13T18:50:21.786Z</time>
      </trkpt>
      <trkpt lat="48.8958" lon="2.40309">
        <ele>112.7</ele>
        <time>2015-04-13T18:50:23.821Z</time>
      </trkpt>
      <trkpt lat="48.8958" lon="2.40315">
        <ele>112.7</ele>
        <time>2015-04-13T18:50:24.834Z</time>
      </trkpt>
      <trkpt lat="48.89582" lon="2.40326">
        <ele>112.6</ele>
        <time>2015-04-13T18:50:26.867Z</time>
      </trkpt>
      <trkpt lat="48.89582" lon="2.40331">
        <ele>112.5</ele>
        <time>2015-04-13T18:50:27.783Z</time>
      </trkpt>
      <trkpt lat="48.89582" lon="2.40342">
        <ele>112.3</ele>
        <time>2015-04-13T18:50:29.821Z</time>
      </trkpt>
      <trkpt lat="48.89582" lon="2.40347">
        <ele>112.2</ele>
        <time>2015-04-13T18:50:30.827Z</time>
      </trkpt>
      <trkpt lat="48.8958" lon="2.40356">
        <ele>111.8</ele>
        <time>2015-04-13T18:50:32.752Z</time>
      </trkpt>
      <trkpt lat="48.89579" lon="2.40362">
        <ele>111.6</ele>
        <time>2015-04-13T18:50:33.760Z</time>
      </trkpt>
      <trkpt lat="48.89577" lon="2.40373">
        <ele>111.4</ele>
        <time>2015-04-13T18:50:35.784Z</time>
      </trkpt>
      <trkpt lat="48.89577" lon="2.40379">
        <ele>111.2</ele>
        <time>2015-04-13T18:50:36.804Z</time>
      </trkpt>
      <trkpt lat="48.89575" lon="2.4039">
        <ele>111.2</ele>
        <time>2015-04-13T18:50:38.834Z</time>
      </trkpt>
      <trkpt lat="48.89574" lon="2.40397">
        <ele>111.2</ele>
        <time>2015-04-13T18:50:39.746Z</time>
      </trkpt>
      <trkpt lat="48.89573" lon="2.40409">
        <ele>111.2</ele>
        <time>2015-04-13T18:50:41.864Z</time>
      </trkpt>
      <trkpt lat="48.89573" lon="2.40415">
        <ele>111</ele>
        <time>2015-04-13T18:50:42.862Z</time>
      </trkpt>
      <trkpt lat="48.89573" lon="2.40422">
        <ele>111</ele>
        <time>2015-04-13T18:50:43.784Z</time>
      </trkpt>
      <trkpt lat="48.89574" lon="2.40429">
        <ele>111</ele>
        <time>2015-04-13T18:50:44.800Z</time>
      </trkpt>
      <trkpt lat="48.89575" lon="2.40436">
        <ele>111.1</ele>
        <time>2015-04-13T18:50:45.814Z</time>
      </trkpt>
      <trkpt lat="48.89575" lon="2.40443">
        <ele>111.1</ele>
        <time>2015-04-13T18:50:46.821Z</time>
      </trkpt>
      <trkpt lat="48.89576" lon="2.40456">
        <ele>111.2</ele>
        <time>2015-04-13T18:50:48.846Z</time>
      </trkpt>
      <trkpt lat="48.89576" lon="2.40462">
        <ele>111</ele>
        <time>2015-04-13T18:50:49.866Z</time>
      </trkpt>
      <trkpt lat="48.89577" lon="2.40475">
        <ele>110.9</ele>
        <time>2015-04-13T18:50:51.791Z</time>
      </trkpt>
      <trkpt lat="48.89578" lon="2.40482">
        <ele>110.8</ele>
        <time>2015-04-13T18:50:52.827Z</time>
      </trkpt>
      <trkpt lat="48.89578" lon="2.40496">
        <ele>110.6</ele>
        <time>2015-04-13T18:50:54.881Z</time>
      </trkpt>
      <trkpt lat="48.89578" lon="2.40502">
        <ele>110.5</ele>
        <time>2015-04-13T18:50:55.818Z</time>
      </trkpt>
      <trkpt lat="48.89577" lon="2.40515">
        <ele>110</ele>
        <time>2015-04-13T18:50:57.740Z</time>
      </trkpt>
      <trkpt lat="48.89576" lon="2.40522">
        <ele>109.7</ele>
        <time>2015-04-13T18:50:58.865Z</time>
      </trkpt>
      <trkpt lat="48.89575" lon="2.40535">
        <ele>109.3</ele>
        <time>2015-04-13T18:51:00.778Z</time>
      </trkpt>
      <trkpt lat="48.89574" lon="2.40542">
        <ele>109.4</ele>
        <time>2015-04-13T18:51:01.931Z</time>
      </trkpt>
      <trkpt lat="48.89572" lon="2.40549">
        <ele>109.6</ele>
        <time>2015-04-13T18:51:02.747Z</time>
      </trkpt>
      <trkpt lat="48.89571" lon="2.40556">
        <ele>109.7</ele>
        <time>2015-04-13T18:51:03.782Z</time>
      </trkpt>
      <trkpt lat="48.8957" lon="2.40563">
        <ele>109.7</ele>
        <time>2015-04-13T18:51:04.784Z</time>
      </trkpt>
      <trkpt lat="48.89569" lon="2.40569">
        <ele>109.8</ele>
        <time>2015-04-13T18:51:05.797Z</time>
      </trkpt>
      <trkpt lat="48.89568" lon="2.40581">
        <ele>109.5</ele>
        <time>2015-04-13T18:51:07.848Z</time>
      </trkpt>
      <trkpt lat="48.89567" lon="2.40587">
        <ele>109.4</ele>
        <time>2015-04-13T18:51:08.764Z</time>
      </trkpt>
      <trkpt lat="48.89566" lon="2.40599">
        <ele>109.7</ele>
        <time>2015-04-13T18:51:11.546Z</time>
      </trkpt>
      <trkpt lat="48.89566" lon="2.40604">
        <ele>109.6</ele>
        <time>2015-04-13T18:51:11.799Z</time>
      </trkpt>
      <trkpt lat="48.89565" lon="2.40616">
        <ele>109.9</ele>
        <time>2015-04-13T18:51:13.832Z</time>
      </trkpt>
      <trkpt lat="48.89565" lon="2.40623">
        <ele>109.7</ele>
        <time>2015-04-13T18:51:14.880Z</time>
      </trkpt>
      <trkpt lat="48.89563" lon="2.40636">
        <ele>109.2</ele>
        <time>2015-04-13T18:51:16.638Z</time>
      </trkpt>
      <trkpt lat="48.89562" lon="2.40641">
        <ele>108.9</ele>
        <time>2015-04-13T18:51:17.835Z</time>
      </trkpt>
      <trkpt lat="48.89561" lon="2.40652">
        <ele>108.6</ele>
        <time>2015-04-13T18:51:19.862Z</time>
      </trkpt>
      <trkpt lat="48.8956" lon="2.40657">
        <ele>108.4</ele>
        <time>2015-04-13T18:51:20.773Z</time>
      </trkpt>
      <trkpt lat="48.89559" lon="2.40668">
        <ele>108</ele>
        <time>2015-04-13T18:51:22.780Z</time>
      </trkpt>
      <trkpt lat="48.89558" lon="2.40673">
        <ele>107.9</ele>
        <time>2015-04-13T18:51:23.810Z</time>
      </trkpt>
      <trkpt lat="48.89557" lon="2.40683">
        <ele>107.4</ele>
        <time>2015-04-13T18:51:25.831Z</time>
      </trkpt>
      <trkpt lat="48.89556" lon="2.40688">
        <ele>107.3</ele>
        <time>2015-04-13T18:51:26.866Z</time>
      </trkpt>
      <trkpt lat="48.89555" lon="2.40701">
        <ele>107</ele>
        <time>2015-04-13T18:51:29.937Z</time>
      </trkpt>
      <trkpt lat="48.89555" lon="2.40705">
        <ele>106.8</ele>
        <time>2015-04-13T18:51:30.801Z</time>
      </trkpt>
      <trkpt lat="48.89552" lon="2.40717">
        <ele>107</ele>
        <time>2015-04-13T18:51:35.024Z</time>
      </trkpt>
      <trkpt lat="48.89552" lon="2.40719">
        <ele>106.7</ele>
        <time>2015-04-13T18:51:35.883Z</time>
      </trkpt>
      <trkpt lat="48.8955" lon="2.40729">
        <ele>106</ele>
        <time>2015-04-13T18:51:38.823Z</time>
      </trkpt>
      <trkpt lat="48.89549" lon="2.40733">
        <ele>105.9</ele>
        <time>2015-04-13T18:51:39.826Z</time>
      </trkpt>
      <trkpt lat="48.89548" lon="2.40746">
        <ele>105.1</ele>
        <time>2015-04-13T18:51:42.863Z</time>
      </trkpt>
      <trkpt lat="48.89548" lon="2.4075">
        <ele>105.1</ele>
        <time>2015-04-13T18:51:43.933Z</time>
      </trkpt>
      <trkpt lat="48.89548" lon="2.40763">
        <ele>105.1</ele>
        <time>2015-04-13T18:51:46.833Z</time>
      </trkpt>
      <trkpt lat="48.89547" lon="2.40766">
        <ele>105.4</ele>
        <time>2015-04-13T18:51:47.848Z</time>
      </trkpt>
      <trkpt lat="48.89546" lon="2.40779">
        <ele>107.1</ele>
        <time>2015-04-13T18:51:53.891Z</time>
      </trkpt>
      <trkpt lat="48.89545" lon="2.40784">
        <ele>107.2</ele>
        <time>2015-04-13T18:51:54.824Z</time>
      </trkpt>
      <trkpt lat="48.89544" lon="2.40793">
        <ele>107.2</ele>
        <time>2015-04-13T18:51:56.828Z</time>
      </trkpt>
      <trkpt lat="48.89543" lon="2.40798">
        <ele>107.4</ele>
        <time>2015-04-13T18:51:57.808Z</time>
      </trkpt>
      <trkpt lat="48.89541" lon="2.40807">
        <ele>107.5</ele>
        <time>2015-04-13T18:52:00.447Z</time>
      </trkpt>
      <trkpt lat="48.8954" lon="2.40812">
        <ele>107.7</ele>
        <time>2015-04-13T18:52:00.854Z</time>
      </trkpt>
      <trkpt lat="48.89539" lon="2.40824">
        <ele>108.3</ele>
        <time>2015-04-13T18:52:03.782Z</time>
      </trkpt>
      <trkpt lat="48.89539" lon="2.40827">
        <ele>108.4</ele>
        <time>2015-04-13T18:52:04.796Z</time>
      </trkpt>
      <trkpt lat="48.8954" lon="2.40836">
        <ele>109.1</ele>
        <time>2015-04-13T18:52:06.810Z</time>
      </trkpt>
      <trkpt lat="48.89539" lon="2.40843">
        <ele>108.9</ele>
        <time>2015-04-13T18:52:07.806Z</time>
      </trkpt>
      <trkpt lat="48.89537" lon="2.40854">
        <ele>108.6</ele>
        <time>2015-04-13T18:52:10.618Z</time>
      </trkpt>
      <trkpt lat="48.89537" lon="2.40858">
        <ele>108.4</ele>
        <time>2015-04-13T18:52:10.737Z</time>
      </trkpt>
      <trkpt lat="48.89536" lon="2.40871">
        <ele>108</ele>
        <time>2015-04-13T18:52:14.541Z</time>
      </trkpt>
      <trkpt lat="48.89536" lon="2.40876">
        <ele>108.1</ele>
        <time>2015-04-13T18:52:14.782Z</time>
      </trkpt>
      <trkpt lat="48.89536" lon="2.40888">
        <ele>108.8</ele>
        <time>2015-04-13T18:52:17.801Z</time>
      </trkpt>
      <trkpt lat="48.89536" lon="2.40891">
        <ele>109</ele>
        <time>2015-04-13T18:52:18.837Z</time>
      </trkpt>
      <trkpt lat="48.89538" lon="2.40903">
        <ele>108.3</ele>
        <time>2015-04-13T18:52:21.855Z</time>
      </trkpt>
      <trkpt lat="48.89538" lon="2.40907">
        <ele>108.1</ele>
        <time>2015-04-13T18:52:22.852Z</time>
      </trkpt>
      <trkpt lat="48.89537" lon="2.40919">
        <ele>108.9</ele>
        <time>2015-04-13T18:52:26.820Z</time>
      </trkpt>
      <trkpt lat="48.89537" lon="2.40922">
        <ele>109</ele>
        <time>2015-04-13T18:52:27.822Z</time>
      </trkpt>
      <trkpt lat="48.89536" lon="2.40935">
        <ele>108.8</ele>
        <time>2015-04-13T18:52:31.799Z</time>
      </trkpt>
      <trkpt lat="48.89535" lon="2.40939">
        <ele>108.9</ele>
        <time>2015-04-13T18:52:32.792Z</time>
      </trkpt>
      <trkpt lat="48.89534" lon="2.40952">
        <ele>108.8</ele>
        <time>2015-04-13T18:52:36.802Z</time>
      </trkpt>
      <trkpt lat="48.89533" lon="2.40954">
        <ele>108.7</ele>
        <time>2015-04-13T18:52:37.824Z</time>
      </trkpt>
      <trkpt lat="48.89529" lon="2.40966">
        <ele>108</ele>
        <time>2015-04-13T18:52:42.859Z</time>
      </trkpt>
      <trkpt lat="48.89529" lon="2.40968">
        <ele>108.1</ele>
        <time>2015-04-13T18:52:43.884Z</time>
      </trkpt>
      <trkpt lat="48.89529" lon="2.40969">
        <ele>108</ele>
        <time>2015-04-13T18:52:44.843Z</time>
      </trkpt>
      <trkpt lat="48.89529" lon="2.40969">
        <ele>107.8</ele>
        <time>2015-04-13T18:52:52.814Z</time>
      </trkpt>
      <trkpt lat="48.89528" lon="2.40967">
        <ele>107.2</ele>
        <time>2015-04-13T18:52:53.822Z</time>
      </trkpt>
      <trkpt lat="48.89534" lon="2.40971">
        <ele>106.5</ele>
        <time>2015-04-13T18:52:57.867Z</time>
      </trkpt>
      <trkpt lat="48.89537" lon="2.40973">
        <ele>106.5</ele>
        <time>2015-04-13T18:52:58.844Z</time>
      </trkpt>
      <trkpt lat="48.89542" lon="2.40975">
        <ele>106.3</ele>
        <time>2015-04-13T18:53:01.051Z</time>
      </trkpt>
      <trkpt lat="48.89545" lon="2.40976">
        <ele>105.9</ele>
        <time>2015-04-13T18:53:01.900Z</time>
      </trkpt>
      <trkpt lat="48.89553" lon="2.40977">
        <ele>105.3</ele>
        <time>2015-04-13T18:53:03.835Z</time>
      </trkpt>
      <trkpt lat="48.89557" lon="2.40977">
        <ele>105.2</ele>
        <time>2015-04-13T18:53:04.849Z</time>
      </trkpt>
      <trkpt lat="48.89566" lon="2.40979">
        <ele>105.2</ele>
        <time>2015-04-13T18:53:06.864Z</time>
      </trkpt>
      <trkpt lat="48.89569" lon="2.40981">
        <ele>105.1</ele>
        <time>2015-04-13T18:53:07.922Z</time>
      </trkpt>
      <trkpt lat="48.89576" lon="2.40985">
        <ele>105</ele>
        <time>2015-04-13T18:53:10.286Z</time>
      </trkpt>
      <trkpt lat="48.89579" lon="2.40988">
        <ele>105.2</ele>
        <time>2015-04-13T18:53:10.804Z</time>
      </trkpt>
      <trkpt lat="48.89583" lon="2.40998">
        <ele>107.5</ele>
        <time>2015-04-13T18:53:14.839Z</time>
      </trkpt>
      <trkpt lat="48.89584" lon="2.40998">
        <ele>108.9</ele>
        <time>2015-04-13T18:53:15.856Z</time>
      </trkpt>
      <trkpt lat="48.89583" lon="2.40998">
        <ele>108.9</ele>
        <time>2015-04-13T18:53:48.797Z</time>
      </trkpt>
      <trkpt lat="48.89578" lon="2.41">
        <ele>114.1</ele>
        <time>2015-04-13T18:53:49.819Z</time>
      </trkpt>
      <trkpt lat="48.89577" lon="2.41">
        <ele>113.8</ele>
        <time>2015-04-13T18:53:50.810Z</time>
      </trkpt>
      <trkpt lat="48.89577" lon="2.41">
        <ele>113.6</ele>
        <time>2015-04-13T18:53:51.841Z</time>
      </trkpt>
      <trkpt lat="48.89577" lon="2.41">
        <ele>113.6</ele>
        <time>2015-04-13T18:54:20.738Z</time>
      </trkpt>
      <trkpt lat="48.89577" lon="2.40991">
        <ele>114.8</ele>
        <time>2015-04-13T18:54:21.744Z</time>
      </trkpt>
      <trkpt lat="48.89574" lon="2.41002">
        <ele>110.6</ele>
        <time>2015-04-13T18:54:24.801Z</time>
      </trkpt>
      <trkpt lat="48.89572" lon="2.41007">
        <ele>109.5</ele>
        <time>2015-04-13T18:54:25.811Z</time>
      </trkpt>
      <trkpt lat="48.89568" lon="2.41012">
        <ele>108.6</ele>
        <time>2015-04-13T18:54:26.811Z</time>
      </trkpt>
      <trkpt lat="48.89565" lon="2.41018">
        <ele>107.8</ele>
        <time>2015-04-13T18:54:27.815Z</time>
      </trkpt>
      <trkpt lat="48.89565" lon="2.41026">
        <ele>107.1</ele>
        <time>2015-04-13T18:54:28.842Z</time>
      </trkpt>
      <trkpt lat="48.89563" lon="2.41033">
        <ele>106.5</ele>
        <time>2015-04-13T18:54:29.760Z</time>
      </trkpt>
      <trkpt lat="48.89563" lon="2.4104">
        <ele>106.3</ele>
        <time>2015-04-13T18:54:30.777Z</time>
      </trkpt>
      <trkpt lat="48.89563" lon="2.41048">
        <ele>106</ele>
        <time>2015-04-13T18:54:31.848Z</time>
      </trkpt>
      <trkpt lat="48.89562" lon="2.41055">
        <ele>105.6</ele>
        <time>2015-04-13T18:54:32.746Z</time>
      </trkpt>
      <trkpt lat="48.89563" lon="2.41062">
        <ele>105.3</ele>
        <time>2015-04-13T18:54:33.804Z</time>
      </trkpt>
      <trkpt lat="48.89563" lon="2.41069">
        <ele>105.1</ele>
        <time>2015-04-13T18:54:34.809Z</time>
      </trkpt>
      <trkpt lat="48.89562" lon="2.41077">
        <ele>104.8</ele>
        <time>2015-04-13T18:54:35.847Z</time>
      </trkpt>
      <trkpt lat="48.89562" lon="2.41085">
        <ele>104.6</ele>
        <time>2015-04-13T18:54:36.810Z</time>
      </trkpt>
      <trkpt lat="48.89562" lon="2.41093">
        <ele>104.3</ele>
        <time>2015-04-13T18:54:37.809Z</time>
      </trkpt>
      <trkpt lat="48.89563" lon="2.41101">
        <ele>104.2</ele>
        <time>2015-04-13T18:54:38.814Z</time>
      </trkpt>
      <trkpt lat="48.89563" lon="2.41109">
        <ele>103.9</ele>
        <time>2015-04-13T18:54:39.833Z</time>
      </trkpt>
      <trkpt lat="48.89562" lon="2.41116">
        <ele>103.8</ele>
        <time>2015-04-13T18:54:40.768Z</time>
      </trkpt>
      <trkpt lat="48.89562" lon="2.41123">
        <ele>103.4</ele>
        <time>2015-04-13T18:54:41.788Z</time>
      </trkpt>
      <trkpt lat="48.8956" lon="2.41136">
        <ele>102.7</ele>
        <time>2015-04-13T18:54:43.860Z</time>
      </trkpt>
      <trkpt lat="48.89559" lon="2.41142">
        <ele>102.4</ele>
        <time>2015-04-13T18:54:44.819Z</time>
      </trkpt>
      <trkpt lat="48.89557" lon="2.41154">
        <ele>102</ele>
        <time>2015-04-13T18:54:46.785Z</time>
      </trkpt>
      <trkpt lat="48.89556" lon="2.4116">
        <ele>101.7</ele>
        <time>2015-04-13T18:54:47.818Z</time>
      </trkpt>
      <trkpt lat="48.89554" lon="2.4117">
        <ele>101.1</ele>
        <time>2015-04-13T18:54:49.850Z</time>
      </trkpt>
      <trkpt lat="48.89553" lon="2.41174">
        <ele>100.7</ele>
        <time>2015-04-13T18:54:50.886Z</time>
      </trkpt>
      <trkpt lat="48.89551" lon="2.41185">
        <ele>100.5</ele>
        <time>2015-04-13T18:54:52.797Z</time>
      </trkpt>
      <trkpt lat="48.8955" lon="2.41191">
        <ele>100.2</ele>
        <time>2015-04-13T18:54:53.840Z</time>
      </trkpt>
      <trkpt lat="48.89549" lon="2.41198">
        <ele>99.5</ele>
        <time>2015-04-13T18:54:54.897Z</time>
      </trkpt>
      <trkpt lat="48.89548" lon="2.41205">
        <ele>99.5</ele>
        <time>2015-04-13T18:54:55.806Z</time>
      </trkpt>
      <trkpt lat="48.89546" lon="2.41212">
        <ele>99.3</ele>
        <time>2015-04-13T18:54:56.938Z</time>
      </trkpt>
      <trkpt lat="48.89545" lon="2.41219">
        <ele>99.2</ele>
        <time>2015-04-13T18:54:57.823Z</time>
      </trkpt>
      <trkpt lat="48.89544" lon="2.41226">
        <ele>99.1</ele>
        <time>2015-04-13T18:54:58.801Z</time>
      </trkpt>
      <trkpt lat="48.89544" lon="2.41233">
        <ele>99</ele>
        <time>2015-04-13T18:54:59.809Z</time>
      </trkpt>
      <trkpt lat="48.89543" lon="2.4124">
        <ele>98.9</ele>
        <time>2015-04-13T18:55:00.827Z</time>
      </trkpt>
      <trkpt lat="48.89541" lon="2.41246">
        <ele>98.9</ele>
        <time>2015-04-13T18:55:01.868Z</time>
      </trkpt>
      <trkpt lat="48.89539" lon="2.41252">
        <ele>99.1</ele>
        <time>2015-04-13T18:55:02.794Z</time>
      </trkpt>
      <trkpt lat="48.89536" lon="2.41258">
        <ele>99.4</ele>
        <time>2015-04-13T18:55:03.858Z</time>
      </trkpt>
      <trkpt lat="48.89531" lon="2.41269">
        <ele>99.6</ele>
        <time>2015-04-13T18:55:05.870Z</time>
      </trkpt>
      <trkpt lat="48.89529" lon="2.41273">
        <ele>99.6</ele>
        <time>2015-04-13T18:55:06.880Z</time>
      </trkpt>
      <trkpt lat="48.89525" lon="2.41283">
        <ele>100.4</ele>
        <time>2015-04-13T18:55:10.848Z</time>
      </trkpt>
      <trkpt lat="48.89525" lon="2.41286">
        <ele>100.2</ele>
        <time>2015-04-13T18:55:11.915Z</time>
      </trkpt>
      <trkpt lat="48.8952" lon="2.41296">
        <ele>101.7</ele>
        <time>2015-04-13T18:55:16.804Z</time>
      </trkpt>
      <trkpt lat="48.89519" lon="2.41298">
        <ele>102</ele>
        <time>2015-04-13T18:55:17.834Z</time>
      </trkpt>
      <trkpt lat="48.89518" lon="2.41306">
        <ele>102.4</ele>
        <time>2015-04-13T18:55:19.843Z</time>
      </trkpt>
      <trkpt lat="48.89518" lon="2.41312">
        <ele>102.6</ele>
        <time>2015-04-13T18:55:20.860Z</time>
      </trkpt>
      <trkpt lat="48.89516" lon="2.41323">
        <ele>102.9</ele>
        <time>2015-04-13T18:55:22.813Z</time>
      </trkpt>
      <trkpt lat="48.89515" lon="2.41329">
        <ele>103.1</ele>
        <time>2015-04-13T18:55:23.841Z</time>
      </trkpt>
      <trkpt lat="48.89515" lon="2.41336">
        <ele>103.4</ele>
        <time>2015-04-13T18:55:24.862Z</time>
      </trkpt>
      <trkpt lat="48.89515" lon="2.41344">
        <ele>103.3</ele>
        <time>2015-04-13T18:55:25.883Z</time>
      </trkpt>
      <trkpt lat="48.89516" lon="2.41352">
        <ele>102.6</ele>
        <time>2015-04-13T18:55:26.887Z</time>
      </trkpt>
      <trkpt lat="48.89517" lon="2.41361">
        <ele>102.2</ele>
        <time>2015-04-13T18:55:27.812Z</time>
      </trkpt>
      <trkpt lat="48.89518" lon="2.41368">
        <ele>102.1</ele>
        <time>2015-04-13T18:55:28.846Z</time>
      </trkpt>
      <trkpt lat="48.89519" lon="2.41376">
        <ele>102</ele>
        <time>2015-04-13T18:55:29.859Z</time>
      </trkpt>
      <trkpt lat="48.89519" lon="2.41384">
        <ele>102</ele>
        <time>2015-04-13T18:55:30.884Z</time>
      </trkpt>
      <trkpt lat="48.8952" lon="2.41394">
        <ele>101.8</ele>
        <time>2015-04-13T18:55:31.899Z</time>
      </trkpt>
      <trkpt lat="48.89522" lon="2.41402">
        <ele>101.5</ele>
        <time>2015-04-13T18:55:32.845Z</time>
      </trkpt>
      <trkpt lat="48.89523" lon="2.41411">
        <ele>101.3</ele>
        <time>2015-04-13T18:55:33.872Z</time>
      </trkpt>
      <trkpt lat="48.89524" lon="2.4142">
        <ele>101.1</ele>
        <time>2015-04-13T18:55:34.825Z</time>
      </trkpt>
      <trkpt lat="48.89525" lon="2.41428">
        <ele>100.8</ele>
        <time>2015-04-13T18:55:35.830Z</time>
      </trkpt>
      <trkpt lat="48.89525" lon="2.41437">
        <ele>100.7</ele>
        <time>2015-04-13T18:55:36.855Z</time>
      </trkpt>
      <trkpt lat="48.89525" lon="2.41444">
        <ele>100.7</ele>
        <time>2015-04-13T18:55:37.868Z</time>
      </trkpt>
      <trkpt lat="48.89526" lon="2.41452">
        <ele>100.7</ele>
        <time>2015-04-13T18:55:38.783Z</time>
      </trkpt>
      <trkpt lat="48.89527" lon="2.4146">
        <ele>100.4</ele>
        <time>2015-04-13T18:55:39.785Z</time>
      </trkpt>
      <trkpt lat="48.89529" lon="2.41468">
        <ele>100.4</ele>
        <time>2015-04-13T18:55:40.837Z</time>
      </trkpt>
      <trkpt lat="48.8953" lon="2.41476">
        <ele>100.6</ele>
        <time>2015-04-13T18:55:41.844Z</time>
      </trkpt>
      <trkpt lat="48.89534" lon="2.41487">
        <ele>101.1</ele>
        <time>2015-04-13T18:55:43.874Z</time>
      </trkpt>
      <trkpt lat="48.89536" lon="2.4149">
        <ele>101.4</ele>
        <time>2015-04-13T18:55:44.780Z</time>
      </trkpt>
      <trkpt lat="48.89544" lon="2.41495">
        <ele>102.7</ele>
        <time>2015-04-13T18:55:47.834Z</time>
      </trkpt>
      <trkpt lat="48.89546" lon="2.41496">
        <ele>102.5</ele>
        <time>2015-04-13T18:55:48.849Z</time>
      </trkpt>
      <trkpt lat="48.89552" lon="2.41498">
        <ele>102.4</ele>
        <time>2015-04-13T18:55:50.874Z</time>
      </trkpt>
      <trkpt lat="48.89556" lon="2.41498">
        <ele>102.3</ele>
        <time>2015-04-13T18:55:51.795Z</time>
      </trkpt>
      <trkpt lat="48.89564" lon="2.41498">
        <ele>102.7</ele>
        <time>2015-04-13T18:55:53.837Z</time>
      </trkpt>
      <trkpt lat="48.89568" lon="2.41497">
        <ele>103.4</ele>
        <time>2015-04-13T18:55:54.858Z</time>
      </trkpt>
      <trkpt lat="48.89575" lon="2.41498">
        <ele>104.9</ele>
        <time>2015-04-13T18:55:56.881Z</time>
      </trkpt>
      <trkpt lat="48.8958" lon="2.41497">
        <ele>105</ele>
        <time>2015-04-13T18:55:57.891Z</time>
      </trkpt>
      <trkpt lat="48.89584" lon="2.41496">
        <ele>105.1</ele>
        <time>2015-04-13T18:55:58.829Z</time>
      </trkpt>
      <trkpt lat="48.8959" lon="2.41495">
        <ele>105</ele>
        <time>2015-04-13T18:55:59.817Z</time>
      </trkpt>
      <trkpt lat="48.89595" lon="2.41494">
        <ele>105</ele>
        <time>2015-04-13T18:56:00.832Z</time>
      </trkpt>
      <trkpt lat="48.89601" lon="2.41494">
        <ele>104.8</ele>
        <time>2015-04-13T18:56:01.874Z</time>
      </trkpt>
      <trkpt lat="48.89607" lon="2.41494">
        <ele>104.2</ele>
        <time>2015-04-13T18:56:02.799Z</time>
      </trkpt>
      <trkpt lat="48.89614" lon="2.41495">
        <ele>103.6</ele>
        <time>2015-04-13T18:56:03.800Z</time>
      </trkpt>
      <trkpt lat="48.89622" lon="2.41496">
        <ele>103.8</ele>
        <time>2015-04-13T18:56:05.797Z</time>
      </trkpt>
      <trkpt lat="48.89625" lon="2.41498">
        <ele>104.1</ele>
        <time>2015-04-13T18:56:06.825Z</time>
      </trkpt>
      <trkpt lat="48.8963" lon="2.41503">
        <ele>104.7</ele>
        <time>2015-04-13T18:56:08.777Z</time>
      </trkpt>
      <trkpt lat="48.89632" lon="2.41511">
        <ele>105.1</ele>
        <time>2015-04-13T18:56:09.828Z</time>
      </trkpt>
      <trkpt lat="48.89633" lon="2.41517">
        <ele>105.3</ele>
        <time>2015-04-13T18:56:10.861Z</time>
      </trkpt>
      <trkpt lat="48.89633" lon="2.41525">
        <ele>105.6</ele>
        <time>2015-04-13T18:56:11.872Z</time>
      </trkpt>
      <trkpt lat="48.89633" lon="2.41533">
        <ele>105.8</ele>
        <time>2015-04-13T18:56:12.889Z</time>
      </trkpt>
      <trkpt lat="48.89634" lon="2.41541">
        <ele>106</ele>
        <time>2015-04-13T18:56:13.842Z</time>
      </trkpt>
      <trkpt lat="48.89635" lon="2.41548">
        <ele>106.3</ele>
        <time>2015-04-13T18:56:14.811Z</time>
      </trkpt>
      <trkpt lat="48.89635" lon="2.41556">
        <ele>106.4</ele>
        <time>2015-04-13T18:56:15.819Z</time>
      </trkpt>
      <trkpt lat="48.89635" lon="2.41565">
        <ele>106.8</ele>
        <time>2015-04-13T18:56:16.838Z</time>
      </trkpt>
      <trkpt lat="48.89637" lon="2.41573">
        <ele>107.7</ele>
        <time>2015-04-13T18:56:17.865Z</time>
      </trkpt>
      <trkpt lat="48.89638" lon="2.41581">
        <ele>109.2</ele>
        <time>2015-04-13T18:56:18.885Z</time>
      </trkpt>
      <trkpt lat="48.89638" lon="2.4159">
        <ele>110.6</ele>
        <time>2015-04-13T18:56:19.817Z</time>
      </trkpt>
      <trkpt lat="48.8964" lon="2.41599">
        <ele>111.4</ele>
        <time>2015-04-13T18:56:20.791Z</time>
      </trkpt>
      <trkpt lat="48.89641" lon="2.41607">
        <ele>112.2</ele>
        <time>2015-04-13T18:56:21.797Z</time>
      </trkpt>
      <trkpt lat="48.89642" lon="2.41616">
        <ele>112.9</ele>
        <time>2015-04-13T18:56:22.808Z</time>
      </trkpt>
      <trkpt lat="48.89645" lon="2.41625">
        <ele>113.8</ele>
        <time>2015-04-13T18:56:23.867Z</time>
      </trkpt>
      <trkpt lat="48.89646" lon="2.41634">
        <ele>114.3</ele>
        <time>2015-04-13T18:56:24.886Z</time>
      </trkpt>
      <trkpt lat="48.89647" lon="2.41642">
        <ele>114.8</ele>
        <time>2015-04-13T18:56:25.798Z</time>
      </trkpt>
      <trkpt lat="48.89648" lon="2.41651">
        <ele>115.2</ele>
        <time>2015-04-13T18:56:26.840Z</time>
      </trkpt>
      <trkpt lat="48.89649" lon="2.4166">
        <ele>115.5</ele>
        <time>2015-04-13T18:56:27.855Z</time>
      </trkpt>
      <trkpt lat="48.89651" lon="2.41668">
        <ele>115.9</ele>
        <time>2015-04-13T18:56:28.868Z</time>
      </trkpt>
      <trkpt lat="48.89652" lon="2.41677">
        <ele>116.2</ele>
        <time>2015-04-13T18:56:29.782Z</time>
      </trkpt>
      <trkpt lat="48.89652" lon="2.41685">
        <ele>116.3</ele>
        <time>2015-04-13T18:56:30.814Z</time>
      </trkpt>
      <trkpt lat="48.89653" lon="2.41693">
        <ele>116.6</ele>
        <time>2015-04-13T18:56:31.845Z</time>
      </trkpt>
      <trkpt lat="48.89654" lon="2.41702">
        <ele>116.8</ele>
        <time>2015-04-13T18:56:32.843Z</time>
      </trkpt>
      <trkpt lat="48.89655" lon="2.41711">
        <ele>116.9</ele>
        <time>2015-04-13T18:56:33.858Z</time>
      </trkpt>
      <trkpt lat="48.89656" lon="2.41719">
        <ele>117</ele>
        <time>2015-04-13T18:56:34.867Z</time>
      </trkpt>
      <trkpt lat="48.89656" lon="2.41728">
        <ele>117.1</ele>
        <time>2015-04-13T18:56:35.753Z</time>
      </trkpt>
      <trkpt lat="48.89657" lon="2.41737">
        <ele>117.1</ele>
        <time>2015-04-13T18:56:36.830Z</time>
      </trkpt>
      <trkpt lat="48.89658" lon="2.41748">
        <ele>116.3</ele>
        <time>2015-04-13T18:56:37.796Z</time>
      </trkpt>
      <trkpt lat="48.89659" lon="2.41757">
        <ele>116.5</ele>
        <time>2015-04-13T18:56:38.808Z</time>
      </trkpt>
      <trkpt lat="48.8966" lon="2.41766">
        <ele>116.7</ele>
        <time>2015-04-13T18:56:39.815Z</time>
      </trkpt>
      <trkpt lat="48.89661" lon="2.41775">
        <ele>116.7</ele>
        <time>2015-04-13T18:56:40.832Z</time>
      </trkpt>
      <trkpt lat="48.89662" lon="2.41784">
        <ele>116.8</ele>
        <time>2015-04-13T18:56:41.870Z</time>
      </trkpt>
      <trkpt lat="48.89663" lon="2.41792">
        <ele>116.9</ele>
        <time>2015-04-13T18:56:42.884Z</time>
      </trkpt>
      <trkpt lat="48.89664" lon="2.41801">
        <ele>116.4</ele>
        <time>2015-04-13T18:56:43.784Z</time>
      </trkpt>
      <trkpt lat="48.89665" lon="2.4181">
        <ele>116</ele>
        <time>2015-04-13T18:56:44.810Z</time>
      </trkpt>
      <trkpt lat="48.89665" lon="2.41818">
        <ele>115.6</ele>
        <time>2015-04-13T18:56:45.832Z</time>
      </trkpt>
      <trkpt lat="48.89666" lon="2.41827">
        <ele>115.3</ele>
        <time>2015-04-13T18:56:46.847Z</time>
      </trkpt>
      <trkpt lat="48.89667" lon="2.41835">
        <ele>114.9</ele>
        <time>2015-04-13T18:56:47.859Z</time>
      </trkpt>
      <trkpt lat="48.89668" lon="2.41844">
        <ele>114.5</ele>
        <time>2015-04-13T18:56:48.869Z</time>
      </trkpt>
      <trkpt lat="48.89668" lon="2.41852">
        <ele>114.1</ele>
        <time>2015-04-13T18:56:49.865Z</time>
      </trkpt>
      <trkpt lat="48.89669" lon="2.4186">
        <ele>113.7</ele>
        <time>2015-04-13T18:56:50.821Z</time>
      </trkpt>
      <trkpt lat="48.89669" lon="2.41868">
        <ele>113.5</ele>
        <time>2015-04-13T18:56:51.814Z</time>
      </trkpt>
      <trkpt lat="48.8967" lon="2.41875">
        <ele>113.2</ele>
        <time>2015-04-13T18:56:52.854Z</time>
      </trkpt>
      <trkpt lat="48.8967" lon="2.41883">
        <ele>112.9</ele>
        <time>2015-04-13T18:56:53.867Z</time>
      </trkpt>
      <trkpt lat="48.89671" lon="2.41891">
        <ele>112.6</ele>
        <time>2015-04-13T18:56:54.887Z</time>
      </trkpt>
      <trkpt lat="48.8967" lon="2.41899">
        <ele>112.4</ele>
        <time>2015-04-13T18:56:55.789Z</time>
      </trkpt>
      <trkpt lat="48.8967" lon="2.41907">
        <ele>112.3</ele>
        <time>2015-04-13T18:56:56.784Z</time>
      </trkpt>
      <trkpt lat="48.8967" lon="2.41914">
        <ele>112</ele>
        <time>2015-04-13T18:56:57.802Z</time>
      </trkpt>
      <trkpt lat="48.89669" lon="2.41927">
        <ele>112.1</ele>
        <time>2015-04-13T18:56:59.826Z</time>
      </trkpt>
      <trkpt lat="48.89668" lon="2.41933">
        <ele>112.3</ele>
        <time>2015-04-13T18:57:00.851Z</time>
      </trkpt>
      <trkpt lat="48.89665" lon="2.41942">
        <ele>111.8</ele>
        <time>2015-04-13T18:57:02.877Z</time>
      </trkpt>
      <trkpt lat="48.89664" lon="2.41946">
        <ele>111.3</ele>
        <time>2015-04-13T18:57:03.787Z</time>
      </trkpt>
      <trkpt lat="48.8966" lon="2.41953">
        <ele>110.6</ele>
        <time>2015-04-13T18:57:05.808Z</time>
      </trkpt>
      <trkpt lat="48.8966" lon="2.41958">
        <ele>110.4</ele>
        <time>2015-04-13T18:57:06.807Z</time>
      </trkpt>
      <trkpt lat="48.89658" lon="2.41969">
        <ele>110.1</ele>
        <time>2015-04-13T18:57:08.840Z</time>
      </trkpt>
      <trkpt lat="48.89658" lon="2.41975">
        <ele>110.1</ele>
        <time>2015-04-13T18:57:09.851Z</time>
      </trkpt>
      <trkpt lat="48.89659" lon="2.41987">
        <ele>110</ele>
        <time>2015-04-13T18:57:11.788Z</time>
      </trkpt>
      <trkpt lat="48.89659" lon="2.41993">
        <ele>109.8</ele>
        <time>2015-04-13T18:57:12.835Z</time>
      </trkpt>
      <trkpt lat="48.89659" lon="2.42004">
        <ele>109.7</ele>
        <time>2015-04-13T18:57:14.802Z</time>
      </trkpt>
      <trkpt lat="48.89659" lon="2.42009">
        <ele>109.6</ele>
        <time>2015-04-13T18:57:15.832Z</time>
      </trkpt>
      <trkpt lat="48.89659" lon="2.42019">
        <ele>109.1</ele>
        <time>2015-04-13T18:57:17.874Z</time>
      </trkpt>
      <trkpt lat="48.89659" lon="2.42025">
        <ele>108.8</ele>
        <time>2015-04-13T18:57:18.899Z</time>
      </trkpt>
      <trkpt lat="48.89659" lon="2.42037">
        <ele>108.5</ele>
        <time>2015-04-13T18:57:20.816Z</time>
      </trkpt>
      <trkpt lat="48.89659" lon="2.42043">
        <ele>108.3</ele>
        <time>2015-04-13T18:57:21.837Z</time>
      </trkpt>
      <trkpt lat="48.8966" lon="2.4205">
        <ele>108</ele>
        <time>2015-04-13T18:57:22.859Z</time>
      </trkpt>
      <trkpt lat="48.8966" lon="2.42057">
        <ele>107.8</ele>
        <time>2015-04-13T18:57:23.783Z</time>
      </trkpt>
      <trkpt lat="48.8966" lon="2.42065">
        <ele>107.9</ele>
        <time>2015-04-13T18:57:24.888Z</time>
      </trkpt>
      <trkpt lat="48.8966" lon="2.42071">
        <ele>107.9</ele>
        <time>2015-04-13T18:57:25.877Z</time>
      </trkpt>
      <trkpt lat="48.8966" lon="2.42085">
        <ele>107.8</ele>
        <time>2015-04-13T18:57:27.793Z</time>
      </trkpt>
      <trkpt lat="48.8966" lon="2.42092">
        <ele>107.7</ele>
        <time>2015-04-13T18:57:28.832Z</time>
      </trkpt>
      <trkpt lat="48.8966" lon="2.42105">
        <ele>107.3</ele>
        <time>2015-04-13T18:57:30.875Z</time>
      </trkpt>
      <trkpt lat="48.89661" lon="2.42112">
        <ele>107.1</ele>
        <time>2015-04-13T18:57:31.845Z</time>
      </trkpt>
      <trkpt lat="48.89661" lon="2.42125">
        <ele>106.6</ele>
        <time>2015-04-13T18:57:33.871Z</time>
      </trkpt>
      <trkpt lat="48.89661" lon="2.42131">
        <ele>106</ele>
        <time>2015-04-13T18:57:34.817Z</time>
      </trkpt>
      <trkpt lat="48.89662" lon="2.42143">
        <ele>105.8</ele>
        <time>2015-04-13T18:57:36.860Z</time>
      </trkpt>
      <trkpt lat="48.89662" lon="2.42148">
        <ele>105.7</ele>
        <time>2015-04-13T18:57:37.891Z</time>
      </trkpt>
      <trkpt lat="48.89663" lon="2.42158">
        <ele>105.4</ele>
        <time>2015-04-13T18:57:39.796Z</time>
      </trkpt>
      <trkpt lat="48.89663" lon="2.42162">
        <ele>105.3</ele>
        <time>2015-04-13T18:57:40.814Z</time>
      </trkpt>
      <trkpt lat="48.89662" lon="2.42174">
        <ele>105.5</ele>
        <time>2015-04-13T18:57:43.860Z</time>
      </trkpt>
      <trkpt lat="48.89662" lon="2.42176">
        <ele>105.1</ele>
        <time>2015-04-13T18:57:44.792Z</time>
      </trkpt>
      <trkpt lat="48.89661" lon="2.42189">
        <ele>105.2</ele>
        <time>2015-04-13T18:57:51.890Z</time>
      </trkpt>
      <trkpt lat="48.8966" lon="2.4219">
        <ele>105.2</ele>
        <time>2015-04-13T18:57:52.790Z</time>
      </trkpt>
      <trkpt lat="48.89659" lon="2.4219">
        <ele>104.9</ele>
        <time>2015-04-13T18:57:53.813Z</time>
      </trkpt>
      <trkpt lat="48.89659" lon="2.4219">
        <ele>104.8</ele>
        <time>2015-04-13T18:57:54.844Z</time>
      </trkpt>
      <trkpt lat="48.89655" lon="2.4218">
        <ele>104</ele>
        <time>2015-04-13T18:58:00.825Z</time>
      </trkpt>
      <trkpt lat="48.89653" lon="2.42178">
        <ele>103.8</ele>
        <time>2015-04-13T18:58:01.835Z</time>
      </trkpt>
      <trkpt lat="48.89646" lon="2.42174">
        <ele>103</ele>
        <time>2015-04-13T18:58:03.870Z</time>
      </trkpt>
      <trkpt lat="48.89643" lon="2.42173">
        <ele>102.8</ele>
        <time>2015-04-13T18:58:04.781Z</time>
      </trkpt>
      <trkpt lat="48.89634" lon="2.42172">
        <ele>103.1</ele>
        <time>2015-04-13T18:58:07.824Z</time>
      </trkpt>
      <trkpt lat="48.89631" lon="2.42172">
        <ele>103</ele>
        <time>2015-04-13T18:58:08.829Z</time>
      </trkpt>
      <trkpt lat="48.89622" lon="2.42173">
        <ele>103.3</ele>
        <time>2015-04-13T18:58:13.907Z</time>
      </trkpt>
      <trkpt lat="48.89621" lon="2.42174">
        <ele>103.3</ele>
        <time>2015-04-13T18:58:14.802Z</time>
      </trkpt>
      <trkpt lat="48.89619" lon="2.42184">
        <ele>104.8</ele>
        <time>2015-04-13T18:58:18.833Z</time>
      </trkpt>
      <trkpt lat="48.89619" lon="2.42189">
        <ele>104.8</ele>
        <time>2015-04-13T18:58:19.848Z</time>
      </trkpt>
      <trkpt lat="48.8962" lon="2.42198">
        <ele>104.4</ele>
        <time>2015-04-13T18:58:21.797Z</time>
      </trkpt>
      <trkpt lat="48.89621" lon="2.42203">
        <ele>104.4</ele>
        <time>2015-04-13T18:58:22.791Z</time>
      </trkpt>
      <trkpt lat="48.89623" lon="2.42214">
        <ele>104.2</ele>
        <time>2015-04-13T18:58:24.825Z</time>
      </trkpt>
      <trkpt lat="48.89623" lon="2.42219">
        <ele>104</ele>
        <time>2015-04-13T18:58:25.826Z</time>
      </trkpt>
      <trkpt lat="48.89624" lon="2.42232">
        <ele>103.8</ele>
        <time>2015-04-13T18:58:28.872Z</time>
      </trkpt>
      <trkpt lat="48.89625" lon="2.42235">
        <ele>103.8</ele>
        <time>2015-04-13T18:58:29.883Z</time>
      </trkpt>
      <trkpt lat="48.89625" lon="2.42246">
        <ele>104</ele>
        <time>2015-04-13T18:58:32.800Z</time>
      </trkpt>
      <trkpt lat="48.89625" lon="2.42249">
        <ele>104.2</ele>
        <time>2015-04-13T18:58:33.798Z</time>
      </trkpt>
      <trkpt lat="48.89626" lon="2.42261">
        <ele>105.1</ele>
        <time>2015-04-13T18:58:36.848Z</time>
      </trkpt>
      <trkpt lat="48.89626" lon="2.42265">
        <ele>105.1</ele>
        <time>2015-04-13T18:58:37.847Z</time>
      </trkpt>
      <trkpt lat="48.89628" lon="2.42274">
        <ele>105.5</ele>
        <time>2015-04-13T18:58:39.802Z</time>
      </trkpt>
      <trkpt lat="48.89628" lon="2.42279">
        <ele>105.4</ele>
        <time>2015-04-13T18:58:40.824Z</time>
      </trkpt>
      <trkpt lat="48.89629" lon="2.42292">
        <ele>104.7</ele>
        <time>2015-04-13T18:58:43.879Z</time>
      </trkpt>
      <trkpt lat="48.89628" lon="2.42296">
        <ele>104.5</ele>
        <time>2015-04-13T18:58:44.884Z</time>
      </trkpt>
      <trkpt lat="48.89626" lon="2.42309">
        <ele>103.5</ele>
        <time>2015-04-13T18:58:47.655Z</time>
      </trkpt>
      <trkpt lat="48.89626" lon="2.42313">
        <ele>103.4</ele>
        <time>2015-04-13T18:58:48.849Z</time>
      </trkpt>
      <trkpt lat="48.89624" lon="2.42321">
        <ele>103.4</ele>
        <time>2015-04-13T18:58:50.823Z</time>
      </trkpt>
      <trkpt lat="48.89622" lon="2.42326">
        <ele>103.7</ele>
        <time>2015-04-13T18:58:51.824Z</time>
      </trkpt>
      <trkpt lat="48.89622" lon="2.42338">
        <ele>104.5</ele>
        <time>2015-04-13T18:58:54.900Z</time>
      </trkpt>
      <trkpt lat="48.89622" lon="2.42342">
        <ele>104.6</ele>
        <time>2015-04-13T18:58:55.912Z</time>
      </trkpt>
      <trkpt lat="48.89624" lon="2.42352">
        <ele>104.8</ele>
        <time>2015-04-13T18:58:57.802Z</time>
      </trkpt>
      <trkpt lat="48.89626" lon="2.42356">
        <ele>104.9</ele>
        <time>2015-04-13T18:58:58.812Z</time>
      </trkpt>
      <trkpt lat="48.89629" lon="2.42366">
        <ele>105.8</ele>
        <time>2015-04-13T18:59:01.880Z</time>
      </trkpt>
      <trkpt lat="48.89629" lon="2.42369">
        <ele>105.9</ele>
        <time>2015-04-13T18:59:02.790Z</time>
      </trkpt>
      <trkpt lat="48.89631" lon="2.42379">
        <ele>106.5</ele>
        <time>2015-04-13T18:59:05.810Z</time>
      </trkpt>
      <trkpt lat="48.89631" lon="2.42383">
        <ele>106.6</ele>
        <time>2015-04-13T18:59:06.845Z</time>
      </trkpt>
      <trkpt lat="48.89633" lon="2.42394">
        <ele>105.4</ele>
        <time>2015-04-13T18:59:08.832Z</time>
      </trkpt>
      <trkpt lat="48.89634" lon="2.42397">
        <ele>105.3</ele>
        <time>2015-04-13T18:59:09.837Z</time>
      </trkpt>
      <trkpt lat="48.89635" lon="2.42407">
        <ele>105.5</ele>
        <time>2015-04-13T18:59:12.888Z</time>
      </trkpt>
      <trkpt lat="48.89635" lon="2.42411">
        <ele>105.5</ele>
        <time>2015-04-13T18:59:13.806Z</time>
      </trkpt>
      <trkpt lat="48.89636" lon="2.42421">
        <ele>104.6</ele>
        <time>2015-04-13T18:59:15.817Z</time>
      </trkpt>
      <trkpt lat="48.89637" lon="2.42425">
        <ele>104.1</ele>
        <time>2015-04-13T18:59:16.833Z</time>
      </trkpt>
      <trkpt lat="48.8964" lon="2.42434">
        <ele>103.8</ele>
        <time>2015-04-13T18:59:19.578Z</time>
      </trkpt>
      <trkpt lat="48.89641" lon="2.42438">
        <ele>103.9</ele>
        <time>2015-04-13T18:59:19.861Z</time>
      </trkpt>
      <trkpt lat="48.89644" lon="2.42447">
        <ele>104.4</ele>
        <time>2015-04-13T18:59:21.760Z</time>
      </trkpt>
      <trkpt lat="48.89645" lon="2.42452">
        <ele>104.2</ele>
        <time>2015-04-13T18:59:22.799Z</time>
      </trkpt>
      <trkpt lat="48.89647" lon="2.42462">
        <ele>104.5</ele>
        <time>2015-04-13T18:59:24.815Z</time>
      </trkpt>
      <trkpt lat="48.89648" lon="2.42468">
        <ele>104.5</ele>
        <time>2015-04-13T18:59:25.855Z</time>
      </trkpt>
      <trkpt lat="48.89649" lon="2.42479">
        <ele>104.9</ele>
        <time>2015-04-13T18:59:27.786Z</time>
      </trkpt>
      <trkpt lat="48.89649" lon="2.42485">
        <ele>104.9</ele>
        <time>2015-04-13T18:59:28.799Z</time>
      </trkpt>
      <trkpt lat="48.8965" lon="2.42495">
        <ele>105.2</ele>
        <time>2015-04-13T18:59:30.833Z</time>
      </trkpt>
      <trkpt lat="48.89651" lon="2.42501">
        <ele>105</ele>
        <time>2015-04-13T18:59:31.850Z</time>
      </trkpt>
      <trkpt lat="48.89651" lon="2.4251">
        <ele>104.7</ele>
        <time>2015-04-13T18:59:33.791Z</time>
      </trkpt>
      <trkpt lat="48.89652" lon="2.42515">
        <ele>104.6</ele>
        <time>2015-04-13T18:59:34.784Z</time>
      </trkpt>
      <trkpt lat="48.89653" lon="2.42527">
        <ele>104.6</ele>
        <time>2015-04-13T18:59:37.834Z</time>
      </trkpt>
      <trkpt lat="48.89653" lon="2.42532">
        <ele>104.7</ele>
        <time>2015-04-13T18:59:38.852Z</time>
      </trkpt>
      <trkpt lat="48.89655" lon="2.42544">
        <ele>105</ele>
        <time>2015-04-13T18:59:41.844Z</time>
      </trkpt>
      <trkpt lat="48.89656" lon="2.42548">
        <ele>104.8</ele>
        <time>2015-04-13T18:59:42.854Z</time>
      </trkpt>
      <trkpt lat="48.89654" lon="2.4256">
        <ele>103.2</ele>
        <time>2015-04-13T19:00:05.341Z</time>
      </trkpt>
      <trkpt lat="48.89654" lon="2.42563">
        <ele>103.2</ele>
        <time>2015-04-13T19:00:05.812Z</time>
      </trkpt>
      <trkpt lat="48.89655" lon="2.42575">
        <ele>103.7</ele>
        <time>2015-04-13T19:00:08.848Z</time>
      </trkpt>
      <trkpt lat="48.89655" lon="2.4258">
        <ele>103.9</ele>
        <time>2015-04-13T19:00:09.769Z</time>
      </trkpt>
      <trkpt lat="48.89655" lon="2.4259">
        <ele>104.1</ele>
        <time>2015-04-13T19:00:11.800Z</time>
      </trkpt>
      <trkpt lat="48.89655" lon="2.42595">
        <ele>104.1</ele>
        <time>2015-04-13T19:00:12.791Z</time>
      </trkpt>
      <trkpt lat="48.89656" lon="2.42607">
        <ele>104.3</ele>
        <time>2015-04-13T19:00:14.851Z</time>
      </trkpt>
      <trkpt lat="48.89656" lon="2.42612">
        <ele>104.6</ele>
        <time>2015-04-13T19:00:15.759Z</time>
      </trkpt>
      <trkpt lat="48.89658" lon="2.42623">
        <ele>105</ele>
        <time>2015-04-13T19:00:17.772Z</time>
      </trkpt>
      <trkpt lat="48.89659" lon="2.42629">
        <ele>105.1</ele>
        <time>2015-04-13T19:00:18.892Z</time>
      </trkpt>
      <trkpt lat="48.8966" lon="2.4264">
        <ele>105.4</ele>
        <time>2015-04-13T19:00:20.775Z</time>
      </trkpt>
      <trkpt lat="48.89661" lon="2.42647">
        <ele>105.5</ele>
        <time>2015-04-13T19:00:21.795Z</time>
      </trkpt>
      <trkpt lat="48.89662" lon="2.42658">
        <ele>105.3</ele>
        <time>2015-04-13T19:00:24.656Z</time>
      </trkpt>
      <trkpt lat="48.89663" lon="2.42665">
        <ele>104.8</ele>
        <time>2015-04-13T19:00:24.847Z</time>
      </trkpt>
      <trkpt lat="48.89664" lon="2.42677">
        <ele>105</ele>
        <time>2015-04-13T19:00:26.820Z</time>
      </trkpt>
      <trkpt lat="48.89664" lon="2.42682">
        <ele>105.1</ele>
        <time>2015-04-13T19:00:27.778Z</time>
      </trkpt>
      <trkpt lat="48.89667" lon="2.42694">
        <ele>105.2</ele>
        <time>2015-04-13T19:00:29.814Z</time>
      </trkpt>
      <trkpt lat="48.89668" lon="2.42701">
        <ele>105.3</ele>
        <time>2015-04-13T19:00:30.812Z</time>
      </trkpt>
      <trkpt lat="48.8967" lon="2.42713">
        <ele>104.8</ele>
        <time>2015-04-13T19:00:32.840Z</time>
      </trkpt>
      <trkpt lat="48.89671" lon="2.42719">
        <ele>104.4</ele>
        <time>2015-04-13T19:00:33.773Z</time>
      </trkpt>
      <trkpt lat="48.89674" lon="2.42728">
        <ele>104</ele>
        <time>2015-04-13T19:00:35.830Z</time>
      </trkpt>
      <trkpt lat="48.89675" lon="2.42733">
        <ele>103.8</ele>
        <time>2015-04-13T19:00:36.860Z</time>
      </trkpt>
      <trkpt lat="48.89678" lon="2.42742">
        <ele>103.5</ele>
        <time>2015-04-13T19:00:38.765Z</time>
      </trkpt>
      <trkpt lat="48.89679" lon="2.42747">
        <ele>103.5</ele>
        <time>2015-04-13T19:00:39.783Z</time>
      </trkpt>
      <trkpt lat="48.89681" lon="2.42757">
        <ele>103.7</ele>
        <time>2015-04-13T19:00:41.808Z</time>
      </trkpt>
      <trkpt lat="48.89681" lon="2.42763">
        <ele>103.8</ele>
        <time>2015-04-13T19:00:42.825Z</time>
      </trkpt>
      <trkpt lat="48.89683" lon="2.42776">
        <ele>103.2</ele>
        <time>2015-04-13T19:00:45.052Z</time>
      </trkpt>
      <trkpt lat="48.89684" lon="2.42782">
        <ele>103.3</ele>
        <time>2015-04-13T19:00:45.883Z</time>
      </trkpt>
      <trkpt lat="48.89684" lon="2.42795">
        <ele>103.2</ele>
        <time>2015-04-13T19:00:47.775Z</time>
      </trkpt>
      <trkpt lat="48.89685" lon="2.428">
        <ele>103.1</ele>
        <time>2015-04-13T19:00:48.806Z</time>
      </trkpt>
      <trkpt lat="48.89686" lon="2.4281">
        <ele>103.1</ele>
        <time>2015-04-13T19:00:50.791Z</time>
      </trkpt>
      <trkpt lat="48.89687" lon="2.42815">
        <ele>103.3</ele>
        <time>2015-04-13T19:00:51.802Z</time>
      </trkpt>
      <trkpt lat="48.89689" lon="2.42826">
        <ele>103.9</ele>
        <time>2015-04-13T19:00:53.822Z</time>
      </trkpt>
      <trkpt lat="48.89689" lon="2.42833">
        <ele>104.1</ele>
        <time>2015-04-13T19:00:54.823Z</time>
      </trkpt>
      <trkpt lat="48.89691" lon="2.42844">
        <ele>103.9</ele>
        <time>2015-04-13T19:00:56.796Z</time>
      </trkpt>
      <trkpt lat="48.89692" lon="2.42849">
        <ele>103.8</ele>
        <time>2015-04-13T19:00:57.788Z</time>
      </trkpt>
      <trkpt lat="48.89694" lon="2.4286">
        <ele>103.3</ele>
        <time>2015-04-13T19:01:00.276Z</time>
      </trkpt>
      <trkpt lat="48.89695" lon="2.42866">
        <ele>103.2</ele>
        <time>2015-04-13T19:01:00.819Z</time>
      </trkpt>
      <trkpt lat="48.89697" lon="2.42878">
        <ele>102.7</ele>
        <time>2015-04-13T19:01:02.845Z</time>
      </trkpt>
      <trkpt lat="48.89698" lon="2.42884">
        <ele>102.6</ele>
        <time>2015-04-13T19:01:03.842Z</time>
      </trkpt>
      <trkpt lat="48.897" lon="2.42896">
        <ele>102.1</ele>
        <time>2015-04-13T19:01:05.804Z</time>
      </trkpt>
      <trkpt lat="48.89702" lon="2.42903">
        <ele>102.1</ele>
        <time>2015-04-13T19:01:06.834Z</time>
      </trkpt>
      <trkpt lat="48.89705" lon="2.42915">
        <ele>102.4</ele>
        <time>2015-04-13T19:01:08.768Z</time>
      </trkpt>
      <trkpt lat="48.89706" lon="2.42922">
        <ele>102.1</ele>
        <time>2015-04-13T19:01:09.894Z</time>
      </trkpt>
      <trkpt lat="48.89708" lon="2.42935">
        <ele>101.7</ele>
        <time>2015-04-13T19:01:11.766Z</time>
      </trkpt>
      <trkpt lat="48.8971" lon="2.42942">
        <ele>101.5</ele>
        <time>2015-04-13T19:01:12.831Z</time>
      </trkpt>
      <trkpt lat="48.89711" lon="2.42948">
        <ele>101.5</ele>
        <time>2015-04-13T19:01:14.533Z</time>
      </trkpt>
      <trkpt lat="48.89712" lon="2.42955">
        <ele>101.4</ele>
        <time>2015-04-13T19:01:14.861Z</time>
      </trkpt>
      <trkpt lat="48.89714" lon="2.42962">
        <ele>101.4</ele>
        <time>2015-04-13T19:01:15.781Z</time>
      </trkpt>
      <trkpt lat="48.89715" lon="2.42968">
        <ele>101.2</ele>
        <time>2015-04-13T19:01:16.808Z</time>
      </trkpt>
      <trkpt lat="48.89717" lon="2.42975">
        <ele>101.3</ele>
        <time>2015-04-13T19:01:17.822Z</time>
      </trkpt>
      <trkpt lat="48.89719" lon="2.42982">
        <ele>101.4</ele>
        <time>2015-04-13T19:01:18.843Z</time>
      </trkpt>
      <trkpt lat="48.8972" lon="2.42989">
        <ele>101.4</ele>
        <time>2015-04-13T19:01:19.857Z</time>
      </trkpt>
      <trkpt lat="48.89721" lon="2.42995">
        <ele>101.6</ele>
        <time>2015-04-13T19:01:20.861Z</time>
      </trkpt>
      <trkpt lat="48.89723" lon="2.43002">
        <ele>101.6</ele>
        <time>2015-04-13T19:01:21.785Z</time>
      </trkpt>
      <trkpt lat="48.89724" lon="2.43009">
        <ele>102.1</ele>
        <time>2015-04-13T19:01:22.897Z</time>
      </trkpt>
      <trkpt lat="48.89726" lon="2.43016">
        <ele>102.5</ele>
        <time>2015-04-13T19:01:23.791Z</time>
      </trkpt>
      <trkpt lat="48.89728" lon="2.43023">
        <ele>102.6</ele>
        <time>2015-04-13T19:01:24.827Z</time>
      </trkpt>
      <trkpt lat="48.89729" lon="2.4303">
        <ele>102.5</ele>
        <time>2015-04-13T19:01:25.842Z</time>
      </trkpt>
      <trkpt lat="48.89731" lon="2.43037">
        <ele>102.5</ele>
        <time>2015-04-13T19:01:26.858Z</time>
      </trkpt>
      <trkpt lat="48.89733" lon="2.43044">
        <ele>102.6</ele>
        <time>2015-04-13T19:01:27.867Z</time>
      </trkpt>
      <trkpt lat="48.89735" lon="2.43051">
        <ele>102.8</ele>
        <time>2015-04-13T19:01:28.883Z</time>
      </trkpt>
      <trkpt lat="48.89736" lon="2.43059">
        <ele>103.1</ele>
        <time>2015-04-13T19:01:29.797Z</time>
      </trkpt>
      <trkpt lat="48.89737" lon="2.43066">
        <ele>103.2</ele>
        <time>2015-04-13T19:01:30.814Z</time>
      </trkpt>
      <trkpt lat="48.89738" lon="2.43073">
        <ele>103.2</ele>
        <time>2015-04-13T19:01:31.871Z</time>
      </trkpt>
      <trkpt lat="48.89739" lon="2.4308">
        <ele>103.2</ele>
        <time>2015-04-13T19:01:32.771Z</time>
      </trkpt>
      <trkpt lat="48.89741" lon="2.43087">
        <ele>102.9</ele>
        <time>2015-04-13T19:01:33.790Z</time>
      </trkpt>
      <trkpt lat="48.89742" lon="2.43093">
        <ele>103.1</ele>
        <time>2015-04-13T19:01:34.788Z</time>
      </trkpt>
      <trkpt lat="48.89744" lon="2.431">
        <ele>103.3</ele>
        <time>2015-04-13T19:01:35.795Z</time>
      </trkpt>
      <trkpt lat="48.89745" lon="2.43107">
        <ele>103.3</ele>
        <time>2015-04-13T19:01:36.842Z</time>
      </trkpt>
      <trkpt lat="48.89747" lon="2.43113">
        <ele>103.2</ele>
        <time>2015-04-13T19:01:37.848Z</time>
      </trkpt>
      <trkpt lat="48.89748" lon="2.4312">
        <ele>103.2</ele>
        <time>2015-04-13T19:01:38.911Z</time>
      </trkpt>
      <trkpt lat="48.89749" lon="2.43127">
        <ele>103</ele>
        <time>2015-04-13T19:01:39.777Z</time>
      </trkpt>
      <trkpt lat="48.8975" lon="2.43133">
        <ele>103</ele>
        <time>2015-04-13T19:01:40.781Z</time>
      </trkpt>
      <trkpt lat="48.89751" lon="2.43141">
        <ele>103</ele>
        <time>2015-04-13T19:01:41.802Z</time>
      </trkpt>
      <trkpt lat="48.89752" lon="2.43148">
        <ele>103.2</ele>
        <time>2015-04-13T19:01:42.804Z</time>
      </trkpt>
      <trkpt lat="48.89754" lon="2.43156">
        <ele>103.1</ele>
        <time>2015-04-13T19:01:43.823Z</time>
      </trkpt>
      <trkpt lat="48.89755" lon="2.43163">
        <ele>103.2</ele>
        <time>2015-04-13T19:01:44.840Z</time>
      </trkpt>
      <trkpt lat="48.89757" lon="2.4317">
        <ele>103.1</ele>
        <time>2015-04-13T19:01:45.850Z</time>
      </trkpt>
      <trkpt lat="48.89758" lon="2.43177">
        <ele>103.1</ele>
        <time>2015-04-13T19:01:46.860Z</time>
      </trkpt>
      <trkpt lat="48.8976" lon="2.43184">
        <ele>103.3</ele>
        <time>2015-04-13T19:01:47.878Z</time>
      </trkpt>
      <trkpt lat="48.89761" lon="2.43192">
        <ele>103.3</ele>
        <time>2015-04-13T19:01:48.881Z</time>
      </trkpt>
      <trkpt lat="48.89762" lon="2.43199">
        <ele>103.2</ele>
        <time>2015-04-13T19:01:49.899Z</time>
      </trkpt>
      <trkpt lat="48.89764" lon="2.43206">
        <ele>103.3</ele>
        <time>2015-04-13T19:01:50.779Z</time>
      </trkpt>
      <trkpt lat="48.89765" lon="2.43213">
        <ele>103.4</ele>
        <time>2015-04-13T19:01:51.780Z</time>
      </trkpt>
      <trkpt lat="48.89767" lon="2.43221">
        <ele>103.5</ele>
        <time>2015-04-13T19:01:52.800Z</time>
      </trkpt>
      <trkpt lat="48.89768" lon="2.43228">
        <ele>103.6</ele>
        <time>2015-04-13T19:01:53.815Z</time>
      </trkpt>
      <trkpt lat="48.8977" lon="2.43236">
        <ele>103.6</ele>
        <time>2015-04-13T19:01:54.816Z</time>
      </trkpt>
      <trkpt lat="48.89771" lon="2.43243">
        <ele>103.5</ele>
        <time>2015-04-13T19:01:55.838Z</time>
      </trkpt>
      <trkpt lat="48.89773" lon="2.4325">
        <ele>103.3</ele>
        <time>2015-04-13T19:01:56.842Z</time>
      </trkpt>
      <trkpt lat="48.89775" lon="2.43257">
        <ele>103.2</ele>
        <time>2015-04-13T19:01:57.852Z</time>
      </trkpt>
      <trkpt lat="48.89776" lon="2.43264">
        <ele>103.1</ele>
        <time>2015-04-13T19:01:58.857Z</time>
      </trkpt>
      <trkpt lat="48.89778" lon="2.43271">
        <ele>103.3</ele>
        <time>2015-04-13T19:01:59.892Z</time>
      </trkpt>
      <trkpt lat="48.89779" lon="2.43279">
        <ele>103.2</ele>
        <time>2015-04-13T19:02:00.809Z</time>
      </trkpt>
      <trkpt lat="48.89781" lon="2.43286">
        <ele>103</ele>
        <time>2015-04-13T19:02:01.826Z</time>
      </trkpt>
      <trkpt lat="48.89783" lon="2.43293">
        <ele>103.1</ele>
        <time>2015-04-13T19:02:02.785Z</time>
      </trkpt>
      <trkpt lat="48.89785" lon="2.433">
        <ele>103</ele>
        <time>2015-04-13T19:02:03.789Z</time>
      </trkpt>
      <trkpt lat="48.89786" lon="2.43307">
        <ele>103</ele>
        <time>2015-04-13T19:02:04.799Z</time>
      </trkpt>
      <trkpt lat="48.89787" lon="2.43315">
        <ele>103.1</ele>
        <time>2015-04-13T19:02:05.817Z</time>
      </trkpt>
      <trkpt lat="48.89789" lon="2.43322">
        <ele>103.2</ele>
        <time>2015-04-13T19:02:06.822Z</time>
      </trkpt>
      <trkpt lat="48.8979" lon="2.4333">
        <ele>103.4</ele>
        <time>2015-04-13T19:02:07.829Z</time>
      </trkpt>
      <trkpt lat="48.89792" lon="2.43337">
        <ele>103.6</ele>
        <time>2015-04-13T19:02:08.840Z</time>
      </trkpt>
      <trkpt lat="48.89794" lon="2.43345">
        <ele>103.7</ele>
        <time>2015-04-13T19:02:09.836Z</time>
      </trkpt>
      <trkpt lat="48.89795" lon="2.43352">
        <ele>103.6</ele>
        <time>2015-04-13T19:02:10.842Z</time>
      </trkpt>
      <trkpt lat="48.89797" lon="2.43359">
        <ele>103.7</ele>
        <time>2015-04-13T19:02:11.856Z</time>
      </trkpt>
      <trkpt lat="48.89798" lon="2.43367">
        <ele>103.6</ele>
        <time>2015-04-13T19:02:12.854Z</time>
      </trkpt>
      <trkpt lat="48.898" lon="2.43374">
        <ele>103.7</ele>
        <time>2015-04-13T19:02:13.862Z</time>
      </trkpt>
      <trkpt lat="48.89801" lon="2.43382">
        <ele>103.8</ele>
        <time>2015-04-13T19:02:14.878Z</time>
      </trkpt>
      <trkpt lat="48.89803" lon="2.43389">
        <ele>104</ele>
        <time>2015-04-13T19:02:15.764Z</time>
      </trkpt>
      <trkpt lat="48.89804" lon="2.43397">
        <ele>104.1</ele>
        <time>2015-04-13T19:02:16.788Z</time>
      </trkpt>
      <trkpt lat="48.89806" lon="2.43404">
        <ele>104.4</ele>
        <time>2015-04-13T19:02:17.816Z</time>
      </trkpt>
      <trkpt lat="48.89807" lon="2.43411">
        <ele>104.4</ele>
        <time>2015-04-13T19:02:18.803Z</time>
      </trkpt>
      <trkpt lat="48.89809" lon="2.43418">
        <ele>104.5</ele>
        <time>2015-04-13T19:02:19.818Z</time>
      </trkpt>
      <trkpt lat="48.8981" lon="2.43425">
        <ele>104.5</ele>
        <time>2015-04-13T19:02:20.830Z</time>
      </trkpt>
      <trkpt lat="48.8981" lon="2.43432">
        <ele>104.8</ele>
        <time>2015-04-13T19:02:21.832Z</time>
      </trkpt>
      <trkpt lat="48.8981" lon="2.43439">
        <ele>104.9</ele>
        <time>2015-04-13T19:02:22.849Z</time>
      </trkpt>
      <trkpt lat="48.8981" lon="2.43446">
        <ele>104.8</ele>
        <time>2015-04-13T19:02:23.871Z</time>
      </trkpt>
      <trkpt lat="48.8981" lon="2.43453">
        <ele>104.9</ele>
        <time>2015-04-13T19:02:24.868Z</time>
      </trkpt>
      <trkpt lat="48.89811" lon="2.43461">
        <ele>105.1</ele>
        <time>2015-04-13T19:02:25.873Z</time>
      </trkpt>
      <trkpt lat="48.89811" lon="2.43467">
        <ele>105.2</ele>
        <time>2015-04-13T19:02:26.807Z</time>
      </trkpt>
      <trkpt lat="48.8981" lon="2.43479">
        <ele>105.5</ele>
        <time>2015-04-13T19:02:28.784Z</time>
      </trkpt>
      <trkpt lat="48.89808" lon="2.43484">
        <ele>105.5</ele>
        <time>2015-04-13T19:02:29.832Z</time>
      </trkpt>
      <trkpt lat="48.89807" lon="2.4349">
        <ele>105.5</ele>
        <time>2015-04-13T19:02:30.840Z</time>
      </trkpt>
      <trkpt lat="48.89806" lon="2.43499">
        <ele>105.4</ele>
        <time>2015-04-13T19:02:32.855Z</time>
      </trkpt>
      <trkpt lat="48.89806" lon="2.43503">
        <ele>105.4</ele>
        <time>2015-04-13T19:02:34.836Z</time>
      </trkpt>
      <trkpt lat="48.89833" lon="2.43614">
        <ele>103.4</ele>
        <time>2015-04-13T19:02:48.857Z</time>
      </trkpt>
      <trkpt lat="48.89837" lon="2.4362">
        <ele>102.5</ele>
        <time>2015-04-13T19:02:49.768Z</time>
      </trkpt>
      <trkpt lat="48.8984" lon="2.43628">
        <ele>103.1</ele>
        <time>2015-04-13T19:02:50.758Z</time>
      </trkpt>
      <trkpt lat="48.89842" lon="2.43635">
        <ele>103.2</ele>
        <time>2015-04-13T19:02:51.775Z</time>
      </trkpt>
      <trkpt lat="48.89843" lon="2.43642">
        <ele>104</ele>
        <time>2015-04-13T19:02:52.829Z</time>
      </trkpt>
      <trkpt lat="48.89843" lon="2.43655">
        <ele>104.4</ele>
        <time>2015-04-13T19:02:54.645Z</time>
      </trkpt>
      <trkpt lat="48.89844" lon="2.43662">
        <ele>104.3</ele>
        <time>2015-04-13T19:02:55.757Z</time>
      </trkpt>
      <trkpt lat="48.89845" lon="2.43668">
        <ele>103</ele>
        <time>2015-04-13T19:02:57.100Z</time>
      </trkpt>
      <trkpt lat="48.89847" lon="2.43675">
        <ele>102.1</ele>
        <time>2015-04-13T19:02:57.791Z</time>
      </trkpt>
      <trkpt lat="48.8985" lon="2.43681">
        <ele>100</ele>
        <time>2015-04-13T19:02:58.806Z</time>
      </trkpt>
      <trkpt lat="48.89853" lon="2.43688">
        <ele>99.1</ele>
        <time>2015-04-13T19:02:59.841Z</time>
      </trkpt>
      <trkpt lat="48.89856" lon="2.43695">
        <ele>99.8</ele>
        <time>2015-04-13T19:03:00.793Z</time>
      </trkpt>
      <trkpt lat="48.89858" lon="2.43703">
        <ele>100.7</ele>
        <time>2015-04-13T19:03:01.811Z</time>
      </trkpt>
      <trkpt lat="48.8986" lon="2.4371">
        <ele>100.4</ele>
        <time>2015-04-13T19:03:02.821Z</time>
      </trkpt>
      <trkpt lat="48.89861" lon="2.43717">
        <ele>99.9</ele>
        <time>2015-04-13T19:03:03.832Z</time>
      </trkpt>
      <trkpt lat="48.89862" lon="2.43723">
        <ele>98.9</ele>
        <time>2015-04-13T19:03:04.841Z</time>
      </trkpt>
      <trkpt lat="48.89864" lon="2.4373">
        <ele>99.3</ele>
        <time>2015-04-13T19:03:05.849Z</time>
      </trkpt>
      <trkpt lat="48.89866" lon="2.43737">
        <ele>99.1</ele>
        <time>2015-04-13T19:03:06.859Z</time>
      </trkpt>
      <trkpt lat="48.89867" lon="2.43744">
        <ele>99.2</ele>
        <time>2015-04-13T19:03:07.886Z</time>
      </trkpt>
      <trkpt lat="48.8987" lon="2.43757">
        <ele>97.8</ele>
        <time>2015-04-13T19:03:09.831Z</time>
      </trkpt>
      <trkpt lat="48.89871" lon="2.43764">
        <ele>98</ele>
        <time>2015-04-13T19:03:10.856Z</time>
      </trkpt>
      <trkpt lat="48.89872" lon="2.43771">
        <ele>97.9</ele>
        <time>2015-04-13T19:03:11.820Z</time>
      </trkpt>
      <trkpt lat="48.89874" lon="2.43778">
        <ele>98</ele>
        <time>2015-04-13T19:03:12.829Z</time>
      </trkpt>
      <trkpt lat="48.89875" lon="2.43786">
        <ele>98.1</ele>
        <time>2015-04-13T19:03:13.832Z</time>
      </trkpt>
      <trkpt lat="48.89877" lon="2.43793">
        <ele>97.6</ele>
        <time>2015-04-13T19:03:14.839Z</time>
      </trkpt>
      <trkpt lat="48.89879" lon="2.438">
        <ele>97.6</ele>
        <time>2015-04-13T19:03:15.862Z</time>
      </trkpt>
      <trkpt lat="48.8988" lon="2.43807">
        <ele>97.8</ele>
        <time>2015-04-13T19:03:16.824Z</time>
      </trkpt>
      <trkpt lat="48.89882" lon="2.43814">
        <ele>98</ele>
        <time>2015-04-13T19:03:17.823Z</time>
      </trkpt>
      <trkpt lat="48.89883" lon="2.43822">
        <ele>97.7</ele>
        <time>2015-04-13T19:03:18.832Z</time>
      </trkpt>
      <trkpt lat="48.89884" lon="2.43829">
        <ele>98.2</ele>
        <time>2015-04-13T19:03:19.841Z</time>
      </trkpt>
      <trkpt lat="48.89886" lon="2.43837">
        <ele>98.6</ele>
        <time>2015-04-13T19:03:20.856Z</time>
      </trkpt>
      <trkpt lat="48.89887" lon="2.43845">
        <ele>99.1</ele>
        <time>2015-04-13T19:03:21.867Z</time>
      </trkpt>
      <trkpt lat="48.89888" lon="2.43852">
        <ele>99.1</ele>
        <time>2015-04-13T19:03:22.881Z</time>
      </trkpt>
      <trkpt lat="48.89889" lon="2.4386">
        <ele>99.1</ele>
        <time>2015-04-13T19:03:23.816Z</time>
      </trkpt>
      <trkpt lat="48.89891" lon="2.43867">
        <ele>98.8</ele>
        <time>2015-04-13T19:03:24.829Z</time>
      </trkpt>
      <trkpt lat="48.89893" lon="2.43875">
        <ele>99.1</ele>
        <time>2015-04-13T19:03:25.855Z</time>
      </trkpt>
      <trkpt lat="48.89894" lon="2.43882">
        <ele>99</ele>
        <time>2015-04-13T19:03:26.943Z</time>
      </trkpt>
      <trkpt lat="48.89895" lon="2.4389">
        <ele>98.9</ele>
        <time>2015-04-13T19:03:27.830Z</time>
      </trkpt>
      <trkpt lat="48.89897" lon="2.43897">
        <ele>99</ele>
        <time>2015-04-13T19:03:28.840Z</time>
      </trkpt>
      <trkpt lat="48.89899" lon="2.43905">
        <ele>99.1</ele>
        <time>2015-04-13T19:03:29.892Z</time>
      </trkpt>
      <trkpt lat="48.899" lon="2.43913">
        <ele>99.1</ele>
        <time>2015-04-13T19:03:30.898Z</time>
      </trkpt>
      <trkpt lat="48.89902" lon="2.4392">
        <ele>99.4</ele>
        <time>2015-04-13T19:03:31.915Z</time>
      </trkpt>
      <trkpt lat="48.89903" lon="2.43928">
        <ele>99.5</ele>
        <time>2015-04-13T19:03:32.777Z</time>
      </trkpt>
      <trkpt lat="48.89905" lon="2.43936">
        <ele>100.3</ele>
        <time>2015-04-13T19:03:33.795Z</time>
      </trkpt>
      <trkpt lat="48.89906" lon="2.43944">
        <ele>100.4</ele>
        <time>2015-04-13T19:03:34.780Z</time>
      </trkpt>
      <trkpt lat="48.89907" lon="2.43951">
        <ele>100.6</ele>
        <time>2015-04-13T19:03:35.814Z</time>
      </trkpt>
      <trkpt lat="48.89909" lon="2.43959">
        <ele>100.7</ele>
        <time>2015-04-13T19:03:36.826Z</time>
      </trkpt>
      <trkpt lat="48.89911" lon="2.43966">
        <ele>100.7</ele>
        <time>2015-04-13T19:03:37.840Z</time>
      </trkpt>
      <trkpt lat="48.89912" lon="2.43974">
        <ele>100.5</ele>
        <time>2015-04-13T19:03:38.840Z</time>
      </trkpt>
      <trkpt lat="48.89914" lon="2.43981">
        <ele>100.2</ele>
        <time>2015-04-13T19:03:39.846Z</time>
      </trkpt>
      <trkpt lat="48.89915" lon="2.43988">
        <ele>100.2</ele>
        <time>2015-04-13T19:03:40.850Z</time>
      </trkpt>
      <trkpt lat="48.89916" lon="2.43996">
        <ele>100.4</ele>
        <time>2015-04-13T19:03:41.880Z</time>
      </trkpt>
      <trkpt lat="48.89918" lon="2.44003">
        <ele>100.5</ele>
        <time>2015-04-13T19:03:42.890Z</time>
      </trkpt>
      <trkpt lat="48.89919" lon="2.44011">
        <ele>100.3</ele>
        <time>2015-04-13T19:03:43.897Z</time>
      </trkpt>
      <trkpt lat="48.89921" lon="2.44019">
        <ele>100.5</ele>
        <time>2015-04-13T19:03:44.854Z</time>
      </trkpt>
      <trkpt lat="48.89922" lon="2.44027">
        <ele>100.6</ele>
        <time>2015-04-13T19:03:45.806Z</time>
      </trkpt>
      <trkpt lat="48.89924" lon="2.44034">
        <ele>100.7</ele>
        <time>2015-04-13T19:03:46.837Z</time>
      </trkpt>
      <trkpt lat="48.89925" lon="2.44042">
        <ele>100.8</ele>
        <time>2015-04-13T19:03:47.837Z</time>
      </trkpt>
      <trkpt lat="48.89926" lon="2.44049">
        <ele>101</ele>
        <time>2015-04-13T19:03:48.853Z</time>
      </trkpt>
      <trkpt lat="48.89928" lon="2.44056">
        <ele>100.9</ele>
        <time>2015-04-13T19:03:49.868Z</time>
      </trkpt>
      <trkpt lat="48.89929" lon="2.44064">
        <ele>100.9</ele>
        <time>2015-04-13T19:03:50.781Z</time>
      </trkpt>
      <trkpt lat="48.89931" lon="2.44072">
        <ele>100.9</ele>
        <time>2015-04-13T19:03:51.790Z</time>
      </trkpt>
      <trkpt lat="48.89932" lon="2.44079">
        <ele>100.7</ele>
        <time>2015-04-13T19:03:52.793Z</time>
      </trkpt>
      <trkpt lat="48.89934" lon="2.44087">
        <ele>100.7</ele>
        <time>2015-04-13T19:03:53.806Z</time>
      </trkpt>
      <trkpt lat="48.89936" lon="2.44095">
        <ele>100.8</ele>
        <time>2015-04-13T19:03:54.823Z</time>
      </trkpt>
      <trkpt lat="48.89938" lon="2.44102">
        <ele>100.8</ele>
        <time>2015-04-13T19:03:55.850Z</time>
      </trkpt>
      <trkpt lat="48.89939" lon="2.4411">
        <ele>100.8</ele>
        <time>2015-04-13T19:03:56.868Z</time>
      </trkpt>
      <trkpt lat="48.8994" lon="2.44117">
        <ele>100.8</ele>
        <time>2015-04-13T19:03:57.782Z</time>
      </trkpt>
      <trkpt lat="48.89942" lon="2.44124">
        <ele>100.9</ele>
        <time>2015-04-13T19:03:58.784Z</time>
      </trkpt>
      <trkpt lat="48.89944" lon="2.44137">
        <ele>101.1</ele>
        <time>2015-04-13T19:04:00.826Z</time>
      </trkpt>
      <trkpt lat="48.89946" lon="2.44143">
        <ele>101.3</ele>
        <time>2015-04-13T19:04:01.866Z</time>
      </trkpt>
      <trkpt lat="48.89948" lon="2.44155">
        <ele>101.6</ele>
        <time>2015-04-13T19:04:03.776Z</time>
      </trkpt>
      <trkpt lat="48.89949" lon="2.44161">
        <ele>101.7</ele>
        <time>2015-04-13T19:04:04.740Z</time>
      </trkpt>
      <trkpt lat="48.8995" lon="2.44173">
        <ele>101.6</ele>
        <time>2015-04-13T19:04:06.770Z</time>
      </trkpt>
      <trkpt lat="48.89951" lon="2.44179">
        <ele>101.6</ele>
        <time>2015-04-13T19:04:07.813Z</time>
      </trkpt>
      <trkpt lat="48.89954" lon="2.44188">
        <ele>101.7</ele>
        <time>2015-04-13T19:04:09.735Z</time>
      </trkpt>
      <trkpt lat="48.89955" lon="2.44194">
        <ele>101.7</ele>
        <time>2015-04-13T19:04:10.751Z</time>
      </trkpt>
      <trkpt lat="48.89958" lon="2.44204">
        <ele>101.8</ele>
        <time>2015-04-13T19:04:12.872Z</time>
      </trkpt>
      <trkpt lat="48.89959" lon="2.44211">
        <ele>101.8</ele>
        <time>2015-04-13T19:04:13.890Z</time>
      </trkpt>
      <trkpt lat="48.89962" lon="2.44224">
        <ele>102.2</ele>
        <time>2015-04-13T19:04:15.786Z</time>
      </trkpt>
      <trkpt lat="48.89963" lon="2.44229">
        <ele>102.4</ele>
        <time>2015-04-13T19:04:16.796Z</time>
      </trkpt>
      <trkpt lat="48.89965" lon="2.4424">
        <ele>102.5</ele>
        <time>2015-04-13T19:04:18.843Z</time>
      </trkpt>
      <trkpt lat="48.89965" lon="2.44244">
        <ele>102.1</ele>
        <time>2015-04-13T19:04:19.860Z</time>
      </trkpt>
      <trkpt lat="48.89967" lon="2.44248">
        <ele>101.9</ele>
        <time>2015-04-13T19:04:23.836Z</time>
      </trkpt>
      <trkpt lat="48.89966" lon="2.44248">
        <ele>101.8</ele>
        <time>2015-04-13T19:04:24.894Z</time>
      </trkpt>
      <trkpt lat="48.89966" lon="2.44249">
        <ele>101.9</ele>
        <time>2015-04-13T19:04:36.888Z</time>
      </trkpt>
      <trkpt lat="48.89966" lon="2.44251">
        <ele>103.4</ele>
        <time>2015-04-13T19:04:37.796Z</time>
      </trkpt>
      <trkpt lat="48.89967" lon="2.4424">
        <ele>104</ele>
        <time>2015-04-13T19:04:40.833Z</time>
      </trkpt>
      <trkpt lat="48.89967" lon="2.44237">
        <ele>104.1</ele>
        <time>2015-04-13T19:04:41.784Z</time>
      </trkpt>
      <trkpt lat="48.89966" lon="2.44227">
        <ele>104.1</ele>
        <time>2015-04-13T19:04:43.790Z</time>
      </trkpt>
      <trkpt lat="48.89965" lon="2.44222">
        <ele>104.1</ele>
        <time>2015-04-13T19:04:44.804Z</time>
      </trkpt>
      <trkpt lat="48.89963" lon="2.44211">
        <ele>104.1</ele>
        <time>2015-04-13T19:04:46.838Z</time>
      </trkpt>
      <trkpt lat="48.89963" lon="2.44206">
        <ele>104.1</ele>
        <time>2015-04-13T19:04:47.850Z</time>
      </trkpt>
      <trkpt lat="48.89961" lon="2.44197">
        <ele>104.3</ele>
        <time>2015-04-13T19:04:49.802Z</time>
      </trkpt>
      <trkpt lat="48.89958" lon="2.44193">
        <ele>104.9</ele>
        <time>2015-04-13T19:04:50.824Z</time>
      </trkpt>
      <trkpt lat="48.89957" lon="2.44206">
        <ele>108.4</ele>
        <time>2015-04-13T19:06:00.804Z</time>
      </trkpt>
      <trkpt lat="48.89957" lon="2.44209">
        <ele>108.2</ele>
        <time>2015-04-13T19:06:01.810Z</time>
      </trkpt>
      <trkpt lat="48.8996" lon="2.44221">
        <ele>107.5</ele>
        <time>2015-04-13T19:06:05.846Z</time>
      </trkpt>
      <trkpt lat="48.89961" lon="2.44224">
        <ele>107.2</ele>
        <time>2015-04-13T19:06:06.865Z</time>
      </trkpt>
      <trkpt lat="48.89964" lon="2.44236">
        <ele>106.5</ele>
        <time>2015-04-13T19:06:10.791Z</time>
      </trkpt>
      <trkpt lat="48.89965" lon="2.44239">
        <ele>106.5</ele>
        <time>2015-04-13T19:06:11.790Z</time>
      </trkpt>
      <trkpt lat="48.89969" lon="2.4425">
        <ele>105.5</ele>
        <time>2015-04-13T19:06:43.885Z</time>
      </trkpt>
      <trkpt lat="48.89969" lon="2.44251">
        <ele>105.5</ele>
        <time>2015-04-13T19:06:44.795Z</time>
      </trkpt>
      <trkpt lat="48.89969" lon="2.44256">
        <ele>104.8</ele>
        <time>2015-04-13T19:06:49.899Z</time>
      </trkpt>
      <trkpt lat="48.89969" lon="2.44256">
        <ele>104.7</ele>
        <time>2015-04-13T19:06:50.816Z</time>
      </trkpt>
      <trkpt lat="48.89969" lon="2.44256">
        <ele>104.6</ele>
        <time>2015-04-13T19:06:55.897Z</time>
      </trkpt>
      <trkpt lat="48.8997" lon="2.44259">
        <ele>105.1</ele>
        <time>2015-04-13T19:06:56.783Z</time>
      </trkpt>
      <trkpt lat="48.89973" lon="2.4427">
        <ele>105.9</ele>
        <time>2015-04-13T19:07:02.775Z</time>
      </trkpt>
      <trkpt lat="48.89974" lon="2.44273">
        <ele>106</ele>
        <time>2015-04-13T19:07:03.773Z</time>
      </trkpt>
      <trkpt lat="48.89976" lon="2.44285">
        <ele>106.1</ele>
        <time>2015-04-13T19:07:06.838Z</time>
      </trkpt>
      <trkpt lat="48.89977" lon="2.4429">
        <ele>106.1</ele>
        <time>2015-04-13T19:07:07.854Z</time>
      </trkpt>
      <trkpt lat="48.89979" lon="2.44299">
        <ele>106</ele>
        <time>2015-04-13T19:07:09.875Z</time>
      </trkpt>
      <trkpt lat="48.8998" lon="2.44304">
        <ele>106</ele>
        <time>2015-04-13T19:07:10.781Z</time>
      </trkpt>
      <trkpt lat="48.89982" lon="2.44315">
        <ele>105.8</ele>
        <time>2015-04-13T19:07:12.826Z</time>
      </trkpt>
      <trkpt lat="48.89983" lon="2.44322">
        <ele>105.8</ele>
        <time>2015-04-13T19:07:13.836Z</time>
      </trkpt>
      <trkpt lat="48.89984" lon="2.44328">
        <ele>105.8</ele>
        <time>2015-04-13T19:07:14.866Z</time>
      </trkpt>
      <trkpt lat="48.89985" lon="2.44335">
        <ele>105.8</ele>
        <time>2015-04-13T19:07:15.772Z</time>
      </trkpt>
      <trkpt lat="48.89987" lon="2.44342">
        <ele>105.6</ele>
        <time>2015-04-13T19:07:16.810Z</time>
      </trkpt>
      <trkpt lat="48.89989" lon="2.44348">
        <ele>105.5</ele>
        <time>2015-04-13T19:07:17.781Z</time>
      </trkpt>
      <trkpt lat="48.89991" lon="2.44356">
        <ele>105.6</ele>
        <time>2015-04-13T19:07:18.806Z</time>
      </trkpt>
      <trkpt lat="48.89993" lon="2.44363">
        <ele>105.2</ele>
        <time>2015-04-13T19:07:19.827Z</time>
      </trkpt>
      <trkpt lat="48.89994" lon="2.4437">
        <ele>105</ele>
        <time>2015-04-13T19:07:20.839Z</time>
      </trkpt>
      <trkpt lat="48.89995" lon="2.44377">
        <ele>105</ele>
        <time>2015-04-13T19:07:21.852Z</time>
      </trkpt>
      <trkpt lat="48.89997" lon="2.44385">
        <ele>104.8</ele>
        <time>2015-04-13T19:07:22.863Z</time>
      </trkpt>
      <trkpt lat="48.89998" lon="2.44392">
        <ele>104.7</ele>
        <time>2015-04-13T19:07:23.862Z</time>
      </trkpt>
      <trkpt lat="48.9" lon="2.444">
        <ele>104.6</ele>
        <time>2015-04-13T19:07:24.889Z</time>
      </trkpt>
      <trkpt lat="48.90001" lon="2.44408">
        <ele>104.7</ele>
        <time>2015-04-13T19:07:25.796Z</time>
      </trkpt>
      <trkpt lat="48.90003" lon="2.44416">
        <ele>104.8</ele>
        <time>2015-04-13T19:07:26.802Z</time>
      </trkpt>
      <trkpt lat="48.90004" lon="2.44424">
        <ele>104.7</ele>
        <time>2015-04-13T19:07:27.805Z</time>
      </trkpt>
      <trkpt lat="48.90006" lon="2.44432">
        <ele>104.7</ele>
        <time>2015-04-13T19:07:28.820Z</time>
      </trkpt>
      <trkpt lat="48.90007" lon="2.4444">
        <ele>104.9</ele>
        <time>2015-04-13T19:07:29.837Z</time>
      </trkpt>
      <trkpt lat="48.90009" lon="2.44448">
        <ele>104.8</ele>
        <time>2015-04-13T19:07:30.846Z</time>
      </trkpt>
      <trkpt lat="48.9001" lon="2.44457">
        <ele>104.7</ele>
        <time>2015-04-13T19:07:31.874Z</time>
      </trkpt>
      <trkpt lat="48.90012" lon="2.44465">
        <ele>104.7</ele>
        <time>2015-04-13T19:07:32.777Z</time>
      </trkpt>
      <trkpt lat="48.90014" lon="2.44472">
        <ele>104.6</ele>
        <time>2015-04-13T19:07:33.779Z</time>
      </trkpt>
      <trkpt lat="48.90015" lon="2.4448">
        <ele>104.6</ele>
        <time>2015-04-13T19:07:34.786Z</time>
      </trkpt>
      <trkpt lat="48.90017" lon="2.44488">
        <ele>104.6</ele>
        <time>2015-04-13T19:07:35.801Z</time>
      </trkpt>
      <trkpt lat="48.90019" lon="2.44496">
        <ele>104.6</ele>
        <time>2015-04-13T19:07:36.810Z</time>
      </trkpt>
      <trkpt lat="48.9002" lon="2.44503">
        <ele>104.5</ele>
        <time>2015-04-13T19:07:37.824Z</time>
      </trkpt>
      <trkpt lat="48.90022" lon="2.44511">
        <ele>104.5</ele>
        <time>2015-04-13T19:07:38.856Z</time>
      </trkpt>
      <trkpt lat="48.90024" lon="2.44518">
        <ele>104.6</ele>
        <time>2015-04-13T19:07:39.860Z</time>
      </trkpt>
      <trkpt lat="48.90026" lon="2.44525">
        <ele>104.6</ele>
        <time>2015-04-13T19:07:40.772Z</time>
      </trkpt>
      <trkpt lat="48.90027" lon="2.44532">
        <ele>104.5</ele>
        <time>2015-04-13T19:07:41.779Z</time>
      </trkpt>
      <trkpt lat="48.90029" lon="2.44539">
        <ele>104.5</ele>
        <time>2015-04-13T19:07:42.806Z</time>
      </trkpt>
      <trkpt lat="48.90031" lon="2.44546">
        <ele>104.5</ele>
        <time>2015-04-13T19:07:43.825Z</time>
      </trkpt>
      <trkpt lat="48.90033" lon="2.44553">
        <ele>104.4</ele>
        <time>2015-04-13T19:07:44.844Z</time>
      </trkpt>
      <trkpt lat="48.90034" lon="2.4456">
        <ele>104.1</ele>
        <time>2015-04-13T19:07:45.860Z</time>
      </trkpt>
      <trkpt lat="48.90036" lon="2.44567">
        <ele>103.9</ele>
        <time>2015-04-13T19:07:46.777Z</time>
      </trkpt>
      <trkpt lat="48.90038" lon="2.44574">
        <ele>103.8</ele>
        <time>2015-04-13T19:07:47.777Z</time>
      </trkpt>
      <trkpt lat="48.9004" lon="2.4458">
        <ele>103.8</ele>
        <time>2015-04-13T19:07:48.810Z</time>
      </trkpt>
      <trkpt lat="48.90042" lon="2.44587">
        <ele>103.6</ele>
        <time>2015-04-13T19:07:49.802Z</time>
      </trkpt>
      <trkpt lat="48.90044" lon="2.44594">
        <ele>103.6</ele>
        <time>2015-04-13T19:07:50.813Z</time>
      </trkpt>
      <trkpt lat="48.90046" lon="2.44601">
        <ele>103.5</ele>
        <time>2015-04-13T19:07:51.836Z</time>
      </trkpt>
      <trkpt lat="48.90049" lon="2.44608">
        <ele>103.7</ele>
        <time>2015-04-13T19:07:52.845Z</time>
      </trkpt>
      <trkpt lat="48.90052" lon="2.44614">
        <ele>103.7</ele>
        <time>2015-04-13T19:07:53.874Z</time>
      </trkpt>
      <trkpt lat="48.90055" lon="2.44621">
        <ele>103.7</ele>
        <time>2015-04-13T19:07:54.902Z</time>
      </trkpt>
      <trkpt lat="48.90057" lon="2.44628">
        <ele>103.7</ele>
        <time>2015-04-13T19:07:55.840Z</time>
      </trkpt>
      <trkpt lat="48.90059" lon="2.44635">
        <ele>103.7</ele>
        <time>2015-04-13T19:07:56.861Z</time>
      </trkpt>
      <trkpt lat="48.90061" lon="2.44643">
        <ele>103.5</ele>
        <time>2015-04-13T19:07:57.874Z</time>
      </trkpt>
      <trkpt lat="48.90063" lon="2.44651">
        <ele>103.8</ele>
        <time>2015-04-13T19:07:58.774Z</time>
      </trkpt>
      <trkpt lat="48.90064" lon="2.44659">
        <ele>103.9</ele>
        <time>2015-04-13T19:07:59.780Z</time>
      </trkpt>
      <trkpt lat="48.90066" lon="2.44668">
        <ele>103.9</ele>
        <time>2015-04-13T19:08:00.789Z</time>
      </trkpt>
      <trkpt lat="48.90068" lon="2.44676">
        <ele>104.1</ele>
        <time>2015-04-13T19:08:01.853Z</time>
      </trkpt>
      <trkpt lat="48.9007" lon="2.44684">
        <ele>104.1</ele>
        <time>2015-04-13T19:08:02.889Z</time>
      </trkpt>
      <trkpt lat="48.90071" lon="2.44692">
        <ele>104.1</ele>
        <time>2015-04-13T19:08:03.766Z</time>
      </trkpt>
      <trkpt lat="48.90073" lon="2.44699">
        <ele>104</ele>
        <time>2015-04-13T19:08:04.781Z</time>
      </trkpt>
      <trkpt lat="48.90074" lon="2.44707">
        <ele>103.9</ele>
        <time>2015-04-13T19:08:05.786Z</time>
      </trkpt>
      <trkpt lat="48.90076" lon="2.44715">
        <ele>103.7</ele>
        <time>2015-04-13T19:08:06.795Z</time>
      </trkpt>
      <trkpt lat="48.90077" lon="2.44723">
        <ele>103.5</ele>
        <time>2015-04-13T19:08:07.815Z</time>
      </trkpt>
      <trkpt lat="48.90079" lon="2.44731">
        <ele>103.4</ele>
        <time>2015-04-13T19:08:08.826Z</time>
      </trkpt>
      <trkpt lat="48.9008" lon="2.44739">
        <ele>103.4</ele>
        <time>2015-04-13T19:08:09.827Z</time>
      </trkpt>
      <trkpt lat="48.90081" lon="2.44748">
        <ele>103.4</ele>
        <time>2015-04-13T19:08:10.850Z</time>
      </trkpt>
      <trkpt lat="48.90083" lon="2.44756">
        <ele>103.5</ele>
        <time>2015-04-13T19:08:11.863Z</time>
      </trkpt>
      <trkpt lat="48.90084" lon="2.44764">
        <ele>103.6</ele>
        <time>2015-04-13T19:08:12.879Z</time>
      </trkpt>
      <trkpt lat="48.90086" lon="2.44772">
        <ele>103.8</ele>
        <time>2015-04-13T19:08:13.885Z</time>
      </trkpt>
      <trkpt lat="48.90088" lon="2.4478">
        <ele>103.5</ele>
        <time>2015-04-13T19:08:14.804Z</time>
      </trkpt>
      <trkpt lat="48.90089" lon="2.44788">
        <ele>103.2</ele>
        <time>2015-04-13T19:08:15.814Z</time>
      </trkpt>
      <trkpt lat="48.9009" lon="2.44797">
        <ele>102.8</ele>
        <time>2015-04-13T19:08:16.814Z</time>
      </trkpt>
      <trkpt lat="48.90092" lon="2.44805">
        <ele>102.5</ele>
        <time>2015-04-13T19:08:17.822Z</time>
      </trkpt>
      <trkpt lat="48.90093" lon="2.44814">
        <ele>102</ele>
        <time>2015-04-13T19:08:18.832Z</time>
      </trkpt>
      <trkpt lat="48.90094" lon="2.44823">
        <ele>101.8</ele>
        <time>2015-04-13T19:08:19.852Z</time>
      </trkpt>
      <trkpt lat="48.90096" lon="2.44832">
        <ele>101.8</ele>
        <time>2015-04-13T19:08:20.813Z</time>
      </trkpt>
      <trkpt lat="48.90097" lon="2.44841">
        <ele>101.6</ele>
        <time>2015-04-13T19:08:21.773Z</time>
      </trkpt>
      <trkpt lat="48.90099" lon="2.4485">
        <ele>101.6</ele>
        <time>2015-04-13T19:08:22.781Z</time>
      </trkpt>
      <trkpt lat="48.90101" lon="2.44859">
        <ele>101.6</ele>
        <time>2015-04-13T19:08:23.793Z</time>
      </trkpt>
      <trkpt lat="48.90102" lon="2.44868">
        <ele>101.8</ele>
        <time>2015-04-13T19:08:24.803Z</time>
      </trkpt>
      <trkpt lat="48.90104" lon="2.44877">
        <ele>101.9</ele>
        <time>2015-04-13T19:08:25.809Z</time>
      </trkpt>
      <trkpt lat="48.90106" lon="2.44887">
        <ele>102.3</ele>
        <time>2015-04-13T19:08:26.820Z</time>
      </trkpt>
      <trkpt lat="48.90108" lon="2.44896">
        <ele>102.2</ele>
        <time>2015-04-13T19:08:27.831Z</time>
      </trkpt>
      <trkpt lat="48.90109" lon="2.44905">
        <ele>102.4</ele>
        <time>2015-04-13T19:08:28.843Z</time>
      </trkpt>
      <trkpt lat="48.9011" lon="2.44914">
        <ele>102.2</ele>
        <time>2015-04-13T19:08:29.859Z</time>
      </trkpt>
      <trkpt lat="48.90112" lon="2.44922">
        <ele>102.2</ele>
        <time>2015-04-13T19:08:30.869Z</time>
      </trkpt>
      <trkpt lat="48.90114" lon="2.44931">
        <ele>102.2</ele>
        <time>2015-04-13T19:08:31.887Z</time>
      </trkpt>
      <trkpt lat="48.90116" lon="2.4494">
        <ele>102</ele>
        <time>2015-04-13T19:08:32.766Z</time>
      </trkpt>
      <trkpt lat="48.90118" lon="2.44949">
        <ele>101.6</ele>
        <time>2015-04-13T19:08:33.771Z</time>
      </trkpt>
      <trkpt lat="48.9012" lon="2.44958">
        <ele>101.2</ele>
        <time>2015-04-13T19:08:34.790Z</time>
      </trkpt>
      <trkpt lat="48.90122" lon="2.44967">
        <ele>100.9</ele>
        <time>2015-04-13T19:08:35.799Z</time>
      </trkpt>
      <trkpt lat="48.90124" lon="2.44976">
        <ele>100.8</ele>
        <time>2015-04-13T19:08:36.835Z</time>
      </trkpt>
      <trkpt lat="48.90127" lon="2.44986">
        <ele>100.2</ele>
        <time>2015-04-13T19:08:37.842Z</time>
      </trkpt>
      <trkpt lat="48.90129" lon="2.44995">
        <ele>99.8</ele>
        <time>2015-04-13T19:08:38.768Z</time>
      </trkpt>
      <trkpt lat="48.90132" lon="2.45004">
        <ele>99.7</ele>
        <time>2015-04-13T19:08:39.771Z</time>
      </trkpt>
      <trkpt lat="48.90135" lon="2.45014">
        <ele>99.3</ele>
        <time>2015-04-13T19:08:40.784Z</time>
      </trkpt>
      <trkpt lat="48.90137" lon="2.45024">
        <ele>99.2</ele>
        <time>2015-04-13T19:08:41.793Z</time>
      </trkpt>
      <trkpt lat="48.9014" lon="2.45034">
        <ele>99.2</ele>
        <time>2015-04-13T19:08:42.829Z</time>
      </trkpt>
      <trkpt lat="48.90141" lon="2.45044">
        <ele>98.9</ele>
        <time>2015-04-13T19:08:43.825Z</time>
      </trkpt>
      <trkpt lat="48.90142" lon="2.45054">
        <ele>98.7</ele>
        <time>2015-04-13T19:08:44.842Z</time>
      </trkpt>
      <trkpt lat="48.90144" lon="2.45064">
        <ele>98.3</ele>
        <time>2015-04-13T19:08:45.850Z</time>
      </trkpt>
      <trkpt lat="48.90146" lon="2.45075">
        <ele>98</ele>
        <time>2015-04-13T19:08:46.859Z</time>
      </trkpt>
      <trkpt lat="48.90147" lon="2.45085">
        <ele>98.2</ele>
        <time>2015-04-13T19:08:47.776Z</time>
      </trkpt>
      <trkpt lat="48.9015" lon="2.45095">
        <ele>97.9</ele>
        <time>2015-04-13T19:08:48.901Z</time>
      </trkpt>
      <trkpt lat="48.90152" lon="2.45106">
        <ele>97.8</ele>
        <time>2015-04-13T19:08:49.797Z</time>
      </trkpt>
      <trkpt lat="48.90153" lon="2.45116">
        <ele>97.7</ele>
        <time>2015-04-13T19:08:50.820Z</time>
      </trkpt>
      <trkpt lat="48.90155" lon="2.45126">
        <ele>97.8</ele>
        <time>2015-04-13T19:08:51.825Z</time>
      </trkpt>
      <trkpt lat="48.90156" lon="2.45136">
        <ele>97.3</ele>
        <time>2015-04-13T19:08:52.834Z</time>
      </trkpt>
      <trkpt lat="48.90158" lon="2.45146">
        <ele>97.3</ele>
        <time>2015-04-13T19:08:53.841Z</time>
      </trkpt>
      <trkpt lat="48.9016" lon="2.45156">
        <ele>97.1</ele>
        <time>2015-04-13T19:08:54.846Z</time>
      </trkpt>
      <trkpt lat="48.90162" lon="2.45167">
        <ele>97.5</ele>
        <time>2015-04-13T19:08:55.857Z</time>
      </trkpt>
      <trkpt lat="48.90164" lon="2.45177">
        <ele>97.5</ele>
        <time>2015-04-13T19:08:56.772Z</time>
      </trkpt>
      <trkpt lat="48.90165" lon="2.45187">
        <ele>97.8</ele>
        <time>2015-04-13T19:08:57.771Z</time>
      </trkpt>
      <trkpt lat="48.90167" lon="2.45197">
        <ele>97.6</ele>
        <time>2015-04-13T19:08:58.770Z</time>
      </trkpt>
      <trkpt lat="48.90168" lon="2.45206">
        <ele>97.5</ele>
        <time>2015-04-13T19:08:59.785Z</time>
      </trkpt>
      <trkpt lat="48.90169" lon="2.45216">
        <ele>97.4</ele>
        <time>2015-04-13T19:09:00.824Z</time>
      </trkpt>
      <trkpt lat="48.9017" lon="2.45226">
        <ele>97.2</ele>
        <time>2015-04-13T19:09:01.843Z</time>
      </trkpt>
      <trkpt lat="48.90171" lon="2.45236">
        <ele>96.9</ele>
        <time>2015-04-13T19:09:03.596Z</time>
      </trkpt>
      <trkpt lat="48.90172" lon="2.45246">
        <ele>96.7</ele>
        <time>2015-04-13T19:09:04.601Z</time>
      </trkpt>
      <trkpt lat="48.90174" lon="2.45256">
        <ele>96.7</ele>
        <time>2015-04-13T19:09:05.615Z</time>
      </trkpt>
      <trkpt lat="48.90175" lon="2.45266">
        <ele>96.5</ele>
        <time>2015-04-13T19:09:06.628Z</time>
      </trkpt>
      <trkpt lat="48.90177" lon="2.45276">
        <ele>96.6</ele>
        <time>2015-04-13T19:09:07.643Z</time>
      </trkpt>
      <trkpt lat="48.9018" lon="2.45286">
        <ele>96.6</ele>
        <time>2015-04-13T19:09:08.638Z</time>
      </trkpt>
      <trkpt lat="48.90182" lon="2.45296">
        <ele>96.4</ele>
        <time>2015-04-13T19:09:09.653Z</time>
      </trkpt>
      <trkpt lat="48.90185" lon="2.45306">
        <ele>96.6</ele>
        <time>2015-04-13T19:09:10.677Z</time>
      </trkpt>
      <trkpt lat="48.90187" lon="2.45316">
        <ele>96.7</ele>
        <time>2015-04-13T19:09:11.609Z</time>
      </trkpt>
      <trkpt lat="48.90189" lon="2.45326">
        <ele>96.6</ele>
        <time>2015-04-13T19:09:12.615Z</time>
      </trkpt>
      <trkpt lat="48.90192" lon="2.45336">
        <ele>96.5</ele>
        <time>2015-04-13T19:09:13.681Z</time>
      </trkpt>
      <trkpt lat="48.90193" lon="2.45346">
        <ele>96.5</ele>
        <time>2015-04-13T19:09:14.693Z</time>
      </trkpt>
      <trkpt lat="48.90195" lon="2.45356">
        <ele>96.8</ele>
        <time>2015-04-13T19:09:15.703Z</time>
      </trkpt>
      <trkpt lat="48.90198" lon="2.45366">
        <ele>96.8</ele>
        <time>2015-04-13T19:09:16.709Z</time>
      </trkpt>
      <trkpt lat="48.902" lon="2.45376">
        <ele>96.7</ele>
        <time>2015-04-13T19:09:17.604Z</time>
      </trkpt>
      <trkpt lat="48.90202" lon="2.45386">
        <ele>96.9</ele>
        <time>2015-04-13T19:09:18.625Z</time>
      </trkpt>
      <trkpt lat="48.90204" lon="2.45396">
        <ele>97</ele>
        <time>2015-04-13T19:09:19.660Z</time>
      </trkpt>
      <trkpt lat="48.90206" lon="2.45406">
        <ele>97.2</ele>
        <time>2015-04-13T19:09:20.672Z</time>
      </trkpt>
      <trkpt lat="48.90209" lon="2.45416">
        <ele>97.3</ele>
        <time>2015-04-13T19:09:21.625Z</time>
      </trkpt>
      <trkpt lat="48.90212" lon="2.45425">
        <ele>97.3</ele>
        <time>2015-04-13T19:09:22.625Z</time>
      </trkpt>
      <trkpt lat="48.90214" lon="2.45434">
        <ele>97.2</ele>
        <time>2015-04-13T19:09:23.646Z</time>
      </trkpt>
      <trkpt lat="48.90216" lon="2.45444">
        <ele>97.3</ele>
        <time>2015-04-13T19:09:24.663Z</time>
      </trkpt>
      <trkpt lat="48.90218" lon="2.45453">
        <ele>97.3</ele>
        <time>2015-04-13T19:09:25.751Z</time>
      </trkpt>
      <trkpt lat="48.9022" lon="2.45462">
        <ele>97.2</ele>
        <time>2015-04-13T19:09:26.648Z</time>
      </trkpt>
      <trkpt lat="48.90222" lon="2.45472">
        <ele>97.3</ele>
        <time>2015-04-13T19:09:27.659Z</time>
      </trkpt>
      <trkpt lat="48.90224" lon="2.45482">
        <ele>97.1</ele>
        <time>2015-04-13T19:09:28.670Z</time>
      </trkpt>
      <trkpt lat="48.90226" lon="2.45492">
        <ele>96.9</ele>
        <time>2015-04-13T19:09:29.679Z</time>
      </trkpt>
      <trkpt lat="48.90229" lon="2.45501">
        <ele>97.1</ele>
        <time>2015-04-13T19:09:30.680Z</time>
      </trkpt>
      <trkpt lat="48.90231" lon="2.4551">
        <ele>97</ele>
        <time>2015-04-13T19:09:31.685Z</time>
      </trkpt>
      <trkpt lat="48.90233" lon="2.45519">
        <ele>97</ele>
        <time>2015-04-13T19:09:32.695Z</time>
      </trkpt>
      <trkpt lat="48.90234" lon="2.45528">
        <ele>96.5</ele>
        <time>2015-04-13T19:09:33.700Z</time>
      </trkpt>
      <trkpt lat="48.90236" lon="2.45537">
        <ele>96.5</ele>
        <time>2015-04-13T19:09:34.726Z</time>
      </trkpt>
      <trkpt lat="48.90238" lon="2.45545">
        <ele>96.7</ele>
        <time>2015-04-13T19:09:35.717Z</time>
      </trkpt>
      <trkpt lat="48.9024" lon="2.45555">
        <ele>97</ele>
        <time>2015-04-13T19:09:36.630Z</time>
      </trkpt>
      <trkpt lat="48.90242" lon="2.45565">
        <ele>97.5</ele>
        <time>2015-04-13T19:09:37.681Z</time>
      </trkpt>
      <trkpt lat="48.90244" lon="2.45575">
        <ele>97.7</ele>
        <time>2015-04-13T19:09:38.674Z</time>
      </trkpt>
      <trkpt lat="48.90247" lon="2.45585">
        <ele>97.8</ele>
        <time>2015-04-13T19:09:39.684Z</time>
      </trkpt>
      <trkpt lat="48.90249" lon="2.45595">
        <ele>97.7</ele>
        <time>2015-04-13T19:09:40.697Z</time>
      </trkpt>
      <trkpt lat="48.90251" lon="2.45605">
        <ele>98</ele>
        <time>2015-04-13T19:09:41.705Z</time>
      </trkpt>
      <trkpt lat="48.90253" lon="2.45615">
        <ele>98.1</ele>
        <time>2015-04-13T19:09:42.633Z</time>
      </trkpt>
      <trkpt lat="48.90255" lon="2.45625">
        <ele>98</ele>
        <time>2015-04-13T19:09:43.726Z</time>
      </trkpt>
      <trkpt lat="48.90257" lon="2.45635">
        <ele>98</ele>
        <time>2015-04-13T19:09:44.742Z</time>
      </trkpt>
      <trkpt lat="48.90259" lon="2.45645">
        <ele>98.2</ele>
        <time>2015-04-13T19:09:45.329Z</time>
      </trkpt>
      <trkpt lat="48.90261" lon="2.45655">
        <ele>98.4</ele>
        <time>2015-04-13T19:09:46.347Z</time>
      </trkpt>
      <trkpt lat="48.90264" lon="2.45665">
        <ele>98.3</ele>
        <time>2015-04-13T19:09:47.363Z</time>
      </trkpt>
      <trkpt lat="48.90266" lon="2.45675">
        <ele>98.1</ele>
        <time>2015-04-13T19:09:48.376Z</time>
      </trkpt>
      <trkpt lat="48.90268" lon="2.45684">
        <ele>97.7</ele>
        <time>2015-04-13T19:09:49.382Z</time>
      </trkpt>
      <trkpt lat="48.9027" lon="2.45693">
        <ele>97.5</ele>
        <time>2015-04-13T19:09:50.413Z</time>
      </trkpt>
      <trkpt lat="48.90272" lon="2.45702">
        <ele>97.4</ele>
        <time>2015-04-13T19:09:51.407Z</time>
      </trkpt>
      <trkpt lat="48.90274" lon="2.45712">
        <ele>97.5</ele>
        <time>2015-04-13T19:09:52.319Z</time>
      </trkpt>
      <trkpt lat="48.90275" lon="2.45722">
        <ele>97.5</ele>
        <time>2015-04-13T19:09:53.319Z</time>
      </trkpt>
      <trkpt lat="48.90277" lon="2.45732">
        <ele>97.6</ele>
        <time>2015-04-13T19:09:54.353Z</time>
      </trkpt>
      <trkpt lat="48.90279" lon="2.45742">
        <ele>97.6</ele>
        <time>2015-04-13T19:09:55.389Z</time>
      </trkpt>
      <trkpt lat="48.90281" lon="2.45752">
        <ele>97.6</ele>
        <time>2015-04-13T19:09:56.394Z</time>
      </trkpt>
      <trkpt lat="48.90283" lon="2.45763">
        <ele>97.7</ele>
        <time>2015-04-13T19:09:57.425Z</time>
      </trkpt>
      <trkpt lat="48.90285" lon="2.45773">
        <ele>97.7</ele>
        <time>2015-04-13T19:09:58.341Z</time>
      </trkpt>
      <trkpt lat="48.90287" lon="2.45784">
        <ele>97.8</ele>
        <time>2015-04-13T19:09:59.426Z</time>
      </trkpt>
      <trkpt lat="48.90289" lon="2.45794">
        <ele>98.2</ele>
        <time>2015-04-13T19:10:00.318Z</time>
      </trkpt>
      <trkpt lat="48.90291" lon="2.45805">
        <ele>98.2</ele>
        <time>2015-04-13T19:10:01.376Z</time>
      </trkpt>
      <trkpt lat="48.90294" lon="2.45816">
        <ele>98.4</ele>
        <time>2015-04-13T19:10:02.375Z</time>
      </trkpt>
      <trkpt lat="48.90296" lon="2.45826">
        <ele>98.5</ele>
        <time>2015-04-13T19:10:03.388Z</time>
      </trkpt>
      <trkpt lat="48.90298" lon="2.45836">
        <ele>98.6</ele>
        <time>2015-04-13T19:10:04.401Z</time>
      </trkpt>
      <trkpt lat="48.903" lon="2.45846">
        <ele>98.7</ele>
        <time>2015-04-13T19:10:05.417Z</time>
      </trkpt>
      <trkpt lat="48.90302" lon="2.45856">
        <ele>98.6</ele>
        <time>2015-04-13T19:10:06.429Z</time>
      </trkpt>
      <trkpt lat="48.90304" lon="2.45867">
        <ele>98.6</ele>
        <time>2015-04-13T19:10:07.363Z</time>
      </trkpt>
      <trkpt lat="48.90307" lon="2.45877">
        <ele>98.5</ele>
        <time>2015-04-13T19:10:08.365Z</time>
      </trkpt>
      <trkpt lat="48.90309" lon="2.45887">
        <ele>98.7</ele>
        <time>2015-04-13T19:10:09.379Z</time>
      </trkpt>
      <trkpt lat="48.90311" lon="2.45897">
        <ele>98.7</ele>
        <time>2015-04-13T19:10:10.414Z</time>
      </trkpt>
      <trkpt lat="48.90313" lon="2.45908">
        <ele>98.7</ele>
        <time>2015-04-13T19:10:11.418Z</time>
      </trkpt>
      <trkpt lat="48.90315" lon="2.45918">
        <ele>98.8</ele>
        <time>2015-04-13T19:10:12.424Z</time>
      </trkpt>
      <trkpt lat="48.90317" lon="2.45929">
        <ele>99.2</ele>
        <time>2015-04-13T19:10:13.439Z</time>
      </trkpt>
      <trkpt lat="48.90319" lon="2.45939">
        <ele>99.3</ele>
        <time>2015-04-13T19:10:14.445Z</time>
      </trkpt>
      <trkpt lat="48.90321" lon="2.4595">
        <ele>99.1</ele>
        <time>2015-04-13T19:10:15.346Z</time>
      </trkpt>
      <trkpt lat="48.90322" lon="2.45961">
        <ele>98.5</ele>
        <time>2015-04-13T19:10:16.348Z</time>
      </trkpt>
      <trkpt lat="48.90324" lon="2.45971">
        <ele>98.3</ele>
        <time>2015-04-13T19:10:17.354Z</time>
      </trkpt>
      <trkpt lat="48.90326" lon="2.45981">
        <ele>98.2</ele>
        <time>2015-04-13T19:10:18.361Z</time>
      </trkpt>
      <trkpt lat="48.90329" lon="2.45991">
        <ele>98.3</ele>
        <time>2015-04-13T19:10:19.414Z</time>
      </trkpt>
      <trkpt lat="48.9033" lon="2.46002">
        <ele>98.2</ele>
        <time>2015-04-13T19:10:20.421Z</time>
      </trkpt>
      <trkpt lat="48.90332" lon="2.46013">
        <ele>98.1</ele>
        <time>2015-04-13T19:10:21.447Z</time>
      </trkpt>
      <trkpt lat="48.90335" lon="2.46023">
        <ele>98.1</ele>
        <time>2015-04-13T19:10:22.352Z</time>
      </trkpt>
      <trkpt lat="48.90337" lon="2.46033">
        <ele>97.9</ele>
        <time>2015-04-13T19:10:23.349Z</time>
      </trkpt>
      <trkpt lat="48.90339" lon="2.46044">
        <ele>97.7</ele>
        <time>2015-04-13T19:10:24.375Z</time>
      </trkpt>
      <trkpt lat="48.90341" lon="2.46054">
        <ele>97.6</ele>
        <time>2015-04-13T19:10:25.413Z</time>
      </trkpt>
      <trkpt lat="48.90342" lon="2.46064">
        <ele>97.4</ele>
        <time>2015-04-13T19:10:26.410Z</time>
      </trkpt>
      <trkpt lat="48.90344" lon="2.46074">
        <ele>97.2</ele>
        <time>2015-04-13T19:10:27.420Z</time>
      </trkpt>
      <trkpt lat="48.90345" lon="2.46084">
        <ele>97.1</ele>
        <time>2015-04-13T19:10:28.329Z</time>
      </trkpt>
      <trkpt lat="48.90347" lon="2.46094">
        <ele>96.8</ele>
        <time>2015-04-13T19:10:29.338Z</time>
      </trkpt>
      <trkpt lat="48.9035" lon="2.46103">
        <ele>96.5</ele>
        <time>2015-04-13T19:10:30.347Z</time>
      </trkpt>
      <trkpt lat="48.90352" lon="2.46112">
        <ele>96.5</ele>
        <time>2015-04-13T19:10:31.363Z</time>
      </trkpt>
      <trkpt lat="48.90355" lon="2.46122">
        <ele>96.4</ele>
        <time>2015-04-13T19:10:32.370Z</time>
      </trkpt>
      <trkpt lat="48.90357" lon="2.46131">
        <ele>96.3</ele>
        <time>2015-04-13T19:10:33.382Z</time>
      </trkpt>
      <trkpt lat="48.90359" lon="2.46141">
        <ele>96.5</ele>
        <time>2015-04-13T19:10:34.394Z</time>
      </trkpt>
      <trkpt lat="48.90362" lon="2.46152">
        <ele>96.7</ele>
        <time>2015-04-13T19:10:35.416Z</time>
      </trkpt>
      <trkpt lat="48.90364" lon="2.46162">
        <ele>96.8</ele>
        <time>2015-04-13T19:10:36.418Z</time>
      </trkpt>
      <trkpt lat="48.90366" lon="2.46173">
        <ele>97.1</ele>
        <time>2015-04-13T19:10:37.432Z</time>
      </trkpt>
      <trkpt lat="48.90367" lon="2.46183">
        <ele>97.3</ele>
        <time>2015-04-13T19:10:38.437Z</time>
      </trkpt>
      <trkpt lat="48.9037" lon="2.46193">
        <ele>97.2</ele>
        <time>2015-04-13T19:10:39.373Z</time>
      </trkpt>
      <trkpt lat="48.90371" lon="2.46203">
        <ele>97.2</ele>
        <time>2015-04-13T19:10:40.365Z</time>
      </trkpt>
      <trkpt lat="48.90372" lon="2.46214">
        <ele>97.2</ele>
        <time>2015-04-13T19:10:41.385Z</time>
      </trkpt>
      <trkpt lat="48.90374" lon="2.46224">
        <ele>97.2</ele>
        <time>2015-04-13T19:10:42.401Z</time>
      </trkpt>
      <trkpt lat="48.90377" lon="2.46233">
        <ele>97.2</ele>
        <time>2015-04-13T19:10:43.407Z</time>
      </trkpt>
      <trkpt lat="48.90379" lon="2.46243">
        <ele>97.4</ele>
        <time>2015-04-13T19:10:44.421Z</time>
      </trkpt>
      <trkpt lat="48.90381" lon="2.46253">
        <ele>97.4</ele>
        <time>2015-04-13T19:10:45.440Z</time>
      </trkpt>
      <trkpt lat="48.90384" lon="2.46263">
        <ele>97.2</ele>
        <time>2015-04-13T19:10:46.352Z</time>
      </trkpt>
      <trkpt lat="48.90386" lon="2.46273">
        <ele>97.2</ele>
        <time>2015-04-13T19:10:47.348Z</time>
      </trkpt>
      <trkpt lat="48.90388" lon="2.46284">
        <ele>97.6</ele>
        <time>2015-04-13T19:10:48.356Z</time>
      </trkpt>
      <trkpt lat="48.9039" lon="2.46294">
        <ele>97.8</ele>
        <time>2015-04-13T19:10:49.373Z</time>
      </trkpt>
      <trkpt lat="48.90392" lon="2.46304">
        <ele>98</ele>
        <time>2015-04-13T19:10:50.386Z</time>
      </trkpt>
      <trkpt lat="48.90394" lon="2.46315">
        <ele>97.9</ele>
        <time>2015-04-13T19:10:51.389Z</time>
      </trkpt>
      <trkpt lat="48.90395" lon="2.46325">
        <ele>97.9</ele>
        <time>2015-04-13T19:10:52.416Z</time>
      </trkpt>
      <trkpt lat="48.90396" lon="2.46335">
        <ele>97.6</ele>
        <time>2015-04-13T19:10:53.434Z</time>
      </trkpt>
      <trkpt lat="48.90399" lon="2.46346">
        <ele>97.9</ele>
        <time>2015-04-13T19:10:54.350Z</time>
      </trkpt>
      <trkpt lat="48.90401" lon="2.46355">
        <ele>98</ele>
        <time>2015-04-13T19:10:55.379Z</time>
      </trkpt>
      <trkpt lat="48.90403" lon="2.46364">
        <ele>98.1</ele>
        <time>2015-04-13T19:10:56.379Z</time>
      </trkpt>
      <trkpt lat="48.90405" lon="2.46374">
        <ele>98</ele>
        <time>2015-04-13T19:10:57.400Z</time>
      </trkpt>
      <trkpt lat="48.90407" lon="2.46383">
        <ele>98.1</ele>
        <time>2015-04-13T19:10:58.413Z</time>
      </trkpt>
      <trkpt lat="48.90409" lon="2.46392">
        <ele>98.2</ele>
        <time>2015-04-13T19:10:59.423Z</time>
      </trkpt>
      <trkpt lat="48.90411" lon="2.46402">
        <ele>98.1</ele>
        <time>2015-04-13T19:11:00.426Z</time>
      </trkpt>
      <trkpt lat="48.90413" lon="2.46412">
        <ele>98.1</ele>
        <time>2015-04-13T19:11:01.442Z</time>
      </trkpt>
      <trkpt lat="48.90415" lon="2.46422">
        <ele>98.1</ele>
        <time>2015-04-13T19:11:02.443Z</time>
      </trkpt>
      <trkpt lat="48.90416" lon="2.46432">
        <ele>98.2</ele>
        <time>2015-04-13T19:11:03.351Z</time>
      </trkpt>
      <trkpt lat="48.90418" lon="2.46442">
        <ele>98.3</ele>
        <time>2015-04-13T19:11:04.359Z</time>
      </trkpt>
      <trkpt lat="48.90421" lon="2.46452">
        <ele>98.4</ele>
        <time>2015-04-13T19:11:05.361Z</time>
      </trkpt>
      <trkpt lat="48.90423" lon="2.46461">
        <ele>98.6</ele>
        <time>2015-04-13T19:11:06.372Z</time>
      </trkpt>
      <trkpt lat="48.90424" lon="2.46471">
        <ele>98.9</ele>
        <time>2015-04-13T19:11:07.388Z</time>
      </trkpt>
      <trkpt lat="48.90424" lon="2.4648">
        <ele>99.2</ele>
        <time>2015-04-13T19:11:08.407Z</time>
      </trkpt>
      <trkpt lat="48.90424" lon="2.46489">
        <ele>99.6</ele>
        <time>2015-04-13T19:11:09.417Z</time>
      </trkpt>
      <trkpt lat="48.90424" lon="2.46499">
        <ele>100.1</ele>
        <time>2015-04-13T19:11:10.427Z</time>
      </trkpt>
      <trkpt lat="48.90425" lon="2.4651">
        <ele>100</ele>
        <time>2015-04-13T19:11:11.439Z</time>
      </trkpt>
      <trkpt lat="48.90427" lon="2.46518">
        <ele>100.2</ele>
        <time>2015-04-13T19:11:12.346Z</time>
      </trkpt>
      <trkpt lat="48.90428" lon="2.46526">
        <ele>100.4</ele>
        <time>2015-04-13T19:11:13.368Z</time>
      </trkpt>
      <trkpt lat="48.9043" lon="2.46535">
        <ele>100.7</ele>
        <time>2015-04-13T19:11:14.385Z</time>
      </trkpt>
      <trkpt lat="48.90434" lon="2.46544">
        <ele>101.3</ele>
        <time>2015-04-13T19:11:15.379Z</time>
      </trkpt>
      <trkpt lat="48.90436" lon="2.46552">
        <ele>101.3</ele>
        <time>2015-04-13T19:11:16.390Z</time>
      </trkpt>
      <trkpt lat="48.90439" lon="2.4656">
        <ele>100.8</ele>
        <time>2015-04-13T19:11:17.416Z</time>
      </trkpt>
      <trkpt lat="48.90441" lon="2.46569">
        <ele>100.7</ele>
        <time>2015-04-13T19:11:18.453Z</time>
      </trkpt>
      <trkpt lat="48.90443" lon="2.46577">
        <ele>100.8</ele>
        <time>2015-04-13T19:11:19.363Z</time>
      </trkpt>
      <trkpt lat="48.90445" lon="2.46586">
        <ele>100.8</ele>
        <time>2015-04-13T19:11:20.365Z</time>
      </trkpt>
      <trkpt lat="48.90446" lon="2.46595">
        <ele>101.2</ele>
        <time>2015-04-13T19:11:21.387Z</time>
      </trkpt>
      <trkpt lat="48.90448" lon="2.46605">
        <ele>101.2</ele>
        <time>2015-04-13T19:11:22.409Z</time>
      </trkpt>
      <trkpt lat="48.90451" lon="2.4662">
        <ele>102.3</ele>
        <time>2015-04-13T19:11:23.345Z</time>
      </trkpt>
      <trkpt lat="48.90454" lon="2.46631">
        <ele>102</ele>
        <time>2015-04-13T19:11:24.351Z</time>
      </trkpt>
      <trkpt lat="48.90457" lon="2.46641">
        <ele>101.9</ele>
        <time>2015-04-13T19:11:25.472Z</time>
      </trkpt>
      <trkpt lat="48.90459" lon="2.4665">
        <ele>102.1</ele>
        <time>2015-04-13T19:11:26.358Z</time>
      </trkpt>
      <trkpt lat="48.90462" lon="2.4666">
        <ele>102.3</ele>
        <time>2015-04-13T19:11:27.379Z</time>
      </trkpt>
      <trkpt lat="48.90464" lon="2.4667">
        <ele>102.3</ele>
        <time>2015-04-13T19:11:28.396Z</time>
      </trkpt>
      <trkpt lat="48.90466" lon="2.4668">
        <ele>102.4</ele>
        <time>2015-04-13T19:11:29.404Z</time>
      </trkpt>
      <trkpt lat="48.90468" lon="2.46691">
        <ele>102.6</ele>
        <time>2015-04-13T19:11:30.433Z</time>
      </trkpt>
      <trkpt lat="48.9047" lon="2.46701">
        <ele>102.7</ele>
        <time>2015-04-13T19:11:31.435Z</time>
      </trkpt>
      <trkpt lat="48.90473" lon="2.46711">
        <ele>102.7</ele>
        <time>2015-04-13T19:11:32.394Z</time>
      </trkpt>
      <trkpt lat="48.90476" lon="2.4672">
        <ele>102.8</ele>
        <time>2015-04-13T19:11:33.352Z</time>
      </trkpt>
      <trkpt lat="48.90479" lon="2.4673">
        <ele>103</ele>
        <time>2015-04-13T19:11:34.348Z</time>
      </trkpt>
      <trkpt lat="48.90481" lon="2.4674">
        <ele>102.9</ele>
        <time>2015-04-13T19:11:35.395Z</time>
      </trkpt>
      <trkpt lat="48.90483" lon="2.46751">
        <ele>102.8</ele>
        <time>2015-04-13T19:11:36.414Z</time>
      </trkpt>
      <trkpt lat="48.90485" lon="2.46761">
        <ele>102.2</ele>
        <time>2015-04-13T19:11:37.386Z</time>
      </trkpt>
      <trkpt lat="48.90488" lon="2.46772">
        <ele>101.9</ele>
        <time>2015-04-13T19:11:38.375Z</time>
      </trkpt>
      <trkpt lat="48.9049" lon="2.46783">
        <ele>101.8</ele>
        <time>2015-04-13T19:11:39.379Z</time>
      </trkpt>
      <trkpt lat="48.9049" lon="2.46794">
        <ele>101.5</ele>
        <time>2015-04-13T19:11:40.430Z</time>
      </trkpt>
      <trkpt lat="48.9049" lon="2.46806">
        <ele>101.9</ele>
        <time>2015-04-13T19:11:41.340Z</time>
      </trkpt>
      <trkpt lat="48.90491" lon="2.46818">
        <ele>101.9</ele>
        <time>2015-04-13T19:11:42.423Z</time>
      </trkpt>
      <trkpt lat="48.90493" lon="2.46828">
        <ele>101.9</ele>
        <time>2015-04-13T19:11:43.396Z</time>
      </trkpt>
      <trkpt lat="48.90496" lon="2.46838">
        <ele>102.2</ele>
        <time>2015-04-13T19:11:44.401Z</time>
      </trkpt>
      <trkpt lat="48.90498" lon="2.46848">
        <ele>102.1</ele>
        <time>2015-04-13T19:11:45.440Z</time>
      </trkpt>
      <trkpt lat="48.905" lon="2.46858">
        <ele>102.2</ele>
        <time>2015-04-13T19:11:46.357Z</time>
      </trkpt>
      <trkpt lat="48.90502" lon="2.46867">
        <ele>102.3</ele>
        <time>2015-04-13T19:11:47.357Z</time>
      </trkpt>
      <trkpt lat="48.90504" lon="2.46877">
        <ele>102.3</ele>
        <time>2015-04-13T19:11:48.401Z</time>
      </trkpt>
      <trkpt lat="48.90506" lon="2.46886">
        <ele>102.3</ele>
        <time>2015-04-13T19:11:49.395Z</time>
      </trkpt>
      <trkpt lat="48.90508" lon="2.46895">
        <ele>102.2</ele>
        <time>2015-04-13T19:11:50.403Z</time>
      </trkpt>
      <trkpt lat="48.90509" lon="2.46904">
        <ele>102.1</ele>
        <time>2015-04-13T19:11:51.432Z</time>
      </trkpt>
      <trkpt lat="48.90511" lon="2.46912">
        <ele>102.1</ele>
        <time>2015-04-13T19:11:52.365Z</time>
      </trkpt>
      <trkpt lat="48.90513" lon="2.4692">
        <ele>102</ele>
        <time>2015-04-13T19:11:53.351Z</time>
      </trkpt>
      <trkpt lat="48.90515" lon="2.46929">
        <ele>102.1</ele>
        <time>2015-04-13T19:11:54.367Z</time>
      </trkpt>
      <trkpt lat="48.90516" lon="2.46936">
        <ele>102.1</ele>
        <time>2015-04-13T19:11:55.369Z</time>
      </trkpt>
      <trkpt lat="48.90517" lon="2.46944">
        <ele>102.1</ele>
        <time>2015-04-13T19:11:56.383Z</time>
      </trkpt>
      <trkpt lat="48.90518" lon="2.46951">
        <ele>102.2</ele>
        <time>2015-04-13T19:11:57.392Z</time>
      </trkpt>
      <trkpt lat="48.90519" lon="2.46963">
        <ele>102.4</ele>
        <time>2015-04-13T19:11:59.430Z</time>
      </trkpt>
      <trkpt lat="48.9052" lon="2.46968">
        <ele>102.5</ele>
        <time>2015-04-13T19:12:00.458Z</time>
      </trkpt>
      <trkpt lat="48.90522" lon="2.46978">
        <ele>102.7</ele>
        <time>2015-04-13T19:12:02.406Z</time>
      </trkpt>
      <trkpt lat="48.90523" lon="2.46981">
        <ele>102.9</ele>
        <time>2015-04-13T19:12:03.413Z</time>
      </trkpt>
      <trkpt lat="48.90527" lon="2.46983">
        <ele>103</ele>
        <time>2015-04-13T19:12:04.310Z</time>
      </trkpt>
      <trkpt lat="48.90531" lon="2.46986">
        <ele>103.1</ele>
        <time>2015-04-13T19:12:05.321Z</time>
      </trkpt>
      <trkpt lat="48.90535" lon="2.46992">
        <ele>103</ele>
        <time>2015-04-13T19:12:06.346Z</time>
      </trkpt>
      <trkpt lat="48.9054" lon="2.46998">
        <ele>103</ele>
        <time>2015-04-13T19:12:07.349Z</time>
      </trkpt>
      <trkpt lat="48.90544" lon="2.47006">
        <ele>102.8</ele>
        <time>2015-04-13T19:12:08.357Z</time>
      </trkpt>
      <trkpt lat="48.90548" lon="2.47013">
        <ele>102.5</ele>
        <time>2015-04-13T19:12:09.368Z</time>
      </trkpt>
      <trkpt lat="48.90551" lon="2.47022">
        <ele>102.2</ele>
        <time>2015-04-13T19:12:10.388Z</time>
      </trkpt>
      <trkpt lat="48.90554" lon="2.47029">
        <ele>102.1</ele>
        <time>2015-04-13T19:12:11.411Z</time>
      </trkpt>
      <trkpt lat="48.90556" lon="2.47037">
        <ele>102</ele>
        <time>2015-04-13T19:12:12.314Z</time>
      </trkpt>
      <trkpt lat="48.90557" lon="2.47043">
        <ele>101.7</ele>
        <time>2015-04-13T19:12:13.335Z</time>
      </trkpt>
      <trkpt lat="48.90557" lon="2.47051">
        <ele>101.6</ele>
        <time>2015-04-13T19:12:14.362Z</time>
      </trkpt>
      <trkpt lat="48.90558" lon="2.47058">
        <ele>101.3</ele>
        <time>2015-04-13T19:12:15.355Z</time>
      </trkpt>
      <trkpt lat="48.90557" lon="2.47067">
        <ele>101.4</ele>
        <time>2015-04-13T19:12:16.383Z</time>
      </trkpt>
      <trkpt lat="48.90556" lon="2.47074">
        <ele>100.9</ele>
        <time>2015-04-13T19:12:17.391Z</time>
      </trkpt>
      <trkpt lat="48.90555" lon="2.47082">
        <ele>101</ele>
        <time>2015-04-13T19:12:18.404Z</time>
      </trkpt>
      <trkpt lat="48.90555" lon="2.47088">
        <ele>101.2</ele>
        <time>2015-04-13T19:12:19.415Z</time>
      </trkpt>
      <trkpt lat="48.90555" lon="2.47094">
        <ele>101.3</ele>
        <time>2015-04-13T19:12:20.435Z</time>
      </trkpt>
      <trkpt lat="48.90555" lon="2.47104">
        <ele>102.1</ele>
        <time>2015-04-13T19:12:21.337Z</time>
      </trkpt>
      <trkpt lat="48.90557" lon="2.47116">
        <ele>102.5</ele>
        <time>2015-04-13T19:12:23.362Z</time>
      </trkpt>
      <trkpt lat="48.90558" lon="2.4712">
        <ele>102.5</ele>
        <time>2015-04-13T19:12:24.384Z</time>
      </trkpt>
      <trkpt lat="48.9056" lon="2.47126">
        <ele>102.8</ele>
        <time>2015-04-13T19:12:28.371Z</time>
      </trkpt>
      <trkpt lat="48.90559" lon="2.47127">
        <ele>102.7</ele>
        <time>2015-04-13T19:12:29.394Z</time>
      </trkpt>
      <trkpt lat="48.90559" lon="2.47126">
        <ele>102.5</ele>
        <time>2015-04-13T19:12:30.423Z</time>
      </trkpt>
      <trkpt lat="48.90556" lon="2.47119">
        <ele>101.2</ele>
        <time>2015-04-13T19:12:38.501Z</time>
      </trkpt>
      <trkpt lat="48.90556" lon="2.47119">
        <ele>101.1</ele>
        <time>2015-04-13T19:12:39.383Z</time>
      </trkpt>
      <trkpt lat="48.90556" lon="2.47119">
        <ele>101</ele>
        <time>2015-04-13T19:14:34.385Z</time>
      </trkpt>
      <trkpt lat="48.90551" lon="2.47133">
        <ele>108</ele>
        <time>2015-04-13T19:14:35.413Z</time>
      </trkpt>
      <trkpt lat="48.90554" lon="2.47144">
        <ele>106.3</ele>
        <time>2015-04-13T19:14:41.424Z</time>
      </trkpt>
      <trkpt lat="48.90555" lon="2.47147">
        <ele>106</ele>
        <time>2015-04-13T19:14:42.374Z</time>
      </trkpt>
      <trkpt lat="48.90557" lon="2.47159">
        <ele>105.4</ele>
        <time>2015-04-13T19:14:45.448Z</time>
      </trkpt>
      <trkpt lat="48.90558" lon="2.47163">
        <ele>105.2</ele>
        <time>2015-04-13T19:14:46.371Z</time>
      </trkpt>
      <trkpt lat="48.90561" lon="2.47172">
        <ele>105</ele>
        <time>2015-04-13T19:14:48.354Z</time>
      </trkpt>
      <trkpt lat="48.90562" lon="2.47177">
        <ele>105.1</ele>
        <time>2015-04-13T19:14:49.389Z</time>
      </trkpt>
      <trkpt lat="48.90563" lon="2.47187">
        <ele>105.1</ele>
        <time>2015-04-13T19:14:51.425Z</time>
      </trkpt>
      <trkpt lat="48.90564" lon="2.47192">
        <ele>105.1</ele>
        <time>2015-04-13T19:14:52.324Z</time>
      </trkpt>
      <trkpt lat="48.90564" lon="2.47202">
        <ele>105.1</ele>
        <time>2015-04-13T19:14:54.374Z</time>
      </trkpt>
      <trkpt lat="48.90565" lon="2.47208">
        <ele>105.1</ele>
        <time>2015-04-13T19:14:55.385Z</time>
      </trkpt>
      <trkpt lat="48.90567" lon="2.4722">
        <ele>105</ele>
        <time>2015-04-13T19:14:57.416Z</time>
      </trkpt>
      <trkpt lat="48.90568" lon="2.47226">
        <ele>104.8</ele>
        <time>2015-04-13T19:14:58.436Z</time>
      </trkpt>
      <trkpt lat="48.9057" lon="2.47233">
        <ele>104.5</ele>
        <time>2015-04-13T19:14:59.362Z</time>
      </trkpt>
      <trkpt lat="48.90572" lon="2.4724">
        <ele>104.4</ele>
        <time>2015-04-13T19:15:00.355Z</time>
      </trkpt>
      <trkpt lat="48.90575" lon="2.47246">
        <ele>104.5</ele>
        <time>2015-04-13T19:15:01.395Z</time>
      </trkpt>
      <trkpt lat="48.90577" lon="2.47252">
        <ele>104.3</ele>
        <time>2015-04-13T19:15:02.438Z</time>
      </trkpt>
      <trkpt lat="48.90579" lon="2.47258">
        <ele>104.4</ele>
        <time>2015-04-13T19:15:03.322Z</time>
      </trkpt>
      <trkpt lat="48.90582" lon="2.47265">
        <ele>104.4</ele>
        <time>2015-04-13T19:15:04.340Z</time>
      </trkpt>
      <trkpt lat="48.90584" lon="2.47271">
        <ele>104.1</ele>
        <time>2015-04-13T19:15:05.339Z</time>
      </trkpt>
      <trkpt lat="48.90586" lon="2.47277">
        <ele>103.9</ele>
        <time>2015-04-13T19:15:06.354Z</time>
      </trkpt>
      <trkpt lat="48.9059" lon="2.47289">
        <ele>103.5</ele>
        <time>2015-04-13T19:15:08.398Z</time>
      </trkpt>
      <trkpt lat="48.90591" lon="2.47295">
        <ele>103.5</ele>
        <time>2015-04-13T19:15:09.409Z</time>
      </trkpt>
      <trkpt lat="48.90594" lon="2.47308">
        <ele>103.7</ele>
        <time>2015-04-13T19:15:11.342Z</time>
      </trkpt>
      <trkpt lat="48.90595" lon="2.47314">
        <ele>103.8</ele>
        <time>2015-04-13T19:15:12.363Z</time>
      </trkpt>
      <trkpt lat="48.90598" lon="2.47324">
        <ele>104</ele>
        <time>2015-04-13T19:15:14.405Z</time>
      </trkpt>
      <trkpt lat="48.90598" lon="2.47328">
        <ele>104.2</ele>
        <time>2015-04-13T19:15:15.316Z</time>
      </trkpt>
      <trkpt lat="48.90599" lon="2.4734">
        <ele>104.4</ele>
        <time>2015-04-13T19:15:20.432Z</time>
      </trkpt>
      <trkpt lat="48.906" lon="2.47342">
        <ele>104.6</ele>
        <time>2015-04-13T19:15:21.332Z</time>
      </trkpt>
      <trkpt lat="48.90601" lon="2.47354">
        <ele>104.5</ele>
        <time>2015-04-13T19:15:25.362Z</time>
      </trkpt>
      <trkpt lat="48.90602" lon="2.47357">
        <ele>104.7</ele>
        <time>2015-04-13T19:15:26.444Z</time>
      </trkpt>
      <trkpt lat="48.90601" lon="2.4737">
        <ele>103.8</ele>
        <time>2015-04-13T19:15:31.465Z</time>
      </trkpt>
      <trkpt lat="48.906" lon="2.47371">
        <ele>103.9</ele>
        <time>2015-04-13T19:15:32.482Z</time>
      </trkpt>
      <trkpt lat="48.90599" lon="2.47375">
        <ele>103.8</ele>
        <time>2015-04-13T19:15:36.343Z</time>
      </trkpt>
      <trkpt lat="48.90598" lon="2.47375">
        <ele>103.6</ele>
        <time>2015-04-13T19:15:37.352Z</time>
      </trkpt>
      <trkpt lat="48.90598" lon="2.47376">
        <ele>103.5</ele>
        <time>2015-04-13T19:15:43.373Z</time>
      </trkpt>
      <trkpt lat="48.90598" lon="2.47377">
        <ele>103.6</ele>
        <time>2015-04-13T19:15:44.412Z</time>
      </trkpt>
      <trkpt lat="48.90592" lon="2.47384">
        <ele>103.1</ele>
        <time>2015-04-13T19:15:51.385Z</time>
      </trkpt>
      <trkpt lat="48.90591" lon="2.47385">
        <ele>103.1</ele>
        <time>2015-04-13T19:15:52.399Z</time>
      </trkpt>
      <trkpt lat="48.90585" lon="2.47393">
        <ele>102.8</ele>
        <time>2015-04-13T19:15:56.427Z</time>
      </trkpt>
      <trkpt lat="48.90583" lon="2.47395">
        <ele>102.7</ele>
        <time>2015-04-13T19:15:57.352Z</time>
      </trkpt>
      <trkpt lat="48.90578" lon="2.47403">
        <ele>101.9</ele>
        <time>2015-04-13T19:16:02.397Z</time>
      </trkpt>
      <trkpt lat="48.90578" lon="2.47403">
        <ele>101.8</ele>
        <time>2015-04-13T19:16:03.411Z</time>
      </trkpt>
      <trkpt lat="48.90578" lon="2.47404">
        <ele>102.2</ele>
        <time>2015-04-13T19:17:33.386Z</time>
      </trkpt>
      <trkpt lat="48.90578" lon="2.47406">
        <ele>103.9</ele>
        <time>2015-04-13T19:17:34.390Z</time>
      </trkpt>
      <trkpt lat="48.90578" lon="2.47407">
        <ele>103.9</ele>
        <time>2015-04-13T19:17:35.384Z</time>
      </trkpt>
      <trkpt lat="48.90578" lon="2.47406">
        <ele>103.6</ele>
        <time>2015-04-13T19:17:36.372Z</time>
      </trkpt>
      <trkpt lat="48.90578" lon="2.47406">
        <ele>103.6</ele>
        <time>2015-04-13T19:18:02.360Z</time>
      </trkpt>
      <trkpt lat="48.90579" lon="2.47405">
        <ele>103.5</ele>
        <time>2015-04-13T19:18:03.366Z</time>
      </trkpt>
      <trkpt lat="48.90586" lon="2.47398">
        <ele>103.6</ele>
        <time>2015-04-13T19:18:09.340Z</time>
      </trkpt>
      <trkpt lat="48.90587" lon="2.47396">
        <ele>103.5</ele>
        <time>2015-04-13T19:18:10.381Z</time>
      </trkpt>
      <trkpt lat="48.90593" lon="2.4739">
        <ele>103.2</ele>
        <time>2015-04-13T19:18:14.499Z</time>
      </trkpt>
      <trkpt lat="48.90595" lon="2.47388">
        <ele>103.1</ele>
        <time>2015-04-13T19:18:15.347Z</time>
      </trkpt>
      <trkpt lat="48.906" lon="2.47378">
        <ele>102.7</ele>
        <time>2015-04-13T19:18:19.413Z</time>
      </trkpt>
      <trkpt lat="48.90602" lon="2.47375">
        <ele>102.7</ele>
        <time>2015-04-13T19:18:20.440Z</time>
      </trkpt>
      <trkpt lat="48.90603" lon="2.47362">
        <ele>102.9</ele>
        <time>2015-04-13T19:18:26.398Z</time>
      </trkpt>
      <trkpt lat="48.90602" lon="2.4736">
        <ele>103.1</ele>
        <time>2015-04-13T19:18:27.419Z</time>
      </trkpt>
      <trkpt lat="48.906" lon="2.47348">
        <ele>103.4</ele>
        <time>2015-04-13T19:18:32.460Z</time>
      </trkpt>
      <trkpt lat="48.906" lon="2.47345">
        <ele>103.4</ele>
        <time>2015-04-13T19:18:33.305Z</time>
      </trkpt>
      <trkpt lat="48.90598" lon="2.47336">
        <ele>103.4</ele>
        <time>2015-04-13T19:18:35.394Z</time>
      </trkpt>
      <trkpt lat="48.90597" lon="2.4733">
        <ele>103.5</ele>
        <time>2015-04-13T19:18:36.413Z</time>
      </trkpt>
      <trkpt lat="48.90594" lon="2.47318">
        <ele>103.4</ele>
        <time>2015-04-13T19:18:38.470Z</time>
      </trkpt>
      <trkpt lat="48.90593" lon="2.47312">
        <ele>103.4</ele>
        <time>2015-04-13T19:18:39.350Z</time>
      </trkpt>
      <trkpt lat="48.9059" lon="2.47299">
        <ele>103.5</ele>
        <time>2015-04-13T19:18:41.389Z</time>
      </trkpt>
      <trkpt lat="48.90589" lon="2.47293">
        <ele>103.7</ele>
        <time>2015-04-13T19:18:42.406Z</time>
      </trkpt>
      <trkpt lat="48.90585" lon="2.4728">
        <ele>103.8</ele>
        <time>2015-04-13T19:18:44.430Z</time>
      </trkpt>
      <trkpt lat="48.90584" lon="2.47274">
        <ele>104</ele>
        <time>2015-04-13T19:18:45.373Z</time>
      </trkpt>
      <trkpt lat="48.90581" lon="2.47261">
        <ele>104.1</ele>
        <time>2015-04-13T19:18:47.342Z</time>
      </trkpt>
      <trkpt lat="48.90579" lon="2.47255">
        <ele>104</ele>
        <time>2015-04-13T19:18:48.373Z</time>
      </trkpt>
      <trkpt lat="48.90577" lon="2.47249">
        <ele>104.1</ele>
        <time>2015-04-13T19:18:49.406Z</time>
      </trkpt>
      <trkpt lat="48.90575" lon="2.47243">
        <ele>104.2</ele>
        <time>2015-04-13T19:18:50.414Z</time>
      </trkpt>
      <trkpt lat="48.90573" lon="2.47236">
        <ele>104.2</ele>
        <time>2015-04-13T19:18:51.427Z</time>
      </trkpt>
      <trkpt lat="48.90571" lon="2.4723">
        <ele>104.2</ele>
        <time>2015-04-13T19:18:52.343Z</time>
      </trkpt>
      <trkpt lat="48.9057" lon="2.47223">
        <ele>104.2</ele>
        <time>2015-04-13T19:18:53.372Z</time>
      </trkpt>
      <trkpt lat="48.90568" lon="2.47217">
        <ele>104.2</ele>
        <time>2015-04-13T19:18:54.340Z</time>
      </trkpt>
      <trkpt lat="48.90567" lon="2.4721">
        <ele>104.3</ele>
        <time>2015-04-13T19:18:55.354Z</time>
      </trkpt>
      <trkpt lat="48.90564" lon="2.47203">
        <ele>104.6</ele>
        <time>2015-04-13T19:18:56.394Z</time>
      </trkpt>
      <trkpt lat="48.9056" lon="2.47191">
        <ele>104.6</ele>
        <time>2015-04-13T19:18:58.342Z</time>
      </trkpt>
      <trkpt lat="48.90559" lon="2.47185">
        <ele>104.1</ele>
        <time>2015-04-13T19:18:59.349Z</time>
      </trkpt>
      <trkpt lat="48.90557" lon="2.47172">
        <ele>104</ele>
        <time>2015-04-13T19:19:01.400Z</time>
      </trkpt>
      <trkpt lat="48.90555" lon="2.47164">
        <ele>104</ele>
        <time>2015-04-13T19:19:02.418Z</time>
      </trkpt>
      <trkpt lat="48.90553" lon="2.47157">
        <ele>103.8</ele>
        <time>2015-04-13T19:19:03.425Z</time>
      </trkpt>
      <trkpt lat="48.90551" lon="2.4715">
        <ele>103.8</ele>
        <time>2015-04-13T19:19:04.351Z</time>
      </trkpt>
      <trkpt lat="48.90549" lon="2.47136">
        <ele>103.7</ele>
        <time>2015-04-13T19:19:06.381Z</time>
      </trkpt>
      <trkpt lat="48.90548" lon="2.47129">
        <ele>103.7</ele>
        <time>2015-04-13T19:19:07.381Z</time>
      </trkpt>
      <trkpt lat="48.90547" lon="2.47122">
        <ele>103.7</ele>
        <time>2015-04-13T19:19:08.391Z</time>
      </trkpt>
      <trkpt lat="48.90545" lon="2.47115">
        <ele>103.7</ele>
        <time>2015-04-13T19:19:09.429Z</time>
      </trkpt>
      <trkpt lat="48.90544" lon="2.47108">
        <ele>103.6</ele>
        <time>2015-04-13T19:19:10.343Z</time>
      </trkpt>
      <trkpt lat="48.90543" lon="2.47101">
        <ele>103.5</ele>
        <time>2015-04-13T19:19:11.348Z</time>
      </trkpt>
      <trkpt lat="48.90542" lon="2.47095">
        <ele>103.6</ele>
        <time>2015-04-13T19:19:12.362Z</time>
      </trkpt>
      <trkpt lat="48.90541" lon="2.47088">
        <ele>103.7</ele>
        <time>2015-04-13T19:19:13.360Z</time>
      </trkpt>
      <trkpt lat="48.9054" lon="2.47081">
        <ele>103.8</ele>
        <time>2015-04-13T19:19:14.403Z</time>
      </trkpt>
      <trkpt lat="48.90538" lon="2.47074">
        <ele>103.9</ele>
        <time>2015-04-13T19:19:15.304Z</time>
      </trkpt>
      <trkpt lat="48.90536" lon="2.47066">
        <ele>104</ele>
        <time>2015-04-13T19:19:16.354Z</time>
      </trkpt>
      <trkpt lat="48.90534" lon="2.47059">
        <ele>104.1</ele>
        <time>2015-04-13T19:19:17.378Z</time>
      </trkpt>
      <trkpt lat="48.90533" lon="2.47052">
        <ele>104.2</ele>
        <time>2015-04-13T19:19:18.402Z</time>
      </trkpt>
      <trkpt lat="48.90532" lon="2.47045">
        <ele>104.5</ele>
        <time>2015-04-13T19:19:19.412Z</time>
      </trkpt>
      <trkpt lat="48.90531" lon="2.47038">
        <ele>104.7</ele>
        <time>2015-04-13T19:19:20.417Z</time>
      </trkpt>
      <trkpt lat="48.9053" lon="2.47032">
        <ele>105</ele>
        <time>2015-04-13T19:19:21.423Z</time>
      </trkpt>
      <trkpt lat="48.90525" lon="2.4702">
        <ele>105.3</ele>
        <time>2015-04-13T19:19:23.386Z</time>
      </trkpt>
      <trkpt lat="48.90522" lon="2.47016">
        <ele>105.5</ele>
        <time>2015-04-13T19:19:24.348Z</time>
      </trkpt>
      <trkpt lat="48.90516" lon="2.47006">
        <ele>105.7</ele>
        <time>2015-04-13T19:19:26.412Z</time>
      </trkpt>
      <trkpt lat="48.90514" lon="2.47002">
        <ele>105.7</ele>
        <time>2015-04-13T19:19:27.403Z</time>
      </trkpt>
      <trkpt lat="48.90511" lon="2.46992">
        <ele>106.1</ele>
        <time>2015-04-13T19:19:29.334Z</time>
      </trkpt>
      <trkpt lat="48.9051" lon="2.46987">
        <ele>106.3</ele>
        <time>2015-04-13T19:19:30.426Z</time>
      </trkpt>
      <trkpt lat="48.90509" lon="2.4698">
        <ele>106.5</ele>
        <time>2015-04-13T19:19:31.371Z</time>
      </trkpt>
      <trkpt lat="48.90508" lon="2.46973">
        <ele>107.1</ele>
        <time>2015-04-13T19:19:32.483Z</time>
      </trkpt>
      <trkpt lat="48.90506" lon="2.46965">
        <ele>107.4</ele>
        <time>2015-04-13T19:19:33.340Z</time>
      </trkpt>
      <trkpt lat="48.90504" lon="2.46957">
        <ele>107.8</ele>
        <time>2015-04-13T19:19:34.360Z</time>
      </trkpt>
      <trkpt lat="48.90502" lon="2.46949">
        <ele>108.2</ele>
        <time>2015-04-13T19:19:35.372Z</time>
      </trkpt>
      <trkpt lat="48.90499" lon="2.46941">
        <ele>108.9</ele>
        <time>2015-04-13T19:19:36.381Z</time>
      </trkpt>
      <trkpt lat="48.90497" lon="2.46934">
        <ele>109.5</ele>
        <time>2015-04-13T19:19:37.398Z</time>
      </trkpt>
      <trkpt lat="48.90494" lon="2.46927">
        <ele>110.8</ele>
        <time>2015-04-13T19:19:38.411Z</time>
      </trkpt>
      <trkpt lat="48.90492" lon="2.4692">
        <ele>112</ele>
        <time>2015-04-13T19:19:39.337Z</time>
      </trkpt>
      <trkpt lat="48.90491" lon="2.46911">
        <ele>112.6</ele>
        <time>2015-04-13T19:19:40.360Z</time>
      </trkpt>
      <trkpt lat="48.90489" lon="2.46902">
        <ele>113.6</ele>
        <time>2015-04-13T19:19:41.341Z</time>
      </trkpt>
      <trkpt lat="48.90486" lon="2.46894">
        <ele>115</ele>
        <time>2015-04-13T19:19:42.347Z</time>
      </trkpt>
      <trkpt lat="48.90483" lon="2.46885">
        <ele>116.7</ele>
        <time>2015-04-13T19:19:43.388Z</time>
      </trkpt>
      <trkpt lat="48.90481" lon="2.46876">
        <ele>117.8</ele>
        <time>2015-04-13T19:19:44.388Z</time>
      </trkpt>
      <trkpt lat="48.9048" lon="2.46868">
        <ele>118.2</ele>
        <time>2015-04-13T19:19:45.407Z</time>
      </trkpt>
      <trkpt lat="48.90479" lon="2.4686">
        <ele>118.4</ele>
        <time>2015-04-13T19:19:46.414Z</time>
      </trkpt>
      <trkpt lat="48.90478" lon="2.46852">
        <ele>118.5</ele>
        <time>2015-04-13T19:19:47.337Z</time>
      </trkpt>
      <trkpt lat="48.90477" lon="2.46844">
        <ele>118.5</ele>
        <time>2015-04-13T19:19:48.344Z</time>
      </trkpt>
      <trkpt lat="48.90475" lon="2.46835">
        <ele>118.6</ele>
        <time>2015-04-13T19:19:49.362Z</time>
      </trkpt>
      <trkpt lat="48.90474" lon="2.46827">
        <ele>118.9</ele>
        <time>2015-04-13T19:19:50.375Z</time>
      </trkpt>
      <trkpt lat="48.90473" lon="2.46818">
        <ele>119.2</ele>
        <time>2015-04-13T19:19:51.386Z</time>
      </trkpt>
      <trkpt lat="48.90472" lon="2.4681">
        <ele>119.8</ele>
        <time>2015-04-13T19:19:52.399Z</time>
      </trkpt>
      <trkpt lat="48.90471" lon="2.46801">
        <ele>120.3</ele>
        <time>2015-04-13T19:19:53.411Z</time>
      </trkpt>
      <trkpt lat="48.90469" lon="2.46792">
        <ele>121</ele>
        <time>2015-04-13T19:19:54.434Z</time>
      </trkpt>
      <trkpt lat="48.90468" lon="2.46783">
        <ele>121.3</ele>
        <time>2015-04-13T19:19:55.433Z</time>
      </trkpt>
      <trkpt lat="48.90467" lon="2.46774">
        <ele>121.9</ele>
        <time>2015-04-13T19:19:56.445Z</time>
      </trkpt>
      <trkpt lat="48.90466" lon="2.46766">
        <ele>122.4</ele>
        <time>2015-04-13T19:19:57.339Z</time>
      </trkpt>
      <trkpt lat="48.90465" lon="2.46757">
        <ele>122.9</ele>
        <time>2015-04-13T19:19:58.348Z</time>
      </trkpt>
      <trkpt lat="48.90462" lon="2.4675">
        <ele>124.9</ele>
        <time>2015-04-13T19:19:59.359Z</time>
      </trkpt>
      <trkpt lat="48.90459" lon="2.46742">
        <ele>125.7</ele>
        <time>2015-04-13T19:20:00.365Z</time>
      </trkpt>
      <trkpt lat="48.90456" lon="2.46735">
        <ele>128.4</ele>
        <time>2015-04-13T19:20:01.394Z</time>
      </trkpt>
      <trkpt lat="48.90453" lon="2.46729">
        <ele>130.9</ele>
        <time>2015-04-13T19:20:02.408Z</time>
      </trkpt>
      <trkpt lat="48.90451" lon="2.4672">
        <ele>131.8</ele>
        <time>2015-04-13T19:20:03.426Z</time>
      </trkpt>
      <trkpt lat="48.90449" lon="2.46712">
        <ele>132.4</ele>
        <time>2015-04-13T19:20:04.338Z</time>
      </trkpt>
      <trkpt lat="48.90448" lon="2.46704">
        <ele>133.1</ele>
        <time>2015-04-13T19:20:05.368Z</time>
      </trkpt>
      <trkpt lat="48.90446" lon="2.46696">
        <ele>134</ele>
        <time>2015-04-13T19:20:06.370Z</time>
      </trkpt>
      <trkpt lat="48.90445" lon="2.46688">
        <ele>134.6</ele>
        <time>2015-04-13T19:20:07.397Z</time>
      </trkpt>
      <trkpt lat="48.90444" lon="2.46679">
        <ele>135.1</ele>
        <time>2015-04-13T19:20:08.408Z</time>
      </trkpt>
      <trkpt lat="48.90443" lon="2.4667">
        <ele>135.7</ele>
        <time>2015-04-13T19:20:09.418Z</time>
      </trkpt>
      <trkpt lat="48.90442" lon="2.46662">
        <ele>136.3</ele>
        <time>2015-04-13T19:20:10.339Z</time>
      </trkpt>
      <trkpt lat="48.90441" lon="2.46653">
        <ele>136.8</ele>
        <time>2015-04-13T19:20:11.343Z</time>
      </trkpt>
      <trkpt lat="48.9044" lon="2.46645">
        <ele>137</ele>
        <time>2015-04-13T19:20:12.352Z</time>
      </trkpt>
      <trkpt lat="48.90439" lon="2.46637">
        <ele>137.1</ele>
        <time>2015-04-13T19:20:13.380Z</time>
      </trkpt>
      <trkpt lat="48.90438" lon="2.46629">
        <ele>137.2</ele>
        <time>2015-04-13T19:20:14.391Z</time>
      </trkpt>
      <trkpt lat="48.90437" lon="2.46621">
        <ele>137.5</ele>
        <time>2015-04-13T19:20:15.407Z</time>
      </trkpt>
      <trkpt lat="48.90437" lon="2.46614">
        <ele>137.6</ele>
        <time>2015-04-13T19:20:16.420Z</time>
      </trkpt>
      <trkpt lat="48.90436" lon="2.46606">
        <ele>137.7</ele>
        <time>2015-04-13T19:20:17.332Z</time>
      </trkpt>
      <trkpt lat="48.90434" lon="2.46598">
        <ele>137.7</ele>
        <time>2015-04-13T19:20:18.354Z</time>
      </trkpt>
      <trkpt lat="48.90434" lon="2.46591">
        <ele>137.7</ele>
        <time>2015-04-13T19:20:19.386Z</time>
      </trkpt>
      <trkpt lat="48.90434" lon="2.46584">
        <ele>137.7</ele>
        <time>2015-04-13T19:20:20.393Z</time>
      </trkpt>
      <trkpt lat="48.90434" lon="2.46571">
        <ele>137.8</ele>
        <time>2015-04-13T19:20:22.405Z</time>
      </trkpt>
      <trkpt lat="48.90434" lon="2.46566">
        <ele>138.1</ele>
        <time>2015-04-13T19:20:23.302Z</time>
      </trkpt>
      <trkpt lat="48.90431" lon="2.46558">
        <ele>138</ele>
        <time>2015-04-13T19:20:24.414Z</time>
      </trkpt>
      <trkpt lat="48.9043" lon="2.46552">
        <ele>137.9</ele>
        <time>2015-04-13T19:20:25.423Z</time>
      </trkpt>
      <trkpt lat="48.90427" lon="2.46541">
        <ele>138.1</ele>
        <time>2015-04-13T19:20:27.336Z</time>
      </trkpt>
      <trkpt lat="48.90425" lon="2.46534">
        <ele>138.2</ele>
        <time>2015-04-13T19:20:28.352Z</time>
      </trkpt>
      <trkpt lat="48.90424" lon="2.46528">
        <ele>138.2</ele>
        <time>2015-04-13T19:20:29.384Z</time>
      </trkpt>
      <trkpt lat="48.90423" lon="2.46521">
        <ele>138.4</ele>
        <time>2015-04-13T19:20:30.388Z</time>
      </trkpt>
      <trkpt lat="48.90422" lon="2.46507">
        <ele>138.9</ele>
        <time>2015-04-13T19:20:32.417Z</time>
      </trkpt>
      <trkpt lat="48.90422" lon="2.46501">
        <ele>138.9</ele>
        <time>2015-04-13T19:20:33.365Z</time>
      </trkpt>
      <trkpt lat="48.90419" lon="2.46489">
        <ele>138.9</ele>
        <time>2015-04-13T19:20:35.315Z</time>
      </trkpt>
      <trkpt lat="48.90418" lon="2.46483">
        <ele>139.1</ele>
        <time>2015-04-13T19:20:36.382Z</time>
      </trkpt>
      <trkpt lat="48.90412" lon="2.46474">
        <ele>141.7</ele>
        <time>2015-04-13T19:20:38.403Z</time>
      </trkpt>
      <trkpt lat="48.9041" lon="2.46468">
        <ele>142.6</ele>
        <time>2015-04-13T19:20:39.309Z</time>
      </trkpt>
      <trkpt lat="48.90408" lon="2.46455">
        <ele>143.4</ele>
        <time>2015-04-13T19:20:41.331Z</time>
      </trkpt>
      <trkpt lat="48.90407" lon="2.46448">
        <ele>143.5</ele>
        <time>2015-04-13T19:20:42.348Z</time>
      </trkpt>
      <trkpt lat="48.90406" lon="2.46442">
        <ele>143.7</ele>
        <time>2015-04-13T19:20:43.370Z</time>
      </trkpt>
      <trkpt lat="48.90404" lon="2.46435">
        <ele>143.9</ele>
        <time>2015-04-13T19:20:44.365Z</time>
      </trkpt>
      <trkpt lat="48.90403" lon="2.46428">
        <ele>144</ele>
        <time>2015-04-13T19:20:45.294Z</time>
      </trkpt>
      <trkpt lat="48.90401" lon="2.46421">
        <ele>145</ele>
        <time>2015-04-13T19:20:46.316Z</time>
      </trkpt>
      <trkpt lat="48.90399" lon="2.46415">
        <ele>145.6</ele>
        <time>2015-04-13T19:20:47.326Z</time>
      </trkpt>
      <trkpt lat="48.90397" lon="2.46408">
        <ele>146</ele>
        <time>2015-04-13T19:20:48.346Z</time>
      </trkpt>
      <trkpt lat="48.90395" lon="2.46401">
        <ele>146.7</ele>
        <time>2015-04-13T19:20:49.420Z</time>
      </trkpt>
      <trkpt lat="48.90394" lon="2.46393">
        <ele>147</ele>
        <time>2015-04-13T19:20:50.320Z</time>
      </trkpt>
      <trkpt lat="48.90392" lon="2.46385">
        <ele>147.3</ele>
        <time>2015-04-13T19:20:51.337Z</time>
      </trkpt>
      <trkpt lat="48.9039" lon="2.46377">
        <ele>147.3</ele>
        <time>2015-04-13T19:20:52.347Z</time>
      </trkpt>
      <trkpt lat="48.90389" lon="2.46369">
        <ele>147.2</ele>
        <time>2015-04-13T19:20:53.406Z</time>
      </trkpt>
      <trkpt lat="48.90388" lon="2.4636">
        <ele>147.1</ele>
        <time>2015-04-13T19:20:54.555Z</time>
      </trkpt>
      <trkpt lat="48.90386" lon="2.46352">
        <ele>146.9</ele>
        <time>2015-04-13T19:20:55.344Z</time>
      </trkpt>
      <trkpt lat="48.90385" lon="2.46344">
        <ele>146.9</ele>
        <time>2015-04-13T19:20:56.357Z</time>
      </trkpt>
      <trkpt lat="48.90383" lon="2.46335">
        <ele>146.8</ele>
        <time>2015-04-13T19:20:57.408Z</time>
      </trkpt>
      <trkpt lat="48.90382" lon="2.46327">
        <ele>146.7</ele>
        <time>2015-04-13T19:20:58.415Z</time>
      </trkpt>
      <trkpt lat="48.9038" lon="2.46318">
        <ele>146.5</ele>
        <time>2015-04-13T19:20:59.374Z</time>
      </trkpt>
      <trkpt lat="48.90379" lon="2.46309">
        <ele>146.4</ele>
        <time>2015-04-13T19:21:00.308Z</time>
      </trkpt>
      <trkpt lat="48.90377" lon="2.463">
        <ele>146.2</ele>
        <time>2015-04-13T19:21:01.388Z</time>
      </trkpt>
      <trkpt lat="48.90375" lon="2.46291">
        <ele>146.3</ele>
        <time>2015-04-13T19:21:02.409Z</time>
      </trkpt>
      <trkpt lat="48.90373" lon="2.46282">
        <ele>146.1</ele>
        <time>2015-04-13T19:21:03.353Z</time>
      </trkpt>
      <trkpt lat="48.90371" lon="2.46274">
        <ele>146.5</ele>
        <time>2015-04-13T19:21:04.362Z</time>
      </trkpt>
      <trkpt lat="48.90368" lon="2.46266">
        <ele>147.4</ele>
        <time>2015-04-13T19:21:05.437Z</time>
      </trkpt>
      <trkpt lat="48.90366" lon="2.46258">
        <ele>147.6</ele>
        <time>2015-04-13T19:21:06.335Z</time>
      </trkpt>
      <trkpt lat="48.90364" lon="2.46249">
        <ele>147.5</ele>
        <time>2015-04-13T19:21:07.353Z</time>
      </trkpt>
      <trkpt lat="48.90363" lon="2.4624">
        <ele>147.6</ele>
        <time>2015-04-13T19:21:08.349Z</time>
      </trkpt>
      <trkpt lat="48.90361" lon="2.46232">
        <ele>147.6</ele>
        <time>2015-04-13T19:21:09.378Z</time>
      </trkpt>
      <trkpt lat="48.90359" lon="2.46223">
        <ele>147.7</ele>
        <time>2015-04-13T19:21:10.385Z</time>
      </trkpt>
      <trkpt lat="48.90357" lon="2.46214">
        <ele>147.9</ele>
        <time>2015-04-13T19:21:11.415Z</time>
      </trkpt>
      <trkpt lat="48.90355" lon="2.46205">
        <ele>148.1</ele>
        <time>2015-04-13T19:21:12.356Z</time>
      </trkpt>
      <trkpt lat="48.90354" lon="2.46196">
        <ele>148.3</ele>
        <time>2015-04-13T19:21:13.401Z</time>
      </trkpt>
      <trkpt lat="48.90352" lon="2.46188">
        <ele>148.5</ele>
        <time>2015-04-13T19:21:14.389Z</time>
      </trkpt>
      <trkpt lat="48.90351" lon="2.4618">
        <ele>148.7</ele>
        <time>2015-04-13T19:21:15.341Z</time>
      </trkpt>
      <trkpt lat="48.90349" lon="2.46172">
        <ele>148.7</ele>
        <time>2015-04-13T19:21:16.350Z</time>
      </trkpt>
      <trkpt lat="48.90348" lon="2.46165">
        <ele>148.8</ele>
        <time>2015-04-13T19:21:17.411Z</time>
      </trkpt>
      <trkpt lat="48.90346" lon="2.46156">
        <ele>149</ele>
        <time>2015-04-13T19:21:18.423Z</time>
      </trkpt>
      <trkpt lat="48.90344" lon="2.46147">
        <ele>149.2</ele>
        <time>2015-04-13T19:21:19.439Z</time>
      </trkpt>
      <trkpt lat="48.90342" lon="2.46139">
        <ele>149.4</ele>
        <time>2015-04-13T19:21:20.359Z</time>
      </trkpt>
      <trkpt lat="48.90338" lon="2.4613">
        <ele>150.8</ele>
        <time>2015-04-13T19:21:21.405Z</time>
      </trkpt>
      <trkpt lat="48.90336" lon="2.46121">
        <ele>151.2</ele>
        <time>2015-04-13T19:21:22.414Z</time>
      </trkpt>
      <trkpt lat="48.90335" lon="2.46114">
        <ele>151.3</ele>
        <time>2015-04-13T19:21:23.337Z</time>
      </trkpt>
      <trkpt lat="48.90333" lon="2.46107">
        <ele>151.2</ele>
        <time>2015-04-13T19:21:24.352Z</time>
      </trkpt>
      <trkpt lat="48.90332" lon="2.461">
        <ele>151.3</ele>
        <time>2015-04-13T19:21:25.355Z</time>
      </trkpt>
      <trkpt lat="48.90331" lon="2.46092">
        <ele>151.3</ele>
        <time>2015-04-13T19:21:26.367Z</time>
      </trkpt>
      <trkpt lat="48.9033" lon="2.46085">
        <ele>151.3</ele>
        <time>2015-04-13T19:21:27.375Z</time>
      </trkpt>
      <trkpt lat="48.90328" lon="2.46077">
        <ele>152</ele>
        <time>2015-04-13T19:21:28.389Z</time>
      </trkpt>
      <trkpt lat="48.90327" lon="2.4607">
        <ele>152.4</ele>
        <time>2015-04-13T19:21:29.416Z</time>
      </trkpt>
      <trkpt lat="48.90325" lon="2.46063">
        <ele>152.7</ele>
        <time>2015-04-13T19:21:30.426Z</time>
      </trkpt>
      <trkpt lat="48.90324" lon="2.46056">
        <ele>153.2</ele>
        <time>2015-04-13T19:21:31.425Z</time>
      </trkpt>
      <trkpt lat="48.90322" lon="2.46049">
        <ele>153.4</ele>
        <time>2015-04-13T19:21:32.443Z</time>
      </trkpt>
      <trkpt lat="48.90321" lon="2.46041">
        <ele>153.7</ele>
        <time>2015-04-13T19:21:33.301Z</time>
      </trkpt>
      <trkpt lat="48.90319" lon="2.46034">
        <ele>154</ele>
        <time>2015-04-13T19:21:34.333Z</time>
      </trkpt>
      <trkpt lat="48.90317" lon="2.46026">
        <ele>154.2</ele>
        <time>2015-04-13T19:21:35.333Z</time>
      </trkpt>
      <trkpt lat="48.90316" lon="2.46018">
        <ele>154</ele>
        <time>2015-04-13T19:21:36.335Z</time>
      </trkpt>
      <trkpt lat="48.90314" lon="2.4601">
        <ele>153.9</ele>
        <time>2015-04-13T19:21:37.351Z</time>
      </trkpt>
      <trkpt lat="48.90312" lon="2.46002">
        <ele>153.7</ele>
        <time>2015-04-13T19:21:38.357Z</time>
      </trkpt>
      <trkpt lat="48.90311" lon="2.45994">
        <ele>153.7</ele>
        <time>2015-04-13T19:21:39.373Z</time>
      </trkpt>
      <trkpt lat="48.9031" lon="2.45985">
        <ele>153.8</ele>
        <time>2015-04-13T19:21:40.387Z</time>
      </trkpt>
      <trkpt lat="48.90309" lon="2.45977">
        <ele>153.7</ele>
        <time>2015-04-13T19:21:41.392Z</time>
      </trkpt>
      <trkpt lat="48.90307" lon="2.45969">
        <ele>153.9</ele>
        <time>2015-04-13T19:21:42.412Z</time>
      </trkpt>
      <trkpt lat="48.90305" lon="2.45961">
        <ele>154.3</ele>
        <time>2015-04-13T19:21:43.423Z</time>
      </trkpt>
      <trkpt lat="48.90303" lon="2.45952">
        <ele>154.7</ele>
        <time>2015-04-13T19:21:44.456Z</time>
      </trkpt>
      <trkpt lat="48.90301" lon="2.45944">
        <ele>155.2</ele>
        <time>2015-04-13T19:21:45.338Z</time>
      </trkpt>
      <trkpt lat="48.90299" lon="2.45935">
        <ele>155.7</ele>
        <time>2015-04-13T19:21:46.346Z</time>
      </trkpt>
      <trkpt lat="48.90298" lon="2.45926">
        <ele>156.1</ele>
        <time>2015-04-13T19:21:47.349Z</time>
      </trkpt>
      <trkpt lat="48.90296" lon="2.45918">
        <ele>156.2</ele>
        <time>2015-04-13T19:21:48.361Z</time>
      </trkpt>
      <trkpt lat="48.90294" lon="2.45909">
        <ele>156.5</ele>
        <time>2015-04-13T19:21:49.379Z</time>
      </trkpt>
      <trkpt lat="48.90292" lon="2.45901">
        <ele>156.7</ele>
        <time>2015-04-13T19:21:50.409Z</time>
      </trkpt>
      <trkpt lat="48.90291" lon="2.45892">
        <ele>157.1</ele>
        <time>2015-04-13T19:21:51.340Z</time>
      </trkpt>
      <trkpt lat="48.9029" lon="2.45884">
        <ele>157.3</ele>
        <time>2015-04-13T19:21:52.342Z</time>
      </trkpt>
      <trkpt lat="48.90288" lon="2.45875">
        <ele>157.4</ele>
        <time>2015-04-13T19:21:53.349Z</time>
      </trkpt>
      <trkpt lat="48.90286" lon="2.45866">
        <ele>157.4</ele>
        <time>2015-04-13T19:21:54.351Z</time>
      </trkpt>
      <trkpt lat="48.90285" lon="2.45858">
        <ele>157.3</ele>
        <time>2015-04-13T19:21:55.377Z</time>
      </trkpt>
      <trkpt lat="48.90282" lon="2.4585">
        <ele>157.6</ele>
        <time>2015-04-13T19:21:56.372Z</time>
      </trkpt>
      <trkpt lat="48.90281" lon="2.45842">
        <ele>157.6</ele>
        <time>2015-04-13T19:21:57.389Z</time>
      </trkpt>
      <trkpt lat="48.90279" lon="2.45834">
        <ele>157.7</ele>
        <time>2015-04-13T19:21:58.404Z</time>
      </trkpt>
      <trkpt lat="48.90278" lon="2.45826">
        <ele>157.5</ele>
        <time>2015-04-13T19:21:59.404Z</time>
      </trkpt>
      <trkpt lat="48.90277" lon="2.45818">
        <ele>157.8</ele>
        <time>2015-04-13T19:22:00.306Z</time>
      </trkpt>
      <trkpt lat="48.90275" lon="2.4581">
        <ele>158.2</ele>
        <time>2015-04-13T19:22:01.360Z</time>
      </trkpt>
      <trkpt lat="48.90273" lon="2.45802">
        <ele>159</ele>
        <time>2015-04-13T19:22:02.365Z</time>
      </trkpt>
      <trkpt lat="48.90271" lon="2.45793">
        <ele>159.4</ele>
        <time>2015-04-13T19:22:03.397Z</time>
      </trkpt>
      <trkpt lat="48.9027" lon="2.45785">
        <ele>159.7</ele>
        <time>2015-04-13T19:22:04.415Z</time>
      </trkpt>
      <trkpt lat="48.90268" lon="2.45776">
        <ele>159.9</ele>
        <time>2015-04-13T19:22:05.332Z</time>
      </trkpt>
      <trkpt lat="48.90267" lon="2.45768">
        <ele>160.3</ele>
        <time>2015-04-13T19:22:06.336Z</time>
      </trkpt>
      <trkpt lat="48.90265" lon="2.45759">
        <ele>160.3</ele>
        <time>2015-04-13T19:22:07.359Z</time>
      </trkpt>
      <trkpt lat="48.90263" lon="2.45751">
        <ele>160.9</ele>
        <time>2015-04-13T19:22:08.372Z</time>
      </trkpt>
      <trkpt lat="48.90261" lon="2.45743">
        <ele>161.3</ele>
        <time>2015-04-13T19:22:09.390Z</time>
      </trkpt>
      <trkpt lat="48.90259" lon="2.45735">
        <ele>162</ele>
        <time>2015-04-13T19:22:10.398Z</time>
      </trkpt>
      <trkpt lat="48.90257" lon="2.45727">
        <ele>162.4</ele>
        <time>2015-04-13T19:22:11.423Z</time>
      </trkpt>
      <trkpt lat="48.90255" lon="2.45719">
        <ele>162.8</ele>
        <time>2015-04-13T19:22:12.306Z</time>
      </trkpt>
      <trkpt lat="48.90253" lon="2.45711">
        <ele>163.2</ele>
        <time>2015-04-13T19:22:13.360Z</time>
      </trkpt>
      <trkpt lat="48.90251" lon="2.45703">
        <ele>163.2</ele>
        <time>2015-04-13T19:22:14.362Z</time>
      </trkpt>
      <trkpt lat="48.9025" lon="2.45694">
        <ele>163.2</ele>
        <time>2015-04-13T19:22:15.349Z</time>
      </trkpt>
      <trkpt lat="48.90249" lon="2.45686">
        <ele>163.3</ele>
        <time>2015-04-13T19:22:16.358Z</time>
      </trkpt>
      <trkpt lat="48.90247" lon="2.45678">
        <ele>163.4</ele>
        <time>2015-04-13T19:22:17.389Z</time>
      </trkpt>
      <trkpt lat="48.90246" lon="2.4567">
        <ele>163.4</ele>
        <time>2015-04-13T19:22:18.431Z</time>
      </trkpt>
      <trkpt lat="48.90244" lon="2.45662">
        <ele>163.4</ele>
        <time>2015-04-13T19:22:19.443Z</time>
      </trkpt>
      <trkpt lat="48.90243" lon="2.45653">
        <ele>163.6</ele>
        <time>2015-04-13T19:22:20.337Z</time>
      </trkpt>
      <trkpt lat="48.90241" lon="2.45645">
        <ele>163.9</ele>
        <time>2015-04-13T19:22:21.363Z</time>
      </trkpt>
      <trkpt lat="48.90238" lon="2.45637">
        <ele>164</ele>
        <time>2015-04-13T19:22:22.386Z</time>
      </trkpt>
      <trkpt lat="48.90237" lon="2.45628">
        <ele>164</ele>
        <time>2015-04-13T19:22:23.400Z</time>
      </trkpt>
      <trkpt lat="48.90236" lon="2.4562">
        <ele>163.8</ele>
        <time>2015-04-13T19:22:24.310Z</time>
      </trkpt>
      <trkpt lat="48.90235" lon="2.45611">
        <ele>163.7</ele>
        <time>2015-04-13T19:22:25.357Z</time>
      </trkpt>
      <trkpt lat="48.90233" lon="2.45603">
        <ele>163.4</ele>
        <time>2015-04-13T19:22:26.370Z</time>
      </trkpt>
      <trkpt lat="48.90233" lon="2.45594">
        <ele>163.3</ele>
        <time>2015-04-13T19:22:27.387Z</time>
      </trkpt>
      <trkpt lat="48.90231" lon="2.45586">
        <ele>163.1</ele>
        <time>2015-04-13T19:22:28.398Z</time>
      </trkpt>
      <trkpt lat="48.9023" lon="2.45578">
        <ele>163.3</ele>
        <time>2015-04-13T19:22:29.294Z</time>
      </trkpt>
      <trkpt lat="48.90229" lon="2.45571">
        <ele>163.3</ele>
        <time>2015-04-13T19:22:30.299Z</time>
      </trkpt>
      <trkpt lat="48.90227" lon="2.45564">
        <ele>163.5</ele>
        <time>2015-04-13T19:22:31.350Z</time>
      </trkpt>
      <trkpt lat="48.90226" lon="2.45556">
        <ele>163.5</ele>
        <time>2015-04-13T19:22:32.369Z</time>
      </trkpt>
      <trkpt lat="48.90224" lon="2.45547">
        <ele>163.6</ele>
        <time>2015-04-13T19:22:33.373Z</time>
      </trkpt>
      <trkpt lat="48.90223" lon="2.45539">
        <ele>163.6</ele>
        <time>2015-04-13T19:22:34.382Z</time>
      </trkpt>
      <trkpt lat="48.90222" lon="2.4553">
        <ele>163.5</ele>
        <time>2015-04-13T19:22:35.385Z</time>
      </trkpt>
      <trkpt lat="48.90221" lon="2.45522">
        <ele>163.5</ele>
        <time>2015-04-13T19:22:36.410Z</time>
      </trkpt>
      <trkpt lat="48.9022" lon="2.45514">
        <ele>163.4</ele>
        <time>2015-04-13T19:22:37.417Z</time>
      </trkpt>
      <trkpt lat="48.90218" lon="2.45506">
        <ele>163.1</ele>
        <time>2015-04-13T19:22:38.420Z</time>
      </trkpt>
      <trkpt lat="48.90216" lon="2.45498">
        <ele>163.1</ele>
        <time>2015-04-13T19:22:39.351Z</time>
      </trkpt>
      <trkpt lat="48.90215" lon="2.4549">
        <ele>163.4</ele>
        <time>2015-04-13T19:22:40.343Z</time>
      </trkpt>
      <trkpt lat="48.90213" lon="2.45482">
        <ele>163.6</ele>
        <time>2015-04-13T19:22:41.357Z</time>
      </trkpt>
      <trkpt lat="48.90211" lon="2.45474">
        <ele>163.9</ele>
        <time>2015-04-13T19:22:42.370Z</time>
      </trkpt>
      <trkpt lat="48.90209" lon="2.45467">
        <ele>164.4</ele>
        <time>2015-04-13T19:22:43.377Z</time>
      </trkpt>
      <trkpt lat="48.90208" lon="2.45459">
        <ele>164.3</ele>
        <time>2015-04-13T19:22:44.394Z</time>
      </trkpt>
      <trkpt lat="48.90206" lon="2.45451">
        <ele>164.5</ele>
        <time>2015-04-13T19:22:45.395Z</time>
      </trkpt>
      <trkpt lat="48.90205" lon="2.45444">
        <ele>164.8</ele>
        <time>2015-04-13T19:22:46.411Z</time>
      </trkpt>
      <trkpt lat="48.90203" lon="2.45437">
        <ele>165.1</ele>
        <time>2015-04-13T19:22:47.414Z</time>
      </trkpt>
      <trkpt lat="48.90202" lon="2.45431">
        <ele>165</ele>
        <time>2015-04-13T19:22:48.341Z</time>
      </trkpt>
      <trkpt lat="48.90199" lon="2.45418">
        <ele>165.2</ele>
        <time>2015-04-13T19:22:50.351Z</time>
      </trkpt>
      <trkpt lat="48.90198" lon="2.45411">
        <ele>165.2</ele>
        <time>2015-04-13T19:22:51.384Z</time>
      </trkpt>
      <trkpt lat="48.90197" lon="2.45403">
        <ele>165.2</ele>
        <time>2015-04-13T19:22:52.412Z</time>
      </trkpt>
      <trkpt lat="48.90195" lon="2.45396">
        <ele>164.9</ele>
        <time>2015-04-13T19:22:53.418Z</time>
      </trkpt>
      <trkpt lat="48.90194" lon="2.45389">
        <ele>164.8</ele>
        <time>2015-04-13T19:22:54.321Z</time>
      </trkpt>
      <trkpt lat="48.90193" lon="2.45382">
        <ele>164.8</ele>
        <time>2015-04-13T19:22:55.343Z</time>
      </trkpt>
      <trkpt lat="48.90192" lon="2.45375">
        <ele>164.7</ele>
        <time>2015-04-13T19:22:56.358Z</time>
      </trkpt>
      <trkpt lat="48.9019" lon="2.45367">
        <ele>164.4</ele>
        <time>2015-04-13T19:22:57.361Z</time>
      </trkpt>
      <trkpt lat="48.90188" lon="2.4536">
        <ele>164.2</ele>
        <time>2015-04-13T19:22:58.357Z</time>
      </trkpt>
      <trkpt lat="48.90187" lon="2.45352">
        <ele>164.2</ele>
        <time>2015-04-13T19:22:59.370Z</time>
      </trkpt>
      <trkpt lat="48.90185" lon="2.45345">
        <ele>164.4</ele>
        <time>2015-04-13T19:23:00.371Z</time>
      </trkpt>
      <trkpt lat="48.90183" lon="2.45337">
        <ele>164.7</ele>
        <time>2015-04-13T19:23:01.384Z</time>
      </trkpt>
      <trkpt lat="48.90181" lon="2.4533">
        <ele>165.1</ele>
        <time>2015-04-13T19:23:02.396Z</time>
      </trkpt>
      <trkpt lat="48.9018" lon="2.45323">
        <ele>165.2</ele>
        <time>2015-04-13T19:23:03.402Z</time>
      </trkpt>
      <trkpt lat="48.90178" lon="2.45315">
        <ele>165.4</ele>
        <time>2015-04-13T19:23:04.412Z</time>
      </trkpt>
      <trkpt lat="48.90176" lon="2.45307">
        <ele>165.6</ele>
        <time>2015-04-13T19:23:05.325Z</time>
      </trkpt>
      <trkpt lat="48.90175" lon="2.45299">
        <ele>165.6</ele>
        <time>2015-04-13T19:23:06.325Z</time>
      </trkpt>
      <trkpt lat="48.90174" lon="2.45291">
        <ele>165.3</ele>
        <time>2015-04-13T19:23:07.324Z</time>
      </trkpt>
      <trkpt lat="48.90172" lon="2.45283">
        <ele>165.2</ele>
        <time>2015-04-13T19:23:08.353Z</time>
      </trkpt>
      <trkpt lat="48.90171" lon="2.45275">
        <ele>165.1</ele>
        <time>2015-04-13T19:23:09.356Z</time>
      </trkpt>
      <trkpt lat="48.90169" lon="2.45267">
        <ele>165.1</ele>
        <time>2015-04-13T19:23:10.374Z</time>
      </trkpt>
      <trkpt lat="48.90168" lon="2.45259">
        <ele>165</ele>
        <time>2015-04-13T19:23:11.412Z</time>
      </trkpt>
      <trkpt lat="48.90167" lon="2.45251">
        <ele>165</ele>
        <time>2015-04-13T19:23:12.330Z</time>
      </trkpt>
      <trkpt lat="48.90165" lon="2.45243">
        <ele>165</ele>
        <time>2015-04-13T19:23:13.449Z</time>
      </trkpt>
      <trkpt lat="48.90163" lon="2.45234">
        <ele>165</ele>
        <time>2015-04-13T19:23:14.377Z</time>
      </trkpt>
      <trkpt lat="48.90162" lon="2.45226">
        <ele>165</ele>
        <time>2015-04-13T19:23:15.349Z</time>
      </trkpt>
      <trkpt lat="48.9016" lon="2.45217">
        <ele>165.1</ele>
        <time>2015-04-13T19:23:16.325Z</time>
      </trkpt>
      <trkpt lat="48.90158" lon="2.45209">
        <ele>165.2</ele>
        <time>2015-04-13T19:23:17.321Z</time>
      </trkpt>
      <trkpt lat="48.90157" lon="2.452">
        <ele>165.3</ele>
        <time>2015-04-13T19:23:18.332Z</time>
      </trkpt>
      <trkpt lat="48.90155" lon="2.45191">
        <ele>165.3</ele>
        <time>2015-04-13T19:23:19.342Z</time>
      </trkpt>
      <trkpt lat="48.90153" lon="2.45182">
        <ele>165</ele>
        <time>2015-04-13T19:23:20.355Z</time>
      </trkpt>
      <trkpt lat="48.90152" lon="2.45174">
        <ele>164.8</ele>
        <time>2015-04-13T19:23:21.365Z</time>
      </trkpt>
      <trkpt lat="48.9015" lon="2.45165">
        <ele>164.5</ele>
        <time>2015-04-13T19:23:22.389Z</time>
      </trkpt>
      <trkpt lat="48.90148" lon="2.45158">
        <ele>164.4</ele>
        <time>2015-04-13T19:23:23.389Z</time>
      </trkpt>
      <trkpt lat="48.90147" lon="2.45151">
        <ele>164.1</ele>
        <time>2015-04-13T19:23:24.398Z</time>
      </trkpt>
      <trkpt lat="48.90146" lon="2.45143">
        <ele>163.9</ele>
        <time>2015-04-13T19:23:25.408Z</time>
      </trkpt>
      <trkpt lat="48.90145" lon="2.45136">
        <ele>163.6</ele>
        <time>2015-04-13T19:23:26.423Z</time>
      </trkpt>
      <trkpt lat="48.90143" lon="2.45129">
        <ele>163.5</ele>
        <time>2015-04-13T19:23:27.330Z</time>
      </trkpt>
      <trkpt lat="48.90142" lon="2.45123">
        <ele>163.3</ele>
        <time>2015-04-13T19:23:28.345Z</time>
      </trkpt>
      <trkpt lat="48.90141" lon="2.45116">
        <ele>163.2</ele>
        <time>2015-04-13T19:23:29.352Z</time>
      </trkpt>
      <trkpt lat="48.9014" lon="2.45109">
        <ele>163</ele>
        <time>2015-04-13T19:23:30.364Z</time>
      </trkpt>
      <trkpt lat="48.90138" lon="2.45103">
        <ele>162.9</ele>
        <time>2015-04-13T19:23:31.374Z</time>
      </trkpt>
      <trkpt lat="48.90137" lon="2.45095">
        <ele>163</ele>
        <time>2015-04-13T19:23:32.388Z</time>
      </trkpt>
      <trkpt lat="48.90135" lon="2.45088">
        <ele>162.7</ele>
        <time>2015-04-13T19:23:33.400Z</time>
      </trkpt>
      <trkpt lat="48.90134" lon="2.45081">
        <ele>162.5</ele>
        <time>2015-04-13T19:23:34.409Z</time>
      </trkpt>
      <trkpt lat="48.90132" lon="2.45074">
        <ele>162.6</ele>
        <time>2015-04-13T19:23:35.418Z</time>
      </trkpt>
      <trkpt lat="48.9013" lon="2.45066">
        <ele>162.5</ele>
        <time>2015-04-13T19:23:36.337Z</time>
      </trkpt>
      <trkpt lat="48.90127" lon="2.45058">
        <ele>162.5</ele>
        <time>2015-04-13T19:23:37.355Z</time>
      </trkpt>
      <trkpt lat="48.90126" lon="2.4505">
        <ele>162.6</ele>
        <time>2015-04-13T19:23:38.360Z</time>
      </trkpt>
      <trkpt lat="48.90124" lon="2.45042">
        <ele>162.6</ele>
        <time>2015-04-13T19:23:39.376Z</time>
      </trkpt>
      <trkpt lat="48.90123" lon="2.45034">
        <ele>162.6</ele>
        <time>2015-04-13T19:23:40.417Z</time>
      </trkpt>
      <trkpt lat="48.90121" lon="2.45025">
        <ele>162.7</ele>
        <time>2015-04-13T19:23:41.337Z</time>
      </trkpt>
      <trkpt lat="48.90119" lon="2.45017">
        <ele>162.8</ele>
        <time>2015-04-13T19:23:42.332Z</time>
      </trkpt>
      <trkpt lat="48.90117" lon="2.45008">
        <ele>162.8</ele>
        <time>2015-04-13T19:23:43.357Z</time>
      </trkpt>
      <trkpt lat="48.90116" lon="2.45">
        <ele>162.9</ele>
        <time>2015-04-13T19:23:44.373Z</time>
      </trkpt>
      <trkpt lat="48.90114" lon="2.44991">
        <ele>162.8</ele>
        <time>2015-04-13T19:23:45.384Z</time>
      </trkpt>
      <trkpt lat="48.90113" lon="2.44983">
        <ele>162.8</ele>
        <time>2015-04-13T19:23:46.398Z</time>
      </trkpt>
      <trkpt lat="48.90111" lon="2.44974">
        <ele>162.6</ele>
        <time>2015-04-13T19:23:47.403Z</time>
      </trkpt>
      <trkpt lat="48.90109" lon="2.44965">
        <ele>162.5</ele>
        <time>2015-04-13T19:23:48.327Z</time>
      </trkpt>
      <trkpt lat="48.90107" lon="2.44957">
        <ele>162.5</ele>
        <time>2015-04-13T19:23:49.421Z</time>
      </trkpt>
      <trkpt lat="48.90105" lon="2.44949">
        <ele>162.5</ele>
        <time>2015-04-13T19:23:50.427Z</time>
      </trkpt>
      <trkpt lat="48.90103" lon="2.44941">
        <ele>162.5</ele>
        <time>2015-04-13T19:23:51.338Z</time>
      </trkpt>
      <trkpt lat="48.90101" lon="2.44933">
        <ele>162.6</ele>
        <time>2015-04-13T19:23:52.370Z</time>
      </trkpt>
      <trkpt lat="48.901" lon="2.44925">
        <ele>162.7</ele>
        <time>2015-04-13T19:23:53.382Z</time>
      </trkpt>
      <trkpt lat="48.90098" lon="2.44917">
        <ele>162.8</ele>
        <time>2015-04-13T19:23:54.392Z</time>
      </trkpt>
      <trkpt lat="48.90096" lon="2.44909">
        <ele>163</ele>
        <time>2015-04-13T19:23:55.404Z</time>
      </trkpt>
      <trkpt lat="48.90095" lon="2.44901">
        <ele>163.3</ele>
        <time>2015-04-13T19:23:56.415Z</time>
      </trkpt>
      <trkpt lat="48.90093" lon="2.44893">
        <ele>163.5</ele>
        <time>2015-04-13T19:23:57.321Z</time>
      </trkpt>
      <trkpt lat="48.90092" lon="2.44885">
        <ele>163.7</ele>
        <time>2015-04-13T19:23:58.334Z</time>
      </trkpt>
      <trkpt lat="48.9009" lon="2.44876">
        <ele>163.9</ele>
        <time>2015-04-13T19:23:59.385Z</time>
      </trkpt>
      <trkpt lat="48.90088" lon="2.44868">
        <ele>164</ele>
        <time>2015-04-13T19:24:00.298Z</time>
      </trkpt>
      <trkpt lat="48.90086" lon="2.4486">
        <ele>164.1</ele>
        <time>2015-04-13T19:24:01.335Z</time>
      </trkpt>
      <trkpt lat="48.90084" lon="2.44852">
        <ele>164.3</ele>
        <time>2015-04-13T19:24:02.401Z</time>
      </trkpt>
      <trkpt lat="48.90082" lon="2.44843">
        <ele>164.5</ele>
        <time>2015-04-13T19:24:03.399Z</time>
      </trkpt>
      <trkpt lat="48.90081" lon="2.44835">
        <ele>164.6</ele>
        <time>2015-04-13T19:24:04.319Z</time>
      </trkpt>
      <trkpt lat="48.90079" lon="2.44827">
        <ele>164.5</ele>
        <time>2015-04-13T19:24:05.318Z</time>
      </trkpt>
      <trkpt lat="48.90078" lon="2.44819">
        <ele>164.6</ele>
        <time>2015-04-13T19:24:06.346Z</time>
      </trkpt>
      <trkpt lat="48.90077" lon="2.44811">
        <ele>164.8</ele>
        <time>2015-04-13T19:24:07.358Z</time>
      </trkpt>
      <trkpt lat="48.90075" lon="2.44803">
        <ele>164.8</ele>
        <time>2015-04-13T19:24:08.374Z</time>
      </trkpt>
      <trkpt lat="48.90074" lon="2.44796">
        <ele>164.8</ele>
        <time>2015-04-13T19:24:09.388Z</time>
      </trkpt>
      <trkpt lat="48.90072" lon="2.44788">
        <ele>164.7</ele>
        <time>2015-04-13T19:24:10.400Z</time>
      </trkpt>
      <trkpt lat="48.90071" lon="2.44779">
        <ele>164.7</ele>
        <time>2015-04-13T19:24:11.403Z</time>
      </trkpt>
      <trkpt lat="48.90069" lon="2.44771">
        <ele>165</ele>
        <time>2015-04-13T19:24:12.319Z</time>
      </trkpt>
      <trkpt lat="48.90067" lon="2.44763">
        <ele>164.8</ele>
        <time>2015-04-13T19:24:13.363Z</time>
      </trkpt>
      <trkpt lat="48.90066" lon="2.44754">
        <ele>163.7</ele>
        <time>2015-04-13T19:24:14.358Z</time>
      </trkpt>
      <trkpt lat="48.90065" lon="2.44746">
        <ele>163.8</ele>
        <time>2015-04-13T19:24:15.373Z</time>
      </trkpt>
      <trkpt lat="48.90063" lon="2.44738">
        <ele>163.8</ele>
        <time>2015-04-13T19:24:16.373Z</time>
      </trkpt>
      <trkpt lat="48.90061" lon="2.44731">
        <ele>164.1</ele>
        <time>2015-04-13T19:24:17.386Z</time>
      </trkpt>
      <trkpt lat="48.90059" lon="2.44724">
        <ele>165.2</ele>
        <time>2015-04-13T19:24:18.407Z</time>
      </trkpt>
      <trkpt lat="48.90057" lon="2.44716">
        <ele>165.8</ele>
        <time>2015-04-13T19:24:19.399Z</time>
      </trkpt>
      <trkpt lat="48.90056" lon="2.44708">
        <ele>165.5</ele>
        <time>2015-04-13T19:24:20.417Z</time>
      </trkpt>
      <trkpt lat="48.90055" lon="2.44701">
        <ele>165.2</ele>
        <time>2015-04-13T19:24:21.318Z</time>
      </trkpt>
      <trkpt lat="48.90053" lon="2.44693">
        <ele>164.9</ele>
        <time>2015-04-13T19:24:22.327Z</time>
      </trkpt>
      <trkpt lat="48.90052" lon="2.44686">
        <ele>164.8</ele>
        <time>2015-04-13T19:24:23.332Z</time>
      </trkpt>
      <trkpt lat="48.9005" lon="2.44678">
        <ele>164.6</ele>
        <time>2015-04-13T19:24:24.343Z</time>
      </trkpt>
      <trkpt lat="48.90049" lon="2.4467">
        <ele>164.6</ele>
        <time>2015-04-13T19:24:25.360Z</time>
      </trkpt>
      <trkpt lat="48.90048" lon="2.44662">
        <ele>164.6</ele>
        <time>2015-04-13T19:24:26.395Z</time>
      </trkpt>
      <trkpt lat="48.90046" lon="2.44655">
        <ele>165.5</ele>
        <time>2015-04-13T19:24:27.372Z</time>
      </trkpt>
      <trkpt lat="48.90044" lon="2.44647">
        <ele>165.8</ele>
        <time>2015-04-13T19:24:28.390Z</time>
      </trkpt>
      <trkpt lat="48.90043" lon="2.4464">
        <ele>166</ele>
        <time>2015-04-13T19:24:29.400Z</time>
      </trkpt>
      <trkpt lat="48.90041" lon="2.44633">
        <ele>165.9</ele>
        <time>2015-04-13T19:24:30.417Z</time>
      </trkpt>
      <trkpt lat="48.90039" lon="2.44625">
        <ele>165.6</ele>
        <time>2015-04-13T19:24:31.427Z</time>
      </trkpt>
      <trkpt lat="48.90036" lon="2.44618">
        <ele>165.4</ele>
        <time>2015-04-13T19:24:32.446Z</time>
      </trkpt>
      <trkpt lat="48.90034" lon="2.44611">
        <ele>165.1</ele>
        <time>2015-04-13T19:24:33.344Z</time>
      </trkpt>
      <trkpt lat="48.90032" lon="2.44603">
        <ele>164.8</ele>
        <time>2015-04-13T19:24:34.369Z</time>
      </trkpt>
      <trkpt lat="48.9003" lon="2.44595">
        <ele>164.2</ele>
        <time>2015-04-13T19:24:35.374Z</time>
      </trkpt>
      <trkpt lat="48.90029" lon="2.44587">
        <ele>163.4</ele>
        <time>2015-04-13T19:24:36.384Z</time>
      </trkpt>
      <trkpt lat="48.90027" lon="2.44579">
        <ele>162.7</ele>
        <time>2015-04-13T19:24:37.402Z</time>
      </trkpt>
      <trkpt lat="48.90026" lon="2.4457">
        <ele>162</ele>
        <time>2015-04-13T19:24:38.421Z</time>
      </trkpt>
      <trkpt lat="48.90024" lon="2.44562">
        <ele>161.6</ele>
        <time>2015-04-13T19:24:39.369Z</time>
      </trkpt>
      <trkpt lat="48.90023" lon="2.44554">
        <ele>161.2</ele>
        <time>2015-04-13T19:24:40.432Z</time>
      </trkpt>
      <trkpt lat="48.90021" lon="2.44546">
        <ele>160.7</ele>
        <time>2015-04-13T19:24:41.351Z</time>
      </trkpt>
      <trkpt lat="48.9002" lon="2.44538">
        <ele>160.3</ele>
        <time>2015-04-13T19:24:42.346Z</time>
      </trkpt>
      <trkpt lat="48.90018" lon="2.4453">
        <ele>159.9</ele>
        <time>2015-04-13T19:24:43.395Z</time>
      </trkpt>
      <trkpt lat="48.90017" lon="2.44521">
        <ele>159.3</ele>
        <time>2015-04-13T19:24:44.408Z</time>
      </trkpt>
      <trkpt lat="48.90015" lon="2.44514">
        <ele>158.7</ele>
        <time>2015-04-13T19:24:45.418Z</time>
      </trkpt>
      <trkpt lat="48.90014" lon="2.44506">
        <ele>158.2</ele>
        <time>2015-04-13T19:24:46.417Z</time>
      </trkpt>
      <trkpt lat="48.90012" lon="2.44498">
        <ele>158</ele>
        <time>2015-04-13T19:24:47.314Z</time>
      </trkpt>
      <trkpt lat="48.90011" lon="2.4449">
        <ele>158.2</ele>
        <time>2015-04-13T19:24:48.357Z</time>
      </trkpt>
      <trkpt lat="48.90009" lon="2.44482">
        <ele>157.9</ele>
        <time>2015-04-13T19:24:49.363Z</time>
      </trkpt>
      <trkpt lat="48.90008" lon="2.44474">
        <ele>157.5</ele>
        <time>2015-04-13T19:24:50.375Z</time>
      </trkpt>
      <trkpt lat="48.90006" lon="2.44465">
        <ele>157.2</ele>
        <time>2015-04-13T19:24:51.381Z</time>
      </trkpt>
      <trkpt lat="48.90004" lon="2.44457">
        <ele>156.9</ele>
        <time>2015-04-13T19:24:52.393Z</time>
      </trkpt>
      <trkpt lat="48.90002" lon="2.44449">
        <ele>156.4</ele>
        <time>2015-04-13T19:24:53.403Z</time>
      </trkpt>
      <trkpt lat="48.9" lon="2.44441">
        <ele>156.1</ele>
        <time>2015-04-13T19:24:54.427Z</time>
      </trkpt>
      <trkpt lat="48.89998" lon="2.44433">
        <ele>155.7</ele>
        <time>2015-04-13T19:24:55.362Z</time>
      </trkpt>
      <trkpt lat="48.89997" lon="2.44425">
        <ele>155.7</ele>
        <time>2015-04-13T19:24:56.359Z</time>
      </trkpt>
      <trkpt lat="48.89995" lon="2.44418">
        <ele>155.5</ele>
        <time>2015-04-13T19:24:57.373Z</time>
      </trkpt>
      <trkpt lat="48.89994" lon="2.4441">
        <ele>155.2</ele>
        <time>2015-04-13T19:24:58.395Z</time>
      </trkpt>
      <trkpt lat="48.89992" lon="2.44402">
        <ele>155</ele>
        <time>2015-04-13T19:24:59.400Z</time>
      </trkpt>
      <trkpt lat="48.8999" lon="2.44395">
        <ele>154.7</ele>
        <time>2015-04-13T19:25:00.313Z</time>
      </trkpt>
      <trkpt lat="48.89989" lon="2.44387">
        <ele>154.6</ele>
        <time>2015-04-13T19:25:01.418Z</time>
      </trkpt>
      <trkpt lat="48.89987" lon="2.44379">
        <ele>154.5</ele>
        <time>2015-04-13T19:25:02.427Z</time>
      </trkpt>
      <trkpt lat="48.89985" lon="2.44371">
        <ele>154.5</ele>
        <time>2015-04-13T19:25:03.339Z</time>
      </trkpt>
      <trkpt lat="48.89984" lon="2.44363">
        <ele>154.5</ele>
        <time>2015-04-13T19:25:04.348Z</time>
      </trkpt>
      <trkpt lat="48.89982" lon="2.44354">
        <ele>154.1</ele>
        <time>2015-04-13T19:25:05.352Z</time>
      </trkpt>
      <trkpt lat="48.89981" lon="2.44346">
        <ele>153.8</ele>
        <time>2015-04-13T19:25:06.367Z</time>
      </trkpt>
      <trkpt lat="48.89979" lon="2.44337">
        <ele>153.6</ele>
        <time>2015-04-13T19:25:07.381Z</time>
      </trkpt>
      <trkpt lat="48.89977" lon="2.44329">
        <ele>153.5</ele>
        <time>2015-04-13T19:25:08.384Z</time>
      </trkpt>
      <trkpt lat="48.89976" lon="2.44321">
        <ele>153.1</ele>
        <time>2015-04-13T19:25:09.389Z</time>
      </trkpt>
      <trkpt lat="48.89974" lon="2.44313">
        <ele>152.9</ele>
        <time>2015-04-13T19:25:10.416Z</time>
      </trkpt>
      <trkpt lat="48.89972" lon="2.44305">
        <ele>152.8</ele>
        <time>2015-04-13T19:25:11.337Z</time>
      </trkpt>
      <trkpt lat="48.8997" lon="2.44297">
        <ele>152.7</ele>
        <time>2015-04-13T19:25:12.327Z</time>
      </trkpt>
      <trkpt lat="48.89969" lon="2.44289">
        <ele>152.7</ele>
        <time>2015-04-13T19:25:13.334Z</time>
      </trkpt>
      <trkpt lat="48.89967" lon="2.44281">
        <ele>152.7</ele>
        <time>2015-04-13T19:25:14.362Z</time>
      </trkpt>
      <trkpt lat="48.89966" lon="2.44274">
        <ele>152.8</ele>
        <time>2015-04-13T19:25:15.375Z</time>
      </trkpt>
      <trkpt lat="48.89964" lon="2.44266">
        <ele>152.4</ele>
        <time>2015-04-13T19:25:16.396Z</time>
      </trkpt>
      <trkpt lat="48.89962" lon="2.44258">
        <ele>152.2</ele>
        <time>2015-04-13T19:25:17.414Z</time>
      </trkpt>
      <trkpt lat="48.8996" lon="2.44251">
        <ele>152.2</ele>
        <time>2015-04-13T19:25:18.327Z</time>
      </trkpt>
      <trkpt lat="48.89959" lon="2.44244">
        <ele>152.1</ele>
        <time>2015-04-13T19:25:19.339Z</time>
      </trkpt>
      <trkpt lat="48.89958" lon="2.44237">
        <ele>152.2</ele>
        <time>2015-04-13T19:25:20.382Z</time>
      </trkpt>
      <trkpt lat="48.89957" lon="2.4423">
        <ele>152.1</ele>
        <time>2015-04-13T19:25:21.495Z</time>
      </trkpt>
      <trkpt lat="48.89956" lon="2.44223">
        <ele>151.9</ele>
        <time>2015-04-13T19:25:22.291Z</time>
      </trkpt>
      <trkpt lat="48.89955" lon="2.44217">
        <ele>151.7</ele>
        <time>2015-04-13T19:25:23.323Z</time>
      </trkpt>
      <trkpt lat="48.89953" lon="2.44204">
        <ele>151.4</ele>
        <time>2015-04-13T19:25:25.337Z</time>
      </trkpt>
      <trkpt lat="48.89952" lon="2.44197">
        <ele>151.4</ele>
        <time>2015-04-13T19:25:26.386Z</time>
      </trkpt>
      <trkpt lat="48.89949" lon="2.44184">
        <ele>151.4</ele>
        <time>2015-04-13T19:25:28.330Z</time>
      </trkpt>
      <trkpt lat="48.89947" lon="2.44178">
        <ele>151.4</ele>
        <time>2015-04-13T19:25:29.348Z</time>
      </trkpt>
      <trkpt lat="48.89946" lon="2.44165">
        <ele>151.4</ele>
        <time>2015-04-13T19:25:31.405Z</time>
      </trkpt>
      <trkpt lat="48.89945" lon="2.44158">
        <ele>151.3</ele>
        <time>2015-04-13T19:25:32.414Z</time>
      </trkpt>
      <trkpt lat="48.89942" lon="2.44145">
        <ele>150.8</ele>
        <time>2015-04-13T19:25:34.351Z</time>
      </trkpt>
      <trkpt lat="48.89941" lon="2.44139">
        <ele>150.5</ele>
        <time>2015-04-13T19:25:35.339Z</time>
      </trkpt>
      <trkpt lat="48.89939" lon="2.44126">
        <ele>150.1</ele>
        <time>2015-04-13T19:25:37.410Z</time>
      </trkpt>
      <trkpt lat="48.89938" lon="2.44119">
        <ele>149.8</ele>
        <time>2015-04-13T19:25:38.317Z</time>
      </trkpt>
      <trkpt lat="48.89936" lon="2.44112">
        <ele>149.5</ele>
        <time>2015-04-13T19:25:39.318Z</time>
      </trkpt>
      <trkpt lat="48.89935" lon="2.44105">
        <ele>149</ele>
        <time>2015-04-13T19:25:40.327Z</time>
      </trkpt>
      <trkpt lat="48.89934" lon="2.44098">
        <ele>148.8</ele>
        <time>2015-04-13T19:25:41.345Z</time>
      </trkpt>
      <trkpt lat="48.89933" lon="2.44092">
        <ele>148.4</ele>
        <time>2015-04-13T19:25:42.353Z</time>
      </trkpt>
      <trkpt lat="48.8993" lon="2.44079">
        <ele>147.9</ele>
        <time>2015-04-13T19:25:44.312Z</time>
      </trkpt>
      <trkpt lat="48.89929" lon="2.44072">
        <ele>147.8</ele>
        <time>2015-04-13T19:25:45.324Z</time>
      </trkpt>
      <trkpt lat="48.89927" lon="2.4406">
        <ele>147.6</ele>
        <time>2015-04-13T19:25:47.345Z</time>
      </trkpt>
      <trkpt lat="48.89925" lon="2.44053">
        <ele>147.2</ele>
        <time>2015-04-13T19:25:48.378Z</time>
      </trkpt>
      <trkpt lat="48.89924" lon="2.44046">
        <ele>146.9</ele>
        <time>2015-04-13T19:25:49.405Z</time>
      </trkpt>
      <trkpt lat="48.89922" lon="2.44039">
        <ele>146.6</ele>
        <time>2015-04-13T19:25:50.414Z</time>
      </trkpt>
      <trkpt lat="48.89921" lon="2.44033">
        <ele>147.1</ele>
        <time>2015-04-13T19:25:51.326Z</time>
      </trkpt>
      <trkpt lat="48.89919" lon="2.44026">
        <ele>147.6</ele>
        <time>2015-04-13T19:25:52.337Z</time>
      </trkpt>
      <trkpt lat="48.89915" lon="2.44014">
        <ele>149.2</ele>
        <time>2015-04-13T19:25:54.386Z</time>
      </trkpt>
      <trkpt lat="48.89913" lon="2.44007">
        <ele>149.6</ele>
        <time>2015-04-13T19:25:55.409Z</time>
      </trkpt>
      <trkpt lat="48.89912" lon="2.44">
        <ele>149.2</ele>
        <time>2015-04-13T19:25:56.353Z</time>
      </trkpt>
      <trkpt lat="48.8991" lon="2.43993">
        <ele>149</ele>
        <time>2015-04-13T19:25:57.347Z</time>
      </trkpt>
      <trkpt lat="48.89909" lon="2.43986">
        <ele>148.9</ele>
        <time>2015-04-13T19:25:58.381Z</time>
      </trkpt>
      <trkpt lat="48.89907" lon="2.43978">
        <ele>148.7</ele>
        <time>2015-04-13T19:25:59.397Z</time>
      </trkpt>
      <trkpt lat="48.89906" lon="2.43971">
        <ele>148.5</ele>
        <time>2015-04-13T19:26:00.297Z</time>
      </trkpt>
      <trkpt lat="48.89905" lon="2.43964">
        <ele>148.3</ele>
        <time>2015-04-13T19:26:01.333Z</time>
      </trkpt>
      <trkpt lat="48.89903" lon="2.43957">
        <ele>147.9</ele>
        <time>2015-04-13T19:26:02.370Z</time>
      </trkpt>
      <trkpt lat="48.89902" lon="2.4395">
        <ele>147.8</ele>
        <time>2015-04-13T19:26:03.385Z</time>
      </trkpt>
      <trkpt lat="48.899" lon="2.43942">
        <ele>147.6</ele>
        <time>2015-04-13T19:26:04.326Z</time>
      </trkpt>
      <trkpt lat="48.89899" lon="2.43935">
        <ele>147.4</ele>
        <time>2015-04-13T19:26:05.321Z</time>
      </trkpt>
      <trkpt lat="48.89897" lon="2.43928">
        <ele>147.4</ele>
        <time>2015-04-13T19:26:06.332Z</time>
      </trkpt>
      <trkpt lat="48.89896" lon="2.43921">
        <ele>147.3</ele>
        <time>2015-04-13T19:26:07.360Z</time>
      </trkpt>
      <trkpt lat="48.89895" lon="2.43913">
        <ele>147.3</ele>
        <time>2015-04-13T19:26:08.381Z</time>
      </trkpt>
      <trkpt lat="48.89893" lon="2.43906">
        <ele>147.2</ele>
        <time>2015-04-13T19:26:09.386Z</time>
      </trkpt>
      <trkpt lat="48.89892" lon="2.43899">
        <ele>147.2</ele>
        <time>2015-04-13T19:26:10.400Z</time>
      </trkpt>
      <trkpt lat="48.8989" lon="2.43891">
        <ele>147.2</ele>
        <time>2015-04-13T19:26:11.414Z</time>
      </trkpt>
      <trkpt lat="48.89889" lon="2.43884">
        <ele>147.1</ele>
        <time>2015-04-13T19:26:12.346Z</time>
      </trkpt>
      <trkpt lat="48.89888" lon="2.43876">
        <ele>146.9</ele>
        <time>2015-04-13T19:26:13.368Z</time>
      </trkpt>
      <trkpt lat="48.89886" lon="2.43868">
        <ele>146.6</ele>
        <time>2015-04-13T19:26:14.321Z</time>
      </trkpt>
      <trkpt lat="48.89885" lon="2.4386">
        <ele>146.3</ele>
        <time>2015-04-13T19:26:15.335Z</time>
      </trkpt>
      <trkpt lat="48.89883" lon="2.43852">
        <ele>146.2</ele>
        <time>2015-04-13T19:26:16.334Z</time>
      </trkpt>
      <trkpt lat="48.89882" lon="2.43844">
        <ele>146</ele>
        <time>2015-04-13T19:26:17.347Z</time>
      </trkpt>
      <trkpt lat="48.89881" lon="2.43836">
        <ele>145.8</ele>
        <time>2015-04-13T19:26:18.367Z</time>
      </trkpt>
      <trkpt lat="48.89879" lon="2.43828">
        <ele>145.8</ele>
        <time>2015-04-13T19:26:19.379Z</time>
      </trkpt>
      <trkpt lat="48.89878" lon="2.43821">
        <ele>145.5</ele>
        <time>2015-04-13T19:26:20.392Z</time>
      </trkpt>
      <trkpt lat="48.89876" lon="2.43813">
        <ele>145.2</ele>
        <time>2015-04-13T19:26:21.291Z</time>
      </trkpt>
      <trkpt lat="48.89874" lon="2.43806">
        <ele>144.9</ele>
        <time>2015-04-13T19:26:22.325Z</time>
      </trkpt>
      <trkpt lat="48.89873" lon="2.43798">
        <ele>144.7</ele>
        <time>2015-04-13T19:26:23.329Z</time>
      </trkpt>
      <trkpt lat="48.89871" lon="2.4379">
        <ele>144.4</ele>
        <time>2015-04-13T19:26:24.370Z</time>
      </trkpt>
      <trkpt lat="48.8987" lon="2.43783">
        <ele>144.2</ele>
        <time>2015-04-13T19:26:25.380Z</time>
      </trkpt>
      <trkpt lat="48.89869" lon="2.43776">
        <ele>144.2</ele>
        <time>2015-04-13T19:26:26.325Z</time>
      </trkpt>
      <trkpt lat="48.89868" lon="2.43768">
        <ele>144.1</ele>
        <time>2015-04-13T19:26:27.320Z</time>
      </trkpt>
      <trkpt lat="48.89867" lon="2.43761">
        <ele>143.9</ele>
        <time>2015-04-13T19:26:28.349Z</time>
      </trkpt>
      <trkpt lat="48.89866" lon="2.43755">
        <ele>143.9</ele>
        <time>2015-04-13T19:26:29.351Z</time>
      </trkpt>
      <trkpt lat="48.89863" lon="2.43742">
        <ele>143.5</ele>
        <time>2015-04-13T19:26:31.432Z</time>
      </trkpt>
      <trkpt lat="48.89862" lon="2.43737">
        <ele>143.2</ele>
        <time>2015-04-13T19:26:32.417Z</time>
      </trkpt>
      <trkpt lat="48.8986" lon="2.43728">
        <ele>142.5</ele>
        <time>2015-04-13T19:26:34.349Z</time>
      </trkpt>
      <trkpt lat="48.89859" lon="2.43723">
        <ele>141.7</ele>
        <time>2015-04-13T19:26:35.359Z</time>
      </trkpt>
      <trkpt lat="48.89857" lon="2.43711">
        <ele>141</ele>
        <time>2015-04-13T19:26:38.396Z</time>
      </trkpt>
      <trkpt lat="48.89856" lon="2.43708">
        <ele>140.6</ele>
        <time>2015-04-13T19:26:39.348Z</time>
      </trkpt>
      <trkpt lat="48.89852" lon="2.43696">
        <ele>139.7</ele>
        <time>2015-04-13T19:26:43.351Z</time>
      </trkpt>
      <trkpt lat="48.89851" lon="2.43694">
        <ele>139.3</ele>
        <time>2015-04-13T19:26:44.384Z</time>
      </trkpt>
      <trkpt lat="48.89849" lon="2.43682">
        <ele>138.8</ele>
        <time>2015-04-13T19:26:48.362Z</time>
      </trkpt>
      <trkpt lat="48.89849" lon="2.43679">
        <ele>138.9</ele>
        <time>2015-04-13T19:26:49.389Z</time>
      </trkpt>
      <trkpt lat="48.89848" lon="2.43669">
        <ele>139</ele>
        <time>2015-04-13T19:26:52.382Z</time>
      </trkpt>
      <trkpt lat="48.89847" lon="2.43664">
        <ele>138.8</ele>
        <time>2015-04-13T19:26:53.394Z</time>
      </trkpt>
      <trkpt lat="48.89846" lon="2.43653">
        <ele>138.5</ele>
        <time>2015-04-13T19:26:55.339Z</time>
      </trkpt>
      <trkpt lat="48.89845" lon="2.43648">
        <ele>138.4</ele>
        <time>2015-04-13T19:26:56.408Z</time>
      </trkpt>
      <trkpt lat="48.89843" lon="2.43636">
        <ele>138.1</ele>
        <time>2015-04-13T19:26:58.312Z</time>
      </trkpt>
      <trkpt lat="48.89841" lon="2.43631">
        <ele>138.1</ele>
        <time>2015-04-13T19:26:59.313Z</time>
      </trkpt>
      <trkpt lat="48.89839" lon="2.43621">
        <ele>137.9</ele>
        <time>2015-04-13T19:27:01.403Z</time>
      </trkpt>
      <trkpt lat="48.89838" lon="2.43617">
        <ele>137.8</ele>
        <time>2015-04-13T19:27:02.339Z</time>
      </trkpt>
      <trkpt lat="48.89836" lon="2.43604">
        <ele>137.4</ele>
        <time>2015-04-13T19:27:05.375Z</time>
      </trkpt>
      <trkpt lat="48.89836" lon="2.436">
        <ele>136.8</ele>
        <time>2015-04-13T19:27:06.386Z</time>
      </trkpt>
      <trkpt lat="48.89839" lon="2.43589">
        <ele>135.5</ele>
        <time>2015-04-13T19:27:10.348Z</time>
      </trkpt>
      <trkpt lat="48.89841" lon="2.43586">
        <ele>135.4</ele>
        <time>2015-04-13T19:27:11.359Z</time>
      </trkpt>
      <trkpt lat="48.89844" lon="2.43583">
        <ele>135.3</ele>
        <time>2015-04-13T19:27:13.321Z</time>
      </trkpt>
      <trkpt lat="48.89859" lon="2.43551">
        <ele>138.1</ele>
        <time>2015-04-13T19:27:27.462Z</time>
      </trkpt>
      <trkpt lat="48.89856" lon="2.43542">
        <ele>140</ele>
        <time>2015-04-13T19:27:30.314Z</time>
      </trkpt>
      <trkpt lat="48.89856" lon="2.43533">
        <ele>141.5</ele>
        <time>2015-04-13T19:27:31.349Z</time>
      </trkpt>
      <trkpt lat="48.89855" lon="2.43517">
        <ele>144.4</ele>
        <time>2015-04-13T19:27:32.394Z</time>
      </trkpt>
      <trkpt lat="48.8985" lon="2.435">
        <ele>145.3</ele>
        <time>2015-04-13T19:27:33.441Z</time>
      </trkpt>
      <trkpt lat="48.89845" lon="2.43486">
        <ele>145.7</ele>
        <time>2015-04-13T19:27:34.300Z</time>
      </trkpt>
      <trkpt lat="48.8984" lon="2.43475">
        <ele>148.6</ele>
        <time>2015-04-13T19:27:35.310Z</time>
      </trkpt>
      <trkpt lat="48.89836" lon="2.43465">
        <ele>151.4</ele>
        <time>2015-04-13T19:27:36.320Z</time>
      </trkpt>
      <trkpt lat="48.89831" lon="2.43455">
        <ele>153</ele>
        <time>2015-04-13T19:27:37.344Z</time>
      </trkpt>
      <trkpt lat="48.89824" lon="2.43444">
        <ele>151</ele>
        <time>2015-04-13T19:27:38.346Z</time>
      </trkpt>
      <trkpt lat="48.89819" lon="2.43435">
        <ele>150.2</ele>
        <time>2015-04-13T19:27:39.361Z</time>
      </trkpt>
      <trkpt lat="48.89814" lon="2.43426">
        <ele>149.1</ele>
        <time>2015-04-13T19:27:40.367Z</time>
      </trkpt>
      <trkpt lat="48.89809" lon="2.43419">
        <ele>151.3</ele>
        <time>2015-04-13T19:27:41.388Z</time>
      </trkpt>
      <trkpt lat="48.89807" lon="2.43411">
        <ele>151</ele>
        <time>2015-04-13T19:27:42.335Z</time>
      </trkpt>
      <trkpt lat="48.89804" lon="2.43403">
        <ele>150.6</ele>
        <time>2015-04-13T19:27:43.334Z</time>
      </trkpt>
      <trkpt lat="48.89801" lon="2.43395">
        <ele>149.7</ele>
        <time>2015-04-13T19:27:44.329Z</time>
      </trkpt>
      <trkpt lat="48.89799" lon="2.43387">
        <ele>148.6</ele>
        <time>2015-04-13T19:27:45.345Z</time>
      </trkpt>
      <trkpt lat="48.89797" lon="2.43379">
        <ele>148.7</ele>
        <time>2015-04-13T19:27:46.360Z</time>
      </trkpt>
      <trkpt lat="48.89794" lon="2.4337">
        <ele>148.3</ele>
        <time>2015-04-13T19:27:47.370Z</time>
      </trkpt>
      <trkpt lat="48.89792" lon="2.43362">
        <ele>146.1</ele>
        <time>2015-04-13T19:27:48.388Z</time>
      </trkpt>
      <trkpt lat="48.89789" lon="2.43354">
        <ele>145.1</ele>
        <time>2015-04-13T19:27:49.416Z</time>
      </trkpt>
      <trkpt lat="48.89787" lon="2.43346">
        <ele>143.9</ele>
        <time>2015-04-13T19:27:50.409Z</time>
      </trkpt>
      <trkpt lat="48.89786" lon="2.43339">
        <ele>144.4</ele>
        <time>2015-04-13T19:27:51.320Z</time>
      </trkpt>
      <trkpt lat="48.89784" lon="2.43332">
        <ele>145.1</ele>
        <time>2015-04-13T19:27:52.290Z</time>
      </trkpt>
      <trkpt lat="48.89783" lon="2.43325">
        <ele>145.4</ele>
        <time>2015-04-13T19:27:53.313Z</time>
      </trkpt>
      <trkpt lat="48.89781" lon="2.43318">
        <ele>145.5</ele>
        <time>2015-04-13T19:27:54.315Z</time>
      </trkpt>
      <trkpt lat="48.8978" lon="2.43311">
        <ele>146</ele>
        <time>2015-04-13T19:27:55.348Z</time>
      </trkpt>
      <trkpt lat="48.89779" lon="2.43304">
        <ele>146.1</ele>
        <time>2015-04-13T19:27:56.347Z</time>
      </trkpt>
      <trkpt lat="48.89776" lon="2.43292">
        <ele>145</ele>
        <time>2015-04-13T19:27:58.369Z</time>
      </trkpt>
      <trkpt lat="48.89774" lon="2.43285">
        <ele>144.3</ele>
        <time>2015-04-13T19:27:59.372Z</time>
      </trkpt>
      <trkpt lat="48.89772" lon="2.43273">
        <ele>143.7</ele>
        <time>2015-04-13T19:28:01.411Z</time>
      </trkpt>
      <trkpt lat="48.89771" lon="2.43266">
        <ele>143.2</ele>
        <time>2015-04-13T19:28:02.427Z</time>
      </trkpt>
      <trkpt lat="48.89768" lon="2.43254">
        <ele>142.3</ele>
        <time>2015-04-13T19:28:04.373Z</time>
      </trkpt>
      <trkpt lat="48.89767" lon="2.43248">
        <ele>141.8</ele>
        <time>2015-04-13T19:28:05.451Z</time>
      </trkpt>
      <trkpt lat="48.89765" lon="2.43235">
        <ele>142</ele>
        <time>2015-04-13T19:28:07.366Z</time>
      </trkpt>
      <trkpt lat="48.89763" lon="2.43229">
        <ele>142</ele>
        <time>2015-04-13T19:28:08.417Z</time>
      </trkpt>
      <trkpt lat="48.89761" lon="2.43217">
        <ele>141.2</ele>
        <time>2015-04-13T19:28:10.381Z</time>
      </trkpt>
      <trkpt lat="48.89759" lon="2.43211">
        <ele>141.2</ele>
        <time>2015-04-13T19:28:11.373Z</time>
      </trkpt>
      <trkpt lat="48.89757" lon="2.43198">
        <ele>141.4</ele>
        <time>2015-04-13T19:28:13.401Z</time>
      </trkpt>
      <trkpt lat="48.89756" lon="2.43192">
        <ele>141.2</ele>
        <time>2015-04-13T19:28:14.407Z</time>
      </trkpt>
      <trkpt lat="48.89754" lon="2.43186">
        <ele>140.7</ele>
        <time>2015-04-13T19:28:15.326Z</time>
      </trkpt>
      <trkpt lat="48.89753" lon="2.43179">
        <ele>140.3</ele>
        <time>2015-04-13T19:28:16.323Z</time>
      </trkpt>
      <trkpt lat="48.8975" lon="2.43166">
        <ele>140.6</ele>
        <time>2015-04-13T19:28:18.379Z</time>
      </trkpt>
      <trkpt lat="48.89749" lon="2.4316">
        <ele>141.6</ele>
        <time>2015-04-13T19:28:19.390Z</time>
      </trkpt>
      <trkpt lat="48.89745" lon="2.43148">
        <ele>143.4</ele>
        <time>2015-04-13T19:28:21.308Z</time>
      </trkpt>
      <trkpt lat="48.89744" lon="2.43141">
        <ele>144.4</ele>
        <time>2015-04-13T19:28:22.405Z</time>
      </trkpt>
      <trkpt lat="48.89742" lon="2.43134">
        <ele>145</ele>
        <time>2015-04-13T19:28:23.365Z</time>
      </trkpt>
      <trkpt lat="48.8974" lon="2.43128">
        <ele>146</ele>
        <time>2015-04-13T19:28:24.390Z</time>
      </trkpt>
      <trkpt lat="48.89737" lon="2.43115">
        <ele>147.4</ele>
        <time>2015-04-13T19:28:26.419Z</time>
      </trkpt>
      <trkpt lat="48.89736" lon="2.43109">
        <ele>147.9</ele>
        <time>2015-04-13T19:28:27.347Z</time>
      </trkpt>
      <trkpt lat="48.89732" lon="2.43098">
        <ele>150.2</ele>
        <time>2015-04-13T19:28:29.328Z</time>
      </trkpt>
      <trkpt lat="48.89731" lon="2.43092">
        <ele>150.6</ele>
        <time>2015-04-13T19:28:30.408Z</time>
      </trkpt>
      <trkpt lat="48.89728" lon="2.43079">
        <ele>151.2</ele>
        <time>2015-04-13T19:28:32.455Z</time>
      </trkpt>
      <trkpt lat="48.89727" lon="2.43073">
        <ele>151.8</ele>
        <time>2015-04-13T19:28:33.352Z</time>
      </trkpt>
      <trkpt lat="48.89724" lon="2.43061">
        <ele>152.5</ele>
        <time>2015-04-13T19:28:35.281Z</time>
      </trkpt>
      <trkpt lat="48.89722" lon="2.43055">
        <ele>152.7</ele>
        <time>2015-04-13T19:28:36.310Z</time>
      </trkpt>
      <trkpt lat="48.89719" lon="2.43042">
        <ele>152.8</ele>
        <time>2015-04-13T19:28:38.342Z</time>
      </trkpt>
      <trkpt lat="48.89718" lon="2.43036">
        <ele>152.9</ele>
        <time>2015-04-13T19:28:39.347Z</time>
      </trkpt>
      <trkpt lat="48.89716" lon="2.43023">
        <ele>153.2</ele>
        <time>2015-04-13T19:28:41.443Z</time>
      </trkpt>
      <trkpt lat="48.89714" lon="2.43016">
        <ele>153.1</ele>
        <time>2015-04-13T19:28:42.401Z</time>
      </trkpt>
      <trkpt lat="48.89712" lon="2.43003">
        <ele>153.3</ele>
        <time>2015-04-13T19:28:44.463Z</time>
      </trkpt>
      <trkpt lat="48.89711" lon="2.42996">
        <ele>153.3</ele>
        <time>2015-04-13T19:28:45.354Z</time>
      </trkpt>
      <trkpt lat="48.8971" lon="2.42989">
        <ele>153</ele>
        <time>2015-04-13T19:28:46.400Z</time>
      </trkpt>
      <trkpt lat="48.89709" lon="2.42981">
        <ele>152.8</ele>
        <time>2015-04-13T19:28:47.315Z</time>
      </trkpt>
      <trkpt lat="48.89707" lon="2.42975">
        <ele>152.9</ele>
        <time>2015-04-13T19:28:48.319Z</time>
      </trkpt>
      <trkpt lat="48.89706" lon="2.42967">
        <ele>152.5</ele>
        <time>2015-04-13T19:28:49.333Z</time>
      </trkpt>
      <trkpt lat="48.89705" lon="2.4296">
        <ele>152.1</ele>
        <time>2015-04-13T19:28:50.350Z</time>
      </trkpt>
      <trkpt lat="48.89704" lon="2.42953">
        <ele>152</ele>
        <time>2015-04-13T19:28:51.356Z</time>
      </trkpt>
      <trkpt lat="48.89703" lon="2.42946">
        <ele>151.8</ele>
        <time>2015-04-13T19:28:52.380Z</time>
      </trkpt>
      <trkpt lat="48.89702" lon="2.42939">
        <ele>151.6</ele>
        <time>2015-04-13T19:28:53.386Z</time>
      </trkpt>
      <trkpt lat="48.89699" lon="2.42926">
        <ele>151.1</ele>
        <time>2015-04-13T19:28:55.414Z</time>
      </trkpt>
      <trkpt lat="48.89698" lon="2.42919">
        <ele>150.8</ele>
        <time>2015-04-13T19:28:56.426Z</time>
      </trkpt>
      <trkpt lat="48.89697" lon="2.42912">
        <ele>150.4</ele>
        <time>2015-04-13T19:28:57.318Z</time>
      </trkpt>
      <trkpt lat="48.89695" lon="2.42905">
        <ele>150.3</ele>
        <time>2015-04-13T19:28:58.328Z</time>
      </trkpt>
      <trkpt lat="48.89695" lon="2.42899">
        <ele>150.3</ele>
        <time>2015-04-13T19:28:59.344Z</time>
      </trkpt>
      <trkpt lat="48.89694" lon="2.42892">
        <ele>150.3</ele>
        <time>2015-04-13T19:29:00.390Z</time>
      </trkpt>
      <trkpt lat="48.89693" lon="2.42885">
        <ele>150.3</ele>
        <time>2015-04-13T19:29:01.369Z</time>
      </trkpt>
      <trkpt lat="48.89692" lon="2.42878">
        <ele>150.1</ele>
        <time>2015-04-13T19:29:02.364Z</time>
      </trkpt>
      <trkpt lat="48.8969" lon="2.42871">
        <ele>150.1</ele>
        <time>2015-04-13T19:29:03.374Z</time>
      </trkpt>
      <trkpt lat="48.89689" lon="2.42864">
        <ele>150.2</ele>
        <time>2015-04-13T19:29:04.382Z</time>
      </trkpt>
      <trkpt lat="48.89687" lon="2.42857">
        <ele>150</ele>
        <time>2015-04-13T19:29:05.382Z</time>
      </trkpt>
      <trkpt lat="48.89686" lon="2.4285">
        <ele>149.7</ele>
        <time>2015-04-13T19:29:06.289Z</time>
      </trkpt>
      <trkpt lat="48.89685" lon="2.42843">
        <ele>149.5</ele>
        <time>2015-04-13T19:29:07.359Z</time>
      </trkpt>
      <trkpt lat="48.89683" lon="2.42836">
        <ele>149.2</ele>
        <time>2015-04-13T19:29:08.333Z</time>
      </trkpt>
      <trkpt lat="48.89682" lon="2.42829">
        <ele>148.9</ele>
        <time>2015-04-13T19:29:09.377Z</time>
      </trkpt>
      <trkpt lat="48.89681" lon="2.42822">
        <ele>148.9</ele>
        <time>2015-04-13T19:29:10.384Z</time>
      </trkpt>
      <trkpt lat="48.8968" lon="2.42815">
        <ele>148.8</ele>
        <time>2015-04-13T19:29:11.421Z</time>
      </trkpt>
      <trkpt lat="48.89679" lon="2.42808">
        <ele>148.8</ele>
        <time>2015-04-13T19:29:12.320Z</time>
      </trkpt>
      <trkpt lat="48.89678" lon="2.42801">
        <ele>148.7</ele>
        <time>2015-04-13T19:29:13.316Z</time>
      </trkpt>
      <trkpt lat="48.89678" lon="2.42794">
        <ele>148.7</ele>
        <time>2015-04-13T19:29:14.355Z</time>
      </trkpt>
      <trkpt lat="48.89678" lon="2.42781">
        <ele>148.6</ele>
        <time>2015-04-13T19:29:16.377Z</time>
      </trkpt>
      <trkpt lat="48.89677" lon="2.42774">
        <ele>148.5</ele>
        <time>2015-04-13T19:29:17.382Z</time>
      </trkpt>
      <trkpt lat="48.89677" lon="2.42766">
        <ele>147.9</ele>
        <time>2015-04-13T19:29:18.331Z</time>
      </trkpt>
      <trkpt lat="48.89676" lon="2.4276">
        <ele>147.6</ele>
        <time>2015-04-13T19:29:19.335Z</time>
      </trkpt>
      <trkpt lat="48.89673" lon="2.42748">
        <ele>147.3</ele>
        <time>2015-04-13T19:29:21.368Z</time>
      </trkpt>
      <trkpt lat="48.89671" lon="2.42741">
        <ele>147.2</ele>
        <time>2015-04-13T19:29:22.391Z</time>
      </trkpt>
      <trkpt lat="48.89668" lon="2.42729">
        <ele>147.2</ele>
        <time>2015-04-13T19:29:24.363Z</time>
      </trkpt>
      <trkpt lat="48.89667" lon="2.42723">
        <ele>147.3</ele>
        <time>2015-04-13T19:29:25.389Z</time>
      </trkpt>
      <trkpt lat="48.89665" lon="2.42711">
        <ele>147.4</ele>
        <time>2015-04-13T19:29:27.328Z</time>
      </trkpt>
      <trkpt lat="48.89664" lon="2.42706">
        <ele>148.1</ele>
        <time>2015-04-13T19:29:28.393Z</time>
      </trkpt>
      <trkpt lat="48.89661" lon="2.42695">
        <ele>148.8</ele>
        <time>2015-04-13T19:29:30.330Z</time>
      </trkpt>
      <trkpt lat="48.89661" lon="2.42689">
        <ele>148.8</ele>
        <time>2015-04-13T19:29:31.358Z</time>
      </trkpt>
      <trkpt lat="48.8966" lon="2.42678">
        <ele>148.9</ele>
        <time>2015-04-13T19:29:33.338Z</time>
      </trkpt>
      <trkpt lat="48.89659" lon="2.42672">
        <ele>148.8</ele>
        <time>2015-04-13T19:29:34.345Z</time>
      </trkpt>
      <trkpt lat="48.89658" lon="2.4266">
        <ele>148.8</ele>
        <time>2015-04-13T19:29:36.331Z</time>
      </trkpt>
      <trkpt lat="48.89657" lon="2.42654">
        <ele>149.1</ele>
        <time>2015-04-13T19:29:37.338Z</time>
      </trkpt>
      <trkpt lat="48.89653" lon="2.42644">
        <ele>150.7</ele>
        <time>2015-04-13T19:29:39.374Z</time>
      </trkpt>
      <trkpt lat="48.89651" lon="2.42638">
        <ele>151.7</ele>
        <time>2015-04-13T19:29:40.329Z</time>
      </trkpt>
      <trkpt lat="48.89648" lon="2.42633">
        <ele>153.3</ele>
        <time>2015-04-13T19:29:41.309Z</time>
      </trkpt>
      <trkpt lat="48.89646" lon="2.42626">
        <ele>154.5</ele>
        <time>2015-04-13T19:29:42.337Z</time>
      </trkpt>
      <trkpt lat="48.89645" lon="2.4262">
        <ele>154.6</ele>
        <time>2015-04-13T19:29:43.352Z</time>
      </trkpt>
      <trkpt lat="48.89644" lon="2.42613">
        <ele>154.7</ele>
        <time>2015-04-13T19:29:44.362Z</time>
      </trkpt>
      <trkpt lat="48.89644" lon="2.42601">
        <ele>155.2</ele>
        <time>2015-04-13T19:29:46.421Z</time>
      </trkpt>
      <trkpt lat="48.89644" lon="2.42595">
        <ele>155.5</ele>
        <time>2015-04-13T19:29:47.420Z</time>
      </trkpt>
      <trkpt lat="48.89643" lon="2.42585">
        <ele>155.8</ele>
        <time>2015-04-13T19:29:49.374Z</time>
      </trkpt>
      <trkpt lat="48.89643" lon="2.4258">
        <ele>156</ele>
        <time>2015-04-13T19:29:50.418Z</time>
      </trkpt>
      <trkpt lat="48.89642" lon="2.42571">
        <ele>156.5</ele>
        <time>2015-04-13T19:29:52.327Z</time>
      </trkpt>
      <trkpt lat="48.89644" lon="2.42566">
        <ele>155.7</ele>
        <time>2015-04-13T19:29:53.421Z</time>
      </trkpt>
      <trkpt lat="48.8965" lon="2.42557">
        <ele>154</ele>
        <time>2015-04-13T19:29:55.338Z</time>
      </trkpt>
      <trkpt lat="48.89654" lon="2.42554">
        <ele>152.6</ele>
        <time>2015-04-13T19:29:56.432Z</time>
      </trkpt>
      <trkpt lat="48.89659" lon="2.42548">
        <ele>151.2</ele>
        <time>2015-04-13T19:29:58.328Z</time>
      </trkpt>
      <trkpt lat="48.89662" lon="2.42545">
        <ele>150.7</ele>
        <time>2015-04-13T19:29:59.325Z</time>
      </trkpt>
      <trkpt lat="48.89668" lon="2.42538">
        <ele>148.9</ele>
        <time>2015-04-13T19:30:02.366Z</time>
      </trkpt>
      <trkpt lat="48.89671" lon="2.42537">
        <ele>147.3</ele>
        <time>2015-04-13T19:30:03.365Z</time>
      </trkpt>
      <trkpt lat="48.89672" lon="2.42535">
        <ele>144.9</ele>
        <time>2015-04-13T19:30:05.380Z</time>
      </trkpt>
      <trkpt lat="48.89671" lon="2.42535">
        <ele>143.8</ele>
        <time>2015-04-13T19:30:06.392Z</time>
      </trkpt>
      <trkpt lat="48.89671" lon="2.42535">
        <ele>143</ele>
        <time>2015-04-13T19:30:42.327Z</time>
      </trkpt>
      <trkpt lat="48.89668" lon="2.42533">
        <ele>135.2</ele>
        <time>2015-04-13T19:30:43.351Z</time>
      </trkpt>
      <trkpt lat="48.89671" lon="2.42522">
        <ele>133.4</ele>
        <time>2015-04-13T19:30:46.329Z</time>
      </trkpt>
      <trkpt lat="48.89671" lon="2.42517">
        <ele>132.9</ele>
        <time>2015-04-13T19:30:47.328Z</time>
      </trkpt>
      <trkpt lat="48.89673" lon="2.42506">
        <ele>131.8</ele>
        <time>2015-04-13T19:30:49.390Z</time>
      </trkpt>
      <trkpt lat="48.89674" lon="2.425">
        <ele>131.6</ele>
        <time>2015-04-13T19:30:50.391Z</time>
      </trkpt>
      <trkpt lat="48.89675" lon="2.42486">
        <ele>131.2</ele>
        <time>2015-04-13T19:30:52.315Z</time>
      </trkpt>
      <trkpt lat="48.89676" lon="2.42479">
        <ele>131.1</ele>
        <time>2015-04-13T19:30:53.334Z</time>
      </trkpt>
      <trkpt lat="48.89677" lon="2.42471">
        <ele>130.9</ele>
        <time>2015-04-13T19:30:54.305Z</time>
      </trkpt>
      <trkpt lat="48.89678" lon="2.42463">
        <ele>130.7</ele>
        <time>2015-04-13T19:30:55.332Z</time>
      </trkpt>
      <trkpt lat="48.89678" lon="2.42456">
        <ele>130.5</ele>
        <time>2015-04-13T19:30:56.381Z</time>
      </trkpt>
      <trkpt lat="48.89679" lon="2.42449">
        <ele>130.4</ele>
        <time>2015-04-13T19:30:57.372Z</time>
      </trkpt>
      <trkpt lat="48.89679" lon="2.42441">
        <ele>130.2</ele>
        <time>2015-04-13T19:30:58.378Z</time>
      </trkpt>
      <trkpt lat="48.89678" lon="2.42433">
        <ele>130.1</ele>
        <time>2015-04-13T19:30:59.384Z</time>
      </trkpt>
      <trkpt lat="48.89678" lon="2.42425">
        <ele>130.1</ele>
        <time>2015-04-13T19:31:00.558Z</time>
      </trkpt>
      <trkpt lat="48.89679" lon="2.42417">
        <ele>130</ele>
        <time>2015-04-13T19:31:01.408Z</time>
      </trkpt>
      <trkpt lat="48.8968" lon="2.4241">
        <ele>130</ele>
        <time>2015-04-13T19:31:02.418Z</time>
      </trkpt>
      <trkpt lat="48.8968" lon="2.42403">
        <ele>130</ele>
        <time>2015-04-13T19:31:03.324Z</time>
      </trkpt>
      <trkpt lat="48.8968" lon="2.42395">
        <ele>129.9</ele>
        <time>2015-04-13T19:31:04.328Z</time>
      </trkpt>
      <trkpt lat="48.8968" lon="2.42388">
        <ele>129.8</ele>
        <time>2015-04-13T19:31:05.328Z</time>
      </trkpt>
      <trkpt lat="48.8968" lon="2.42381">
        <ele>129.6</ele>
        <time>2015-04-13T19:31:06.347Z</time>
      </trkpt>
      <trkpt lat="48.89679" lon="2.42374">
        <ele>129.4</ele>
        <time>2015-04-13T19:31:07.344Z</time>
      </trkpt>
      <trkpt lat="48.89679" lon="2.42366">
        <ele>129.3</ele>
        <time>2015-04-13T19:31:08.359Z</time>
      </trkpt>
      <trkpt lat="48.89678" lon="2.42358">
        <ele>129.3</ele>
        <time>2015-04-13T19:31:09.366Z</time>
      </trkpt>
      <trkpt lat="48.89677" lon="2.4235">
        <ele>129.1</ele>
        <time>2015-04-13T19:31:10.374Z</time>
      </trkpt>
      <trkpt lat="48.89676" lon="2.42342">
        <ele>128.9</ele>
        <time>2015-04-13T19:31:11.378Z</time>
      </trkpt>
      <trkpt lat="48.89675" lon="2.42334">
        <ele>128.7</ele>
        <time>2015-04-13T19:31:12.390Z</time>
      </trkpt>
      <trkpt lat="48.89674" lon="2.42327">
        <ele>128.6</ele>
        <time>2015-04-13T19:31:13.394Z</time>
      </trkpt>
      <trkpt lat="48.89674" lon="2.42319">
        <ele>128.4</ele>
        <time>2015-04-13T19:31:14.414Z</time>
      </trkpt>
      <trkpt lat="48.89674" lon="2.42311">
        <ele>128.2</ele>
        <time>2015-04-13T19:31:15.324Z</time>
      </trkpt>
      <trkpt lat="48.89674" lon="2.42304">
        <ele>128</ele>
        <time>2015-04-13T19:31:16.327Z</time>
      </trkpt>
      <trkpt lat="48.89674" lon="2.42296">
        <ele>127.8</ele>
        <time>2015-04-13T19:31:17.338Z</time>
      </trkpt>
      <trkpt lat="48.89674" lon="2.42286">
        <ele>127.5</ele>
        <time>2015-04-13T19:31:18.355Z</time>
      </trkpt>
      <trkpt lat="48.89674" lon="2.42277">
        <ele>127.4</ele>
        <time>2015-04-13T19:31:19.366Z</time>
      </trkpt>
      <trkpt lat="48.89674" lon="2.42269">
        <ele>127.3</ele>
        <time>2015-04-13T19:31:20.383Z</time>
      </trkpt>
      <trkpt lat="48.89674" lon="2.42259">
        <ele>127.2</ele>
        <time>2015-04-13T19:31:21.390Z</time>
      </trkpt>
      <trkpt lat="48.89674" lon="2.4225">
        <ele>127</ele>
        <time>2015-04-13T19:31:22.396Z</time>
      </trkpt>
      <trkpt lat="48.89674" lon="2.4224">
        <ele>127.1</ele>
        <time>2015-04-13T19:31:23.409Z</time>
      </trkpt>
      <trkpt lat="48.89674" lon="2.4223">
        <ele>127.1</ele>
        <time>2015-04-13T19:31:24.320Z</time>
      </trkpt>
      <trkpt lat="48.89673" lon="2.42221">
        <ele>126.9</ele>
        <time>2015-04-13T19:31:25.337Z</time>
      </trkpt>
      <trkpt lat="48.89673" lon="2.42212">
        <ele>126.6</ele>
        <time>2015-04-13T19:31:26.347Z</time>
      </trkpt>
      <trkpt lat="48.89673" lon="2.42203">
        <ele>126.4</ele>
        <time>2015-04-13T19:31:27.342Z</time>
      </trkpt>
      <trkpt lat="48.89672" lon="2.42195">
        <ele>126.3</ele>
        <time>2015-04-13T19:31:28.355Z</time>
      </trkpt>
      <trkpt lat="48.89671" lon="2.42187">
        <ele>126.1</ele>
        <time>2015-04-13T19:31:29.370Z</time>
      </trkpt>
      <trkpt lat="48.8967" lon="2.42179">
        <ele>125.8</ele>
        <time>2015-04-13T19:31:30.398Z</time>
      </trkpt>
      <trkpt lat="48.89669" lon="2.42171">
        <ele>125.8</ele>
        <time>2015-04-13T19:31:31.315Z</time>
      </trkpt>
      <trkpt lat="48.89666" lon="2.42162">
        <ele>127</ele>
        <time>2015-04-13T19:31:32.356Z</time>
      </trkpt>
      <trkpt lat="48.89664" lon="2.42153">
        <ele>128.1</ele>
        <time>2015-04-13T19:31:33.355Z</time>
      </trkpt>
      <trkpt lat="48.89663" lon="2.42146">
        <ele>128.3</ele>
        <time>2015-04-13T19:31:34.366Z</time>
      </trkpt>
      <trkpt lat="48.89663" lon="2.42138">
        <ele>128.5</ele>
        <time>2015-04-13T19:31:35.368Z</time>
      </trkpt>
      <trkpt lat="48.89663" lon="2.42131">
        <ele>128.5</ele>
        <time>2015-04-13T19:31:36.400Z</time>
      </trkpt>
      <trkpt lat="48.89663" lon="2.42123">
        <ele>128.5</ele>
        <time>2015-04-13T19:31:37.397Z</time>
      </trkpt>
      <trkpt lat="48.89663" lon="2.42116">
        <ele>128.6</ele>
        <time>2015-04-13T19:31:38.410Z</time>
      </trkpt>
      <trkpt lat="48.89662" lon="2.42108">
        <ele>128.7</ele>
        <time>2015-04-13T19:31:39.360Z</time>
      </trkpt>
      <trkpt lat="48.89662" lon="2.42101">
        <ele>128.7</ele>
        <time>2015-04-13T19:31:40.369Z</time>
      </trkpt>
      <trkpt lat="48.89662" lon="2.42093">
        <ele>128.8</ele>
        <time>2015-04-13T19:31:41.369Z</time>
      </trkpt>
      <trkpt lat="48.89662" lon="2.42086">
        <ele>128.7</ele>
        <time>2015-04-13T19:31:42.405Z</time>
      </trkpt>
      <trkpt lat="48.89662" lon="2.42078">
        <ele>128.6</ele>
        <time>2015-04-13T19:31:43.410Z</time>
      </trkpt>
      <trkpt lat="48.89662" lon="2.42071">
        <ele>128.9</ele>
        <time>2015-04-13T19:31:44.420Z</time>
      </trkpt>
      <trkpt lat="48.89662" lon="2.42063">
        <ele>128.9</ele>
        <time>2015-04-13T19:31:45.350Z</time>
      </trkpt>
      <trkpt lat="48.89662" lon="2.42055">
        <ele>129.1</ele>
        <time>2015-04-13T19:31:46.319Z</time>
      </trkpt>
      <trkpt lat="48.89661" lon="2.42047">
        <ele>129.3</ele>
        <time>2015-04-13T19:31:47.324Z</time>
      </trkpt>
      <trkpt lat="48.8966" lon="2.4204">
        <ele>129.2</ele>
        <time>2015-04-13T19:31:48.340Z</time>
      </trkpt>
      <trkpt lat="48.8966" lon="2.42031">
        <ele>128.9</ele>
        <time>2015-04-13T19:31:49.369Z</time>
      </trkpt>
      <trkpt lat="48.8966" lon="2.42023">
        <ele>128.8</ele>
        <time>2015-04-13T19:31:50.425Z</time>
      </trkpt>
      <trkpt lat="48.8966" lon="2.42016">
        <ele>128.6</ele>
        <time>2015-04-13T19:31:51.317Z</time>
      </trkpt>
      <trkpt lat="48.89661" lon="2.42008">
        <ele>128.3</ele>
        <time>2015-04-13T19:31:52.342Z</time>
      </trkpt>
      <trkpt lat="48.89661" lon="2.42">
        <ele>128.1</ele>
        <time>2015-04-13T19:31:53.437Z</time>
      </trkpt>
      <trkpt lat="48.89661" lon="2.41991">
        <ele>128</ele>
        <time>2015-04-13T19:31:54.318Z</time>
      </trkpt>
      <trkpt lat="48.89661" lon="2.41984">
        <ele>127.8</ele>
        <time>2015-04-13T19:31:55.323Z</time>
      </trkpt>
      <trkpt lat="48.89661" lon="2.41976">
        <ele>127.7</ele>
        <time>2015-04-13T19:31:56.368Z</time>
      </trkpt>
      <trkpt lat="48.89661" lon="2.41968">
        <ele>127.7</ele>
        <time>2015-04-13T19:31:57.338Z</time>
      </trkpt>
      <trkpt lat="48.8966" lon="2.4196">
        <ele>127.7</ele>
        <time>2015-04-13T19:31:58.374Z</time>
      </trkpt>
      <trkpt lat="48.8966" lon="2.41952">
        <ele>127.5</ele>
        <time>2015-04-13T19:31:59.447Z</time>
      </trkpt>
      <trkpt lat="48.8966" lon="2.41945">
        <ele>127.3</ele>
        <time>2015-04-13T19:32:00.290Z</time>
      </trkpt>
      <trkpt lat="48.8966" lon="2.41937">
        <ele>127</ele>
        <time>2015-04-13T19:32:01.333Z</time>
      </trkpt>
      <trkpt lat="48.8966" lon="2.41929">
        <ele>127</ele>
        <time>2015-04-13T19:32:02.377Z</time>
      </trkpt>
      <trkpt lat="48.8966" lon="2.41921">
        <ele>126.9</ele>
        <time>2015-04-13T19:32:03.318Z</time>
      </trkpt>
      <trkpt lat="48.89658" lon="2.41913">
        <ele>126.4</ele>
        <time>2015-04-13T19:32:04.404Z</time>
      </trkpt>
      <trkpt lat="48.89659" lon="2.41906">
        <ele>126.2</ele>
        <time>2015-04-13T19:32:05.420Z</time>
      </trkpt>
      <trkpt lat="48.89659" lon="2.41898">
        <ele>126</ele>
        <time>2015-04-13T19:32:06.339Z</time>
      </trkpt>
      <trkpt lat="48.89659" lon="2.41891">
        <ele>125.8</ele>
        <time>2015-04-13T19:32:07.361Z</time>
      </trkpt>
      <trkpt lat="48.89658" lon="2.41883">
        <ele>125.6</ele>
        <time>2015-04-13T19:32:08.383Z</time>
      </trkpt>
      <trkpt lat="48.89658" lon="2.41875">
        <ele>125.4</ele>
        <time>2015-04-13T19:32:09.298Z</time>
      </trkpt>
      <trkpt lat="48.89658" lon="2.41868">
        <ele>125.2</ele>
        <time>2015-04-13T19:32:10.315Z</time>
      </trkpt>
      <trkpt lat="48.89658" lon="2.41861">
        <ele>125</ele>
        <time>2015-04-13T19:32:11.336Z</time>
      </trkpt>
      <trkpt lat="48.89658" lon="2.41854">
        <ele>124.8</ele>
        <time>2015-04-13T19:32:12.369Z</time>
      </trkpt>
      <trkpt lat="48.89658" lon="2.41847">
        <ele>124.7</ele>
        <time>2015-04-13T19:32:13.388Z</time>
      </trkpt>
      <trkpt lat="48.89658" lon="2.41836">
        <ele>124.4</ele>
        <time>2015-04-13T19:32:15.301Z</time>
      </trkpt>
      <trkpt lat="48.89658" lon="2.4183">
        <ele>124.3</ele>
        <time>2015-04-13T19:32:16.319Z</time>
      </trkpt>
      <trkpt lat="48.89656" lon="2.41819">
        <ele>123.7</ele>
        <time>2015-04-13T19:32:18.344Z</time>
      </trkpt>
      <trkpt lat="48.89656" lon="2.41814">
        <ele>123.8</ele>
        <time>2015-04-13T19:32:19.339Z</time>
      </trkpt>
      <trkpt lat="48.89654" lon="2.41804">
        <ele>123.7</ele>
        <time>2015-04-13T19:32:21.295Z</time>
      </trkpt>
      <trkpt lat="48.89654" lon="2.418">
        <ele>123.9</ele>
        <time>2015-04-13T19:32:22.294Z</time>
      </trkpt>
      <trkpt lat="48.89654" lon="2.41788">
        <ele>124.7</ele>
        <time>2015-04-13T19:32:25.343Z</time>
      </trkpt>
      <trkpt lat="48.89654" lon="2.41784">
        <ele>125</ele>
        <time>2015-04-13T19:32:26.355Z</time>
      </trkpt>
      <trkpt lat="48.89652" lon="2.41773">
        <ele>125.2</ele>
        <time>2015-04-13T19:32:29.268Z</time>
      </trkpt>
      <trkpt lat="48.89652" lon="2.41771">
        <ele>125.4</ele>
        <time>2015-04-13T19:32:30.291Z</time>
      </trkpt>
      <trkpt lat="48.89651" lon="2.4176">
        <ele>125.6</ele>
        <time>2015-04-13T19:32:33.319Z</time>
      </trkpt>
      <trkpt lat="48.89651" lon="2.41756">
        <ele>125.7</ele>
        <time>2015-04-13T19:32:34.360Z</time>
      </trkpt>
      <trkpt lat="48.89648" lon="2.41746">
        <ele>126.2</ele>
        <time>2015-04-13T19:32:37.310Z</time>
      </trkpt>
      <trkpt lat="48.89648" lon="2.41742">
        <ele>126.5</ele>
        <time>2015-04-13T19:32:38.327Z</time>
      </trkpt>
      <trkpt lat="48.89647" lon="2.41731">
        <ele>127.3</ele>
        <time>2015-04-13T19:32:41.359Z</time>
      </trkpt>
      <trkpt lat="48.89646" lon="2.41728">
        <ele>127.4</ele>
        <time>2015-04-13T19:32:42.385Z</time>
      </trkpt>
      <trkpt lat="48.89646" lon="2.41715">
        <ele>128.4</ele>
        <time>2015-04-13T19:32:45.334Z</time>
      </trkpt>
      <trkpt lat="48.89646" lon="2.4171">
        <ele>128.4</ele>
        <time>2015-04-13T19:32:46.347Z</time>
      </trkpt>
      <trkpt lat="48.89645" lon="2.41699">
        <ele>128.4</ele>
        <time>2015-04-13T19:32:49.443Z</time>
      </trkpt>
      <trkpt lat="48.89644" lon="2.41695">
        <ele>128.6</ele>
        <time>2015-04-13T19:32:50.373Z</time>
      </trkpt>
      <trkpt lat="48.89642" lon="2.41686">
        <ele>129.1</ele>
        <time>2015-04-13T19:32:52.325Z</time>
      </trkpt>
      <trkpt lat="48.89642" lon="2.41681">
        <ele>129.1</ele>
        <time>2015-04-13T19:32:53.369Z</time>
      </trkpt>
      <trkpt lat="48.89641" lon="2.41669">
        <ele>129.6</ele>
        <time>2015-04-13T19:32:55.311Z</time>
      </trkpt>
      <trkpt lat="48.8964" lon="2.41663">
        <ele>129.8</ele>
        <time>2015-04-13T19:32:56.346Z</time>
      </trkpt>
      <trkpt lat="48.89639" lon="2.4165">
        <ele>129.8</ele>
        <time>2015-04-13T19:32:58.289Z</time>
      </trkpt>
      <trkpt lat="48.89638" lon="2.41644">
        <ele>129.8</ele>
        <time>2015-04-13T19:32:59.317Z</time>
      </trkpt>
      <trkpt lat="48.89635" lon="2.41633">
        <ele>131.2</ele>
        <time>2015-04-13T19:33:01.311Z</time>
      </trkpt>
      <trkpt lat="48.89633" lon="2.41627">
        <ele>131.3</ele>
        <time>2015-04-13T19:33:02.353Z</time>
      </trkpt>
      <trkpt lat="48.89632" lon="2.41619">
        <ele>131.1</ele>
        <time>2015-04-13T19:33:03.266Z</time>
      </trkpt>
      <trkpt lat="48.89631" lon="2.41611">
        <ele>130.8</ele>
        <time>2015-04-13T19:33:04.331Z</time>
      </trkpt>
      <trkpt lat="48.8963" lon="2.41603">
        <ele>130.6</ele>
        <time>2015-04-13T19:33:05.350Z</time>
      </trkpt>
      <trkpt lat="48.89629" lon="2.41595">
        <ele>130.5</ele>
        <time>2015-04-13T19:33:06.426Z</time>
      </trkpt>
      <trkpt lat="48.89628" lon="2.41582">
        <ele>130.6</ele>
        <time>2015-04-13T19:33:08.360Z</time>
      </trkpt>
      <trkpt lat="48.89628" lon="2.41576">
        <ele>131.1</ele>
        <time>2015-04-13T19:33:09.421Z</time>
      </trkpt>
      <trkpt lat="48.89627" lon="2.41565">
        <ele>132.2</ele>
        <time>2015-04-13T19:33:11.301Z</time>
      </trkpt>
      <trkpt lat="48.89629" lon="2.41557">
        <ele>131</ele>
        <time>2015-04-13T19:33:12.313Z</time>
      </trkpt>
      <trkpt lat="48.89627" lon="2.41546">
        <ele>131.6</ele>
        <time>2015-04-13T19:33:14.358Z</time>
      </trkpt>
      <trkpt lat="48.89624" lon="2.41542">
        <ele>133.3</ele>
        <time>2015-04-13T19:33:15.382Z</time>
      </trkpt>
      <trkpt lat="48.89621" lon="2.41531">
        <ele>137.4</ele>
        <time>2015-04-13T19:33:22.392Z</time>
      </trkpt>
      <trkpt lat="48.89621" lon="2.41529">
        <ele>138.1</ele>
        <time>2015-04-13T19:33:23.420Z</time>
      </trkpt>
      <trkpt lat="48.89622" lon="2.41517">
        <ele>140.2</ele>
        <time>2015-04-13T19:33:29.396Z</time>
      </trkpt>
      <trkpt lat="48.89623" lon="2.41515">
        <ele>140.3</ele>
        <time>2015-04-13T19:33:30.381Z</time>
      </trkpt>
      <trkpt lat="48.8962" lon="2.41527">
        <ele>142.8</ele>
        <time>2015-04-13T19:33:40.307Z</time>
      </trkpt>
      <trkpt lat="48.89621" lon="2.41529">
        <ele>143.2</ele>
        <time>2015-04-13T19:33:41.348Z</time>
      </trkpt>
      <trkpt lat="48.89621" lon="2.41529">
        <ele>143.4</ele>
        <time>2015-04-13T19:33:42.343Z</time>
      </trkpt>
      <trkpt lat="48.89621" lon="2.41528">
        <ele>143.7</ele>
        <time>2015-04-13T19:33:43.357Z</time>
      </trkpt>
      <trkpt lat="48.89622" lon="2.41526">
        <ele>144</ele>
        <time>2015-04-13T19:34:10.331Z</time>
      </trkpt>
      <trkpt lat="48.89621" lon="2.41518">
        <ele>147.2</ele>
        <time>2015-04-13T19:34:11.332Z</time>
      </trkpt>
      <trkpt lat="48.89622" lon="2.41519">
        <ele>147.7</ele>
        <time>2015-04-13T19:34:12.377Z</time>
      </trkpt>
      <trkpt lat="48.89622" lon="2.41519">
        <ele>147.8</ele>
        <time>2015-04-13T19:34:13.384Z</time>
      </trkpt>
      <trkpt lat="48.89623" lon="2.4152">
        <ele>148.1</ele>
        <time>2015-04-13T19:34:14.404Z</time>
      </trkpt>
      <trkpt lat="48.89623" lon="2.41518">
        <ele>148.7</ele>
        <time>2015-04-13T19:34:17.318Z</time>
      </trkpt>
      <trkpt lat="48.89623" lon="2.41517">
        <ele>148.8</ele>
        <time>2015-04-13T19:34:18.318Z</time>
      </trkpt>
      <trkpt lat="48.89623" lon="2.41516">
        <ele>148.9</ele>
        <time>2015-04-13T19:34:31.381Z</time>
      </trkpt>
      <trkpt lat="48.89625" lon="2.41511">
        <ele>151.7</ele>
        <time>2015-04-13T19:34:32.394Z</time>
      </trkpt>
      <trkpt lat="48.89626" lon="2.41506">
        <ele>150.9</ele>
        <time>2015-04-13T19:34:42.324Z</time>
      </trkpt>
      <trkpt lat="48.89626" lon="2.41507">
        <ele>150.6</ele>
        <time>2015-04-13T19:34:43.387Z</time>
      </trkpt>
      <trkpt lat="48.89626" lon="2.41507">
        <ele>150.3</ele>
        <time>2015-04-13T19:34:52.366Z</time>
      </trkpt>
      <trkpt lat="48.89627" lon="2.41509">
        <ele>148.7</ele>
        <time>2015-04-13T19:34:53.419Z</time>
      </trkpt>
      <trkpt lat="48.89619" lon="2.41511">
        <ele>146.4</ele>
        <time>2015-04-13T19:34:59.386Z</time>
      </trkpt>
      <trkpt lat="48.89618" lon="2.41511">
        <ele>146</ele>
        <time>2015-04-13T19:35:00.332Z</time>
      </trkpt>
      <trkpt lat="48.89609" lon="2.41511">
        <ele>143.7</ele>
        <time>2015-04-13T19:35:04.378Z</time>
      </trkpt>
      <trkpt lat="48.89607" lon="2.41511">
        <ele>142.8</ele>
        <time>2015-04-13T19:35:05.339Z</time>
      </trkpt>
      <trkpt lat="48.896" lon="2.41511">
        <ele>141.1</ele>
        <time>2015-04-13T19:35:08.343Z</time>
      </trkpt>
      <trkpt lat="48.89598" lon="2.41511">
        <ele>140.7</ele>
        <time>2015-04-13T19:35:09.347Z</time>
      </trkpt>
      <trkpt lat="48.89589" lon="2.41509">
        <ele>140.6</ele>
        <time>2015-04-13T19:35:12.322Z</time>
      </trkpt>
      <trkpt lat="48.89587" lon="2.41508">
        <ele>140.7</ele>
        <time>2015-04-13T19:35:13.345Z</time>
      </trkpt>
      <trkpt lat="48.89581" lon="2.41506">
        <ele>140.5</ele>
        <time>2015-04-13T19:35:15.356Z</time>
      </trkpt>
      <trkpt lat="48.89577" lon="2.41507">
        <ele>139.8</ele>
        <time>2015-04-13T19:35:16.368Z</time>
      </trkpt>
      <trkpt lat="48.8957" lon="2.41507">
        <ele>138.5</ele>
        <time>2015-04-13T19:35:18.374Z</time>
      </trkpt>
      <trkpt lat="48.89568" lon="2.41508">
        <ele>138.1</ele>
        <time>2015-04-13T19:35:19.402Z</time>
      </trkpt>
      <trkpt lat="48.8956" lon="2.41506">
        <ele>137.6</ele>
        <time>2015-04-13T19:35:22.393Z</time>
      </trkpt>
      <trkpt lat="48.89557" lon="2.41505">
        <ele>137.4</ele>
        <time>2015-04-13T19:35:23.398Z</time>
      </trkpt>
      <trkpt lat="48.89551" lon="2.41508">
        <ele>136.7</ele>
        <time>2015-04-13T19:35:26.403Z</time>
      </trkpt>
      <trkpt lat="48.89548" lon="2.41508">
        <ele>136.1</ele>
        <time>2015-04-13T19:35:27.305Z</time>
      </trkpt>
      <trkpt lat="48.89542" lon="2.41505">
        <ele>135.6</ele>
        <time>2015-04-13T19:35:30.322Z</time>
      </trkpt>
      <trkpt lat="48.8954" lon="2.41501">
        <ele>135.6</ele>
        <time>2015-04-13T19:35:31.406Z</time>
      </trkpt>
      <trkpt lat="48.89537" lon="2.41491">
        <ele>135.3</ele>
        <time>2015-04-13T19:35:33.341Z</time>
      </trkpt>
      <trkpt lat="48.89536" lon="2.41486">
        <ele>135.2</ele>
        <time>2015-04-13T19:35:34.359Z</time>
      </trkpt>
      <trkpt lat="48.89535" lon="2.41474">
        <ele>135.1</ele>
        <time>2015-04-13T19:35:36.402Z</time>
      </trkpt>
      <trkpt lat="48.89534" lon="2.41467">
        <ele>134.9</ele>
        <time>2015-04-13T19:35:37.403Z</time>
      </trkpt>
      <trkpt lat="48.89533" lon="2.4146">
        <ele>134.7</ele>
        <time>2015-04-13T19:35:38.415Z</time>
      </trkpt>
      <trkpt lat="48.89532" lon="2.41454">
        <ele>134.9</ele>
        <time>2015-04-13T19:35:39.327Z</time>
      </trkpt>
      <trkpt lat="48.89531" lon="2.41446">
        <ele>135</ele>
        <time>2015-04-13T19:35:40.452Z</time>
      </trkpt>
      <trkpt lat="48.8953" lon="2.4144">
        <ele>135</ele>
        <time>2015-04-13T19:35:41.330Z</time>
      </trkpt>
      <trkpt lat="48.89527" lon="2.41427">
        <ele>134.9</ele>
        <time>2015-04-13T19:35:43.364Z</time>
      </trkpt>
      <trkpt lat="48.89526" lon="2.41421">
        <ele>135</ele>
        <time>2015-04-13T19:35:44.370Z</time>
      </trkpt>
      <trkpt lat="48.89524" lon="2.41409">
        <ele>135.1</ele>
        <time>2015-04-13T19:35:46.396Z</time>
      </trkpt>
      <trkpt lat="48.89524" lon="2.41402">
        <ele>135</ele>
        <time>2015-04-13T19:35:47.408Z</time>
      </trkpt>
      <trkpt lat="48.89523" lon="2.41395">
        <ele>135</ele>
        <time>2015-04-13T19:35:48.323Z</time>
      </trkpt>
      <trkpt lat="48.89522" lon="2.41388">
        <ele>135</ele>
        <time>2015-04-13T19:35:49.306Z</time>
      </trkpt>
      <trkpt lat="48.89521" lon="2.41375">
        <ele>135</ele>
        <time>2015-04-13T19:35:51.363Z</time>
      </trkpt>
      <trkpt lat="48.89519" lon="2.41368">
        <ele>135.5</ele>
        <time>2015-04-13T19:35:52.362Z</time>
      </trkpt>
      <trkpt lat="48.89518" lon="2.41361">
        <ele>136</ele>
        <time>2015-04-13T19:35:53.286Z</time>
      </trkpt>
      <trkpt lat="48.89517" lon="2.41354">
        <ele>136.5</ele>
        <time>2015-04-13T19:35:54.314Z</time>
      </trkpt>
      <trkpt lat="48.89516" lon="2.41347">
        <ele>137</ele>
        <time>2015-04-13T19:35:55.731Z</time>
      </trkpt>
      <trkpt lat="48.89513" lon="2.41339">
        <ele>137.9</ele>
        <time>2015-04-13T19:35:56.367Z</time>
      </trkpt>
      <trkpt lat="48.89513" lon="2.41332">
        <ele>138.2</ele>
        <time>2015-04-13T19:35:57.397Z</time>
      </trkpt>
      <trkpt lat="48.89513" lon="2.41324">
        <ele>138.4</ele>
        <time>2015-04-13T19:35:58.393Z</time>
      </trkpt>
      <trkpt lat="48.89513" lon="2.41316">
        <ele>138.5</ele>
        <time>2015-04-13T19:35:59.318Z</time>
      </trkpt>
      <trkpt lat="48.89515" lon="2.41307">
        <ele>137.6</ele>
        <time>2015-04-13T19:36:00.332Z</time>
      </trkpt>
      <trkpt lat="48.89515" lon="2.41297">
        <ele>136.4</ele>
        <time>2015-04-13T19:36:01.344Z</time>
      </trkpt>
      <trkpt lat="48.89515" lon="2.41288">
        <ele>135.2</ele>
        <time>2015-04-13T19:36:02.360Z</time>
      </trkpt>
      <trkpt lat="48.89516" lon="2.41279">
        <ele>134.5</ele>
        <time>2015-04-13T19:36:03.378Z</time>
      </trkpt>
      <trkpt lat="48.89516" lon="2.41269">
        <ele>133.7</ele>
        <time>2015-04-13T19:36:04.381Z</time>
      </trkpt>
      <trkpt lat="48.89515" lon="2.41261">
        <ele>133.6</ele>
        <time>2015-04-13T19:36:05.409Z</time>
      </trkpt>
      <trkpt lat="48.89515" lon="2.41253">
        <ele>133.6</ele>
        <time>2015-04-13T19:36:06.317Z</time>
      </trkpt>
      <trkpt lat="48.89514" lon="2.41244">
        <ele>133.6</ele>
        <time>2015-04-13T19:36:07.319Z</time>
      </trkpt>
      <trkpt lat="48.89514" lon="2.41236">
        <ele>133.4</ele>
        <time>2015-04-13T19:36:08.351Z</time>
      </trkpt>
      <trkpt lat="48.89514" lon="2.41228">
        <ele>133.1</ele>
        <time>2015-04-13T19:36:09.339Z</time>
      </trkpt>
      <trkpt lat="48.89514" lon="2.4122">
        <ele>132.8</ele>
        <time>2015-04-13T19:36:10.349Z</time>
      </trkpt>
      <trkpt lat="48.89515" lon="2.41212">
        <ele>132.3</ele>
        <time>2015-04-13T19:36:11.363Z</time>
      </trkpt>
      <trkpt lat="48.89515" lon="2.41204">
        <ele>132.1</ele>
        <time>2015-04-13T19:36:12.372Z</time>
      </trkpt>
      <trkpt lat="48.89514" lon="2.41195">
        <ele>131.5</ele>
        <time>2015-04-13T19:36:13.384Z</time>
      </trkpt>
      <trkpt lat="48.89515" lon="2.41187">
        <ele>131.4</ele>
        <time>2015-04-13T19:36:14.380Z</time>
      </trkpt>
      <trkpt lat="48.89516" lon="2.4118">
        <ele>131.4</ele>
        <time>2015-04-13T19:36:15.387Z</time>
      </trkpt>
      <trkpt lat="48.89516" lon="2.41172">
        <ele>131.5</ele>
        <time>2015-04-13T19:36:16.397Z</time>
      </trkpt>
      <trkpt lat="48.89518" lon="2.41164">
        <ele>131.5</ele>
        <time>2015-04-13T19:36:17.302Z</time>
      </trkpt>
      <trkpt lat="48.89519" lon="2.41156">
        <ele>131.4</ele>
        <time>2015-04-13T19:36:18.312Z</time>
      </trkpt>
      <trkpt lat="48.8952" lon="2.41148">
        <ele>131.4</ele>
        <time>2015-04-13T19:36:19.325Z</time>
      </trkpt>
      <trkpt lat="48.89521" lon="2.4114">
        <ele>131.3</ele>
        <time>2015-04-13T19:36:20.330Z</time>
      </trkpt>
      <trkpt lat="48.89522" lon="2.41132">
        <ele>131.2</ele>
        <time>2015-04-13T19:36:21.287Z</time>
      </trkpt>
      <trkpt lat="48.89522" lon="2.41124">
        <ele>131.3</ele>
        <time>2015-04-13T19:36:22.327Z</time>
      </trkpt>
      <trkpt lat="48.89523" lon="2.41116">
        <ele>131.4</ele>
        <time>2015-04-13T19:36:23.315Z</time>
      </trkpt>
      <trkpt lat="48.89523" lon="2.41109">
        <ele>131.4</ele>
        <time>2015-04-13T19:36:24.351Z</time>
      </trkpt>
      <trkpt lat="48.89524" lon="2.41102">
        <ele>131.5</ele>
        <time>2015-04-13T19:36:25.376Z</time>
      </trkpt>
      <trkpt lat="48.89524" lon="2.41095">
        <ele>131.5</ele>
        <time>2015-04-13T19:36:26.378Z</time>
      </trkpt>
      <trkpt lat="48.89525" lon="2.41086">
        <ele>131.1</ele>
        <time>2015-04-13T19:36:27.426Z</time>
      </trkpt>
      <trkpt lat="48.89525" lon="2.41079">
        <ele>131</ele>
        <time>2015-04-13T19:36:28.313Z</time>
      </trkpt>
      <trkpt lat="48.89526" lon="2.41072">
        <ele>131.1</ele>
        <time>2015-04-13T19:36:29.321Z</time>
      </trkpt>
      <trkpt lat="48.89526" lon="2.41065">
        <ele>131.1</ele>
        <time>2015-04-13T19:36:30.330Z</time>
      </trkpt>
      <trkpt lat="48.89526" lon="2.41057">
        <ele>131</ele>
        <time>2015-04-13T19:36:31.350Z</time>
      </trkpt>
      <trkpt lat="48.89526" lon="2.4105">
        <ele>130.9</ele>
        <time>2015-04-13T19:36:32.371Z</time>
      </trkpt>
      <trkpt lat="48.89526" lon="2.41042">
        <ele>130.8</ele>
        <time>2015-04-13T19:36:33.395Z</time>
      </trkpt>
      <trkpt lat="48.89526" lon="2.41035">
        <ele>130.8</ele>
        <time>2015-04-13T19:36:34.304Z</time>
      </trkpt>
      <trkpt lat="48.89525" lon="2.41027">
        <ele>130.5</ele>
        <time>2015-04-13T19:36:35.331Z</time>
      </trkpt>
      <trkpt lat="48.89524" lon="2.41021">
        <ele>130.5</ele>
        <time>2015-04-13T19:36:36.359Z</time>
      </trkpt>
      <trkpt lat="48.89524" lon="2.41008">
        <ele>130.5</ele>
        <time>2015-04-13T19:36:38.379Z</time>
      </trkpt>
      <trkpt lat="48.89524" lon="2.41003">
        <ele>130.5</ele>
        <time>2015-04-13T19:36:39.395Z</time>
      </trkpt>
      <trkpt lat="48.89524" lon="2.40992">
        <ele>131</ele>
        <time>2015-04-13T19:36:41.300Z</time>
      </trkpt>
      <trkpt lat="48.89524" lon="2.40987">
        <ele>130.7</ele>
        <time>2015-04-13T19:36:42.313Z</time>
      </trkpt>
      <trkpt lat="48.89524" lon="2.40977">
        <ele>130.5</ele>
        <time>2015-04-13T19:36:44.393Z</time>
      </trkpt>
      <trkpt lat="48.89523" lon="2.40973">
        <ele>130.5</ele>
        <time>2015-04-13T19:36:45.328Z</time>
      </trkpt>
      <trkpt lat="48.89521" lon="2.4096">
        <ele>130.7</ele>
        <time>2015-04-13T19:36:48.382Z</time>
      </trkpt>
      <trkpt lat="48.89521" lon="2.40954">
        <ele>130.8</ele>
        <time>2015-04-13T19:36:49.329Z</time>
      </trkpt>
      <trkpt lat="48.89521" lon="2.40943">
        <ele>130.9</ele>
        <time>2015-04-13T19:36:51.296Z</time>
      </trkpt>
      <trkpt lat="48.89522" lon="2.40938">
        <ele>130.9</ele>
        <time>2015-04-13T19:36:52.298Z</time>
      </trkpt>
      <trkpt lat="48.89522" lon="2.40928">
        <ele>130.7</ele>
        <time>2015-04-13T19:36:54.336Z</time>
      </trkpt>
      <trkpt lat="48.89522" lon="2.40923">
        <ele>130.7</ele>
        <time>2015-04-13T19:36:55.371Z</time>
      </trkpt>
      <trkpt lat="48.89523" lon="2.40913">
        <ele>130.6</ele>
        <time>2015-04-13T19:36:57.289Z</time>
      </trkpt>
      <trkpt lat="48.89523" lon="2.40908">
        <ele>130.5</ele>
        <time>2015-04-13T19:36:58.311Z</time>
      </trkpt>
      <trkpt lat="48.89524" lon="2.40895">
        <ele>130.2</ele>
        <time>2015-04-13T19:37:01.333Z</time>
      </trkpt>
      <trkpt lat="48.89525" lon="2.4089">
        <ele>130.2</ele>
        <time>2015-04-13T19:37:02.342Z</time>
      </trkpt>
      <trkpt lat="48.89527" lon="2.40879">
        <ele>130.2</ele>
        <time>2015-04-13T19:37:04.362Z</time>
      </trkpt>
      <trkpt lat="48.89524" lon="2.40873">
        <ele>130.6</ele>
        <time>2015-04-13T19:37:05.377Z</time>
      </trkpt>
      <trkpt lat="48.89524" lon="2.40861">
        <ele>130.3</ele>
        <time>2015-04-13T19:37:07.306Z</time>
      </trkpt>
      <trkpt lat="48.89524" lon="2.40855">
        <ele>130.3</ele>
        <time>2015-04-13T19:37:08.309Z</time>
      </trkpt>
      <trkpt lat="48.89523" lon="2.40843">
        <ele>130.3</ele>
        <time>2015-04-13T19:37:10.329Z</time>
      </trkpt>
      <trkpt lat="48.89524" lon="2.40837">
        <ele>130.3</ele>
        <time>2015-04-13T19:37:11.332Z</time>
      </trkpt>
      <trkpt lat="48.89526" lon="2.40825">
        <ele>129.9</ele>
        <time>2015-04-13T19:37:13.354Z</time>
      </trkpt>
      <trkpt lat="48.89527" lon="2.40819">
        <ele>129.9</ele>
        <time>2015-04-13T19:37:14.355Z</time>
      </trkpt>
      <trkpt lat="48.89528" lon="2.40808">
        <ele>129.8</ele>
        <time>2015-04-13T19:37:16.392Z</time>
      </trkpt>
      <trkpt lat="48.89529" lon="2.40803">
        <ele>129.4</ele>
        <time>2015-04-13T19:37:17.383Z</time>
      </trkpt>
      <trkpt lat="48.89532" lon="2.40791">
        <ele>129</ele>
        <time>2015-04-13T19:37:19.486Z</time>
      </trkpt>
      <trkpt lat="48.89533" lon="2.40785">
        <ele>128.8</ele>
        <time>2015-04-13T19:37:20.371Z</time>
      </trkpt>
      <trkpt lat="48.89536" lon="2.40775">
        <ele>128.6</ele>
        <time>2015-04-13T19:37:22.374Z</time>
      </trkpt>
      <trkpt lat="48.89538" lon="2.40771">
        <ele>128.5</ele>
        <time>2015-04-13T19:37:23.384Z</time>
      </trkpt>
      <trkpt lat="48.8954" lon="2.4076">
        <ele>128.3</ele>
        <time>2015-04-13T19:37:26.351Z</time>
      </trkpt>
      <trkpt lat="48.8954" lon="2.40756">
        <ele>128.3</ele>
        <time>2015-04-13T19:37:27.361Z</time>
      </trkpt>
      <trkpt lat="48.89541" lon="2.40744">
        <ele>126.9</ele>
        <time>2015-04-13T19:37:30.305Z</time>
      </trkpt>
      <trkpt lat="48.89543" lon="2.40739">
        <ele>126.4</ele>
        <time>2015-04-13T19:37:31.342Z</time>
      </trkpt>
      <trkpt lat="48.89547" lon="2.4073">
        <ele>125.7</ele>
        <time>2015-04-13T19:37:33.305Z</time>
      </trkpt>
      <trkpt lat="48.89549" lon="2.40727">
        <ele>125.6</ele>
        <time>2015-04-13T19:37:34.327Z</time>
      </trkpt>
      <trkpt lat="48.89549" lon="2.40713">
        <ele>124.3</ele>
        <time>2015-04-13T19:37:40.320Z</time>
      </trkpt>
      <trkpt lat="48.89548" lon="2.40712">
        <ele>122.9</ele>
        <time>2015-04-13T19:37:41.334Z</time>
      </trkpt>
      <trkpt lat="48.89548" lon="2.40712">
        <ele>122.5</ele>
        <time>2015-04-13T19:37:42.363Z</time>
      </trkpt>
      <trkpt lat="48.89548" lon="2.40711">
        <ele>122.3</ele>
        <time>2015-04-13T19:38:12.319Z</time>
      </trkpt>
      <trkpt lat="48.89546" lon="2.40706">
        <ele>119.8</ele>
        <time>2015-04-13T19:38:13.338Z</time>
      </trkpt>
      <trkpt lat="48.89547" lon="2.40694">
        <ele>120.1</ele>
        <time>2015-04-13T19:38:18.278Z</time>
      </trkpt>
      <trkpt lat="48.89547" lon="2.4069">
        <ele>120.1</ele>
        <time>2015-04-13T19:38:19.321Z</time>
      </trkpt>
      <trkpt lat="48.89548" lon="2.4068">
        <ele>119.8</ele>
        <time>2015-04-13T19:38:21.328Z</time>
      </trkpt>
      <trkpt lat="48.89549" lon="2.40675">
        <ele>119.7</ele>
        <time>2015-04-13T19:38:22.352Z</time>
      </trkpt>
      <trkpt lat="48.89551" lon="2.40664">
        <ele>119.5</ele>
        <time>2015-04-13T19:38:25.318Z</time>
      </trkpt>
      <trkpt lat="48.89551" lon="2.40661">
        <ele>119.4</ele>
        <time>2015-04-13T19:38:26.347Z</time>
      </trkpt>
      <trkpt lat="48.89554" lon="2.4065">
        <ele>119</ele>
        <time>2015-04-13T19:38:30.375Z</time>
      </trkpt>
      <trkpt lat="48.89556" lon="2.40646">
        <ele>119.1</ele>
        <time>2015-04-13T19:38:31.295Z</time>
      </trkpt>
      <trkpt lat="48.89557" lon="2.40636">
        <ele>119.4</ele>
        <time>2015-04-13T19:38:34.299Z</time>
      </trkpt>
      <trkpt lat="48.89557" lon="2.40633">
        <ele>119.4</ele>
        <time>2015-04-13T19:38:35.304Z</time>
      </trkpt>
      <trkpt lat="48.89551" lon="2.40625">
        <ele>118.8</ele>
        <time>2015-04-13T19:38:39.365Z</time>
      </trkpt>
      <trkpt lat="48.8955" lon="2.40624">
        <ele>118.6</ele>
        <time>2015-04-13T19:38:40.377Z</time>
      </trkpt>
      <trkpt lat="48.89543" lon="2.40617">
        <ele>118.6</ele>
        <time>2015-04-13T19:38:46.117Z</time>
      </trkpt>
      <trkpt lat="48.89541" lon="2.40616">
        <ele>118.8</ele>
        <time>2015-04-13T19:38:46.346Z</time>
      </trkpt>
      <trkpt lat="48.8954" lon="2.40606">
        <ele>118.9</ele>
        <time>2015-04-13T19:38:49.325Z</time>
      </trkpt>
      <trkpt lat="48.8954" lon="2.40601">
        <ele>118.9</ele>
        <time>2015-04-13T19:38:50.412Z</time>
      </trkpt>
      <trkpt lat="48.89543" lon="2.40589">
        <ele>119.3</ele>
        <time>2015-04-13T19:38:53.331Z</time>
      </trkpt>
      <trkpt lat="48.89543" lon="2.40584">
        <ele>119.7</ele>
        <time>2015-04-13T19:38:54.353Z</time>
      </trkpt>
      <trkpt lat="48.89544" lon="2.40572">
        <ele>119.6</ele>
        <time>2015-04-13T19:38:56.377Z</time>
      </trkpt>
      <trkpt lat="48.89544" lon="2.40565">
        <ele>119.5</ele>
        <time>2015-04-13T19:38:57.391Z</time>
      </trkpt>
      <trkpt lat="48.89545" lon="2.40558">
        <ele>119.6</ele>
        <time>2015-04-13T19:38:58.300Z</time>
      </trkpt>
      <trkpt lat="48.89546" lon="2.40551">
        <ele>119.6</ele>
        <time>2015-04-13T19:38:59.305Z</time>
      </trkpt>
      <trkpt lat="48.89546" lon="2.40544">
        <ele>119.4</ele>
        <time>2015-04-13T19:39:00.342Z</time>
      </trkpt>
      <trkpt lat="48.89547" lon="2.40537">
        <ele>119.3</ele>
        <time>2015-04-13T19:39:01.354Z</time>
      </trkpt>
      <trkpt lat="48.89548" lon="2.40527">
        <ele>117.5</ele>
        <time>2015-04-13T19:39:02.331Z</time>
      </trkpt>
      <trkpt lat="48.8955" lon="2.4052">
        <ele>117.2</ele>
        <time>2015-04-13T19:39:03.358Z</time>
      </trkpt>
      <trkpt lat="48.8955" lon="2.40511">
        <ele>116</ele>
        <time>2015-04-13T19:39:04.365Z</time>
      </trkpt>
      <trkpt lat="48.89551" lon="2.40504">
        <ele>116</ele>
        <time>2015-04-13T19:39:05.382Z</time>
      </trkpt>
      <trkpt lat="48.89552" lon="2.40498">
        <ele>115.9</ele>
        <time>2015-04-13T19:39:06.297Z</time>
      </trkpt>
      <trkpt lat="48.89554" lon="2.40491">
        <ele>115.8</ele>
        <time>2015-04-13T19:39:07.325Z</time>
      </trkpt>
      <trkpt lat="48.89556" lon="2.40478">
        <ele>115.3</ele>
        <time>2015-04-13T19:39:09.333Z</time>
      </trkpt>
      <trkpt lat="48.89557" lon="2.40471">
        <ele>115.1</ele>
        <time>2015-04-13T19:39:10.369Z</time>
      </trkpt>
      <trkpt lat="48.89557" lon="2.40465">
        <ele>115</ele>
        <time>2015-04-13T19:39:11.298Z</time>
      </trkpt>
      <trkpt lat="48.89558" lon="2.40458">
        <ele>114.7</ele>
        <time>2015-04-13T19:39:12.298Z</time>
      </trkpt>
      <trkpt lat="48.89559" lon="2.4045">
        <ele>114.6</ele>
        <time>2015-04-13T19:39:13.310Z</time>
      </trkpt>
      <trkpt lat="48.8956" lon="2.40442">
        <ele>114.5</ele>
        <time>2015-04-13T19:39:14.330Z</time>
      </trkpt>
      <trkpt lat="48.89561" lon="2.40434">
        <ele>114.4</ele>
        <time>2015-04-13T19:39:15.348Z</time>
      </trkpt>
      <trkpt lat="48.89562" lon="2.40427">
        <ele>114.5</ele>
        <time>2015-04-13T19:39:16.363Z</time>
      </trkpt>
      <trkpt lat="48.89563" lon="2.40419">
        <ele>114.4</ele>
        <time>2015-04-13T19:39:17.372Z</time>
      </trkpt>
      <trkpt lat="48.89563" lon="2.40411">
        <ele>114.1</ele>
        <time>2015-04-13T19:39:18.387Z</time>
      </trkpt>
      <trkpt lat="48.89564" lon="2.40403">
        <ele>114</ele>
        <time>2015-04-13T19:39:19.282Z</time>
      </trkpt>
      <trkpt lat="48.89565" lon="2.40395">
        <ele>113.8</ele>
        <time>2015-04-13T19:39:20.335Z</time>
      </trkpt>
      <trkpt lat="48.89565" lon="2.40387">
        <ele>113.6</ele>
        <time>2015-04-13T19:39:21.344Z</time>
      </trkpt>
      <trkpt lat="48.89566" lon="2.40379">
        <ele>113.7</ele>
        <time>2015-04-13T19:39:22.347Z</time>
      </trkpt>
      <trkpt lat="48.89567" lon="2.40372">
        <ele>113.7</ele>
        <time>2015-04-13T19:39:23.358Z</time>
      </trkpt>
      <trkpt lat="48.89567" lon="2.40364">
        <ele>113.6</ele>
        <time>2015-04-13T19:39:24.372Z</time>
      </trkpt>
      <trkpt lat="48.89568" lon="2.40356">
        <ele>113.5</ele>
        <time>2015-04-13T19:39:25.384Z</time>
      </trkpt>
      <trkpt lat="48.89569" lon="2.40348">
        <ele>113.6</ele>
        <time>2015-04-13T19:39:26.392Z</time>
      </trkpt>
      <trkpt lat="48.89569" lon="2.40341">
        <ele>113.6</ele>
        <time>2015-04-13T19:39:27.296Z</time>
      </trkpt>
      <trkpt lat="48.89569" lon="2.40334">
        <ele>113.4</ele>
        <time>2015-04-13T19:39:28.290Z</time>
      </trkpt>
      <trkpt lat="48.8957" lon="2.40327">
        <ele>113.2</ele>
        <time>2015-04-13T19:39:29.314Z</time>
      </trkpt>
      <trkpt lat="48.89571" lon="2.4032">
        <ele>113.1</ele>
        <time>2015-04-13T19:39:30.325Z</time>
      </trkpt>
      <trkpt lat="48.89572" lon="2.40308">
        <ele>112.9</ele>
        <time>2015-04-13T19:39:32.327Z</time>
      </trkpt>
      <trkpt lat="48.89572" lon="2.40303">
        <ele>112.8</ele>
        <time>2015-04-13T19:39:33.347Z</time>
      </trkpt>
      <trkpt lat="48.89571" lon="2.40293">
        <ele>112.1</ele>
        <time>2015-04-13T19:39:35.285Z</time>
      </trkpt>
      <trkpt lat="48.89571" lon="2.40288">
        <ele>112.5</ele>
        <time>2015-04-13T19:39:36.329Z</time>
      </trkpt>
      <trkpt lat="48.89572" lon="2.40274">
        <ele>112.4</ele>
        <time>2015-04-13T19:39:39.321Z</time>
      </trkpt>
      <trkpt lat="48.89572" lon="2.4027">
        <ele>111.7</ele>
        <time>2015-04-13T19:39:40.329Z</time>
      </trkpt>
      <trkpt lat="48.89573" lon="2.40259">
        <ele>111.3</ele>
        <time>2015-04-13T19:39:42.314Z</time>
      </trkpt>
      <trkpt lat="48.89574" lon="2.40254">
        <ele>111.2</ele>
        <time>2015-04-13T19:39:43.339Z</time>
      </trkpt>
      <trkpt lat="48.89577" lon="2.40242">
        <ele>111.1</ele>
        <time>2015-04-13T19:39:45.295Z</time>
      </trkpt>
      <trkpt lat="48.89579" lon="2.40236">
        <ele>111</ele>
        <time>2015-04-13T19:39:46.331Z</time>
      </trkpt>
      <trkpt lat="48.89581" lon="2.40229">
        <ele>111.1</ele>
        <time>2015-04-13T19:39:47.363Z</time>
      </trkpt>
      <trkpt lat="48.89583" lon="2.40223">
        <ele>111.1</ele>
        <time>2015-04-13T19:39:48.374Z</time>
      </trkpt>
      <trkpt lat="48.89585" lon="2.40216">
        <ele>111.1</ele>
        <time>2015-04-13T19:39:49.386Z</time>
      </trkpt>
      <trkpt lat="48.89586" lon="2.40209">
        <ele>111</ele>
        <time>2015-04-13T19:39:50.390Z</time>
      </trkpt>
      <trkpt lat="48.89588" lon="2.40202">
        <ele>111.1</ele>
        <time>2015-04-13T19:39:51.280Z</time>
      </trkpt>
      <trkpt lat="48.89588" lon="2.40195">
        <ele>110.9</ele>
        <time>2015-04-13T19:39:52.287Z</time>
      </trkpt>
      <trkpt lat="48.89589" lon="2.40189">
        <ele>110.9</ele>
        <time>2015-04-13T19:39:53.303Z</time>
      </trkpt>
      <trkpt lat="48.8959" lon="2.40182">
        <ele>110.9</ele>
        <time>2015-04-13T19:39:54.309Z</time>
      </trkpt>
      <trkpt lat="48.89592" lon="2.40168">
        <ele>111</ele>
        <time>2015-04-13T19:39:56.326Z</time>
      </trkpt>
      <trkpt lat="48.89596" lon="2.40158">
        <ele>111.1</ele>
        <time>2015-04-13T19:39:58.336Z</time>
      </trkpt>
      <trkpt lat="48.89603" lon="2.40152">
        <ele>111.2</ele>
        <time>2015-04-13T19:40:00.362Z</time>
      </trkpt>
      <trkpt lat="48.89604" lon="2.40148">
        <ele>111</ele>
        <time>2015-04-13T19:40:01.384Z</time>
      </trkpt>
      <trkpt lat="48.89602" lon="2.40135">
        <ele>110.3</ele>
        <time>2015-04-13T19:40:05.357Z</time>
      </trkpt>
      <trkpt lat="48.89601" lon="2.40133">
        <ele>110.5</ele>
        <time>2015-04-13T19:40:06.369Z</time>
      </trkpt>
      <trkpt lat="48.89596" lon="2.40123">
        <ele>110.7</ele>
        <time>2015-04-13T19:40:11.365Z</time>
      </trkpt>
      <trkpt lat="48.89595" lon="2.40121">
        <ele>110.6</ele>
        <time>2015-04-13T19:40:12.269Z</time>
      </trkpt>
      <trkpt lat="48.89595" lon="2.4012">
        <ele>110.6</ele>
        <time>2015-04-13T19:40:13.346Z</time>
      </trkpt>
      <trkpt lat="48.89594" lon="2.40119">
        <ele>110.6</ele>
        <time>2015-04-13T19:40:24.322Z</time>
      </trkpt>
      <trkpt lat="48.8959" lon="2.40115">
        <ele>111.5</ele>
        <time>2015-04-13T19:40:25.350Z</time>
      </trkpt>
      <trkpt lat="48.89591" lon="2.40118">
        <ele>111.6</ele>
        <time>2015-04-13T19:40:27.390Z</time>
      </trkpt>
      <trkpt lat="48.89591" lon="2.40118">
        <ele>111.5</ele>
        <time>2015-04-13T19:40:28.310Z</time>
      </trkpt>
      <trkpt lat="48.89592" lon="2.40117">
        <ele>111.4</ele>
        <time>2015-04-13T19:40:29.311Z</time>
      </trkpt>
      <trkpt lat="48.89592" lon="2.40116">
        <ele>111.9</ele>
        <time>2015-04-13T19:40:30.310Z</time>
      </trkpt>
      <trkpt lat="48.89601" lon="2.40114">
        <ele>115</ele>
        <time>2015-04-13T19:40:36.328Z</time>
      </trkpt>
      <trkpt lat="48.89602" lon="2.40114">
        <ele>116.1</ele>
        <time>2015-04-13T19:40:37.357Z</time>
      </trkpt>
      <trkpt lat="48.89604" lon="2.40102">
        <ele>119.4</ele>
        <time>2015-04-13T19:40:53.311Z</time>
      </trkpt>
      <trkpt lat="48.89605" lon="2.401">
        <ele>119.6</ele>
        <time>2015-04-13T19:40:54.308Z</time>
      </trkpt>
      <trkpt lat="48.89608" lon="2.40089">
        <ele>120.1</ele>
        <time>2015-04-13T19:40:58.370Z</time>
      </trkpt>
      <trkpt lat="48.89608" lon="2.40084">
        <ele>120.2</ele>
        <time>2015-04-13T19:40:59.314Z</time>
      </trkpt>
      <trkpt lat="48.89608" lon="2.40072">
        <ele>120.3</ele>
        <time>2015-04-13T19:41:01.362Z</time>
      </trkpt>
      <trkpt lat="48.89609" lon="2.40065">
        <ele>120.2</ele>
        <time>2015-04-13T19:41:02.376Z</time>
      </trkpt>
      <trkpt lat="48.89611" lon="2.40058">
        <ele>120.3</ele>
        <time>2015-04-13T19:41:03.395Z</time>
      </trkpt>
      <trkpt lat="48.89611" lon="2.40052">
        <ele>120.4</ele>
        <time>2015-04-13T19:41:04.346Z</time>
      </trkpt>
      <trkpt lat="48.89612" lon="2.40045">
        <ele>120.5</ele>
        <time>2015-04-13T19:41:05.341Z</time>
      </trkpt>
      <trkpt lat="48.89613" lon="2.40038">
        <ele>120.4</ele>
        <time>2015-04-13T19:41:06.395Z</time>
      </trkpt>
      <trkpt lat="48.89614" lon="2.4003">
        <ele>120.4</ele>
        <time>2015-04-13T19:41:07.402Z</time>
      </trkpt>
      <trkpt lat="48.89614" lon="2.40023">
        <ele>120.2</ele>
        <time>2015-04-13T19:41:08.401Z</time>
      </trkpt>
      <trkpt lat="48.89614" lon="2.40014">
        <ele>120.2</ele>
        <time>2015-04-13T19:41:09.313Z</time>
      </trkpt>
      <trkpt lat="48.89613" lon="2.40006">
        <ele>120.3</ele>
        <time>2015-04-13T19:41:10.336Z</time>
      </trkpt>
      <trkpt lat="48.89614" lon="2.39997">
        <ele>120.3</ele>
        <time>2015-04-13T19:41:11.381Z</time>
      </trkpt>
      <trkpt lat="48.89614" lon="2.39989">
        <ele>119.7</ele>
        <time>2015-04-13T19:41:12.398Z</time>
      </trkpt>
      <trkpt lat="48.89614" lon="2.39981">
        <ele>119.7</ele>
        <time>2015-04-13T19:41:13.409Z</time>
      </trkpt>
      <trkpt lat="48.89615" lon="2.39973">
        <ele>119.6</ele>
        <time>2015-04-13T19:41:14.429Z</time>
      </trkpt>
      <trkpt lat="48.89615" lon="2.39965">
        <ele>119.4</ele>
        <time>2015-04-13T19:41:15.319Z</time>
      </trkpt>
      <trkpt lat="48.89615" lon="2.39958">
        <ele>119.1</ele>
        <time>2015-04-13T19:41:16.325Z</time>
      </trkpt>
      <trkpt lat="48.89616" lon="2.3995">
        <ele>118.9</ele>
        <time>2015-04-13T19:41:17.337Z</time>
      </trkpt>
      <trkpt lat="48.89617" lon="2.39942">
        <ele>118.7</ele>
        <time>2015-04-13T19:41:18.344Z</time>
      </trkpt>
      <trkpt lat="48.89618" lon="2.39935">
        <ele>118.6</ele>
        <time>2015-04-13T19:41:19.348Z</time>
      </trkpt>
      <trkpt lat="48.89619" lon="2.39927">
        <ele>118.7</ele>
        <time>2015-04-13T19:41:20.363Z</time>
      </trkpt>
      <trkpt lat="48.8962" lon="2.39914">
        <ele>118.5</ele>
        <time>2015-04-13T19:41:22.384Z</time>
      </trkpt>
      <trkpt lat="48.89619" lon="2.39908">
        <ele>118.6</ele>
        <time>2015-04-13T19:41:23.401Z</time>
      </trkpt>
      <trkpt lat="48.89619" lon="2.39895">
        <ele>118.9</ele>
        <time>2015-04-13T19:41:25.342Z</time>
      </trkpt>
      <trkpt lat="48.89619" lon="2.3989">
        <ele>119.1</ele>
        <time>2015-04-13T19:41:26.367Z</time>
      </trkpt>
      <trkpt lat="48.89619" lon="2.39879">
        <ele>120</ele>
        <time>2015-04-13T19:41:28.312Z</time>
      </trkpt>
      <trkpt lat="48.89619" lon="2.39874">
        <ele>120.7</ele>
        <time>2015-04-13T19:41:29.339Z</time>
      </trkpt>
      <trkpt lat="48.89619" lon="2.39863">
        <ele>121.3</ele>
        <time>2015-04-13T19:41:31.376Z</time>
      </trkpt>
      <trkpt lat="48.89619" lon="2.39857">
        <ele>120.9</ele>
        <time>2015-04-13T19:41:32.397Z</time>
      </trkpt>
      <trkpt lat="48.89617" lon="2.39845">
        <ele>123.6</ele>
        <time>2015-04-13T19:41:35.340Z</time>
      </trkpt>
      <trkpt lat="48.89616" lon="2.3984">
        <ele>123.9</ele>
        <time>2015-04-13T19:41:36.400Z</time>
      </trkpt>
      <trkpt lat="48.89614" lon="2.39829">
        <ele>124.3</ele>
        <time>2015-04-13T19:41:38.389Z</time>
      </trkpt>
      <trkpt lat="48.89613" lon="2.39824">
        <ele>124.5</ele>
        <time>2015-04-13T19:41:39.383Z</time>
      </trkpt>
      <trkpt lat="48.89611" lon="2.39811">
        <ele>124.4</ele>
        <time>2015-04-13T19:41:41.332Z</time>
      </trkpt>
      <trkpt lat="48.89609" lon="2.39804">
        <ele>124.3</ele>
        <time>2015-04-13T19:41:42.320Z</time>
      </trkpt>
      <trkpt lat="48.89607" lon="2.39798">
        <ele>124.2</ele>
        <time>2015-04-13T19:41:43.356Z</time>
      </trkpt>
      <trkpt lat="48.89605" lon="2.39791">
        <ele>124</ele>
        <time>2015-04-13T19:41:44.408Z</time>
      </trkpt>
      <trkpt lat="48.89603" lon="2.39785">
        <ele>124.1</ele>
        <time>2015-04-13T19:41:45.383Z</time>
      </trkpt>
      <trkpt lat="48.896" lon="2.39779">
        <ele>124.2</ele>
        <time>2015-04-13T19:41:46.396Z</time>
      </trkpt>
      <trkpt lat="48.89597" lon="2.39772">
        <ele>124.2</ele>
        <time>2015-04-13T19:41:47.318Z</time>
      </trkpt>
      <trkpt lat="48.89594" lon="2.39765">
        <ele>124.2</ele>
        <time>2015-04-13T19:41:48.323Z</time>
      </trkpt>
      <trkpt lat="48.8959" lon="2.39759">
        <ele>124.8</ele>
        <time>2015-04-13T19:41:49.332Z</time>
      </trkpt>
      <trkpt lat="48.89586" lon="2.39752">
        <ele>125.1</ele>
        <time>2015-04-13T19:41:50.361Z</time>
      </trkpt>
      <trkpt lat="48.89585" lon="2.39739">
        <ele>124.8</ele>
        <time>2015-04-13T19:41:52.371Z</time>
      </trkpt>
      <trkpt lat="48.89587" lon="2.39735">
        <ele>125.9</ele>
        <time>2015-04-13T19:41:53.393Z</time>
      </trkpt>
      <trkpt lat="48.8959" lon="2.39725">
        <ele>127.9</ele>
        <time>2015-04-13T19:41:55.332Z</time>
      </trkpt>
      <trkpt lat="48.89591" lon="2.39719">
        <ele>129.2</ele>
        <time>2015-04-13T19:41:56.392Z</time>
      </trkpt>
      <trkpt lat="48.89593" lon="2.39709">
        <ele>131.4</ele>
        <time>2015-04-13T19:41:58.328Z</time>
      </trkpt>
      <trkpt lat="48.89593" lon="2.39703">
        <ele>131.7</ele>
        <time>2015-04-13T19:41:59.354Z</time>
      </trkpt>
      <trkpt lat="48.89595" lon="2.39697">
        <ele>132.2</ele>
        <time>2015-04-13T19:42:00.364Z</time>
      </trkpt>
      <trkpt lat="48.896" lon="2.39692">
        <ele>132.7</ele>
        <time>2015-04-13T19:42:01.376Z</time>
      </trkpt>
      <trkpt lat="48.89607" lon="2.39683">
        <ele>132.5</ele>
        <time>2015-04-13T19:42:03.395Z</time>
      </trkpt>
      <trkpt lat="48.89609" lon="2.39679">
        <ele>132.6</ele>
        <time>2015-04-13T19:42:04.491Z</time>
      </trkpt>
      <trkpt lat="48.8961" lon="2.39669">
        <ele>132.7</ele>
        <time>2015-04-13T19:42:07.458Z</time>
      </trkpt>
      <trkpt lat="48.8961" lon="2.39663">
        <ele>132.2</ele>
        <time>2015-04-13T19:42:08.424Z</time>
      </trkpt>
      <trkpt lat="48.8961" lon="2.39657">
        <ele>131.9</ele>
        <time>2015-04-13T19:42:09.391Z</time>
      </trkpt>
      <trkpt lat="48.89612" lon="2.39649">
        <ele>131.5</ele>
        <time>2015-04-13T19:42:10.400Z</time>
      </trkpt>
      <trkpt lat="48.89613" lon="2.39641">
        <ele>131.1</ele>
        <time>2015-04-13T19:42:11.441Z</time>
      </trkpt>
      <trkpt lat="48.89613" lon="2.39634">
        <ele>130.7</ele>
        <time>2015-04-13T19:42:12.361Z</time>
      </trkpt>
      <trkpt lat="48.89613" lon="2.39621">
        <ele>130.6</ele>
        <time>2015-04-13T19:42:14.385Z</time>
      </trkpt>
      <trkpt lat="48.89613" lon="2.39615">
        <ele>130.3</ele>
        <time>2015-04-13T19:42:15.394Z</time>
      </trkpt>
      <trkpt lat="48.89611" lon="2.39605">
        <ele>130.5</ele>
        <time>2015-04-13T19:42:17.449Z</time>
      </trkpt>
      <trkpt lat="48.8961" lon="2.396">
        <ele>130.4</ele>
        <time>2015-04-13T19:42:18.317Z</time>
      </trkpt>
      <trkpt lat="48.89607" lon="2.39588">
        <ele>129.8</ele>
        <time>2015-04-13T19:42:21.384Z</time>
      </trkpt>
      <trkpt lat="48.89606" lon="2.39584">
        <ele>129.2</ele>
        <time>2015-04-13T19:42:22.389Z</time>
      </trkpt>
      <trkpt lat="48.89606" lon="2.39575">
        <ele>128.1</ele>
        <time>2015-04-13T19:42:24.367Z</time>
      </trkpt>
      <trkpt lat="48.89606" lon="2.3957">
        <ele>127.7</ele>
        <time>2015-04-13T19:42:25.386Z</time>
      </trkpt>
      <trkpt lat="48.89606" lon="2.39558">
        <ele>126.2</ele>
        <time>2015-04-13T19:42:28.312Z</time>
      </trkpt>
      <trkpt lat="48.89607" lon="2.39554">
        <ele>125.8</ele>
        <time>2015-04-13T19:42:29.318Z</time>
      </trkpt>
      <trkpt lat="48.89606" lon="2.39545">
        <ele>124.9</ele>
        <time>2015-04-13T19:42:31.358Z</time>
      </trkpt>
      <trkpt lat="48.89605" lon="2.3954">
        <ele>124.7</ele>
        <time>2015-04-13T19:42:32.377Z</time>
      </trkpt>
      <trkpt lat="48.89603" lon="2.3953">
        <ele>124.3</ele>
        <time>2015-04-13T19:42:34.405Z</time>
      </trkpt>
      <trkpt lat="48.89601" lon="2.39525">
        <ele>124</ele>
        <time>2015-04-13T19:42:35.322Z</time>
      </trkpt>
      <trkpt lat="48.89599" lon="2.39514">
        <ele>123.7</ele>
        <time>2015-04-13T19:42:37.326Z</time>
      </trkpt>
      <trkpt lat="48.89597" lon="2.39509">
        <ele>123.5</ele>
        <time>2015-04-13T19:42:38.383Z</time>
      </trkpt>
      <trkpt lat="48.89594" lon="2.39498">
        <ele>123</ele>
        <time>2015-04-13T19:42:40.328Z</time>
      </trkpt>
      <trkpt lat="48.89592" lon="2.39492">
        <ele>123.2</ele>
        <time>2015-04-13T19:42:41.330Z</time>
      </trkpt>
      <trkpt lat="48.89588" lon="2.39484">
        <ele>123.4</ele>
        <time>2015-04-13T19:42:43.408Z</time>
      </trkpt>
      <trkpt lat="48.89586" lon="2.39481">
        <ele>123.6</ele>
        <time>2015-04-13T19:42:44.419Z</time>
      </trkpt>
      <trkpt lat="48.89581" lon="2.39475">
        <ele>123.8</ele>
        <time>2015-04-13T19:42:46.332Z</time>
      </trkpt>
      <trkpt lat="48.89578" lon="2.39473">
        <ele>124</ele>
        <time>2015-04-13T19:42:47.348Z</time>
      </trkpt>
      <trkpt lat="48.8957" lon="2.39468">
        <ele>124.3</ele>
        <time>2015-04-13T19:42:49.369Z</time>
      </trkpt>
      <trkpt lat="48.89567" lon="2.39464">
        <ele>124.4</ele>
        <time>2015-04-13T19:42:50.387Z</time>
      </trkpt>
      <trkpt lat="48.8956" lon="2.39456">
        <ele>124.5</ele>
        <time>2015-04-13T19:42:53.015Z</time>
      </trkpt>
      <trkpt lat="48.89557" lon="2.39453">
        <ele>124.6</ele>
        <time>2015-04-13T19:42:53.277Z</time>
      </trkpt>
      <trkpt lat="48.89551" lon="2.39445">
        <ele>124.5</ele>
        <time>2015-04-13T19:42:55.382Z</time>
      </trkpt>
      <trkpt lat="48.89549" lon="2.39441">
        <ele>125.1</ele>
        <time>2015-04-13T19:42:56.338Z</time>
      </trkpt>
      <trkpt lat="48.89546" lon="2.39433">
        <ele>125.3</ele>
        <time>2015-04-13T19:42:58.425Z</time>
      </trkpt>
      <trkpt lat="48.89544" lon="2.39428">
        <ele>125.4</ele>
        <time>2015-04-13T19:42:59.369Z</time>
      </trkpt>
      <trkpt lat="48.89542" lon="2.3942">
        <ele>125.6</ele>
        <time>2015-04-13T19:43:01.275Z</time>
      </trkpt>
      <trkpt lat="48.89542" lon="2.3941">
        <ele>125.6</ele>
        <time>2015-04-13T19:43:04.357Z</time>
      </trkpt>
      <trkpt lat="48.89549" lon="2.39398">
        <ele>124.2</ele>
        <time>2015-04-13T19:43:05.299Z</time>
      </trkpt>
      <trkpt lat="48.89555" lon="2.3939">
        <ele>123.4</ele>
        <time>2015-04-13T19:43:06.308Z</time>
      </trkpt>
      <trkpt lat="48.8956" lon="2.39385">
        <ele>122.9</ele>
        <time>2015-04-13T19:43:07.305Z</time>
      </trkpt>
      <trkpt lat="48.89563" lon="2.3938">
        <ele>122.7</ele>
        <time>2015-04-13T19:43:08.702Z</time>
      </trkpt>
      <trkpt lat="48.89567" lon="2.39376">
        <ele>122.5</ele>
        <time>2015-04-13T19:43:09.300Z</time>
      </trkpt>
      <trkpt lat="48.89573" lon="2.39371">
        <ele>123.1</ele>
        <time>2015-04-13T19:43:11.311Z</time>
      </trkpt>
      <trkpt lat="48.89574" lon="2.39367">
        <ele>123.9</ele>
        <time>2015-04-13T19:43:12.343Z</time>
      </trkpt>
      <trkpt lat="48.89578" lon="2.39357">
        <ele>124.6</ele>
        <time>2015-04-13T19:43:15.322Z</time>
      </trkpt>
      <trkpt lat="48.89576" lon="2.39354">
        <ele>124.3</ele>
        <time>2015-04-13T19:43:16.334Z</time>
      </trkpt>
      <trkpt lat="48.89569" lon="2.39348">
        <ele>121.4</ele>
        <time>2015-04-13T19:43:19.333Z</time>
      </trkpt>
      <trkpt lat="48.89567" lon="2.39345">
        <ele>120.9</ele>
        <time>2015-04-13T19:43:20.407Z</time>
      </trkpt>
      <trkpt lat="48.89561" lon="2.39336">
        <ele>121.1</ele>
        <time>2015-04-13T19:43:22.317Z</time>
      </trkpt>
      <trkpt lat="48.89559" lon="2.39332">
        <ele>121</ele>
        <time>2015-04-13T19:43:23.362Z</time>
      </trkpt>
      <trkpt lat="48.89553" lon="2.39322">
        <ele>120.8</ele>
        <time>2015-04-13T19:43:26.368Z</time>
      </trkpt>
      <trkpt lat="48.89552" lon="2.39319">
        <ele>120.6</ele>
        <time>2015-04-13T19:43:27.333Z</time>
      </trkpt>
      <trkpt lat="48.89547" lon="2.39309">
        <ele>119.2</ele>
        <time>2015-04-13T19:43:31.367Z</time>
      </trkpt>
      <trkpt lat="48.89546" lon="2.39307">
        <ele>118.8</ele>
        <time>2015-04-13T19:43:32.381Z</time>
      </trkpt>
      <trkpt lat="48.89542" lon="2.39297">
        <ele>118.4</ele>
        <time>2015-04-13T19:43:36.363Z</time>
      </trkpt>
      <trkpt lat="48.8954" lon="2.39295">
        <ele>118.2</ele>
        <time>2015-04-13T19:43:37.374Z</time>
      </trkpt>
      <trkpt lat="48.89536" lon="2.39285">
        <ele>117.6</ele>
        <time>2015-04-13T19:43:40.330Z</time>
      </trkpt>
      <trkpt lat="48.89535" lon="2.39282">
        <ele>117.2</ele>
        <time>2015-04-13T19:43:41.347Z</time>
      </trkpt>
      <trkpt lat="48.8953" lon="2.3927">
        <ele>116.5</ele>
        <time>2015-04-13T19:43:44.343Z</time>
      </trkpt>
      <trkpt lat="48.89528" lon="2.39267">
        <ele>116.4</ele>
        <time>2015-04-13T19:43:45.349Z</time>
      </trkpt>
      <trkpt lat="48.89525" lon="2.39259">
        <ele>115.9</ele>
        <time>2015-04-13T19:43:47.272Z</time>
      </trkpt>
      <trkpt lat="48.89523" lon="2.39254">
        <ele>115.6</ele>
        <time>2015-04-13T19:43:48.300Z</time>
      </trkpt>
      <trkpt lat="48.8952" lon="2.39245">
        <ele>115.2</ele>
        <time>2015-04-13T19:43:50.335Z</time>
      </trkpt>
      <trkpt lat="48.89518" lon="2.39241">
        <ele>114.8</ele>
        <time>2015-04-13T19:43:51.331Z</time>
      </trkpt>
      <trkpt lat="48.89515" lon="2.39232">
        <ele>114.7</ele>
        <time>2015-04-13T19:43:53.351Z</time>
      </trkpt>
      <trkpt lat="48.89513" lon="2.39228">
        <ele>114.4</ele>
        <time>2015-04-13T19:43:54.428Z</time>
      </trkpt>
      <trkpt lat="48.89508" lon="2.39218">
        <ele>114</ele>
        <time>2015-04-13T19:43:57.347Z</time>
      </trkpt>
      <trkpt lat="48.89506" lon="2.39215">
        <ele>113.9</ele>
        <time>2015-04-13T19:43:58.357Z</time>
      </trkpt>
      <trkpt lat="48.89498" lon="2.39214">
        <ele>112</ele>
        <time>2015-04-13T19:44:02.452Z</time>
      </trkpt>
      <trkpt lat="48.89496" lon="2.39215">
        <ele>111.4</ele>
        <time>2015-04-13T19:44:03.323Z</time>
      </trkpt>
      <trkpt lat="48.89488" lon="2.39211">
        <ele>110.1</ele>
        <time>2015-04-13T19:44:07.337Z</time>
      </trkpt>
      <trkpt lat="48.89486" lon="2.39208">
        <ele>110</ele>
        <time>2015-04-13T19:44:08.415Z</time>
      </trkpt>
      <trkpt lat="48.8948" lon="2.39198">
        <ele>109.8</ele>
        <time>2015-04-13T19:44:11.309Z</time>
      </trkpt>
      <trkpt lat="48.89478" lon="2.39196">
        <ele>110</ele>
        <time>2015-04-13T19:44:12.309Z</time>
      </trkpt>
      <trkpt lat="48.89472" lon="2.39188">
        <ele>110.3</ele>
        <time>2015-04-13T19:44:15.345Z</time>
      </trkpt>
      <trkpt lat="48.89471" lon="2.39187">
        <ele>110.8</ele>
        <time>2015-04-13T19:44:16.278Z</time>
      </trkpt>
      <trkpt lat="48.89465" lon="2.39178">
        <ele>110.2</ele>
        <time>2015-04-13T19:44:21.300Z</time>
      </trkpt>
      <trkpt lat="48.89464" lon="2.39176">
        <ele>110.4</ele>
        <time>2015-04-13T19:44:22.294Z</time>
      </trkpt>
      <trkpt lat="48.89457" lon="2.39171">
        <ele>111.7</ele>
        <time>2015-04-13T19:44:26.386Z</time>
      </trkpt>
      <trkpt lat="48.89456" lon="2.39169">
        <ele>111.7</ele>
        <time>2015-04-13T19:44:27.392Z</time>
      </trkpt>
      <trkpt lat="48.89455" lon="2.39167">
        <ele>111.2</ele>
        <time>2015-04-13T19:44:30.328Z</time>
      </trkpt>
      <trkpt lat="48.89454" lon="2.39167">
        <ele>111.5</ele>
        <time>2015-04-13T19:44:31.374Z</time>
      </trkpt>
      <trkpt lat="48.89454" lon="2.39167">
        <ele>111.9</ele>
        <time>2015-04-13T19:44:45.305Z</time>
      </trkpt>
      <trkpt lat="48.8946" lon="2.39157">
        <ele>113.6</ele>
        <time>2015-04-13T19:44:46.324Z</time>
      </trkpt>
      <trkpt lat="48.89468" lon="2.39163">
        <ele>113</ele>
        <time>2015-04-13T19:44:53.331Z</time>
      </trkpt>
      <trkpt lat="48.89469" lon="2.39165">
        <ele>112.9</ele>
        <time>2015-04-13T19:44:54.291Z</time>
      </trkpt>
      <trkpt lat="48.89476" lon="2.39168">
        <ele>112.3</ele>
        <time>2015-04-13T19:45:01.334Z</time>
      </trkpt>
      <trkpt lat="48.89478" lon="2.39166">
        <ele>112.2</ele>
        <time>2015-04-13T19:45:02.377Z</time>
      </trkpt>
      <trkpt lat="48.89484" lon="2.39161">
        <ele>111.1</ele>
        <time>2015-04-13T19:45:05.365Z</time>
      </trkpt>
      <trkpt lat="48.89486" lon="2.39158">
        <ele>110.6</ele>
        <time>2015-04-13T19:45:06.399Z</time>
      </trkpt>
      <trkpt lat="48.89489" lon="2.39147">
        <ele>109.6</ele>
        <time>2015-04-13T19:45:12.300Z</time>
      </trkpt>
      <trkpt lat="48.89489" lon="2.39145">
        <ele>109.5</ele>
        <time>2015-04-13T19:45:13.325Z</time>
      </trkpt>
      <trkpt lat="48.89492" lon="2.39137">
        <ele>109</ele>
        <time>2015-04-13T19:45:16.349Z</time>
      </trkpt>
      <trkpt lat="48.89495" lon="2.39133">
        <ele>108.7</ele>
        <time>2015-04-13T19:45:17.370Z</time>
      </trkpt>
      <trkpt lat="48.89499" lon="2.39127">
        <ele>108.2</ele>
        <time>2015-04-13T19:45:19.342Z</time>
      </trkpt>
      <trkpt lat="48.89502" lon="2.39123">
        <ele>107.9</ele>
        <time>2015-04-13T19:45:20.326Z</time>
      </trkpt>
      <trkpt lat="48.89509" lon="2.39115">
        <ele>107.9</ele>
        <time>2015-04-13T19:45:23.355Z</time>
      </trkpt>
      <trkpt lat="48.8951" lon="2.39113">
        <ele>108.2</ele>
        <time>2015-04-13T19:45:24.373Z</time>
      </trkpt>
      <trkpt lat="48.89518" lon="2.39119">
        <ele>109.8</ele>
        <time>2015-04-13T19:45:30.285Z</time>
      </trkpt>
      <trkpt lat="48.89519" lon="2.39122">
        <ele>110</ele>
        <time>2015-04-13T19:45:31.334Z</time>
      </trkpt>
      <trkpt lat="48.89524" lon="2.3913">
        <ele>110.5</ele>
        <time>2015-04-13T19:45:35.349Z</time>
      </trkpt>
      <trkpt lat="48.89526" lon="2.39132">
        <ele>110.6</ele>
        <time>2015-04-13T19:45:36.356Z</time>
      </trkpt>
      <trkpt lat="48.89519" lon="2.39138">
        <ele>110.3</ele>
        <time>2015-04-13T19:45:47.342Z</time>
      </trkpt>
      <trkpt lat="48.89517" lon="2.39137">
        <ele>110.2</ele>
        <time>2015-04-13T19:45:48.369Z</time>
      </trkpt>
      <trkpt lat="48.89509" lon="2.39138">
        <ele>109.5</ele>
        <time>2015-04-13T19:45:53.308Z</time>
      </trkpt>
      <trkpt lat="48.89507" lon="2.39139">
        <ele>108.8</ele>
        <time>2015-04-13T19:45:54.324Z</time>
      </trkpt>
      <trkpt lat="48.895" lon="2.39141">
        <ele>107.6</ele>
        <time>2015-04-13T19:45:57.399Z</time>
      </trkpt>
      <trkpt lat="48.89498" lon="2.39142">
        <ele>107.6</ele>
        <time>2015-04-13T19:45:58.446Z</time>
      </trkpt>
      <trkpt lat="48.8949" lon="2.39148">
        <ele>106.6</ele>
        <time>2015-04-13T19:46:01.328Z</time>
      </trkpt>
      <trkpt lat="48.89488" lon="2.3915">
        <ele>106.6</ele>
        <time>2015-04-13T19:46:02.371Z</time>
      </trkpt>
      <trkpt lat="48.89482" lon="2.39154">
        <ele>106.5</ele>
        <time>2015-04-13T19:46:04.389Z</time>
      </trkpt>
      <trkpt lat="48.89479" lon="2.39157">
        <ele>106.7</ele>
        <time>2015-04-13T19:46:05.331Z</time>
      </trkpt>
      <trkpt lat="48.89471" lon="2.39164">
        <ele>106.9</ele>
        <time>2015-04-13T19:46:09.329Z</time>
      </trkpt>
      <trkpt lat="48.89469" lon="2.39165">
        <ele>106.9</ele>
        <time>2015-04-13T19:46:10.344Z</time>
      </trkpt>
      <trkpt lat="48.89462" lon="2.39167">
        <ele>105.2</ele>
        <time>2015-04-13T19:46:18.363Z</time>
      </trkpt>
      <trkpt lat="48.89462" lon="2.39167">
        <ele>105</ele>
        <time>2015-04-13T19:46:19.376Z</time>
      </trkpt>
      <trkpt lat="48.89463" lon="2.39166">
        <ele>104.6</ele>
        <time>2015-04-13T19:46:21.386Z</time>
      </trkpt>
      <trkpt lat="48.89462" lon="2.39167">
        <ele>104.4</ele>
        <time>2015-04-13T19:46:22.389Z</time>
      </trkpt>
      <trkpt lat="48.89454" lon="2.39172">
        <ele>105.3</ele>
        <time>2015-04-13T19:46:31.318Z</time>
      </trkpt>
      <trkpt lat="48.89453" lon="2.39174">
        <ele>105.2</ele>
        <time>2015-04-13T19:46:32.433Z</time>
      </trkpt>
      <trkpt lat="48.89446" lon="2.39181">
        <ele>104.6</ele>
        <time>2015-04-13T19:46:38.395Z</time>
      </trkpt>
      <trkpt lat="48.89445" lon="2.39182">
        <ele>104.6</ele>
        <time>2015-04-13T19:46:39.322Z</time>
      </trkpt>
      <trkpt lat="48.8944" lon="2.39191">
        <ele>104.4</ele>
        <time>2015-04-13T19:46:47.316Z</time>
      </trkpt>
      <trkpt lat="48.89439" lon="2.39192">
        <ele>104.7</ele>
        <time>2015-04-13T19:46:48.323Z</time>
      </trkpt>
      <trkpt lat="48.89435" lon="2.39195">
        <ele>104.6</ele>
        <time>2015-04-13T19:46:54.322Z</time>
      </trkpt>
      <trkpt lat="48.89435" lon="2.39196">
        <ele>103.9</ele>
        <time>2015-04-13T19:46:55.341Z</time>
      </trkpt>
      <trkpt lat="48.89435" lon="2.39195">
        <ele>103.8</ele>
        <time>2015-04-13T19:46:59.297Z</time>
      </trkpt>
      <trkpt lat="48.89433" lon="2.39194">
        <ele>103.5</ele>
        <time>2015-04-13T19:47:00.295Z</time>
      </trkpt>
      <trkpt lat="48.89433" lon="2.39194">
        <ele>103.7</ele>
        <time>2015-04-13T19:47:01.318Z</time>
      </trkpt>
      <trkpt lat="48.89432" lon="2.39194">
        <ele>103.8</ele>
        <time>2015-04-13T19:47:02.342Z</time>
      </trkpt>
      <trkpt lat="48.89432" lon="2.39194">
        <ele>103.7</ele>
        <time>2015-04-13T19:47:45.364Z</time>
      </trkpt>
      <trkpt lat="48.89429" lon="2.39186">
        <ele>102.2</ele>
        <time>2015-04-13T19:47:46.310Z</time>
      </trkpt>
      <trkpt lat="48.89433" lon="2.39176">
        <ele>102.5</ele>
        <time>2015-04-13T19:47:55.703Z</time>
      </trkpt>
      <trkpt lat="48.89434" lon="2.39176">
        <ele>102.3</ele>
        <time>2015-04-13T19:47:56.340Z</time>
      </trkpt>
      <trkpt lat="48.89435" lon="2.39177">
        <ele>102.4</ele>
        <time>2015-04-13T19:49:18.277Z</time>
      </trkpt>
      <trkpt lat="48.89432" lon="2.39172">
        <ele>99.6</ele>
        <time>2015-04-13T19:49:19.291Z</time>
      </trkpt>
      <trkpt lat="48.89426" lon="2.39163">
        <ele>99.3</ele>
        <time>2015-04-13T19:49:25.435Z</time>
      </trkpt>
      <trkpt lat="48.89425" lon="2.39162">
        <ele>99.3</ele>
        <time>2015-04-13T19:49:26.409Z</time>
      </trkpt>
      <trkpt lat="48.89419" lon="2.39153">
        <ele>99.1</ele>
        <time>2015-04-13T19:49:30.448Z</time>
      </trkpt>
      <trkpt lat="48.89417" lon="2.39151">
        <ele>99.2</ele>
        <time>2015-04-13T19:49:31.349Z</time>
      </trkpt>
      <trkpt lat="48.89413" lon="2.39143">
        <ele>98.8</ele>
        <time>2015-04-13T19:49:34.381Z</time>
      </trkpt>
      <trkpt lat="48.89411" lon="2.3914">
        <ele>98.9</ele>
        <time>2015-04-13T19:49:35.392Z</time>
      </trkpt>
      <trkpt lat="48.89407" lon="2.39131">
        <ele>98.9</ele>
        <time>2015-04-13T19:49:38.360Z</time>
      </trkpt>
      <trkpt lat="48.89405" lon="2.39127">
        <ele>98.7</ele>
        <time>2015-04-13T19:49:39.373Z</time>
      </trkpt>
      <trkpt lat="48.894" lon="2.39117">
        <ele>98.8</ele>
        <time>2015-04-13T19:49:42.399Z</time>
      </trkpt>
      <trkpt lat="48.89399" lon="2.39113">
        <ele>99.2</ele>
        <time>2015-04-13T19:49:43.298Z</time>
      </trkpt>
      <trkpt lat="48.89395" lon="2.39106">
        <ele>99.5</ele>
        <time>2015-04-13T19:49:45.537Z</time>
      </trkpt>
      <trkpt lat="48.89393" lon="2.39102">
        <ele>99.4</ele>
        <time>2015-04-13T19:49:46.337Z</time>
      </trkpt>
      <trkpt lat="48.89389" lon="2.39094">
        <ele>99.1</ele>
        <time>2015-04-13T19:49:48.388Z</time>
      </trkpt>
      <trkpt lat="48.89387" lon="2.39091">
        <ele>99.3</ele>
        <time>2015-04-13T19:49:49.284Z</time>
      </trkpt>
      <trkpt lat="48.89382" lon="2.39081">
        <ele>99.6</ele>
        <time>2015-04-13T19:49:52.302Z</time>
      </trkpt>
      <trkpt lat="48.89381" lon="2.39078">
        <ele>99.6</ele>
        <time>2015-04-13T19:49:53.307Z</time>
      </trkpt>
      <trkpt lat="48.89375" lon="2.39069">
        <ele>99.8</ele>
        <time>2015-04-13T19:50:00.648Z</time>
      </trkpt>
      <trkpt lat="48.89374" lon="2.39067">
        <ele>99.9</ele>
        <time>2015-04-13T19:50:01.375Z</time>
      </trkpt>
      <trkpt lat="48.89374" lon="2.39065">
        <ele>99.9</ele>
        <time>2015-04-13T19:50:03.303Z</time>
      </trkpt>
      <trkpt lat="48.89374" lon="2.39065">
        <ele>99.9</ele>
        <time>2015-04-13T19:50:04.301Z</time>
      </trkpt>
      <trkpt lat="48.89373" lon="2.39064">
        <ele>99.8</ele>
        <time>2015-04-13T19:50:05.317Z</time>
      </trkpt>
      <trkpt lat="48.8937" lon="2.39056">
        <ele>100.3</ele>
        <time>2015-04-13T19:50:15.177Z</time>
      </trkpt>
      <trkpt lat="48.8937" lon="2.39056">
        <ele>100.3</ele>
        <time>2015-04-13T19:50:15.269Z</time>
      </trkpt>
      <trkpt lat="48.89371" lon="2.39056">
        <ele>100.1</ele>
        <time>2015-04-13T19:50:17.307Z</time>
      </trkpt>
      <trkpt lat="48.8937" lon="2.39055">
        <ele>100.2</ele>
        <time>2015-04-13T19:50:18.297Z</time>
      </trkpt>
      <trkpt lat="48.89364" lon="2.39045">
        <ele>100.8</ele>
        <time>2015-04-13T19:50:26.353Z</time>
      </trkpt>
      <trkpt lat="48.89363" lon="2.39044">
        <ele>100.8</ele>
        <time>2015-04-13T19:50:27.346Z</time>
      </trkpt>
      <trkpt lat="48.89359" lon="2.39033">
        <ele>101.1</ele>
        <time>2015-04-13T19:50:34.306Z</time>
      </trkpt>
      <trkpt lat="48.89358" lon="2.39031">
        <ele>101.3</ele>
        <time>2015-04-13T19:50:35.360Z</time>
      </trkpt>
      <trkpt lat="48.89353" lon="2.39022">
        <ele>101</ele>
        <time>2015-04-13T19:50:39.280Z</time>
      </trkpt>
      <trkpt lat="48.89352" lon="2.3902">
        <ele>100.8</ele>
        <time>2015-04-13T19:50:40.307Z</time>
      </trkpt>
      <trkpt lat="48.89347" lon="2.3901">
        <ele>100.9</ele>
        <time>2015-04-13T19:50:43.402Z</time>
      </trkpt>
      <trkpt lat="48.89345" lon="2.39008">
        <ele>101</ele>
        <time>2015-04-13T19:50:44.409Z</time>
      </trkpt>
      <trkpt lat="48.8934" lon="2.38998">
        <ele>100.8</ele>
        <time>2015-04-13T19:50:47.354Z</time>
      </trkpt>
      <trkpt lat="48.89338" lon="2.38994">
        <ele>100.8</ele>
        <time>2015-04-13T19:50:48.267Z</time>
      </trkpt>
      <trkpt lat="48.89334" lon="2.38987">
        <ele>100.8</ele>
        <time>2015-04-13T19:50:50.364Z</time>
      </trkpt>
      <trkpt lat="48.89332" lon="2.38982">
        <ele>100.7</ele>
        <time>2015-04-13T19:50:51.301Z</time>
      </trkpt>
      <trkpt lat="48.89327" lon="2.38974">
        <ele>100.6</ele>
        <time>2015-04-13T19:50:53.332Z</time>
      </trkpt>
      <trkpt lat="48.89325" lon="2.3897">
        <ele>100.5</ele>
        <time>2015-04-13T19:50:54.347Z</time>
      </trkpt>
      <trkpt lat="48.89321" lon="2.3896">
        <ele>100.5</ele>
        <time>2015-04-13T19:50:56.316Z</time>
      </trkpt>
      <trkpt lat="48.89318" lon="2.38956">
        <ele>100.7</ele>
        <time>2015-04-13T19:50:57.329Z</time>
      </trkpt>
      <trkpt lat="48.89315" lon="2.38946">
        <ele>100.8</ele>
        <time>2015-04-13T19:50:59.350Z</time>
      </trkpt>
      <trkpt lat="48.89312" lon="2.38941">
        <ele>100.7</ele>
        <time>2015-04-13T19:51:00.372Z</time>
      </trkpt>
      <trkpt lat="48.89307" lon="2.38933">
        <ele>100.6</ele>
        <time>2015-04-13T19:51:02.413Z</time>
      </trkpt>
      <trkpt lat="48.89305" lon="2.38928">
        <ele>100.4</ele>
        <time>2015-04-13T19:51:03.286Z</time>
      </trkpt>
      <trkpt lat="48.89301" lon="2.38919">
        <ele>100.4</ele>
        <time>2015-04-13T19:51:05.324Z</time>
      </trkpt>
      <trkpt lat="48.89299" lon="2.38915">
        <ele>100.4</ele>
        <time>2015-04-13T19:51:06.355Z</time>
      </trkpt>
      <trkpt lat="48.89294" lon="2.38906">
        <ele>100.5</ele>
        <time>2015-04-13T19:51:08.381Z</time>
      </trkpt>
      <trkpt lat="48.89292" lon="2.38902">
        <ele>100.4</ele>
        <time>2015-04-13T19:51:09.319Z</time>
      </trkpt>
      <trkpt lat="48.89288" lon="2.38893">
        <ele>99.9</ele>
        <time>2015-04-13T19:51:11.307Z</time>
      </trkpt>
      <trkpt lat="48.89286" lon="2.38889">
        <ele>100.1</ele>
        <time>2015-04-13T19:51:12.426Z</time>
      </trkpt>
      <trkpt lat="48.89282" lon="2.3888">
        <ele>100.1</ele>
        <time>2015-04-13T19:51:14.337Z</time>
      </trkpt>
      <trkpt lat="48.8928" lon="2.38875">
        <ele>100</ele>
        <time>2015-04-13T19:51:15.355Z</time>
      </trkpt>
      <trkpt lat="48.89275" lon="2.38868">
        <ele>100.2</ele>
        <time>2015-04-13T19:51:17.296Z</time>
      </trkpt>
      <trkpt lat="48.89273" lon="2.38864">
        <ele>100.2</ele>
        <time>2015-04-13T19:51:18.329Z</time>
      </trkpt>
      <trkpt lat="48.89268" lon="2.38854">
        <ele>100.2</ele>
        <time>2015-04-13T19:51:21.274Z</time>
      </trkpt>
      <trkpt lat="48.89267" lon="2.38851">
        <ele>100.3</ele>
        <time>2015-04-13T19:51:22.349Z</time>
      </trkpt>
      <trkpt lat="48.89262" lon="2.38842">
        <ele>99.2</ele>
        <time>2015-04-13T19:51:29.316Z</time>
      </trkpt>
      <trkpt lat="48.89262" lon="2.38841">
        <ele>98.9</ele>
        <time>2015-04-13T19:51:30.331Z</time>
      </trkpt>
      <trkpt lat="48.89262" lon="2.3884">
        <ele>98.8</ele>
        <time>2015-04-13T19:51:31.371Z</time>
      </trkpt>
      <trkpt lat="48.89261" lon="2.38829">
        <ele>98.7</ele>
        <time>2015-04-13T19:51:34.312Z</time>
      </trkpt>
      <trkpt lat="48.89257" lon="2.38825">
        <ele>98.6</ele>
        <time>2015-04-13T19:51:35.329Z</time>
      </trkpt>
      <trkpt lat="48.89254" lon="2.38821">
        <ele>98.4</ele>
        <time>2015-04-13T19:51:36.329Z</time>
      </trkpt>
      <trkpt lat="48.89251" lon="2.38815">
        <ele>97.9</ele>
        <time>2015-04-13T19:51:37.350Z</time>
      </trkpt>
      <trkpt lat="48.89247" lon="2.38809">
        <ele>97.5</ele>
        <time>2015-04-13T19:51:38.362Z</time>
      </trkpt>
      <trkpt lat="48.89243" lon="2.38803">
        <ele>97.3</ele>
        <time>2015-04-13T19:51:39.371Z</time>
      </trkpt>
      <trkpt lat="48.89239" lon="2.38797">
        <ele>97.1</ele>
        <time>2015-04-13T19:51:40.384Z</time>
      </trkpt>
      <trkpt lat="48.89236" lon="2.38792">
        <ele>96.8</ele>
        <time>2015-04-13T19:51:41.392Z</time>
      </trkpt>
      <trkpt lat="48.89231" lon="2.38782">
        <ele>96.9</ele>
        <time>2015-04-13T19:51:43.306Z</time>
      </trkpt>
      <trkpt lat="48.89228" lon="2.38777">
        <ele>96.9</ele>
        <time>2015-04-13T19:51:44.384Z</time>
      </trkpt>
      <trkpt lat="48.89225" lon="2.38771">
        <ele>97.9</ele>
        <time>2015-04-13T19:51:45.307Z</time>
      </trkpt>
      <trkpt lat="48.89221" lon="2.38766">
        <ele>98.6</ele>
        <time>2015-04-13T19:51:46.285Z</time>
      </trkpt>
      <trkpt lat="48.89218" lon="2.3876">
        <ele>98.8</ele>
        <time>2015-04-13T19:51:47.301Z</time>
      </trkpt>
      <trkpt lat="48.89215" lon="2.38755">
        <ele>98.7</ele>
        <time>2015-04-13T19:51:48.294Z</time>
      </trkpt>
      <trkpt lat="48.89212" lon="2.38749">
        <ele>98.8</ele>
        <time>2015-04-13T19:51:49.313Z</time>
      </trkpt>
      <trkpt lat="48.89209" lon="2.38744">
        <ele>98.6</ele>
        <time>2015-04-13T19:51:50.411Z</time>
      </trkpt>
      <trkpt lat="48.89205" lon="2.38732">
        <ele>98.1</ele>
        <time>2015-04-13T19:51:52.304Z</time>
      </trkpt>
      <trkpt lat="48.89203" lon="2.38727">
        <ele>98.1</ele>
        <time>2015-04-13T19:51:53.355Z</time>
      </trkpt>
      <trkpt lat="48.89198" lon="2.38717">
        <ele>98.4</ele>
        <time>2015-04-13T19:51:55.302Z</time>
      </trkpt>
      <trkpt lat="48.89196" lon="2.38714">
        <ele>98.5</ele>
        <time>2015-04-13T19:51:56.324Z</time>
      </trkpt>
      <trkpt lat="48.89192" lon="2.38702">
        <ele>98.5</ele>
        <time>2015-04-13T19:52:04.366Z</time>
      </trkpt>
      <trkpt lat="48.89192" lon="2.387">
        <ele>98.5</ele>
        <time>2015-04-13T19:52:05.289Z</time>
      </trkpt>
      <trkpt lat="48.89187" lon="2.38692">
        <ele>98.1</ele>
        <time>2015-04-13T19:52:09.333Z</time>
      </trkpt>
      <trkpt lat="48.89186" lon="2.3869">
        <ele>98</ele>
        <time>2015-04-13T19:52:10.345Z</time>
      </trkpt>
      <trkpt lat="48.89178" lon="2.38683">
        <ele>98.8</ele>
        <time>2015-04-13T19:52:14.404Z</time>
      </trkpt>
      <trkpt lat="48.89176" lon="2.38681">
        <ele>98.9</ele>
        <time>2015-04-13T19:52:15.277Z</time>
      </trkpt>
      <trkpt lat="48.89169" lon="2.38674">
        <ele>99.2</ele>
        <time>2015-04-13T19:52:19.350Z</time>
      </trkpt>
      <trkpt lat="48.89168" lon="2.38671">
        <ele>99.2</ele>
        <time>2015-04-13T19:52:20.390Z</time>
      </trkpt>
      <trkpt lat="48.89164" lon="2.38662">
        <ele>99</ele>
        <time>2015-04-13T19:52:22.292Z</time>
      </trkpt>
      <trkpt lat="48.89162" lon="2.38659">
        <ele>99.2</ele>
        <time>2015-04-13T19:52:23.321Z</time>
      </trkpt>
      <trkpt lat="48.89156" lon="2.38649">
        <ele>99.2</ele>
        <time>2015-04-13T19:52:26.399Z</time>
      </trkpt>
      <trkpt lat="48.89154" lon="2.38646">
        <ele>99.2</ele>
        <time>2015-04-13T19:52:27.401Z</time>
      </trkpt>
      <trkpt lat="48.8915" lon="2.38639">
        <ele>99.5</ele>
        <time>2015-04-13T19:52:30.244Z</time>
      </trkpt>
      <trkpt lat="48.89148" lon="2.38635">
        <ele>99.7</ele>
        <time>2015-04-13T19:52:30.336Z</time>
      </trkpt>
      <trkpt lat="48.89143" lon="2.38626">
        <ele>100.1</ele>
        <time>2015-04-13T19:52:32.415Z</time>
      </trkpt>
      <trkpt lat="48.8914" lon="2.38622">
        <ele>100.2</ele>
        <time>2015-04-13T19:52:33.326Z</time>
      </trkpt>
      <trkpt lat="48.89135" lon="2.38613">
        <ele>100.4</ele>
        <time>2015-04-13T19:52:35.397Z</time>
      </trkpt>
      <trkpt lat="48.89132" lon="2.38608">
        <ele>100.5</ele>
        <time>2015-04-13T19:52:36.292Z</time>
      </trkpt>
      <trkpt lat="48.89127" lon="2.38599">
        <ele>100.6</ele>
        <time>2015-04-13T19:52:38.406Z</time>
      </trkpt>
      <trkpt lat="48.89124" lon="2.38595">
        <ele>100.7</ele>
        <time>2015-04-13T19:52:39.311Z</time>
      </trkpt>
      <trkpt lat="48.89117" lon="2.38586">
        <ele>100.7</ele>
        <time>2015-04-13T19:52:42.336Z</time>
      </trkpt>
      <trkpt lat="48.89117" lon="2.38584">
        <ele>100.7</ele>
        <time>2015-04-13T19:52:43.379Z</time>
      </trkpt>
      <trkpt lat="48.89117" lon="2.38583">
        <ele>99.3</ele>
        <time>2015-04-13T19:52:44.326Z</time>
      </trkpt>
      <trkpt lat="48.89119" lon="2.3858">
        <ele>100.4</ele>
        <time>2015-04-13T19:52:45.342Z</time>
      </trkpt>
      <trkpt lat="48.8912" lon="2.38577">
        <ele>101</ele>
        <time>2015-04-13T19:54:25.284Z</time>
      </trkpt>
      <trkpt lat="48.89124" lon="2.38579">
        <ele>105.2</ele>
        <time>2015-04-13T19:54:26.331Z</time>
      </trkpt>
      <trkpt lat="48.89124" lon="2.38578">
        <ele>105.2</ele>
        <time>2015-04-13T19:54:27.330Z</time>
      </trkpt>
      <trkpt lat="48.89124" lon="2.38578">
        <ele>105.3</ele>
        <time>2015-04-13T19:54:28.350Z</time>
      </trkpt>
      <trkpt lat="48.89124" lon="2.38578">
        <ele>105.4</ele>
        <time>2015-04-13T19:54:33.286Z</time>
      </trkpt>
      <trkpt lat="48.89124" lon="2.38578">
        <ele>105.6</ele>
        <time>2015-04-13T19:54:34.300Z</time>
      </trkpt>
      <trkpt lat="48.89125" lon="2.38579">
        <ele>105.6</ele>
        <time>2015-04-13T19:54:35.524Z</time>
      </trkpt>
      <trkpt lat="48.89125" lon="2.38579">
        <ele>105.5</ele>
        <time>2015-04-13T19:54:36.330Z</time>
      </trkpt>
      <trkpt lat="48.89123" lon="2.38577">
        <ele>104.7</ele>
        <time>2015-04-13T19:54:37.350Z</time>
      </trkpt>
      <trkpt lat="48.89118" lon="2.38571">
        <ele>103.3</ele>
        <time>2015-04-13T19:54:39.265Z</time>
      </trkpt>
      <trkpt lat="48.89115" lon="2.38568">
        <ele>103.1</ele>
        <time>2015-04-13T19:54:40.282Z</time>
      </trkpt>
      <trkpt lat="48.89109" lon="2.38559">
        <ele>102.5</ele>
        <time>2015-04-13T19:54:42.331Z</time>
      </trkpt>
      <trkpt lat="48.89107" lon="2.38554">
        <ele>102.3</ele>
        <time>2015-04-13T19:54:43.451Z</time>
      </trkpt>
      <trkpt lat="48.89101" lon="2.38544">
        <ele>102</ele>
        <time>2015-04-13T19:54:45.705Z</time>
      </trkpt>
      <trkpt lat="48.89098" lon="2.38539">
        <ele>101.8</ele>
        <time>2015-04-13T19:54:46.310Z</time>
      </trkpt>
      <trkpt lat="48.89095" lon="2.38533">
        <ele>102.5</ele>
        <time>2015-04-13T19:54:47.309Z</time>
      </trkpt>
      <trkpt lat="48.89093" lon="2.38527">
        <ele>102.7</ele>
        <time>2015-04-13T19:54:48.314Z</time>
      </trkpt>
      <trkpt lat="48.8909" lon="2.38522">
        <ele>102.6</ele>
        <time>2015-04-13T19:54:49.340Z</time>
      </trkpt>
      <trkpt lat="48.89087" lon="2.38517">
        <ele>102.5</ele>
        <time>2015-04-13T19:54:50.340Z</time>
      </trkpt>
      <trkpt lat="48.89084" lon="2.38512">
        <ele>102.1</ele>
        <time>2015-04-13T19:54:51.374Z</time>
      </trkpt>
      <trkpt lat="48.8908" lon="2.38508">
        <ele>101.5</ele>
        <time>2015-04-13T19:54:52.380Z</time>
      </trkpt>
      <trkpt lat="48.89077" lon="2.38503">
        <ele>101.4</ele>
        <time>2015-04-13T19:54:53.301Z</time>
      </trkpt>
      <trkpt lat="48.89074" lon="2.38497">
        <ele>101.4</ele>
        <time>2015-04-13T19:54:54.300Z</time>
      </trkpt>
      <trkpt lat="48.89069" lon="2.38487">
        <ele>101</ele>
        <time>2015-04-13T19:54:56.352Z</time>
      </trkpt>
      <trkpt lat="48.89067" lon="2.38482">
        <ele>100.9</ele>
        <time>2015-04-13T19:54:57.357Z</time>
      </trkpt>
      <trkpt lat="48.89062" lon="2.38473">
        <ele>100.4</ele>
        <time>2015-04-13T19:54:59.401Z</time>
      </trkpt>
      <trkpt lat="48.89059" lon="2.38468">
        <ele>100.2</ele>
        <time>2015-04-13T19:55:00.491Z</time>
      </trkpt>
      <trkpt lat="48.89053" lon="2.38461">
        <ele>100.2</ele>
        <time>2015-04-13T19:55:02.399Z</time>
      </trkpt>
      <trkpt lat="48.8905" lon="2.38458">
        <ele>100.2</ele>
        <time>2015-04-13T19:55:03.263Z</time>
      </trkpt>
      <trkpt lat="48.89045" lon="2.38451">
        <ele>100.4</ele>
        <time>2015-04-13T19:55:05.368Z</time>
      </trkpt>
      <trkpt lat="48.89043" lon="2.38447">
        <ele>100.4</ele>
        <time>2015-04-13T19:55:06.391Z</time>
      </trkpt>
      <trkpt lat="48.8904" lon="2.38438">
        <ele>100.4</ele>
        <time>2015-04-13T19:55:08.329Z</time>
      </trkpt>
      <trkpt lat="48.89038" lon="2.38434">
        <ele>100.5</ele>
        <time>2015-04-13T19:55:09.341Z</time>
      </trkpt>
      <trkpt lat="48.89034" lon="2.38426">
        <ele>100.4</ele>
        <time>2015-04-13T19:55:11.393Z</time>
      </trkpt>
      <trkpt lat="48.89031" lon="2.38422">
        <ele>100.1</ele>
        <time>2015-04-13T19:55:12.328Z</time>
      </trkpt>
      <trkpt lat="48.89026" lon="2.38413">
        <ele>99.6</ele>
        <time>2015-04-13T19:55:14.328Z</time>
      </trkpt>
      <trkpt lat="48.89024" lon="2.38408">
        <ele>99.4</ele>
        <time>2015-04-13T19:55:15.351Z</time>
      </trkpt>
      <trkpt lat="48.89019" lon="2.38399">
        <ele>99.2</ele>
        <time>2015-04-13T19:55:17.315Z</time>
      </trkpt>
      <trkpt lat="48.89017" lon="2.38395">
        <ele>99.1</ele>
        <time>2015-04-13T19:55:18.312Z</time>
      </trkpt>
      <trkpt lat="48.89013" lon="2.38384">
        <ele>99</ele>
        <time>2015-04-13T19:55:20.368Z</time>
      </trkpt>
      <trkpt lat="48.89011" lon="2.38379">
        <ele>98.9</ele>
        <time>2015-04-13T19:55:21.266Z</time>
      </trkpt>
      <trkpt lat="48.89008" lon="2.38369">
        <ele>98.8</ele>
        <time>2015-04-13T19:55:23.304Z</time>
      </trkpt>
      <trkpt lat="48.89006" lon="2.38364">
        <ele>98.8</ele>
        <time>2015-04-13T19:55:24.320Z</time>
      </trkpt>
      <trkpt lat="48.89002" lon="2.38354">
        <ele>98.9</ele>
        <time>2015-04-13T19:55:26.395Z</time>
      </trkpt>
      <trkpt lat="48.89001" lon="2.38348">
        <ele>99</ele>
        <time>2015-04-13T19:55:27.278Z</time>
      </trkpt>
      <trkpt lat="48.88996" lon="2.38339">
        <ele>99.2</ele>
        <time>2015-04-13T19:55:29.352Z</time>
      </trkpt>
      <trkpt lat="48.88994" lon="2.38335">
        <ele>99</ele>
        <time>2015-04-13T19:55:30.351Z</time>
      </trkpt>
      <trkpt lat="48.88988" lon="2.38325">
        <ele>99.1</ele>
        <time>2015-04-13T19:55:33.323Z</time>
      </trkpt>
      <trkpt lat="48.88987" lon="2.38322">
        <ele>99.5</ele>
        <time>2015-04-13T19:55:34.341Z</time>
      </trkpt>
      <trkpt lat="48.88984" lon="2.38312">
        <ele>100.1</ele>
        <time>2015-04-13T19:55:37.318Z</time>
      </trkpt>
      <trkpt lat="48.88982" lon="2.38309">
        <ele>100.1</ele>
        <time>2015-04-13T19:55:38.332Z</time>
      </trkpt>
      <trkpt lat="48.88978" lon="2.38301">
        <ele>100.5</ele>
        <time>2015-04-13T19:55:40.255Z</time>
      </trkpt>
      <trkpt lat="48.88976" lon="2.38295">
        <ele>100.6</ele>
        <time>2015-04-13T19:55:41.309Z</time>
      </trkpt>
      <trkpt lat="48.88974" lon="2.38288">
        <ele>100.6</ele>
        <time>2015-04-13T19:55:42.341Z</time>
      </trkpt>
      <trkpt lat="48.88972" lon="2.38281">
        <ele>100.8</ele>
        <time>2015-04-13T19:55:43.389Z</time>
      </trkpt>
      <trkpt lat="48.8897" lon="2.38275">
        <ele>100.7</ele>
        <time>2015-04-13T19:55:44.332Z</time>
      </trkpt>
      <trkpt lat="48.88968" lon="2.38269">
        <ele>100.4</ele>
        <time>2015-04-13T19:55:45.351Z</time>
      </trkpt>
      <trkpt lat="48.88962" lon="2.38259">
        <ele>100.8</ele>
        <time>2015-04-13T19:55:47.296Z</time>
      </trkpt>
      <trkpt lat="48.88959" lon="2.38254">
        <ele>101.1</ele>
        <time>2015-04-13T19:55:48.309Z</time>
      </trkpt>
      <trkpt lat="48.88954" lon="2.38244">
        <ele>101.7</ele>
        <time>2015-04-13T19:55:50.311Z</time>
      </trkpt>
      <trkpt lat="48.88951" lon="2.38239">
        <ele>101.9</ele>
        <time>2015-04-13T19:55:51.326Z</time>
      </trkpt>
      <trkpt lat="48.88947" lon="2.38229">
        <ele>101.9</ele>
        <time>2015-04-13T19:55:53.359Z</time>
      </trkpt>
      <trkpt lat="48.88945" lon="2.38223">
        <ele>102.1</ele>
        <time>2015-04-13T19:55:54.365Z</time>
      </trkpt>
      <trkpt lat="48.8894" lon="2.38213">
        <ele>102.2</ele>
        <time>2015-04-13T19:55:56.327Z</time>
      </trkpt>
      <trkpt lat="48.88937" lon="2.38208">
        <ele>102.2</ele>
        <time>2015-04-13T19:55:57.342Z</time>
      </trkpt>
      <trkpt lat="48.88933" lon="2.38198">
        <ele>102.4</ele>
        <time>2015-04-13T19:55:59.282Z</time>
      </trkpt>
      <trkpt lat="48.8893" lon="2.38193">
        <ele>102.3</ele>
        <time>2015-04-13T19:56:00.291Z</time>
      </trkpt>
      <trkpt lat="48.88925" lon="2.38183">
        <ele>102.1</ele>
        <time>2015-04-13T19:56:02.317Z</time>
      </trkpt>
      <trkpt lat="48.88922" lon="2.38179">
        <ele>102</ele>
        <time>2015-04-13T19:56:03.322Z</time>
      </trkpt>
      <trkpt lat="48.88916" lon="2.38168">
        <ele>102.3</ele>
        <time>2015-04-13T19:56:05.362Z</time>
      </trkpt>
      <trkpt lat="48.88914" lon="2.38162">
        <ele>101.7</ele>
        <time>2015-04-13T19:56:06.294Z</time>
      </trkpt>
      <trkpt lat="48.88913" lon="2.38154">
        <ele>99.4</ele>
        <time>2015-04-13T19:56:07.303Z</time>
      </trkpt>
      <trkpt lat="48.8891" lon="2.38149">
        <ele>98.9</ele>
        <time>2015-04-13T19:56:08.334Z</time>
      </trkpt>
      <trkpt lat="48.88904" lon="2.38138">
        <ele>98.7</ele>
        <time>2015-04-13T19:56:10.373Z</time>
      </trkpt>
      <trkpt lat="48.88901" lon="2.38132">
        <ele>98.9</ele>
        <time>2015-04-13T19:56:11.305Z</time>
      </trkpt>
      <trkpt lat="48.88896" lon="2.38122">
        <ele>99.1</ele>
        <time>2015-04-13T19:56:13.379Z</time>
      </trkpt>
      <trkpt lat="48.88894" lon="2.38116">
        <ele>99.2</ele>
        <time>2015-04-13T19:56:14.361Z</time>
      </trkpt>
      <trkpt lat="48.88888" lon="2.38105">
        <ele>99.4</ele>
        <time>2015-04-13T19:56:16.285Z</time>
      </trkpt>
      <trkpt lat="48.88886" lon="2.381">
        <ele>99.5</ele>
        <time>2015-04-13T19:56:17.313Z</time>
      </trkpt>
      <trkpt lat="48.8888" lon="2.3809">
        <ele>99.2</ele>
        <time>2015-04-13T19:56:19.353Z</time>
      </trkpt>
      <trkpt lat="48.88877" lon="2.38085">
        <ele>99.1</ele>
        <time>2015-04-13T19:56:20.372Z</time>
      </trkpt>
      <trkpt lat="48.88872" lon="2.38076">
        <ele>98.8</ele>
        <time>2015-04-13T19:56:22.297Z</time>
      </trkpt>
      <trkpt lat="48.88868" lon="2.38072">
        <ele>98.7</ele>
        <time>2015-04-13T19:56:23.308Z</time>
      </trkpt>
      <trkpt lat="48.88863" lon="2.38063">
        <ele>98.5</ele>
        <time>2015-04-13T19:56:25.337Z</time>
      </trkpt>
      <trkpt lat="48.8886" lon="2.38058">
        <ele>98.5</ele>
        <time>2015-04-13T19:56:26.407Z</time>
      </trkpt>
      <trkpt lat="48.88854" lon="2.38047">
        <ele>98.4</ele>
        <time>2015-04-13T19:56:28.287Z</time>
      </trkpt>
      <trkpt lat="48.88852" lon="2.38041">
        <ele>98.4</ele>
        <time>2015-04-13T19:56:29.311Z</time>
      </trkpt>
      <trkpt lat="48.88846" lon="2.38032">
        <ele>98.5</ele>
        <time>2015-04-13T19:56:31.360Z</time>
      </trkpt>
      <trkpt lat="48.88844" lon="2.38027">
        <ele>98.5</ele>
        <time>2015-04-13T19:56:32.385Z</time>
      </trkpt>
      <trkpt lat="48.88838" lon="2.38018">
        <ele>98.1</ele>
        <time>2015-04-13T19:56:34.284Z</time>
      </trkpt>
      <trkpt lat="48.88835" lon="2.38014">
        <ele>97.9</ele>
        <time>2015-04-13T19:56:35.310Z</time>
      </trkpt>
      <trkpt lat="48.88831" lon="2.38006">
        <ele>97.7</ele>
        <time>2015-04-13T19:56:37.293Z</time>
      </trkpt>
      <trkpt lat="48.88829" lon="2.38001">
        <ele>97.6</ele>
        <time>2015-04-13T19:56:38.390Z</time>
      </trkpt>
      <trkpt lat="48.88825" lon="2.37993">
        <ele>97</ele>
        <time>2015-04-13T19:56:40.288Z</time>
      </trkpt>
      <trkpt lat="48.88823" lon="2.37989">
        <ele>96.8</ele>
        <time>2015-04-13T19:56:41.338Z</time>
      </trkpt>
      <trkpt lat="48.88817" lon="2.3798">
        <ele>95.7</ele>
        <time>2015-04-13T19:56:44.383Z</time>
      </trkpt>
      <trkpt lat="48.88816" lon="2.37978">
        <ele>95.6</ele>
        <time>2015-04-13T19:56:45.284Z</time>
      </trkpt>
      <trkpt lat="48.88814" lon="2.37974">
        <ele>95.7</ele>
        <time>2015-04-13T19:56:48.346Z</time>
      </trkpt>
      <trkpt lat="48.88815" lon="2.37973">
        <ele>95.7</ele>
        <time>2015-04-13T19:56:49.371Z</time>
      </trkpt>
      <trkpt lat="48.88815" lon="2.37973">
        <ele>95.7</ele>
        <time>2015-04-13T19:57:15.246Z</time>
      </trkpt>
      <trkpt lat="48.88817" lon="2.3797">
        <ele>98.6</ele>
        <time>2015-04-13T19:57:16.304Z</time>
      </trkpt>
      <trkpt lat="48.88809" lon="2.37977">
        <ele>97.8</ele>
        <time>2015-04-13T19:57:22.338Z</time>
      </trkpt>
      <trkpt lat="48.88808" lon="2.37979">
        <ele>98.1</ele>
        <time>2015-04-13T19:57:23.394Z</time>
      </trkpt>
      <trkpt lat="48.88802" lon="2.37986">
        <ele>98.2</ele>
        <time>2015-04-13T19:57:26.299Z</time>
      </trkpt>
      <trkpt lat="48.88801" lon="2.37988">
        <ele>98.3</ele>
        <time>2015-04-13T19:57:27.313Z</time>
      </trkpt>
      <trkpt lat="48.88797" lon="2.38">
        <ele>99</ele>
        <time>2015-04-13T19:57:33.362Z</time>
      </trkpt>
      <trkpt lat="48.88796" lon="2.38001">
        <ele>99.1</ele>
        <time>2015-04-13T19:57:34.272Z</time>
      </trkpt>
      <trkpt lat="48.88789" lon="2.38006">
        <ele>100.4</ele>
        <time>2015-04-13T19:57:39.379Z</time>
      </trkpt>
      <trkpt lat="48.88788" lon="2.38007">
        <ele>100.6</ele>
        <time>2015-04-13T19:57:40.272Z</time>
      </trkpt>
      <trkpt lat="48.88782" lon="2.38014">
        <ele>101.4</ele>
        <time>2015-04-13T19:57:43.338Z</time>
      </trkpt>
      <trkpt lat="48.88778" lon="2.38017">
        <ele>102.3</ele>
        <time>2015-04-13T19:57:44.352Z</time>
      </trkpt>
      <trkpt lat="48.8877" lon="2.38019">
        <ele>102.7</ele>
        <time>2015-04-13T19:57:46.263Z</time>
      </trkpt>
      <trkpt lat="48.88766" lon="2.38021">
        <ele>103.1</ele>
        <time>2015-04-13T19:57:47.290Z</time>
      </trkpt>
      <trkpt lat="48.8876" lon="2.38028">
        <ele>103.4</ele>
        <time>2015-04-13T19:57:49.367Z</time>
      </trkpt>
      <trkpt lat="48.88757" lon="2.38032">
        <ele>103.6</ele>
        <time>2015-04-13T19:57:50.451Z</time>
      </trkpt>
      <trkpt lat="48.88754" lon="2.38036">
        <ele>103.7</ele>
        <time>2015-04-13T19:57:51.268Z</time>
      </trkpt>
      <trkpt lat="48.88749" lon="2.38041">
        <ele>103.8</ele>
        <time>2015-04-13T19:57:52.278Z</time>
      </trkpt>
      <trkpt lat="48.88743" lon="2.38048">
        <ele>104</ele>
        <time>2015-04-13T19:57:54.317Z</time>
      </trkpt>
      <trkpt lat="48.88741" lon="2.38051">
        <ele>104.1</ele>
        <time>2015-04-13T19:57:55.370Z</time>
      </trkpt>
      <trkpt lat="48.88737" lon="2.38058">
        <ele>104.1</ele>
        <time>2015-04-13T19:57:57.262Z</time>
      </trkpt>
      <trkpt lat="48.88735" lon="2.38061">
        <ele>104.2</ele>
        <time>2015-04-13T19:57:58.282Z</time>
      </trkpt>
      <trkpt lat="48.88729" lon="2.38069">
        <ele>104.3</ele>
        <time>2015-04-13T19:58:00.324Z</time>
      </trkpt>
      <trkpt lat="48.88726" lon="2.38072">
        <ele>104.6</ele>
        <time>2015-04-13T19:58:01.414Z</time>
      </trkpt>
      <trkpt lat="48.88719" lon="2.3808">
        <ele>105</ele>
        <time>2015-04-13T19:58:03.312Z</time>
      </trkpt>
      <trkpt lat="48.88715" lon="2.38084">
        <ele>105.1</ele>
        <time>2015-04-13T19:58:04.323Z</time>
      </trkpt>
      <trkpt lat="48.88614" lon="2.38212">
        <ele>106</ele>
        <time>2015-04-13T19:58:31.229Z</time>
      </trkpt>
      <trkpt lat="48.88608" lon="2.38219">
        <ele>108.4</ele>
        <time>2015-04-13T19:58:33.299Z</time>
      </trkpt>
      <trkpt lat="48.88605" lon="2.38223">
        <ele>110.1</ele>
        <time>2015-04-13T19:58:34.306Z</time>
      </trkpt>
      <trkpt lat="48.88599" lon="2.38233">
        <ele>114.3</ele>
        <time>2015-04-13T19:58:37.288Z</time>
      </trkpt>
      <trkpt lat="48.88596" lon="2.38237">
        <ele>115.6</ele>
        <time>2015-04-13T19:58:38.296Z</time>
      </trkpt>
      <trkpt lat="48.88591" lon="2.38245">
        <ele>115.9</ele>
        <time>2015-04-13T19:58:40.337Z</time>
      </trkpt>
      <trkpt lat="48.88588" lon="2.38248">
        <ele>115.9</ele>
        <time>2015-04-13T19:58:41.326Z</time>
      </trkpt>
      <trkpt lat="48.88583" lon="2.38254">
        <ele>116.4</ele>
        <time>2015-04-13T19:58:43.342Z</time>
      </trkpt>
      <trkpt lat="48.8858" lon="2.38257">
        <ele>117</ele>
        <time>2015-04-13T19:58:44.362Z</time>
      </trkpt>
      <trkpt lat="48.88574" lon="2.38262">
        <ele>118.3</ele>
        <time>2015-04-13T19:58:46.454Z</time>
      </trkpt>
      <trkpt lat="48.88571" lon="2.38264">
        <ele>117.8</ele>
        <time>2015-04-13T19:58:47.333Z</time>
      </trkpt>
      <trkpt lat="48.88564" lon="2.38269">
        <ele>115.7</ele>
        <time>2015-04-13T19:58:49.340Z</time>
      </trkpt>
      <trkpt lat="48.88561" lon="2.38273">
        <ele>114.8</ele>
        <time>2015-04-13T19:58:50.357Z</time>
      </trkpt>
      <trkpt lat="48.88555" lon="2.38279">
        <ele>105.5</ele>
        <time>2015-04-13T19:58:51.491Z</time>
      </trkpt>
      <trkpt lat="48.88551" lon="2.38285">
        <ele>101.2</ele>
        <time>2015-04-13T19:58:52.276Z</time>
      </trkpt>
      <trkpt lat="48.88546" lon="2.38291">
        <ele>99.6</ele>
        <time>2015-04-13T19:58:53.292Z</time>
      </trkpt>
      <trkpt lat="48.88542" lon="2.38297">
        <ele>100</ele>
        <time>2015-04-13T19:58:54.302Z</time>
      </trkpt>
      <trkpt lat="48.88535" lon="2.38305">
        <ele>102.2</ele>
        <time>2015-04-13T19:58:55.317Z</time>
      </trkpt>
      <trkpt lat="48.88533" lon="2.38309">
        <ele>102.6</ele>
        <time>2015-04-13T19:58:56.330Z</time>
      </trkpt>
      <trkpt lat="48.88528" lon="2.38317">
        <ele>103.2</ele>
        <time>2015-04-13T19:58:58.262Z</time>
      </trkpt>
      <trkpt lat="48.88525" lon="2.3832">
        <ele>104.1</ele>
        <time>2015-04-13T19:58:59.274Z</time>
      </trkpt>
      <trkpt lat="48.88518" lon="2.38327">
        <ele>105.2</ele>
        <time>2015-04-13T19:59:01.342Z</time>
      </trkpt>
      <trkpt lat="48.88515" lon="2.38332">
        <ele>107.3</ele>
        <time>2015-04-13T19:59:02.341Z</time>
      </trkpt>
      <trkpt lat="48.88508" lon="2.3834">
        <ele>109.5</ele>
        <time>2015-04-13T19:59:04.357Z</time>
      </trkpt>
      <trkpt lat="48.88505" lon="2.38343">
        <ele>110</ele>
        <time>2015-04-13T19:59:05.281Z</time>
      </trkpt>
      <trkpt lat="48.88498" lon="2.38347">
        <ele>110.7</ele>
        <time>2015-04-13T19:59:07.298Z</time>
      </trkpt>
      <trkpt lat="48.88495" lon="2.38349">
        <ele>111.3</ele>
        <time>2015-04-13T19:59:08.311Z</time>
      </trkpt>
      <trkpt lat="48.8849" lon="2.38353">
        <ele>112.5</ele>
        <time>2015-04-13T19:59:11.300Z</time>
      </trkpt>
      <trkpt lat="48.88487" lon="2.38355">
        <ele>113.9</ele>
        <time>2015-04-13T19:59:12.385Z</time>
      </trkpt>
      <trkpt lat="48.8848" lon="2.3836">
        <ele>115.2</ele>
        <time>2015-04-13T19:59:15.169Z</time>
      </trkpt>
      <trkpt lat="48.88476" lon="2.38364">
        <ele>115.6</ele>
        <time>2015-04-13T19:59:15.234Z</time>
      </trkpt>
      <trkpt lat="48.88471" lon="2.3837">
        <ele>116.8</ele>
        <time>2015-04-13T19:59:17.310Z</time>
      </trkpt>
      <trkpt lat="48.88469" lon="2.38372">
        <ele>117.2</ele>
        <time>2015-04-13T19:59:18.327Z</time>
      </trkpt>
      <trkpt lat="48.88463" lon="2.38376">
        <ele>117.9</ele>
        <time>2015-04-13T19:59:20.345Z</time>
      </trkpt>
      <trkpt lat="48.8846" lon="2.38378">
        <ele>118.5</ele>
        <time>2015-04-13T19:59:21.253Z</time>
      </trkpt>
      <trkpt lat="48.88454" lon="2.38384">
        <ele>119.3</ele>
        <time>2015-04-13T19:59:23.297Z</time>
      </trkpt>
      <trkpt lat="48.88451" lon="2.38385">
        <ele>119.6</ele>
        <time>2015-04-13T19:59:24.436Z</time>
      </trkpt>
      <trkpt lat="48.88444" lon="2.3839">
        <ele>120.1</ele>
        <time>2015-04-13T19:59:26.290Z</time>
      </trkpt>
      <trkpt lat="48.88442" lon="2.38393">
        <ele>120.5</ele>
        <time>2015-04-13T19:59:27.346Z</time>
      </trkpt>
      <trkpt lat="48.88437" lon="2.38403">
        <ele>121.6</ele>
        <time>2015-04-13T19:59:30.413Z</time>
      </trkpt>
      <trkpt lat="48.88433" lon="2.38404">
        <ele>123.3</ele>
        <time>2015-04-13T19:59:31.296Z</time>
      </trkpt>
      <trkpt lat="48.88429" lon="2.38409">
        <ele>123.9</ele>
        <time>2015-04-13T19:59:33.337Z</time>
      </trkpt>
      <trkpt lat="48.88426" lon="2.38412">
        <ele>124.4</ele>
        <time>2015-04-13T19:59:34.350Z</time>
      </trkpt>
      <trkpt lat="48.88421" lon="2.38417">
        <ele>124.9</ele>
        <time>2015-04-13T19:59:35.436Z</time>
      </trkpt>
      <trkpt lat="48.88417" lon="2.38423">
        <ele>125.3</ele>
        <time>2015-04-13T19:59:36.262Z</time>
      </trkpt>
      <trkpt lat="48.88413" lon="2.38429">
        <ele>125.4</ele>
        <time>2015-04-13T19:59:37.319Z</time>
      </trkpt>
      <trkpt lat="48.8841" lon="2.38435">
        <ele>125.5</ele>
        <time>2015-04-13T19:59:38.331Z</time>
      </trkpt>
      <trkpt lat="48.88402" lon="2.38441">
        <ele>126.3</ele>
        <time>2015-04-13T19:59:40.560Z</time>
      </trkpt>
      <trkpt lat="48.88399" lon="2.38443">
        <ele>126.6</ele>
        <time>2015-04-13T19:59:41.319Z</time>
      </trkpt>
      <trkpt lat="48.88392" lon="2.38449">
        <ele>127.6</ele>
        <time>2015-04-13T19:59:44.328Z</time>
      </trkpt>
      <trkpt lat="48.8839" lon="2.38452">
        <ele>127.9</ele>
        <time>2015-04-13T19:59:45.328Z</time>
      </trkpt>
      <trkpt lat="48.88385" lon="2.38457">
        <ele>127.7</ele>
        <time>2015-04-13T19:59:47.278Z</time>
      </trkpt>
      <trkpt lat="48.88382" lon="2.3846">
        <ele>127.8</ele>
        <time>2015-04-13T19:59:48.267Z</time>
      </trkpt>
      <trkpt lat="48.88377" lon="2.38466">
        <ele>127.6</ele>
        <time>2015-04-13T19:59:50.853Z</time>
      </trkpt>
      <trkpt lat="48.88374" lon="2.38469">
        <ele>127.6</ele>
        <time>2015-04-13T19:59:51.300Z</time>
      </trkpt>
      <trkpt lat="48.88369" lon="2.38474">
        <ele>127.3</ele>
        <time>2015-04-13T19:59:53.329Z</time>
      </trkpt>
      <trkpt lat="48.88365" lon="2.38477">
        <ele>127.3</ele>
        <time>2015-04-13T19:59:54.346Z</time>
      </trkpt>
      <trkpt lat="48.88359" lon="2.38483">
        <ele>127.6</ele>
        <time>2015-04-13T19:59:56.253Z</time>
      </trkpt>
      <trkpt lat="48.88354" lon="2.38486">
        <ele>128</ele>
        <time>2015-04-13T19:59:57.273Z</time>
      </trkpt>
      <trkpt lat="48.8835" lon="2.3849">
        <ele>128.3</ele>
        <time>2015-04-13T19:59:58.317Z</time>
      </trkpt>
      <trkpt lat="48.88333" lon="2.38514">
        <ele>129.7</ele>
        <time>2015-04-13T20:00:02.304Z</time>
      </trkpt>
      <trkpt lat="48.88325" lon="2.38517">
        <ele>129.1</ele>
        <time>2015-04-13T20:00:05.318Z</time>
      </trkpt>
      <trkpt lat="48.88324" lon="2.38518">
        <ele>129.1</ele>
        <time>2015-04-13T20:00:06.321Z</time>
      </trkpt>
      <trkpt lat="48.88317" lon="2.38524">
        <ele>129.4</ele>
        <time>2015-04-13T20:00:16.302Z</time>
      </trkpt>
      <trkpt lat="48.88316" lon="2.38525">
        <ele>129.3</ele>
        <time>2015-04-13T20:00:17.284Z</time>
      </trkpt>
      <trkpt lat="48.88312" lon="2.38533">
        <ele>131.7</ele>
        <time>2015-04-13T20:00:28.263Z</time>
      </trkpt>
      <trkpt lat="48.88311" lon="2.38534">
        <ele>131.7</ele>
        <time>2015-04-13T20:00:29.277Z</time>
      </trkpt>
      <trkpt lat="48.88311" lon="2.38535">
        <ele>131.9</ele>
        <time>2015-04-13T20:00:31.308Z</time>
      </trkpt>
      <trkpt lat="48.8831" lon="2.38537">
        <ele>132</ele>
        <time>2015-04-13T20:00:32.322Z</time>
      </trkpt>
      <trkpt lat="48.88307" lon="2.38541">
        <ele>132.3</ele>
        <time>2015-04-13T20:00:35.475Z</time>
      </trkpt>
      <trkpt lat="48.88307" lon="2.38543">
        <ele>132.4</ele>
        <time>2015-04-13T20:00:36.364Z</time>
      </trkpt>
      <trkpt lat="48.88306" lon="2.38546">
        <ele>132.8</ele>
        <time>2015-04-13T20:00:38.398Z</time>
      </trkpt>
      <trkpt lat="48.88306" lon="2.38547">
        <ele>133</ele>
        <time>2015-04-13T20:00:39.269Z</time>
      </trkpt>
      <trkpt lat="48.88305" lon="2.38548">
        <ele>133.1</ele>
        <time>2015-04-13T20:00:41.293Z</time>
      </trkpt>
      <trkpt lat="48.88305" lon="2.38548">
        <ele>133.1</ele>
        <time>2015-04-13T20:00:42.319Z</time>
      </trkpt>
      <trkpt lat="48.88305" lon="2.38548">
        <ele>133.2</ele>
        <time>2015-04-13T20:00:45.632Z</time>
      </trkpt>
      <trkpt lat="48.88307" lon="2.38549">
        <ele>132.3</ele>
        <time>2015-04-13T20:00:46.374Z</time>
      </trkpt>
      <trkpt lat="48.88309" lon="2.38551">
        <ele>130.3</ele>
        <time>2015-04-13T20:00:49.338Z</time>
      </trkpt>
      <trkpt lat="48.88311" lon="2.38551">
        <ele>129.7</ele>
        <time>2015-04-13T20:00:50.353Z</time>
      </trkpt>
      <trkpt lat="48.88311" lon="2.38551">
        <ele>129.3</ele>
        <time>2015-04-13T20:00:52.288Z</time>
      </trkpt>
      <trkpt lat="48.88312" lon="2.38549">
        <ele>128.9</ele>
        <time>2015-04-13T20:00:53.268Z</time>
      </trkpt>
      <trkpt lat="48.88315" lon="2.38546">
        <ele>132.5</ele>
        <time>2015-04-13T20:01:00.939Z</time>
      </trkpt>
      <trkpt lat="48.88315" lon="2.38547">
        <ele>133.3</ele>
        <time>2015-04-13T20:01:01.330Z</time>
      </trkpt>
      <trkpt lat="48.88315" lon="2.38548">
        <ele>133.9</ele>
        <time>2015-04-13T20:01:03.247Z</time>
      </trkpt>
      <trkpt lat="48.88314" lon="2.3855">
        <ele>134.9</ele>
        <time>2015-04-13T20:01:04.288Z</time>
      </trkpt>
      <trkpt lat="48.88312" lon="2.38553">
        <ele>136.1</ele>
        <time>2015-04-13T20:01:07.319Z</time>
      </trkpt>
      <trkpt lat="48.88312" lon="2.38554">
        <ele>136.7</ele>
        <time>2015-04-13T20:01:08.342Z</time>
      </trkpt>
      <trkpt lat="48.88313" lon="2.38555">
        <ele>137.3</ele>
        <time>2015-04-13T20:01:12.289Z</time>
      </trkpt>
      <trkpt lat="48.88311" lon="2.3856">
        <ele>138.7</ele>
        <time>2015-04-13T20:01:13.286Z</time>
      </trkpt>
      <trkpt lat="48.88308" lon="2.38566">
        <ele>139.7</ele>
        <time>2015-04-13T20:01:16.332Z</time>
      </trkpt>
      <trkpt lat="48.88308" lon="2.38566">
        <ele>140</ele>
        <time>2015-04-13T20:01:17.342Z</time>
      </trkpt>
      <trkpt lat="48.88309" lon="2.38566">
        <ele>140.4</ele>
        <time>2015-04-13T20:01:18.257Z</time>
      </trkpt>
      <trkpt lat="48.88309" lon="2.38566">
        <ele>140.7</ele>
        <time>2015-04-13T20:01:19.370Z</time>
      </trkpt>
      <trkpt lat="48.88309" lon="2.38566">
        <ele>141.1</ele>
        <time>2015-04-13T20:01:20.425Z</time>
      </trkpt>
      <trkpt lat="48.8831" lon="2.38574">
        <ele>148.7</ele>
        <time>2015-04-13T20:01:42.289Z</time>
      </trkpt>
      <trkpt lat="48.8831" lon="2.38576">
        <ele>149.6</ele>
        <time>2015-04-13T20:01:43.318Z</time>
      </trkpt>
      <trkpt lat="48.88308" lon="2.38577">
        <ele>150.6</ele>
        <time>2015-04-13T20:01:44.345Z</time>
      </trkpt>
      <trkpt lat="48.88301" lon="2.38583">
        <ele>153.6</ele>
        <time>2015-04-13T20:01:47.288Z</time>
      </trkpt>
      <trkpt lat="48.88299" lon="2.38585">
        <ele>154.5</ele>
        <time>2015-04-13T20:01:48.311Z</time>
      </trkpt>
      <trkpt lat="48.88292" lon="2.3859">
        <ele>156.3</ele>
        <time>2015-04-13T20:01:50.663Z</time>
      </trkpt>
      <trkpt lat="48.88289" lon="2.38593">
        <ele>156.8</ele>
        <time>2015-04-13T20:01:51.340Z</time>
      </trkpt>
      <trkpt lat="48.88283" lon="2.38597">
        <ele>156.9</ele>
        <time>2015-04-13T20:01:53.367Z</time>
      </trkpt>
      <trkpt lat="48.88106" lon="2.38792">
        <ele>136.4</ele>
        <time>2015-04-13T20:02:30.271Z</time>
      </trkpt>
      <trkpt lat="48.88101" lon="2.38797">
        <ele>136.5</ele>
        <time>2015-04-13T20:02:31.287Z</time>
      </trkpt>
      <trkpt lat="48.88095" lon="2.38801">
        <ele>136.6</ele>
        <time>2015-04-13T20:02:32.334Z</time>
      </trkpt>
      <trkpt lat="48.8809" lon="2.38804">
        <ele>136.7</ele>
        <time>2015-04-13T20:02:33.341Z</time>
      </trkpt>
      <trkpt lat="48.87981" lon="2.38935">
        <ele>135.7</ele>
        <time>2015-04-13T20:03:09.354Z</time>
      </trkpt>
      <trkpt lat="48.87975" lon="2.3894">
        <ele>136.4</ele>
        <time>2015-04-13T20:03:12.298Z</time>
      </trkpt>
      <trkpt lat="48.87973" lon="2.38942">
        <ele>136.5</ele>
        <time>2015-04-13T20:03:13.321Z</time>
      </trkpt>
      <trkpt lat="48.87975" lon="2.38939">
        <ele>140.6</ele>
        <time>2015-04-13T20:04:32.370Z</time>
      </trkpt>
      <trkpt lat="48.87976" lon="2.3894">
        <ele>140.6</ele>
        <time>2015-04-13T20:04:33.281Z</time>
      </trkpt>
      <trkpt lat="48.87976" lon="2.3894">
        <ele>140.8</ele>
        <time>2015-04-13T20:04:34.294Z</time>
      </trkpt>
      <trkpt lat="48.87971" lon="2.38938">
        <ele>143.1</ele>
        <time>2015-04-13T20:05:31.315Z</time>
      </trkpt>
      <trkpt lat="48.87971" lon="2.38938">
        <ele>143.1</ele>
        <time>2015-04-13T20:05:32.332Z</time>
      </trkpt>
      <trkpt lat="48.87972" lon="2.38937">
        <ele>143.1</ele>
        <time>2015-04-13T20:05:33.346Z</time>
      </trkpt>
      <trkpt lat="48.87972" lon="2.38937">
        <ele>143.1</ele>
        <time>2015-04-13T20:05:34.288Z</time>
      </trkpt>
      <trkpt lat="48.87972" lon="2.38936">
        <ele>143.1</ele>
        <time>2015-04-13T20:05:35.313Z</time>
      </trkpt>
      <trkpt lat="48.87972" lon="2.38936">
        <ele>143.3</ele>
        <time>2015-04-13T20:06:00.286Z</time>
      </trkpt>
      <trkpt lat="48.87975" lon="2.38935">
        <ele>145.7</ele>
        <time>2015-04-13T20:06:01.300Z</time>
      </trkpt>
      <trkpt lat="48.87975" lon="2.38933">
        <ele>145.2</ele>
        <time>2015-04-13T20:06:06.357Z</time>
      </trkpt>
      <trkpt lat="48.87975" lon="2.38933">
        <ele>145.2</ele>
        <time>2015-04-13T20:06:07.370Z</time>
      </trkpt>
      <trkpt lat="48.87975" lon="2.38933">
        <ele>145.1</ele>
        <time>2015-04-13T20:06:16.362Z</time>
      </trkpt>
      <trkpt lat="48.87973" lon="2.38937">
        <ele>144.8</ele>
        <time>2015-04-13T20:06:17.260Z</time>
      </trkpt>
      <trkpt lat="48.87972" lon="2.38938">
        <ele>144.7</ele>
        <time>2015-04-13T20:06:19.274Z</time>
      </trkpt>
      <trkpt lat="48.87971" lon="2.38939">
        <ele>144.6</ele>
        <time>2015-04-13T20:06:20.315Z</time>
      </trkpt>
      <trkpt lat="48.87971" lon="2.38941">
        <ele>144.5</ele>
        <time>2015-04-13T20:06:30.231Z</time>
      </trkpt>
      <trkpt lat="48.87969" lon="2.38941">
        <ele>144.6</ele>
        <time>2015-04-13T20:06:31.248Z</time>
      </trkpt>
      <trkpt lat="48.87971" lon="2.38947">
        <ele>145.8</ele>
        <time>2015-04-13T20:06:55.228Z</time>
      </trkpt>
      <trkpt lat="48.87972" lon="2.38947">
        <ele>145.9</ele>
        <time>2015-04-13T20:06:56.263Z</time>
      </trkpt>
      <trkpt lat="48.87972" lon="2.38947">
        <ele>146</ele>
        <time>2015-04-13T20:06:57.277Z</time>
      </trkpt>
      <trkpt lat="48.87972" lon="2.38947">
        <ele>146.1</ele>
        <time>2015-04-13T20:06:58.304Z</time>
      </trkpt>
      <trkpt lat="48.87977" lon="2.38942">
        <ele>146.2</ele>
        <time>2015-04-13T20:08:14.380Z</time>
      </trkpt>
      <trkpt lat="48.87977" lon="2.38941">
        <ele>146.3</ele>
        <time>2015-04-13T20:08:15.238Z</time>
      </trkpt>
      <trkpt lat="48.87978" lon="2.38941">
        <ele>146.3</ele>
        <time>2015-04-13T20:09:12.283Z</time>
      </trkpt>
      <trkpt lat="48.87966" lon="2.38952">
        <ele>149.3</ele>
        <time>2015-04-13T20:09:13.290Z</time>
      </trkpt>
      <trkpt lat="48.87967" lon="2.3895">
        <ele>149.4</ele>
        <time>2015-04-13T20:09:14.329Z</time>
      </trkpt>
      <trkpt lat="48.87967" lon="2.38948">
        <ele>149.5</ele>
        <time>2015-04-13T20:09:15.338Z</time>
      </trkpt>
      <trkpt lat="48.87967" lon="2.38948">
        <ele>149.6</ele>
        <time>2015-04-13T20:09:33.367Z</time>
      </trkpt>
      <trkpt lat="48.87968" lon="2.38946">
        <ele>149.8</ele>
        <time>2015-04-13T20:09:34.379Z</time>
      </trkpt>
      <trkpt lat="48.87968" lon="2.38945">
        <ele>149.8</ele>
        <time>2015-04-13T20:09:35.311Z</time>
      </trkpt>
      <trkpt lat="48.87968" lon="2.38945">
        <ele>149.8</ele>
        <time>2015-04-13T20:09:36.348Z</time>
      </trkpt>
      <trkpt lat="48.87968" lon="2.38945">
        <ele>149.8</ele>
        <time>2015-04-13T20:10:10.435Z</time>
      </trkpt>
      <trkpt lat="48.87967" lon="2.38944">
        <ele>151.1</ele>
        <time>2015-04-13T20:10:10.461Z</time>
      </trkpt>
      <trkpt lat="48.87971" lon="2.38926">
        <ele>152.4</ele>
        <time>2015-04-13T20:10:22.250Z</time>
      </trkpt>
      <trkpt lat="48.87972" lon="2.38919">
        <ele>152.5</ele>
        <time>2015-04-13T20:10:24.313Z</time>
      </trkpt>
      <trkpt lat="48.87973" lon="2.38875">
        <ele>151.2</ele>
        <time>2015-04-13T20:10:32.308Z</time>
      </trkpt>
      <trkpt lat="48.87965" lon="2.38866">
        <ele>148.9</ele>
        <time>2015-04-13T20:10:33.372Z</time>
      </trkpt>
      <trkpt lat="48.87962" lon="2.38859">
        <ele>147.9</ele>
        <time>2015-04-13T20:10:34.259Z</time>
      </trkpt>
      <trkpt lat="48.87961" lon="2.38854">
        <ele>148</ele>
        <time>2015-04-13T20:10:35.307Z</time>
      </trkpt>
      <trkpt lat="48.87964" lon="2.38843">
        <ele>148.4</ele>
        <time>2015-04-13T20:10:37.324Z</time>
      </trkpt>
      <trkpt lat="48.87965" lon="2.38838">
        <ele>148.8</ele>
        <time>2015-04-13T20:10:38.341Z</time>
      </trkpt>
      <trkpt lat="48.8797" lon="2.38828">
        <ele>149.1</ele>
        <time>2015-04-13T20:10:40.277Z</time>
      </trkpt>
      <trkpt lat="48.87971" lon="2.38823">
        <ele>149.3</ele>
        <time>2015-04-13T20:10:41.295Z</time>
      </trkpt>
      <trkpt lat="48.87973" lon="2.38811">
        <ele>149.6</ele>
        <time>2015-04-13T20:10:43.341Z</time>
      </trkpt>
      <trkpt lat="48.87974" lon="2.38804">
        <ele>149.8</ele>
        <time>2015-04-13T20:10:44.360Z</time>
      </trkpt>
      <trkpt lat="48.87974" lon="2.38797">
        <ele>150</ele>
        <time>2015-04-13T20:10:45.287Z</time>
      </trkpt>
      <trkpt lat="48.87975" lon="2.38789">
        <ele>150.2</ele>
        <time>2015-04-13T20:10:46.297Z</time>
      </trkpt>
      <trkpt lat="48.87976" lon="2.38781">
        <ele>150.3</ele>
        <time>2015-04-13T20:10:47.408Z</time>
      </trkpt>
      <trkpt lat="48.87976" lon="2.38774">
        <ele>150.4</ele>
        <time>2015-04-13T20:10:48.329Z</time>
      </trkpt>
      <trkpt lat="48.87976" lon="2.38762">
        <ele>150.6</ele>
        <time>2015-04-13T20:10:50.348Z</time>
      </trkpt>
      <trkpt lat="48.87976" lon="2.38756">
        <ele>150.7</ele>
        <time>2015-04-13T20:10:51.359Z</time>
      </trkpt>
      <trkpt lat="48.87975" lon="2.38748">
        <ele>150.9</ele>
        <time>2015-04-13T20:10:52.440Z</time>
      </trkpt>
      <trkpt lat="48.87975" lon="2.38741">
        <ele>151</ele>
        <time>2015-04-13T20:10:53.254Z</time>
      </trkpt>
      <trkpt lat="48.87973" lon="2.3871">
        <ele>150.9</ele>
        <time>2015-04-13T20:10:57.309Z</time>
      </trkpt>
      <trkpt lat="48.87972" lon="2.38695">
        <ele>151</ele>
        <time>2015-04-13T20:10:59.335Z</time>
      </trkpt>
      <trkpt lat="48.87972" lon="2.38687">
        <ele>151</ele>
        <time>2015-04-13T20:11:00.407Z</time>
      </trkpt>
      <trkpt lat="48.87972" lon="2.3868">
        <ele>151</ele>
        <time>2015-04-13T20:11:01.242Z</time>
      </trkpt>
      <trkpt lat="48.87972" lon="2.38672">
        <ele>151</ele>
        <time>2015-04-13T20:11:02.307Z</time>
      </trkpt>
      <trkpt lat="48.87971" lon="2.38665">
        <ele>151.2</ele>
        <time>2015-04-13T20:11:03.314Z</time>
      </trkpt>
      <trkpt lat="48.87973" lon="2.38655">
        <ele>151.4</ele>
        <time>2015-04-13T20:11:05.324Z</time>
      </trkpt>
      <trkpt lat="48.87975" lon="2.3865">
        <ele>151.5</ele>
        <time>2015-04-13T20:11:06.330Z</time>
      </trkpt>
      <trkpt lat="48.87973" lon="2.38639">
        <ele>151</ele>
        <time>2015-04-13T20:11:08.359Z</time>
      </trkpt>
      <trkpt lat="48.87965" lon="2.3863">
        <ele>149.3</ele>
        <time>2015-04-13T20:11:09.276Z</time>
      </trkpt>
      <trkpt lat="48.8796" lon="2.38624">
        <ele>148.7</ele>
        <time>2015-04-13T20:11:10.317Z</time>
      </trkpt>
      <trkpt lat="48.87958" lon="2.38617">
        <ele>148.8</ele>
        <time>2015-04-13T20:11:11.335Z</time>
      </trkpt>
      <trkpt lat="48.87959" lon="2.38604">
        <ele>149</ele>
        <time>2015-04-13T20:11:13.397Z</time>
      </trkpt>
      <trkpt lat="48.87961" lon="2.38597">
        <ele>149.2</ele>
        <time>2015-04-13T20:11:14.396Z</time>
      </trkpt>
      <trkpt lat="48.87964" lon="2.38586">
        <ele>149.4</ele>
        <time>2015-04-13T20:11:15.283Z</time>
      </trkpt>
      <trkpt lat="48.87968" lon="2.3858">
        <ele>149.5</ele>
        <time>2015-04-13T20:11:16.273Z</time>
      </trkpt>
      <trkpt lat="48.87971" lon="2.38574">
        <ele>149.6</ele>
        <time>2015-04-13T20:11:17.723Z</time>
      </trkpt>
      <trkpt lat="48.87972" lon="2.38568">
        <ele>149.7</ele>
        <time>2015-04-13T20:11:18.312Z</time>
      </trkpt>
      <trkpt lat="48.87972" lon="2.38556">
        <ele>150.1</ele>
        <time>2015-04-13T20:11:20.345Z</time>
      </trkpt>
      <trkpt lat="48.87972" lon="2.38549">
        <ele>150.2</ele>
        <time>2015-04-13T20:11:21.244Z</time>
      </trkpt>
      <trkpt lat="48.87971" lon="2.38537">
        <ele>150.4</ele>
        <time>2015-04-13T20:11:23.310Z</time>
      </trkpt>
      <trkpt lat="48.8797" lon="2.3853">
        <ele>150.5</ele>
        <time>2015-04-13T20:11:24.342Z</time>
      </trkpt>
      <trkpt lat="48.87968" lon="2.38522">
        <ele>150.7</ele>
        <time>2015-04-13T20:11:25.371Z</time>
      </trkpt>
      <trkpt lat="48.87968" lon="2.38514">
        <ele>150.7</ele>
        <time>2015-04-13T20:11:26.378Z</time>
      </trkpt>
      <trkpt lat="48.87967" lon="2.38506">
        <ele>150.8</ele>
        <time>2015-04-13T20:11:27.318Z</time>
      </trkpt>
      <trkpt lat="48.87965" lon="2.38499">
        <ele>150.8</ele>
        <time>2015-04-13T20:11:28.299Z</time>
      </trkpt>
      <trkpt lat="48.87962" lon="2.38492">
        <ele>151</ele>
        <time>2015-04-13T20:11:29.360Z</time>
      </trkpt>
      <trkpt lat="48.87957" lon="2.38484">
        <ele>151.2</ele>
        <time>2015-04-13T20:11:30.312Z</time>
      </trkpt>
      <trkpt lat="48.87946" lon="2.38471">
        <ele>148.7</ele>
        <time>2015-04-13T20:11:31.333Z</time>
      </trkpt>
      <trkpt lat="48.87942" lon="2.38461">
        <ele>148.6</ele>
        <time>2015-04-13T20:11:32.340Z</time>
      </trkpt>
      <trkpt lat="48.8794" lon="2.38452">
        <ele>148.6</ele>
        <time>2015-04-13T20:11:33.412Z</time>
      </trkpt>
      <trkpt lat="48.87938" lon="2.38439">
        <ele>149</ele>
        <time>2015-04-13T20:11:34.279Z</time>
      </trkpt>
      <trkpt lat="48.87934" lon="2.38427">
        <ele>149.3</ele>
        <time>2015-04-13T20:11:35.279Z</time>
      </trkpt>
      <trkpt lat="48.87934" lon="2.3842">
        <ele>149.5</ele>
        <time>2015-04-13T20:11:36.289Z</time>
      </trkpt>
      <trkpt lat="48.87933" lon="2.38413">
        <ele>149.6</ele>
        <time>2015-04-13T20:11:37.301Z</time>
      </trkpt>
      <trkpt lat="48.87933" lon="2.38407">
        <ele>149.8</ele>
        <time>2015-04-13T20:11:38.316Z</time>
      </trkpt>
      <trkpt lat="48.87931" lon="2.38399">
        <ele>149.9</ele>
        <time>2015-04-13T20:11:39.326Z</time>
      </trkpt>
      <trkpt lat="48.8793" lon="2.38392">
        <ele>150</ele>
        <time>2015-04-13T20:11:40.330Z</time>
      </trkpt>
      <trkpt lat="48.87928" lon="2.38386">
        <ele>150.1</ele>
        <time>2015-04-13T20:11:41.331Z</time>
      </trkpt>
      <trkpt lat="48.87926" lon="2.38373">
        <ele>150.3</ele>
        <time>2015-04-13T20:11:43.287Z</time>
      </trkpt>
      <trkpt lat="48.87925" lon="2.38366">
        <ele>150.4</ele>
        <time>2015-04-13T20:11:44.356Z</time>
      </trkpt>
      <trkpt lat="48.87921" lon="2.38332">
        <ele>150.7</ele>
        <time>2015-04-13T20:11:49.301Z</time>
      </trkpt>
      <trkpt lat="48.87918" lon="2.38324">
        <ele>150.9</ele>
        <time>2015-04-13T20:11:50.339Z</time>
      </trkpt>
      <trkpt lat="48.87914" lon="2.38318">
        <ele>151.5</ele>
        <time>2015-04-13T20:11:51.411Z</time>
      </trkpt>
      <trkpt lat="48.87914" lon="2.38318">
        <ele>151.5</ele>
        <time>2015-04-13T20:11:51.597Z</time>
      </trkpt>
      <trkpt lat="48.87877" lon="2.38253">
        <ele>149.3</ele>
        <time>2015-04-13T20:12:00.250Z</time>
      </trkpt>
      <trkpt lat="48.87871" lon="2.38246">
        <ele>148.3</ele>
        <time>2015-04-13T20:12:01.552Z</time>
      </trkpt>
      <trkpt lat="48.87865" lon="2.38238">
        <ele>147.5</ele>
        <time>2015-04-13T20:12:02.325Z</time>
      </trkpt>
      <trkpt lat="48.87861" lon="2.38231">
        <ele>147</ele>
        <time>2015-04-13T20:12:03.338Z</time>
      </trkpt>
      <trkpt lat="48.87856" lon="2.38225">
        <ele>146.4</ele>
        <time>2015-04-13T20:12:04.350Z</time>
      </trkpt>
      <trkpt lat="48.87849" lon="2.38219">
        <ele>144.8</ele>
        <time>2015-04-13T20:12:05.263Z</time>
      </trkpt>
      <trkpt lat="48.87844" lon="2.38213">
        <ele>144.2</ele>
        <time>2015-04-13T20:12:06.262Z</time>
      </trkpt>
      <trkpt lat="48.87841" lon="2.38206">
        <ele>144.1</ele>
        <time>2015-04-13T20:12:07.289Z</time>
      </trkpt>
      <trkpt lat="48.87836" lon="2.38199">
        <ele>144.3</ele>
        <time>2015-04-13T20:12:08.334Z</time>
      </trkpt>
      <trkpt lat="48.87832" lon="2.38192">
        <ele>144.2</ele>
        <time>2015-04-13T20:12:09.441Z</time>
      </trkpt>
      <trkpt lat="48.87828" lon="2.38186">
        <ele>143.7</ele>
        <time>2015-04-13T20:12:10.323Z</time>
      </trkpt>
      <trkpt lat="48.87823" lon="2.3818">
        <ele>143.4</ele>
        <time>2015-04-13T20:12:11.340Z</time>
      </trkpt>
      <trkpt lat="48.87819" lon="2.38174">
        <ele>143.4</ele>
        <time>2015-04-13T20:12:12.232Z</time>
      </trkpt>
      <trkpt lat="48.87814" lon="2.38167">
        <ele>143.3</ele>
        <time>2015-04-13T20:12:13.321Z</time>
      </trkpt>
      <trkpt lat="48.8781" lon="2.38162">
        <ele>143.1</ele>
        <time>2015-04-13T20:12:14.359Z</time>
      </trkpt>
      <trkpt lat="48.87804" lon="2.38157">
        <ele>143</ele>
        <time>2015-04-13T20:12:15.251Z</time>
      </trkpt>
      <trkpt lat="48.87799" lon="2.38152">
        <ele>142.8</ele>
        <time>2015-04-13T20:12:16.264Z</time>
      </trkpt>
      <trkpt lat="48.87795" lon="2.38147">
        <ele>142.6</ele>
        <time>2015-04-13T20:12:17.272Z</time>
      </trkpt>
      <trkpt lat="48.8779" lon="2.38143">
        <ele>142.4</ele>
        <time>2015-04-13T20:12:18.288Z</time>
      </trkpt>
      <trkpt lat="48.87786" lon="2.38139">
        <ele>142.1</ele>
        <time>2015-04-13T20:12:19.303Z</time>
      </trkpt>
      <trkpt lat="48.87781" lon="2.38137">
        <ele>141.9</ele>
        <time>2015-04-13T20:12:20.325Z</time>
      </trkpt>
      <trkpt lat="48.87774" lon="2.38138">
        <ele>141.5</ele>
        <time>2015-04-13T20:12:23.278Z</time>
      </trkpt>
      <trkpt lat="48.87766" lon="2.38139">
        <ele>139</ele>
        <time>2015-04-13T20:12:24.264Z</time>
      </trkpt>
      <trkpt lat="48.87746" lon="2.3813">
        <ele>138.8</ele>
        <time>2015-04-13T20:12:28.266Z</time>
      </trkpt>
      <trkpt lat="48.87631" lon="2.38134">
        <ele>140.7</ele>
        <time>2015-04-13T20:12:52.264Z</time>
      </trkpt>
      <trkpt lat="48.87624" lon="2.38137">
        <ele>141</ele>
        <time>2015-04-13T20:12:54.309Z</time>
      </trkpt>
      <trkpt lat="48.8762" lon="2.3814">
        <ele>141.2</ele>
        <time>2015-04-13T20:12:55.302Z</time>
      </trkpt>
      <trkpt lat="48.87614" lon="2.38145">
        <ele>141.5</ele>
        <time>2015-04-13T20:12:56.407Z</time>
      </trkpt>
      <trkpt lat="48.8761" lon="2.38152">
        <ele>142.1</ele>
        <time>2015-04-13T20:13:00.294Z</time>
      </trkpt>
      <trkpt lat="48.87601" lon="2.38147">
        <ele>142.4</ele>
        <time>2015-04-13T20:13:10.351Z</time>
      </trkpt>
      <trkpt lat="48.876" lon="2.38146">
        <ele>142.5</ele>
        <time>2015-04-13T20:13:11.271Z</time>
      </trkpt>
      <trkpt lat="48.87599" lon="2.38145">
        <ele>142.5</ele>
        <time>2015-04-13T20:13:12.307Z</time>
      </trkpt>
      <trkpt lat="48.87599" lon="2.38145">
        <ele>142.6</ele>
        <time>2015-04-13T20:13:13.228Z</time>
      </trkpt>
      <trkpt lat="48.87596" lon="2.38153">
        <ele>142.7</ele>
        <time>2015-04-13T20:13:17.308Z</time>
      </trkpt>
      <trkpt lat="48.87593" lon="2.38157">
        <ele>142.7</ele>
        <time>2015-04-13T20:13:18.223Z</time>
      </trkpt>
      <trkpt lat="48.87587" lon="2.38165">
        <ele>143</ele>
        <time>2015-04-13T20:13:20.278Z</time>
      </trkpt>
      <trkpt lat="48.87584" lon="2.3817">
        <ele>143.3</ele>
        <time>2015-04-13T20:13:21.310Z</time>
      </trkpt>
      <trkpt lat="48.8758" lon="2.38179">
        <ele>143.5</ele>
        <time>2015-04-13T20:13:23.253Z</time>
      </trkpt>
      <trkpt lat="48.87578" lon="2.38183">
        <ele>143.6</ele>
        <time>2015-04-13T20:13:24.288Z</time>
      </trkpt>
      <trkpt lat="48.87572" lon="2.38188">
        <ele>143.5</ele>
        <time>2015-04-13T20:13:26.339Z</time>
      </trkpt>
      <trkpt lat="48.87569" lon="2.3819">
        <ele>143.6</ele>
        <time>2015-04-13T20:13:27.339Z</time>
      </trkpt>
      <trkpt lat="48.87562" lon="2.38196">
        <ele>143.8</ele>
        <time>2015-04-13T20:13:32.339Z</time>
      </trkpt>
      <trkpt lat="48.87561" lon="2.38196">
        <ele>144</ele>
        <time>2015-04-13T20:13:33.250Z</time>
      </trkpt>
      <trkpt lat="48.87561" lon="2.38196">
        <ele>144.1</ele>
        <time>2015-04-13T20:13:34.250Z</time>
      </trkpt>
      <trkpt lat="48.8756" lon="2.38196">
        <ele>144.1</ele>
        <time>2015-04-13T20:13:35.317Z</time>
      </trkpt>
      <trkpt lat="48.87557" lon="2.38196">
        <ele>144.3</ele>
        <time>2015-04-13T20:13:41.246Z</time>
      </trkpt>
      <trkpt lat="48.87557" lon="2.38196">
        <ele>144.4</ele>
        <time>2015-04-13T20:13:42.248Z</time>
      </trkpt>
      <trkpt lat="48.87556" lon="2.38196">
        <ele>144.4</ele>
        <time>2015-04-13T20:13:46.326Z</time>
      </trkpt>
      <trkpt lat="48.87553" lon="2.38195">
        <ele>144.7</ele>
        <time>2015-04-13T20:13:47.243Z</time>
      </trkpt>
      <trkpt lat="48.87548" lon="2.38191">
        <ele>144</ele>
        <time>2015-04-13T20:13:49.250Z</time>
      </trkpt>
      <trkpt lat="48.87511" lon="2.38156">
        <ele>142.4</ele>
        <time>2015-04-13T20:13:58.303Z</time>
      </trkpt>
      <trkpt lat="48.87506" lon="2.38152">
        <ele>142.5</ele>
        <time>2015-04-13T20:13:59.312Z</time>
      </trkpt>
      <trkpt lat="48.87503" lon="2.38149">
        <ele>142.4</ele>
        <time>2015-04-13T20:14:00.217Z</time>
      </trkpt>
      <trkpt lat="48.87496" lon="2.38143">
        <ele>142.5</ele>
        <time>2015-04-13T20:14:02.284Z</time>
      </trkpt>
      <trkpt lat="48.87492" lon="2.3814">
        <ele>142.5</ele>
        <time>2015-04-13T20:14:03.301Z</time>
      </trkpt>
      <trkpt lat="48.87488" lon="2.38137">
        <ele>142.4</ele>
        <time>2015-04-13T20:14:04.318Z</time>
      </trkpt>
      <trkpt lat="48.87484" lon="2.38133">
        <ele>142.2</ele>
        <time>2015-04-13T20:14:05.283Z</time>
      </trkpt>
      <trkpt lat="48.87478" lon="2.38127">
        <ele>142</ele>
        <time>2015-04-13T20:14:07.328Z</time>
      </trkpt>
      <trkpt lat="48.87475" lon="2.38124">
        <ele>142</ele>
        <time>2015-04-13T20:14:08.332Z</time>
      </trkpt>
      <trkpt lat="48.87468" lon="2.38117">
        <ele>142.1</ele>
        <time>2015-04-13T20:14:13.302Z</time>
      </trkpt>
      <trkpt lat="48.87467" lon="2.38118">
        <ele>142.3</ele>
        <time>2015-04-13T20:14:14.327Z</time>
      </trkpt>
      <trkpt lat="48.87464" lon="2.3813">
        <ele>141</ele>
        <time>2015-04-13T20:14:20.341Z</time>
      </trkpt>
      <trkpt lat="48.87464" lon="2.38129">
        <ele>140.9</ele>
        <time>2015-04-13T20:14:21.292Z</time>
      </trkpt>
      <trkpt lat="48.87465" lon="2.38127">
        <ele>140.9</ele>
        <time>2015-04-13T20:14:22.260Z</time>
      </trkpt>
      <trkpt lat="48.87469" lon="2.38117">
        <ele>140.6</ele>
        <time>2015-04-13T20:14:29.263Z</time>
      </trkpt>
      <trkpt lat="48.8747" lon="2.38115">
        <ele>140.2</ele>
        <time>2015-04-13T20:14:30.269Z</time>
      </trkpt>
      <trkpt lat="48.87474" lon="2.38105">
        <ele>140.1</ele>
        <time>2015-04-13T20:14:35.276Z</time>
      </trkpt>
      <trkpt lat="48.87475" lon="2.38101">
        <ele>139.7</ele>
        <time>2015-04-13T20:14:36.295Z</time>
      </trkpt>
      <trkpt lat="48.87476" lon="2.38097">
        <ele>139.6</ele>
        <time>2015-04-13T20:14:37.307Z</time>
      </trkpt>
      <trkpt lat="48.87479" lon="2.38086">
        <ele>139.2</ele>
        <time>2015-04-13T20:14:40.336Z</time>
      </trkpt>
      <trkpt lat="48.8748" lon="2.38077">
        <ele>138.8</ele>
        <time>2015-04-13T20:14:43.299Z</time>
      </trkpt>
      <trkpt lat="48.87481" lon="2.38073">
        <ele>138.6</ele>
        <time>2015-04-13T20:14:44.316Z</time>
      </trkpt>
      <trkpt lat="48.87482" lon="2.38062">
        <ele>137.3</ele>
        <time>2015-04-13T20:14:46.332Z</time>
      </trkpt>
      <trkpt lat="48.87479" lon="2.37916">
        <ele>139.4</ele>
        <time>2015-04-13T20:15:17.308Z</time>
      </trkpt>
      <trkpt lat="48.87481" lon="2.37914">
        <ele>139.6</ele>
        <time>2015-04-13T20:15:31.243Z</time>
      </trkpt>
      <trkpt lat="48.87481" lon="2.37914">
        <ele>139.6</ele>
        <time>2015-04-13T20:15:32.289Z</time>
      </trkpt>
      <trkpt lat="48.87481" lon="2.37915">
        <ele>139.6</ele>
        <time>2015-04-13T20:15:45.273Z</time>
      </trkpt>
      <trkpt lat="48.87474" lon="2.37911">
        <ele>140</ele>
        <time>2015-04-13T20:15:46.285Z</time>
      </trkpt>
      <trkpt lat="48.87467" lon="2.37906">
        <ele>138.1</ele>
        <time>2015-04-13T20:15:47.307Z</time>
      </trkpt>
      <trkpt lat="48.87462" lon="2.37901">
        <ele>136.8</ele>
        <time>2015-04-13T20:15:48.313Z</time>
      </trkpt>
      <trkpt lat="48.87457" lon="2.37897">
        <ele>135.7</ele>
        <time>2015-04-13T20:15:49.322Z</time>
      </trkpt>
      <trkpt lat="48.87453" lon="2.37893">
        <ele>135.6</ele>
        <time>2015-04-13T20:15:50.329Z</time>
      </trkpt>
      <trkpt lat="48.87451" lon="2.37888">
        <ele>135.7</ele>
        <time>2015-04-13T20:15:51.244Z</time>
      </trkpt>
      <trkpt lat="48.87445" lon="2.37865">
        <ele>135.6</ele>
        <time>2015-04-13T20:15:55.315Z</time>
      </trkpt>
      <trkpt lat="48.87445" lon="2.37855">
        <ele>135.3</ele>
        <time>2015-04-13T20:15:56.342Z</time>
      </trkpt>
      <trkpt lat="48.87442" lon="2.37846">
        <ele>135.4</ele>
        <time>2015-04-13T20:15:57.260Z</time>
      </trkpt>
      <trkpt lat="48.87421" lon="2.37787">
        <ele>134.1</ele>
        <time>2015-04-13T20:16:03.302Z</time>
      </trkpt>
      <trkpt lat="48.87418" lon="2.37781">
        <ele>134.1</ele>
        <time>2015-04-13T20:16:04.261Z</time>
      </trkpt>
      <trkpt lat="48.87398" lon="2.37759">
        <ele>135.2</ele>
        <time>2015-04-13T20:16:11.241Z</time>
      </trkpt>
      <trkpt lat="48.87393" lon="2.37758">
        <ele>135.5</ele>
        <time>2015-04-13T20:16:13.270Z</time>
      </trkpt>
      <trkpt lat="48.87204" lon="2.37725">
        <ele>120.9</ele>
        <time>2015-04-13T20:17:28.231Z</time>
      </trkpt>
      <trkpt lat="48.87208" lon="2.37717">
        <ele>121.9</ele>
        <time>2015-04-13T20:17:35.341Z</time>
      </trkpt>
      <trkpt lat="48.87208" lon="2.37713">
        <ele>120</ele>
        <time>2015-04-13T20:17:36.376Z</time>
      </trkpt>
      <trkpt lat="48.87208" lon="2.37712">
        <ele>120.1</ele>
        <time>2015-04-13T20:17:37.322Z</time>
      </trkpt>
      <trkpt lat="48.87209" lon="2.37709">
        <ele>120.4</ele>
        <time>2015-04-13T20:17:38.329Z</time>
      </trkpt>
      <trkpt lat="48.87211" lon="2.37707">
        <ele>120.7</ele>
        <time>2015-04-13T20:17:40.342Z</time>
      </trkpt>
      <trkpt lat="48.87212" lon="2.37704">
        <ele>120.8</ele>
        <time>2015-04-13T20:17:41.243Z</time>
      </trkpt>
      <trkpt lat="48.87213" lon="2.37702">
        <ele>120.8</ele>
        <time>2015-04-13T20:17:43.346Z</time>
      </trkpt>
      <trkpt lat="48.87214" lon="2.37701">
        <ele>120.9</ele>
        <time>2015-04-13T20:17:44.348Z</time>
      </trkpt>
      <trkpt lat="48.87214" lon="2.37699">
        <ele>121.4</ele>
        <time>2015-04-13T20:18:13.277Z</time>
      </trkpt>
      <trkpt lat="48.87213" lon="2.37695">
        <ele>123.3</ele>
        <time>2015-04-13T20:18:14.299Z</time>
      </trkpt>
      <trkpt lat="48.87206" lon="2.37689">
        <ele>123.4</ele>
        <time>2015-04-13T20:18:18.330Z</time>
      </trkpt>
      <trkpt lat="48.87204" lon="2.37688">
        <ele>123.2</ele>
        <time>2015-04-13T20:18:19.346Z</time>
      </trkpt>
      <trkpt lat="48.87198" lon="2.37678">
        <ele>126.7</ele>
        <time>2015-04-13T20:18:25.277Z</time>
      </trkpt>
      <trkpt lat="48.87198" lon="2.37677">
        <ele>126.5</ele>
        <time>2015-04-13T20:18:26.302Z</time>
      </trkpt>
      <trkpt lat="48.87195" lon="2.37666">
        <ele>126.6</ele>
        <time>2015-04-13T20:18:31.265Z</time>
      </trkpt>
      <trkpt lat="48.87195" lon="2.37663">
        <ele>126.8</ele>
        <time>2015-04-13T20:18:32.340Z</time>
      </trkpt>
      <trkpt lat="48.87191" lon="2.37652">
        <ele>126.9</ele>
        <time>2015-04-13T20:18:36.297Z</time>
      </trkpt>
      <trkpt lat="48.87189" lon="2.37649">
        <ele>126.5</ele>
        <time>2015-04-13T20:18:37.320Z</time>
      </trkpt>
      <trkpt lat="48.87184" lon="2.37644">
        <ele>125.3</ele>
        <time>2015-04-13T20:18:38.339Z</time>
      </trkpt>
      <trkpt lat="48.8718" lon="2.37639">
        <ele>124.7</ele>
        <time>2015-04-13T20:18:39.274Z</time>
      </trkpt>
      <trkpt lat="48.87176" lon="2.37629">
        <ele>124.2</ele>
        <time>2015-04-13T20:18:42.293Z</time>
      </trkpt>
      <trkpt lat="48.87176" lon="2.37626">
        <ele>124.1</ele>
        <time>2015-04-13T20:18:43.299Z</time>
      </trkpt>
      <trkpt lat="48.87174" lon="2.37615">
        <ele>124.2</ele>
        <time>2015-04-13T20:18:49.286Z</time>
      </trkpt>
      <trkpt lat="48.87173" lon="2.37612">
        <ele>124.1</ele>
        <time>2015-04-13T20:18:50.305Z</time>
      </trkpt>
      <trkpt lat="48.8717" lon="2.37603">
        <ele>124</ele>
        <time>2015-04-13T20:18:52.248Z</time>
      </trkpt>
      <trkpt lat="48.87168" lon="2.37599">
        <ele>124</ele>
        <time>2015-04-13T20:18:53.263Z</time>
      </trkpt>
      <trkpt lat="48.87163" lon="2.37589">
        <ele>124</ele>
        <time>2015-04-13T20:18:56.308Z</time>
      </trkpt>
      <trkpt lat="48.87162" lon="2.37585">
        <ele>124.1</ele>
        <time>2015-04-13T20:18:57.223Z</time>
      </trkpt>
      <trkpt lat="48.87159" lon="2.37577">
        <ele>124.3</ele>
        <time>2015-04-13T20:18:59.324Z</time>
      </trkpt>
      <trkpt lat="48.87158" lon="2.37573">
        <ele>124</ele>
        <time>2015-04-13T20:19:00.219Z</time>
      </trkpt>
      <trkpt lat="48.87154" lon="2.37563">
        <ele>123.7</ele>
        <time>2015-04-13T20:19:02.310Z</time>
      </trkpt>
      <trkpt lat="48.87153" lon="2.37557">
        <ele>123.7</ele>
        <time>2015-04-13T20:19:03.351Z</time>
      </trkpt>
      <trkpt lat="48.8715" lon="2.37546">
        <ele>123.7</ele>
        <time>2015-04-13T20:19:05.264Z</time>
      </trkpt>
      <trkpt lat="48.87148" lon="2.37541">
        <ele>123.6</ele>
        <time>2015-04-13T20:19:06.273Z</time>
      </trkpt>
      <trkpt lat="48.87146" lon="2.37532">
        <ele>123.2</ele>
        <time>2015-04-13T20:19:08.285Z</time>
      </trkpt>
      <trkpt lat="48.87145" lon="2.37526">
        <ele>123</ele>
        <time>2015-04-13T20:19:09.292Z</time>
      </trkpt>
      <trkpt lat="48.87139" lon="2.37518">
        <ele>121.6</ele>
        <time>2015-04-13T20:19:10.310Z</time>
      </trkpt>
      <trkpt lat="48.87134" lon="2.37512">
        <ele>120.8</ele>
        <time>2015-04-13T20:19:11.316Z</time>
      </trkpt>
      <trkpt lat="48.87131" lon="2.37506">
        <ele>119.7</ele>
        <time>2015-04-13T20:19:12.325Z</time>
      </trkpt>
      <trkpt lat="48.87127" lon="2.375">
        <ele>118.5</ele>
        <time>2015-04-13T20:19:13.337Z</time>
      </trkpt>
      <trkpt lat="48.87124" lon="2.37493">
        <ele>117.7</ele>
        <time>2015-04-13T20:19:14.349Z</time>
      </trkpt>
      <trkpt lat="48.87122" lon="2.37488">
        <ele>117.4</ele>
        <time>2015-04-13T20:19:15.262Z</time>
      </trkpt>
      <trkpt lat="48.87119" lon="2.37478">
        <ele>117.3</ele>
        <time>2015-04-13T20:19:17.251Z</time>
      </trkpt>
      <trkpt lat="48.87119" lon="2.37474">
        <ele>117.4</ele>
        <time>2015-04-13T20:19:18.259Z</time>
      </trkpt>
      <trkpt lat="48.87114" lon="2.37463">
        <ele>117.1</ele>
        <time>2015-04-13T20:19:21.210Z</time>
      </trkpt>
      <trkpt lat="48.87112" lon="2.37458">
        <ele>116.8</ele>
        <time>2015-04-13T20:19:22.217Z</time>
      </trkpt>
      <trkpt lat="48.87108" lon="2.37453">
        <ele>115.9</ele>
        <time>2015-04-13T20:19:23.248Z</time>
      </trkpt>
      <trkpt lat="48.87105" lon="2.37447">
        <ele>114.9</ele>
        <time>2015-04-13T20:19:24.252Z</time>
      </trkpt>
      <trkpt lat="48.871" lon="2.37437">
        <ele>113.7</ele>
        <time>2015-04-13T20:19:26.299Z</time>
      </trkpt>
      <trkpt lat="48.87098" lon="2.37432">
        <ele>113.2</ele>
        <time>2015-04-13T20:19:27.403Z</time>
      </trkpt>
      <trkpt lat="48.87092" lon="2.37422">
        <ele>111.8</ele>
        <time>2015-04-13T20:19:30.265Z</time>
      </trkpt>
      <trkpt lat="48.87091" lon="2.3742">
        <ele>111.4</ele>
        <time>2015-04-13T20:19:31.286Z</time>
      </trkpt>
      <trkpt lat="48.87089" lon="2.37417">
        <ele>111</ele>
        <time>2015-04-13T20:19:32.346Z</time>
      </trkpt>
      <trkpt lat="48.87085" lon="2.37408">
        <ele>110.5</ele>
        <time>2015-04-13T20:19:36.253Z</time>
      </trkpt>
      <trkpt lat="48.87083" lon="2.37398">
        <ele>110.5</ele>
        <time>2015-04-13T20:19:39.309Z</time>
      </trkpt>
      <trkpt lat="48.87082" lon="2.37393">
        <ele>110.2</ele>
        <time>2015-04-13T20:19:40.315Z</time>
      </trkpt>
      <trkpt lat="48.87081" lon="2.37384">
        <ele>110.2</ele>
        <time>2015-04-13T20:19:42.240Z</time>
      </trkpt>
      <trkpt lat="48.8708" lon="2.3738">
        <ele>110.3</ele>
        <time>2015-04-13T20:19:43.250Z</time>
      </trkpt>
      <trkpt lat="48.87078" lon="2.37368">
        <ele>110.6</ele>
        <time>2015-04-13T20:19:46.269Z</time>
      </trkpt>
      <trkpt lat="48.87077" lon="2.37362">
        <ele>110.6</ele>
        <time>2015-04-13T20:19:47.279Z</time>
      </trkpt>
      <trkpt lat="48.87075" lon="2.37351">
        <ele>110.6</ele>
        <time>2015-04-13T20:19:49.457Z</time>
      </trkpt>
      <trkpt lat="48.87074" lon="2.37345">
        <ele>110.7</ele>
        <time>2015-04-13T20:19:50.279Z</time>
      </trkpt>
      <trkpt lat="48.87069" lon="2.37339">
        <ele>109.4</ele>
        <time>2015-04-13T20:19:51.273Z</time>
      </trkpt>
      <trkpt lat="48.87064" lon="2.37333">
        <ele>107.3</ele>
        <time>2015-04-13T20:19:52.283Z</time>
      </trkpt>
      <trkpt lat="48.8706" lon="2.37328">
        <ele>107</ele>
        <time>2015-04-13T20:19:53.297Z</time>
      </trkpt>
      <trkpt lat="48.87057" lon="2.37323">
        <ele>106.8</ele>
        <time>2015-04-13T20:19:54.311Z</time>
      </trkpt>
      <trkpt lat="48.87052" lon="2.37313">
        <ele>106.5</ele>
        <time>2015-04-13T20:19:56.264Z</time>
      </trkpt>
      <trkpt lat="48.87037" lon="2.37274">
        <ele>106.8</ele>
        <time>2015-04-13T20:20:04.392Z</time>
      </trkpt>
      <trkpt lat="48.87035" lon="2.37261">
        <ele>106.9</ele>
        <time>2015-04-13T20:20:06.262Z</time>
      </trkpt>
      <trkpt lat="48.87033" lon="2.37255">
        <ele>106.9</ele>
        <time>2015-04-13T20:20:07.260Z</time>
      </trkpt>
      <trkpt lat="48.87032" lon="2.37248">
        <ele>107.2</ele>
        <time>2015-04-13T20:20:08.265Z</time>
      </trkpt>
      <trkpt lat="48.8703" lon="2.37241">
        <ele>107.4</ele>
        <time>2015-04-13T20:20:09.225Z</time>
      </trkpt>
      <trkpt lat="48.87028" lon="2.37229">
        <ele>107.7</ele>
        <time>2015-04-13T20:20:11.240Z</time>
      </trkpt>
      <trkpt lat="48.87027" lon="2.37223">
        <ele>107.6</ele>
        <time>2015-04-13T20:20:12.264Z</time>
      </trkpt>
      <trkpt lat="48.87024" lon="2.37213">
        <ele>108.1</ele>
        <time>2015-04-13T20:20:14.316Z</time>
      </trkpt>
      <trkpt lat="48.87023" lon="2.37207">
        <ele>108.3</ele>
        <time>2015-04-13T20:20:15.335Z</time>
      </trkpt>
      <trkpt lat="48.87019" lon="2.37196">
        <ele>108.8</ele>
        <time>2015-04-13T20:20:17.256Z</time>
      </trkpt>
      <trkpt lat="48.87017" lon="2.37191">
        <ele>109</ele>
        <time>2015-04-13T20:20:18.268Z</time>
      </trkpt>
      <trkpt lat="48.87014" lon="2.37182">
        <ele>109</ele>
        <time>2015-04-13T20:20:20.293Z</time>
      </trkpt>
      <trkpt lat="48.87013" lon="2.37176">
        <ele>109.3</ele>
        <time>2015-04-13T20:20:21.210Z</time>
      </trkpt>
      <trkpt lat="48.87011" lon="2.37165">
        <ele>109</ele>
        <time>2015-04-13T20:20:23.239Z</time>
      </trkpt>
      <trkpt lat="48.8701" lon="2.3716">
        <ele>108.5</ele>
        <time>2015-04-13T20:20:24.401Z</time>
      </trkpt>
      <trkpt lat="48.87005" lon="2.3715">
        <ele>107.1</ele>
        <time>2015-04-13T20:20:26.287Z</time>
      </trkpt>
      <trkpt lat="48.87004" lon="2.37147">
        <ele>107.2</ele>
        <time>2015-04-13T20:20:27.312Z</time>
      </trkpt>
      <trkpt lat="48.87001" lon="2.37137">
        <ele>108</ele>
        <time>2015-04-13T20:20:30.278Z</time>
      </trkpt>
      <trkpt lat="48.87" lon="2.37134">
        <ele>108.2</ele>
        <time>2015-04-13T20:20:31.294Z</time>
      </trkpt>
      <trkpt lat="48.87" lon="2.3713">
        <ele>109.5</ele>
        <time>2015-04-13T20:20:35.260Z</time>
      </trkpt>
      <trkpt lat="48.86999" lon="2.37129">
        <ele>109.6</ele>
        <time>2015-04-13T20:20:36.262Z</time>
      </trkpt>
      <trkpt lat="48.86999" lon="2.37127">
        <ele>110.7</ele>
        <time>2015-04-13T20:20:45.319Z</time>
      </trkpt>
      <trkpt lat="48.87001" lon="2.37116">
        <ele>118.8</ele>
        <time>2015-04-13T20:20:46.342Z</time>
      </trkpt>
      <trkpt lat="48.87009" lon="2.37115">
        <ele>121.9</ele>
        <time>2015-04-13T20:20:54.252Z</time>
      </trkpt>
      <trkpt lat="48.87008" lon="2.37116">
        <ele>122.2</ele>
        <time>2015-04-13T20:20:55.255Z</time>
      </trkpt>
      <trkpt lat="48.87008" lon="2.37115">
        <ele>122.5</ele>
        <time>2015-04-13T20:20:59.407Z</time>
      </trkpt>
      <trkpt lat="48.87007" lon="2.37117">
        <ele>122.9</ele>
        <time>2015-04-13T20:21:00.276Z</time>
      </trkpt>
      <trkpt lat="48.87002" lon="2.37108">
        <ele>123.8</ele>
        <time>2015-04-13T20:21:11.349Z</time>
      </trkpt>
      <trkpt lat="48.87001" lon="2.37103">
        <ele>124</ele>
        <time>2015-04-13T20:21:12.259Z</time>
      </trkpt>
      <trkpt lat="48.86999" lon="2.37094">
        <ele>124</ele>
        <time>2015-04-13T20:21:14.316Z</time>
      </trkpt>
      <trkpt lat="48.86998" lon="2.37089">
        <ele>123.9</ele>
        <time>2015-04-13T20:21:15.245Z</time>
      </trkpt>
      <trkpt lat="48.86995" lon="2.37082">
        <ele>123.3</ele>
        <time>2015-04-13T20:21:16.260Z</time>
      </trkpt>
      <trkpt lat="48.86993" lon="2.37076">
        <ele>123.2</ele>
        <time>2015-04-13T20:21:17.267Z</time>
      </trkpt>
      <trkpt lat="48.8699" lon="2.37066">
        <ele>123.1</ele>
        <time>2015-04-13T20:21:19.317Z</time>
      </trkpt>
      <trkpt lat="48.86987" lon="2.3706">
        <ele>123</ele>
        <time>2015-04-13T20:21:20.338Z</time>
      </trkpt>
      <trkpt lat="48.86985" lon="2.37049">
        <ele>122.9</ele>
        <time>2015-04-13T20:21:22.313Z</time>
      </trkpt>
      <trkpt lat="48.86984" lon="2.37045">
        <ele>123</ele>
        <time>2015-04-13T20:21:23.330Z</time>
      </trkpt>
      <trkpt lat="48.86982" lon="2.37035">
        <ele>123</ele>
        <time>2015-04-13T20:21:25.235Z</time>
      </trkpt>
      <trkpt lat="48.86981" lon="2.37031">
        <ele>122.8</ele>
        <time>2015-04-13T20:21:26.300Z</time>
      </trkpt>
      <trkpt lat="48.86978" lon="2.37018">
        <ele>122.3</ele>
        <time>2015-04-13T20:21:29.301Z</time>
      </trkpt>
      <trkpt lat="48.86976" lon="2.37015">
        <ele>122</ele>
        <time>2015-04-13T20:21:30.320Z</time>
      </trkpt>
      <trkpt lat="48.86972" lon="2.37004">
        <ele>121.7</ele>
        <time>2015-04-13T20:21:33.298Z</time>
      </trkpt>
      <trkpt lat="48.86971" lon="2.37">
        <ele>121.6</ele>
        <time>2015-04-13T20:21:34.303Z</time>
      </trkpt>
      <trkpt lat="48.86968" lon="2.36989">
        <ele>120.8</ele>
        <time>2015-04-13T20:21:37.233Z</time>
      </trkpt>
      <trkpt lat="48.86967" lon="2.36985">
        <ele>120.3</ele>
        <time>2015-04-13T20:21:38.275Z</time>
      </trkpt>
      <trkpt lat="48.86964" lon="2.36976">
        <ele>119.5</ele>
        <time>2015-04-13T20:21:40.302Z</time>
      </trkpt>
      <trkpt lat="48.86963" lon="2.36971">
        <ele>119.3</ele>
        <time>2015-04-13T20:21:41.329Z</time>
      </trkpt>
      <trkpt lat="48.86959" lon="2.3696">
        <ele>119.4</ele>
        <time>2015-04-13T20:21:43.249Z</time>
      </trkpt>
      <trkpt lat="48.86958" lon="2.36954">
        <ele>119.4</ele>
        <time>2015-04-13T20:21:44.344Z</time>
      </trkpt>
      <trkpt lat="48.86955" lon="2.36943">
        <ele>119.4</ele>
        <time>2015-04-13T20:21:46.880Z</time>
      </trkpt>
      <trkpt lat="48.86953" lon="2.36938">
        <ele>119.4</ele>
        <time>2015-04-13T20:21:47.261Z</time>
      </trkpt>
      <trkpt lat="48.8695" lon="2.3693">
        <ele>119.3</ele>
        <time>2015-04-13T20:21:49.296Z</time>
      </trkpt>
      <trkpt lat="48.86949" lon="2.36924">
        <ele>119.1</ele>
        <time>2015-04-13T20:21:50.411Z</time>
      </trkpt>
      <trkpt lat="48.86945" lon="2.36914">
        <ele>118.9</ele>
        <time>2015-04-13T20:21:52.263Z</time>
      </trkpt>
      <trkpt lat="48.86943" lon="2.3691">
        <ele>118.9</ele>
        <time>2015-04-13T20:21:53.300Z</time>
      </trkpt>
      <trkpt lat="48.86938" lon="2.36901">
        <ele>118.7</ele>
        <time>2015-04-13T20:21:55.432Z</time>
      </trkpt>
      <trkpt lat="48.86937" lon="2.36898">
        <ele>118.6</ele>
        <time>2015-04-13T20:21:56.339Z</time>
      </trkpt>
      <trkpt lat="48.86933" lon="2.36887">
        <ele>118.3</ele>
        <time>2015-04-13T20:21:59.260Z</time>
      </trkpt>
      <trkpt lat="48.86932" lon="2.36883">
        <ele>118.2</ele>
        <time>2015-04-13T20:22:00.266Z</time>
      </trkpt>
      <trkpt lat="48.86929" lon="2.36872">
        <ele>118.2</ele>
        <time>2015-04-13T20:22:02.362Z</time>
      </trkpt>
      <trkpt lat="48.86928" lon="2.36867">
        <ele>118.1</ele>
        <time>2015-04-13T20:22:03.216Z</time>
      </trkpt>
      <trkpt lat="48.86926" lon="2.36858">
        <ele>117.7</ele>
        <time>2015-04-13T20:22:05.256Z</time>
      </trkpt>
      <trkpt lat="48.8692" lon="2.36851">
        <ele>115.5</ele>
        <time>2015-04-13T20:22:06.295Z</time>
      </trkpt>
      <trkpt lat="48.86912" lon="2.36844">
        <ele>113.4</ele>
        <time>2015-04-13T20:22:07.199Z</time>
      </trkpt>
      <trkpt lat="48.86905" lon="2.36836">
        <ele>111.8</ele>
        <time>2015-04-13T20:22:08.224Z</time>
      </trkpt>
      <trkpt lat="48.869" lon="2.36829">
        <ele>110.4</ele>
        <time>2015-04-13T20:22:09.246Z</time>
      </trkpt>
      <trkpt lat="48.86895" lon="2.36823">
        <ele>108.9</ele>
        <time>2015-04-13T20:22:10.254Z</time>
      </trkpt>
      <trkpt lat="48.86891" lon="2.36818">
        <ele>107.5</ele>
        <time>2015-04-13T20:22:11.282Z</time>
      </trkpt>
      <trkpt lat="48.86887" lon="2.36813">
        <ele>106.5</ele>
        <time>2015-04-13T20:22:12.207Z</time>
      </trkpt>
      <trkpt lat="48.86883" lon="2.36804">
        <ele>105.1</ele>
        <time>2015-04-13T20:22:14.225Z</time>
      </trkpt>
      <trkpt lat="48.86881" lon="2.36799">
        <ele>104.6</ele>
        <time>2015-04-13T20:22:15.228Z</time>
      </trkpt>
      <trkpt lat="48.86878" lon="2.36788">
        <ele>103.5</ele>
        <time>2015-04-13T20:22:17.258Z</time>
      </trkpt>
      <trkpt lat="48.86878" lon="2.36783">
        <ele>103.2</ele>
        <time>2015-04-13T20:22:18.263Z</time>
      </trkpt>
      <trkpt lat="48.8688" lon="2.3677">
        <ele>100</ele>
        <time>2015-04-13T20:22:37.281Z</time>
      </trkpt>
      <trkpt lat="48.8688" lon="2.3677">
        <ele>100.1</ele>
        <time>2015-04-13T20:22:38.306Z</time>
      </trkpt>
      <trkpt lat="48.8688" lon="2.36769">
        <ele>100.1</ele>
        <time>2015-04-13T20:22:39.324Z</time>
      </trkpt>
      <trkpt lat="48.86881" lon="2.36769">
        <ele>100</ele>
        <time>2015-04-13T20:22:41.246Z</time>
      </trkpt>
      <trkpt lat="48.8688" lon="2.36769">
        <ele>99.2</ele>
        <time>2015-04-13T20:22:42.242Z</time>
      </trkpt>
      <trkpt lat="48.86879" lon="2.3677">
        <ele>98.2</ele>
        <time>2015-04-13T20:22:54.352Z</time>
      </trkpt>
      <trkpt lat="48.86877" lon="2.36768">
        <ele>95.9</ele>
        <time>2015-04-13T20:22:55.294Z</time>
      </trkpt>
      <trkpt lat="48.86875" lon="2.36757">
        <ele>94.2</ele>
        <time>2015-04-13T20:23:00.252Z</time>
      </trkpt>
      <trkpt lat="48.86874" lon="2.36754">
        <ele>94.4</ele>
        <time>2015-04-13T20:23:01.367Z</time>
      </trkpt>
      <trkpt lat="48.86868" lon="2.36745">
        <ele>94.5</ele>
        <time>2015-04-13T20:23:05.212Z</time>
      </trkpt>
      <trkpt lat="48.86867" lon="2.36743">
        <ele>94.5</ele>
        <time>2015-04-13T20:23:06.246Z</time>
      </trkpt>
      <trkpt lat="48.86863" lon="2.36732">
        <ele>94.8</ele>
        <time>2015-04-13T20:23:10.323Z</time>
      </trkpt>
      <trkpt lat="48.86863" lon="2.36728">
        <ele>94.6</ele>
        <time>2015-04-13T20:23:11.313Z</time>
      </trkpt>
      <trkpt lat="48.86864" lon="2.36715">
        <ele>95.1</ele>
        <time>2015-04-13T20:23:15.257Z</time>
      </trkpt>
      <trkpt lat="48.86863" lon="2.36711">
        <ele>95.3</ele>
        <time>2015-04-13T20:23:16.264Z</time>
      </trkpt>
      <trkpt lat="48.8686" lon="2.367">
        <ele>95.7</ele>
        <time>2015-04-13T20:23:18.276Z</time>
      </trkpt>
      <trkpt lat="48.86858" lon="2.36694">
        <ele>95.9</ele>
        <time>2015-04-13T20:23:19.295Z</time>
      </trkpt>
      <trkpt lat="48.86856" lon="2.36681">
        <ele>96.4</ele>
        <time>2015-04-13T20:23:21.350Z</time>
      </trkpt>
      <trkpt lat="48.86855" lon="2.36676">
        <ele>96.5</ele>
        <time>2015-04-13T20:23:22.224Z</time>
      </trkpt>
      <trkpt lat="48.86851" lon="2.36665">
        <ele>96.8</ele>
        <time>2015-04-13T20:23:24.242Z</time>
      </trkpt>
      <trkpt lat="48.8685" lon="2.36659">
        <ele>96.9</ele>
        <time>2015-04-13T20:23:25.260Z</time>
      </trkpt>
      <trkpt lat="48.86848" lon="2.36653">
        <ele>97.1</ele>
        <time>2015-04-13T20:23:26.368Z</time>
      </trkpt>
      <trkpt lat="48.86847" lon="2.36646">
        <ele>97.3</ele>
        <time>2015-04-13T20:23:27.331Z</time>
      </trkpt>
      <trkpt lat="48.86844" lon="2.3664">
        <ele>97.4</ele>
        <time>2015-04-13T20:23:28.227Z</time>
      </trkpt>
      <trkpt lat="48.86842" lon="2.36634">
        <ele>97.4</ele>
        <time>2015-04-13T20:23:29.241Z</time>
      </trkpt>
      <trkpt lat="48.8684" lon="2.36627">
        <ele>97.4</ele>
        <time>2015-04-13T20:23:30.252Z</time>
      </trkpt>
      <trkpt lat="48.86838" lon="2.3662">
        <ele>97.4</ele>
        <time>2015-04-13T20:23:31.306Z</time>
      </trkpt>
      <trkpt lat="48.86836" lon="2.36613">
        <ele>97.5</ele>
        <time>2015-04-13T20:23:32.354Z</time>
      </trkpt>
      <trkpt lat="48.86834" lon="2.36607">
        <ele>97.5</ele>
        <time>2015-04-13T20:23:33.268Z</time>
      </trkpt>
      <trkpt lat="48.86832" lon="2.366">
        <ele>97.7</ele>
        <time>2015-04-13T20:23:34.289Z</time>
      </trkpt>
      <trkpt lat="48.8683" lon="2.36594">
        <ele>97.8</ele>
        <time>2015-04-13T20:23:35.294Z</time>
      </trkpt>
      <trkpt lat="48.86828" lon="2.36588">
        <ele>97.8</ele>
        <time>2015-04-13T20:23:36.258Z</time>
      </trkpt>
      <trkpt lat="48.86826" lon="2.36581">
        <ele>97.8</ele>
        <time>2015-04-13T20:23:37.214Z</time>
      </trkpt>
      <trkpt lat="48.86823" lon="2.3657">
        <ele>97.7</ele>
        <time>2015-04-13T20:23:39.289Z</time>
      </trkpt>
      <trkpt lat="48.86821" lon="2.36564">
        <ele>97.7</ele>
        <time>2015-04-13T20:23:40.301Z</time>
      </trkpt>
      <trkpt lat="48.86819" lon="2.36557">
        <ele>97.8</ele>
        <time>2015-04-13T20:23:41.309Z</time>
      </trkpt>
      <trkpt lat="48.86817" lon="2.36551">
        <ele>97.9</ele>
        <time>2015-04-13T20:23:42.312Z</time>
      </trkpt>
      <trkpt lat="48.86813" lon="2.3654">
        <ele>98.4</ele>
        <time>2015-04-13T20:23:44.290Z</time>
      </trkpt>
      <trkpt lat="48.8681" lon="2.36534">
        <ele>98.4</ele>
        <time>2015-04-13T20:23:45.288Z</time>
      </trkpt>
      <trkpt lat="48.86807" lon="2.36529">
        <ele>98.5</ele>
        <time>2015-04-13T20:23:46.305Z</time>
      </trkpt>
      <trkpt lat="48.86803" lon="2.36524">
        <ele>98.8</ele>
        <time>2015-04-13T20:23:47.345Z</time>
      </trkpt>
      <trkpt lat="48.86797" lon="2.36518">
        <ele>98.1</ele>
        <time>2015-04-13T20:23:48.262Z</time>
      </trkpt>
      <trkpt lat="48.86792" lon="2.36511">
        <ele>97.3</ele>
        <time>2015-04-13T20:23:49.272Z</time>
      </trkpt>
      <trkpt lat="48.86785" lon="2.36503">
        <ele>95.6</ele>
        <time>2015-04-13T20:23:50.270Z</time>
      </trkpt>
      <trkpt lat="48.86781" lon="2.36497">
        <ele>95</ele>
        <time>2015-04-13T20:23:51.224Z</time>
      </trkpt>
      <trkpt lat="48.86777" lon="2.36491">
        <ele>94.5</ele>
        <time>2015-04-13T20:23:52.225Z</time>
      </trkpt>
      <trkpt lat="48.86773" lon="2.36486">
        <ele>94.3</ele>
        <time>2015-04-13T20:23:53.235Z</time>
      </trkpt>
      <trkpt lat="48.86767" lon="2.36477">
        <ele>93.6</ele>
        <time>2015-04-13T20:23:55.287Z</time>
      </trkpt>
      <trkpt lat="48.86765" lon="2.36471">
        <ele>93.3</ele>
        <time>2015-04-13T20:23:56.296Z</time>
      </trkpt>
      <trkpt lat="48.86763" lon="2.3646">
        <ele>92.9</ele>
        <time>2015-04-13T20:23:58.325Z</time>
      </trkpt>
      <trkpt lat="48.86764" lon="2.36453">
        <ele>92.6</ele>
        <time>2015-04-13T20:23:59.299Z</time>
      </trkpt>
      <trkpt lat="48.86766" lon="2.36441">
        <ele>92.4</ele>
        <time>2015-04-13T20:24:01.320Z</time>
      </trkpt>
      <trkpt lat="48.86766" lon="2.36436">
        <ele>92.4</ele>
        <time>2015-04-13T20:24:02.390Z</time>
      </trkpt>
      <trkpt lat="48.86763" lon="2.36423">
        <ele>92</ele>
        <time>2015-04-13T20:24:05.231Z</time>
      </trkpt>
      <trkpt lat="48.86762" lon="2.36419">
        <ele>92</ele>
        <time>2015-04-13T20:24:06.299Z</time>
      </trkpt>
      <trkpt lat="48.86761" lon="2.36405">
        <ele>92.3</ele>
        <time>2015-04-13T20:24:09.371Z</time>
      </trkpt>
      <trkpt lat="48.8676" lon="2.364">
        <ele>92.4</ele>
        <time>2015-04-13T20:24:10.247Z</time>
      </trkpt>
      <trkpt lat="48.86758" lon="2.36392">
        <ele>92.1</ele>
        <time>2015-04-13T20:24:12.260Z</time>
      </trkpt>
      <trkpt lat="48.86756" lon="2.36388">
        <ele>92.1</ele>
        <time>2015-04-13T20:24:13.278Z</time>
      </trkpt>
      <trkpt lat="48.86753" lon="2.3638">
        <ele>92</ele>
        <time>2015-04-13T20:24:15.321Z</time>
      </trkpt>
      <trkpt lat="48.86751" lon="2.36375">
        <ele>92.1</ele>
        <time>2015-04-13T20:24:16.334Z</time>
      </trkpt>
      <trkpt lat="48.86746" lon="2.36366">
        <ele>92</ele>
        <time>2015-04-13T20:24:19.302Z</time>
      </trkpt>
      <trkpt lat="48.86745" lon="2.36363">
        <ele>92.1</ele>
        <time>2015-04-13T20:24:20.313Z</time>
      </trkpt>
      <trkpt lat="48.86742" lon="2.36354">
        <ele>92.2</ele>
        <time>2015-04-13T20:24:23.301Z</time>
      </trkpt>
      <trkpt lat="48.86741" lon="2.36351">
        <ele>91.9</ele>
        <time>2015-04-13T20:24:24.310Z</time>
      </trkpt>
      <trkpt lat="48.86735" lon="2.36343">
        <ele>91.8</ele>
        <time>2015-04-13T20:24:27.292Z</time>
      </trkpt>
      <trkpt lat="48.86733" lon="2.3634">
        <ele>91.8</ele>
        <time>2015-04-13T20:24:28.312Z</time>
      </trkpt>
      <trkpt lat="48.86727" lon="2.36333">
        <ele>91.5</ele>
        <time>2015-04-13T20:24:30.332Z</time>
      </trkpt>
      <trkpt lat="48.86724" lon="2.36328">
        <ele>91.2</ele>
        <time>2015-04-13T20:24:31.331Z</time>
      </trkpt>
      <trkpt lat="48.86718" lon="2.36319">
        <ele>91.4</ele>
        <time>2015-04-13T20:24:33.253Z</time>
      </trkpt>
      <trkpt lat="48.86715" lon="2.36313">
        <ele>91.4</ele>
        <time>2015-04-13T20:24:34.253Z</time>
      </trkpt>
      <trkpt lat="48.86712" lon="2.36307">
        <ele>91.2</ele>
        <time>2015-04-13T20:24:35.261Z</time>
      </trkpt>
      <trkpt lat="48.86709" lon="2.36301">
        <ele>91.1</ele>
        <time>2015-04-13T20:24:36.271Z</time>
      </trkpt>
      <trkpt lat="48.86706" lon="2.36296">
        <ele>91</ele>
        <time>2015-04-13T20:24:37.309Z</time>
      </trkpt>
      <trkpt lat="48.86702" lon="2.36289">
        <ele>90.6</ele>
        <time>2015-04-13T20:24:38.320Z</time>
      </trkpt>
      <trkpt lat="48.86698" lon="2.36283">
        <ele>90.6</ele>
        <time>2015-04-13T20:24:39.328Z</time>
      </trkpt>
      <trkpt lat="48.86694" lon="2.36277">
        <ele>90.7</ele>
        <time>2015-04-13T20:24:40.333Z</time>
      </trkpt>
      <trkpt lat="48.8669" lon="2.36269">
        <ele>91.2</ele>
        <time>2015-04-13T20:24:41.246Z</time>
      </trkpt>
      <trkpt lat="48.86686" lon="2.36262">
        <ele>91.1</ele>
        <time>2015-04-13T20:24:42.252Z</time>
      </trkpt>
      <trkpt lat="48.86683" lon="2.36257">
        <ele>91.2</ele>
        <time>2015-04-13T20:24:43.269Z</time>
      </trkpt>
      <trkpt lat="48.86679" lon="2.3625">
        <ele>91.2</ele>
        <time>2015-04-13T20:24:44.282Z</time>
      </trkpt>
      <trkpt lat="48.86676" lon="2.36244">
        <ele>91.3</ele>
        <time>2015-04-13T20:24:45.280Z</time>
      </trkpt>
      <trkpt lat="48.86673" lon="2.36238">
        <ele>91.6</ele>
        <time>2015-04-13T20:24:46.287Z</time>
      </trkpt>
      <trkpt lat="48.8667" lon="2.36233">
        <ele>91.5</ele>
        <time>2015-04-13T20:24:47.303Z</time>
      </trkpt>
      <trkpt lat="48.86667" lon="2.36227">
        <ele>91.5</ele>
        <time>2015-04-13T20:24:48.306Z</time>
      </trkpt>
      <trkpt lat="48.86665" lon="2.36221">
        <ele>91.2</ele>
        <time>2015-04-13T20:24:49.319Z</time>
      </trkpt>
      <trkpt lat="48.86663" lon="2.36214">
        <ele>91</ele>
        <time>2015-04-13T20:24:50.329Z</time>
      </trkpt>
      <trkpt lat="48.86659" lon="2.36205">
        <ele>90.7</ele>
        <time>2015-04-13T20:24:52.272Z</time>
      </trkpt>
      <trkpt lat="48.86656" lon="2.362">
        <ele>90.5</ele>
        <time>2015-04-13T20:24:53.306Z</time>
      </trkpt>
      <trkpt lat="48.86653" lon="2.36195">
        <ele>90.7</ele>
        <time>2015-04-13T20:24:54.296Z</time>
      </trkpt>
      <trkpt lat="48.8665" lon="2.36189">
        <ele>90.9</ele>
        <time>2015-04-13T20:24:55.287Z</time>
      </trkpt>
      <trkpt lat="48.86647" lon="2.36183">
        <ele>91.3</ele>
        <time>2015-04-13T20:24:56.295Z</time>
      </trkpt>
      <trkpt lat="48.86645" lon="2.36178">
        <ele>91.6</ele>
        <time>2015-04-13T20:24:57.304Z</time>
      </trkpt>
      <trkpt lat="48.86642" lon="2.3617">
        <ele>93.6</ele>
        <time>2015-04-13T20:24:58.334Z</time>
      </trkpt>
      <trkpt lat="48.8664" lon="2.36164">
        <ele>94.4</ele>
        <time>2015-04-13T20:24:59.239Z</time>
      </trkpt>
      <trkpt lat="48.86639" lon="2.36157">
        <ele>94.3</ele>
        <time>2015-04-13T20:25:00.244Z</time>
      </trkpt>
      <trkpt lat="48.86638" lon="2.36148">
        <ele>94</ele>
        <time>2015-04-13T20:25:01.252Z</time>
      </trkpt>
      <trkpt lat="48.86638" lon="2.36139">
        <ele>94</ele>
        <time>2015-04-13T20:25:02.275Z</time>
      </trkpt>
      <trkpt lat="48.86637" lon="2.3613">
        <ele>93.9</ele>
        <time>2015-04-13T20:25:03.283Z</time>
      </trkpt>
      <trkpt lat="48.86637" lon="2.3612">
        <ele>93.8</ele>
        <time>2015-04-13T20:25:04.230Z</time>
      </trkpt>
      <trkpt lat="48.86636" lon="2.36111">
        <ele>93.5</ele>
        <time>2015-04-13T20:25:05.236Z</time>
      </trkpt>
      <trkpt lat="48.86635" lon="2.36103">
        <ele>93.4</ele>
        <time>2015-04-13T20:25:06.234Z</time>
      </trkpt>
      <trkpt lat="48.86634" lon="2.36093">
        <ele>93.4</ele>
        <time>2015-04-13T20:25:07.247Z</time>
      </trkpt>
      <trkpt lat="48.86632" lon="2.36084">
        <ele>93.3</ele>
        <time>2015-04-13T20:25:08.272Z</time>
      </trkpt>
      <trkpt lat="48.8663" lon="2.36075">
        <ele>93</ele>
        <time>2015-04-13T20:25:09.268Z</time>
      </trkpt>
      <trkpt lat="48.86628" lon="2.36065">
        <ele>92.8</ele>
        <time>2015-04-13T20:25:10.286Z</time>
      </trkpt>
      <trkpt lat="48.86626" lon="2.36056">
        <ele>92.6</ele>
        <time>2015-04-13T20:25:11.296Z</time>
      </trkpt>
      <trkpt lat="48.86623" lon="2.36048">
        <ele>92.6</ele>
        <time>2015-04-13T20:25:12.312Z</time>
      </trkpt>
      <trkpt lat="48.86621" lon="2.3604">
        <ele>92.3</ele>
        <time>2015-04-13T20:25:13.317Z</time>
      </trkpt>
      <trkpt lat="48.86619" lon="2.36031">
        <ele>92</ele>
        <time>2015-04-13T20:25:14.324Z</time>
      </trkpt>
      <trkpt lat="48.86617" lon="2.36021">
        <ele>91.7</ele>
        <time>2015-04-13T20:25:15.230Z</time>
      </trkpt>
      <trkpt lat="48.86615" lon="2.36011">
        <ele>91.6</ele>
        <time>2015-04-13T20:25:16.263Z</time>
      </trkpt>
      <trkpt lat="48.86613" lon="2.36001">
        <ele>91.2</ele>
        <time>2015-04-13T20:25:17.251Z</time>
      </trkpt>
      <trkpt lat="48.86611" lon="2.35991">
        <ele>91.2</ele>
        <time>2015-04-13T20:25:18.273Z</time>
      </trkpt>
      <trkpt lat="48.8661" lon="2.35981">
        <ele>91.3</ele>
        <time>2015-04-13T20:25:19.281Z</time>
      </trkpt>
      <trkpt lat="48.86608" lon="2.35972">
        <ele>91.1</ele>
        <time>2015-04-13T20:25:20.305Z</time>
      </trkpt>
      <trkpt lat="48.86607" lon="2.35961">
        <ele>91</ele>
        <time>2015-04-13T20:25:21.311Z</time>
      </trkpt>
      <trkpt lat="48.86605" lon="2.3595">
        <ele>91</ele>
        <time>2015-04-13T20:25:22.325Z</time>
      </trkpt>
      <trkpt lat="48.86604" lon="2.3594">
        <ele>91</ele>
        <time>2015-04-13T20:25:23.222Z</time>
      </trkpt>
      <trkpt lat="48.86603" lon="2.3593">
        <ele>90.8</ele>
        <time>2015-04-13T20:25:24.225Z</time>
      </trkpt>
      <trkpt lat="48.86602" lon="2.3592">
        <ele>90.6</ele>
        <time>2015-04-13T20:25:25.235Z</time>
      </trkpt>
      <trkpt lat="48.86601" lon="2.35911">
        <ele>90.4</ele>
        <time>2015-04-13T20:25:26.248Z</time>
      </trkpt>
      <trkpt lat="48.86601" lon="2.35902">
        <ele>90.4</ele>
        <time>2015-04-13T20:25:27.253Z</time>
      </trkpt>
      <trkpt lat="48.86599" lon="2.35892">
        <ele>90.5</ele>
        <time>2015-04-13T20:25:28.259Z</time>
      </trkpt>
      <trkpt lat="48.86597" lon="2.35883">
        <ele>90.5</ele>
        <time>2015-04-13T20:25:29.264Z</time>
      </trkpt>
      <trkpt lat="48.86596" lon="2.35873">
        <ele>90.7</ele>
        <time>2015-04-13T20:25:30.281Z</time>
      </trkpt>
      <trkpt lat="48.86594" lon="2.35862">
        <ele>90.5</ele>
        <time>2015-04-13T20:25:31.290Z</time>
      </trkpt>
      <trkpt lat="48.86592" lon="2.35853">
        <ele>90.6</ele>
        <time>2015-04-13T20:25:32.297Z</time>
      </trkpt>
      <trkpt lat="48.86591" lon="2.35844">
        <ele>90.8</ele>
        <time>2015-04-13T20:25:33.223Z</time>
      </trkpt>
      <trkpt lat="48.8659" lon="2.35826">
        <ele>91.1</ele>
        <time>2015-04-13T20:25:35.228Z</time>
      </trkpt>
      <trkpt lat="48.8659" lon="2.35816">
        <ele>91.4</ele>
        <time>2015-04-13T20:25:36.252Z</time>
      </trkpt>
      <trkpt lat="48.8659" lon="2.35808">
        <ele>91.3</ele>
        <time>2015-04-13T20:25:37.274Z</time>
      </trkpt>
      <trkpt lat="48.86589" lon="2.358">
        <ele>91.5</ele>
        <time>2015-04-13T20:25:38.304Z</time>
      </trkpt>
      <trkpt lat="48.86588" lon="2.35792">
        <ele>91.6</ele>
        <time>2015-04-13T20:25:39.312Z</time>
      </trkpt>
      <trkpt lat="48.86581" lon="2.3578">
        <ele>90.4</ele>
        <time>2015-04-13T20:25:40.208Z</time>
      </trkpt>
      <trkpt lat="48.86576" lon="2.35769">
        <ele>89.9</ele>
        <time>2015-04-13T20:25:41.239Z</time>
      </trkpt>
      <trkpt lat="48.86574" lon="2.35759">
        <ele>90</ele>
        <time>2015-04-13T20:25:42.273Z</time>
      </trkpt>
      <trkpt lat="48.86572" lon="2.3575">
        <ele>90.1</ele>
        <time>2015-04-13T20:25:43.292Z</time>
      </trkpt>
      <trkpt lat="48.8657" lon="2.35739">
        <ele>90.3</ele>
        <time>2015-04-13T20:25:44.305Z</time>
      </trkpt>
      <trkpt lat="48.8657" lon="2.35728">
        <ele>90.3</ele>
        <time>2015-04-13T20:25:45.305Z</time>
      </trkpt>
      <trkpt lat="48.86569" lon="2.35719">
        <ele>90.6</ele>
        <time>2015-04-13T20:25:46.271Z</time>
      </trkpt>
      <trkpt lat="48.86569" lon="2.35711">
        <ele>90.8</ele>
        <time>2015-04-13T20:25:47.291Z</time>
      </trkpt>
      <trkpt lat="48.86562" lon="2.357">
        <ele>88.7</ele>
        <time>2015-04-13T20:25:48.233Z</time>
      </trkpt>
      <trkpt lat="48.86556" lon="2.35689">
        <ele>87.8</ele>
        <time>2015-04-13T20:25:49.235Z</time>
      </trkpt>
      <trkpt lat="48.86553" lon="2.35679">
        <ele>87.9</ele>
        <time>2015-04-13T20:25:50.359Z</time>
      </trkpt>
      <trkpt lat="48.86551" lon="2.35669">
        <ele>88.4</ele>
        <time>2015-04-13T20:25:51.251Z</time>
      </trkpt>
      <trkpt lat="48.86551" lon="2.3566">
        <ele>88.8</ele>
        <time>2015-04-13T20:25:52.277Z</time>
      </trkpt>
      <trkpt lat="48.86551" lon="2.35651">
        <ele>89.3</ele>
        <time>2015-04-13T20:25:53.324Z</time>
      </trkpt>
      <trkpt lat="48.86551" lon="2.35643">
        <ele>89.8</ele>
        <time>2015-04-13T20:25:54.313Z</time>
      </trkpt>
      <trkpt lat="48.86548" lon="2.35633">
        <ele>90.9</ele>
        <time>2015-04-13T20:25:55.208Z</time>
      </trkpt>
      <trkpt lat="48.86547" lon="2.35625">
        <ele>91.1</ele>
        <time>2015-04-13T20:25:56.243Z</time>
      </trkpt>
      <trkpt lat="48.86546" lon="2.35618">
        <ele>91.4</ele>
        <time>2015-04-13T20:25:57.265Z</time>
      </trkpt>
      <trkpt lat="48.86539" lon="2.3561">
        <ele>90.5</ele>
        <time>2015-04-13T20:25:58.268Z</time>
      </trkpt>
      <trkpt lat="48.86534" lon="2.35605">
        <ele>90.2</ele>
        <time>2015-04-13T20:25:59.229Z</time>
      </trkpt>
      <trkpt lat="48.8653" lon="2.35598">
        <ele>89.7</ele>
        <time>2015-04-13T20:26:00.236Z</time>
      </trkpt>
      <trkpt lat="48.86525" lon="2.35592">
        <ele>89</ele>
        <time>2015-04-13T20:26:01.256Z</time>
      </trkpt>
      <trkpt lat="48.86521" lon="2.35587">
        <ele>88.6</ele>
        <time>2015-04-13T20:26:02.280Z</time>
      </trkpt>
      <trkpt lat="48.86517" lon="2.35584">
        <ele>88.5</ele>
        <time>2015-04-13T20:26:03.298Z</time>
      </trkpt>
      <trkpt lat="48.86513" lon="2.3558">
        <ele>88.3</ele>
        <time>2015-04-13T20:26:04.340Z</time>
      </trkpt>
      <trkpt lat="48.86508" lon="2.35576">
        <ele>88</ele>
        <time>2015-04-13T20:26:05.279Z</time>
      </trkpt>
      <trkpt lat="48.86504" lon="2.35573">
        <ele>88</ele>
        <time>2015-04-13T20:26:06.199Z</time>
      </trkpt>
      <trkpt lat="48.865" lon="2.3557">
        <ele>88</ele>
        <time>2015-04-13T20:26:07.224Z</time>
      </trkpt>
      <trkpt lat="48.86496" lon="2.35567">
        <ele>87.8</ele>
        <time>2015-04-13T20:26:08.258Z</time>
      </trkpt>
      <trkpt lat="48.86491" lon="2.35564">
        <ele>87.8</ele>
        <time>2015-04-13T20:26:09.269Z</time>
      </trkpt>
      <trkpt lat="48.86487" lon="2.35561">
        <ele>87.7</ele>
        <time>2015-04-13T20:26:10.302Z</time>
      </trkpt>
      <trkpt lat="48.86479" lon="2.35556">
        <ele>87.8</ele>
        <time>2015-04-13T20:26:12.240Z</time>
      </trkpt>
      <trkpt lat="48.86475" lon="2.35553">
        <ele>87.7</ele>
        <time>2015-04-13T20:26:13.260Z</time>
      </trkpt>
      <trkpt lat="48.86471" lon="2.35549">
        <ele>87.7</ele>
        <time>2015-04-13T20:26:14.261Z</time>
      </trkpt>
      <trkpt lat="48.86466" lon="2.35545">
        <ele>87.5</ele>
        <time>2015-04-13T20:26:15.273Z</time>
      </trkpt>
      <trkpt lat="48.86462" lon="2.35543">
        <ele>87.4</ele>
        <time>2015-04-13T20:26:16.305Z</time>
      </trkpt>
      <trkpt lat="48.86458" lon="2.3554">
        <ele>87.3</ele>
        <time>2015-04-13T20:26:17.317Z</time>
      </trkpt>
      <trkpt lat="48.86453" lon="2.35537">
        <ele>87.1</ele>
        <time>2015-04-13T20:26:18.226Z</time>
      </trkpt>
      <trkpt lat="48.86448" lon="2.35533">
        <ele>87.1</ele>
        <time>2015-04-13T20:26:19.263Z</time>
      </trkpt>
      <trkpt lat="48.86442" lon="2.3553">
        <ele>87</ele>
        <time>2015-04-13T20:26:20.297Z</time>
      </trkpt>
      <trkpt lat="48.86438" lon="2.35527">
        <ele>87</ele>
        <time>2015-04-13T20:26:21.314Z</time>
      </trkpt>
      <trkpt lat="48.86432" lon="2.35524">
        <ele>87.2</ele>
        <time>2015-04-13T20:26:22.228Z</time>
      </trkpt>
      <trkpt lat="48.86427" lon="2.35522">
        <ele>87.3</ele>
        <time>2015-04-13T20:26:23.237Z</time>
      </trkpt>
      <trkpt lat="48.86423" lon="2.35519">
        <ele>87.5</ele>
        <time>2015-04-13T20:26:24.246Z</time>
      </trkpt>
      <trkpt lat="48.86418" lon="2.35516">
        <ele>87.6</ele>
        <time>2015-04-13T20:26:25.252Z</time>
      </trkpt>
      <trkpt lat="48.86414" lon="2.35512">
        <ele>87.6</ele>
        <time>2015-04-13T20:26:26.267Z</time>
      </trkpt>
      <trkpt lat="48.86409" lon="2.35509">
        <ele>87.7</ele>
        <time>2015-04-13T20:26:27.278Z</time>
      </trkpt>
      <trkpt lat="48.86404" lon="2.35506">
        <ele>87.6</ele>
        <time>2015-04-13T20:26:28.222Z</time>
      </trkpt>
      <trkpt lat="48.86399" lon="2.35504">
        <ele>87.6</ele>
        <time>2015-04-13T20:26:29.217Z</time>
      </trkpt>
      <trkpt lat="48.86394" lon="2.35501">
        <ele>87.7</ele>
        <time>2015-04-13T20:26:30.215Z</time>
      </trkpt>
      <trkpt lat="48.86388" lon="2.35498">
        <ele>87.8</ele>
        <time>2015-04-13T20:26:31.230Z</time>
      </trkpt>
      <trkpt lat="48.86383" lon="2.35495">
        <ele>87.8</ele>
        <time>2015-04-13T20:26:32.267Z</time>
      </trkpt>
      <trkpt lat="48.86377" lon="2.35492">
        <ele>87.8</ele>
        <time>2015-04-13T20:26:33.274Z</time>
      </trkpt>
      <trkpt lat="48.86372" lon="2.35489">
        <ele>87.9</ele>
        <time>2015-04-13T20:26:34.282Z</time>
      </trkpt>
      <trkpt lat="48.86367" lon="2.35487">
        <ele>88</ele>
        <time>2015-04-13T20:26:35.241Z</time>
      </trkpt>
      <trkpt lat="48.86362" lon="2.35484">
        <ele>88</ele>
        <time>2015-04-13T20:26:36.258Z</time>
      </trkpt>
      <trkpt lat="48.86358" lon="2.3548">
        <ele>88</ele>
        <time>2015-04-13T20:26:37.274Z</time>
      </trkpt>
      <trkpt lat="48.86353" lon="2.35478">
        <ele>88</ele>
        <time>2015-04-13T20:26:38.273Z</time>
      </trkpt>
      <trkpt lat="48.86349" lon="2.35476">
        <ele>88</ele>
        <time>2015-04-13T20:26:39.275Z</time>
      </trkpt>
      <trkpt lat="48.86344" lon="2.35473">
        <ele>88.1</ele>
        <time>2015-04-13T20:26:40.295Z</time>
      </trkpt>
      <trkpt lat="48.8634" lon="2.3547">
        <ele>88.1</ele>
        <time>2015-04-13T20:26:41.301Z</time>
      </trkpt>
      <trkpt lat="48.86336" lon="2.35465">
        <ele>88.1</ele>
        <time>2015-04-13T20:26:42.212Z</time>
      </trkpt>
      <trkpt lat="48.86331" lon="2.35461">
        <ele>88.2</ele>
        <time>2015-04-13T20:26:43.230Z</time>
      </trkpt>
      <trkpt lat="48.86326" lon="2.35458">
        <ele>88.7</ele>
        <time>2015-04-13T20:26:44.243Z</time>
      </trkpt>
      <trkpt lat="48.86321" lon="2.35456">
        <ele>88.8</ele>
        <time>2015-04-13T20:26:45.260Z</time>
      </trkpt>
      <trkpt lat="48.86317" lon="2.35454">
        <ele>89</ele>
        <time>2015-04-13T20:26:46.269Z</time>
      </trkpt>
      <trkpt lat="48.86313" lon="2.35452">
        <ele>89.2</ele>
        <time>2015-04-13T20:26:47.272Z</time>
      </trkpt>
      <trkpt lat="48.86309" lon="2.35449">
        <ele>89.2</ele>
        <time>2015-04-13T20:26:48.285Z</time>
      </trkpt>
      <trkpt lat="48.86304" lon="2.35446">
        <ele>89.3</ele>
        <time>2015-04-13T20:26:49.293Z</time>
      </trkpt>
      <trkpt lat="48.86299" lon="2.35444">
        <ele>89.3</ele>
        <time>2015-04-13T20:26:50.309Z</time>
      </trkpt>
      <trkpt lat="48.86294" lon="2.35443">
        <ele>89.3</ele>
        <time>2015-04-13T20:26:51.222Z</time>
      </trkpt>
      <trkpt lat="48.8629" lon="2.35441">
        <ele>89.4</ele>
        <time>2015-04-13T20:26:52.291Z</time>
      </trkpt>
      <trkpt lat="48.86286" lon="2.35439">
        <ele>89.4</ele>
        <time>2015-04-13T20:26:53.309Z</time>
      </trkpt>
      <trkpt lat="48.86277" lon="2.35438">
        <ele>89.6</ele>
        <time>2015-04-13T20:26:55.247Z</time>
      </trkpt>
      <trkpt lat="48.86273" lon="2.35437">
        <ele>89.6</ele>
        <time>2015-04-13T20:26:56.372Z</time>
      </trkpt>
      <trkpt lat="48.86266" lon="2.35435">
        <ele>89.8</ele>
        <time>2015-04-13T20:26:58.243Z</time>
      </trkpt>
      <trkpt lat="48.86263" lon="2.35432">
        <ele>90</ele>
        <time>2015-04-13T20:26:59.265Z</time>
      </trkpt>
      <trkpt lat="48.86257" lon="2.35428">
        <ele>90</ele>
        <time>2015-04-13T20:27:01.227Z</time>
      </trkpt>
      <trkpt lat="48.86253" lon="2.35428">
        <ele>90.3</ele>
        <time>2015-04-13T20:27:02.270Z</time>
      </trkpt>
      <trkpt lat="48.86249" lon="2.35426">
        <ele>90.5</ele>
        <time>2015-04-13T20:27:03.213Z</time>
      </trkpt>
      <trkpt lat="48.86242" lon="2.35421">
        <ele>90.4</ele>
        <time>2015-04-13T20:27:05.283Z</time>
      </trkpt>
      <trkpt lat="48.86234" lon="2.35416">
        <ele>90.4</ele>
        <time>2015-04-13T20:27:07.243Z</time>
      </trkpt>
      <trkpt lat="48.86229" lon="2.35414">
        <ele>90.5</ele>
        <time>2015-04-13T20:27:08.284Z</time>
      </trkpt>
      <trkpt lat="48.86225" lon="2.35411">
        <ele>90.7</ele>
        <time>2015-04-13T20:27:09.296Z</time>
      </trkpt>
      <trkpt lat="48.8622" lon="2.35408">
        <ele>90.7</ele>
        <time>2015-04-13T20:27:10.306Z</time>
      </trkpt>
      <trkpt lat="48.86214" lon="2.35405">
        <ele>90.8</ele>
        <time>2015-04-13T20:27:11.219Z</time>
      </trkpt>
      <trkpt lat="48.86209" lon="2.35402">
        <ele>90.8</ele>
        <time>2015-04-13T20:27:12.220Z</time>
      </trkpt>
      <trkpt lat="48.86203" lon="2.35399">
        <ele>90.9</ele>
        <time>2015-04-13T20:27:13.255Z</time>
      </trkpt>
      <trkpt lat="48.86197" lon="2.35396">
        <ele>90.9</ele>
        <time>2015-04-13T20:27:14.284Z</time>
      </trkpt>
      <trkpt lat="48.86191" lon="2.35392">
        <ele>91.1</ele>
        <time>2015-04-13T20:27:15.312Z</time>
      </trkpt>
      <trkpt lat="48.86186" lon="2.35389">
        <ele>91.2</ele>
        <time>2015-04-13T20:27:16.310Z</time>
      </trkpt>
      <trkpt lat="48.86181" lon="2.35385">
        <ele>91.3</ele>
        <time>2015-04-13T20:27:17.312Z</time>
      </trkpt>
      <trkpt lat="48.86177" lon="2.35382">
        <ele>91.3</ele>
        <time>2015-04-13T20:27:18.262Z</time>
      </trkpt>
      <trkpt lat="48.86172" lon="2.35378">
        <ele>91.4</ele>
        <time>2015-04-13T20:27:19.280Z</time>
      </trkpt>
      <trkpt lat="48.86168" lon="2.35375">
        <ele>91.5</ele>
        <time>2015-04-13T20:27:20.292Z</time>
      </trkpt>
      <trkpt lat="48.86163" lon="2.35371">
        <ele>91.7</ele>
        <time>2015-04-13T20:27:21.303Z</time>
      </trkpt>
      <trkpt lat="48.86158" lon="2.35368">
        <ele>91.8</ele>
        <time>2015-04-13T20:27:22.307Z</time>
      </trkpt>
      <trkpt lat="48.86154" lon="2.35365">
        <ele>92</ele>
        <time>2015-04-13T20:27:23.315Z</time>
      </trkpt>
      <trkpt lat="48.86149" lon="2.35362">
        <ele>92.3</ele>
        <time>2015-04-13T20:27:24.222Z</time>
      </trkpt>
      <trkpt lat="48.86143" lon="2.35359">
        <ele>92.5</ele>
        <time>2015-04-13T20:27:25.263Z</time>
      </trkpt>
      <trkpt lat="48.86138" lon="2.35357">
        <ele>92.9</ele>
        <time>2015-04-13T20:27:26.279Z</time>
      </trkpt>
      <trkpt lat="48.86134" lon="2.35356">
        <ele>93.2</ele>
        <time>2015-04-13T20:27:27.299Z</time>
      </trkpt>
      <trkpt lat="48.86129" lon="2.35352">
        <ele>93.6</ele>
        <time>2015-04-13T20:27:28.337Z</time>
      </trkpt>
      <trkpt lat="48.86124" lon="2.35348">
        <ele>94.5</ele>
        <time>2015-04-13T20:27:29.209Z</time>
      </trkpt>
      <trkpt lat="48.86118" lon="2.35343">
        <ele>95.3</ele>
        <time>2015-04-13T20:27:30.213Z</time>
      </trkpt>
      <trkpt lat="48.86112" lon="2.35339">
        <ele>95.8</ele>
        <time>2015-04-13T20:27:31.562Z</time>
      </trkpt>
      <trkpt lat="48.86107" lon="2.35334">
        <ele>96.7</ele>
        <time>2015-04-13T20:27:32.231Z</time>
      </trkpt>
      <trkpt lat="48.86101" lon="2.35329">
        <ele>97.9</ele>
        <time>2015-04-13T20:27:33.250Z</time>
      </trkpt>
      <trkpt lat="48.86095" lon="2.35325">
        <ele>98.1</ele>
        <time>2015-04-13T20:27:34.290Z</time>
      </trkpt>
      <trkpt lat="48.86088" lon="2.35322">
        <ele>98.6</ele>
        <time>2015-04-13T20:27:35.233Z</time>
      </trkpt>
      <trkpt lat="48.86082" lon="2.35319">
        <ele>99.2</ele>
        <time>2015-04-13T20:27:36.321Z</time>
      </trkpt>
      <trkpt lat="48.86076" lon="2.35315">
        <ele>99.9</ele>
        <time>2015-04-13T20:27:37.245Z</time>
      </trkpt>
      <trkpt lat="48.8607" lon="2.35313">
        <ele>100.1</ele>
        <time>2015-04-13T20:27:38.266Z</time>
      </trkpt>
      <trkpt lat="48.86063" lon="2.35313">
        <ele>100.5</ele>
        <time>2015-04-13T20:27:39.279Z</time>
      </trkpt>
      <trkpt lat="48.86057" lon="2.35312">
        <ele>101</ele>
        <time>2015-04-13T20:27:40.308Z</time>
      </trkpt>
      <trkpt lat="48.86051" lon="2.35311">
        <ele>101.5</ele>
        <time>2015-04-13T20:27:41.317Z</time>
      </trkpt>
      <trkpt lat="48.86044" lon="2.3531">
        <ele>102.5</ele>
        <time>2015-04-13T20:27:42.318Z</time>
      </trkpt>
      <trkpt lat="48.86038" lon="2.35307">
        <ele>103.5</ele>
        <time>2015-04-13T20:27:43.261Z</time>
      </trkpt>
      <trkpt lat="48.86031" lon="2.35304">
        <ele>105</ele>
        <time>2015-04-13T20:27:44.373Z</time>
      </trkpt>
      <trkpt lat="48.86025" lon="2.35299">
        <ele>106.1</ele>
        <time>2015-04-13T20:27:45.328Z</time>
      </trkpt>
      <trkpt lat="48.86019" lon="2.35295">
        <ele>107</ele>
        <time>2015-04-13T20:27:46.240Z</time>
      </trkpt>
      <trkpt lat="48.86012" lon="2.35291">
        <ele>107.8</ele>
        <time>2015-04-13T20:27:47.256Z</time>
      </trkpt>
      <trkpt lat="48.86004" lon="2.35286">
        <ele>108.8</ele>
        <time>2015-04-13T20:27:48.273Z</time>
      </trkpt>
      <trkpt lat="48.85997" lon="2.35282">
        <ele>109.6</ele>
        <time>2015-04-13T20:27:49.319Z</time>
      </trkpt>
      <trkpt lat="48.8599" lon="2.35277">
        <ele>110.1</ele>
        <time>2015-04-13T20:27:50.328Z</time>
      </trkpt>
      <trkpt lat="48.85984" lon="2.35275">
        <ele>110.2</ele>
        <time>2015-04-13T20:27:51.230Z</time>
      </trkpt>
      <trkpt lat="48.85978" lon="2.35272">
        <ele>110.3</ele>
        <time>2015-04-13T20:27:52.232Z</time>
      </trkpt>
      <trkpt lat="48.85972" lon="2.35269">
        <ele>110.6</ele>
        <time>2015-04-13T20:27:53.436Z</time>
      </trkpt>
      <trkpt lat="48.85967" lon="2.35266">
        <ele>110.8</ele>
        <time>2015-04-13T20:27:54.245Z</time>
      </trkpt>
      <trkpt lat="48.85961" lon="2.35264">
        <ele>110.9</ele>
        <time>2015-04-13T20:27:55.262Z</time>
      </trkpt>
      <trkpt lat="48.85956" lon="2.35261">
        <ele>111.2</ele>
        <time>2015-04-13T20:27:56.265Z</time>
      </trkpt>
      <trkpt lat="48.85951" lon="2.35258">
        <ele>111.3</ele>
        <time>2015-04-13T20:27:57.213Z</time>
      </trkpt>
      <trkpt lat="48.85945" lon="2.35256">
        <ele>111.4</ele>
        <time>2015-04-13T20:27:58.230Z</time>
      </trkpt>
      <trkpt lat="48.8594" lon="2.35254">
        <ele>111.7</ele>
        <time>2015-04-13T20:27:59.248Z</time>
      </trkpt>
      <trkpt lat="48.85934" lon="2.35251">
        <ele>111.8</ele>
        <time>2015-04-13T20:28:00.262Z</time>
      </trkpt>
      <trkpt lat="48.85927" lon="2.35251">
        <ele>112.2</ele>
        <time>2015-04-13T20:28:01.291Z</time>
      </trkpt>
      <trkpt lat="48.85922" lon="2.35248">
        <ele>112.2</ele>
        <time>2015-04-13T20:28:02.291Z</time>
      </trkpt>
      <trkpt lat="48.85916" lon="2.35245">
        <ele>112</ele>
        <time>2015-04-13T20:28:03.296Z</time>
      </trkpt>
      <trkpt lat="48.8591" lon="2.35241">
        <ele>111.8</ele>
        <time>2015-04-13T20:28:04.323Z</time>
      </trkpt>
      <trkpt lat="48.85904" lon="2.35238">
        <ele>111.7</ele>
        <time>2015-04-13T20:28:05.232Z</time>
      </trkpt>
      <trkpt lat="48.85899" lon="2.35234">
        <ele>111.8</ele>
        <time>2015-04-13T20:28:06.312Z</time>
      </trkpt>
      <trkpt lat="48.85893" lon="2.3523">
        <ele>111.8</ele>
        <time>2015-04-13T20:28:07.234Z</time>
      </trkpt>
      <trkpt lat="48.85888" lon="2.35225">
        <ele>111.8</ele>
        <time>2015-04-13T20:28:08.297Z</time>
      </trkpt>
      <trkpt lat="48.85882" lon="2.35221">
        <ele>111.8</ele>
        <time>2015-04-13T20:28:09.217Z</time>
      </trkpt>
      <trkpt lat="48.85876" lon="2.35218">
        <ele>111.7</ele>
        <time>2015-04-13T20:28:10.220Z</time>
      </trkpt>
      <trkpt lat="48.85871" lon="2.35214">
        <ele>111.7</ele>
        <time>2015-04-13T20:28:11.228Z</time>
      </trkpt>
      <trkpt lat="48.85866" lon="2.3521">
        <ele>111.7</ele>
        <time>2015-04-13T20:28:12.241Z</time>
      </trkpt>
      <trkpt lat="48.8586" lon="2.35207">
        <ele>111.8</ele>
        <time>2015-04-13T20:28:13.251Z</time>
      </trkpt>
      <trkpt lat="48.85856" lon="2.35203">
        <ele>111.7</ele>
        <time>2015-04-13T20:28:14.254Z</time>
      </trkpt>
      <trkpt lat="48.85851" lon="2.352">
        <ele>111.6</ele>
        <time>2015-04-13T20:28:15.276Z</time>
      </trkpt>
      <trkpt lat="48.85846" lon="2.35197">
        <ele>111.7</ele>
        <time>2015-04-13T20:28:16.296Z</time>
      </trkpt>
      <trkpt lat="48.85841" lon="2.35195">
        <ele>111.7</ele>
        <time>2015-04-13T20:28:17.219Z</time>
      </trkpt>
      <trkpt lat="48.85836" lon="2.35192">
        <ele>111.6</ele>
        <time>2015-04-13T20:28:18.214Z</time>
      </trkpt>
      <trkpt lat="48.85831" lon="2.3519">
        <ele>111.5</ele>
        <time>2015-04-13T20:28:19.215Z</time>
      </trkpt>
      <trkpt lat="48.85825" lon="2.35187">
        <ele>111.6</ele>
        <time>2015-04-13T20:28:20.267Z</time>
      </trkpt>
      <trkpt lat="48.8582" lon="2.35184">
        <ele>111.3</ele>
        <time>2015-04-13T20:28:21.269Z</time>
      </trkpt>
      <trkpt lat="48.85816" lon="2.3518">
        <ele>111.2</ele>
        <time>2015-04-13T20:28:22.282Z</time>
      </trkpt>
      <trkpt lat="48.85811" lon="2.35175">
        <ele>111.1</ele>
        <time>2015-04-13T20:28:23.326Z</time>
      </trkpt>
      <trkpt lat="48.85806" lon="2.35171">
        <ele>111</ele>
        <time>2015-04-13T20:28:24.220Z</time>
      </trkpt>
      <trkpt lat="48.85754" lon="2.35144">
        <ele>110.9</ele>
        <time>2015-04-13T20:28:34.235Z</time>
      </trkpt>
      <trkpt lat="48.85749" lon="2.35143">
        <ele>110.8</ele>
        <time>2015-04-13T20:28:35.220Z</time>
      </trkpt>
      <trkpt lat="48.85744" lon="2.35141">
        <ele>110.8</ele>
        <time>2015-04-13T20:28:36.213Z</time>
      </trkpt>
      <trkpt lat="48.85737" lon="2.35135">
        <ele>110.8</ele>
        <time>2015-04-13T20:28:38.257Z</time>
      </trkpt>
      <trkpt lat="48.85737" lon="2.35126">
        <ele>110.7</ele>
        <time>2015-04-13T20:28:39.269Z</time>
      </trkpt>
      <trkpt lat="48.85739" lon="2.35118">
        <ele>110.4</ele>
        <time>2015-04-13T20:28:40.268Z</time>
      </trkpt>
      <trkpt lat="48.85743" lon="2.3511">
        <ele>110.2</ele>
        <time>2015-04-13T20:28:41.290Z</time>
      </trkpt>
      <trkpt lat="48.85749" lon="2.35102">
        <ele>109.9</ele>
        <time>2015-04-13T20:28:42.303Z</time>
      </trkpt>
      <trkpt lat="48.85752" lon="2.35094">
        <ele>109.4</ele>
        <time>2015-04-13T20:28:43.309Z</time>
      </trkpt>
      <trkpt lat="48.85755" lon="2.35086">
        <ele>109.3</ele>
        <time>2015-04-13T20:28:44.316Z</time>
      </trkpt>
      <trkpt lat="48.85759" lon="2.35076">
        <ele>108.7</ele>
        <time>2015-04-13T20:28:45.225Z</time>
      </trkpt>
      <trkpt lat="48.85761" lon="2.35066">
        <ele>108.4</ele>
        <time>2015-04-13T20:28:46.230Z</time>
      </trkpt>
      <trkpt lat="48.85765" lon="2.35058">
        <ele>108.2</ele>
        <time>2015-04-13T20:28:47.237Z</time>
      </trkpt>
      <trkpt lat="48.85768" lon="2.35046">
        <ele>108.1</ele>
        <time>2015-04-13T20:28:48.246Z</time>
      </trkpt>
      <trkpt lat="48.85771" lon="2.35037">
        <ele>107.9</ele>
        <time>2015-04-13T20:28:49.250Z</time>
      </trkpt>
      <trkpt lat="48.85774" lon="2.35029">
        <ele>107.8</ele>
        <time>2015-04-13T20:28:50.279Z</time>
      </trkpt>
      <trkpt lat="48.85775" lon="2.3502">
        <ele>108.1</ele>
        <time>2015-04-13T20:28:51.297Z</time>
      </trkpt>
      <trkpt lat="48.85778" lon="2.35012">
        <ele>108.4</ele>
        <time>2015-04-13T20:28:52.308Z</time>
      </trkpt>
      <trkpt lat="48.85781" lon="2.35007">
        <ele>108.5</ele>
        <time>2015-04-13T20:28:53.315Z</time>
      </trkpt>
      <trkpt lat="48.85786" lon="2.34997">
        <ele>108.3</ele>
        <time>2015-04-13T20:28:55.227Z</time>
      </trkpt>
      <trkpt lat="48.85789" lon="2.34993">
        <ele>108.2</ele>
        <time>2015-04-13T20:28:56.249Z</time>
      </trkpt>
      <trkpt lat="48.85793" lon="2.34986">
        <ele>107.7</ele>
        <time>2015-04-13T20:28:58.298Z</time>
      </trkpt>
      <trkpt lat="48.85795" lon="2.34982">
        <ele>107.6</ele>
        <time>2015-04-13T20:28:59.297Z</time>
      </trkpt>
      <trkpt lat="48.85797" lon="2.34971">
        <ele>107.4</ele>
        <time>2015-04-13T20:29:01.202Z</time>
      </trkpt>
      <trkpt lat="48.85799" lon="2.34965">
        <ele>107.1</ele>
        <time>2015-04-13T20:29:02.287Z</time>
      </trkpt>
      <trkpt lat="48.85802" lon="2.34953">
        <ele>106.2</ele>
        <time>2015-04-13T20:29:04.232Z</time>
      </trkpt>
      <trkpt lat="48.85805" lon="2.34946">
        <ele>106</ele>
        <time>2015-04-13T20:29:05.219Z</time>
      </trkpt>
      <trkpt lat="48.85807" lon="2.34939">
        <ele>105.7</ele>
        <time>2015-04-13T20:29:06.202Z</time>
      </trkpt>
      <trkpt lat="48.85809" lon="2.34932">
        <ele>105.6</ele>
        <time>2015-04-13T20:29:07.218Z</time>
      </trkpt>
      <trkpt lat="48.85812" lon="2.34923">
        <ele>105.4</ele>
        <time>2015-04-13T20:29:08.292Z</time>
      </trkpt>
      <trkpt lat="48.85814" lon="2.34915">
        <ele>105.2</ele>
        <time>2015-04-13T20:29:09.346Z</time>
      </trkpt>
      <trkpt lat="48.85816" lon="2.34907">
        <ele>105.1</ele>
        <time>2015-04-13T20:29:10.284Z</time>
      </trkpt>
      <trkpt lat="48.85819" lon="2.349">
        <ele>105</ele>
        <time>2015-04-13T20:29:11.278Z</time>
      </trkpt>
      <trkpt lat="48.85821" lon="2.34892">
        <ele>104.7</ele>
        <time>2015-04-13T20:29:12.333Z</time>
      </trkpt>
      <trkpt lat="48.85823" lon="2.34884">
        <ele>104.6</ele>
        <time>2015-04-13T20:29:13.346Z</time>
      </trkpt>
      <trkpt lat="48.85825" lon="2.34876">
        <ele>104.5</ele>
        <time>2015-04-13T20:29:14.352Z</time>
      </trkpt>
      <trkpt lat="48.85827" lon="2.34869">
        <ele>104.7</ele>
        <time>2015-04-13T20:29:15.257Z</time>
      </trkpt>
      <trkpt lat="48.85829" lon="2.34862">
        <ele>104.8</ele>
        <time>2015-04-13T20:29:16.358Z</time>
      </trkpt>
      <trkpt lat="48.85832" lon="2.34854">
        <ele>104.7</ele>
        <time>2015-04-13T20:29:17.316Z</time>
      </trkpt>
      <trkpt lat="48.85834" lon="2.34847">
        <ele>104.4</ele>
        <time>2015-04-13T20:29:18.343Z</time>
      </trkpt>
      <trkpt lat="48.85836" lon="2.34839">
        <ele>104.3</ele>
        <time>2015-04-13T20:29:19.252Z</time>
      </trkpt>
      <trkpt lat="48.85839" lon="2.34832">
        <ele>104.3</ele>
        <time>2015-04-13T20:29:20.398Z</time>
      </trkpt>
      <trkpt lat="48.85841" lon="2.34825">
        <ele>104.3</ele>
        <time>2015-04-13T20:29:21.227Z</time>
      </trkpt>
      <trkpt lat="48.85843" lon="2.34818">
        <ele>104.3</ele>
        <time>2015-04-13T20:29:22.270Z</time>
      </trkpt>
      <trkpt lat="48.85846" lon="2.34811">
        <ele>104.2</ele>
        <time>2015-04-13T20:29:23.290Z</time>
      </trkpt>
      <trkpt lat="48.85848" lon="2.34802">
        <ele>104.5</ele>
        <time>2015-04-13T20:29:24.321Z</time>
      </trkpt>
      <trkpt lat="48.8585" lon="2.34794">
        <ele>104.8</ele>
        <time>2015-04-13T20:29:25.251Z</time>
      </trkpt>
      <trkpt lat="48.85853" lon="2.34787">
        <ele>104.9</ele>
        <time>2015-04-13T20:29:26.352Z</time>
      </trkpt>
      <trkpt lat="48.85856" lon="2.3478">
        <ele>104.3</ele>
        <time>2015-04-13T20:29:27.265Z</time>
      </trkpt>
      <trkpt lat="48.85859" lon="2.34774">
        <ele>103.8</ele>
        <time>2015-04-13T20:29:28.329Z</time>
      </trkpt>
      <trkpt lat="48.85861" lon="2.34767">
        <ele>103.7</ele>
        <time>2015-04-13T20:29:29.256Z</time>
      </trkpt>
      <trkpt lat="48.85863" lon="2.3476">
        <ele>103.7</ele>
        <time>2015-04-13T20:29:30.272Z</time>
      </trkpt>
      <trkpt lat="48.85866" lon="2.34753">
        <ele>103.5</ele>
        <time>2015-04-13T20:29:31.272Z</time>
      </trkpt>
      <trkpt lat="48.85868" lon="2.34746">
        <ele>103.8</ele>
        <time>2015-04-13T20:29:32.288Z</time>
      </trkpt>
      <trkpt lat="48.8587" lon="2.34738">
        <ele>104.2</ele>
        <time>2015-04-13T20:29:33.298Z</time>
      </trkpt>
      <trkpt lat="48.85873" lon="2.34733">
        <ele>104.7</ele>
        <time>2015-04-13T20:29:34.316Z</time>
      </trkpt>
      <trkpt lat="48.85877" lon="2.34728">
        <ele>105.1</ele>
        <time>2015-04-13T20:29:35.322Z</time>
      </trkpt>
      <trkpt lat="48.85883" lon="2.3472">
        <ele>105.8</ele>
        <time>2015-04-13T20:29:37.242Z</time>
      </trkpt>
      <trkpt lat="48.85886" lon="2.34717">
        <ele>105.9</ele>
        <time>2015-04-13T20:29:38.278Z</time>
      </trkpt>
      <trkpt lat="48.85893" lon="2.3471">
        <ele>105.9</ele>
        <time>2015-04-13T20:29:40.320Z</time>
      </trkpt>
      <trkpt lat="48.85897" lon="2.34707">
        <ele>105.7</ele>
        <time>2015-04-13T20:29:41.331Z</time>
      </trkpt>
      <trkpt lat="48.85903" lon="2.34701">
        <ele>105.2</ele>
        <time>2015-04-13T20:29:43.337Z</time>
      </trkpt>
      <trkpt lat="48.85906" lon="2.34698">
        <ele>105.1</ele>
        <time>2015-04-13T20:29:44.361Z</time>
      </trkpt>
      <trkpt lat="48.85912" lon="2.34691">
        <ele>104.8</ele>
        <time>2015-04-13T20:29:46.303Z</time>
      </trkpt>
      <trkpt lat="48.85915" lon="2.34688">
        <ele>104.8</ele>
        <time>2015-04-13T20:29:47.308Z</time>
      </trkpt>
      <trkpt lat="48.85922" lon="2.34683">
        <ele>105</ele>
        <time>2015-04-13T20:29:49.213Z</time>
      </trkpt>
      <trkpt lat="48.85926" lon="2.34682">
        <ele>105</ele>
        <time>2015-04-13T20:29:50.308Z</time>
      </trkpt>
      <trkpt lat="48.85933" lon="2.34688">
        <ele>105.1</ele>
        <time>2015-04-13T20:29:58.241Z</time>
      </trkpt>
      <trkpt lat="48.85934" lon="2.34689">
        <ele>105.2</ele>
        <time>2015-04-13T20:29:59.250Z</time>
      </trkpt>
      <trkpt lat="48.85934" lon="2.34689">
        <ele>105.3</ele>
        <time>2015-04-13T20:30:00.298Z</time>
      </trkpt>
      <trkpt lat="48.85934" lon="2.3469">
        <ele>105.5</ele>
        <time>2015-04-13T20:30:01.320Z</time>
      </trkpt>
      <trkpt lat="48.85936" lon="2.34691">
        <ele>105.6</ele>
        <time>2015-04-13T20:30:06.246Z</time>
      </trkpt>
      <trkpt lat="48.85939" lon="2.34692">
        <ele>106.3</ele>
        <time>2015-04-13T20:30:07.303Z</time>
      </trkpt>
      <trkpt lat="48.85941" lon="2.34692">
        <ele>106.8</ele>
        <time>2015-04-13T20:30:11.230Z</time>
      </trkpt>
      <trkpt lat="48.85942" lon="2.34693">
        <ele>106.9</ele>
        <time>2015-04-13T20:30:12.253Z</time>
      </trkpt>
      <trkpt lat="48.85942" lon="2.34695">
        <ele>107.1</ele>
        <time>2015-04-13T20:30:14.278Z</time>
      </trkpt>
      <trkpt lat="48.85943" lon="2.34697">
        <ele>107.2</ele>
        <time>2015-04-13T20:30:15.283Z</time>
      </trkpt>
      <trkpt lat="48.85944" lon="2.34701">
        <ele>108.5</ele>
        <time>2015-04-13T20:30:27.270Z</time>
      </trkpt>
      <trkpt lat="48.85944" lon="2.34702">
        <ele>108.8</ele>
        <time>2015-04-13T20:30:28.318Z</time>
      </trkpt>
      <trkpt lat="48.85944" lon="2.34703">
        <ele>109</ele>
        <time>2015-04-13T20:30:53.258Z</time>
      </trkpt>
      <trkpt lat="48.85948" lon="2.34717">
        <ele>109</ele>
        <time>2015-04-13T20:30:54.235Z</time>
      </trkpt>
      <trkpt lat="48.85948" lon="2.34718">
        <ele>108.9</ele>
        <time>2015-04-13T20:30:55.297Z</time>
      </trkpt>
      <trkpt lat="48.85948" lon="2.34718">
        <ele>108.8</ele>
        <time>2015-04-13T20:30:56.292Z</time>
      </trkpt>
      <trkpt lat="48.85948" lon="2.34717">
        <ele>110.9</ele>
        <time>2015-04-13T20:31:14.313Z</time>
      </trkpt>
      <trkpt lat="48.85948" lon="2.34717">
        <ele>110.9</ele>
        <time>2015-04-13T20:31:15.225Z</time>
      </trkpt>
      <trkpt lat="48.85948" lon="2.34717">
        <ele>111</ele>
        <time>2015-04-13T20:31:21.250Z</time>
      </trkpt>
      <trkpt lat="48.85949" lon="2.34723">
        <ele>111.2</ele>
        <time>2015-04-13T20:31:22.280Z</time>
      </trkpt>
      <trkpt lat="48.85953" lon="2.34725">
        <ele>115.7</ele>
        <time>2015-04-13T20:31:51.254Z</time>
      </trkpt>
      <trkpt lat="48.85953" lon="2.34725">
        <ele>115.9</ele>
        <time>2015-04-13T20:31:52.277Z</time>
      </trkpt>
      <trkpt lat="48.85953" lon="2.34726">
        <ele>116.3</ele>
        <time>2015-04-13T20:31:53.311Z</time>
      </trkpt>
      <trkpt lat="48.85953" lon="2.34726">
        <ele>116.5</ele>
        <time>2015-04-13T20:31:54.214Z</time>
      </trkpt>
      <trkpt lat="48.85953" lon="2.34726">
        <ele>116.6</ele>
        <time>2015-04-13T20:31:55.235Z</time>
      </trkpt>
      <trkpt lat="48.85954" lon="2.34726">
        <ele>116.9</ele>
        <time>2015-04-13T20:31:58.219Z</time>
      </trkpt>
      <trkpt lat="48.85954" lon="2.34726">
        <ele>117.1</ele>
        <time>2015-04-13T20:31:59.217Z</time>
      </trkpt>
      <trkpt lat="48.85959" lon="2.3472">
        <ele>118.4</ele>
        <time>2015-04-13T20:32:11.227Z</time>
      </trkpt>
      <trkpt lat="48.85953" lon="2.34704">
        <ele>115.9</ele>
        <time>2015-04-13T20:32:26.242Z</time>
      </trkpt>
      <trkpt lat="48.85946" lon="2.34703">
        <ele>115.1</ele>
        <time>2015-04-13T20:33:34.209Z</time>
      </trkpt>
      <trkpt lat="48.85946" lon="2.34703">
        <ele>115.1</ele>
        <time>2015-04-13T20:33:35.240Z</time>
      </trkpt>
      <trkpt lat="48.85948" lon="2.34707">
        <ele>114.9</ele>
        <time>2015-04-13T20:33:48.266Z</time>
      </trkpt>
      <trkpt lat="48.85949" lon="2.34708">
        <ele>115.8</ele>
        <time>2015-04-13T20:33:53.243Z</time>
      </trkpt>
      <trkpt lat="48.85951" lon="2.34707">
        <ele>116.4</ele>
        <time>2015-04-13T20:33:56.228Z</time>
      </trkpt>
      <trkpt lat="48.8595" lon="2.34708">
        <ele>116.6</ele>
        <time>2015-04-13T20:33:57.297Z</time>
      </trkpt>
      <trkpt lat="48.8595" lon="2.3471">
        <ele>116.9</ele>
        <time>2015-04-13T20:34:24.243Z</time>
      </trkpt>
      <trkpt lat="48.85957" lon="2.3472">
        <ele>119</ele>
        <time>2015-04-13T20:34:37.275Z</time>
      </trkpt>
      <trkpt lat="48.85957" lon="2.3471">
        <ele>119.9</ele>
        <time>2015-04-13T20:35:09.275Z</time>
      </trkpt>
      <trkpt lat="48.85956" lon="2.3471">
        <ele>120.1</ele>
        <time>2015-04-13T20:35:10.327Z</time>
      </trkpt>
      <trkpt lat="48.85957" lon="2.34711">
        <ele>120.3</ele>
        <time>2015-04-13T20:36:17.275Z</time>
      </trkpt>
      <trkpt lat="48.8595" lon="2.34704">
        <ele>120.8</ele>
        <time>2015-04-13T20:36:18.286Z</time>
      </trkpt>
      <trkpt lat="48.85953" lon="2.34708">
        <ele>120.8</ele>
        <time>2015-04-13T20:36:29.218Z</time>
      </trkpt>
      <trkpt lat="48.85953" lon="2.34708">
        <ele>120.9</ele>
        <time>2015-04-13T20:36:30.219Z</time>
      </trkpt>
      <trkpt lat="48.85953" lon="2.34709">
        <ele>121.2</ele>
        <time>2015-04-13T20:36:34.214Z</time>
      </trkpt>
      <trkpt lat="48.85954" lon="2.3471">
        <ele>121.3</ele>
        <time>2015-04-13T20:36:35.212Z</time>
      </trkpt>
      <trkpt lat="48.85953" lon="2.3471">
        <ele>121.3</ele>
        <time>2015-04-13T20:36:36.209Z</time>
      </trkpt>
      <trkpt lat="48.85953" lon="2.3471">
        <ele>121.3</ele>
        <time>2015-04-13T20:36:39.235Z</time>
      </trkpt>
      <trkpt lat="48.85954" lon="2.34712">
        <ele>121.5</ele>
        <time>2015-04-13T20:36:40.261Z</time>
      </trkpt>
      <trkpt lat="48.85947" lon="2.34703">
        <ele>123.9</ele>
        <time>2015-04-13T20:37:18.255Z</time>
      </trkpt>
      <trkpt lat="48.85947" lon="2.34702">
        <ele>124.1</ele>
        <time>2015-04-13T20:37:19.264Z</time>
      </trkpt>
      <trkpt lat="48.85945" lon="2.347">
        <ele>124.8</ele>
        <time>2015-04-13T20:37:25.233Z</time>
      </trkpt>
      <trkpt lat="48.85945" lon="2.347">
        <ele>124.9</ele>
        <time>2015-04-13T20:37:26.246Z</time>
      </trkpt>
      <trkpt lat="48.85945" lon="2.34701">
        <ele>125</ele>
        <time>2015-04-13T20:37:27.229Z</time>
      </trkpt>
      <trkpt lat="48.85939" lon="2.34708">
        <ele>124.3</ele>
        <time>2015-04-13T20:37:30.252Z</time>
      </trkpt>
      <trkpt lat="48.85935" lon="2.3471">
        <ele>123.9</ele>
        <time>2015-04-13T20:37:31.265Z</time>
      </trkpt>
      <trkpt lat="48.85928" lon="2.34711">
        <ele>123.2</ele>
        <time>2015-04-13T20:37:32.266Z</time>
      </trkpt>
      <trkpt lat="48.85922" lon="2.34713">
        <ele>122.6</ele>
        <time>2015-04-13T20:37:33.312Z</time>
      </trkpt>
      <trkpt lat="48.85918" lon="2.34715">
        <ele>122.2</ele>
        <time>2015-04-13T20:37:34.322Z</time>
      </trkpt>
      <trkpt lat="48.85914" lon="2.34718">
        <ele>121.8</ele>
        <time>2015-04-13T20:37:35.249Z</time>
      </trkpt>
      <trkpt lat="48.85908" lon="2.34721">
        <ele>121</ele>
        <time>2015-04-13T20:37:36.248Z</time>
      </trkpt>
      <trkpt lat="48.85905" lon="2.34723">
        <ele>120.6</ele>
        <time>2015-04-13T20:37:37.216Z</time>
      </trkpt>
      <trkpt lat="48.85898" lon="2.34726">
        <ele>119.7</ele>
        <time>2015-04-13T20:37:39.273Z</time>
      </trkpt>
      <trkpt lat="48.85895" lon="2.34729">
        <ele>118.6</ele>
        <time>2015-04-13T20:37:40.303Z</time>
      </trkpt>
      <trkpt lat="48.85888" lon="2.34731">
        <ele>118.3</ele>
        <time>2015-04-13T20:37:42.288Z</time>
      </trkpt>
      <trkpt lat="48.85884" lon="2.34731">
        <ele>118.3</ele>
        <time>2015-04-13T20:37:43.297Z</time>
      </trkpt>
      <trkpt lat="48.85878" lon="2.34733">
        <ele>117.5</ele>
        <time>2015-04-13T20:37:47.270Z</time>
      </trkpt>
      <trkpt lat="48.85877" lon="2.34734">
        <ele>117.3</ele>
        <time>2015-04-13T20:37:48.224Z</time>
      </trkpt>
      <trkpt lat="48.85876" lon="2.34734">
        <ele>117.6</ele>
        <time>2015-04-13T20:37:51.244Z</time>
      </trkpt>
      <trkpt lat="48.85873" lon="2.34734">
        <ele>118.4</ele>
        <time>2015-04-13T20:37:52.273Z</time>
      </trkpt>
      <trkpt lat="48.85865" lon="2.34734">
        <ele>118.7</ele>
        <time>2015-04-13T20:37:55.311Z</time>
      </trkpt>
      <trkpt lat="48.85862" lon="2.34735">
        <ele>118.8</ele>
        <time>2015-04-13T20:37:56.317Z</time>
      </trkpt>
      <trkpt lat="48.85854" lon="2.34734">
        <ele>118.9</ele>
        <time>2015-04-13T20:37:58.273Z</time>
      </trkpt>
      <trkpt lat="48.85852" lon="2.34732">
        <ele>118.7</ele>
        <time>2015-04-13T20:37:59.292Z</time>
      </trkpt>
      <trkpt lat="48.85845" lon="2.34735">
        <ele>115.5</ele>
        <time>2015-04-13T20:38:02.266Z</time>
      </trkpt>
      <trkpt lat="48.85842" lon="2.34734">
        <ele>115.2</ele>
        <time>2015-04-13T20:38:03.269Z</time>
      </trkpt>
      <trkpt lat="48.85836" lon="2.34732">
        <ele>114.5</ele>
        <time>2015-04-13T20:38:05.293Z</time>
      </trkpt>
      <trkpt lat="48.85832" lon="2.34732">
        <ele>114.4</ele>
        <time>2015-04-13T20:38:06.297Z</time>
      </trkpt>
      <trkpt lat="48.85825" lon="2.3473">
        <ele>114.1</ele>
        <time>2015-04-13T20:38:08.273Z</time>
      </trkpt>
      <trkpt lat="48.85821" lon="2.34728">
        <ele>113.8</ele>
        <time>2015-04-13T20:38:09.264Z</time>
      </trkpt>
      <trkpt lat="48.85814" lon="2.34723">
        <ele>113.8</ele>
        <time>2015-04-13T20:38:11.316Z</time>
      </trkpt>
      <trkpt lat="48.85811" lon="2.34721">
        <ele>113.7</ele>
        <time>2015-04-13T20:38:12.305Z</time>
      </trkpt>
      <trkpt lat="48.85807" lon="2.34721">
        <ele>114</ele>
        <time>2015-04-13T20:38:13.240Z</time>
      </trkpt>
      <trkpt lat="48.85802" lon="2.34725">
        <ele>114.6</ele>
        <time>2015-04-13T20:38:14.264Z</time>
      </trkpt>
      <trkpt lat="48.85797" lon="2.34726">
        <ele>114.8</ele>
        <time>2015-04-13T20:38:15.268Z</time>
      </trkpt>
      <trkpt lat="48.85792" lon="2.34726">
        <ele>114.9</ele>
        <time>2015-04-13T20:38:16.276Z</time>
      </trkpt>
      <trkpt lat="48.85785" lon="2.34722">
        <ele>114.8</ele>
        <time>2015-04-13T20:38:18.312Z</time>
      </trkpt>
      <trkpt lat="48.85781" lon="2.3472">
        <ele>114.6</ele>
        <time>2015-04-13T20:38:19.325Z</time>
      </trkpt>
      <trkpt lat="48.85775" lon="2.34716">
        <ele>114.1</ele>
        <time>2015-04-13T20:38:21.285Z</time>
      </trkpt>
      <trkpt lat="48.85772" lon="2.34713">
        <ele>114</ele>
        <time>2015-04-13T20:38:22.297Z</time>
      </trkpt>
      <trkpt lat="48.85766" lon="2.3471">
        <ele>113.5</ele>
        <time>2015-04-13T20:38:24.234Z</time>
      </trkpt>
      <trkpt lat="48.85763" lon="2.3471">
        <ele>112.4</ele>
        <time>2015-04-13T20:38:25.256Z</time>
      </trkpt>
      <trkpt lat="48.85756" lon="2.34709">
        <ele>110.5</ele>
        <time>2015-04-13T20:38:27.283Z</time>
      </trkpt>
      <trkpt lat="48.85753" lon="2.34707">
        <ele>110</ele>
        <time>2015-04-13T20:38:28.303Z</time>
      </trkpt>
      <trkpt lat="48.85745" lon="2.34703">
        <ele>109.5</ele>
        <time>2015-04-13T20:38:30.234Z</time>
      </trkpt>
      <trkpt lat="48.85742" lon="2.34701">
        <ele>109.1</ele>
        <time>2015-04-13T20:38:31.290Z</time>
      </trkpt>
      <trkpt lat="48.85735" lon="2.34696">
        <ele>108.2</ele>
        <time>2015-04-13T20:38:33.235Z</time>
      </trkpt>
      <trkpt lat="48.85733" lon="2.34695">
        <ele>107.8</ele>
        <time>2015-04-13T20:38:34.211Z</time>
      </trkpt>
      <trkpt lat="48.85725" lon="2.3469">
        <ele>106.9</ele>
        <time>2015-04-13T20:38:40.234Z</time>
      </trkpt>
      <trkpt lat="48.85724" lon="2.34689">
        <ele>106.8</ele>
        <time>2015-04-13T20:38:41.238Z</time>
      </trkpt>
      <trkpt lat="48.85724" lon="2.34689">
        <ele>106.7</ele>
        <time>2015-04-13T20:38:42.246Z</time>
      </trkpt>
      <trkpt lat="48.85724" lon="2.34689">
        <ele>106.5</ele>
        <time>2015-04-13T20:38:43.258Z</time>
      </trkpt>
      <trkpt lat="48.85724" lon="2.34692">
        <ele>105.7</ele>
        <time>2015-04-13T20:38:47.273Z</time>
      </trkpt>
      <trkpt lat="48.85726" lon="2.34692">
        <ele>104.7</ele>
        <time>2015-04-13T20:38:48.473Z</time>
      </trkpt>
      <trkpt lat="48.85727" lon="2.34692">
        <ele>104</ele>
        <time>2015-04-13T20:38:55.321Z</time>
      </trkpt>
      <trkpt lat="48.85728" lon="2.34691">
        <ele>101.8</ele>
        <time>2015-04-13T20:38:56.329Z</time>
      </trkpt>
      <trkpt lat="48.8572" lon="2.34688">
        <ele>98.3</ele>
        <time>2015-04-13T20:39:02.337Z</time>
      </trkpt>
      <trkpt lat="48.85718" lon="2.34689">
        <ele>97.9</ele>
        <time>2015-04-13T20:39:03.228Z</time>
      </trkpt>
      <trkpt lat="48.85711" lon="2.34691">
        <ele>95.8</ele>
        <time>2015-04-13T20:39:07.240Z</time>
      </trkpt>
      <trkpt lat="48.85709" lon="2.3469">
        <ele>95.2</ele>
        <time>2015-04-13T20:39:08.292Z</time>
      </trkpt>
      <trkpt lat="48.85701" lon="2.34687">
        <ele>95.1</ele>
        <time>2015-04-13T20:39:11.215Z</time>
      </trkpt>
      <trkpt lat="48.85699" lon="2.34685">
        <ele>94.6</ele>
        <time>2015-04-13T20:39:12.219Z</time>
      </trkpt>
      <trkpt lat="48.85692" lon="2.3468">
        <ele>92.9</ele>
        <time>2015-04-13T20:39:15.297Z</time>
      </trkpt>
      <trkpt lat="48.8569" lon="2.34678">
        <ele>92.4</ele>
        <time>2015-04-13T20:39:16.305Z</time>
      </trkpt>
      <trkpt lat="48.85682" lon="2.34672">
        <ele>91.6</ele>
        <time>2015-04-13T20:39:19.233Z</time>
      </trkpt>
      <trkpt lat="48.85679" lon="2.34671">
        <ele>91.4</ele>
        <time>2015-04-13T20:39:20.254Z</time>
      </trkpt>
      <trkpt lat="48.85679" lon="2.34671">
        <ele>91.4</ele>
        <time>2015-04-13T20:39:20.705Z</time>
      </trkpt>
    </trkseg>
  </trk>
</gpx>